<?xml version="1.0" encoding="UTF-8" standalone="no" ?>
<gpx xmlns="http://www.topografix.com/GPX/1/1" xmlns:xsi="http://www.w3.org/2001/XMLSchema-instance" xsi:schemaLocation="http://www.topografix.com/GPX/1/1 http://www.topografix.com/GPX/1/1/gpx.xsd" version="1.1" creator="VisuGPX - https://www.visugpx.com">
  <metadata>
    <name>UTV 2019</name>
  </metadata>
  <trk>
    <name><![CDATA[20190505140806-Fbbn3]]></name>
    <trkseg>
      <trkpt lat="45.12758" lon="5.5916">
        <ele>1021</ele>
        <time>2010-01-01T00:00:00Z</time>
      </trkpt>
      <trkpt lat="45.12758" lon="5.5916">
        <ele>1021</ele>
        <time>2010-01-01T00:00:00Z</time>
      </trkpt>
      <trkpt lat="45.12758" lon="5.5916">
        <ele>1021</ele>
        <time>2010-01-01T00:00:00Z</time>
      </trkpt>
      <trkpt lat="45.12758" lon="5.59161">
        <ele>1021</ele>
        <time>2010-01-01T00:00:00Z</time>
      </trkpt>
      <trkpt lat="45.12757" lon="5.59161">
        <ele>1021</ele>
        <time>2010-01-01T00:00:00Z</time>
      </trkpt>
      <trkpt lat="45.12749" lon="5.59157">
        <ele>1021</ele>
        <time>2010-01-01T00:00:04Z</time>
      </trkpt>
      <trkpt lat="45.12713" lon="5.59139">
        <ele>1021</ele>
        <time>2010-01-01T00:00:19Z</time>
      </trkpt>
      <trkpt lat="45.1271" lon="5.59137">
        <ele>1021</ele>
        <time>2010-01-01T00:00:20Z</time>
      </trkpt>
      <trkpt lat="45.12709" lon="5.59136">
        <ele>1021</ele>
        <time>2010-01-01T00:00:21Z</time>
      </trkpt>
      <trkpt lat="45.12707" lon="5.59134">
        <ele>1021</ele>
        <time>2010-01-01T00:00:22Z</time>
      </trkpt>
      <trkpt lat="45.12703" lon="5.59129">
        <ele>1022</ele>
        <time>2010-01-01T00:00:24Z</time>
      </trkpt>
      <trkpt lat="45.12698" lon="5.59121">
        <ele>1022</ele>
        <time>2010-01-01T00:00:27Z</time>
      </trkpt>
      <trkpt lat="45.12693" lon="5.59111">
        <ele>1022</ele>
        <time>2010-01-01T00:00:30Z</time>
      </trkpt>
      <trkpt lat="45.12677" lon="5.59078">
        <ele>1022</ele>
        <time>2010-01-01T00:00:42Z</time>
      </trkpt>
      <trkpt lat="45.12638" lon="5.58992">
        <ele>1021</ele>
        <time>2010-01-01T00:01:10Z</time>
      </trkpt>
      <trkpt lat="45.12635" lon="5.58987">
        <ele>1021</ele>
        <time>2010-01-01T00:01:12Z</time>
      </trkpt>
      <trkpt lat="45.12626" lon="5.58993">
        <ele>1021</ele>
        <time>2010-01-01T00:01:16Z</time>
      </trkpt>
      <trkpt lat="45.12615" lon="5.58999">
        <ele>1021</ele>
        <time>2010-01-01T00:01:21Z</time>
      </trkpt>
      <trkpt lat="45.12604" lon="5.59006">
        <ele>1021</ele>
        <time>2010-01-01T00:01:26Z</time>
      </trkpt>
      <trkpt lat="45.12599" lon="5.59007">
        <ele>1021</ele>
        <time>2010-01-01T00:01:28Z</time>
      </trkpt>
      <trkpt lat="45.12594" lon="5.59009">
        <ele>1021</ele>
        <time>2010-01-01T00:01:30Z</time>
      </trkpt>
      <trkpt lat="45.12588" lon="5.5901">
        <ele>1021</ele>
        <time>2010-01-01T00:01:32Z</time>
      </trkpt>
      <trkpt lat="45.12576" lon="5.59012">
        <ele>1020</ele>
        <time>2010-01-01T00:01:37Z</time>
      </trkpt>
      <trkpt lat="45.12571" lon="5.59012">
        <ele>1020</ele>
        <time>2010-01-01T00:01:39Z</time>
      </trkpt>
      <trkpt lat="45.12554" lon="5.59014">
        <ele>1019</ele>
        <time>2010-01-01T00:01:46Z</time>
      </trkpt>
      <trkpt lat="45.12545" lon="5.59014">
        <ele>1019</ele>
        <time>2010-01-01T00:01:50Z</time>
      </trkpt>
      <trkpt lat="45.12539" lon="5.59014">
        <ele>1018</ele>
        <time>2010-01-01T00:01:52Z</time>
      </trkpt>
      <trkpt lat="45.12532" lon="5.59015">
        <ele>1018</ele>
        <time>2010-01-01T00:01:55Z</time>
      </trkpt>
      <trkpt lat="45.12528" lon="5.59015">
        <ele>1018</ele>
        <time>2010-01-01T00:01:56Z</time>
      </trkpt>
      <trkpt lat="45.12516" lon="5.59018">
        <ele>1018</ele>
        <time>2010-01-01T00:02:01Z</time>
      </trkpt>
      <trkpt lat="45.12506" lon="5.59022">
        <ele>1018</ele>
        <time>2010-01-01T00:02:05Z</time>
      </trkpt>
      <trkpt lat="45.12496" lon="5.59026">
        <ele>1017</ele>
        <time>2010-01-01T00:02:10Z</time>
      </trkpt>
      <trkpt lat="45.12487" lon="5.59032">
        <ele>1017</ele>
        <time>2010-01-01T00:02:14Z</time>
      </trkpt>
      <trkpt lat="45.12477" lon="5.59039">
        <ele>1016</ele>
        <time>2010-01-01T00:02:18Z</time>
      </trkpt>
      <trkpt lat="45.12468" lon="5.59047">
        <ele>1016</ele>
        <time>2010-01-01T00:02:22Z</time>
      </trkpt>
      <trkpt lat="45.12459" lon="5.59054">
        <ele>1015</ele>
        <time>2010-01-01T00:02:26Z</time>
      </trkpt>
      <trkpt lat="45.12454" lon="5.59056">
        <ele>1015</ele>
        <time>2010-01-01T00:02:29Z</time>
      </trkpt>
      <trkpt lat="45.12449" lon="5.59059">
        <ele>1015</ele>
        <time>2010-01-01T00:02:31Z</time>
      </trkpt>
      <trkpt lat="45.12444" lon="5.59061">
        <ele>1015</ele>
        <time>2010-01-01T00:02:33Z</time>
      </trkpt>
      <trkpt lat="45.1244" lon="5.59062">
        <ele>1014</ele>
        <time>2010-01-01T00:02:34Z</time>
      </trkpt>
      <trkpt lat="45.12435" lon="5.59064">
        <ele>1014</ele>
        <time>2010-01-01T00:02:36Z</time>
      </trkpt>
      <trkpt lat="45.12432" lon="5.59064">
        <ele>1014</ele>
        <time>2010-01-01T00:02:38Z</time>
      </trkpt>
      <trkpt lat="45.12427" lon="5.59065">
        <ele>1014</ele>
        <time>2010-01-01T00:02:40Z</time>
      </trkpt>
      <trkpt lat="45.12421" lon="5.59067">
        <ele>1013</ele>
        <time>2010-01-01T00:02:42Z</time>
      </trkpt>
      <trkpt lat="45.12413" lon="5.59068">
        <ele>1013</ele>
        <time>2010-01-01T00:02:45Z</time>
      </trkpt>
      <trkpt lat="45.12405" lon="5.59069">
        <ele>1012</ele>
        <time>2010-01-01T00:02:49Z</time>
      </trkpt>
      <trkpt lat="45.12393" lon="5.59068">
        <ele>1012</ele>
        <time>2010-01-01T00:02:53Z</time>
      </trkpt>
      <trkpt lat="45.12381" lon="5.59066">
        <ele>1011</ele>
        <time>2010-01-01T00:02:58Z</time>
      </trkpt>
      <trkpt lat="45.12369" lon="5.59064">
        <ele>1011</ele>
        <time>2010-01-01T00:03:03Z</time>
      </trkpt>
      <trkpt lat="45.12368" lon="5.59064">
        <ele>1011</ele>
        <time>2010-01-01T00:03:03Z</time>
      </trkpt>
      <trkpt lat="45.12363" lon="5.59061">
        <ele>1011</ele>
        <time>2010-01-01T00:03:06Z</time>
      </trkpt>
      <trkpt lat="45.12357" lon="5.59057">
        <ele>1011</ele>
        <time>2010-01-01T00:03:08Z</time>
      </trkpt>
      <trkpt lat="45.12348" lon="5.59051">
        <ele>1011</ele>
        <time>2010-01-01T00:03:12Z</time>
      </trkpt>
      <trkpt lat="45.12335" lon="5.59041">
        <ele>1011</ele>
        <time>2010-01-01T00:03:18Z</time>
      </trkpt>
      <trkpt lat="45.12323" lon="5.59032">
        <ele>1012</ele>
        <time>2010-01-01T00:03:24Z</time>
      </trkpt>
      <trkpt lat="45.12307" lon="5.59014">
        <ele>1012</ele>
        <time>2010-01-01T00:03:32Z</time>
      </trkpt>
      <trkpt lat="45.12295" lon="5.58999">
        <ele>1013</ele>
        <time>2010-01-01T00:03:38Z</time>
      </trkpt>
      <trkpt lat="45.12287" lon="5.58984">
        <ele>1012</ele>
        <time>2010-01-01T00:03:44Z</time>
      </trkpt>
      <trkpt lat="45.12274" lon="5.58962">
        <ele>1011</ele>
        <time>2010-01-01T00:03:52Z</time>
      </trkpt>
      <trkpt lat="45.1227" lon="5.58954">
        <ele>1011</ele>
        <time>2010-01-01T00:03:54Z</time>
      </trkpt>
      <trkpt lat="45.12254" lon="5.58926">
        <ele>1011</ele>
        <time>2010-01-01T00:04:05Z</time>
      </trkpt>
      <trkpt lat="45.12243" lon="5.58908">
        <ele>1013</ele>
        <time>2010-01-01T00:04:11Z</time>
      </trkpt>
      <trkpt lat="45.12239" lon="5.58902">
        <ele>1013</ele>
        <time>2010-01-01T00:04:14Z</time>
      </trkpt>
      <trkpt lat="45.12218" lon="5.58863">
        <ele>1015</ele>
        <time>2010-01-01T00:04:28Z</time>
      </trkpt>
      <trkpt lat="45.12199" lon="5.58827">
        <ele>1015</ele>
        <time>2010-01-01T00:04:40Z</time>
      </trkpt>
      <trkpt lat="45.12198" lon="5.58825">
        <ele>1015</ele>
        <time>2010-01-01T00:04:41Z</time>
      </trkpt>
      <trkpt lat="45.12189" lon="5.58813">
        <ele>1014</ele>
        <time>2010-01-01T00:04:46Z</time>
      </trkpt>
      <trkpt lat="45.12179" lon="5.58797">
        <ele>1014</ele>
        <time>2010-01-01T00:04:52Z</time>
      </trkpt>
      <trkpt lat="45.12173" lon="5.5879">
        <ele>1013</ele>
        <time>2010-01-01T00:04:55Z</time>
      </trkpt>
      <trkpt lat="45.12167" lon="5.58785">
        <ele>1013</ele>
        <time>2010-01-01T00:04:58Z</time>
      </trkpt>
      <trkpt lat="45.12162" lon="5.5878">
        <ele>1013</ele>
        <time>2010-01-01T00:05:00Z</time>
      </trkpt>
      <trkpt lat="45.1215" lon="5.58772">
        <ele>1014</ele>
        <time>2010-01-01T00:05:06Z</time>
      </trkpt>
      <trkpt lat="45.12138" lon="5.58765">
        <ele>1014</ele>
        <time>2010-01-01T00:05:11Z</time>
      </trkpt>
      <trkpt lat="45.12132" lon="5.58762">
        <ele>1015</ele>
        <time>2010-01-01T00:05:13Z</time>
      </trkpt>
      <trkpt lat="45.12127" lon="5.58759">
        <ele>1015</ele>
        <time>2010-01-01T00:05:15Z</time>
      </trkpt>
      <trkpt lat="45.12121" lon="5.58756">
        <ele>1016</ele>
        <time>2010-01-01T00:05:18Z</time>
      </trkpt>
      <trkpt lat="45.12115" lon="5.58754">
        <ele>1016</ele>
        <time>2010-01-01T00:05:20Z</time>
      </trkpt>
      <trkpt lat="45.12109" lon="5.58752">
        <ele>1017</ele>
        <time>2010-01-01T00:05:23Z</time>
      </trkpt>
      <trkpt lat="45.12103" lon="5.5875">
        <ele>1017</ele>
        <time>2010-01-01T00:05:25Z</time>
      </trkpt>
      <trkpt lat="45.12097" lon="5.58748">
        <ele>1017</ele>
        <time>2010-01-01T00:05:28Z</time>
      </trkpt>
      <trkpt lat="45.1209" lon="5.58746">
        <ele>1018</ele>
        <time>2010-01-01T00:05:31Z</time>
      </trkpt>
      <trkpt lat="45.12083" lon="5.58744">
        <ele>1018</ele>
        <time>2010-01-01T00:05:34Z</time>
      </trkpt>
      <trkpt lat="45.12076" lon="5.58743">
        <ele>1018</ele>
        <time>2010-01-01T00:05:36Z</time>
      </trkpt>
      <trkpt lat="45.12069" lon="5.58742">
        <ele>1019</ele>
        <time>2010-01-01T00:05:39Z</time>
      </trkpt>
      <trkpt lat="45.12062" lon="5.58741">
        <ele>1019</ele>
        <time>2010-01-01T00:05:42Z</time>
      </trkpt>
      <trkpt lat="45.12054" lon="5.58741">
        <ele>1019</ele>
        <time>2010-01-01T00:05:45Z</time>
      </trkpt>
      <trkpt lat="45.12047" lon="5.5874">
        <ele>1019</ele>
        <time>2010-01-01T00:05:48Z</time>
      </trkpt>
      <trkpt lat="45.1204" lon="5.5874">
        <ele>1019</ele>
        <time>2010-01-01T00:05:51Z</time>
      </trkpt>
      <trkpt lat="45.12031" lon="5.5874">
        <ele>1019</ele>
        <time>2010-01-01T00:05:54Z</time>
      </trkpt>
      <trkpt lat="45.12023" lon="5.58741">
        <ele>1019</ele>
        <time>2010-01-01T00:05:58Z</time>
      </trkpt>
      <trkpt lat="45.12018" lon="5.58742">
        <ele>1019</ele>
        <time>2010-01-01T00:06:00Z</time>
      </trkpt>
      <trkpt lat="45.12006" lon="5.58743">
        <ele>1019</ele>
        <time>2010-01-01T00:06:05Z</time>
      </trkpt>
      <trkpt lat="45.11991" lon="5.58743">
        <ele>1020</ele>
        <time>2010-01-01T00:06:11Z</time>
      </trkpt>
      <trkpt lat="45.11977" lon="5.58744">
        <ele>1021</ele>
        <time>2010-01-01T00:06:16Z</time>
      </trkpt>
      <trkpt lat="45.11971" lon="5.58743">
        <ele>1021</ele>
        <time>2010-01-01T00:06:19Z</time>
      </trkpt>
      <trkpt lat="45.11966" lon="5.58743">
        <ele>1022</ele>
        <time>2010-01-01T00:06:21Z</time>
      </trkpt>
      <trkpt lat="45.11962" lon="5.58741">
        <ele>1022</ele>
        <time>2010-01-01T00:06:22Z</time>
      </trkpt>
      <trkpt lat="45.11959" lon="5.5874">
        <ele>1023</ele>
        <time>2010-01-01T00:06:23Z</time>
      </trkpt>
      <trkpt lat="45.11956" lon="5.58738">
        <ele>1023</ele>
        <time>2010-01-01T00:06:25Z</time>
      </trkpt>
      <trkpt lat="45.11954" lon="5.58762">
        <ele>1024</ele>
        <time>2010-01-01T00:06:32Z</time>
      </trkpt>
      <trkpt lat="45.11954" lon="5.58768">
        <ele>1025</ele>
        <time>2010-01-01T00:06:33Z</time>
      </trkpt>
      <trkpt lat="45.11952" lon="5.58788">
        <ele>1026</ele>
        <time>2010-01-01T00:06:39Z</time>
      </trkpt>
      <trkpt lat="45.11951" lon="5.58795">
        <ele>1027</ele>
        <time>2010-01-01T00:06:41Z</time>
      </trkpt>
      <trkpt lat="45.11947" lon="5.58818">
        <ele>1028</ele>
        <time>2010-01-01T00:06:48Z</time>
      </trkpt>
      <trkpt lat="45.11946" lon="5.58823">
        <ele>1028</ele>
        <time>2010-01-01T00:06:49Z</time>
      </trkpt>
      <trkpt lat="45.11942" lon="5.58846">
        <ele>1029</ele>
        <time>2010-01-01T00:06:56Z</time>
      </trkpt>
      <trkpt lat="45.11933" lon="5.58875">
        <ele>1029</ele>
        <time>2010-01-01T00:07:05Z</time>
      </trkpt>
      <trkpt lat="45.11929" lon="5.58885">
        <ele>1030</ele>
        <time>2010-01-01T00:07:08Z</time>
      </trkpt>
      <trkpt lat="45.11925" lon="5.58896">
        <ele>1031</ele>
        <time>2010-01-01T00:07:12Z</time>
      </trkpt>
      <trkpt lat="45.11919" lon="5.58906">
        <ele>1031</ele>
        <time>2010-01-01T00:07:15Z</time>
      </trkpt>
      <trkpt lat="45.11912" lon="5.58917">
        <ele>1032</ele>
        <time>2010-01-01T00:07:19Z</time>
      </trkpt>
      <trkpt lat="45.11902" lon="5.58929">
        <ele>1033</ele>
        <time>2010-01-01T00:07:25Z</time>
      </trkpt>
      <trkpt lat="45.11891" lon="5.58937">
        <ele>1035</ele>
        <time>2010-01-01T00:07:30Z</time>
      </trkpt>
      <trkpt lat="45.11883" lon="5.58941">
        <ele>1035</ele>
        <time>2010-01-01T00:07:33Z</time>
      </trkpt>
      <trkpt lat="45.1187" lon="5.58946">
        <ele>1036</ele>
        <time>2010-01-01T00:07:38Z</time>
      </trkpt>
      <trkpt lat="45.11864" lon="5.58947">
        <ele>1037</ele>
        <time>2010-01-01T00:07:41Z</time>
      </trkpt>
      <trkpt lat="45.11859" lon="5.58948">
        <ele>1038</ele>
        <time>2010-01-01T00:07:43Z</time>
      </trkpt>
      <trkpt lat="45.11842" lon="5.5895">
        <ele>1043</ele>
        <time>2010-01-01T00:07:50Z</time>
      </trkpt>
      <trkpt lat="45.11813" lon="5.58954">
        <ele>1050</ele>
        <time>2010-01-01T00:08:01Z</time>
      </trkpt>
      <trkpt lat="45.11788" lon="5.58958">
        <ele>1054</ele>
        <time>2010-01-01T00:08:11Z</time>
      </trkpt>
      <trkpt lat="45.1177" lon="5.5896">
        <ele>1055</ele>
        <time>2010-01-01T00:08:19Z</time>
      </trkpt>
      <trkpt lat="45.11764" lon="5.58961">
        <ele>1055</ele>
        <time>2010-01-01T00:08:21Z</time>
      </trkpt>
      <trkpt lat="45.1176" lon="5.58961">
        <ele>1055</ele>
        <time>2010-01-01T00:08:23Z</time>
      </trkpt>
      <trkpt lat="45.11755" lon="5.58962">
        <ele>1055</ele>
        <time>2010-01-01T00:08:25Z</time>
      </trkpt>
      <trkpt lat="45.1175" lon="5.58962">
        <ele>1055</ele>
        <time>2010-01-01T00:08:27Z</time>
      </trkpt>
      <trkpt lat="45.11747" lon="5.58962">
        <ele>1056</ele>
        <time>2010-01-01T00:08:28Z</time>
      </trkpt>
      <trkpt lat="45.11746" lon="5.58962">
        <ele>1056</ele>
        <time>2010-01-01T00:08:28Z</time>
      </trkpt>
      <trkpt lat="45.11745" lon="5.58964">
        <ele>1056</ele>
        <time>2010-01-01T00:08:29Z</time>
      </trkpt>
      <trkpt lat="45.11741" lon="5.5897">
        <ele>1056</ele>
        <time>2010-01-01T00:08:31Z</time>
      </trkpt>
      <trkpt lat="45.11729" lon="5.58997">
        <ele>1058</ele>
        <time>2010-01-01T00:08:40Z</time>
      </trkpt>
      <trkpt lat="45.11715" lon="5.5902">
        <ele>1061</ele>
        <time>2010-01-01T00:08:49Z</time>
      </trkpt>
      <trkpt lat="45.11701" lon="5.59041">
        <ele>1066</ele>
        <time>2010-01-01T00:08:57Z</time>
      </trkpt>
      <trkpt lat="45.11687" lon="5.59062">
        <ele>1070</ele>
        <time>2010-01-01T00:09:05Z</time>
      </trkpt>
      <trkpt lat="45.11676" lon="5.59076">
        <ele>1074</ele>
        <time>2010-01-01T00:09:11Z</time>
      </trkpt>
      <trkpt lat="45.1167" lon="5.59083">
        <ele>1075</ele>
        <time>2010-01-01T00:09:14Z</time>
      </trkpt>
      <trkpt lat="45.11657" lon="5.59081">
        <ele>1077</ele>
        <time>2010-01-01T00:09:20Z</time>
      </trkpt>
      <trkpt lat="45.11642" lon="5.59079">
        <ele>1080</ele>
        <time>2010-01-01T00:09:26Z</time>
      </trkpt>
      <trkpt lat="45.11632" lon="5.59085">
        <ele>1084</ele>
        <time>2010-01-01T00:09:30Z</time>
      </trkpt>
      <trkpt lat="45.11623" lon="5.59087">
        <ele>1087</ele>
        <time>2010-01-01T00:09:34Z</time>
      </trkpt>
      <trkpt lat="45.11611" lon="5.59085">
        <ele>1090</ele>
        <time>2010-01-01T00:09:38Z</time>
      </trkpt>
      <trkpt lat="45.11602" lon="5.59087">
        <ele>1091</ele>
        <time>2010-01-01T00:09:42Z</time>
      </trkpt>
      <trkpt lat="45.11592" lon="5.59089">
        <ele>1093</ele>
        <time>2010-01-01T00:09:46Z</time>
      </trkpt>
      <trkpt lat="45.11584" lon="5.59094">
        <ele>1095</ele>
        <time>2010-01-01T00:09:50Z</time>
      </trkpt>
      <trkpt lat="45.11578" lon="5.59102">
        <ele>1096</ele>
        <time>2010-01-01T00:09:53Z</time>
      </trkpt>
      <trkpt lat="45.11572" lon="5.5911">
        <ele>1098</ele>
        <time>2010-01-01T00:09:56Z</time>
      </trkpt>
      <trkpt lat="45.11567" lon="5.59121">
        <ele>1101</ele>
        <time>2010-01-01T00:10:00Z</time>
      </trkpt>
      <trkpt lat="45.11562" lon="5.59134">
        <ele>1104</ele>
        <time>2010-01-01T00:10:04Z</time>
      </trkpt>
      <trkpt lat="45.11556" lon="5.59143">
        <ele>1106</ele>
        <time>2010-01-01T00:10:08Z</time>
      </trkpt>
      <trkpt lat="45.1155" lon="5.59149">
        <ele>1108</ele>
        <time>2010-01-01T00:10:11Z</time>
      </trkpt>
      <trkpt lat="45.11541" lon="5.59156">
        <ele>1110</ele>
        <time>2010-01-01T00:10:15Z</time>
      </trkpt>
      <trkpt lat="45.11537" lon="5.59158">
        <ele>1111</ele>
        <time>2010-01-01T00:10:16Z</time>
      </trkpt>
      <trkpt lat="45.11535" lon="5.59158">
        <ele>1112</ele>
        <time>2010-01-01T00:10:17Z</time>
      </trkpt>
      <trkpt lat="45.1153" lon="5.59158">
        <ele>1112</ele>
        <time>2010-01-01T00:10:19Z</time>
      </trkpt>
      <trkpt lat="45.11521" lon="5.59155">
        <ele>1114</ele>
        <time>2010-01-01T00:10:23Z</time>
      </trkpt>
      <trkpt lat="45.1151" lon="5.59146">
        <ele>1115</ele>
        <time>2010-01-01T00:10:28Z</time>
      </trkpt>
      <trkpt lat="45.11501" lon="5.5914">
        <ele>1116</ele>
        <time>2010-01-01T00:10:32Z</time>
      </trkpt>
      <trkpt lat="45.11489" lon="5.59136">
        <ele>1118</ele>
        <time>2010-01-01T00:10:37Z</time>
      </trkpt>
      <trkpt lat="45.11478" lon="5.59132">
        <ele>1121</ele>
        <time>2010-01-01T00:10:41Z</time>
      </trkpt>
      <trkpt lat="45.1147" lon="5.59128">
        <ele>1122</ele>
        <time>2010-01-01T00:10:45Z</time>
      </trkpt>
      <trkpt lat="45.11434" lon="5.59082">
        <ele>1128</ele>
        <time>2010-01-01T00:11:04Z</time>
      </trkpt>
      <trkpt lat="45.11418" lon="5.59079">
        <ele>1134</ele>
        <time>2010-01-01T00:11:11Z</time>
      </trkpt>
      <trkpt lat="45.11407" lon="5.59091">
        <ele>1137</ele>
        <time>2010-01-01T00:11:16Z</time>
      </trkpt>
      <trkpt lat="45.11404" lon="5.59098">
        <ele>1138</ele>
        <time>2010-01-01T00:11:18Z</time>
      </trkpt>
      <trkpt lat="45.11405" lon="5.59102">
        <ele>1138</ele>
        <time>2010-01-01T00:11:20Z</time>
      </trkpt>
      <trkpt lat="45.11408" lon="5.59114">
        <ele>1140</ele>
        <time>2010-01-01T00:11:23Z</time>
      </trkpt>
      <trkpt lat="45.11417" lon="5.5913">
        <ele>1142</ele>
        <time>2010-01-01T00:11:29Z</time>
      </trkpt>
      <trkpt lat="45.11426" lon="5.59147">
        <ele>1142</ele>
        <time>2010-01-01T00:11:35Z</time>
      </trkpt>
      <trkpt lat="45.11437" lon="5.59174">
        <ele>1144</ele>
        <time>2010-01-01T00:11:44Z</time>
      </trkpt>
      <trkpt lat="45.11448" lon="5.59196">
        <ele>1147</ele>
        <time>2010-01-01T00:11:51Z</time>
      </trkpt>
      <trkpt lat="45.11457" lon="5.59219">
        <ele>1149</ele>
        <time>2010-01-01T00:11:59Z</time>
      </trkpt>
      <trkpt lat="45.11459" lon="5.5924">
        <ele>1153</ele>
        <time>2010-01-01T00:12:05Z</time>
      </trkpt>
      <trkpt lat="45.11459" lon="5.59262">
        <ele>1160</ele>
        <time>2010-01-01T00:12:11Z</time>
      </trkpt>
      <trkpt lat="45.11459" lon="5.59275">
        <ele>1164</ele>
        <time>2010-01-01T00:12:15Z</time>
      </trkpt>
      <trkpt lat="45.11459" lon="5.59285">
        <ele>1166</ele>
        <time>2010-01-01T00:12:18Z</time>
      </trkpt>
      <trkpt lat="45.11459" lon="5.59292">
        <ele>1168</ele>
        <time>2010-01-01T00:12:20Z</time>
      </trkpt>
      <trkpt lat="45.11455" lon="5.59323">
        <ele>1174</ele>
        <time>2010-01-01T00:12:29Z</time>
      </trkpt>
      <trkpt lat="45.11447" lon="5.59354">
        <ele>1182</ele>
        <time>2010-01-01T00:12:38Z</time>
      </trkpt>
      <trkpt lat="45.11446" lon="5.59365">
        <ele>1184</ele>
        <time>2010-01-01T00:12:41Z</time>
      </trkpt>
      <trkpt lat="45.11444" lon="5.59377">
        <ele>1186</ele>
        <time>2010-01-01T00:12:44Z</time>
      </trkpt>
      <trkpt lat="45.11442" lon="5.59415">
        <ele>1193</ele>
        <time>2010-01-01T00:12:55Z</time>
      </trkpt>
      <trkpt lat="45.11438" lon="5.59434">
        <ele>1198</ele>
        <time>2010-01-01T00:13:01Z</time>
      </trkpt>
      <trkpt lat="45.11436" lon="5.59453">
        <ele>1202</ele>
        <time>2010-01-01T00:13:06Z</time>
      </trkpt>
      <trkpt lat="45.11428" lon="5.59475">
        <ele>1205</ele>
        <time>2010-01-01T00:13:13Z</time>
      </trkpt>
      <trkpt lat="45.11424" lon="5.59513">
        <ele>1209</ele>
        <time>2010-01-01T00:13:24Z</time>
      </trkpt>
      <trkpt lat="45.1142" lon="5.5955">
        <ele>1214</ele>
        <time>2010-01-01T00:13:35Z</time>
      </trkpt>
      <trkpt lat="45.11416" lon="5.59592">
        <ele>1220</ele>
        <time>2010-01-01T00:13:47Z</time>
      </trkpt>
      <trkpt lat="45.11415" lon="5.59601">
        <ele>1221</ele>
        <time>2010-01-01T00:13:49Z</time>
      </trkpt>
      <trkpt lat="45.11407" lon="5.59634">
        <ele>1225</ele>
        <time>2010-01-01T00:13:59Z</time>
      </trkpt>
      <trkpt lat="45.11401" lon="5.59647">
        <ele>1227</ele>
        <time>2010-01-01T00:14:03Z</time>
      </trkpt>
      <trkpt lat="45.11386" lon="5.5967">
        <ele>1230</ele>
        <time>2010-01-01T00:14:12Z</time>
      </trkpt>
      <trkpt lat="45.11378" lon="5.59684">
        <ele>1233</ele>
        <time>2010-01-01T00:14:17Z</time>
      </trkpt>
      <trkpt lat="45.11372" lon="5.59702">
        <ele>1235</ele>
        <time>2010-01-01T00:14:23Z</time>
      </trkpt>
      <trkpt lat="45.1137" lon="5.59725">
        <ele>1237</ele>
        <time>2010-01-01T00:14:30Z</time>
      </trkpt>
      <trkpt lat="45.11365" lon="5.59748">
        <ele>1241</ele>
        <time>2010-01-01T00:14:36Z</time>
      </trkpt>
      <trkpt lat="45.11363" lon="5.59762">
        <ele>1243</ele>
        <time>2010-01-01T00:14:40Z</time>
      </trkpt>
      <trkpt lat="45.11363" lon="5.59785">
        <ele>1247</ele>
        <time>2010-01-01T00:14:47Z</time>
      </trkpt>
      <trkpt lat="45.11366" lon="5.59791">
        <ele>1249</ele>
        <time>2010-01-01T00:14:49Z</time>
      </trkpt>
      <trkpt lat="45.11338" lon="5.59885">
        <ele>1266</ele>
        <time>2010-01-01T00:15:18Z</time>
      </trkpt>
      <trkpt lat="45.11343" lon="5.59917">
        <ele>1268</ele>
        <time>2010-01-01T00:15:27Z</time>
      </trkpt>
      <trkpt lat="45.11338" lon="5.59919">
        <ele>1268</ele>
        <time>2010-01-01T00:15:29Z</time>
      </trkpt>
      <trkpt lat="45.11331" lon="5.5992">
        <ele>1268</ele>
        <time>2010-01-01T00:15:32Z</time>
      </trkpt>
      <trkpt lat="45.11311" lon="5.59943">
        <ele>1269</ele>
        <time>2010-01-01T00:15:42Z</time>
      </trkpt>
      <trkpt lat="45.11296" lon="5.59958">
        <ele>1270</ele>
        <time>2010-01-01T00:15:50Z</time>
      </trkpt>
      <trkpt lat="45.11283" lon="5.59971">
        <ele>1272</ele>
        <time>2010-01-01T00:15:56Z</time>
      </trkpt>
      <trkpt lat="45.11257" lon="5.59999">
        <ele>1271</ele>
        <time>2010-01-01T00:16:09Z</time>
      </trkpt>
      <trkpt lat="45.11239" lon="5.60023">
        <ele>1264</ele>
        <time>2010-01-01T00:16:19Z</time>
      </trkpt>
      <trkpt lat="45.11218" lon="5.60045">
        <ele>1262</ele>
        <time>2010-01-01T00:16:29Z</time>
      </trkpt>
      <trkpt lat="45.11193" lon="5.60068">
        <ele>1264</ele>
        <time>2010-01-01T00:16:41Z</time>
      </trkpt>
      <trkpt lat="45.11165" lon="5.60093">
        <ele>1260</ele>
        <time>2010-01-01T00:16:55Z</time>
      </trkpt>
      <trkpt lat="45.11126" lon="5.60128">
        <ele>1256</ele>
        <time>2010-01-01T00:17:13Z</time>
      </trkpt>
      <trkpt lat="45.11074" lon="5.60169">
        <ele>1259</ele>
        <time>2010-01-01T00:17:37Z</time>
      </trkpt>
      <trkpt lat="45.11033" lon="5.60198">
        <ele>1265</ele>
        <time>2010-01-01T00:17:55Z</time>
      </trkpt>
      <trkpt lat="45.10999" lon="5.60225">
        <ele>1267</ele>
        <time>2010-01-01T00:18:11Z</time>
      </trkpt>
      <trkpt lat="45.10967" lon="5.60251">
        <ele>1267</ele>
        <time>2010-01-01T00:18:26Z</time>
      </trkpt>
      <trkpt lat="45.10945" lon="5.60268">
        <ele>1271</ele>
        <time>2010-01-01T00:18:36Z</time>
      </trkpt>
      <trkpt lat="45.1092" lon="5.60278">
        <ele>1270</ele>
        <time>2010-01-01T00:18:46Z</time>
      </trkpt>
      <trkpt lat="45.10892" lon="5.60287">
        <ele>1277</ele>
        <time>2010-01-01T00:18:58Z</time>
      </trkpt>
      <trkpt lat="45.10879" lon="5.60292">
        <ele>1280</ele>
        <time>2010-01-01T00:19:03Z</time>
      </trkpt>
      <trkpt lat="45.10869" lon="5.60298">
        <ele>1280</ele>
        <time>2010-01-01T00:19:07Z</time>
      </trkpt>
      <trkpt lat="45.1086" lon="5.60305">
        <ele>1280</ele>
        <time>2010-01-01T00:19:11Z</time>
      </trkpt>
      <trkpt lat="45.10855" lon="5.60312">
        <ele>1279</ele>
        <time>2010-01-01T00:19:14Z</time>
      </trkpt>
      <trkpt lat="45.10852" lon="5.60318">
        <ele>1278</ele>
        <time>2010-01-01T00:19:16Z</time>
      </trkpt>
      <trkpt lat="45.10851" lon="5.60325">
        <ele>1277</ele>
        <time>2010-01-01T00:19:18Z</time>
      </trkpt>
      <trkpt lat="45.10844" lon="5.60326">
        <ele>1277</ele>
        <time>2010-01-01T00:19:21Z</time>
      </trkpt>
      <trkpt lat="45.10837" lon="5.60327">
        <ele>1277</ele>
        <time>2010-01-01T00:19:24Z</time>
      </trkpt>
      <trkpt lat="45.10824" lon="5.60326">
        <ele>1281</ele>
        <time>2010-01-01T00:19:29Z</time>
      </trkpt>
      <trkpt lat="45.10816" lon="5.60327">
        <ele>1283</ele>
        <time>2010-01-01T00:19:32Z</time>
      </trkpt>
      <trkpt lat="45.10807" lon="5.60331">
        <ele>1285</ele>
        <time>2010-01-01T00:19:36Z</time>
      </trkpt>
      <trkpt lat="45.10799" lon="5.60337">
        <ele>1287</ele>
        <time>2010-01-01T00:19:40Z</time>
      </trkpt>
      <trkpt lat="45.10793" lon="5.60337">
        <ele>1288</ele>
        <time>2010-01-01T00:19:42Z</time>
      </trkpt>
      <trkpt lat="45.10791" lon="5.60337">
        <ele>1289</ele>
        <time>2010-01-01T00:19:43Z</time>
      </trkpt>
      <trkpt lat="45.10777" lon="5.60338">
        <ele>1292</ele>
        <time>2010-01-01T00:19:49Z</time>
      </trkpt>
      <trkpt lat="45.10756" lon="5.60342">
        <ele>1291</ele>
        <time>2010-01-01T00:19:57Z</time>
      </trkpt>
      <trkpt lat="45.10731" lon="5.60349">
        <ele>1295</ele>
        <time>2010-01-01T00:20:07Z</time>
      </trkpt>
      <trkpt lat="45.10701" lon="5.60358">
        <ele>1299</ele>
        <time>2010-01-01T00:20:19Z</time>
      </trkpt>
      <trkpt lat="45.10681" lon="5.60364">
        <ele>1299</ele>
        <time>2010-01-01T00:20:28Z</time>
      </trkpt>
      <trkpt lat="45.10671" lon="5.60368">
        <ele>1298</ele>
        <time>2010-01-01T00:20:32Z</time>
      </trkpt>
      <trkpt lat="45.10665" lon="5.60362">
        <ele>1301</ele>
        <time>2010-01-01T00:20:35Z</time>
      </trkpt>
      <trkpt lat="45.10661" lon="5.60362">
        <ele>1301</ele>
        <time>2010-01-01T00:20:36Z</time>
      </trkpt>
      <trkpt lat="45.10652" lon="5.60363">
        <ele>1303</ele>
        <time>2010-01-01T00:20:40Z</time>
      </trkpt>
      <trkpt lat="45.10632" lon="5.60364">
        <ele>1305</ele>
        <time>2010-01-01T00:20:48Z</time>
      </trkpt>
      <trkpt lat="45.10606" lon="5.60362">
        <ele>1305</ele>
        <time>2010-01-01T00:20:58Z</time>
      </trkpt>
      <trkpt lat="45.10575" lon="5.60356">
        <ele>1308</ele>
        <time>2010-01-01T00:21:11Z</time>
      </trkpt>
      <trkpt lat="45.10534" lon="5.60352">
        <ele>1312</ele>
        <time>2010-01-01T00:21:27Z</time>
      </trkpt>
      <trkpt lat="45.10511" lon="5.60349">
        <ele>1314</ele>
        <time>2010-01-01T00:21:37Z</time>
      </trkpt>
      <trkpt lat="45.10492" lon="5.60343">
        <ele>1317</ele>
        <time>2010-01-01T00:21:44Z</time>
      </trkpt>
      <trkpt lat="45.10468" lon="5.60342">
        <ele>1318</ele>
        <time>2010-01-01T00:21:54Z</time>
      </trkpt>
      <trkpt lat="45.10446" lon="5.60342">
        <ele>1319</ele>
        <time>2010-01-01T00:22:03Z</time>
      </trkpt>
      <trkpt lat="45.1042" lon="5.60341">
        <ele>1322</ele>
        <time>2010-01-01T00:22:13Z</time>
      </trkpt>
      <trkpt lat="45.10392" lon="5.60336">
        <ele>1329</ele>
        <time>2010-01-01T00:22:25Z</time>
      </trkpt>
      <trkpt lat="45.10351" lon="5.60323">
        <ele>1336</ele>
        <time>2010-01-01T00:22:41Z</time>
      </trkpt>
      <trkpt lat="45.10323" lon="5.60318">
        <ele>1339</ele>
        <time>2010-01-01T00:22:53Z</time>
      </trkpt>
      <trkpt lat="45.10301" lon="5.60319">
        <ele>1340</ele>
        <time>2010-01-01T00:23:01Z</time>
      </trkpt>
      <trkpt lat="45.10282" lon="5.60318">
        <ele>1344</ele>
        <time>2010-01-01T00:23:09Z</time>
      </trkpt>
      <trkpt lat="45.10249" lon="5.60312">
        <ele>1351</ele>
        <time>2010-01-01T00:23:22Z</time>
      </trkpt>
      <trkpt lat="45.10221" lon="5.60307">
        <ele>1353</ele>
        <time>2010-01-01T00:23:34Z</time>
      </trkpt>
      <trkpt lat="45.10198" lon="5.60305">
        <ele>1353</ele>
        <time>2010-01-01T00:23:43Z</time>
      </trkpt>
      <trkpt lat="45.10179" lon="5.60306">
        <ele>1352</ele>
        <time>2010-01-01T00:23:51Z</time>
      </trkpt>
      <trkpt lat="45.10156" lon="5.60309">
        <ele>1351</ele>
        <time>2010-01-01T00:24:00Z</time>
      </trkpt>
      <trkpt lat="45.10136" lon="5.60307">
        <ele>1352</ele>
        <time>2010-01-01T00:24:08Z</time>
      </trkpt>
      <trkpt lat="45.10114" lon="5.60309">
        <ele>1353</ele>
        <time>2010-01-01T00:24:17Z</time>
      </trkpt>
      <trkpt lat="45.10095" lon="5.60309">
        <ele>1354</ele>
        <time>2010-01-01T00:24:24Z</time>
      </trkpt>
      <trkpt lat="45.1007" lon="5.60304">
        <ele>1356</ele>
        <time>2010-01-01T00:24:34Z</time>
      </trkpt>
      <trkpt lat="45.10056" lon="5.60303">
        <ele>1357</ele>
        <time>2010-01-01T00:24:40Z</time>
      </trkpt>
      <trkpt lat="45.10041" lon="5.60302">
        <ele>1360</ele>
        <time>2010-01-01T00:24:46Z</time>
      </trkpt>
      <trkpt lat="45.10005" lon="5.60299">
        <ele>1367</ele>
        <time>2010-01-01T00:25:00Z</time>
      </trkpt>
      <trkpt lat="45.09972" lon="5.60295">
        <ele>1372</ele>
        <time>2010-01-01T00:25:14Z</time>
      </trkpt>
      <trkpt lat="45.09956" lon="5.60291">
        <ele>1374</ele>
        <time>2010-01-01T00:25:20Z</time>
      </trkpt>
      <trkpt lat="45.0994" lon="5.60286">
        <ele>1376</ele>
        <time>2010-01-01T00:25:27Z</time>
      </trkpt>
      <trkpt lat="45.09917" lon="5.60285">
        <ele>1379</ele>
        <time>2010-01-01T00:25:36Z</time>
      </trkpt>
      <trkpt lat="45.09895" lon="5.60285">
        <ele>1385</ele>
        <time>2010-01-01T00:25:45Z</time>
      </trkpt>
      <trkpt lat="45.09879" lon="5.60285">
        <ele>1388</ele>
        <time>2010-01-01T00:25:51Z</time>
      </trkpt>
      <trkpt lat="45.0987" lon="5.60281">
        <ele>1391</ele>
        <time>2010-01-01T00:25:55Z</time>
      </trkpt>
      <trkpt lat="45.09862" lon="5.6028">
        <ele>1393</ele>
        <time>2010-01-01T00:25:58Z</time>
      </trkpt>
      <trkpt lat="45.09853" lon="5.60283">
        <ele>1393</ele>
        <time>2010-01-01T00:26:02Z</time>
      </trkpt>
      <trkpt lat="45.09845" lon="5.60289">
        <ele>1392</ele>
        <time>2010-01-01T00:26:05Z</time>
      </trkpt>
      <trkpt lat="45.09837" lon="5.60292">
        <ele>1392</ele>
        <time>2010-01-01T00:26:09Z</time>
      </trkpt>
      <trkpt lat="45.09817" lon="5.60293">
        <ele>1395</ele>
        <time>2010-01-01T00:26:17Z</time>
      </trkpt>
      <trkpt lat="45.09795" lon="5.60293">
        <ele>1404</ele>
        <time>2010-01-01T00:26:26Z</time>
      </trkpt>
      <trkpt lat="45.09773" lon="5.60296">
        <ele>1414</ele>
        <time>2010-01-01T00:26:34Z</time>
      </trkpt>
      <trkpt lat="45.09747" lon="5.60299">
        <ele>1420</ele>
        <time>2010-01-01T00:26:45Z</time>
      </trkpt>
      <trkpt lat="45.09719" lon="5.60306">
        <ele>1422</ele>
        <time>2010-01-01T00:26:56Z</time>
      </trkpt>
      <trkpt lat="45.09701" lon="5.60306">
        <ele>1424</ele>
        <time>2010-01-01T00:27:03Z</time>
      </trkpt>
      <trkpt lat="45.09684" lon="5.60306">
        <ele>1424</ele>
        <time>2010-01-01T00:27:10Z</time>
      </trkpt>
      <trkpt lat="45.09663" lon="5.60306">
        <ele>1423</ele>
        <time>2010-01-01T00:27:19Z</time>
      </trkpt>
      <trkpt lat="45.09636" lon="5.60299">
        <ele>1422</ele>
        <time>2010-01-01T00:27:30Z</time>
      </trkpt>
      <trkpt lat="45.0963" lon="5.60297">
        <ele>1422</ele>
        <time>2010-01-01T00:27:32Z</time>
      </trkpt>
      <trkpt lat="45.09599" lon="5.6029">
        <ele>1424</ele>
        <time>2010-01-01T00:27:45Z</time>
      </trkpt>
      <trkpt lat="45.09562" lon="5.6028">
        <ele>1430</ele>
        <time>2010-01-01T00:28:00Z</time>
      </trkpt>
      <trkpt lat="45.0953" lon="5.60277">
        <ele>1439</ele>
        <time>2010-01-01T00:28:13Z</time>
      </trkpt>
      <trkpt lat="45.09499" lon="5.60277">
        <ele>1443</ele>
        <time>2010-01-01T00:28:25Z</time>
      </trkpt>
      <trkpt lat="45.09481" lon="5.60273">
        <ele>1445</ele>
        <time>2010-01-01T00:28:32Z</time>
      </trkpt>
      <trkpt lat="45.0947" lon="5.60267">
        <ele>1447</ele>
        <time>2010-01-01T00:28:37Z</time>
      </trkpt>
      <trkpt lat="45.09469" lon="5.60266">
        <ele>1447</ele>
        <time>2010-01-01T00:28:38Z</time>
      </trkpt>
      <trkpt lat="45.09458" lon="5.60258">
        <ele>1449</ele>
        <time>2010-01-01T00:28:42Z</time>
      </trkpt>
      <trkpt lat="45.09462" lon="5.60273">
        <ele>1449</ele>
        <time>2010-01-01T00:28:47Z</time>
      </trkpt>
      <trkpt lat="45.09469" lon="5.60285">
        <ele>1447</ele>
        <time>2010-01-01T00:28:51Z</time>
      </trkpt>
      <trkpt lat="45.0948" lon="5.60299">
        <ele>1446</ele>
        <time>2010-01-01T00:28:57Z</time>
      </trkpt>
      <trkpt lat="45.09463" lon="5.60293">
        <ele>1449</ele>
        <time>2010-01-01T00:29:04Z</time>
      </trkpt>
      <trkpt lat="45.09451" lon="5.60292">
        <ele>1452</ele>
        <time>2010-01-01T00:29:09Z</time>
      </trkpt>
      <trkpt lat="45.09444" lon="5.60294">
        <ele>1453</ele>
        <time>2010-01-01T00:29:12Z</time>
      </trkpt>
      <trkpt lat="45.09425" lon="5.60305">
        <ele>1456</ele>
        <time>2010-01-01T00:29:20Z</time>
      </trkpt>
      <trkpt lat="45.09415" lon="5.60311">
        <ele>1458</ele>
        <time>2010-01-01T00:29:25Z</time>
      </trkpt>
      <trkpt lat="45.09407" lon="5.60313">
        <ele>1459</ele>
        <time>2010-01-01T00:29:28Z</time>
      </trkpt>
      <trkpt lat="45.09401" lon="5.60331">
        <ele>1462</ele>
        <time>2010-01-01T00:29:33Z</time>
      </trkpt>
      <trkpt lat="45.09393" lon="5.60356">
        <ele>1467</ele>
        <time>2010-01-01T00:29:41Z</time>
      </trkpt>
      <trkpt lat="45.09386" lon="5.60392">
        <ele>1472</ele>
        <time>2010-01-01T00:29:52Z</time>
      </trkpt>
      <trkpt lat="45.09384" lon="5.604">
        <ele>1473</ele>
        <time>2010-01-01T00:29:54Z</time>
      </trkpt>
      <trkpt lat="45.0938" lon="5.60408">
        <ele>1475</ele>
        <time>2010-01-01T00:29:57Z</time>
      </trkpt>
      <trkpt lat="45.09376" lon="5.60422">
        <ele>1478</ele>
        <time>2010-01-01T00:30:01Z</time>
      </trkpt>
      <trkpt lat="45.09367" lon="5.60452">
        <ele>1485</ele>
        <time>2010-01-01T00:30:10Z</time>
      </trkpt>
      <trkpt lat="45.09365" lon="5.60464">
        <ele>1488</ele>
        <time>2010-01-01T00:30:14Z</time>
      </trkpt>
      <trkpt lat="45.09361" lon="5.60481">
        <ele>1493</ele>
        <time>2010-01-01T00:30:19Z</time>
      </trkpt>
      <trkpt lat="45.09359" lon="5.60503">
        <ele>1498</ele>
        <time>2010-01-01T00:30:25Z</time>
      </trkpt>
      <trkpt lat="45.09356" lon="5.60521">
        <ele>1502</ele>
        <time>2010-01-01T00:30:30Z</time>
      </trkpt>
      <trkpt lat="45.09356" lon="5.60531">
        <ele>1504</ele>
        <time>2010-01-01T00:30:33Z</time>
      </trkpt>
      <trkpt lat="45.09354" lon="5.60535">
        <ele>1505</ele>
        <time>2010-01-01T00:30:35Z</time>
      </trkpt>
      <trkpt lat="45.09352" lon="5.60535">
        <ele>1505</ele>
        <time>2010-01-01T00:30:35Z</time>
      </trkpt>
      <trkpt lat="45.09349" lon="5.60534">
        <ele>1505</ele>
        <time>2010-01-01T00:30:37Z</time>
      </trkpt>
      <trkpt lat="45.09347" lon="5.60533">
        <ele>1505</ele>
        <time>2010-01-01T00:30:38Z</time>
      </trkpt>
      <trkpt lat="45.09346" lon="5.60535">
        <ele>1505</ele>
        <time>2010-01-01T00:30:38Z</time>
      </trkpt>
      <trkpt lat="45.09345" lon="5.6054">
        <ele>1506</ele>
        <time>2010-01-01T00:30:40Z</time>
      </trkpt>
      <trkpt lat="45.09344" lon="5.60546">
        <ele>1508</ele>
        <time>2010-01-01T00:30:41Z</time>
      </trkpt>
      <trkpt lat="45.09343" lon="5.60553">
        <ele>1509</ele>
        <time>2010-01-01T00:30:43Z</time>
      </trkpt>
      <trkpt lat="45.09343" lon="5.6056">
        <ele>1510</ele>
        <time>2010-01-01T00:30:45Z</time>
      </trkpt>
      <trkpt lat="45.09343" lon="5.60561">
        <ele>1511</ele>
        <time>2010-01-01T00:30:46Z</time>
      </trkpt>
      <trkpt lat="45.09342" lon="5.6057">
        <ele>1513</ele>
        <time>2010-01-01T00:30:48Z</time>
      </trkpt>
      <trkpt lat="45.09341" lon="5.60578">
        <ele>1515</ele>
        <time>2010-01-01T00:30:51Z</time>
      </trkpt>
      <trkpt lat="45.0934" lon="5.60583">
        <ele>1516</ele>
        <time>2010-01-01T00:30:52Z</time>
      </trkpt>
      <trkpt lat="45.09343" lon="5.60587">
        <ele>1517</ele>
        <time>2010-01-01T00:30:54Z</time>
      </trkpt>
      <trkpt lat="45.09346" lon="5.60589">
        <ele>1517</ele>
        <time>2010-01-01T00:30:55Z</time>
      </trkpt>
      <trkpt lat="45.0935" lon="5.60593">
        <ele>1518</ele>
        <time>2010-01-01T00:30:57Z</time>
      </trkpt>
      <trkpt lat="45.09352" lon="5.60597">
        <ele>1519</ele>
        <time>2010-01-01T00:30:58Z</time>
      </trkpt>
      <trkpt lat="45.09353" lon="5.60602">
        <ele>1520</ele>
        <time>2010-01-01T00:31:00Z</time>
      </trkpt>
      <trkpt lat="45.09355" lon="5.60607">
        <ele>1522</ele>
        <time>2010-01-01T00:31:01Z</time>
      </trkpt>
      <trkpt lat="45.09358" lon="5.60613">
        <ele>1523</ele>
        <time>2010-01-01T00:31:04Z</time>
      </trkpt>
      <trkpt lat="45.09361" lon="5.60616">
        <ele>1524</ele>
        <time>2010-01-01T00:31:05Z</time>
      </trkpt>
      <trkpt lat="45.09365" lon="5.60619">
        <ele>1525</ele>
        <time>2010-01-01T00:31:07Z</time>
      </trkpt>
      <trkpt lat="45.0937" lon="5.60623">
        <ele>1526</ele>
        <time>2010-01-01T00:31:09Z</time>
      </trkpt>
      <trkpt lat="45.09374" lon="5.60628">
        <ele>1527</ele>
        <time>2010-01-01T00:31:11Z</time>
      </trkpt>
      <trkpt lat="45.09379" lon="5.60634">
        <ele>1529</ele>
        <time>2010-01-01T00:31:14Z</time>
      </trkpt>
      <trkpt lat="45.09393" lon="5.60645">
        <ele>1533</ele>
        <time>2010-01-01T00:31:20Z</time>
      </trkpt>
      <trkpt lat="45.09397" lon="5.60649">
        <ele>1534</ele>
        <time>2010-01-01T00:31:22Z</time>
      </trkpt>
      <trkpt lat="45.09403" lon="5.60655">
        <ele>1537</ele>
        <time>2010-01-01T00:31:25Z</time>
      </trkpt>
      <trkpt lat="45.09401" lon="5.60661">
        <ele>1539</ele>
        <time>2010-01-01T00:31:27Z</time>
      </trkpt>
      <trkpt lat="45.09394" lon="5.60668">
        <ele>1540</ele>
        <time>2010-01-01T00:31:31Z</time>
      </trkpt>
      <trkpt lat="45.0939" lon="5.60671">
        <ele>1541</ele>
        <time>2010-01-01T00:31:32Z</time>
      </trkpt>
      <trkpt lat="45.09388" lon="5.60676">
        <ele>1543</ele>
        <time>2010-01-01T00:31:34Z</time>
      </trkpt>
      <trkpt lat="45.09383" lon="5.60679">
        <ele>1544</ele>
        <time>2010-01-01T00:31:36Z</time>
      </trkpt>
      <trkpt lat="45.09378" lon="5.60682">
        <ele>1545</ele>
        <time>2010-01-01T00:31:38Z</time>
      </trkpt>
      <trkpt lat="45.09375" lon="5.60685">
        <ele>1546</ele>
        <time>2010-01-01T00:31:40Z</time>
      </trkpt>
      <trkpt lat="45.09372" lon="5.6069">
        <ele>1548</ele>
        <time>2010-01-01T00:31:42Z</time>
      </trkpt>
      <trkpt lat="45.09366" lon="5.60694">
        <ele>1549</ele>
        <time>2010-01-01T00:31:44Z</time>
      </trkpt>
      <trkpt lat="45.09357" lon="5.60698">
        <ele>1552</ele>
        <time>2010-01-01T00:31:48Z</time>
      </trkpt>
      <trkpt lat="45.09351" lon="5.60702">
        <ele>1556</ele>
        <time>2010-01-01T00:31:51Z</time>
      </trkpt>
      <trkpt lat="45.09346" lon="5.60703">
        <ele>1557</ele>
        <time>2010-01-01T00:31:53Z</time>
      </trkpt>
      <trkpt lat="45.09343" lon="5.60709">
        <ele>1561</ele>
        <time>2010-01-01T00:31:55Z</time>
      </trkpt>
      <trkpt lat="45.09335" lon="5.6072">
        <ele>1567</ele>
        <time>2010-01-01T00:31:59Z</time>
      </trkpt>
      <trkpt lat="45.09331" lon="5.60724">
        <ele>1570</ele>
        <time>2010-01-01T00:32:01Z</time>
      </trkpt>
      <trkpt lat="45.09327" lon="5.60728">
        <ele>1573</ele>
        <time>2010-01-01T00:32:03Z</time>
      </trkpt>
      <trkpt lat="45.09321" lon="5.60731">
        <ele>1575</ele>
        <time>2010-01-01T00:32:06Z</time>
      </trkpt>
      <trkpt lat="45.09315" lon="5.60731">
        <ele>1576</ele>
        <time>2010-01-01T00:32:08Z</time>
      </trkpt>
      <trkpt lat="45.09308" lon="5.60732">
        <ele>1578</ele>
        <time>2010-01-01T00:32:11Z</time>
      </trkpt>
      <trkpt lat="45.09302" lon="5.60732">
        <ele>1580</ele>
        <time>2010-01-01T00:32:13Z</time>
      </trkpt>
      <trkpt lat="45.09297" lon="5.60731">
        <ele>1581</ele>
        <time>2010-01-01T00:32:15Z</time>
      </trkpt>
      <trkpt lat="45.09292" lon="5.6073">
        <ele>1583</ele>
        <time>2010-01-01T00:32:17Z</time>
      </trkpt>
      <trkpt lat="45.09288" lon="5.60732">
        <ele>1585</ele>
        <time>2010-01-01T00:32:19Z</time>
      </trkpt>
      <trkpt lat="45.09283" lon="5.60736">
        <ele>1589</ele>
        <time>2010-01-01T00:32:21Z</time>
      </trkpt>
      <trkpt lat="45.09277" lon="5.6074">
        <ele>1594</ele>
        <time>2010-01-01T00:32:24Z</time>
      </trkpt>
      <trkpt lat="45.09272" lon="5.60743">
        <ele>1597</ele>
        <time>2010-01-01T00:32:26Z</time>
      </trkpt>
      <trkpt lat="45.09265" lon="5.60747">
        <ele>1601</ele>
        <time>2010-01-01T00:32:29Z</time>
      </trkpt>
      <trkpt lat="45.09256" lon="5.60755">
        <ele>1608</ele>
        <time>2010-01-01T00:32:34Z</time>
      </trkpt>
      <trkpt lat="45.09249" lon="5.60763">
        <ele>1614</ele>
        <time>2010-01-01T00:32:37Z</time>
      </trkpt>
      <trkpt lat="45.09247" lon="5.60765">
        <ele>1615</ele>
        <time>2010-01-01T00:32:38Z</time>
      </trkpt>
      <trkpt lat="45.09241" lon="5.60768">
        <ele>1617</ele>
        <time>2010-01-01T00:32:41Z</time>
      </trkpt>
      <trkpt lat="45.09239" lon="5.60772">
        <ele>1620</ele>
        <time>2010-01-01T00:32:42Z</time>
      </trkpt>
      <trkpt lat="45.09237" lon="5.60775">
        <ele>1621</ele>
        <time>2010-01-01T00:32:43Z</time>
      </trkpt>
      <trkpt lat="45.0923" lon="5.60778">
        <ele>1624</ele>
        <time>2010-01-01T00:32:46Z</time>
      </trkpt>
      <trkpt lat="45.09227" lon="5.60779">
        <ele>1625</ele>
        <time>2010-01-01T00:32:47Z</time>
      </trkpt>
      <trkpt lat="45.09226" lon="5.60783">
        <ele>1627</ele>
        <time>2010-01-01T00:32:49Z</time>
      </trkpt>
      <trkpt lat="45.09221" lon="5.60786">
        <ele>1629</ele>
        <time>2010-01-01T00:32:51Z</time>
      </trkpt>
      <trkpt lat="45.09215" lon="5.6079">
        <ele>1632</ele>
        <time>2010-01-01T00:32:53Z</time>
      </trkpt>
      <trkpt lat="45.09211" lon="5.60795">
        <ele>1635</ele>
        <time>2010-01-01T00:32:56Z</time>
      </trkpt>
      <trkpt lat="45.09203" lon="5.60797">
        <ele>1637</ele>
        <time>2010-01-01T00:32:59Z</time>
      </trkpt>
      <trkpt lat="45.092" lon="5.60797">
        <ele>1637</ele>
        <time>2010-01-01T00:33:00Z</time>
      </trkpt>
      <trkpt lat="45.09197" lon="5.60797">
        <ele>1637</ele>
        <time>2010-01-01T00:33:01Z</time>
      </trkpt>
      <trkpt lat="45.09196" lon="5.608">
        <ele>1638</ele>
        <time>2010-01-01T00:33:02Z</time>
      </trkpt>
      <trkpt lat="45.09193" lon="5.60805">
        <ele>1639</ele>
        <time>2010-01-01T00:33:04Z</time>
      </trkpt>
      <trkpt lat="45.09187" lon="5.60815">
        <ele>1640</ele>
        <time>2010-01-01T00:33:08Z</time>
      </trkpt>
      <trkpt lat="45.09185" lon="5.6082">
        <ele>1641</ele>
        <time>2010-01-01T00:33:09Z</time>
      </trkpt>
      <trkpt lat="45.09181" lon="5.60824">
        <ele>1641</ele>
        <time>2010-01-01T00:33:11Z</time>
      </trkpt>
      <trkpt lat="45.09177" lon="5.60827">
        <ele>1640</ele>
        <time>2010-01-01T00:33:13Z</time>
      </trkpt>
      <trkpt lat="45.09173" lon="5.6083">
        <ele>1640</ele>
        <time>2010-01-01T00:33:15Z</time>
      </trkpt>
      <trkpt lat="45.0917" lon="5.60837">
        <ele>1639</ele>
        <time>2010-01-01T00:33:17Z</time>
      </trkpt>
      <trkpt lat="45.09167" lon="5.60843">
        <ele>1639</ele>
        <time>2010-01-01T00:33:19Z</time>
      </trkpt>
      <trkpt lat="45.09164" lon="5.60849">
        <ele>1638</ele>
        <time>2010-01-01T00:33:21Z</time>
      </trkpt>
      <trkpt lat="45.09158" lon="5.60853">
        <ele>1637</ele>
        <time>2010-01-01T00:33:24Z</time>
      </trkpt>
      <trkpt lat="45.09153" lon="5.60857">
        <ele>1636</ele>
        <time>2010-01-01T00:33:26Z</time>
      </trkpt>
      <trkpt lat="45.09149" lon="5.6086">
        <ele>1636</ele>
        <time>2010-01-01T00:33:28Z</time>
      </trkpt>
      <trkpt lat="45.09144" lon="5.60865">
        <ele>1636</ele>
        <time>2010-01-01T00:33:31Z</time>
      </trkpt>
      <trkpt lat="45.09138" lon="5.6087">
        <ele>1637</ele>
        <time>2010-01-01T00:33:33Z</time>
      </trkpt>
      <trkpt lat="45.09134" lon="5.60875">
        <ele>1639</ele>
        <time>2010-01-01T00:33:35Z</time>
      </trkpt>
      <trkpt lat="45.09132" lon="5.60878">
        <ele>1639</ele>
        <time>2010-01-01T00:33:37Z</time>
      </trkpt>
      <trkpt lat="45.09127" lon="5.6088">
        <ele>1640</ele>
        <time>2010-01-01T00:33:39Z</time>
      </trkpt>
      <trkpt lat="45.09124" lon="5.60881">
        <ele>1640</ele>
        <time>2010-01-01T00:33:40Z</time>
      </trkpt>
      <trkpt lat="45.09123" lon="5.60887">
        <ele>1641</ele>
        <time>2010-01-01T00:33:42Z</time>
      </trkpt>
      <trkpt lat="45.09122" lon="5.60892">
        <ele>1643</ele>
        <time>2010-01-01T00:33:43Z</time>
      </trkpt>
      <trkpt lat="45.0912" lon="5.60896">
        <ele>1643</ele>
        <time>2010-01-01T00:33:45Z</time>
      </trkpt>
      <trkpt lat="45.09116" lon="5.60898">
        <ele>1644</ele>
        <time>2010-01-01T00:33:46Z</time>
      </trkpt>
      <trkpt lat="45.0911" lon="5.60898">
        <ele>1643</ele>
        <time>2010-01-01T00:33:49Z</time>
      </trkpt>
      <trkpt lat="45.09105" lon="5.60898">
        <ele>1644</ele>
        <time>2010-01-01T00:33:51Z</time>
      </trkpt>
      <trkpt lat="45.09099" lon="5.60897">
        <ele>1644</ele>
        <time>2010-01-01T00:33:53Z</time>
      </trkpt>
      <trkpt lat="45.09093" lon="5.60899">
        <ele>1646</ele>
        <time>2010-01-01T00:33:56Z</time>
      </trkpt>
      <trkpt lat="45.09088" lon="5.609">
        <ele>1646</ele>
        <time>2010-01-01T00:33:58Z</time>
      </trkpt>
      <trkpt lat="45.09085" lon="5.60903">
        <ele>1647</ele>
        <time>2010-01-01T00:33:59Z</time>
      </trkpt>
      <trkpt lat="45.09079" lon="5.6091">
        <ele>1650</ele>
        <time>2010-01-01T00:34:02Z</time>
      </trkpt>
      <trkpt lat="45.09073" lon="5.60915">
        <ele>1651</ele>
        <time>2010-01-01T00:34:05Z</time>
      </trkpt>
      <trkpt lat="45.09069" lon="5.60917">
        <ele>1652</ele>
        <time>2010-01-01T00:34:07Z</time>
      </trkpt>
      <trkpt lat="45.09067" lon="5.60924">
        <ele>1653</ele>
        <time>2010-01-01T00:34:09Z</time>
      </trkpt>
      <trkpt lat="45.09061" lon="5.60926">
        <ele>1654</ele>
        <time>2010-01-01T00:34:11Z</time>
      </trkpt>
      <trkpt lat="45.09055" lon="5.60928">
        <ele>1655</ele>
        <time>2010-01-01T00:34:14Z</time>
      </trkpt>
      <trkpt lat="45.09049" lon="5.60929">
        <ele>1655</ele>
        <time>2010-01-01T00:34:16Z</time>
      </trkpt>
      <trkpt lat="45.09043" lon="5.60928">
        <ele>1655</ele>
        <time>2010-01-01T00:34:19Z</time>
      </trkpt>
      <trkpt lat="45.09035" lon="5.60928">
        <ele>1655</ele>
        <time>2010-01-01T00:34:22Z</time>
      </trkpt>
      <trkpt lat="45.09029" lon="5.60928">
        <ele>1655</ele>
        <time>2010-01-01T00:34:24Z</time>
      </trkpt>
      <trkpt lat="45.09023" lon="5.60931">
        <ele>1655</ele>
        <time>2010-01-01T00:34:27Z</time>
      </trkpt>
      <trkpt lat="45.09015" lon="5.6094">
        <ele>1656</ele>
        <time>2010-01-01T00:34:31Z</time>
      </trkpt>
      <trkpt lat="45.09012" lon="5.60948">
        <ele>1657</ele>
        <time>2010-01-01T00:34:33Z</time>
      </trkpt>
      <trkpt lat="45.0901" lon="5.60956">
        <ele>1658</ele>
        <time>2010-01-01T00:34:36Z</time>
      </trkpt>
      <trkpt lat="45.09013" lon="5.60964">
        <ele>1659</ele>
        <time>2010-01-01T00:34:38Z</time>
      </trkpt>
      <trkpt lat="45.09017" lon="5.60968">
        <ele>1660</ele>
        <time>2010-01-01T00:34:40Z</time>
      </trkpt>
      <trkpt lat="45.09019" lon="5.60972">
        <ele>1660</ele>
        <time>2010-01-01T00:34:42Z</time>
      </trkpt>
      <trkpt lat="45.09019" lon="5.60978">
        <ele>1662</ele>
        <time>2010-01-01T00:34:43Z</time>
      </trkpt>
      <trkpt lat="45.09019" lon="5.60983">
        <ele>1663</ele>
        <time>2010-01-01T00:34:45Z</time>
      </trkpt>
      <trkpt lat="45.0902" lon="5.60988">
        <ele>1665</ele>
        <time>2010-01-01T00:34:46Z</time>
      </trkpt>
      <trkpt lat="45.09021" lon="5.60992">
        <ele>1666</ele>
        <time>2010-01-01T00:34:47Z</time>
      </trkpt>
      <trkpt lat="45.09021" lon="5.60999">
        <ele>1668</ele>
        <time>2010-01-01T00:34:49Z</time>
      </trkpt>
      <trkpt lat="45.09022" lon="5.61005">
        <ele>1670</ele>
        <time>2010-01-01T00:34:51Z</time>
      </trkpt>
      <trkpt lat="45.09024" lon="5.61008">
        <ele>1671</ele>
        <time>2010-01-01T00:34:52Z</time>
      </trkpt>
      <trkpt lat="45.09025" lon="5.6101">
        <ele>1672</ele>
        <time>2010-01-01T00:34:53Z</time>
      </trkpt>
      <trkpt lat="45.09025" lon="5.61018">
        <ele>1675</ele>
        <time>2010-01-01T00:34:55Z</time>
      </trkpt>
      <trkpt lat="45.09026" lon="5.61027">
        <ele>1678</ele>
        <time>2010-01-01T00:34:58Z</time>
      </trkpt>
      <trkpt lat="45.09026" lon="5.61033">
        <ele>1679</ele>
        <time>2010-01-01T00:35:00Z</time>
      </trkpt>
      <trkpt lat="45.09029" lon="5.61036">
        <ele>1680</ele>
        <time>2010-01-01T00:35:01Z</time>
      </trkpt>
      <trkpt lat="45.09031" lon="5.61042">
        <ele>1682</ele>
        <time>2010-01-01T00:35:03Z</time>
      </trkpt>
      <trkpt lat="45.09032" lon="5.61049">
        <ele>1684</ele>
        <time>2010-01-01T00:35:05Z</time>
      </trkpt>
      <trkpt lat="45.09032" lon="5.61055">
        <ele>1685</ele>
        <time>2010-01-01T00:35:07Z</time>
      </trkpt>
      <trkpt lat="45.09033" lon="5.6106">
        <ele>1686</ele>
        <time>2010-01-01T00:35:08Z</time>
      </trkpt>
      <trkpt lat="45.09033" lon="5.61062">
        <ele>1686</ele>
        <time>2010-01-01T00:35:09Z</time>
      </trkpt>
      <trkpt lat="45.09032" lon="5.61068">
        <ele>1688</ele>
        <time>2010-01-01T00:35:10Z</time>
      </trkpt>
      <trkpt lat="45.0903" lon="5.61071">
        <ele>1688</ele>
        <time>2010-01-01T00:35:12Z</time>
      </trkpt>
      <trkpt lat="45.0903" lon="5.61075">
        <ele>1689</ele>
        <time>2010-01-01T00:35:13Z</time>
      </trkpt>
      <trkpt lat="45.09033" lon="5.61079">
        <ele>1690</ele>
        <time>2010-01-01T00:35:14Z</time>
      </trkpt>
      <trkpt lat="45.09035" lon="5.61084">
        <ele>1691</ele>
        <time>2010-01-01T00:35:16Z</time>
      </trkpt>
      <trkpt lat="45.09038" lon="5.61088">
        <ele>1693</ele>
        <time>2010-01-01T00:35:18Z</time>
      </trkpt>
      <trkpt lat="45.09041" lon="5.61092">
        <ele>1694</ele>
        <time>2010-01-01T00:35:19Z</time>
      </trkpt>
      <trkpt lat="45.09043" lon="5.61094">
        <ele>1694</ele>
        <time>2010-01-01T00:35:20Z</time>
      </trkpt>
      <trkpt lat="45.09047" lon="5.61098">
        <ele>1695</ele>
        <time>2010-01-01T00:35:22Z</time>
      </trkpt>
      <trkpt lat="45.0905" lon="5.61102">
        <ele>1696</ele>
        <time>2010-01-01T00:35:24Z</time>
      </trkpt>
      <trkpt lat="45.09052" lon="5.61107">
        <ele>1697</ele>
        <time>2010-01-01T00:35:25Z</time>
      </trkpt>
      <trkpt lat="45.09055" lon="5.61113">
        <ele>1698</ele>
        <time>2010-01-01T00:35:28Z</time>
      </trkpt>
      <trkpt lat="45.09056" lon="5.6112">
        <ele>1699</ele>
        <time>2010-01-01T00:35:30Z</time>
      </trkpt>
      <trkpt lat="45.09057" lon="5.61127">
        <ele>1701</ele>
        <time>2010-01-01T00:35:32Z</time>
      </trkpt>
      <trkpt lat="45.09057" lon="5.61133">
        <ele>1702</ele>
        <time>2010-01-01T00:35:33Z</time>
      </trkpt>
      <trkpt lat="45.09056" lon="5.61137">
        <ele>1703</ele>
        <time>2010-01-01T00:35:34Z</time>
      </trkpt>
      <trkpt lat="45.09054" lon="5.61138">
        <ele>1703</ele>
        <time>2010-01-01T00:35:35Z</time>
      </trkpt>
      <trkpt lat="45.09052" lon="5.6114">
        <ele>1704</ele>
        <time>2010-01-01T00:35:36Z</time>
      </trkpt>
      <trkpt lat="45.0905" lon="5.61145">
        <ele>1706</ele>
        <time>2010-01-01T00:35:38Z</time>
      </trkpt>
      <trkpt lat="45.0905" lon="5.61151">
        <ele>1707</ele>
        <time>2010-01-01T00:35:40Z</time>
      </trkpt>
      <trkpt lat="45.09049" lon="5.61157">
        <ele>1709</ele>
        <time>2010-01-01T00:35:41Z</time>
      </trkpt>
      <trkpt lat="45.09049" lon="5.61164">
        <ele>1711</ele>
        <time>2010-01-01T00:35:43Z</time>
      </trkpt>
      <trkpt lat="45.09049" lon="5.61174">
        <ele>1714</ele>
        <time>2010-01-01T00:35:46Z</time>
      </trkpt>
      <trkpt lat="45.09049" lon="5.61186">
        <ele>1718</ele>
        <time>2010-01-01T00:35:50Z</time>
      </trkpt>
      <trkpt lat="45.09046" lon="5.61189">
        <ele>1719</ele>
        <time>2010-01-01T00:35:51Z</time>
      </trkpt>
      <trkpt lat="45.09044" lon="5.61191">
        <ele>1720</ele>
        <time>2010-01-01T00:35:52Z</time>
      </trkpt>
      <trkpt lat="45.09043" lon="5.61195">
        <ele>1721</ele>
        <time>2010-01-01T00:35:53Z</time>
      </trkpt>
      <trkpt lat="45.09042" lon="5.61198">
        <ele>1722</ele>
        <time>2010-01-01T00:35:54Z</time>
      </trkpt>
      <trkpt lat="45.09039" lon="5.612">
        <ele>1722</ele>
        <time>2010-01-01T00:35:55Z</time>
      </trkpt>
      <trkpt lat="45.09037" lon="5.61201">
        <ele>1723</ele>
        <time>2010-01-01T00:35:56Z</time>
      </trkpt>
      <trkpt lat="45.09036" lon="5.61201">
        <ele>1723</ele>
        <time>2010-01-01T00:35:57Z</time>
      </trkpt>
      <trkpt lat="45.09032" lon="5.61204">
        <ele>1724</ele>
        <time>2010-01-01T00:35:59Z</time>
      </trkpt>
      <trkpt lat="45.0903" lon="5.61208">
        <ele>1725</ele>
        <time>2010-01-01T00:36:00Z</time>
      </trkpt>
      <trkpt lat="45.09027" lon="5.61211">
        <ele>1726</ele>
        <time>2010-01-01T00:36:01Z</time>
      </trkpt>
      <trkpt lat="45.09024" lon="5.61212">
        <ele>1726</ele>
        <time>2010-01-01T00:36:03Z</time>
      </trkpt>
      <trkpt lat="45.09022" lon="5.61212">
        <ele>1726</ele>
        <time>2010-01-01T00:36:03Z</time>
      </trkpt>
      <trkpt lat="45.09019" lon="5.61212">
        <ele>1726</ele>
        <time>2010-01-01T00:36:05Z</time>
      </trkpt>
      <trkpt lat="45.09016" lon="5.61214">
        <ele>1727</ele>
        <time>2010-01-01T00:36:06Z</time>
      </trkpt>
      <trkpt lat="45.0902" lon="5.61219">
        <ele>1728</ele>
        <time>2010-01-01T00:36:08Z</time>
      </trkpt>
      <trkpt lat="45.09021" lon="5.61223">
        <ele>1728</ele>
        <time>2010-01-01T00:36:09Z</time>
      </trkpt>
      <trkpt lat="45.09023" lon="5.61225">
        <ele>1728</ele>
        <time>2010-01-01T00:36:10Z</time>
      </trkpt>
      <trkpt lat="45.09025" lon="5.61227">
        <ele>1729</ele>
        <time>2010-01-01T00:36:11Z</time>
      </trkpt>
      <trkpt lat="45.09026" lon="5.61232">
        <ele>1729</ele>
        <time>2010-01-01T00:36:13Z</time>
      </trkpt>
      <trkpt lat="45.09027" lon="5.61238">
        <ele>1730</ele>
        <time>2010-01-01T00:36:14Z</time>
      </trkpt>
      <trkpt lat="45.0903" lon="5.61242">
        <ele>1730</ele>
        <time>2010-01-01T00:36:16Z</time>
      </trkpt>
      <trkpt lat="45.09033" lon="5.61244">
        <ele>1730</ele>
        <time>2010-01-01T00:36:17Z</time>
      </trkpt>
      <trkpt lat="45.09035" lon="5.61247">
        <ele>1731</ele>
        <time>2010-01-01T00:36:19Z</time>
      </trkpt>
      <trkpt lat="45.09035" lon="5.61251">
        <ele>1731</ele>
        <time>2010-01-01T00:36:20Z</time>
      </trkpt>
      <trkpt lat="45.09035" lon="5.61256">
        <ele>1731</ele>
        <time>2010-01-01T00:36:21Z</time>
      </trkpt>
      <trkpt lat="45.09036" lon="5.61261">
        <ele>1732</ele>
        <time>2010-01-01T00:36:23Z</time>
      </trkpt>
      <trkpt lat="45.09036" lon="5.61266">
        <ele>1732</ele>
        <time>2010-01-01T00:36:24Z</time>
      </trkpt>
      <trkpt lat="45.09035" lon="5.61271">
        <ele>1733</ele>
        <time>2010-01-01T00:36:25Z</time>
      </trkpt>
      <trkpt lat="45.09034" lon="5.61275">
        <ele>1733</ele>
        <time>2010-01-01T00:36:27Z</time>
      </trkpt>
      <trkpt lat="45.09035" lon="5.6128">
        <ele>1733</ele>
        <time>2010-01-01T00:36:28Z</time>
      </trkpt>
      <trkpt lat="45.09036" lon="5.61286">
        <ele>1734</ele>
        <time>2010-01-01T00:36:30Z</time>
      </trkpt>
      <trkpt lat="45.09037" lon="5.61293">
        <ele>1734</ele>
        <time>2010-01-01T00:36:32Z</time>
      </trkpt>
      <trkpt lat="45.09042" lon="5.61305">
        <ele>1735</ele>
        <time>2010-01-01T00:36:36Z</time>
      </trkpt>
      <trkpt lat="45.09045" lon="5.61312">
        <ele>1736</ele>
        <time>2010-01-01T00:36:38Z</time>
      </trkpt>
      <trkpt lat="45.09047" lon="5.61316">
        <ele>1736</ele>
        <time>2010-01-01T00:36:40Z</time>
      </trkpt>
      <trkpt lat="45.09048" lon="5.61321">
        <ele>1736</ele>
        <time>2010-01-01T00:36:41Z</time>
      </trkpt>
      <trkpt lat="45.0905" lon="5.61328">
        <ele>1737</ele>
        <time>2010-01-01T00:36:43Z</time>
      </trkpt>
      <trkpt lat="45.09051" lon="5.61333">
        <ele>1738</ele>
        <time>2010-01-01T00:36:45Z</time>
      </trkpt>
      <trkpt lat="45.09053" lon="5.61337">
        <ele>1738</ele>
        <time>2010-01-01T00:36:46Z</time>
      </trkpt>
      <trkpt lat="45.09054" lon="5.61339">
        <ele>1738</ele>
        <time>2010-01-01T00:36:47Z</time>
      </trkpt>
      <trkpt lat="45.09056" lon="5.61341">
        <ele>1738</ele>
        <time>2010-01-01T00:36:48Z</time>
      </trkpt>
      <trkpt lat="45.09057" lon="5.61345">
        <ele>1739</ele>
        <time>2010-01-01T00:36:49Z</time>
      </trkpt>
      <trkpt lat="45.09057" lon="5.61348">
        <ele>1739</ele>
        <time>2010-01-01T00:36:50Z</time>
      </trkpt>
      <trkpt lat="45.09057" lon="5.61351">
        <ele>1739</ele>
        <time>2010-01-01T00:36:51Z</time>
      </trkpt>
      <trkpt lat="45.09057" lon="5.61354">
        <ele>1739</ele>
        <time>2010-01-01T00:36:51Z</time>
      </trkpt>
      <trkpt lat="45.09059" lon="5.61357">
        <ele>1740</ele>
        <time>2010-01-01T00:36:53Z</time>
      </trkpt>
      <trkpt lat="45.09059" lon="5.61361">
        <ele>1740</ele>
        <time>2010-01-01T00:36:54Z</time>
      </trkpt>
      <trkpt lat="45.0906" lon="5.61364">
        <ele>1741</ele>
        <time>2010-01-01T00:36:55Z</time>
      </trkpt>
      <trkpt lat="45.09062" lon="5.61365">
        <ele>1741</ele>
        <time>2010-01-01T00:36:56Z</time>
      </trkpt>
      <trkpt lat="45.09064" lon="5.61367">
        <ele>1742</ele>
        <time>2010-01-01T00:36:56Z</time>
      </trkpt>
      <trkpt lat="45.09065" lon="5.6137">
        <ele>1742</ele>
        <time>2010-01-01T00:36:57Z</time>
      </trkpt>
      <trkpt lat="45.09067" lon="5.61374">
        <ele>1743</ele>
        <time>2010-01-01T00:36:59Z</time>
      </trkpt>
      <trkpt lat="45.09068" lon="5.61377">
        <ele>1744</ele>
        <time>2010-01-01T00:37:00Z</time>
      </trkpt>
      <trkpt lat="45.09069" lon="5.61382">
        <ele>1745</ele>
        <time>2010-01-01T00:37:01Z</time>
      </trkpt>
      <trkpt lat="45.09069" lon="5.61386">
        <ele>1745</ele>
        <time>2010-01-01T00:37:02Z</time>
      </trkpt>
      <trkpt lat="45.09069" lon="5.61391">
        <ele>1746</ele>
        <time>2010-01-01T00:37:04Z</time>
      </trkpt>
      <trkpt lat="45.09069" lon="5.61396">
        <ele>1747</ele>
        <time>2010-01-01T00:37:05Z</time>
      </trkpt>
      <trkpt lat="45.09069" lon="5.614">
        <ele>1747</ele>
        <time>2010-01-01T00:37:06Z</time>
      </trkpt>
      <trkpt lat="45.09069" lon="5.61404">
        <ele>1748</ele>
        <time>2010-01-01T00:37:07Z</time>
      </trkpt>
      <trkpt lat="45.09069" lon="5.61407">
        <ele>1748</ele>
        <time>2010-01-01T00:37:08Z</time>
      </trkpt>
      <trkpt lat="45.09069" lon="5.61409">
        <ele>1749</ele>
        <time>2010-01-01T00:37:09Z</time>
      </trkpt>
      <trkpt lat="45.0907" lon="5.61411">
        <ele>1749</ele>
        <time>2010-01-01T00:37:10Z</time>
      </trkpt>
      <trkpt lat="45.09072" lon="5.61414">
        <ele>1750</ele>
        <time>2010-01-01T00:37:11Z</time>
      </trkpt>
      <trkpt lat="45.09073" lon="5.61417">
        <ele>1750</ele>
        <time>2010-01-01T00:37:12Z</time>
      </trkpt>
      <trkpt lat="45.09073" lon="5.61421">
        <ele>1751</ele>
        <time>2010-01-01T00:37:13Z</time>
      </trkpt>
      <trkpt lat="45.09075" lon="5.61425">
        <ele>1751</ele>
        <time>2010-01-01T00:37:14Z</time>
      </trkpt>
      <trkpt lat="45.09078" lon="5.61429">
        <ele>1752</ele>
        <time>2010-01-01T00:37:16Z</time>
      </trkpt>
      <trkpt lat="45.09081" lon="5.6143">
        <ele>1752</ele>
        <time>2010-01-01T00:37:17Z</time>
      </trkpt>
      <trkpt lat="45.09086" lon="5.6143">
        <ele>1753</ele>
        <time>2010-01-01T00:37:19Z</time>
      </trkpt>
      <trkpt lat="45.09093" lon="5.61438">
        <ele>1754</ele>
        <time>2010-01-01T00:37:23Z</time>
      </trkpt>
      <trkpt lat="45.09096" lon="5.61441">
        <ele>1755</ele>
        <time>2010-01-01T00:37:24Z</time>
      </trkpt>
      <trkpt lat="45.09098" lon="5.61447">
        <ele>1756</ele>
        <time>2010-01-01T00:37:26Z</time>
      </trkpt>
      <trkpt lat="45.09098" lon="5.61452">
        <ele>1756</ele>
        <time>2010-01-01T00:37:27Z</time>
      </trkpt>
      <trkpt lat="45.09099" lon="5.61456">
        <ele>1757</ele>
        <time>2010-01-01T00:37:29Z</time>
      </trkpt>
      <trkpt lat="45.091" lon="5.61462">
        <ele>1758</ele>
        <time>2010-01-01T00:37:30Z</time>
      </trkpt>
      <trkpt lat="45.09101" lon="5.61466">
        <ele>1758</ele>
        <time>2010-01-01T00:37:32Z</time>
      </trkpt>
      <trkpt lat="45.09103" lon="5.6147">
        <ele>1759</ele>
        <time>2010-01-01T00:37:33Z</time>
      </trkpt>
      <trkpt lat="45.09104" lon="5.61474">
        <ele>1759</ele>
        <time>2010-01-01T00:37:34Z</time>
      </trkpt>
      <trkpt lat="45.09104" lon="5.61479">
        <ele>1760</ele>
        <time>2010-01-01T00:37:36Z</time>
      </trkpt>
      <trkpt lat="45.09104" lon="5.61483">
        <ele>1761</ele>
        <time>2010-01-01T00:37:37Z</time>
      </trkpt>
      <trkpt lat="45.09104" lon="5.61487">
        <ele>1761</ele>
        <time>2010-01-01T00:37:38Z</time>
      </trkpt>
      <trkpt lat="45.09103" lon="5.61491">
        <ele>1762</ele>
        <time>2010-01-01T00:37:39Z</time>
      </trkpt>
      <trkpt lat="45.09102" lon="5.61497">
        <ele>1763</ele>
        <time>2010-01-01T00:37:41Z</time>
      </trkpt>
      <trkpt lat="45.091" lon="5.61502">
        <ele>1763</ele>
        <time>2010-01-01T00:37:42Z</time>
      </trkpt>
      <trkpt lat="45.09099" lon="5.61507">
        <ele>1765</ele>
        <time>2010-01-01T00:37:44Z</time>
      </trkpt>
      <trkpt lat="45.09098" lon="5.61512">
        <ele>1766</ele>
        <time>2010-01-01T00:37:45Z</time>
      </trkpt>
      <trkpt lat="45.09097" lon="5.61516">
        <ele>1766</ele>
        <time>2010-01-01T00:37:47Z</time>
      </trkpt>
      <trkpt lat="45.09098" lon="5.61521">
        <ele>1768</ele>
        <time>2010-01-01T00:37:48Z</time>
      </trkpt>
      <trkpt lat="45.091" lon="5.61526">
        <ele>1770</ele>
        <time>2010-01-01T00:37:50Z</time>
      </trkpt>
      <trkpt lat="45.09101" lon="5.61529">
        <ele>1771</ele>
        <time>2010-01-01T00:37:51Z</time>
      </trkpt>
      <trkpt lat="45.09101" lon="5.61533">
        <ele>1772</ele>
        <time>2010-01-01T00:37:52Z</time>
      </trkpt>
      <trkpt lat="45.091" lon="5.61538">
        <ele>1774</ele>
        <time>2010-01-01T00:37:53Z</time>
      </trkpt>
      <trkpt lat="45.091" lon="5.61543">
        <ele>1776</ele>
        <time>2010-01-01T00:37:55Z</time>
      </trkpt>
      <trkpt lat="45.09099" lon="5.61548">
        <ele>1777</ele>
        <time>2010-01-01T00:37:56Z</time>
      </trkpt>
      <trkpt lat="45.09098" lon="5.61552">
        <ele>1778</ele>
        <time>2010-01-01T00:37:57Z</time>
      </trkpt>
      <trkpt lat="45.091" lon="5.61555">
        <ele>1780</ele>
        <time>2010-01-01T00:37:58Z</time>
      </trkpt>
      <trkpt lat="45.09102" lon="5.61559">
        <ele>1782</ele>
        <time>2010-01-01T00:38:00Z</time>
      </trkpt>
      <trkpt lat="45.09103" lon="5.61562">
        <ele>1783</ele>
        <time>2010-01-01T00:38:01Z</time>
      </trkpt>
      <trkpt lat="45.09105" lon="5.61566">
        <ele>1784</ele>
        <time>2010-01-01T00:38:02Z</time>
      </trkpt>
      <trkpt lat="45.09107" lon="5.6157">
        <ele>1786</ele>
        <time>2010-01-01T00:38:03Z</time>
      </trkpt>
      <trkpt lat="45.09108" lon="5.61573">
        <ele>1786</ele>
        <time>2010-01-01T00:38:04Z</time>
      </trkpt>
      <trkpt lat="45.09108" lon="5.61575">
        <ele>1787</ele>
        <time>2010-01-01T00:38:05Z</time>
      </trkpt>
      <trkpt lat="45.09109" lon="5.61578">
        <ele>1788</ele>
        <time>2010-01-01T00:38:06Z</time>
      </trkpt>
      <trkpt lat="45.09109" lon="5.61582">
        <ele>1789</ele>
        <time>2010-01-01T00:38:07Z</time>
      </trkpt>
      <trkpt lat="45.09109" lon="5.61585">
        <ele>1790</ele>
        <time>2010-01-01T00:38:08Z</time>
      </trkpt>
      <trkpt lat="45.0911" lon="5.61588">
        <ele>1790</ele>
        <time>2010-01-01T00:38:09Z</time>
      </trkpt>
      <trkpt lat="45.09112" lon="5.61591">
        <ele>1791</ele>
        <time>2010-01-01T00:38:10Z</time>
      </trkpt>
      <trkpt lat="45.09111" lon="5.61594">
        <ele>1792</ele>
        <time>2010-01-01T00:38:11Z</time>
      </trkpt>
      <trkpt lat="45.0911" lon="5.61599">
        <ele>1793</ele>
        <time>2010-01-01T00:38:12Z</time>
      </trkpt>
      <trkpt lat="45.09109" lon="5.61603">
        <ele>1794</ele>
        <time>2010-01-01T00:38:14Z</time>
      </trkpt>
      <trkpt lat="45.09109" lon="5.61608">
        <ele>1795</ele>
        <time>2010-01-01T00:38:15Z</time>
      </trkpt>
      <trkpt lat="45.09109" lon="5.61613">
        <ele>1796</ele>
        <time>2010-01-01T00:38:16Z</time>
      </trkpt>
      <trkpt lat="45.0911" lon="5.61616">
        <ele>1797</ele>
        <time>2010-01-01T00:38:17Z</time>
      </trkpt>
      <trkpt lat="45.09111" lon="5.61618">
        <ele>1797</ele>
        <time>2010-01-01T00:38:18Z</time>
      </trkpt>
      <trkpt lat="45.0911" lon="5.61621">
        <ele>1798</ele>
        <time>2010-01-01T00:38:19Z</time>
      </trkpt>
      <trkpt lat="45.09109" lon="5.61624">
        <ele>1798</ele>
        <time>2010-01-01T00:38:20Z</time>
      </trkpt>
      <trkpt lat="45.09108" lon="5.61627">
        <ele>1799</ele>
        <time>2010-01-01T00:38:21Z</time>
      </trkpt>
      <trkpt lat="45.0911" lon="5.61631">
        <ele>1800</ele>
        <time>2010-01-01T00:38:22Z</time>
      </trkpt>
      <trkpt lat="45.09111" lon="5.61634">
        <ele>1800</ele>
        <time>2010-01-01T00:38:23Z</time>
      </trkpt>
      <trkpt lat="45.09112" lon="5.61636">
        <ele>1801</ele>
        <time>2010-01-01T00:38:24Z</time>
      </trkpt>
      <trkpt lat="45.09113" lon="5.6164">
        <ele>1802</ele>
        <time>2010-01-01T00:38:25Z</time>
      </trkpt>
      <trkpt lat="45.09113" lon="5.61643">
        <ele>1803</ele>
        <time>2010-01-01T00:38:26Z</time>
      </trkpt>
      <trkpt lat="45.09112" lon="5.61648">
        <ele>1804</ele>
        <time>2010-01-01T00:38:27Z</time>
      </trkpt>
      <trkpt lat="45.09111" lon="5.61652">
        <ele>1804</ele>
        <time>2010-01-01T00:38:29Z</time>
      </trkpt>
      <trkpt lat="45.09111" lon="5.61656">
        <ele>1805</ele>
        <time>2010-01-01T00:38:30Z</time>
      </trkpt>
      <trkpt lat="45.09112" lon="5.61661">
        <ele>1806</ele>
        <time>2010-01-01T00:38:31Z</time>
      </trkpt>
      <trkpt lat="45.09113" lon="5.61665">
        <ele>1807</ele>
        <time>2010-01-01T00:38:32Z</time>
      </trkpt>
      <trkpt lat="45.09115" lon="5.61678">
        <ele>1811</ele>
        <time>2010-01-01T00:38:36Z</time>
      </trkpt>
      <trkpt lat="45.09115" lon="5.61681">
        <ele>1812</ele>
        <time>2010-01-01T00:38:37Z</time>
      </trkpt>
      <trkpt lat="45.09115" lon="5.61686">
        <ele>1813</ele>
        <time>2010-01-01T00:38:38Z</time>
      </trkpt>
      <trkpt lat="45.09115" lon="5.61694">
        <ele>1815</ele>
        <time>2010-01-01T00:38:41Z</time>
      </trkpt>
      <trkpt lat="45.09114" lon="5.61698">
        <ele>1816</ele>
        <time>2010-01-01T00:38:42Z</time>
      </trkpt>
      <trkpt lat="45.09113" lon="5.61702">
        <ele>1817</ele>
        <time>2010-01-01T00:38:43Z</time>
      </trkpt>
      <trkpt lat="45.09113" lon="5.61707">
        <ele>1818</ele>
        <time>2010-01-01T00:38:44Z</time>
      </trkpt>
      <trkpt lat="45.09113" lon="5.61711">
        <ele>1819</ele>
        <time>2010-01-01T00:38:46Z</time>
      </trkpt>
      <trkpt lat="45.09114" lon="5.61715">
        <ele>1820</ele>
        <time>2010-01-01T00:38:47Z</time>
      </trkpt>
      <trkpt lat="45.09117" lon="5.61719">
        <ele>1821</ele>
        <time>2010-01-01T00:38:48Z</time>
      </trkpt>
      <trkpt lat="45.09121" lon="5.61721">
        <ele>1821</ele>
        <time>2010-01-01T00:38:50Z</time>
      </trkpt>
      <trkpt lat="45.09124" lon="5.61725">
        <ele>1822</ele>
        <time>2010-01-01T00:38:52Z</time>
      </trkpt>
      <trkpt lat="45.09126" lon="5.61728">
        <ele>1822</ele>
        <time>2010-01-01T00:38:53Z</time>
      </trkpt>
      <trkpt lat="45.09128" lon="5.61732">
        <ele>1823</ele>
        <time>2010-01-01T00:38:54Z</time>
      </trkpt>
      <trkpt lat="45.09131" lon="5.61736">
        <ele>1824</ele>
        <time>2010-01-01T00:38:56Z</time>
      </trkpt>
      <trkpt lat="45.09134" lon="5.61739">
        <ele>1825</ele>
        <time>2010-01-01T00:38:57Z</time>
      </trkpt>
      <trkpt lat="45.09135" lon="5.61741">
        <ele>1825</ele>
        <time>2010-01-01T00:38:58Z</time>
      </trkpt>
      <trkpt lat="45.09136" lon="5.61744">
        <ele>1825</ele>
        <time>2010-01-01T00:38:59Z</time>
      </trkpt>
      <trkpt lat="45.09134" lon="5.61746">
        <ele>1826</ele>
        <time>2010-01-01T00:39:00Z</time>
      </trkpt>
      <trkpt lat="45.09133" lon="5.61747">
        <ele>1826</ele>
        <time>2010-01-01T00:39:01Z</time>
      </trkpt>
      <trkpt lat="45.09132" lon="5.61749">
        <ele>1827</ele>
        <time>2010-01-01T00:39:01Z</time>
      </trkpt>
      <trkpt lat="45.09131" lon="5.61752">
        <ele>1828</ele>
        <time>2010-01-01T00:39:02Z</time>
      </trkpt>
      <trkpt lat="45.09133" lon="5.61756">
        <ele>1829</ele>
        <time>2010-01-01T00:39:04Z</time>
      </trkpt>
      <trkpt lat="45.09135" lon="5.61759">
        <ele>1830</ele>
        <time>2010-01-01T00:39:05Z</time>
      </trkpt>
      <trkpt lat="45.09136" lon="5.61761">
        <ele>1830</ele>
        <time>2010-01-01T00:39:05Z</time>
      </trkpt>
      <trkpt lat="45.09136" lon="5.61765">
        <ele>1831</ele>
        <time>2010-01-01T00:39:07Z</time>
      </trkpt>
      <trkpt lat="45.09138" lon="5.61769">
        <ele>1832</ele>
        <time>2010-01-01T00:39:08Z</time>
      </trkpt>
      <trkpt lat="45.09141" lon="5.61771">
        <ele>1833</ele>
        <time>2010-01-01T00:39:09Z</time>
      </trkpt>
      <trkpt lat="45.09143" lon="5.61775">
        <ele>1835</ele>
        <time>2010-01-01T00:39:11Z</time>
      </trkpt>
      <trkpt lat="45.09144" lon="5.61778">
        <ele>1836</ele>
        <time>2010-01-01T00:39:12Z</time>
      </trkpt>
      <trkpt lat="45.09143" lon="5.61781">
        <ele>1837</ele>
        <time>2010-01-01T00:39:13Z</time>
      </trkpt>
      <trkpt lat="45.09143" lon="5.61786">
        <ele>1839</ele>
        <time>2010-01-01T00:39:14Z</time>
      </trkpt>
      <trkpt lat="45.09145" lon="5.61788">
        <ele>1840</ele>
        <time>2010-01-01T00:39:15Z</time>
      </trkpt>
      <trkpt lat="45.09147" lon="5.61789">
        <ele>1840</ele>
        <time>2010-01-01T00:39:16Z</time>
      </trkpt>
      <trkpt lat="45.09153" lon="5.61797">
        <ele>1844</ele>
        <time>2010-01-01T00:39:19Z</time>
      </trkpt>
      <trkpt lat="45.09154" lon="5.61801">
        <ele>1846</ele>
        <time>2010-01-01T00:39:20Z</time>
      </trkpt>
      <trkpt lat="45.09154" lon="5.61805">
        <ele>1847</ele>
        <time>2010-01-01T00:39:21Z</time>
      </trkpt>
      <trkpt lat="45.09153" lon="5.61814">
        <ele>1850</ele>
        <time>2010-01-01T00:39:24Z</time>
      </trkpt>
      <trkpt lat="45.09153" lon="5.61817">
        <ele>1851</ele>
        <time>2010-01-01T00:39:25Z</time>
      </trkpt>
      <trkpt lat="45.09153" lon="5.61821">
        <ele>1853</ele>
        <time>2010-01-01T00:39:26Z</time>
      </trkpt>
      <trkpt lat="45.09154" lon="5.61826">
        <ele>1855</ele>
        <time>2010-01-01T00:39:27Z</time>
      </trkpt>
      <trkpt lat="45.09155" lon="5.61831">
        <ele>1857</ele>
        <time>2010-01-01T00:39:29Z</time>
      </trkpt>
      <trkpt lat="45.09157" lon="5.61835">
        <ele>1859</ele>
        <time>2010-01-01T00:39:30Z</time>
      </trkpt>
      <trkpt lat="45.09157" lon="5.61838">
        <ele>1860</ele>
        <time>2010-01-01T00:39:31Z</time>
      </trkpt>
      <trkpt lat="45.09158" lon="5.61842">
        <ele>1862</ele>
        <time>2010-01-01T00:39:32Z</time>
      </trkpt>
      <trkpt lat="45.09158" lon="5.61844">
        <ele>1863</ele>
        <time>2010-01-01T00:39:33Z</time>
      </trkpt>
      <trkpt lat="45.0916" lon="5.61845">
        <ele>1863</ele>
        <time>2010-01-01T00:39:34Z</time>
      </trkpt>
      <trkpt lat="45.0916" lon="5.61846">
        <ele>1864</ele>
        <time>2010-01-01T00:39:34Z</time>
      </trkpt>
      <trkpt lat="45.09159" lon="5.61848">
        <ele>1865</ele>
        <time>2010-01-01T00:39:35Z</time>
      </trkpt>
      <trkpt lat="45.0916" lon="5.6185">
        <ele>1866</ele>
        <time>2010-01-01T00:39:35Z</time>
      </trkpt>
      <trkpt lat="45.09162" lon="5.6185">
        <ele>1866</ele>
        <time>2010-01-01T00:39:36Z</time>
      </trkpt>
      <trkpt lat="45.09162" lon="5.61853">
        <ele>1867</ele>
        <time>2010-01-01T00:39:37Z</time>
      </trkpt>
      <trkpt lat="45.09162" lon="5.61854">
        <ele>1868</ele>
        <time>2010-01-01T00:39:37Z</time>
      </trkpt>
      <trkpt lat="45.09164" lon="5.61856">
        <ele>1869</ele>
        <time>2010-01-01T00:39:38Z</time>
      </trkpt>
      <trkpt lat="45.09164" lon="5.6186">
        <ele>1871</ele>
        <time>2010-01-01T00:39:39Z</time>
      </trkpt>
      <trkpt lat="45.09163" lon="5.61865">
        <ele>1872</ele>
        <time>2010-01-01T00:39:41Z</time>
      </trkpt>
      <trkpt lat="45.09161" lon="5.61868">
        <ele>1872</ele>
        <time>2010-01-01T00:39:42Z</time>
      </trkpt>
      <trkpt lat="45.0916" lon="5.61871">
        <ele>1873</ele>
        <time>2010-01-01T00:39:43Z</time>
      </trkpt>
      <trkpt lat="45.09158" lon="5.61874">
        <ele>1873</ele>
        <time>2010-01-01T00:39:44Z</time>
      </trkpt>
      <trkpt lat="45.09157" lon="5.61877">
        <ele>1874</ele>
        <time>2010-01-01T00:39:45Z</time>
      </trkpt>
      <trkpt lat="45.09157" lon="5.6188">
        <ele>1875</ele>
        <time>2010-01-01T00:39:46Z</time>
      </trkpt>
      <trkpt lat="45.09158" lon="5.61882">
        <ele>1875</ele>
        <time>2010-01-01T00:39:47Z</time>
      </trkpt>
      <trkpt lat="45.09159" lon="5.61886">
        <ele>1876</ele>
        <time>2010-01-01T00:39:48Z</time>
      </trkpt>
      <trkpt lat="45.09159" lon="5.61889">
        <ele>1877</ele>
        <time>2010-01-01T00:39:49Z</time>
      </trkpt>
      <trkpt lat="45.09158" lon="5.61892">
        <ele>1878</ele>
        <time>2010-01-01T00:39:50Z</time>
      </trkpt>
      <trkpt lat="45.09157" lon="5.61894">
        <ele>1878</ele>
        <time>2010-01-01T00:39:50Z</time>
      </trkpt>
      <trkpt lat="45.09157" lon="5.61897">
        <ele>1879</ele>
        <time>2010-01-01T00:39:51Z</time>
      </trkpt>
      <trkpt lat="45.09157" lon="5.619">
        <ele>1880</ele>
        <time>2010-01-01T00:39:52Z</time>
      </trkpt>
      <trkpt lat="45.09157" lon="5.61902">
        <ele>1880</ele>
        <time>2010-01-01T00:39:53Z</time>
      </trkpt>
      <trkpt lat="45.09158" lon="5.61905">
        <ele>1881</ele>
        <time>2010-01-01T00:39:54Z</time>
      </trkpt>
      <trkpt lat="45.09159" lon="5.61908">
        <ele>1882</ele>
        <time>2010-01-01T00:39:55Z</time>
      </trkpt>
      <trkpt lat="45.09158" lon="5.6191">
        <ele>1882</ele>
        <time>2010-01-01T00:39:55Z</time>
      </trkpt>
      <trkpt lat="45.09156" lon="5.61911">
        <ele>1882</ele>
        <time>2010-01-01T00:39:56Z</time>
      </trkpt>
      <trkpt lat="45.09155" lon="5.61912">
        <ele>1883</ele>
        <time>2010-01-01T00:39:57Z</time>
      </trkpt>
      <trkpt lat="45.09156" lon="5.61914">
        <ele>1883</ele>
        <time>2010-01-01T00:39:57Z</time>
      </trkpt>
      <trkpt lat="45.09161" lon="5.6192">
        <ele>1884</ele>
        <time>2010-01-01T00:40:00Z</time>
      </trkpt>
      <trkpt lat="45.09162" lon="5.61921">
        <ele>1884</ele>
        <time>2010-01-01T00:40:00Z</time>
      </trkpt>
      <trkpt lat="45.09161" lon="5.61922">
        <ele>1884</ele>
        <time>2010-01-01T00:40:01Z</time>
      </trkpt>
      <trkpt lat="45.09159" lon="5.61923">
        <ele>1884</ele>
        <time>2010-01-01T00:40:02Z</time>
      </trkpt>
      <trkpt lat="45.09154" lon="5.61927">
        <ele>1883</ele>
        <time>2010-01-01T00:40:04Z</time>
      </trkpt>
      <trkpt lat="45.09153" lon="5.61928">
        <ele>1883</ele>
        <time>2010-01-01T00:40:04Z</time>
      </trkpt>
      <trkpt lat="45.09145" lon="5.61935">
        <ele>1884</ele>
        <time>2010-01-01T00:40:08Z</time>
      </trkpt>
      <trkpt lat="45.09136" lon="5.61938">
        <ele>1886</ele>
        <time>2010-01-01T00:40:12Z</time>
      </trkpt>
      <trkpt lat="45.09125" lon="5.61943">
        <ele>1891</ele>
        <time>2010-01-01T00:40:17Z</time>
      </trkpt>
      <trkpt lat="45.0912" lon="5.61946">
        <ele>1892</ele>
        <time>2010-01-01T00:40:19Z</time>
      </trkpt>
      <trkpt lat="45.09118" lon="5.61948">
        <ele>1892</ele>
        <time>2010-01-01T00:40:20Z</time>
      </trkpt>
      <trkpt lat="45.09114" lon="5.61949">
        <ele>1892</ele>
        <time>2010-01-01T00:40:21Z</time>
      </trkpt>
      <trkpt lat="45.09105" lon="5.6195">
        <ele>1897</ele>
        <time>2010-01-01T00:40:25Z</time>
      </trkpt>
      <trkpt lat="45.09096" lon="5.6195">
        <ele>1903</ele>
        <time>2010-01-01T00:40:29Z</time>
      </trkpt>
      <trkpt lat="45.09096" lon="5.61954">
        <ele>1902</ele>
        <time>2010-01-01T00:40:30Z</time>
      </trkpt>
      <trkpt lat="45.09098" lon="5.61962">
        <ele>1897</ele>
        <time>2010-01-01T00:40:32Z</time>
      </trkpt>
      <trkpt lat="45.09098" lon="5.61967">
        <ele>1896</ele>
        <time>2010-01-01T00:40:34Z</time>
      </trkpt>
      <trkpt lat="45.09098" lon="5.61969">
        <ele>1895</ele>
        <time>2010-01-01T00:40:34Z</time>
      </trkpt>
      <trkpt lat="45.09099" lon="5.61973">
        <ele>1893</ele>
        <time>2010-01-01T00:40:35Z</time>
      </trkpt>
      <trkpt lat="45.09099" lon="5.61977">
        <ele>1891</ele>
        <time>2010-01-01T00:40:36Z</time>
      </trkpt>
      <trkpt lat="45.091" lon="5.61979">
        <ele>1888</ele>
        <time>2010-01-01T00:40:37Z</time>
      </trkpt>
      <trkpt lat="45.09096" lon="5.61983">
        <ele>1890</ele>
        <time>2010-01-01T00:40:39Z</time>
      </trkpt>
      <trkpt lat="45.09091" lon="5.61987">
        <ele>1892</ele>
        <time>2010-01-01T00:40:41Z</time>
      </trkpt>
      <trkpt lat="45.09086" lon="5.6199">
        <ele>1893</ele>
        <time>2010-01-01T00:40:44Z</time>
      </trkpt>
      <trkpt lat="45.09078" lon="5.61993">
        <ele>1899</ele>
        <time>2010-01-01T00:40:47Z</time>
      </trkpt>
      <trkpt lat="45.09076" lon="5.61993">
        <ele>1902</ele>
        <time>2010-01-01T00:40:48Z</time>
      </trkpt>
      <trkpt lat="45.09074" lon="5.61993">
        <ele>1905</ele>
        <time>2010-01-01T00:40:48Z</time>
      </trkpt>
      <trkpt lat="45.09073" lon="5.61994">
        <ele>1906</ele>
        <time>2010-01-01T00:40:49Z</time>
      </trkpt>
      <trkpt lat="45.09072" lon="5.61996">
        <ele>1905</ele>
        <time>2010-01-01T00:40:50Z</time>
      </trkpt>
      <trkpt lat="45.09071" lon="5.62">
        <ele>1905</ele>
        <time>2010-01-01T00:40:51Z</time>
      </trkpt>
      <trkpt lat="45.0907" lon="5.62002">
        <ele>1905</ele>
        <time>2010-01-01T00:40:52Z</time>
      </trkpt>
      <trkpt lat="45.09068" lon="5.62001">
        <ele>1909</ele>
        <time>2010-01-01T00:40:52Z</time>
      </trkpt>
      <trkpt lat="45.09066" lon="5.61999">
        <ele>1914</ele>
        <time>2010-01-01T00:40:53Z</time>
      </trkpt>
      <trkpt lat="45.09064" lon="5.61996">
        <ele>1918</ele>
        <time>2010-01-01T00:40:55Z</time>
      </trkpt>
      <trkpt lat="45.09062" lon="5.61995">
        <ele>1922</ele>
        <time>2010-01-01T00:40:55Z</time>
      </trkpt>
      <trkpt lat="45.0906" lon="5.61994">
        <ele>1925</ele>
        <time>2010-01-01T00:40:56Z</time>
      </trkpt>
      <trkpt lat="45.09058" lon="5.61996">
        <ele>1928</ele>
        <time>2010-01-01T00:40:57Z</time>
      </trkpt>
      <trkpt lat="45.09057" lon="5.61998">
        <ele>1929</ele>
        <time>2010-01-01T00:40:58Z</time>
      </trkpt>
      <trkpt lat="45.09057" lon="5.62">
        <ele>1929</ele>
        <time>2010-01-01T00:40:58Z</time>
      </trkpt>
      <trkpt lat="45.09053" lon="5.62002">
        <ele>1930</ele>
        <time>2010-01-01T00:41:00Z</time>
      </trkpt>
      <trkpt lat="45.09047" lon="5.62003">
        <ele>1931</ele>
        <time>2010-01-01T00:41:03Z</time>
      </trkpt>
      <trkpt lat="45.09039" lon="5.62004">
        <ele>1934</ele>
        <time>2010-01-01T00:41:06Z</time>
      </trkpt>
      <trkpt lat="45.09027" lon="5.62004">
        <ele>1940</ele>
        <time>2010-01-01T00:41:11Z</time>
      </trkpt>
      <trkpt lat="45.09019" lon="5.61999">
        <ele>1948</ele>
        <time>2010-01-01T00:41:14Z</time>
      </trkpt>
      <trkpt lat="45.09015" lon="5.61998">
        <ele>1949</ele>
        <time>2010-01-01T00:41:16Z</time>
      </trkpt>
      <trkpt lat="45.09009" lon="5.61994">
        <ele>1949</ele>
        <time>2010-01-01T00:41:18Z</time>
      </trkpt>
      <trkpt lat="45.09001" lon="5.61987">
        <ele>1949</ele>
        <time>2010-01-01T00:41:22Z</time>
      </trkpt>
      <trkpt lat="45.08994" lon="5.61981">
        <ele>1948</ele>
        <time>2010-01-01T00:41:25Z</time>
      </trkpt>
      <trkpt lat="45.08989" lon="5.61978">
        <ele>1947</ele>
        <time>2010-01-01T00:41:28Z</time>
      </trkpt>
      <trkpt lat="45.08985" lon="5.61977">
        <ele>1947</ele>
        <time>2010-01-01T00:41:29Z</time>
      </trkpt>
      <trkpt lat="45.0898" lon="5.6198">
        <ele>1947</ele>
        <time>2010-01-01T00:41:31Z</time>
      </trkpt>
      <trkpt lat="45.08973" lon="5.61981">
        <ele>1946</ele>
        <time>2010-01-01T00:41:34Z</time>
      </trkpt>
      <trkpt lat="45.08969" lon="5.61984">
        <ele>1943</ele>
        <time>2010-01-01T00:41:36Z</time>
      </trkpt>
      <trkpt lat="45.08965" lon="5.61985">
        <ele>1938</ele>
        <time>2010-01-01T00:41:38Z</time>
      </trkpt>
      <trkpt lat="45.08963" lon="5.61984">
        <ele>1937</ele>
        <time>2010-01-01T00:41:38Z</time>
      </trkpt>
      <trkpt lat="45.08959" lon="5.61981">
        <ele>1935</ele>
        <time>2010-01-01T00:41:40Z</time>
      </trkpt>
      <trkpt lat="45.08949" lon="5.61974">
        <ele>1935</ele>
        <time>2010-01-01T00:41:45Z</time>
      </trkpt>
      <trkpt lat="45.08939" lon="5.61969">
        <ele>1929</ele>
        <time>2010-01-01T00:41:49Z</time>
      </trkpt>
      <trkpt lat="45.08927" lon="5.61966">
        <ele>1918</ele>
        <time>2010-01-01T00:41:54Z</time>
      </trkpt>
      <trkpt lat="45.08921" lon="5.61963">
        <ele>1915</ele>
        <time>2010-01-01T00:41:56Z</time>
      </trkpt>
      <trkpt lat="45.08915" lon="5.61958">
        <ele>1915</ele>
        <time>2010-01-01T00:41:59Z</time>
      </trkpt>
      <trkpt lat="45.08912" lon="5.61955">
        <ele>1915</ele>
        <time>2010-01-01T00:42:01Z</time>
      </trkpt>
      <trkpt lat="45.08908" lon="5.61951">
        <ele>1916</ele>
        <time>2010-01-01T00:42:03Z</time>
      </trkpt>
      <trkpt lat="45.08906" lon="5.61947">
        <ele>1920</ele>
        <time>2010-01-01T00:42:04Z</time>
      </trkpt>
      <trkpt lat="45.08903" lon="5.61944">
        <ele>1920</ele>
        <time>2010-01-01T00:42:06Z</time>
      </trkpt>
      <trkpt lat="45.089" lon="5.6194">
        <ele>1919</ele>
        <time>2010-01-01T00:42:07Z</time>
      </trkpt>
      <trkpt lat="45.089" lon="5.61934">
        <ele>1920</ele>
        <time>2010-01-01T00:42:09Z</time>
      </trkpt>
      <trkpt lat="45.08898" lon="5.61929">
        <ele>1921</ele>
        <time>2010-01-01T00:42:10Z</time>
      </trkpt>
      <trkpt lat="45.08896" lon="5.61924">
        <ele>1922</ele>
        <time>2010-01-01T00:42:12Z</time>
      </trkpt>
      <trkpt lat="45.08893" lon="5.61922">
        <ele>1922</ele>
        <time>2010-01-01T00:42:13Z</time>
      </trkpt>
      <trkpt lat="45.08888" lon="5.61913">
        <ele>1923</ele>
        <time>2010-01-01T00:42:17Z</time>
      </trkpt>
      <trkpt lat="45.08883" lon="5.61903">
        <ele>1917</ele>
        <time>2010-01-01T00:42:20Z</time>
      </trkpt>
      <trkpt lat="45.08882" lon="5.61897">
        <ele>1917</ele>
        <time>2010-01-01T00:42:22Z</time>
      </trkpt>
      <trkpt lat="45.08882" lon="5.61894">
        <ele>1918</ele>
        <time>2010-01-01T00:42:23Z</time>
      </trkpt>
      <trkpt lat="45.08882" lon="5.61887">
        <ele>1918</ele>
        <time>2010-01-01T00:42:25Z</time>
      </trkpt>
      <trkpt lat="45.08881" lon="5.6188">
        <ele>1918</ele>
        <time>2010-01-01T00:42:27Z</time>
      </trkpt>
      <trkpt lat="45.08879" lon="5.61874">
        <ele>1917</ele>
        <time>2010-01-01T00:42:29Z</time>
      </trkpt>
      <trkpt lat="45.08877" lon="5.61868">
        <ele>1917</ele>
        <time>2010-01-01T00:42:30Z</time>
      </trkpt>
      <trkpt lat="45.08872" lon="5.61859">
        <ele>1918</ele>
        <time>2010-01-01T00:42:34Z</time>
      </trkpt>
      <trkpt lat="45.08869" lon="5.61857">
        <ele>1918</ele>
        <time>2010-01-01T00:42:35Z</time>
      </trkpt>
      <trkpt lat="45.08866" lon="5.61854">
        <ele>1918</ele>
        <time>2010-01-01T00:42:36Z</time>
      </trkpt>
      <trkpt lat="45.0886" lon="5.61842">
        <ele>1919</ele>
        <time>2010-01-01T00:42:41Z</time>
      </trkpt>
      <trkpt lat="45.08857" lon="5.61836">
        <ele>1918</ele>
        <time>2010-01-01T00:42:43Z</time>
      </trkpt>
      <trkpt lat="45.08853" lon="5.61833">
        <ele>1918</ele>
        <time>2010-01-01T00:42:45Z</time>
      </trkpt>
      <trkpt lat="45.0885" lon="5.61832">
        <ele>1918</ele>
        <time>2010-01-01T00:42:46Z</time>
      </trkpt>
      <trkpt lat="45.08845" lon="5.6183">
        <ele>1917</ele>
        <time>2010-01-01T00:42:48Z</time>
      </trkpt>
      <trkpt lat="45.08838" lon="5.61823">
        <ele>1917</ele>
        <time>2010-01-01T00:42:51Z</time>
      </trkpt>
      <trkpt lat="45.08836" lon="5.61821">
        <ele>1917</ele>
        <time>2010-01-01T00:42:52Z</time>
      </trkpt>
      <trkpt lat="45.08832" lon="5.6182">
        <ele>1917</ele>
        <time>2010-01-01T00:42:54Z</time>
      </trkpt>
      <trkpt lat="45.08823" lon="5.61813">
        <ele>1916</ele>
        <time>2010-01-01T00:42:58Z</time>
      </trkpt>
      <trkpt lat="45.08821" lon="5.61812">
        <ele>1916</ele>
        <time>2010-01-01T00:42:59Z</time>
      </trkpt>
      <trkpt lat="45.08819" lon="5.61809">
        <ele>1916</ele>
        <time>2010-01-01T00:43:00Z</time>
      </trkpt>
      <trkpt lat="45.08818" lon="5.61805">
        <ele>1916</ele>
        <time>2010-01-01T00:43:01Z</time>
      </trkpt>
      <trkpt lat="45.08818" lon="5.61803">
        <ele>1915</ele>
        <time>2010-01-01T00:43:02Z</time>
      </trkpt>
      <trkpt lat="45.08817" lon="5.61802">
        <ele>1915</ele>
        <time>2010-01-01T00:43:02Z</time>
      </trkpt>
      <trkpt lat="45.08817" lon="5.61801">
        <ele>1915</ele>
        <time>2010-01-01T00:43:03Z</time>
      </trkpt>
      <trkpt lat="45.08818" lon="5.61799">
        <ele>1914</ele>
        <time>2010-01-01T00:43:03Z</time>
      </trkpt>
      <trkpt lat="45.08817" lon="5.61797">
        <ele>1914</ele>
        <time>2010-01-01T00:43:04Z</time>
      </trkpt>
      <trkpt lat="45.08817" lon="5.61794">
        <ele>1913</ele>
        <time>2010-01-01T00:43:05Z</time>
      </trkpt>
      <trkpt lat="45.08815" lon="5.61789">
        <ele>1912</ele>
        <time>2010-01-01T00:43:06Z</time>
      </trkpt>
      <trkpt lat="45.08813" lon="5.61785">
        <ele>1911</ele>
        <time>2010-01-01T00:43:08Z</time>
      </trkpt>
      <trkpt lat="45.08811" lon="5.61784">
        <ele>1910</ele>
        <time>2010-01-01T00:43:09Z</time>
      </trkpt>
      <trkpt lat="45.0881" lon="5.61781">
        <ele>1909</ele>
        <time>2010-01-01T00:43:10Z</time>
      </trkpt>
      <trkpt lat="45.08808" lon="5.61775">
        <ele>1909</ele>
        <time>2010-01-01T00:43:11Z</time>
      </trkpt>
      <trkpt lat="45.08806" lon="5.61771">
        <ele>1908</ele>
        <time>2010-01-01T00:43:13Z</time>
      </trkpt>
      <trkpt lat="45.08803" lon="5.61766">
        <ele>1908</ele>
        <time>2010-01-01T00:43:15Z</time>
      </trkpt>
      <trkpt lat="45.08801" lon="5.61763">
        <ele>1908</ele>
        <time>2010-01-01T00:43:16Z</time>
      </trkpt>
      <trkpt lat="45.08799" lon="5.61761">
        <ele>1907</ele>
        <time>2010-01-01T00:43:17Z</time>
      </trkpt>
      <trkpt lat="45.08797" lon="5.61757">
        <ele>1907</ele>
        <time>2010-01-01T00:43:18Z</time>
      </trkpt>
      <trkpt lat="45.08794" lon="5.61746">
        <ele>1906</ele>
        <time>2010-01-01T00:43:22Z</time>
      </trkpt>
      <trkpt lat="45.08792" lon="5.61742">
        <ele>1906</ele>
        <time>2010-01-01T00:43:23Z</time>
      </trkpt>
      <trkpt lat="45.0879" lon="5.61739">
        <ele>1906</ele>
        <time>2010-01-01T00:43:24Z</time>
      </trkpt>
      <trkpt lat="45.08788" lon="5.61736">
        <ele>1906</ele>
        <time>2010-01-01T00:43:25Z</time>
      </trkpt>
      <trkpt lat="45.08786" lon="5.61732">
        <ele>1906</ele>
        <time>2010-01-01T00:43:27Z</time>
      </trkpt>
      <trkpt lat="45.08786" lon="5.6173">
        <ele>1906</ele>
        <time>2010-01-01T00:43:27Z</time>
      </trkpt>
      <trkpt lat="45.08785" lon="5.61727">
        <ele>1906</ele>
        <time>2010-01-01T00:43:28Z</time>
      </trkpt>
      <trkpt lat="45.08781" lon="5.61717">
        <ele>1906</ele>
        <time>2010-01-01T00:43:31Z</time>
      </trkpt>
      <trkpt lat="45.0878" lon="5.61713">
        <ele>1906</ele>
        <time>2010-01-01T00:43:33Z</time>
      </trkpt>
      <trkpt lat="45.0878" lon="5.61705">
        <ele>1906</ele>
        <time>2010-01-01T00:43:35Z</time>
      </trkpt>
      <trkpt lat="45.08779" lon="5.61702">
        <ele>1906</ele>
        <time>2010-01-01T00:43:36Z</time>
      </trkpt>
      <trkpt lat="45.08778" lon="5.61697">
        <ele>1906</ele>
        <time>2010-01-01T00:43:37Z</time>
      </trkpt>
      <trkpt lat="45.08776" lon="5.61692">
        <ele>1906</ele>
        <time>2010-01-01T00:43:39Z</time>
      </trkpt>
      <trkpt lat="45.08774" lon="5.61687">
        <ele>1905</ele>
        <time>2010-01-01T00:43:41Z</time>
      </trkpt>
      <trkpt lat="45.08764" lon="5.6167">
        <ele>1903</ele>
        <time>2010-01-01T00:43:47Z</time>
      </trkpt>
      <trkpt lat="45.08762" lon="5.61666">
        <ele>1903</ele>
        <time>2010-01-01T00:43:48Z</time>
      </trkpt>
      <trkpt lat="45.08759" lon="5.61664">
        <ele>1903</ele>
        <time>2010-01-01T00:43:49Z</time>
      </trkpt>
      <trkpt lat="45.08754" lon="5.61663">
        <ele>1903</ele>
        <time>2010-01-01T00:43:52Z</time>
      </trkpt>
      <trkpt lat="45.08751" lon="5.61662">
        <ele>1903</ele>
        <time>2010-01-01T00:43:53Z</time>
      </trkpt>
      <trkpt lat="45.08747" lon="5.61661">
        <ele>1902</ele>
        <time>2010-01-01T00:43:54Z</time>
      </trkpt>
      <trkpt lat="45.08744" lon="5.61661">
        <ele>1900</ele>
        <time>2010-01-01T00:43:56Z</time>
      </trkpt>
      <trkpt lat="45.08743" lon="5.61659">
        <ele>1900</ele>
        <time>2010-01-01T00:43:56Z</time>
      </trkpt>
      <trkpt lat="45.08742" lon="5.61654">
        <ele>1899</ele>
        <time>2010-01-01T00:43:58Z</time>
      </trkpt>
      <trkpt lat="45.08741" lon="5.61649">
        <ele>1899</ele>
        <time>2010-01-01T00:43:59Z</time>
      </trkpt>
      <trkpt lat="45.08741" lon="5.61644">
        <ele>1899</ele>
        <time>2010-01-01T00:44:01Z</time>
      </trkpt>
      <trkpt lat="45.08741" lon="5.6164">
        <ele>1899</ele>
        <time>2010-01-01T00:44:02Z</time>
      </trkpt>
      <trkpt lat="45.08741" lon="5.61635">
        <ele>1899</ele>
        <time>2010-01-01T00:44:03Z</time>
      </trkpt>
      <trkpt lat="45.08739" lon="5.61627">
        <ele>1898</ele>
        <time>2010-01-01T00:44:06Z</time>
      </trkpt>
      <trkpt lat="45.08736" lon="5.61624">
        <ele>1898</ele>
        <time>2010-01-01T00:44:07Z</time>
      </trkpt>
      <trkpt lat="45.08732" lon="5.61622">
        <ele>1897</ele>
        <time>2010-01-01T00:44:09Z</time>
      </trkpt>
      <trkpt lat="45.08729" lon="5.61621">
        <ele>1897</ele>
        <time>2010-01-01T00:44:10Z</time>
      </trkpt>
      <trkpt lat="45.08726" lon="5.61621">
        <ele>1897</ele>
        <time>2010-01-01T00:44:11Z</time>
      </trkpt>
      <trkpt lat="45.08724" lon="5.61619">
        <ele>1897</ele>
        <time>2010-01-01T00:44:12Z</time>
      </trkpt>
      <trkpt lat="45.08724" lon="5.61616">
        <ele>1897</ele>
        <time>2010-01-01T00:44:13Z</time>
      </trkpt>
      <trkpt lat="45.08724" lon="5.61613">
        <ele>1897</ele>
        <time>2010-01-01T00:44:14Z</time>
      </trkpt>
      <trkpt lat="45.08722" lon="5.6161">
        <ele>1896</ele>
        <time>2010-01-01T00:44:15Z</time>
      </trkpt>
      <trkpt lat="45.08718" lon="5.61607">
        <ele>1895</ele>
        <time>2010-01-01T00:44:17Z</time>
      </trkpt>
      <trkpt lat="45.08714" lon="5.61608">
        <ele>1895</ele>
        <time>2010-01-01T00:44:18Z</time>
      </trkpt>
      <trkpt lat="45.0871" lon="5.61607">
        <ele>1894</ele>
        <time>2010-01-01T00:44:20Z</time>
      </trkpt>
      <trkpt lat="45.08706" lon="5.61605">
        <ele>1893</ele>
        <time>2010-01-01T00:44:22Z</time>
      </trkpt>
      <trkpt lat="45.08703" lon="5.61603">
        <ele>1892</ele>
        <time>2010-01-01T00:44:23Z</time>
      </trkpt>
      <trkpt lat="45.08699" lon="5.61601">
        <ele>1891</ele>
        <time>2010-01-01T00:44:25Z</time>
      </trkpt>
      <trkpt lat="45.08696" lon="5.61596">
        <ele>1889</ele>
        <time>2010-01-01T00:44:27Z</time>
      </trkpt>
      <trkpt lat="45.08692" lon="5.61595">
        <ele>1888</ele>
        <time>2010-01-01T00:44:28Z</time>
      </trkpt>
      <trkpt lat="45.08689" lon="5.61595">
        <ele>1887</ele>
        <time>2010-01-01T00:44:29Z</time>
      </trkpt>
      <trkpt lat="45.08683" lon="5.61594">
        <ele>1885</ele>
        <time>2010-01-01T00:44:32Z</time>
      </trkpt>
      <trkpt lat="45.08675" lon="5.6159">
        <ele>1882</ele>
        <time>2010-01-01T00:44:35Z</time>
      </trkpt>
      <trkpt lat="45.08663" lon="5.61584">
        <ele>1879</ele>
        <time>2010-01-01T00:44:40Z</time>
      </trkpt>
      <trkpt lat="45.0866" lon="5.61582">
        <ele>1877</ele>
        <time>2010-01-01T00:44:42Z</time>
      </trkpt>
      <trkpt lat="45.08656" lon="5.6158">
        <ele>1875</ele>
        <time>2010-01-01T00:44:43Z</time>
      </trkpt>
      <trkpt lat="45.08653" lon="5.61578">
        <ele>1873</ele>
        <time>2010-01-01T00:44:45Z</time>
      </trkpt>
      <trkpt lat="45.0865" lon="5.61578">
        <ele>1872</ele>
        <time>2010-01-01T00:44:46Z</time>
      </trkpt>
      <trkpt lat="45.08646" lon="5.61577">
        <ele>1871</ele>
        <time>2010-01-01T00:44:48Z</time>
      </trkpt>
      <trkpt lat="45.08643" lon="5.61575">
        <ele>1870</ele>
        <time>2010-01-01T00:44:49Z</time>
      </trkpt>
      <trkpt lat="45.08641" lon="5.61572">
        <ele>1868</ele>
        <time>2010-01-01T00:44:50Z</time>
      </trkpt>
      <trkpt lat="45.08641" lon="5.6157">
        <ele>1868</ele>
        <time>2010-01-01T00:44:51Z</time>
      </trkpt>
      <trkpt lat="45.0864" lon="5.61568">
        <ele>1868</ele>
        <time>2010-01-01T00:44:51Z</time>
      </trkpt>
      <trkpt lat="45.08637" lon="5.61567">
        <ele>1866</ele>
        <time>2010-01-01T00:44:53Z</time>
      </trkpt>
      <trkpt lat="45.08634" lon="5.61565">
        <ele>1865</ele>
        <time>2010-01-01T00:44:54Z</time>
      </trkpt>
      <trkpt lat="45.08631" lon="5.61563">
        <ele>1863</ele>
        <time>2010-01-01T00:44:55Z</time>
      </trkpt>
      <trkpt lat="45.08629" lon="5.61561">
        <ele>1862</ele>
        <time>2010-01-01T00:44:56Z</time>
      </trkpt>
      <trkpt lat="45.08628" lon="5.61558">
        <ele>1862</ele>
        <time>2010-01-01T00:44:57Z</time>
      </trkpt>
      <trkpt lat="45.08627" lon="5.61555">
        <ele>1862</ele>
        <time>2010-01-01T00:44:58Z</time>
      </trkpt>
      <trkpt lat="45.08625" lon="5.61552">
        <ele>1861</ele>
        <time>2010-01-01T00:44:59Z</time>
      </trkpt>
      <trkpt lat="45.08624" lon="5.61548">
        <ele>1859</ele>
        <time>2010-01-01T00:45:00Z</time>
      </trkpt>
      <trkpt lat="45.08624" lon="5.61546">
        <ele>1859</ele>
        <time>2010-01-01T00:45:01Z</time>
      </trkpt>
      <trkpt lat="45.08619" lon="5.61545">
        <ele>1857</ele>
        <time>2010-01-01T00:45:03Z</time>
      </trkpt>
      <trkpt lat="45.08615" lon="5.61543">
        <ele>1855</ele>
        <time>2010-01-01T00:45:05Z</time>
      </trkpt>
      <trkpt lat="45.08612" lon="5.6154">
        <ele>1854</ele>
        <time>2010-01-01T00:45:06Z</time>
      </trkpt>
      <trkpt lat="45.08612" lon="5.61538">
        <ele>1853</ele>
        <time>2010-01-01T00:45:07Z</time>
      </trkpt>
      <trkpt lat="45.08612" lon="5.61535">
        <ele>1852</ele>
        <time>2010-01-01T00:45:08Z</time>
      </trkpt>
      <trkpt lat="45.08613" lon="5.61532">
        <ele>1851</ele>
        <time>2010-01-01T00:45:09Z</time>
      </trkpt>
      <trkpt lat="45.08613" lon="5.61529">
        <ele>1850</ele>
        <time>2010-01-01T00:45:09Z</time>
      </trkpt>
      <trkpt lat="45.08612" lon="5.61526">
        <ele>1849</ele>
        <time>2010-01-01T00:45:10Z</time>
      </trkpt>
      <trkpt lat="45.08611" lon="5.61524">
        <ele>1848</ele>
        <time>2010-01-01T00:45:11Z</time>
      </trkpt>
      <trkpt lat="45.08609" lon="5.61523">
        <ele>1847</ele>
        <time>2010-01-01T00:45:12Z</time>
      </trkpt>
      <trkpt lat="45.08607" lon="5.61524">
        <ele>1847</ele>
        <time>2010-01-01T00:45:13Z</time>
      </trkpt>
      <trkpt lat="45.08605" lon="5.61524">
        <ele>1846</ele>
        <time>2010-01-01T00:45:13Z</time>
      </trkpt>
      <trkpt lat="45.08603" lon="5.61523">
        <ele>1845</ele>
        <time>2010-01-01T00:45:14Z</time>
      </trkpt>
      <trkpt lat="45.08601" lon="5.61523">
        <ele>1845</ele>
        <time>2010-01-01T00:45:15Z</time>
      </trkpt>
      <trkpt lat="45.08599" lon="5.61523">
        <ele>1844</ele>
        <time>2010-01-01T00:45:16Z</time>
      </trkpt>
      <trkpt lat="45.086" lon="5.6152">
        <ele>1844</ele>
        <time>2010-01-01T00:45:17Z</time>
      </trkpt>
      <trkpt lat="45.08601" lon="5.61517">
        <ele>1843</ele>
        <time>2010-01-01T00:45:18Z</time>
      </trkpt>
      <trkpt lat="45.08601" lon="5.61515">
        <ele>1843</ele>
        <time>2010-01-01T00:45:18Z</time>
      </trkpt>
      <trkpt lat="45.086" lon="5.61513">
        <ele>1842</ele>
        <time>2010-01-01T00:45:19Z</time>
      </trkpt>
      <trkpt lat="45.08601" lon="5.61508">
        <ele>1841</ele>
        <time>2010-01-01T00:45:21Z</time>
      </trkpt>
      <trkpt lat="45.08602" lon="5.61502">
        <ele>1840</ele>
        <time>2010-01-01T00:45:22Z</time>
      </trkpt>
      <trkpt lat="45.08602" lon="5.615">
        <ele>1840</ele>
        <time>2010-01-01T00:45:23Z</time>
      </trkpt>
      <trkpt lat="45.08603" lon="5.615">
        <ele>1840</ele>
        <time>2010-01-01T00:45:23Z</time>
      </trkpt>
      <trkpt lat="45.08605" lon="5.61498">
        <ele>1840</ele>
        <time>2010-01-01T00:45:24Z</time>
      </trkpt>
      <trkpt lat="45.08604" lon="5.61496">
        <ele>1839</ele>
        <time>2010-01-01T00:45:25Z</time>
      </trkpt>
      <trkpt lat="45.08603" lon="5.61494">
        <ele>1839</ele>
        <time>2010-01-01T00:45:26Z</time>
      </trkpt>
      <trkpt lat="45.08602" lon="5.61493">
        <ele>1838</ele>
        <time>2010-01-01T00:45:26Z</time>
      </trkpt>
      <trkpt lat="45.08602" lon="5.6149">
        <ele>1838</ele>
        <time>2010-01-01T00:45:27Z</time>
      </trkpt>
      <trkpt lat="45.08602" lon="5.61488">
        <ele>1837</ele>
        <time>2010-01-01T00:45:28Z</time>
      </trkpt>
      <trkpt lat="45.08601" lon="5.61486">
        <ele>1837</ele>
        <time>2010-01-01T00:45:28Z</time>
      </trkpt>
      <trkpt lat="45.086" lon="5.61483">
        <ele>1836</ele>
        <time>2010-01-01T00:45:29Z</time>
      </trkpt>
      <trkpt lat="45.086" lon="5.61481">
        <ele>1836</ele>
        <time>2010-01-01T00:45:30Z</time>
      </trkpt>
      <trkpt lat="45.08603" lon="5.6148">
        <ele>1836</ele>
        <time>2010-01-01T00:45:31Z</time>
      </trkpt>
      <trkpt lat="45.08607" lon="5.61479">
        <ele>1835</ele>
        <time>2010-01-01T00:45:33Z</time>
      </trkpt>
      <trkpt lat="45.0861" lon="5.61476">
        <ele>1835</ele>
        <time>2010-01-01T00:45:34Z</time>
      </trkpt>
      <trkpt lat="45.08615" lon="5.61475">
        <ele>1834</ele>
        <time>2010-01-01T00:45:36Z</time>
      </trkpt>
      <trkpt lat="45.08618" lon="5.61474">
        <ele>1834</ele>
        <time>2010-01-01T00:45:37Z</time>
      </trkpt>
      <trkpt lat="45.0862" lon="5.61472">
        <ele>1833</ele>
        <time>2010-01-01T00:45:38Z</time>
      </trkpt>
      <trkpt lat="45.0862" lon="5.61469">
        <ele>1832</ele>
        <time>2010-01-01T00:45:39Z</time>
      </trkpt>
      <trkpt lat="45.08621" lon="5.61467">
        <ele>1831</ele>
        <time>2010-01-01T00:45:40Z</time>
      </trkpt>
      <trkpt lat="45.08617" lon="5.61461">
        <ele>1829</ele>
        <time>2010-01-01T00:45:42Z</time>
      </trkpt>
      <trkpt lat="45.08615" lon="5.61459">
        <ele>1828</ele>
        <time>2010-01-01T00:45:43Z</time>
      </trkpt>
      <trkpt lat="45.08611" lon="5.61458">
        <ele>1828</ele>
        <time>2010-01-01T00:45:45Z</time>
      </trkpt>
      <trkpt lat="45.08607" lon="5.61459">
        <ele>1829</ele>
        <time>2010-01-01T00:45:46Z</time>
      </trkpt>
      <trkpt lat="45.08603" lon="5.61458">
        <ele>1829</ele>
        <time>2010-01-01T00:45:48Z</time>
      </trkpt>
      <trkpt lat="45.08598" lon="5.61456">
        <ele>1828</ele>
        <time>2010-01-01T00:45:50Z</time>
      </trkpt>
      <trkpt lat="45.08592" lon="5.61451">
        <ele>1826</ele>
        <time>2010-01-01T00:45:53Z</time>
      </trkpt>
      <trkpt lat="45.0859" lon="5.61447">
        <ele>1825</ele>
        <time>2010-01-01T00:45:54Z</time>
      </trkpt>
      <trkpt lat="45.08589" lon="5.61445">
        <ele>1824</ele>
        <time>2010-01-01T00:45:55Z</time>
      </trkpt>
      <trkpt lat="45.08589" lon="5.61443">
        <ele>1823</ele>
        <time>2010-01-01T00:45:56Z</time>
      </trkpt>
      <trkpt lat="45.0859" lon="5.61442">
        <ele>1822</ele>
        <time>2010-01-01T00:45:56Z</time>
      </trkpt>
      <trkpt lat="45.0859" lon="5.61439">
        <ele>1821</ele>
        <time>2010-01-01T00:45:57Z</time>
      </trkpt>
      <trkpt lat="45.08589" lon="5.61438">
        <ele>1820</ele>
        <time>2010-01-01T00:45:57Z</time>
      </trkpt>
      <trkpt lat="45.08587" lon="5.61437">
        <ele>1820</ele>
        <time>2010-01-01T00:45:58Z</time>
      </trkpt>
      <trkpt lat="45.08586" lon="5.61437">
        <ele>1819</ele>
        <time>2010-01-01T00:45:59Z</time>
      </trkpt>
      <trkpt lat="45.08584" lon="5.61435">
        <ele>1818</ele>
        <time>2010-01-01T00:46:00Z</time>
      </trkpt>
      <trkpt lat="45.08581" lon="5.61434">
        <ele>1817</ele>
        <time>2010-01-01T00:46:01Z</time>
      </trkpt>
      <trkpt lat="45.08578" lon="5.61434">
        <ele>1816</ele>
        <time>2010-01-01T00:46:02Z</time>
      </trkpt>
      <trkpt lat="45.08572" lon="5.61438">
        <ele>1817</ele>
        <time>2010-01-01T00:46:05Z</time>
      </trkpt>
      <trkpt lat="45.08563" lon="5.61443">
        <ele>1817</ele>
        <time>2010-01-01T00:46:09Z</time>
      </trkpt>
      <trkpt lat="45.08554" lon="5.61446">
        <ele>1815</ele>
        <time>2010-01-01T00:46:12Z</time>
      </trkpt>
      <trkpt lat="45.0854" lon="5.61447">
        <ele>1807</ele>
        <time>2010-01-01T00:46:18Z</time>
      </trkpt>
      <trkpt lat="45.08531" lon="5.61448">
        <ele>1801</ele>
        <time>2010-01-01T00:46:21Z</time>
      </trkpt>
      <trkpt lat="45.08516" lon="5.61448">
        <ele>1792</ele>
        <time>2010-01-01T00:46:27Z</time>
      </trkpt>
      <trkpt lat="45.08506" lon="5.6145">
        <ele>1786</ele>
        <time>2010-01-01T00:46:32Z</time>
      </trkpt>
      <trkpt lat="45.08499" lon="5.61449">
        <ele>1782</ele>
        <time>2010-01-01T00:46:34Z</time>
      </trkpt>
      <trkpt lat="45.08496" lon="5.61447">
        <ele>1782</ele>
        <time>2010-01-01T00:46:36Z</time>
      </trkpt>
      <trkpt lat="45.08491" lon="5.61445">
        <ele>1781</ele>
        <time>2010-01-01T00:46:38Z</time>
      </trkpt>
      <trkpt lat="45.08488" lon="5.61443">
        <ele>1780</ele>
        <time>2010-01-01T00:46:39Z</time>
      </trkpt>
      <trkpt lat="45.08488" lon="5.61438">
        <ele>1780</ele>
        <time>2010-01-01T00:46:40Z</time>
      </trkpt>
      <trkpt lat="45.08487" lon="5.61427">
        <ele>1779</ele>
        <time>2010-01-01T00:46:44Z</time>
      </trkpt>
      <trkpt lat="45.08489" lon="5.61419">
        <ele>1780</ele>
        <time>2010-01-01T00:46:46Z</time>
      </trkpt>
      <trkpt lat="45.0849" lon="5.61416">
        <ele>1780</ele>
        <time>2010-01-01T00:46:47Z</time>
      </trkpt>
      <trkpt lat="45.08485" lon="5.61417">
        <ele>1778</ele>
        <time>2010-01-01T00:46:49Z</time>
      </trkpt>
      <trkpt lat="45.08474" lon="5.61419">
        <ele>1774</ele>
        <time>2010-01-01T00:46:53Z</time>
      </trkpt>
      <trkpt lat="45.08468" lon="5.61419">
        <ele>1772</ele>
        <time>2010-01-01T00:46:56Z</time>
      </trkpt>
      <trkpt lat="45.08466" lon="5.61416">
        <ele>1772</ele>
        <time>2010-01-01T00:46:57Z</time>
      </trkpt>
      <trkpt lat="45.08459" lon="5.61411">
        <ele>1769</ele>
        <time>2010-01-01T00:47:00Z</time>
      </trkpt>
      <trkpt lat="45.08457" lon="5.61409">
        <ele>1768</ele>
        <time>2010-01-01T00:47:01Z</time>
      </trkpt>
      <trkpt lat="45.08452" lon="5.61408">
        <ele>1767</ele>
        <time>2010-01-01T00:47:03Z</time>
      </trkpt>
      <trkpt lat="45.08443" lon="5.61406">
        <ele>1764</ele>
        <time>2010-01-01T00:47:07Z</time>
      </trkpt>
      <trkpt lat="45.08435" lon="5.61404">
        <ele>1762</ele>
        <time>2010-01-01T00:47:10Z</time>
      </trkpt>
      <trkpt lat="45.08427" lon="5.61403">
        <ele>1759</ele>
        <time>2010-01-01T00:47:13Z</time>
      </trkpt>
      <trkpt lat="45.08418" lon="5.61399">
        <ele>1757</ele>
        <time>2010-01-01T00:47:17Z</time>
      </trkpt>
      <trkpt lat="45.0841" lon="5.61398">
        <ele>1755</ele>
        <time>2010-01-01T00:47:20Z</time>
      </trkpt>
      <trkpt lat="45.084" lon="5.61391">
        <ele>1752</ele>
        <time>2010-01-01T00:47:25Z</time>
      </trkpt>
      <trkpt lat="45.08395" lon="5.61388">
        <ele>1751</ele>
        <time>2010-01-01T00:47:27Z</time>
      </trkpt>
      <trkpt lat="45.08393" lon="5.61386">
        <ele>1750</ele>
        <time>2010-01-01T00:47:28Z</time>
      </trkpt>
      <trkpt lat="45.08391" lon="5.6138">
        <ele>1749</ele>
        <time>2010-01-01T00:47:30Z</time>
      </trkpt>
      <trkpt lat="45.0839" lon="5.61376">
        <ele>1748</ele>
        <time>2010-01-01T00:47:31Z</time>
      </trkpt>
      <trkpt lat="45.08386" lon="5.61371">
        <ele>1747</ele>
        <time>2010-01-01T00:47:33Z</time>
      </trkpt>
      <trkpt lat="45.0838" lon="5.61365">
        <ele>1745</ele>
        <time>2010-01-01T00:47:36Z</time>
      </trkpt>
      <trkpt lat="45.08379" lon="5.61362">
        <ele>1745</ele>
        <time>2010-01-01T00:47:37Z</time>
      </trkpt>
      <trkpt lat="45.08378" lon="5.61359">
        <ele>1744</ele>
        <time>2010-01-01T00:47:38Z</time>
      </trkpt>
      <trkpt lat="45.08378" lon="5.61356">
        <ele>1743</ele>
        <time>2010-01-01T00:47:39Z</time>
      </trkpt>
      <trkpt lat="45.08375" lon="5.61356">
        <ele>1743</ele>
        <time>2010-01-01T00:47:40Z</time>
      </trkpt>
      <trkpt lat="45.08372" lon="5.61357">
        <ele>1743</ele>
        <time>2010-01-01T00:47:41Z</time>
      </trkpt>
      <trkpt lat="45.08366" lon="5.61359">
        <ele>1742</ele>
        <time>2010-01-01T00:47:44Z</time>
      </trkpt>
      <trkpt lat="45.08357" lon="5.61358">
        <ele>1740</ele>
        <time>2010-01-01T00:47:47Z</time>
      </trkpt>
      <trkpt lat="45.08352" lon="5.6135">
        <ele>1738</ele>
        <time>2010-01-01T00:47:50Z</time>
      </trkpt>
      <trkpt lat="45.08344" lon="5.61337">
        <ele>1736</ele>
        <time>2010-01-01T00:47:55Z</time>
      </trkpt>
      <trkpt lat="45.08335" lon="5.61324">
        <ele>1733</ele>
        <time>2010-01-01T00:48:00Z</time>
      </trkpt>
      <trkpt lat="45.0833" lon="5.61314">
        <ele>1731</ele>
        <time>2010-01-01T00:48:04Z</time>
      </trkpt>
      <trkpt lat="45.08329" lon="5.613">
        <ele>1729</ele>
        <time>2010-01-01T00:48:08Z</time>
      </trkpt>
      <trkpt lat="45.08327" lon="5.61306">
        <ele>1730</ele>
        <time>2010-01-01T00:48:10Z</time>
      </trkpt>
      <trkpt lat="45.08326" lon="5.6131">
        <ele>1731</ele>
        <time>2010-01-01T00:48:11Z</time>
      </trkpt>
      <trkpt lat="45.08327" lon="5.61306">
        <ele>1730</ele>
        <time>2010-01-01T00:48:12Z</time>
      </trkpt>
      <trkpt lat="45.08329" lon="5.613">
        <ele>1729</ele>
        <time>2010-01-01T00:48:14Z</time>
      </trkpt>
      <trkpt lat="45.0833" lon="5.61285">
        <ele>1727</ele>
        <time>2010-01-01T00:48:18Z</time>
      </trkpt>
      <trkpt lat="45.08333" lon="5.61277">
        <ele>1725</ele>
        <time>2010-01-01T00:48:21Z</time>
      </trkpt>
      <trkpt lat="45.08334" lon="5.6127">
        <ele>1723</ele>
        <time>2010-01-01T00:48:23Z</time>
      </trkpt>
      <trkpt lat="45.08337" lon="5.61254">
        <ele>1719</ele>
        <time>2010-01-01T00:48:27Z</time>
      </trkpt>
      <trkpt lat="45.08341" lon="5.61245">
        <ele>1717</ele>
        <time>2010-01-01T00:48:30Z</time>
      </trkpt>
      <trkpt lat="45.08344" lon="5.61235">
        <ele>1714</ele>
        <time>2010-01-01T00:48:33Z</time>
      </trkpt>
      <trkpt lat="45.08343" lon="5.61222">
        <ele>1712</ele>
        <time>2010-01-01T00:48:37Z</time>
      </trkpt>
      <trkpt lat="45.08345" lon="5.61198">
        <ele>1707</ele>
        <time>2010-01-01T00:48:44Z</time>
      </trkpt>
      <trkpt lat="45.08341" lon="5.61171">
        <ele>1703</ele>
        <time>2010-01-01T00:48:52Z</time>
      </trkpt>
      <trkpt lat="45.08341" lon="5.6116">
        <ele>1702</ele>
        <time>2010-01-01T00:48:55Z</time>
      </trkpt>
      <trkpt lat="45.08341" lon="5.6115">
        <ele>1701</ele>
        <time>2010-01-01T00:48:58Z</time>
      </trkpt>
      <trkpt lat="45.08339" lon="5.61139">
        <ele>1701</ele>
        <time>2010-01-01T00:49:01Z</time>
      </trkpt>
      <trkpt lat="45.08335" lon="5.61128">
        <ele>1699</ele>
        <time>2010-01-01T00:49:04Z</time>
      </trkpt>
      <trkpt lat="45.08334" lon="5.61118">
        <ele>1697</ele>
        <time>2010-01-01T00:49:07Z</time>
      </trkpt>
      <trkpt lat="45.08332" lon="5.6111">
        <ele>1695</ele>
        <time>2010-01-01T00:49:10Z</time>
      </trkpt>
      <trkpt lat="45.08329" lon="5.61099">
        <ele>1692</ele>
        <time>2010-01-01T00:49:13Z</time>
      </trkpt>
      <trkpt lat="45.08326" lon="5.61089">
        <ele>1688</ele>
        <time>2010-01-01T00:49:16Z</time>
      </trkpt>
      <trkpt lat="45.08322" lon="5.61083">
        <ele>1686</ele>
        <time>2010-01-01T00:49:18Z</time>
      </trkpt>
      <trkpt lat="45.08317" lon="5.61081">
        <ele>1685</ele>
        <time>2010-01-01T00:49:20Z</time>
      </trkpt>
      <trkpt lat="45.08314" lon="5.6108">
        <ele>1685</ele>
        <time>2010-01-01T00:49:22Z</time>
      </trkpt>
      <trkpt lat="45.08313" lon="5.61076">
        <ele>1683</ele>
        <time>2010-01-01T00:49:23Z</time>
      </trkpt>
      <trkpt lat="45.08312" lon="5.61071">
        <ele>1682</ele>
        <time>2010-01-01T00:49:24Z</time>
      </trkpt>
      <trkpt lat="45.08305" lon="5.61066">
        <ele>1680</ele>
        <time>2010-01-01T00:49:28Z</time>
      </trkpt>
      <trkpt lat="45.08292" lon="5.61065">
        <ele>1682</ele>
        <time>2010-01-01T00:49:33Z</time>
      </trkpt>
      <trkpt lat="45.08281" lon="5.61068">
        <ele>1685</ele>
        <time>2010-01-01T00:49:37Z</time>
      </trkpt>
      <trkpt lat="45.0827" lon="5.61074">
        <ele>1689</ele>
        <time>2010-01-01T00:49:42Z</time>
      </trkpt>
      <trkpt lat="45.08264" lon="5.61078">
        <ele>1692</ele>
        <time>2010-01-01T00:49:45Z</time>
      </trkpt>
      <trkpt lat="45.08259" lon="5.61079">
        <ele>1694</ele>
        <time>2010-01-01T00:49:47Z</time>
      </trkpt>
      <trkpt lat="45.08253" lon="5.6108">
        <ele>1696</ele>
        <time>2010-01-01T00:49:49Z</time>
      </trkpt>
      <trkpt lat="45.08247" lon="5.61079">
        <ele>1697</ele>
        <time>2010-01-01T00:49:51Z</time>
      </trkpt>
      <trkpt lat="45.08241" lon="5.6108">
        <ele>1699</ele>
        <time>2010-01-01T00:49:54Z</time>
      </trkpt>
      <trkpt lat="45.08237" lon="5.6108">
        <ele>1701</ele>
        <time>2010-01-01T00:49:55Z</time>
      </trkpt>
      <trkpt lat="45.08232" lon="5.61073">
        <ele>1699</ele>
        <time>2010-01-01T00:49:58Z</time>
      </trkpt>
      <trkpt lat="45.08229" lon="5.61063">
        <ele>1695</ele>
        <time>2010-01-01T00:50:01Z</time>
      </trkpt>
      <trkpt lat="45.08226" lon="5.61059">
        <ele>1694</ele>
        <time>2010-01-01T00:50:03Z</time>
      </trkpt>
      <trkpt lat="45.08226" lon="5.61053">
        <ele>1690</ele>
        <time>2010-01-01T00:50:05Z</time>
      </trkpt>
      <trkpt lat="45.08226" lon="5.61043">
        <ele>1683</ele>
        <time>2010-01-01T00:50:08Z</time>
      </trkpt>
      <trkpt lat="45.08231" lon="5.61041">
        <ele>1682</ele>
        <time>2010-01-01T00:50:10Z</time>
      </trkpt>
      <trkpt lat="45.08248" lon="5.61038">
        <ele>1681</ele>
        <time>2010-01-01T00:50:16Z</time>
      </trkpt>
      <trkpt lat="45.0827" lon="5.61033">
        <ele>1675</ele>
        <time>2010-01-01T00:50:25Z</time>
      </trkpt>
      <trkpt lat="45.08282" lon="5.61028">
        <ele>1672</ele>
        <time>2010-01-01T00:50:30Z</time>
      </trkpt>
      <trkpt lat="45.08285" lon="5.61022">
        <ele>1669</ele>
        <time>2010-01-01T00:50:32Z</time>
      </trkpt>
      <trkpt lat="45.0828" lon="5.61014">
        <ele>1666</ele>
        <time>2010-01-01T00:50:35Z</time>
      </trkpt>
      <trkpt lat="45.08278" lon="5.61005">
        <ele>1662</ele>
        <time>2010-01-01T00:50:38Z</time>
      </trkpt>
      <trkpt lat="45.08278" lon="5.60997">
        <ele>1658</ele>
        <time>2010-01-01T00:50:40Z</time>
      </trkpt>
      <trkpt lat="45.08282" lon="5.60994">
        <ele>1656</ele>
        <time>2010-01-01T00:50:42Z</time>
      </trkpt>
      <trkpt lat="45.08288" lon="5.60992">
        <ele>1655</ele>
        <time>2010-01-01T00:50:45Z</time>
      </trkpt>
      <trkpt lat="45.0829" lon="5.60987">
        <ele>1652</ele>
        <time>2010-01-01T00:50:46Z</time>
      </trkpt>
      <trkpt lat="45.08292" lon="5.60977">
        <ele>1646</ele>
        <time>2010-01-01T00:50:49Z</time>
      </trkpt>
      <trkpt lat="45.08295" lon="5.60965">
        <ele>1640</ele>
        <time>2010-01-01T00:50:53Z</time>
      </trkpt>
      <trkpt lat="45.08298" lon="5.60953">
        <ele>1635</ele>
        <time>2010-01-01T00:50:56Z</time>
      </trkpt>
      <trkpt lat="45.08314" lon="5.60936">
        <ele>1627</ele>
        <time>2010-01-01T00:51:04Z</time>
      </trkpt>
      <trkpt lat="45.08321" lon="5.60928">
        <ele>1624</ele>
        <time>2010-01-01T00:51:08Z</time>
      </trkpt>
      <trkpt lat="45.08324" lon="5.60921">
        <ele>1621</ele>
        <time>2010-01-01T00:51:10Z</time>
      </trkpt>
      <trkpt lat="45.08323" lon="5.60914">
        <ele>1618</ele>
        <time>2010-01-01T00:51:12Z</time>
      </trkpt>
      <trkpt lat="45.08323" lon="5.60905">
        <ele>1616</ele>
        <time>2010-01-01T00:51:15Z</time>
      </trkpt>
      <trkpt lat="45.08325" lon="5.60897">
        <ele>1614</ele>
        <time>2010-01-01T00:51:17Z</time>
      </trkpt>
      <trkpt lat="45.08328" lon="5.6089">
        <ele>1612</ele>
        <time>2010-01-01T00:51:20Z</time>
      </trkpt>
      <trkpt lat="45.08328" lon="5.60883">
        <ele>1610</ele>
        <time>2010-01-01T00:51:22Z</time>
      </trkpt>
      <trkpt lat="45.0833" lon="5.60877">
        <ele>1609</ele>
        <time>2010-01-01T00:51:24Z</time>
      </trkpt>
      <trkpt lat="45.08334" lon="5.6087">
        <ele>1607</ele>
        <time>2010-01-01T00:51:26Z</time>
      </trkpt>
      <trkpt lat="45.0834" lon="5.60858">
        <ele>1604</ele>
        <time>2010-01-01T00:51:30Z</time>
      </trkpt>
      <trkpt lat="45.08348" lon="5.60849">
        <ele>1603</ele>
        <time>2010-01-01T00:51:34Z</time>
      </trkpt>
      <trkpt lat="45.08354" lon="5.60838">
        <ele>1601</ele>
        <time>2010-01-01T00:51:38Z</time>
      </trkpt>
      <trkpt lat="45.08361" lon="5.60825">
        <ele>1600</ele>
        <time>2010-01-01T00:51:43Z</time>
      </trkpt>
      <trkpt lat="45.08371" lon="5.60817">
        <ele>1598</ele>
        <time>2010-01-01T00:51:47Z</time>
      </trkpt>
      <trkpt lat="45.08381" lon="5.6081">
        <ele>1597</ele>
        <time>2010-01-01T00:51:52Z</time>
      </trkpt>
      <trkpt lat="45.08389" lon="5.60805">
        <ele>1595</ele>
        <time>2010-01-01T00:51:55Z</time>
      </trkpt>
      <trkpt lat="45.08396" lon="5.60801">
        <ele>1595</ele>
        <time>2010-01-01T00:51:58Z</time>
      </trkpt>
      <trkpt lat="45.08402" lon="5.60795">
        <ele>1595</ele>
        <time>2010-01-01T00:52:01Z</time>
      </trkpt>
      <trkpt lat="45.08404" lon="5.60787">
        <ele>1594</ele>
        <time>2010-01-01T00:52:04Z</time>
      </trkpt>
      <trkpt lat="45.08403" lon="5.60778">
        <ele>1593</ele>
        <time>2010-01-01T00:52:06Z</time>
      </trkpt>
      <trkpt lat="45.08402" lon="5.6077">
        <ele>1592</ele>
        <time>2010-01-01T00:52:09Z</time>
      </trkpt>
      <trkpt lat="45.08403" lon="5.60762">
        <ele>1592</ele>
        <time>2010-01-01T00:52:11Z</time>
      </trkpt>
      <trkpt lat="45.08407" lon="5.60753">
        <ele>1590</ele>
        <time>2010-01-01T00:52:14Z</time>
      </trkpt>
      <trkpt lat="45.08412" lon="5.60743">
        <ele>1588</ele>
        <time>2010-01-01T00:52:17Z</time>
      </trkpt>
      <trkpt lat="45.08423" lon="5.60717">
        <ele>1581</ele>
        <time>2010-01-01T00:52:26Z</time>
      </trkpt>
      <trkpt lat="45.08434" lon="5.60702">
        <ele>1580</ele>
        <time>2010-01-01T00:52:32Z</time>
      </trkpt>
      <trkpt lat="45.08442" lon="5.60689">
        <ele>1579</ele>
        <time>2010-01-01T00:52:37Z</time>
      </trkpt>
      <trkpt lat="45.0845" lon="5.60676">
        <ele>1576</ele>
        <time>2010-01-01T00:52:42Z</time>
      </trkpt>
      <trkpt lat="45.0846" lon="5.60664">
        <ele>1571</ele>
        <time>2010-01-01T00:52:47Z</time>
      </trkpt>
      <trkpt lat="45.08467" lon="5.60659">
        <ele>1568</ele>
        <time>2010-01-01T00:52:50Z</time>
      </trkpt>
      <trkpt lat="45.08475" lon="5.60656">
        <ele>1566</ele>
        <time>2010-01-01T00:52:54Z</time>
      </trkpt>
      <trkpt lat="45.08483" lon="5.60656">
        <ele>1565</ele>
        <time>2010-01-01T00:52:57Z</time>
      </trkpt>
      <trkpt lat="45.0849" lon="5.60655">
        <ele>1565</ele>
        <time>2010-01-01T00:53:00Z</time>
      </trkpt>
      <trkpt lat="45.08497" lon="5.60652">
        <ele>1563</ele>
        <time>2010-01-01T00:53:02Z</time>
      </trkpt>
      <trkpt lat="45.08504" lon="5.60648">
        <ele>1561</ele>
        <time>2010-01-01T00:53:06Z</time>
      </trkpt>
      <trkpt lat="45.08513" lon="5.60645">
        <ele>1560</ele>
        <time>2010-01-01T00:53:09Z</time>
      </trkpt>
      <trkpt lat="45.0852" lon="5.60647">
        <ele>1560</ele>
        <time>2010-01-01T00:53:12Z</time>
      </trkpt>
      <trkpt lat="45.08526" lon="5.60645">
        <ele>1559</ele>
        <time>2010-01-01T00:53:15Z</time>
      </trkpt>
      <trkpt lat="45.08531" lon="5.60641">
        <ele>1558</ele>
        <time>2010-01-01T00:53:17Z</time>
      </trkpt>
      <trkpt lat="45.08538" lon="5.60637">
        <ele>1556</ele>
        <time>2010-01-01T00:53:20Z</time>
      </trkpt>
      <trkpt lat="45.08543" lon="5.60632">
        <ele>1554</ele>
        <time>2010-01-01T00:53:22Z</time>
      </trkpt>
      <trkpt lat="45.08549" lon="5.60623">
        <ele>1552</ele>
        <time>2010-01-01T00:53:26Z</time>
      </trkpt>
      <trkpt lat="45.08555" lon="5.60616">
        <ele>1550</ele>
        <time>2010-01-01T00:53:29Z</time>
      </trkpt>
      <trkpt lat="45.08561" lon="5.6061">
        <ele>1547</ele>
        <time>2010-01-01T00:53:32Z</time>
      </trkpt>
      <trkpt lat="45.08567" lon="5.60603">
        <ele>1545</ele>
        <time>2010-01-01T00:53:35Z</time>
      </trkpt>
      <trkpt lat="45.08572" lon="5.60596">
        <ele>1543</ele>
        <time>2010-01-01T00:53:38Z</time>
      </trkpt>
      <trkpt lat="45.08579" lon="5.6059">
        <ele>1541</ele>
        <time>2010-01-01T00:53:41Z</time>
      </trkpt>
      <trkpt lat="45.08586" lon="5.60586">
        <ele>1539</ele>
        <time>2010-01-01T00:53:44Z</time>
      </trkpt>
      <trkpt lat="45.08594" lon="5.60587">
        <ele>1538</ele>
        <time>2010-01-01T00:53:47Z</time>
      </trkpt>
      <trkpt lat="45.08603" lon="5.60587">
        <ele>1536</ele>
        <time>2010-01-01T00:53:51Z</time>
      </trkpt>
      <trkpt lat="45.08612" lon="5.60587">
        <ele>1534</ele>
        <time>2010-01-01T00:53:54Z</time>
      </trkpt>
      <trkpt lat="45.08615" lon="5.60584">
        <ele>1533</ele>
        <time>2010-01-01T00:53:56Z</time>
      </trkpt>
      <trkpt lat="45.08615" lon="5.60581">
        <ele>1533</ele>
        <time>2010-01-01T00:53:57Z</time>
      </trkpt>
      <trkpt lat="45.08613" lon="5.60577">
        <ele>1532</ele>
        <time>2010-01-01T00:53:58Z</time>
      </trkpt>
      <trkpt lat="45.0861" lon="5.60573">
        <ele>1532</ele>
        <time>2010-01-01T00:54:00Z</time>
      </trkpt>
      <trkpt lat="45.08607" lon="5.60567">
        <ele>1531</ele>
        <time>2010-01-01T00:54:02Z</time>
      </trkpt>
      <trkpt lat="45.08608" lon="5.60559">
        <ele>1530</ele>
        <time>2010-01-01T00:54:04Z</time>
      </trkpt>
      <trkpt lat="45.08611" lon="5.60554">
        <ele>1528</ele>
        <time>2010-01-01T00:54:06Z</time>
      </trkpt>
      <trkpt lat="45.08616" lon="5.60551">
        <ele>1528</ele>
        <time>2010-01-01T00:54:08Z</time>
      </trkpt>
      <trkpt lat="45.08619" lon="5.60528">
        <ele>1524</ele>
        <time>2010-01-01T00:54:15Z</time>
      </trkpt>
      <trkpt lat="45.0862" lon="5.60506">
        <ele>1518</ele>
        <time>2010-01-01T00:54:21Z</time>
      </trkpt>
      <trkpt lat="45.08614" lon="5.60507">
        <ele>1518</ele>
        <time>2010-01-01T00:54:24Z</time>
      </trkpt>
      <trkpt lat="45.08609" lon="5.60509">
        <ele>1519</ele>
        <time>2010-01-01T00:54:26Z</time>
      </trkpt>
      <trkpt lat="45.08602" lon="5.60508">
        <ele>1519</ele>
        <time>2010-01-01T00:54:28Z</time>
      </trkpt>
      <trkpt lat="45.08595" lon="5.60506">
        <ele>1519</ele>
        <time>2010-01-01T00:54:31Z</time>
      </trkpt>
      <trkpt lat="45.08587" lon="5.60504">
        <ele>1519</ele>
        <time>2010-01-01T00:54:35Z</time>
      </trkpt>
      <trkpt lat="45.08578" lon="5.60503">
        <ele>1521</ele>
        <time>2010-01-01T00:54:38Z</time>
      </trkpt>
      <trkpt lat="45.08566" lon="5.60504">
        <ele>1525</ele>
        <time>2010-01-01T00:54:43Z</time>
      </trkpt>
      <trkpt lat="45.08556" lon="5.60504">
        <ele>1527</ele>
        <time>2010-01-01T00:54:47Z</time>
      </trkpt>
      <trkpt lat="45.08547" lon="5.60498">
        <ele>1527</ele>
        <time>2010-01-01T00:54:51Z</time>
      </trkpt>
      <trkpt lat="45.08535" lon="5.60491">
        <ele>1527</ele>
        <time>2010-01-01T00:54:56Z</time>
      </trkpt>
      <trkpt lat="45.08524" lon="5.60491">
        <ele>1529</ele>
        <time>2010-01-01T00:55:01Z</time>
      </trkpt>
      <trkpt lat="45.08516" lon="5.60489">
        <ele>1532</ele>
        <time>2010-01-01T00:55:04Z</time>
      </trkpt>
      <trkpt lat="45.08516" lon="5.60483">
        <ele>1531</ele>
        <time>2010-01-01T00:55:05Z</time>
      </trkpt>
      <trkpt lat="45.08517" lon="5.60481">
        <ele>1530</ele>
        <time>2010-01-01T00:55:06Z</time>
      </trkpt>
      <trkpt lat="45.08522" lon="5.60474">
        <ele>1527</ele>
        <time>2010-01-01T00:55:09Z</time>
      </trkpt>
      <trkpt lat="45.08523" lon="5.60466">
        <ele>1526</ele>
        <time>2010-01-01T00:55:11Z</time>
      </trkpt>
      <trkpt lat="45.08525" lon="5.60455">
        <ele>1526</ele>
        <time>2010-01-01T00:55:14Z</time>
      </trkpt>
      <trkpt lat="45.08525" lon="5.60451">
        <ele>1525</ele>
        <time>2010-01-01T00:55:16Z</time>
      </trkpt>
      <trkpt lat="45.08523" lon="5.60447">
        <ele>1526</ele>
        <time>2010-01-01T00:55:17Z</time>
      </trkpt>
      <trkpt lat="45.08519" lon="5.60443">
        <ele>1528</ele>
        <time>2010-01-01T00:55:19Z</time>
      </trkpt>
      <trkpt lat="45.08515" lon="5.6044">
        <ele>1529</ele>
        <time>2010-01-01T00:55:21Z</time>
      </trkpt>
      <trkpt lat="45.08512" lon="5.60434">
        <ele>1530</ele>
        <time>2010-01-01T00:55:23Z</time>
      </trkpt>
      <trkpt lat="45.08511" lon="5.60428">
        <ele>1530</ele>
        <time>2010-01-01T00:55:25Z</time>
      </trkpt>
      <trkpt lat="45.08512" lon="5.60418">
        <ele>1529</ele>
        <time>2010-01-01T00:55:27Z</time>
      </trkpt>
      <trkpt lat="45.08511" lon="5.6041">
        <ele>1528</ele>
        <time>2010-01-01T00:55:30Z</time>
      </trkpt>
      <trkpt lat="45.08508" lon="5.60403">
        <ele>1528</ele>
        <time>2010-01-01T00:55:32Z</time>
      </trkpt>
      <trkpt lat="45.08504" lon="5.60398">
        <ele>1528</ele>
        <time>2010-01-01T00:55:34Z</time>
      </trkpt>
      <trkpt lat="45.08498" lon="5.60394">
        <ele>1529</ele>
        <time>2010-01-01T00:55:37Z</time>
      </trkpt>
      <trkpt lat="45.08495" lon="5.60388">
        <ele>1530</ele>
        <time>2010-01-01T00:55:39Z</time>
      </trkpt>
      <trkpt lat="45.08493" lon="5.60383">
        <ele>1530</ele>
        <time>2010-01-01T00:55:41Z</time>
      </trkpt>
      <trkpt lat="45.08492" lon="5.60377">
        <ele>1529</ele>
        <time>2010-01-01T00:55:42Z</time>
      </trkpt>
      <trkpt lat="45.08492" lon="5.60371">
        <ele>1528</ele>
        <time>2010-01-01T00:55:44Z</time>
      </trkpt>
      <trkpt lat="45.08495" lon="5.60363">
        <ele>1525</ele>
        <time>2010-01-01T00:55:47Z</time>
      </trkpt>
      <trkpt lat="45.08495" lon="5.60354">
        <ele>1522</ele>
        <time>2010-01-01T00:55:49Z</time>
      </trkpt>
      <trkpt lat="45.08494" lon="5.60346">
        <ele>1520</ele>
        <time>2010-01-01T00:55:51Z</time>
      </trkpt>
      <trkpt lat="45.08491" lon="5.60339">
        <ele>1520</ele>
        <time>2010-01-01T00:55:54Z</time>
      </trkpt>
      <trkpt lat="45.08486" lon="5.60336">
        <ele>1521</ele>
        <time>2010-01-01T00:55:56Z</time>
      </trkpt>
      <trkpt lat="45.08484" lon="5.60334">
        <ele>1521</ele>
        <time>2010-01-01T00:55:57Z</time>
      </trkpt>
      <trkpt lat="45.0848" lon="5.60329">
        <ele>1521</ele>
        <time>2010-01-01T00:55:59Z</time>
      </trkpt>
      <trkpt lat="45.08471" lon="5.60324">
        <ele>1523</ele>
        <time>2010-01-01T00:56:03Z</time>
      </trkpt>
      <trkpt lat="45.08463" lon="5.6032">
        <ele>1525</ele>
        <time>2010-01-01T00:56:06Z</time>
      </trkpt>
      <trkpt lat="45.08455" lon="5.60314">
        <ele>1527</ele>
        <time>2010-01-01T00:56:10Z</time>
      </trkpt>
      <trkpt lat="45.08444" lon="5.60305">
        <ele>1529</ele>
        <time>2010-01-01T00:56:15Z</time>
      </trkpt>
      <trkpt lat="45.08434" lon="5.603">
        <ele>1531</ele>
        <time>2010-01-01T00:56:19Z</time>
      </trkpt>
      <trkpt lat="45.08423" lon="5.60295">
        <ele>1533</ele>
        <time>2010-01-01T00:56:24Z</time>
      </trkpt>
      <trkpt lat="45.08415" lon="5.60285">
        <ele>1531</ele>
        <time>2010-01-01T00:56:28Z</time>
      </trkpt>
      <trkpt lat="45.08407" lon="5.60277">
        <ele>1530</ele>
        <time>2010-01-01T00:56:32Z</time>
      </trkpt>
      <trkpt lat="45.08399" lon="5.6027">
        <ele>1529</ele>
        <time>2010-01-01T00:56:36Z</time>
      </trkpt>
      <trkpt lat="45.08385" lon="5.6026">
        <ele>1529</ele>
        <time>2010-01-01T00:56:42Z</time>
      </trkpt>
      <trkpt lat="45.08375" lon="5.60257">
        <ele>1530</ele>
        <time>2010-01-01T00:56:46Z</time>
      </trkpt>
      <trkpt lat="45.08365" lon="5.60251">
        <ele>1530</ele>
        <time>2010-01-01T00:56:51Z</time>
      </trkpt>
      <trkpt lat="45.08358" lon="5.60243">
        <ele>1528</ele>
        <time>2010-01-01T00:56:54Z</time>
      </trkpt>
      <trkpt lat="45.08352" lon="5.60236">
        <ele>1525</ele>
        <time>2010-01-01T00:56:57Z</time>
      </trkpt>
      <trkpt lat="45.08341" lon="5.60229">
        <ele>1521</ele>
        <time>2010-01-01T00:57:02Z</time>
      </trkpt>
      <trkpt lat="45.08327" lon="5.60226">
        <ele>1519</ele>
        <time>2010-01-01T00:57:08Z</time>
      </trkpt>
      <trkpt lat="45.08318" lon="5.60224">
        <ele>1519</ele>
        <time>2010-01-01T00:57:11Z</time>
      </trkpt>
      <trkpt lat="45.08308" lon="5.60225">
        <ele>1519</ele>
        <time>2010-01-01T00:57:15Z</time>
      </trkpt>
      <trkpt lat="45.08302" lon="5.60229">
        <ele>1522</ele>
        <time>2010-01-01T00:57:18Z</time>
      </trkpt>
      <trkpt lat="45.08298" lon="5.60237">
        <ele>1525</ele>
        <time>2010-01-01T00:57:21Z</time>
      </trkpt>
      <trkpt lat="45.08292" lon="5.60242">
        <ele>1529</ele>
        <time>2010-01-01T00:57:24Z</time>
      </trkpt>
      <trkpt lat="45.08287" lon="5.60242">
        <ele>1530</ele>
        <time>2010-01-01T00:57:26Z</time>
      </trkpt>
      <trkpt lat="45.08284" lon="5.60238">
        <ele>1529</ele>
        <time>2010-01-01T00:57:27Z</time>
      </trkpt>
      <trkpt lat="45.08282" lon="5.60231">
        <ele>1527</ele>
        <time>2010-01-01T00:57:29Z</time>
      </trkpt>
      <trkpt lat="45.0828" lon="5.60225">
        <ele>1525</ele>
        <time>2010-01-01T00:57:31Z</time>
      </trkpt>
      <trkpt lat="45.08271" lon="5.60221">
        <ele>1525</ele>
        <time>2010-01-01T00:57:35Z</time>
      </trkpt>
      <trkpt lat="45.08263" lon="5.60219">
        <ele>1525</ele>
        <time>2010-01-01T00:57:38Z</time>
      </trkpt>
      <trkpt lat="45.0825" lon="5.60217">
        <ele>1526</ele>
        <time>2010-01-01T00:57:44Z</time>
      </trkpt>
      <trkpt lat="45.0824" lon="5.60217">
        <ele>1527</ele>
        <time>2010-01-01T00:57:48Z</time>
      </trkpt>
      <trkpt lat="45.0823" lon="5.60219">
        <ele>1528</ele>
        <time>2010-01-01T00:57:52Z</time>
      </trkpt>
      <trkpt lat="45.0822" lon="5.60221">
        <ele>1529</ele>
        <time>2010-01-01T00:57:56Z</time>
      </trkpt>
      <trkpt lat="45.08211" lon="5.60223">
        <ele>1531</ele>
        <time>2010-01-01T00:57:59Z</time>
      </trkpt>
      <trkpt lat="45.08201" lon="5.6022">
        <ele>1530</ele>
        <time>2010-01-01T00:58:03Z</time>
      </trkpt>
      <trkpt lat="45.08196" lon="5.60217">
        <ele>1529</ele>
        <time>2010-01-01T00:58:06Z</time>
      </trkpt>
      <trkpt lat="45.08191" lon="5.60216">
        <ele>1529</ele>
        <time>2010-01-01T00:58:08Z</time>
      </trkpt>
      <trkpt lat="45.08181" lon="5.60212">
        <ele>1528</ele>
        <time>2010-01-01T00:58:12Z</time>
      </trkpt>
      <trkpt lat="45.08172" lon="5.60208">
        <ele>1527</ele>
        <time>2010-01-01T00:58:15Z</time>
      </trkpt>
      <trkpt lat="45.08159" lon="5.60203">
        <ele>1527</ele>
        <time>2010-01-01T00:58:21Z</time>
      </trkpt>
      <trkpt lat="45.08148" lon="5.60199">
        <ele>1526</ele>
        <time>2010-01-01T00:58:25Z</time>
      </trkpt>
      <trkpt lat="45.08136" lon="5.60195">
        <ele>1526</ele>
        <time>2010-01-01T00:58:30Z</time>
      </trkpt>
      <trkpt lat="45.08104" lon="5.60187">
        <ele>1527</ele>
        <time>2010-01-01T00:58:43Z</time>
      </trkpt>
      <trkpt lat="45.08091" lon="5.60182">
        <ele>1526</ele>
        <time>2010-01-01T00:58:49Z</time>
      </trkpt>
      <trkpt lat="45.08077" lon="5.60177">
        <ele>1524</ele>
        <time>2010-01-01T00:58:55Z</time>
      </trkpt>
      <trkpt lat="45.08064" lon="5.60175">
        <ele>1523</ele>
        <time>2010-01-01T00:59:00Z</time>
      </trkpt>
      <trkpt lat="45.08047" lon="5.60172">
        <ele>1522</ele>
        <time>2010-01-01T00:59:07Z</time>
      </trkpt>
      <trkpt lat="45.08034" lon="5.60169">
        <ele>1523</ele>
        <time>2010-01-01T00:59:12Z</time>
      </trkpt>
      <trkpt lat="45.0802" lon="5.6017">
        <ele>1524</ele>
        <time>2010-01-01T00:59:18Z</time>
      </trkpt>
      <trkpt lat="45.08014" lon="5.6017">
        <ele>1524</ele>
        <time>2010-01-01T00:59:20Z</time>
      </trkpt>
      <trkpt lat="45.08007" lon="5.6017">
        <ele>1523</ele>
        <time>2010-01-01T00:59:23Z</time>
      </trkpt>
      <trkpt lat="45.08" lon="5.60172">
        <ele>1524</ele>
        <time>2010-01-01T00:59:26Z</time>
      </trkpt>
      <trkpt lat="45.07992" lon="5.60175">
        <ele>1526</ele>
        <time>2010-01-01T00:59:29Z</time>
      </trkpt>
      <trkpt lat="45.07982" lon="5.60178">
        <ele>1529</ele>
        <time>2010-01-01T00:59:33Z</time>
      </trkpt>
      <trkpt lat="45.07972" lon="5.6018">
        <ele>1531</ele>
        <time>2010-01-01T00:59:37Z</time>
      </trkpt>
      <trkpt lat="45.07963" lon="5.60181">
        <ele>1533</ele>
        <time>2010-01-01T00:59:41Z</time>
      </trkpt>
      <trkpt lat="45.07955" lon="5.6018">
        <ele>1535</ele>
        <time>2010-01-01T00:59:44Z</time>
      </trkpt>
      <trkpt lat="45.07944" lon="5.60179">
        <ele>1537</ele>
        <time>2010-01-01T00:59:48Z</time>
      </trkpt>
      <trkpt lat="45.07935" lon="5.60178">
        <ele>1537</ele>
        <time>2010-01-01T00:59:52Z</time>
      </trkpt>
      <trkpt lat="45.07924" lon="5.60177">
        <ele>1538</ele>
        <time>2010-01-01T00:59:56Z</time>
      </trkpt>
      <trkpt lat="45.07913" lon="5.60175">
        <ele>1538</ele>
        <time>2010-01-01T01:00:01Z</time>
      </trkpt>
      <trkpt lat="45.07903" lon="5.60172">
        <ele>1536</ele>
        <time>2010-01-01T01:00:05Z</time>
      </trkpt>
      <trkpt lat="45.07896" lon="5.60169">
        <ele>1535</ele>
        <time>2010-01-01T01:00:08Z</time>
      </trkpt>
      <trkpt lat="45.07889" lon="5.60164">
        <ele>1532</ele>
        <time>2010-01-01T01:00:11Z</time>
      </trkpt>
      <trkpt lat="45.07881" lon="5.60159">
        <ele>1532</ele>
        <time>2010-01-01T01:00:14Z</time>
      </trkpt>
      <trkpt lat="45.07874" lon="5.60154">
        <ele>1531</ele>
        <time>2010-01-01T01:00:18Z</time>
      </trkpt>
      <trkpt lat="45.07867" lon="5.6015">
        <ele>1530</ele>
        <time>2010-01-01T01:00:21Z</time>
      </trkpt>
      <trkpt lat="45.0786" lon="5.60145">
        <ele>1527</ele>
        <time>2010-01-01T01:00:24Z</time>
      </trkpt>
      <trkpt lat="45.07854" lon="5.60147">
        <ele>1530</ele>
        <time>2010-01-01T01:00:26Z</time>
      </trkpt>
      <trkpt lat="45.0785" lon="5.60148">
        <ele>1532</ele>
        <time>2010-01-01T01:00:28Z</time>
      </trkpt>
      <trkpt lat="45.07845" lon="5.60145">
        <ele>1531</ele>
        <time>2010-01-01T01:00:30Z</time>
      </trkpt>
      <trkpt lat="45.07841" lon="5.6014">
        <ele>1528</ele>
        <time>2010-01-01T01:00:32Z</time>
      </trkpt>
      <trkpt lat="45.07837" lon="5.60135">
        <ele>1526</ele>
        <time>2010-01-01T01:00:34Z</time>
      </trkpt>
      <trkpt lat="45.07833" lon="5.60131">
        <ele>1525</ele>
        <time>2010-01-01T01:00:36Z</time>
      </trkpt>
      <trkpt lat="45.07829" lon="5.60128">
        <ele>1526</ele>
        <time>2010-01-01T01:00:38Z</time>
      </trkpt>
      <trkpt lat="45.07823" lon="5.60124">
        <ele>1526</ele>
        <time>2010-01-01T01:00:41Z</time>
      </trkpt>
      <trkpt lat="45.07816" lon="5.6012">
        <ele>1527</ele>
        <time>2010-01-01T01:00:44Z</time>
      </trkpt>
      <trkpt lat="45.0781" lon="5.60115">
        <ele>1527</ele>
        <time>2010-01-01T01:00:46Z</time>
      </trkpt>
      <trkpt lat="45.07804" lon="5.6011">
        <ele>1527</ele>
        <time>2010-01-01T01:00:49Z</time>
      </trkpt>
      <trkpt lat="45.07803" lon="5.60102">
        <ele>1523</ele>
        <time>2010-01-01T01:00:52Z</time>
      </trkpt>
      <trkpt lat="45.078" lon="5.60096">
        <ele>1522</ele>
        <time>2010-01-01T01:00:54Z</time>
      </trkpt>
      <trkpt lat="45.07793" lon="5.60091">
        <ele>1523</ele>
        <time>2010-01-01T01:00:57Z</time>
      </trkpt>
      <trkpt lat="45.07787" lon="5.60086">
        <ele>1523</ele>
        <time>2010-01-01T01:01:00Z</time>
      </trkpt>
      <trkpt lat="45.07779" lon="5.60079">
        <ele>1524</ele>
        <time>2010-01-01T01:01:03Z</time>
      </trkpt>
      <trkpt lat="45.07768" lon="5.60074">
        <ele>1526</ele>
        <time>2010-01-01T01:01:08Z</time>
      </trkpt>
      <trkpt lat="45.07757" lon="5.60069">
        <ele>1528</ele>
        <time>2010-01-01T01:01:13Z</time>
      </trkpt>
      <trkpt lat="45.07749" lon="5.60068">
        <ele>1530</ele>
        <time>2010-01-01T01:01:16Z</time>
      </trkpt>
      <trkpt lat="45.0774" lon="5.60068">
        <ele>1531</ele>
        <time>2010-01-01T01:01:19Z</time>
      </trkpt>
      <trkpt lat="45.07733" lon="5.60068">
        <ele>1532</ele>
        <time>2010-01-01T01:01:22Z</time>
      </trkpt>
      <trkpt lat="45.07724" lon="5.60067">
        <ele>1533</ele>
        <time>2010-01-01T01:01:26Z</time>
      </trkpt>
      <trkpt lat="45.07718" lon="5.60064">
        <ele>1533</ele>
        <time>2010-01-01T01:01:28Z</time>
      </trkpt>
      <trkpt lat="45.07714" lon="5.60059">
        <ele>1532</ele>
        <time>2010-01-01T01:01:30Z</time>
      </trkpt>
      <trkpt lat="45.07711" lon="5.60053">
        <ele>1530</ele>
        <time>2010-01-01T01:01:33Z</time>
      </trkpt>
      <trkpt lat="45.07708" lon="5.60047">
        <ele>1528</ele>
        <time>2010-01-01T01:01:35Z</time>
      </trkpt>
      <trkpt lat="45.07704" lon="5.60041">
        <ele>1526</ele>
        <time>2010-01-01T01:01:37Z</time>
      </trkpt>
      <trkpt lat="45.07699" lon="5.60035">
        <ele>1523</ele>
        <time>2010-01-01T01:01:40Z</time>
      </trkpt>
      <trkpt lat="45.07695" lon="5.60028">
        <ele>1521</ele>
        <time>2010-01-01T01:01:42Z</time>
      </trkpt>
      <trkpt lat="45.07689" lon="5.60022">
        <ele>1519</ele>
        <time>2010-01-01T01:01:45Z</time>
      </trkpt>
      <trkpt lat="45.07684" lon="5.60016">
        <ele>1516</ele>
        <time>2010-01-01T01:01:48Z</time>
      </trkpt>
      <trkpt lat="45.07678" lon="5.6001">
        <ele>1514</ele>
        <time>2010-01-01T01:01:51Z</time>
      </trkpt>
      <trkpt lat="45.07672" lon="5.60007">
        <ele>1513</ele>
        <time>2010-01-01T01:01:53Z</time>
      </trkpt>
      <trkpt lat="45.07666" lon="5.60005">
        <ele>1512</ele>
        <time>2010-01-01T01:01:56Z</time>
      </trkpt>
      <trkpt lat="45.07662" lon="5.60008">
        <ele>1513</ele>
        <time>2010-01-01T01:01:57Z</time>
      </trkpt>
      <trkpt lat="45.0766" lon="5.60014">
        <ele>1516</ele>
        <time>2010-01-01T01:01:59Z</time>
      </trkpt>
      <trkpt lat="45.07655" lon="5.60022">
        <ele>1520</ele>
        <time>2010-01-01T01:02:02Z</time>
      </trkpt>
      <trkpt lat="45.07649" lon="5.60028">
        <ele>1523</ele>
        <time>2010-01-01T01:02:05Z</time>
      </trkpt>
      <trkpt lat="45.07643" lon="5.60035">
        <ele>1526</ele>
        <time>2010-01-01T01:02:08Z</time>
      </trkpt>
      <trkpt lat="45.07637" lon="5.60042">
        <ele>1529</ele>
        <time>2010-01-01T01:02:12Z</time>
      </trkpt>
      <trkpt lat="45.07631" lon="5.60046">
        <ele>1530</ele>
        <time>2010-01-01T01:02:14Z</time>
      </trkpt>
      <trkpt lat="45.07623" lon="5.60051">
        <ele>1530</ele>
        <time>2010-01-01T01:02:18Z</time>
      </trkpt>
      <trkpt lat="45.07615" lon="5.60053">
        <ele>1529</ele>
        <time>2010-01-01T01:02:21Z</time>
      </trkpt>
      <trkpt lat="45.07605" lon="5.60053">
        <ele>1527</ele>
        <time>2010-01-01T01:02:25Z</time>
      </trkpt>
      <trkpt lat="45.07597" lon="5.60053">
        <ele>1526</ele>
        <time>2010-01-01T01:02:28Z</time>
      </trkpt>
      <trkpt lat="45.07591" lon="5.60056">
        <ele>1527</ele>
        <time>2010-01-01T01:02:31Z</time>
      </trkpt>
      <trkpt lat="45.07586" lon="5.60057">
        <ele>1527</ele>
        <time>2010-01-01T01:02:33Z</time>
      </trkpt>
      <trkpt lat="45.07581" lon="5.60054">
        <ele>1525</ele>
        <time>2010-01-01T01:02:35Z</time>
      </trkpt>
      <trkpt lat="45.07576" lon="5.60052">
        <ele>1525</ele>
        <time>2010-01-01T01:02:37Z</time>
      </trkpt>
      <trkpt lat="45.07571" lon="5.60053">
        <ele>1526</ele>
        <time>2010-01-01T01:02:39Z</time>
      </trkpt>
      <trkpt lat="45.07565" lon="5.60057">
        <ele>1529</ele>
        <time>2010-01-01T01:02:42Z</time>
      </trkpt>
      <trkpt lat="45.0756" lon="5.60061">
        <ele>1533</ele>
        <time>2010-01-01T01:02:44Z</time>
      </trkpt>
      <trkpt lat="45.07555" lon="5.60064">
        <ele>1536</ele>
        <time>2010-01-01T01:02:46Z</time>
      </trkpt>
      <trkpt lat="45.07549" lon="5.60063">
        <ele>1536</ele>
        <time>2010-01-01T01:02:49Z</time>
      </trkpt>
      <trkpt lat="45.07542" lon="5.60061">
        <ele>1537</ele>
        <time>2010-01-01T01:02:51Z</time>
      </trkpt>
      <trkpt lat="45.07534" lon="5.60057">
        <ele>1536</ele>
        <time>2010-01-01T01:02:55Z</time>
      </trkpt>
      <trkpt lat="45.07527" lon="5.60054">
        <ele>1536</ele>
        <time>2010-01-01T01:02:58Z</time>
      </trkpt>
      <trkpt lat="45.07518" lon="5.60051">
        <ele>1529</ele>
        <time>2010-01-01T01:03:01Z</time>
      </trkpt>
      <trkpt lat="45.0751" lon="5.6005">
        <ele>1524</ele>
        <time>2010-01-01T01:03:05Z</time>
      </trkpt>
      <trkpt lat="45.07502" lon="5.6005">
        <ele>1520</ele>
        <time>2010-01-01T01:03:08Z</time>
      </trkpt>
      <trkpt lat="45.07494" lon="5.60049">
        <ele>1525</ele>
        <time>2010-01-01T01:03:11Z</time>
      </trkpt>
      <trkpt lat="45.07486" lon="5.60044">
        <ele>1533</ele>
        <time>2010-01-01T01:03:15Z</time>
      </trkpt>
      <trkpt lat="45.07479" lon="5.60039">
        <ele>1538</ele>
        <time>2010-01-01T01:03:18Z</time>
      </trkpt>
      <trkpt lat="45.07473" lon="5.60032">
        <ele>1542</ele>
        <time>2010-01-01T01:03:21Z</time>
      </trkpt>
      <trkpt lat="45.07468" lon="5.60027">
        <ele>1543</ele>
        <time>2010-01-01T01:03:23Z</time>
      </trkpt>
      <trkpt lat="45.07464" lon="5.60023">
        <ele>1544</ele>
        <time>2010-01-01T01:03:25Z</time>
      </trkpt>
      <trkpt lat="45.0746" lon="5.60018">
        <ele>1544</ele>
        <time>2010-01-01T01:03:27Z</time>
      </trkpt>
      <trkpt lat="45.07455" lon="5.60013">
        <ele>1546</ele>
        <time>2010-01-01T01:03:30Z</time>
      </trkpt>
      <trkpt lat="45.07453" lon="5.6001">
        <ele>1546</ele>
        <time>2010-01-01T01:03:31Z</time>
      </trkpt>
      <trkpt lat="45.07451" lon="5.60005">
        <ele>1547</ele>
        <time>2010-01-01T01:03:33Z</time>
      </trkpt>
      <trkpt lat="45.07451" lon="5.59999">
        <ele>1546</ele>
        <time>2010-01-01T01:03:34Z</time>
      </trkpt>
      <trkpt lat="45.0745" lon="5.59995">
        <ele>1547</ele>
        <time>2010-01-01T01:03:35Z</time>
      </trkpt>
      <trkpt lat="45.07451" lon="5.59988">
        <ele>1546</ele>
        <time>2010-01-01T01:03:37Z</time>
      </trkpt>
      <trkpt lat="45.07453" lon="5.59982">
        <ele>1544</ele>
        <time>2010-01-01T01:03:39Z</time>
      </trkpt>
      <trkpt lat="45.07455" lon="5.59979">
        <ele>1543</ele>
        <time>2010-01-01T01:03:41Z</time>
      </trkpt>
      <trkpt lat="45.07456" lon="5.59975">
        <ele>1542</ele>
        <time>2010-01-01T01:03:42Z</time>
      </trkpt>
      <trkpt lat="45.07456" lon="5.59971">
        <ele>1542</ele>
        <time>2010-01-01T01:03:43Z</time>
      </trkpt>
      <trkpt lat="45.07455" lon="5.59967">
        <ele>1542</ele>
        <time>2010-01-01T01:03:44Z</time>
      </trkpt>
      <trkpt lat="45.07453" lon="5.59953">
        <ele>1543</ele>
        <time>2010-01-01T01:03:48Z</time>
      </trkpt>
      <trkpt lat="45.07452" lon="5.59947">
        <ele>1544</ele>
        <time>2010-01-01T01:03:50Z</time>
      </trkpt>
      <trkpt lat="45.07452" lon="5.59938">
        <ele>1544</ele>
        <time>2010-01-01T01:03:52Z</time>
      </trkpt>
      <trkpt lat="45.07454" lon="5.59928">
        <ele>1541</ele>
        <time>2010-01-01T01:03:55Z</time>
      </trkpt>
      <trkpt lat="45.07456" lon="5.59915">
        <ele>1538</ele>
        <time>2010-01-01T01:03:59Z</time>
      </trkpt>
      <trkpt lat="45.07458" lon="5.59903">
        <ele>1535</ele>
        <time>2010-01-01T01:04:03Z</time>
      </trkpt>
      <trkpt lat="45.0746" lon="5.59897">
        <ele>1533</ele>
        <time>2010-01-01T01:04:04Z</time>
      </trkpt>
      <trkpt lat="45.07461" lon="5.59891">
        <ele>1531</ele>
        <time>2010-01-01T01:04:06Z</time>
      </trkpt>
      <trkpt lat="45.07463" lon="5.59885">
        <ele>1529</ele>
        <time>2010-01-01T01:04:08Z</time>
      </trkpt>
      <trkpt lat="45.07465" lon="5.59879">
        <ele>1526</ele>
        <time>2010-01-01T01:04:10Z</time>
      </trkpt>
      <trkpt lat="45.07466" lon="5.59874">
        <ele>1525</ele>
        <time>2010-01-01T01:04:11Z</time>
      </trkpt>
      <trkpt lat="45.07465" lon="5.59869">
        <ele>1525</ele>
        <time>2010-01-01T01:04:13Z</time>
      </trkpt>
      <trkpt lat="45.07462" lon="5.59864">
        <ele>1528</ele>
        <time>2010-01-01T01:04:15Z</time>
      </trkpt>
      <trkpt lat="45.07459" lon="5.59863">
        <ele>1531</ele>
        <time>2010-01-01T01:04:16Z</time>
      </trkpt>
      <trkpt lat="45.07456" lon="5.59859">
        <ele>1533</ele>
        <time>2010-01-01T01:04:18Z</time>
      </trkpt>
      <trkpt lat="45.07454" lon="5.59856">
        <ele>1535</ele>
        <time>2010-01-01T01:04:19Z</time>
      </trkpt>
      <trkpt lat="45.07452" lon="5.59854">
        <ele>1537</ele>
        <time>2010-01-01T01:04:20Z</time>
      </trkpt>
      <trkpt lat="45.0745" lon="5.59853">
        <ele>1539</ele>
        <time>2010-01-01T01:04:21Z</time>
      </trkpt>
      <trkpt lat="45.07446" lon="5.5985">
        <ele>1543</ele>
        <time>2010-01-01T01:04:22Z</time>
      </trkpt>
      <trkpt lat="45.07443" lon="5.59847">
        <ele>1545</ele>
        <time>2010-01-01T01:04:24Z</time>
      </trkpt>
      <trkpt lat="45.07439" lon="5.59841">
        <ele>1548</ele>
        <time>2010-01-01T01:04:26Z</time>
      </trkpt>
      <trkpt lat="45.07433" lon="5.59834">
        <ele>1553</ele>
        <time>2010-01-01T01:04:29Z</time>
      </trkpt>
      <trkpt lat="45.07428" lon="5.59823">
        <ele>1557</ele>
        <time>2010-01-01T01:04:33Z</time>
      </trkpt>
      <trkpt lat="45.07425" lon="5.59814">
        <ele>1559</ele>
        <time>2010-01-01T01:04:36Z</time>
      </trkpt>
      <trkpt lat="45.0742" lon="5.59803">
        <ele>1562</ele>
        <time>2010-01-01T01:04:40Z</time>
      </trkpt>
      <trkpt lat="45.07418" lon="5.59792">
        <ele>1562</ele>
        <time>2010-01-01T01:04:43Z</time>
      </trkpt>
      <trkpt lat="45.07417" lon="5.59783">
        <ele>1562</ele>
        <time>2010-01-01T01:04:45Z</time>
      </trkpt>
      <trkpt lat="45.07417" lon="5.59776">
        <ele>1561</ele>
        <time>2010-01-01T01:04:47Z</time>
      </trkpt>
      <trkpt lat="45.07417" lon="5.59768">
        <ele>1560</ele>
        <time>2010-01-01T01:04:50Z</time>
      </trkpt>
      <trkpt lat="45.07417" lon="5.59759">
        <ele>1558</ele>
        <time>2010-01-01T01:04:52Z</time>
      </trkpt>
      <trkpt lat="45.07416" lon="5.59754">
        <ele>1557</ele>
        <time>2010-01-01T01:04:54Z</time>
      </trkpt>
      <trkpt lat="45.07416" lon="5.5975">
        <ele>1557</ele>
        <time>2010-01-01T01:04:55Z</time>
      </trkpt>
      <trkpt lat="45.07413" lon="5.59744">
        <ele>1556</ele>
        <time>2010-01-01T01:04:57Z</time>
      </trkpt>
      <trkpt lat="45.07406" lon="5.59729">
        <ele>1554</ele>
        <time>2010-01-01T01:05:02Z</time>
      </trkpt>
      <trkpt lat="45.074" lon="5.59718">
        <ele>1551</ele>
        <time>2010-01-01T01:05:06Z</time>
      </trkpt>
      <trkpt lat="45.0739" lon="5.59711">
        <ele>1550</ele>
        <time>2010-01-01T01:05:10Z</time>
      </trkpt>
      <trkpt lat="45.07378" lon="5.59706">
        <ele>1551</ele>
        <time>2010-01-01T01:05:15Z</time>
      </trkpt>
      <trkpt lat="45.07369" lon="5.59704">
        <ele>1552</ele>
        <time>2010-01-01T01:05:19Z</time>
      </trkpt>
      <trkpt lat="45.07368" lon="5.59674">
        <ele>1544</ele>
        <time>2010-01-01T01:05:27Z</time>
      </trkpt>
      <trkpt lat="45.07326" lon="5.59632">
        <ele>1560</ele>
        <time>2010-01-01T01:05:48Z</time>
      </trkpt>
      <trkpt lat="45.07329" lon="5.59564">
        <ele>1552</ele>
        <time>2010-01-01T01:06:07Z</time>
      </trkpt>
      <trkpt lat="45.07331" lon="5.59554">
        <ele>1549</ele>
        <time>2010-01-01T01:06:10Z</time>
      </trkpt>
      <trkpt lat="45.07329" lon="5.59544">
        <ele>1549</ele>
        <time>2010-01-01T01:06:13Z</time>
      </trkpt>
      <trkpt lat="45.07325" lon="5.59537">
        <ele>1550</ele>
        <time>2010-01-01T01:06:16Z</time>
      </trkpt>
      <trkpt lat="45.07321" lon="5.59534">
        <ele>1551</ele>
        <time>2010-01-01T01:06:18Z</time>
      </trkpt>
      <trkpt lat="45.07316" lon="5.5953">
        <ele>1553</ele>
        <time>2010-01-01T01:06:20Z</time>
      </trkpt>
      <trkpt lat="45.07311" lon="5.59525">
        <ele>1554</ele>
        <time>2010-01-01T01:06:22Z</time>
      </trkpt>
      <trkpt lat="45.07302" lon="5.59518">
        <ele>1556</ele>
        <time>2010-01-01T01:06:26Z</time>
      </trkpt>
      <trkpt lat="45.07299" lon="5.59513">
        <ele>1556</ele>
        <time>2010-01-01T01:06:28Z</time>
      </trkpt>
      <trkpt lat="45.0729" lon="5.59501">
        <ele>1557</ele>
        <time>2010-01-01T01:06:33Z</time>
      </trkpt>
      <trkpt lat="45.07285" lon="5.59493">
        <ele>1557</ele>
        <time>2010-01-01T01:06:36Z</time>
      </trkpt>
      <trkpt lat="45.07278" lon="5.59483">
        <ele>1557</ele>
        <time>2010-01-01T01:06:40Z</time>
      </trkpt>
      <trkpt lat="45.07273" lon="5.59475">
        <ele>1557</ele>
        <time>2010-01-01T01:06:43Z</time>
      </trkpt>
      <trkpt lat="45.07267" lon="5.59462">
        <ele>1555</ele>
        <time>2010-01-01T01:06:48Z</time>
      </trkpt>
      <trkpt lat="45.0726" lon="5.5945">
        <ele>1554</ele>
        <time>2010-01-01T01:06:52Z</time>
      </trkpt>
      <trkpt lat="45.07253" lon="5.59437">
        <ele>1553</ele>
        <time>2010-01-01T01:06:57Z</time>
      </trkpt>
      <trkpt lat="45.07244" lon="5.5942">
        <ele>1551</ele>
        <time>2010-01-01T01:07:03Z</time>
      </trkpt>
      <trkpt lat="45.07232" lon="5.59395">
        <ele>1547</ele>
        <time>2010-01-01T01:07:11Z</time>
      </trkpt>
      <trkpt lat="45.07219" lon="5.59373">
        <ele>1544</ele>
        <time>2010-01-01T01:07:19Z</time>
      </trkpt>
      <trkpt lat="45.07213" lon="5.59362">
        <ele>1539</ele>
        <time>2010-01-01T01:07:23Z</time>
      </trkpt>
      <trkpt lat="45.07209" lon="5.59359">
        <ele>1536</ele>
        <time>2010-01-01T01:07:25Z</time>
      </trkpt>
      <trkpt lat="45.07205" lon="5.59358">
        <ele>1533</ele>
        <time>2010-01-01T01:07:27Z</time>
      </trkpt>
      <trkpt lat="45.07202" lon="5.59358">
        <ele>1532</ele>
        <time>2010-01-01T01:07:28Z</time>
      </trkpt>
      <trkpt lat="45.07198" lon="5.59361">
        <ele>1533</ele>
        <time>2010-01-01T01:07:30Z</time>
      </trkpt>
      <trkpt lat="45.07194" lon="5.59365">
        <ele>1534</ele>
        <time>2010-01-01T01:07:32Z</time>
      </trkpt>
      <trkpt lat="45.07187" lon="5.59373">
        <ele>1538</ele>
        <time>2010-01-01T01:07:35Z</time>
      </trkpt>
      <trkpt lat="45.07181" lon="5.59379">
        <ele>1540</ele>
        <time>2010-01-01T01:07:38Z</time>
      </trkpt>
      <trkpt lat="45.07176" lon="5.59382">
        <ele>1539</ele>
        <time>2010-01-01T01:07:40Z</time>
      </trkpt>
      <trkpt lat="45.07173" lon="5.59383">
        <ele>1538</ele>
        <time>2010-01-01T01:07:42Z</time>
      </trkpt>
      <trkpt lat="45.07176" lon="5.59377">
        <ele>1536</ele>
        <time>2010-01-01T01:07:44Z</time>
      </trkpt>
      <trkpt lat="45.07179" lon="5.59373">
        <ele>1534</ele>
        <time>2010-01-01T01:07:45Z</time>
      </trkpt>
      <trkpt lat="45.0718" lon="5.5937">
        <ele>1533</ele>
        <time>2010-01-01T01:07:46Z</time>
      </trkpt>
      <trkpt lat="45.07181" lon="5.59369">
        <ele>1533</ele>
        <time>2010-01-01T01:07:47Z</time>
      </trkpt>
      <trkpt lat="45.07181" lon="5.59367">
        <ele>1531</ele>
        <time>2010-01-01T01:07:47Z</time>
      </trkpt>
      <trkpt lat="45.07179" lon="5.59367">
        <ele>1530</ele>
        <time>2010-01-01T01:07:48Z</time>
      </trkpt>
      <trkpt lat="45.07176" lon="5.5937">
        <ele>1531</ele>
        <time>2010-01-01T01:07:50Z</time>
      </trkpt>
      <trkpt lat="45.07171" lon="5.59374">
        <ele>1532</ele>
        <time>2010-01-01T01:07:52Z</time>
      </trkpt>
      <trkpt lat="45.07164" lon="5.59379">
        <ele>1532</ele>
        <time>2010-01-01T01:07:55Z</time>
      </trkpt>
      <trkpt lat="45.07155" lon="5.59385">
        <ele>1534</ele>
        <time>2010-01-01T01:07:59Z</time>
      </trkpt>
      <trkpt lat="45.07146" lon="5.59393">
        <ele>1536</ele>
        <time>2010-01-01T01:08:03Z</time>
      </trkpt>
      <trkpt lat="45.07135" lon="5.59399">
        <ele>1538</ele>
        <time>2010-01-01T01:08:08Z</time>
      </trkpt>
      <trkpt lat="45.07118" lon="5.59407">
        <ele>1540</ele>
        <time>2010-01-01T01:08:15Z</time>
      </trkpt>
      <trkpt lat="45.07111" lon="5.59408">
        <ele>1539</ele>
        <time>2010-01-01T01:08:18Z</time>
      </trkpt>
      <trkpt lat="45.07107" lon="5.59408">
        <ele>1538</ele>
        <time>2010-01-01T01:08:20Z</time>
      </trkpt>
      <trkpt lat="45.07104" lon="5.59408">
        <ele>1538</ele>
        <time>2010-01-01T01:08:21Z</time>
      </trkpt>
      <trkpt lat="45.07104" lon="5.59402">
        <ele>1535</ele>
        <time>2010-01-01T01:08:22Z</time>
      </trkpt>
      <trkpt lat="45.07104" lon="5.59395">
        <ele>1533</ele>
        <time>2010-01-01T01:08:24Z</time>
      </trkpt>
      <trkpt lat="45.07104" lon="5.59402">
        <ele>1535</ele>
        <time>2010-01-01T01:08:26Z</time>
      </trkpt>
      <trkpt lat="45.07104" lon="5.59408">
        <ele>1538</ele>
        <time>2010-01-01T01:08:28Z</time>
      </trkpt>
      <trkpt lat="45.07103" lon="5.59408">
        <ele>1537</ele>
        <time>2010-01-01T01:08:28Z</time>
      </trkpt>
      <trkpt lat="45.07101" lon="5.59408">
        <ele>1537</ele>
        <time>2010-01-01T01:08:29Z</time>
      </trkpt>
      <trkpt lat="45.07097" lon="5.59407">
        <ele>1536</ele>
        <time>2010-01-01T01:08:31Z</time>
      </trkpt>
      <trkpt lat="45.07092" lon="5.59406">
        <ele>1535</ele>
        <time>2010-01-01T01:08:33Z</time>
      </trkpt>
      <trkpt lat="45.07088" lon="5.59406">
        <ele>1534</ele>
        <time>2010-01-01T01:08:35Z</time>
      </trkpt>
      <trkpt lat="45.07084" lon="5.59406">
        <ele>1533</ele>
        <time>2010-01-01T01:08:36Z</time>
      </trkpt>
      <trkpt lat="45.0708" lon="5.59407">
        <ele>1533</ele>
        <time>2010-01-01T01:08:38Z</time>
      </trkpt>
      <trkpt lat="45.07078" lon="5.59408">
        <ele>1533</ele>
        <time>2010-01-01T01:08:39Z</time>
      </trkpt>
      <trkpt lat="45.07073" lon="5.59409">
        <ele>1533</ele>
        <time>2010-01-01T01:08:41Z</time>
      </trkpt>
      <trkpt lat="45.0707" lon="5.5941">
        <ele>1534</ele>
        <time>2010-01-01T01:08:42Z</time>
      </trkpt>
      <trkpt lat="45.07067" lon="5.5941">
        <ele>1533</ele>
        <time>2010-01-01T01:08:43Z</time>
      </trkpt>
      <trkpt lat="45.07064" lon="5.59409">
        <ele>1533</ele>
        <time>2010-01-01T01:08:44Z</time>
      </trkpt>
      <trkpt lat="45.07062" lon="5.59406">
        <ele>1532</ele>
        <time>2010-01-01T01:08:45Z</time>
      </trkpt>
      <trkpt lat="45.0706" lon="5.59403">
        <ele>1531</ele>
        <time>2010-01-01T01:08:47Z</time>
      </trkpt>
      <trkpt lat="45.0706" lon="5.59398">
        <ele>1530</ele>
        <time>2010-01-01T01:08:48Z</time>
      </trkpt>
      <trkpt lat="45.0706" lon="5.59392">
        <ele>1528</ele>
        <time>2010-01-01T01:08:50Z</time>
      </trkpt>
      <trkpt lat="45.07062" lon="5.59378">
        <ele>1526</ele>
        <time>2010-01-01T01:08:54Z</time>
      </trkpt>
      <trkpt lat="45.07065" lon="5.59362">
        <ele>1525</ele>
        <time>2010-01-01T01:08:58Z</time>
      </trkpt>
      <trkpt lat="45.07066" lon="5.59349">
        <ele>1521</ele>
        <time>2010-01-01T01:09:02Z</time>
      </trkpt>
      <trkpt lat="45.07067" lon="5.59345">
        <ele>1520</ele>
        <time>2010-01-01T01:09:03Z</time>
      </trkpt>
      <trkpt lat="45.07067" lon="5.59342">
        <ele>1519</ele>
        <time>2010-01-01T01:09:04Z</time>
      </trkpt>
      <trkpt lat="45.07066" lon="5.59335">
        <ele>1518</ele>
        <time>2010-01-01T01:09:06Z</time>
      </trkpt>
      <trkpt lat="45.07065" lon="5.59327">
        <ele>1517</ele>
        <time>2010-01-01T01:09:09Z</time>
      </trkpt>
      <trkpt lat="45.07063" lon="5.59321">
        <ele>1517</ele>
        <time>2010-01-01T01:09:10Z</time>
      </trkpt>
      <trkpt lat="45.07062" lon="5.59318">
        <ele>1517</ele>
        <time>2010-01-01T01:09:11Z</time>
      </trkpt>
      <trkpt lat="45.07061" lon="5.59315">
        <ele>1518</ele>
        <time>2010-01-01T01:09:12Z</time>
      </trkpt>
      <trkpt lat="45.0706" lon="5.59311">
        <ele>1518</ele>
        <time>2010-01-01T01:09:13Z</time>
      </trkpt>
      <trkpt lat="45.0706" lon="5.59307">
        <ele>1517</ele>
        <time>2010-01-01T01:09:15Z</time>
      </trkpt>
      <trkpt lat="45.0706" lon="5.59304">
        <ele>1517</ele>
        <time>2010-01-01T01:09:15Z</time>
      </trkpt>
      <trkpt lat="45.07061" lon="5.593">
        <ele>1516</ele>
        <time>2010-01-01T01:09:17Z</time>
      </trkpt>
      <trkpt lat="45.07062" lon="5.59297">
        <ele>1516</ele>
        <time>2010-01-01T01:09:18Z</time>
      </trkpt>
      <trkpt lat="45.07062" lon="5.59295">
        <ele>1515</ele>
        <time>2010-01-01T01:09:18Z</time>
      </trkpt>
      <trkpt lat="45.07061" lon="5.59292">
        <ele>1516</ele>
        <time>2010-01-01T01:09:19Z</time>
      </trkpt>
      <trkpt lat="45.0706" lon="5.5929">
        <ele>1517</ele>
        <time>2010-01-01T01:09:20Z</time>
      </trkpt>
      <trkpt lat="45.07059" lon="5.59287">
        <ele>1517</ele>
        <time>2010-01-01T01:09:21Z</time>
      </trkpt>
      <trkpt lat="45.07058" lon="5.59283">
        <ele>1517</ele>
        <time>2010-01-01T01:09:22Z</time>
      </trkpt>
      <trkpt lat="45.07057" lon="5.59279">
        <ele>1518</ele>
        <time>2010-01-01T01:09:23Z</time>
      </trkpt>
      <trkpt lat="45.07057" lon="5.59271">
        <ele>1518</ele>
        <time>2010-01-01T01:09:25Z</time>
      </trkpt>
      <trkpt lat="45.07059" lon="5.59249">
        <ele>1517</ele>
        <time>2010-01-01T01:09:32Z</time>
      </trkpt>
      <trkpt lat="45.0706" lon="5.59235">
        <ele>1518</ele>
        <time>2010-01-01T01:09:36Z</time>
      </trkpt>
      <trkpt lat="45.07061" lon="5.59227">
        <ele>1517</ele>
        <time>2010-01-01T01:09:38Z</time>
      </trkpt>
      <trkpt lat="45.07062" lon="5.59219">
        <ele>1517</ele>
        <time>2010-01-01T01:09:40Z</time>
      </trkpt>
      <trkpt lat="45.07064" lon="5.59213">
        <ele>1516</ele>
        <time>2010-01-01T01:09:42Z</time>
      </trkpt>
      <trkpt lat="45.07064" lon="5.5921">
        <ele>1516</ele>
        <time>2010-01-01T01:09:43Z</time>
      </trkpt>
      <trkpt lat="45.07064" lon="5.59207">
        <ele>1516</ele>
        <time>2010-01-01T01:09:44Z</time>
      </trkpt>
      <trkpt lat="45.07066" lon="5.59202">
        <ele>1515</ele>
        <time>2010-01-01T01:09:45Z</time>
      </trkpt>
      <trkpt lat="45.07068" lon="5.59198">
        <ele>1513</ele>
        <time>2010-01-01T01:09:47Z</time>
      </trkpt>
      <trkpt lat="45.07069" lon="5.59194">
        <ele>1513</ele>
        <time>2010-01-01T01:09:48Z</time>
      </trkpt>
      <trkpt lat="45.07069" lon="5.59189">
        <ele>1512</ele>
        <time>2010-01-01T01:09:49Z</time>
      </trkpt>
      <trkpt lat="45.07069" lon="5.59183">
        <ele>1511</ele>
        <time>2010-01-01T01:09:51Z</time>
      </trkpt>
      <trkpt lat="45.07069" lon="5.59179">
        <ele>1511</ele>
        <time>2010-01-01T01:09:52Z</time>
      </trkpt>
      <trkpt lat="45.07069" lon="5.59173">
        <ele>1510</ele>
        <time>2010-01-01T01:09:54Z</time>
      </trkpt>
      <trkpt lat="45.0707" lon="5.59167">
        <ele>1508</ele>
        <time>2010-01-01T01:09:56Z</time>
      </trkpt>
      <trkpt lat="45.07069" lon="5.5916">
        <ele>1507</ele>
        <time>2010-01-01T01:09:58Z</time>
      </trkpt>
      <trkpt lat="45.07069" lon="5.59155">
        <ele>1506</ele>
        <time>2010-01-01T01:09:59Z</time>
      </trkpt>
      <trkpt lat="45.07067" lon="5.59147">
        <ele>1506</ele>
        <time>2010-01-01T01:10:02Z</time>
      </trkpt>
      <trkpt lat="45.07065" lon="5.5914">
        <ele>1506</ele>
        <time>2010-01-01T01:10:04Z</time>
      </trkpt>
      <trkpt lat="45.07064" lon="5.59133">
        <ele>1506</ele>
        <time>2010-01-01T01:10:06Z</time>
      </trkpt>
      <trkpt lat="45.07062" lon="5.59118">
        <ele>1506</ele>
        <time>2010-01-01T01:10:10Z</time>
      </trkpt>
      <trkpt lat="45.07061" lon="5.59106">
        <ele>1506</ele>
        <time>2010-01-01T01:10:13Z</time>
      </trkpt>
      <trkpt lat="45.07059" lon="5.59096">
        <ele>1505</ele>
        <time>2010-01-01T01:10:16Z</time>
      </trkpt>
      <trkpt lat="45.07058" lon="5.59088">
        <ele>1504</ele>
        <time>2010-01-01T01:10:19Z</time>
      </trkpt>
      <trkpt lat="45.07056" lon="5.59083">
        <ele>1504</ele>
        <time>2010-01-01T01:10:20Z</time>
      </trkpt>
      <trkpt lat="45.07054" lon="5.59079">
        <ele>1504</ele>
        <time>2010-01-01T01:10:22Z</time>
      </trkpt>
      <trkpt lat="45.0705" lon="5.59074">
        <ele>1505</ele>
        <time>2010-01-01T01:10:24Z</time>
      </trkpt>
      <trkpt lat="45.07045" lon="5.59069">
        <ele>1505</ele>
        <time>2010-01-01T01:10:26Z</time>
      </trkpt>
      <trkpt lat="45.07039" lon="5.59065">
        <ele>1506</ele>
        <time>2010-01-01T01:10:29Z</time>
      </trkpt>
      <trkpt lat="45.07029" lon="5.59061">
        <ele>1508</ele>
        <time>2010-01-01T01:10:33Z</time>
      </trkpt>
      <trkpt lat="45.07011" lon="5.59055">
        <ele>1512</ele>
        <time>2010-01-01T01:10:40Z</time>
      </trkpt>
      <trkpt lat="45.06988" lon="5.59049">
        <ele>1514</ele>
        <time>2010-01-01T01:10:50Z</time>
      </trkpt>
      <trkpt lat="45.06969" lon="5.59043">
        <ele>1513</ele>
        <time>2010-01-01T01:10:58Z</time>
      </trkpt>
      <trkpt lat="45.06942" lon="5.59034">
        <ele>1509</ele>
        <time>2010-01-01T01:11:09Z</time>
      </trkpt>
      <trkpt lat="45.06914" lon="5.59024">
        <ele>1507</ele>
        <time>2010-01-01T01:11:20Z</time>
      </trkpt>
      <trkpt lat="45.06881" lon="5.59011">
        <ele>1505</ele>
        <time>2010-01-01T01:11:34Z</time>
      </trkpt>
      <trkpt lat="45.0686" lon="5.59">
        <ele>1503</ele>
        <time>2010-01-01T01:11:43Z</time>
      </trkpt>
      <trkpt lat="45.06838" lon="5.5899">
        <ele>1506</ele>
        <time>2010-01-01T01:11:52Z</time>
      </trkpt>
      <trkpt lat="45.06828" lon="5.58982">
        <ele>1508</ele>
        <time>2010-01-01T01:11:57Z</time>
      </trkpt>
      <trkpt lat="45.06822" lon="5.58978">
        <ele>1510</ele>
        <time>2010-01-01T01:11:59Z</time>
      </trkpt>
      <trkpt lat="45.06817" lon="5.58975">
        <ele>1512</ele>
        <time>2010-01-01T01:12:02Z</time>
      </trkpt>
      <trkpt lat="45.06813" lon="5.58971">
        <ele>1513</ele>
        <time>2010-01-01T01:12:04Z</time>
      </trkpt>
      <trkpt lat="45.06811" lon="5.58967">
        <ele>1514</ele>
        <time>2010-01-01T01:12:05Z</time>
      </trkpt>
      <trkpt lat="45.0681" lon="5.58962">
        <ele>1514</ele>
        <time>2010-01-01T01:12:06Z</time>
      </trkpt>
      <trkpt lat="45.0681" lon="5.58956">
        <ele>1513</ele>
        <time>2010-01-01T01:12:08Z</time>
      </trkpt>
      <trkpt lat="45.06799" lon="5.58905">
        <ele>1516</ele>
        <time>2010-01-01T01:12:23Z</time>
      </trkpt>
      <trkpt lat="45.06789" lon="5.58862">
        <ele>1513</ele>
        <time>2010-01-01T01:12:36Z</time>
      </trkpt>
      <trkpt lat="45.06764" lon="5.58822">
        <ele>1516</ele>
        <time>2010-01-01T01:12:51Z</time>
      </trkpt>
      <trkpt lat="45.06761" lon="5.58806">
        <ele>1512</ele>
        <time>2010-01-01T01:12:56Z</time>
      </trkpt>
      <trkpt lat="45.06751" lon="5.58757">
        <ele>1510</ele>
        <time>2010-01-01T01:13:10Z</time>
      </trkpt>
      <trkpt lat="45.06739" lon="5.58706">
        <ele>1507</ele>
        <time>2010-01-01T01:13:25Z</time>
      </trkpt>
      <trkpt lat="45.06695" lon="5.58624">
        <ele>1514</ele>
        <time>2010-01-01T01:13:55Z</time>
      </trkpt>
      <trkpt lat="45.06647" lon="5.58553">
        <ele>1507</ele>
        <time>2010-01-01T01:14:22Z</time>
      </trkpt>
      <trkpt lat="45.06635" lon="5.58531">
        <ele>1504</ele>
        <time>2010-01-01T01:14:30Z</time>
      </trkpt>
      <trkpt lat="45.06626" lon="5.58517">
        <ele>1502</ele>
        <time>2010-01-01T01:14:36Z</time>
      </trkpt>
      <trkpt lat="45.06615" lon="5.58504">
        <ele>1501</ele>
        <time>2010-01-01T01:14:41Z</time>
      </trkpt>
      <trkpt lat="45.06604" lon="5.58494">
        <ele>1500</ele>
        <time>2010-01-01T01:14:46Z</time>
      </trkpt>
      <trkpt lat="45.06588" lon="5.5848">
        <ele>1497</ele>
        <time>2010-01-01T01:14:54Z</time>
      </trkpt>
      <trkpt lat="45.0657" lon="5.58471">
        <ele>1497</ele>
        <time>2010-01-01T01:15:02Z</time>
      </trkpt>
      <trkpt lat="45.06546" lon="5.58461">
        <ele>1496</ele>
        <time>2010-01-01T01:15:12Z</time>
      </trkpt>
      <trkpt lat="45.0652" lon="5.58453">
        <ele>1495</ele>
        <time>2010-01-01T01:15:22Z</time>
      </trkpt>
      <trkpt lat="45.06497" lon="5.58443">
        <ele>1494</ele>
        <time>2010-01-01T01:15:32Z</time>
      </trkpt>
      <trkpt lat="45.0647" lon="5.58434">
        <ele>1495</ele>
        <time>2010-01-01T01:15:43Z</time>
      </trkpt>
      <trkpt lat="45.06448" lon="5.58426">
        <ele>1494</ele>
        <time>2010-01-01T01:15:52Z</time>
      </trkpt>
      <trkpt lat="45.06433" lon="5.58421">
        <ele>1493</ele>
        <time>2010-01-01T01:15:58Z</time>
      </trkpt>
      <trkpt lat="45.06423" lon="5.58418">
        <ele>1492</ele>
        <time>2010-01-01T01:16:02Z</time>
      </trkpt>
      <trkpt lat="45.06417" lon="5.58417">
        <ele>1492</ele>
        <time>2010-01-01T01:16:05Z</time>
      </trkpt>
      <trkpt lat="45.06412" lon="5.58416">
        <ele>1490</ele>
        <time>2010-01-01T01:16:07Z</time>
      </trkpt>
      <trkpt lat="45.06407" lon="5.58415">
        <ele>1489</ele>
        <time>2010-01-01T01:16:09Z</time>
      </trkpt>
      <trkpt lat="45.06404" lon="5.58415">
        <ele>1488</ele>
        <time>2010-01-01T01:16:10Z</time>
      </trkpt>
      <trkpt lat="45.064" lon="5.58416">
        <ele>1487</ele>
        <time>2010-01-01T01:16:12Z</time>
      </trkpt>
      <trkpt lat="45.06395" lon="5.58416">
        <ele>1486</ele>
        <time>2010-01-01T01:16:14Z</time>
      </trkpt>
      <trkpt lat="45.06385" lon="5.58414">
        <ele>1483</ele>
        <time>2010-01-01T01:16:18Z</time>
      </trkpt>
      <trkpt lat="45.06382" lon="5.58414">
        <ele>1482</ele>
        <time>2010-01-01T01:16:19Z</time>
      </trkpt>
      <trkpt lat="45.06378" lon="5.58415">
        <ele>1481</ele>
        <time>2010-01-01T01:16:21Z</time>
      </trkpt>
      <trkpt lat="45.06377" lon="5.58418">
        <ele>1482</ele>
        <time>2010-01-01T01:16:22Z</time>
      </trkpt>
      <trkpt lat="45.06375" lon="5.58411">
        <ele>1480</ele>
        <time>2010-01-01T01:16:24Z</time>
      </trkpt>
      <trkpt lat="45.06374" lon="5.58409">
        <ele>1479</ele>
        <time>2010-01-01T01:16:24Z</time>
      </trkpt>
      <trkpt lat="45.06372" lon="5.58401">
        <ele>1477</ele>
        <time>2010-01-01T01:16:27Z</time>
      </trkpt>
      <trkpt lat="45.06369" lon="5.58386">
        <ele>1472</ele>
        <time>2010-01-01T01:16:31Z</time>
      </trkpt>
      <trkpt lat="45.06369" lon="5.58379">
        <ele>1471</ele>
        <time>2010-01-01T01:16:33Z</time>
      </trkpt>
      <trkpt lat="45.06368" lon="5.58373">
        <ele>1469</ele>
        <time>2010-01-01T01:16:35Z</time>
      </trkpt>
      <trkpt lat="45.06362" lon="5.58365">
        <ele>1466</ele>
        <time>2010-01-01T01:16:38Z</time>
      </trkpt>
      <trkpt lat="45.06359" lon="5.58361">
        <ele>1464</ele>
        <time>2010-01-01T01:16:40Z</time>
      </trkpt>
      <trkpt lat="45.06356" lon="5.58357">
        <ele>1462</ele>
        <time>2010-01-01T01:16:41Z</time>
      </trkpt>
      <trkpt lat="45.06357" lon="5.58352">
        <ele>1461</ele>
        <time>2010-01-01T01:16:43Z</time>
      </trkpt>
      <trkpt lat="45.06357" lon="5.58347">
        <ele>1460</ele>
        <time>2010-01-01T01:16:44Z</time>
      </trkpt>
      <trkpt lat="45.06356" lon="5.58343">
        <ele>1459</ele>
        <time>2010-01-01T01:16:46Z</time>
      </trkpt>
      <trkpt lat="45.06354" lon="5.58341">
        <ele>1458</ele>
        <time>2010-01-01T01:16:47Z</time>
      </trkpt>
      <trkpt lat="45.06354" lon="5.5834">
        <ele>1458</ele>
        <time>2010-01-01T01:16:47Z</time>
      </trkpt>
      <trkpt lat="45.06354" lon="5.58337">
        <ele>1457</ele>
        <time>2010-01-01T01:16:48Z</time>
      </trkpt>
      <trkpt lat="45.06354" lon="5.58332">
        <ele>1456</ele>
        <time>2010-01-01T01:16:49Z</time>
      </trkpt>
      <trkpt lat="45.06353" lon="5.58325">
        <ele>1455</ele>
        <time>2010-01-01T01:16:51Z</time>
      </trkpt>
      <trkpt lat="45.06352" lon="5.58314">
        <ele>1453</ele>
        <time>2010-01-01T01:16:54Z</time>
      </trkpt>
      <trkpt lat="45.06351" lon="5.58302">
        <ele>1450</ele>
        <time>2010-01-01T01:16:58Z</time>
      </trkpt>
      <trkpt lat="45.0635" lon="5.58296">
        <ele>1449</ele>
        <time>2010-01-01T01:16:59Z</time>
      </trkpt>
      <trkpt lat="45.06349" lon="5.58291">
        <ele>1447</ele>
        <time>2010-01-01T01:17:01Z</time>
      </trkpt>
      <trkpt lat="45.06346" lon="5.58281">
        <ele>1444</ele>
        <time>2010-01-01T01:17:04Z</time>
      </trkpt>
      <trkpt lat="45.06344" lon="5.58267">
        <ele>1439</ele>
        <time>2010-01-01T01:17:08Z</time>
      </trkpt>
      <trkpt lat="45.06341" lon="5.58244">
        <ele>1433</ele>
        <time>2010-01-01T01:17:15Z</time>
      </trkpt>
      <trkpt lat="45.0634" lon="5.58231">
        <ele>1430</ele>
        <time>2010-01-01T01:17:18Z</time>
      </trkpt>
      <trkpt lat="45.06341" lon="5.58217">
        <ele>1428</ele>
        <time>2010-01-01T01:17:22Z</time>
      </trkpt>
      <trkpt lat="45.06342" lon="5.58211">
        <ele>1427</ele>
        <time>2010-01-01T01:17:24Z</time>
      </trkpt>
      <trkpt lat="45.06343" lon="5.58206">
        <ele>1426</ele>
        <time>2010-01-01T01:17:25Z</time>
      </trkpt>
      <trkpt lat="45.06343" lon="5.58202">
        <ele>1426</ele>
        <time>2010-01-01T01:17:27Z</time>
      </trkpt>
      <trkpt lat="45.06341" lon="5.58195">
        <ele>1424</ele>
        <time>2010-01-01T01:17:29Z</time>
      </trkpt>
      <trkpt lat="45.0634" lon="5.58184">
        <ele>1421</ele>
        <time>2010-01-01T01:17:32Z</time>
      </trkpt>
      <trkpt lat="45.06337" lon="5.58174">
        <ele>1417</ele>
        <time>2010-01-01T01:17:35Z</time>
      </trkpt>
      <trkpt lat="45.06337" lon="5.58171">
        <ele>1416</ele>
        <time>2010-01-01T01:17:36Z</time>
      </trkpt>
      <trkpt lat="45.06337" lon="5.58168">
        <ele>1415</ele>
        <time>2010-01-01T01:17:37Z</time>
      </trkpt>
      <trkpt lat="45.06338" lon="5.58167">
        <ele>1415</ele>
        <time>2010-01-01T01:17:37Z</time>
      </trkpt>
      <trkpt lat="45.06337" lon="5.58164">
        <ele>1413</ele>
        <time>2010-01-01T01:17:38Z</time>
      </trkpt>
      <trkpt lat="45.06335" lon="5.58157">
        <ele>1410</ele>
        <time>2010-01-01T01:17:40Z</time>
      </trkpt>
      <trkpt lat="45.06337" lon="5.58149">
        <ele>1407</ele>
        <time>2010-01-01T01:17:43Z</time>
      </trkpt>
      <trkpt lat="45.06338" lon="5.58146">
        <ele>1406</ele>
        <time>2010-01-01T01:17:44Z</time>
      </trkpt>
      <trkpt lat="45.06337" lon="5.58143">
        <ele>1405</ele>
        <time>2010-01-01T01:17:44Z</time>
      </trkpt>
      <trkpt lat="45.06336" lon="5.58141">
        <ele>1404</ele>
        <time>2010-01-01T01:17:45Z</time>
      </trkpt>
      <trkpt lat="45.06335" lon="5.58139">
        <ele>1403</ele>
        <time>2010-01-01T01:17:46Z</time>
      </trkpt>
      <trkpt lat="45.06333" lon="5.58129">
        <ele>1399</ele>
        <time>2010-01-01T01:17:49Z</time>
      </trkpt>
      <trkpt lat="45.0633" lon="5.58116">
        <ele>1393</ele>
        <time>2010-01-01T01:17:53Z</time>
      </trkpt>
      <trkpt lat="45.06328" lon="5.58105">
        <ele>1389</ele>
        <time>2010-01-01T01:17:56Z</time>
      </trkpt>
      <trkpt lat="45.06328" lon="5.58098">
        <ele>1387</ele>
        <time>2010-01-01T01:17:58Z</time>
      </trkpt>
      <trkpt lat="45.06327" lon="5.58096">
        <ele>1386</ele>
        <time>2010-01-01T01:17:59Z</time>
      </trkpt>
      <trkpt lat="45.06326" lon="5.58094">
        <ele>1385</ele>
        <time>2010-01-01T01:17:59Z</time>
      </trkpt>
      <trkpt lat="45.06325" lon="5.58091">
        <ele>1384</ele>
        <time>2010-01-01T01:18:00Z</time>
      </trkpt>
      <trkpt lat="45.06327" lon="5.58084">
        <ele>1382</ele>
        <time>2010-01-01T01:18:02Z</time>
      </trkpt>
      <trkpt lat="45.06327" lon="5.58078">
        <ele>1381</ele>
        <time>2010-01-01T01:18:04Z</time>
      </trkpt>
      <trkpt lat="45.06327" lon="5.58072">
        <ele>1379</ele>
        <time>2010-01-01T01:18:06Z</time>
      </trkpt>
      <trkpt lat="45.06327" lon="5.58066">
        <ele>1377</ele>
        <time>2010-01-01T01:18:07Z</time>
      </trkpt>
      <trkpt lat="45.06326" lon="5.58059">
        <ele>1375</ele>
        <time>2010-01-01T01:18:09Z</time>
      </trkpt>
      <trkpt lat="45.06326" lon="5.58052">
        <ele>1373</ele>
        <time>2010-01-01T01:18:11Z</time>
      </trkpt>
      <trkpt lat="45.06309" lon="5.57959">
        <ele>1349</ele>
        <time>2010-01-01T01:18:39Z</time>
      </trkpt>
      <trkpt lat="45.06319" lon="5.5786">
        <ele>1323</ele>
        <time>2010-01-01T01:19:07Z</time>
      </trkpt>
      <trkpt lat="45.06334" lon="5.57815">
        <ele>1310</ele>
        <time>2010-01-01T01:19:21Z</time>
      </trkpt>
      <trkpt lat="45.06346" lon="5.57806">
        <ele>1308</ele>
        <time>2010-01-01T01:19:26Z</time>
      </trkpt>
      <trkpt lat="45.06346" lon="5.57788">
        <ele>1303</ele>
        <time>2010-01-01T01:19:31Z</time>
      </trkpt>
      <trkpt lat="45.06346" lon="5.57762">
        <ele>1296</ele>
        <time>2010-01-01T01:19:39Z</time>
      </trkpt>
      <trkpt lat="45.06345" lon="5.57749">
        <ele>1293</ele>
        <time>2010-01-01T01:19:42Z</time>
      </trkpt>
      <trkpt lat="45.06329" lon="5.57746">
        <ele>1290</ele>
        <time>2010-01-01T01:19:49Z</time>
      </trkpt>
      <trkpt lat="45.0632" lon="5.57737">
        <ele>1287</ele>
        <time>2010-01-01T01:19:53Z</time>
      </trkpt>
      <trkpt lat="45.06329" lon="5.5771">
        <ele>1283</ele>
        <time>2010-01-01T01:20:02Z</time>
      </trkpt>
      <trkpt lat="45.06346" lon="5.57695">
        <ele>1283</ele>
        <time>2010-01-01T01:20:10Z</time>
      </trkpt>
      <trkpt lat="45.06357" lon="5.57661">
        <ele>1278</ele>
        <time>2010-01-01T01:20:20Z</time>
      </trkpt>
      <trkpt lat="45.06344" lon="5.57668">
        <ele>1278</ele>
        <time>2010-01-01T01:20:26Z</time>
      </trkpt>
      <trkpt lat="45.06342" lon="5.57669">
        <ele>1278</ele>
        <time>2010-01-01T01:20:27Z</time>
      </trkpt>
      <trkpt lat="45.06322" lon="5.57681">
        <ele>1279</ele>
        <time>2010-01-01T01:20:36Z</time>
      </trkpt>
      <trkpt lat="45.06304" lon="5.57694">
        <ele>1279</ele>
        <time>2010-01-01T01:20:44Z</time>
      </trkpt>
      <trkpt lat="45.0629" lon="5.57704">
        <ele>1281</ele>
        <time>2010-01-01T01:20:50Z</time>
      </trkpt>
      <trkpt lat="45.06288" lon="5.57706">
        <ele>1281</ele>
        <time>2010-01-01T01:20:51Z</time>
      </trkpt>
      <trkpt lat="45.06262" lon="5.57726">
        <ele>1283</ele>
        <time>2010-01-01T01:21:03Z</time>
      </trkpt>
      <trkpt lat="45.06241" lon="5.57738">
        <ele>1284</ele>
        <time>2010-01-01T01:21:12Z</time>
      </trkpt>
      <trkpt lat="45.0623" lon="5.57744">
        <ele>1284</ele>
        <time>2010-01-01T01:21:16Z</time>
      </trkpt>
      <trkpt lat="45.06224" lon="5.57749">
        <ele>1284</ele>
        <time>2010-01-01T01:21:19Z</time>
      </trkpt>
      <trkpt lat="45.06223" lon="5.57752">
        <ele>1285</ele>
        <time>2010-01-01T01:21:20Z</time>
      </trkpt>
      <trkpt lat="45.06221" lon="5.5774">
        <ele>1284</ele>
        <time>2010-01-01T01:21:24Z</time>
      </trkpt>
      <trkpt lat="45.06221" lon="5.57738">
        <ele>1284</ele>
        <time>2010-01-01T01:21:24Z</time>
      </trkpt>
      <trkpt lat="45.0622" lon="5.57729">
        <ele>1283</ele>
        <time>2010-01-01T01:21:27Z</time>
      </trkpt>
      <trkpt lat="45.06219" lon="5.57706">
        <ele>1281</ele>
        <time>2010-01-01T01:21:33Z</time>
      </trkpt>
      <trkpt lat="45.06218" lon="5.57685">
        <ele>1280</ele>
        <time>2010-01-01T01:21:39Z</time>
      </trkpt>
      <trkpt lat="45.06222" lon="5.57655">
        <ele>1280</ele>
        <time>2010-01-01T01:21:48Z</time>
      </trkpt>
      <trkpt lat="45.06228" lon="5.57629">
        <ele>1279</ele>
        <time>2010-01-01T01:21:56Z</time>
      </trkpt>
      <trkpt lat="45.06236" lon="5.57597">
        <ele>1277</ele>
        <time>2010-01-01T01:22:05Z</time>
      </trkpt>
      <trkpt lat="45.06242" lon="5.57575">
        <ele>1276</ele>
        <time>2010-01-01T01:22:12Z</time>
      </trkpt>
      <trkpt lat="45.06254" lon="5.57543">
        <ele>1275</ele>
        <time>2010-01-01T01:22:22Z</time>
      </trkpt>
      <trkpt lat="45.06263" lon="5.57527">
        <ele>1275</ele>
        <time>2010-01-01T01:22:28Z</time>
      </trkpt>
      <trkpt lat="45.06268" lon="5.57515">
        <ele>1275</ele>
        <time>2010-01-01T01:22:32Z</time>
      </trkpt>
      <trkpt lat="45.06272" lon="5.57503">
        <ele>1276</ele>
        <time>2010-01-01T01:22:36Z</time>
      </trkpt>
      <trkpt lat="45.06276" lon="5.57489">
        <ele>1276</ele>
        <time>2010-01-01T01:22:40Z</time>
      </trkpt>
      <trkpt lat="45.06279" lon="5.57475">
        <ele>1276</ele>
        <time>2010-01-01T01:22:44Z</time>
      </trkpt>
      <trkpt lat="45.0628" lon="5.57462">
        <ele>1276</ele>
        <time>2010-01-01T01:22:48Z</time>
      </trkpt>
      <trkpt lat="45.0628" lon="5.57447">
        <ele>1275</ele>
        <time>2010-01-01T01:22:52Z</time>
      </trkpt>
      <trkpt lat="45.0628" lon="5.57432">
        <ele>1275</ele>
        <time>2010-01-01T01:22:56Z</time>
      </trkpt>
      <trkpt lat="45.06279" lon="5.57421">
        <ele>1275</ele>
        <time>2010-01-01T01:22:59Z</time>
      </trkpt>
      <trkpt lat="45.06277" lon="5.57404">
        <ele>1274</ele>
        <time>2010-01-01T01:23:04Z</time>
      </trkpt>
      <trkpt lat="45.06275" lon="5.5739">
        <ele>1274</ele>
        <time>2010-01-01T01:23:08Z</time>
      </trkpt>
      <trkpt lat="45.06275" lon="5.57379">
        <ele>1273</ele>
        <time>2010-01-01T01:23:11Z</time>
      </trkpt>
      <trkpt lat="45.06275" lon="5.57369">
        <ele>1273</ele>
        <time>2010-01-01T01:23:14Z</time>
      </trkpt>
      <trkpt lat="45.06275" lon="5.5736">
        <ele>1273</ele>
        <time>2010-01-01T01:23:17Z</time>
      </trkpt>
      <trkpt lat="45.06276" lon="5.57351">
        <ele>1272</ele>
        <time>2010-01-01T01:23:19Z</time>
      </trkpt>
      <trkpt lat="45.06278" lon="5.57342">
        <ele>1272</ele>
        <time>2010-01-01T01:23:22Z</time>
      </trkpt>
      <trkpt lat="45.06279" lon="5.57324">
        <ele>1272</ele>
        <time>2010-01-01T01:23:27Z</time>
      </trkpt>
      <trkpt lat="45.06281" lon="5.57304">
        <ele>1271</ele>
        <time>2010-01-01T01:23:33Z</time>
      </trkpt>
      <trkpt lat="45.06285" lon="5.57281">
        <ele>1271</ele>
        <time>2010-01-01T01:23:40Z</time>
      </trkpt>
      <trkpt lat="45.06288" lon="5.57264">
        <ele>1269</ele>
        <time>2010-01-01T01:23:44Z</time>
      </trkpt>
      <trkpt lat="45.06292" lon="5.57255">
        <ele>1268</ele>
        <time>2010-01-01T01:23:47Z</time>
      </trkpt>
      <trkpt lat="45.06297" lon="5.57247">
        <ele>1266</ele>
        <time>2010-01-01T01:23:51Z</time>
      </trkpt>
      <trkpt lat="45.06304" lon="5.57243">
        <ele>1266</ele>
        <time>2010-01-01T01:23:54Z</time>
      </trkpt>
      <trkpt lat="45.06314" lon="5.5724">
        <ele>1264</ele>
        <time>2010-01-01T01:23:58Z</time>
      </trkpt>
      <trkpt lat="45.06329" lon="5.57231">
        <ele>1262</ele>
        <time>2010-01-01T01:24:04Z</time>
      </trkpt>
      <trkpt lat="45.0634" lon="5.57223">
        <ele>1259</ele>
        <time>2010-01-01T01:24:09Z</time>
      </trkpt>
      <trkpt lat="45.06347" lon="5.57217">
        <ele>1256</ele>
        <time>2010-01-01T01:24:12Z</time>
      </trkpt>
      <trkpt lat="45.0635" lon="5.57211">
        <ele>1254</ele>
        <time>2010-01-01T01:24:14Z</time>
      </trkpt>
      <trkpt lat="45.06352" lon="5.57206">
        <ele>1253</ele>
        <time>2010-01-01T01:24:16Z</time>
      </trkpt>
      <trkpt lat="45.06353" lon="5.57202">
        <ele>1252</ele>
        <time>2010-01-01T01:24:17Z</time>
      </trkpt>
      <trkpt lat="45.06354" lon="5.57197">
        <ele>1251</ele>
        <time>2010-01-01T01:24:19Z</time>
      </trkpt>
      <trkpt lat="45.06352" lon="5.57186">
        <ele>1250</ele>
        <time>2010-01-01T01:24:22Z</time>
      </trkpt>
      <trkpt lat="45.06349" lon="5.57173">
        <ele>1248</ele>
        <time>2010-01-01T01:24:26Z</time>
      </trkpt>
      <trkpt lat="45.06346" lon="5.57163">
        <ele>1246</ele>
        <time>2010-01-01T01:24:29Z</time>
      </trkpt>
      <trkpt lat="45.06344" lon="5.57156">
        <ele>1245</ele>
        <time>2010-01-01T01:24:31Z</time>
      </trkpt>
      <trkpt lat="45.06343" lon="5.57151">
        <ele>1244</ele>
        <time>2010-01-01T01:24:32Z</time>
      </trkpt>
      <trkpt lat="45.06343" lon="5.57143">
        <ele>1243</ele>
        <time>2010-01-01T01:24:35Z</time>
      </trkpt>
      <trkpt lat="45.06344" lon="5.57138">
        <ele>1242</ele>
        <time>2010-01-01T01:24:36Z</time>
      </trkpt>
      <trkpt lat="45.06345" lon="5.57133">
        <ele>1241</ele>
        <time>2010-01-01T01:24:38Z</time>
      </trkpt>
      <trkpt lat="45.06345" lon="5.57126">
        <ele>1240</ele>
        <time>2010-01-01T01:24:40Z</time>
      </trkpt>
      <trkpt lat="45.06343" lon="5.57112">
        <ele>1238</ele>
        <time>2010-01-01T01:24:44Z</time>
      </trkpt>
      <trkpt lat="45.0634" lon="5.57094">
        <ele>1235</ele>
        <time>2010-01-01T01:24:49Z</time>
      </trkpt>
      <trkpt lat="45.06337" lon="5.57078">
        <ele>1232</ele>
        <time>2010-01-01T01:24:54Z</time>
      </trkpt>
      <trkpt lat="45.06336" lon="5.57061">
        <ele>1229</ele>
        <time>2010-01-01T01:24:58Z</time>
      </trkpt>
      <trkpt lat="45.06335" lon="5.57045">
        <ele>1225</ele>
        <time>2010-01-01T01:25:03Z</time>
      </trkpt>
      <trkpt lat="45.06334" lon="5.57027">
        <ele>1219</ele>
        <time>2010-01-01T01:25:08Z</time>
      </trkpt>
      <trkpt lat="45.06336" lon="5.5701">
        <ele>1214</ele>
        <time>2010-01-01T01:25:13Z</time>
      </trkpt>
      <trkpt lat="45.0634" lon="5.56983">
        <ele>1208</ele>
        <time>2010-01-01T01:25:21Z</time>
      </trkpt>
      <trkpt lat="45.06349" lon="5.56955">
        <ele>1202</ele>
        <time>2010-01-01T01:25:29Z</time>
      </trkpt>
      <trkpt lat="45.06354" lon="5.56937">
        <ele>1199</ele>
        <time>2010-01-01T01:25:35Z</time>
      </trkpt>
      <trkpt lat="45.06361" lon="5.56911">
        <ele>1193</ele>
        <time>2010-01-01T01:25:43Z</time>
      </trkpt>
      <trkpt lat="45.06373" lon="5.5688">
        <ele>1185</ele>
        <time>2010-01-01T01:25:53Z</time>
      </trkpt>
      <trkpt lat="45.06382" lon="5.56853">
        <ele>1181</ele>
        <time>2010-01-01T01:26:01Z</time>
      </trkpt>
      <trkpt lat="45.06393" lon="5.56832">
        <ele>1177</ele>
        <time>2010-01-01T01:26:09Z</time>
      </trkpt>
      <trkpt lat="45.06402" lon="5.56814">
        <ele>1173</ele>
        <time>2010-01-01T01:26:15Z</time>
      </trkpt>
      <trkpt lat="45.06409" lon="5.56804">
        <ele>1171</ele>
        <time>2010-01-01T01:26:19Z</time>
      </trkpt>
      <trkpt lat="45.06417" lon="5.56795">
        <ele>1170</ele>
        <time>2010-01-01T01:26:23Z</time>
      </trkpt>
      <trkpt lat="45.06422" lon="5.56791">
        <ele>1168</ele>
        <time>2010-01-01T01:26:25Z</time>
      </trkpt>
      <trkpt lat="45.06426" lon="5.56787">
        <ele>1167</ele>
        <time>2010-01-01T01:26:27Z</time>
      </trkpt>
      <trkpt lat="45.06435" lon="5.56778">
        <ele>1164</ele>
        <time>2010-01-01T01:26:32Z</time>
      </trkpt>
      <trkpt lat="45.06446" lon="5.56765">
        <ele>1160</ele>
        <time>2010-01-01T01:26:37Z</time>
      </trkpt>
      <trkpt lat="45.06455" lon="5.56754">
        <ele>1156</ele>
        <time>2010-01-01T01:26:42Z</time>
      </trkpt>
      <trkpt lat="45.06462" lon="5.56747">
        <ele>1153</ele>
        <time>2010-01-01T01:26:46Z</time>
      </trkpt>
      <trkpt lat="45.06464" lon="5.5674">
        <ele>1152</ele>
        <time>2010-01-01T01:26:48Z</time>
      </trkpt>
      <trkpt lat="45.06465" lon="5.56732">
        <ele>1150</ele>
        <time>2010-01-01T01:26:50Z</time>
      </trkpt>
      <trkpt lat="45.06464" lon="5.56725">
        <ele>1149</ele>
        <time>2010-01-01T01:26:52Z</time>
      </trkpt>
      <trkpt lat="45.0646" lon="5.56717">
        <ele>1148</ele>
        <time>2010-01-01T01:26:55Z</time>
      </trkpt>
      <trkpt lat="45.06456" lon="5.5671">
        <ele>1147</ele>
        <time>2010-01-01T01:26:57Z</time>
      </trkpt>
      <trkpt lat="45.06451" lon="5.56706">
        <ele>1146</ele>
        <time>2010-01-01T01:27:00Z</time>
      </trkpt>
      <trkpt lat="45.06447" lon="5.56702">
        <ele>1145</ele>
        <time>2010-01-01T01:27:02Z</time>
      </trkpt>
      <trkpt lat="45.06445" lon="5.56694">
        <ele>1143</ele>
        <time>2010-01-01T01:27:04Z</time>
      </trkpt>
      <trkpt lat="45.06444" lon="5.56684">
        <ele>1142</ele>
        <time>2010-01-01T01:27:07Z</time>
      </trkpt>
      <trkpt lat="45.06446" lon="5.56669">
        <ele>1139</ele>
        <time>2010-01-01T01:27:11Z</time>
      </trkpt>
      <trkpt lat="45.06451" lon="5.56641">
        <ele>1135</ele>
        <time>2010-01-01T01:27:19Z</time>
      </trkpt>
      <trkpt lat="45.06454" lon="5.56624">
        <ele>1131</ele>
        <time>2010-01-01T01:27:24Z</time>
      </trkpt>
      <trkpt lat="45.06455" lon="5.56622">
        <ele>1131</ele>
        <time>2010-01-01T01:27:25Z</time>
      </trkpt>
      <trkpt lat="45.06454" lon="5.56624">
        <ele>1131</ele>
        <time>2010-01-01T01:27:26Z</time>
      </trkpt>
      <trkpt lat="45.06449" lon="5.56626">
        <ele>1131</ele>
        <time>2010-01-01T01:27:28Z</time>
      </trkpt>
      <trkpt lat="45.0644" lon="5.56628">
        <ele>1131</ele>
        <time>2010-01-01T01:27:31Z</time>
      </trkpt>
      <trkpt lat="45.06431" lon="5.56629">
        <ele>1131</ele>
        <time>2010-01-01T01:27:35Z</time>
      </trkpt>
      <trkpt lat="45.06415" lon="5.56632">
        <ele>1129</ele>
        <time>2010-01-01T01:27:41Z</time>
      </trkpt>
      <trkpt lat="45.06406" lon="5.56633">
        <ele>1127</ele>
        <time>2010-01-01T01:27:45Z</time>
      </trkpt>
      <trkpt lat="45.06399" lon="5.56635">
        <ele>1126</ele>
        <time>2010-01-01T01:27:48Z</time>
      </trkpt>
      <trkpt lat="45.0639" lon="5.56641">
        <ele>1125</ele>
        <time>2010-01-01T01:27:52Z</time>
      </trkpt>
      <trkpt lat="45.06383" lon="5.56647">
        <ele>1125</ele>
        <time>2010-01-01T01:27:55Z</time>
      </trkpt>
      <trkpt lat="45.0638" lon="5.5665">
        <ele>1125</ele>
        <time>2010-01-01T01:27:57Z</time>
      </trkpt>
      <trkpt lat="45.06365" lon="5.56667">
        <ele>1124</ele>
        <time>2010-01-01T01:28:04Z</time>
      </trkpt>
      <trkpt lat="45.06354" lon="5.56677">
        <ele>1124</ele>
        <time>2010-01-01T01:28:10Z</time>
      </trkpt>
      <trkpt lat="45.06344" lon="5.56685">
        <ele>1122</ele>
        <time>2010-01-01T01:28:14Z</time>
      </trkpt>
      <trkpt lat="45.06332" lon="5.5669">
        <ele>1120</ele>
        <time>2010-01-01T01:28:19Z</time>
      </trkpt>
      <trkpt lat="45.06321" lon="5.56693">
        <ele>1119</ele>
        <time>2010-01-01T01:28:24Z</time>
      </trkpt>
      <trkpt lat="45.06309" lon="5.56691">
        <ele>1116</ele>
        <time>2010-01-01T01:28:28Z</time>
      </trkpt>
      <trkpt lat="45.06298" lon="5.56685">
        <ele>1113</ele>
        <time>2010-01-01T01:28:33Z</time>
      </trkpt>
      <trkpt lat="45.06284" lon="5.56675">
        <ele>1109</ele>
        <time>2010-01-01T01:28:39Z</time>
      </trkpt>
      <trkpt lat="45.06269" lon="5.56667">
        <ele>1108</ele>
        <time>2010-01-01T01:28:46Z</time>
      </trkpt>
      <trkpt lat="45.06258" lon="5.56662">
        <ele>1110</ele>
        <time>2010-01-01T01:28:51Z</time>
      </trkpt>
      <trkpt lat="45.06253" lon="5.56659">
        <ele>1111</ele>
        <time>2010-01-01T01:28:53Z</time>
      </trkpt>
      <trkpt lat="45.06252" lon="5.56659">
        <ele>1112</ele>
        <time>2010-01-01T01:28:53Z</time>
      </trkpt>
      <trkpt lat="45.06245" lon="5.56663">
        <ele>1113</ele>
        <time>2010-01-01T01:28:56Z</time>
      </trkpt>
      <trkpt lat="45.06239" lon="5.56668">
        <ele>1115</ele>
        <time>2010-01-01T01:28:59Z</time>
      </trkpt>
      <trkpt lat="45.06236" lon="5.56676">
        <ele>1116</ele>
        <time>2010-01-01T01:29:01Z</time>
      </trkpt>
      <trkpt lat="45.06232" lon="5.56686">
        <ele>1118</ele>
        <time>2010-01-01T01:29:05Z</time>
      </trkpt>
      <trkpt lat="45.06231" lon="5.56697">
        <ele>1118</ele>
        <time>2010-01-01T01:29:08Z</time>
      </trkpt>
      <trkpt lat="45.06227" lon="5.56705">
        <ele>1119</ele>
        <time>2010-01-01T01:29:11Z</time>
      </trkpt>
      <trkpt lat="45.06224" lon="5.56711">
        <ele>1120</ele>
        <time>2010-01-01T01:29:13Z</time>
      </trkpt>
      <trkpt lat="45.0622" lon="5.56715">
        <ele>1121</ele>
        <time>2010-01-01T01:29:15Z</time>
      </trkpt>
      <trkpt lat="45.06211" lon="5.56721">
        <ele>1123</ele>
        <time>2010-01-01T01:29:19Z</time>
      </trkpt>
      <trkpt lat="45.062" lon="5.56732">
        <ele>1125</ele>
        <time>2010-01-01T01:29:24Z</time>
      </trkpt>
      <trkpt lat="45.06195" lon="5.56742">
        <ele>1125</ele>
        <time>2010-01-01T01:29:28Z</time>
      </trkpt>
      <trkpt lat="45.062" lon="5.56732">
        <ele>1125</ele>
        <time>2010-01-01T01:29:31Z</time>
      </trkpt>
      <trkpt lat="45.06194" lon="5.56738">
        <ele>1125</ele>
        <time>2010-01-01T01:29:34Z</time>
      </trkpt>
      <trkpt lat="45.06192" lon="5.56739">
        <ele>1126</ele>
        <time>2010-01-01T01:29:35Z</time>
      </trkpt>
      <trkpt lat="45.06186" lon="5.5674">
        <ele>1126</ele>
        <time>2010-01-01T01:29:37Z</time>
      </trkpt>
      <trkpt lat="45.06183" lon="5.56739">
        <ele>1127</ele>
        <time>2010-01-01T01:29:38Z</time>
      </trkpt>
      <trkpt lat="45.06179" lon="5.56733">
        <ele>1129</ele>
        <time>2010-01-01T01:29:41Z</time>
      </trkpt>
      <trkpt lat="45.06179" lon="5.56731">
        <ele>1129</ele>
        <time>2010-01-01T01:29:41Z</time>
      </trkpt>
      <trkpt lat="45.06179" lon="5.5673">
        <ele>1129</ele>
        <time>2010-01-01T01:29:42Z</time>
      </trkpt>
      <trkpt lat="45.0618" lon="5.56727">
        <ele>1129</ele>
        <time>2010-01-01T01:29:43Z</time>
      </trkpt>
      <trkpt lat="45.06181" lon="5.56723">
        <ele>1130</ele>
        <time>2010-01-01T01:29:44Z</time>
      </trkpt>
      <trkpt lat="45.06185" lon="5.56716">
        <ele>1130</ele>
        <time>2010-01-01T01:29:46Z</time>
      </trkpt>
      <trkpt lat="45.0619" lon="5.56704">
        <ele>1130</ele>
        <time>2010-01-01T01:29:50Z</time>
      </trkpt>
      <trkpt lat="45.06223" lon="5.56626">
        <ele>1129</ele>
        <time>2010-01-01T01:30:16Z</time>
      </trkpt>
      <trkpt lat="45.06245" lon="5.56554">
        <ele>1129</ele>
        <time>2010-01-01T01:30:38Z</time>
      </trkpt>
      <trkpt lat="45.06251" lon="5.5649">
        <ele>1128</ele>
        <time>2010-01-01T01:30:56Z</time>
      </trkpt>
      <trkpt lat="45.06256" lon="5.56437">
        <ele>1124</ele>
        <time>2010-01-01T01:31:11Z</time>
      </trkpt>
      <trkpt lat="45.06266" lon="5.56309">
        <ele>1123</ele>
        <time>2010-01-01T01:31:48Z</time>
      </trkpt>
      <trkpt lat="45.06282" lon="5.56207">
        <ele>1122</ele>
        <time>2010-01-01T01:32:17Z</time>
      </trkpt>
      <trkpt lat="45.06285" lon="5.56198">
        <ele>1120</ele>
        <time>2010-01-01T01:32:20Z</time>
      </trkpt>
      <trkpt lat="45.06294" lon="5.56164">
        <ele>1114</ele>
        <time>2010-01-01T01:32:31Z</time>
      </trkpt>
      <trkpt lat="45.06296" lon="5.56135">
        <ele>1112</ele>
        <time>2010-01-01T01:32:39Z</time>
      </trkpt>
      <trkpt lat="45.06298" lon="5.56098">
        <ele>1108</ele>
        <time>2010-01-01T01:32:49Z</time>
      </trkpt>
      <trkpt lat="45.06279" lon="5.56029">
        <ele>1100</ele>
        <time>2010-01-01T01:33:10Z</time>
      </trkpt>
      <trkpt lat="45.06283" lon="5.56004">
        <ele>1095</ele>
        <time>2010-01-01T01:33:17Z</time>
      </trkpt>
      <trkpt lat="45.06287" lon="5.55982">
        <ele>1090</ele>
        <time>2010-01-01T01:33:24Z</time>
      </trkpt>
      <trkpt lat="45.0629" lon="5.55962">
        <ele>1087</ele>
        <time>2010-01-01T01:33:30Z</time>
      </trkpt>
      <trkpt lat="45.06294" lon="5.55941">
        <ele>1083</ele>
        <time>2010-01-01T01:33:36Z</time>
      </trkpt>
      <trkpt lat="45.06297" lon="5.55925">
        <ele>1081</ele>
        <time>2010-01-01T01:33:40Z</time>
      </trkpt>
      <trkpt lat="45.06299" lon="5.55913">
        <ele>1079</ele>
        <time>2010-01-01T01:33:44Z</time>
      </trkpt>
      <trkpt lat="45.06299" lon="5.55906">
        <ele>1078</ele>
        <time>2010-01-01T01:33:46Z</time>
      </trkpt>
      <trkpt lat="45.06299" lon="5.55898">
        <ele>1077</ele>
        <time>2010-01-01T01:33:48Z</time>
      </trkpt>
      <trkpt lat="45.06296" lon="5.55883">
        <ele>1076</ele>
        <time>2010-01-01T01:33:53Z</time>
      </trkpt>
      <trkpt lat="45.0629" lon="5.55855">
        <ele>1076</ele>
        <time>2010-01-01T01:34:01Z</time>
      </trkpt>
      <trkpt lat="45.0629" lon="5.55851">
        <ele>1076</ele>
        <time>2010-01-01T01:34:02Z</time>
      </trkpt>
      <trkpt lat="45.0629" lon="5.55844">
        <ele>1077</ele>
        <time>2010-01-01T01:34:04Z</time>
      </trkpt>
      <trkpt lat="45.06296" lon="5.55857">
        <ele>1076</ele>
        <time>2010-01-01T01:34:08Z</time>
      </trkpt>
      <trkpt lat="45.06304" lon="5.55877">
        <ele>1075</ele>
        <time>2010-01-01T01:34:15Z</time>
      </trkpt>
      <trkpt lat="45.06306" lon="5.55874">
        <ele>1075</ele>
        <time>2010-01-01T01:34:16Z</time>
      </trkpt>
      <trkpt lat="45.06315" lon="5.55862">
        <ele>1073</ele>
        <time>2010-01-01T01:34:21Z</time>
      </trkpt>
      <trkpt lat="45.06329" lon="5.55835">
        <ele>1070</ele>
        <time>2010-01-01T01:34:30Z</time>
      </trkpt>
      <trkpt lat="45.06335" lon="5.55823">
        <ele>1069</ele>
        <time>2010-01-01T01:34:35Z</time>
      </trkpt>
      <trkpt lat="45.06336" lon="5.55814">
        <ele>1069</ele>
        <time>2010-01-01T01:34:37Z</time>
      </trkpt>
      <trkpt lat="45.06335" lon="5.55803">
        <ele>1070</ele>
        <time>2010-01-01T01:34:40Z</time>
      </trkpt>
      <trkpt lat="45.06331" lon="5.55791">
        <ele>1072</ele>
        <time>2010-01-01T01:34:44Z</time>
      </trkpt>
      <trkpt lat="45.0633" lon="5.55783">
        <ele>1073</ele>
        <time>2010-01-01T01:34:46Z</time>
      </trkpt>
      <trkpt lat="45.06331" lon="5.55779">
        <ele>1074</ele>
        <time>2010-01-01T01:34:48Z</time>
      </trkpt>
      <trkpt lat="45.06337" lon="5.55776">
        <ele>1073</ele>
        <time>2010-01-01T01:34:50Z</time>
      </trkpt>
      <trkpt lat="45.06344" lon="5.55778">
        <ele>1070</ele>
        <time>2010-01-01T01:34:53Z</time>
      </trkpt>
      <trkpt lat="45.06347" lon="5.55781">
        <ele>1069</ele>
        <time>2010-01-01T01:34:54Z</time>
      </trkpt>
      <trkpt lat="45.0635" lon="5.5578">
        <ele>1068</ele>
        <time>2010-01-01T01:34:56Z</time>
      </trkpt>
      <trkpt lat="45.06403" lon="5.55585">
        <ele>1061</ele>
        <time>2010-01-01T01:35:55Z</time>
      </trkpt>
      <trkpt lat="45.06422" lon="5.55524">
        <ele>1055</ele>
        <time>2010-01-01T01:36:14Z</time>
      </trkpt>
      <trkpt lat="45.0643" lon="5.55497">
        <ele>1051</ele>
        <time>2010-01-01T01:36:22Z</time>
      </trkpt>
      <trkpt lat="45.06429" lon="5.55497">
        <ele>1051</ele>
        <time>2010-01-01T01:36:22Z</time>
      </trkpt>
      <trkpt lat="45.06429" lon="5.55496">
        <ele>1051</ele>
        <time>2010-01-01T01:36:23Z</time>
      </trkpt>
      <trkpt lat="45.06429" lon="5.55484">
        <ele>1051</ele>
        <time>2010-01-01T01:36:26Z</time>
      </trkpt>
      <trkpt lat="45.06428" lon="5.55472">
        <ele>1051</ele>
        <time>2010-01-01T01:36:29Z</time>
      </trkpt>
      <trkpt lat="45.06437" lon="5.55398">
        <ele>1045</ele>
        <time>2010-01-01T01:36:51Z</time>
      </trkpt>
      <trkpt lat="45.06446" lon="5.55339">
        <ele>1048</ele>
        <time>2010-01-01T01:37:08Z</time>
      </trkpt>
      <trkpt lat="45.06457" lon="5.55247">
        <ele>1041</ele>
        <time>2010-01-01T01:37:34Z</time>
      </trkpt>
      <trkpt lat="45.06466" lon="5.55186">
        <ele>1041</ele>
        <time>2010-01-01T01:37:52Z</time>
      </trkpt>
      <trkpt lat="45.06467" lon="5.55183">
        <ele>1041</ele>
        <time>2010-01-01T01:37:53Z</time>
      </trkpt>
      <trkpt lat="45.06463" lon="5.55169">
        <ele>1041</ele>
        <time>2010-01-01T01:37:57Z</time>
      </trkpt>
      <trkpt lat="45.06455" lon="5.55159">
        <ele>1040</ele>
        <time>2010-01-01T01:38:01Z</time>
      </trkpt>
      <trkpt lat="45.06452" lon="5.55155">
        <ele>1040</ele>
        <time>2010-01-01T01:38:03Z</time>
      </trkpt>
      <trkpt lat="45.06455" lon="5.55152">
        <ele>1040</ele>
        <time>2010-01-01T01:38:04Z</time>
      </trkpt>
      <trkpt lat="45.0647" lon="5.55123">
        <ele>1037</ele>
        <time>2010-01-01T01:38:14Z</time>
      </trkpt>
      <trkpt lat="45.06482" lon="5.55104">
        <ele>1033</ele>
        <time>2010-01-01T01:38:22Z</time>
      </trkpt>
      <trkpt lat="45.06486" lon="5.55097">
        <ele>1031</ele>
        <time>2010-01-01T01:38:24Z</time>
      </trkpt>
      <trkpt lat="45.06502" lon="5.55055">
        <ele>1026</ele>
        <time>2010-01-01T01:38:38Z</time>
      </trkpt>
      <trkpt lat="45.06508" lon="5.5504">
        <ele>1025</ele>
        <time>2010-01-01T01:38:43Z</time>
      </trkpt>
      <trkpt lat="45.06516" lon="5.55027">
        <ele>1023</ele>
        <time>2010-01-01T01:38:47Z</time>
      </trkpt>
      <trkpt lat="45.0652" lon="5.55023">
        <ele>1022</ele>
        <time>2010-01-01T01:38:49Z</time>
      </trkpt>
      <trkpt lat="45.06525" lon="5.55019">
        <ele>1021</ele>
        <time>2010-01-01T01:38:52Z</time>
      </trkpt>
      <trkpt lat="45.06529" lon="5.55015">
        <ele>1020</ele>
        <time>2010-01-01T01:38:54Z</time>
      </trkpt>
      <trkpt lat="45.06532" lon="5.55009">
        <ele>1020</ele>
        <time>2010-01-01T01:38:56Z</time>
      </trkpt>
      <trkpt lat="45.06533" lon="5.55004">
        <ele>1019</ele>
        <time>2010-01-01T01:38:57Z</time>
      </trkpt>
      <trkpt lat="45.06533" lon="5.55003">
        <ele>1019</ele>
        <time>2010-01-01T01:38:57Z</time>
      </trkpt>
      <trkpt lat="45.06536" lon="5.54983">
        <ele>1015</ele>
        <time>2010-01-01T01:39:03Z</time>
      </trkpt>
      <trkpt lat="45.06538" lon="5.54976">
        <ele>1014</ele>
        <time>2010-01-01T01:39:05Z</time>
      </trkpt>
      <trkpt lat="45.06541" lon="5.54971">
        <ele>1013</ele>
        <time>2010-01-01T01:39:07Z</time>
      </trkpt>
      <trkpt lat="45.06544" lon="5.54965">
        <ele>1012</ele>
        <time>2010-01-01T01:39:09Z</time>
      </trkpt>
      <trkpt lat="45.06548" lon="5.54961">
        <ele>1011</ele>
        <time>2010-01-01T01:39:11Z</time>
      </trkpt>
      <trkpt lat="45.06553" lon="5.54957">
        <ele>1011</ele>
        <time>2010-01-01T01:39:14Z</time>
      </trkpt>
      <trkpt lat="45.06572" lon="5.54945">
        <ele>1009</ele>
        <time>2010-01-01T01:39:22Z</time>
      </trkpt>
      <trkpt lat="45.06583" lon="5.5494">
        <ele>1008</ele>
        <time>2010-01-01T01:39:27Z</time>
      </trkpt>
      <trkpt lat="45.06588" lon="5.54939">
        <ele>1008</ele>
        <time>2010-01-01T01:39:29Z</time>
      </trkpt>
      <trkpt lat="45.06593" lon="5.54939">
        <ele>1008</ele>
        <time>2010-01-01T01:39:31Z</time>
      </trkpt>
      <trkpt lat="45.06603" lon="5.54942">
        <ele>1008</ele>
        <time>2010-01-01T01:39:35Z</time>
      </trkpt>
      <trkpt lat="45.06608" lon="5.54944">
        <ele>1008</ele>
        <time>2010-01-01T01:39:37Z</time>
      </trkpt>
      <trkpt lat="45.06612" lon="5.54948">
        <ele>1008</ele>
        <time>2010-01-01T01:39:39Z</time>
      </trkpt>
      <trkpt lat="45.06615" lon="5.54953">
        <ele>1008</ele>
        <time>2010-01-01T01:39:41Z</time>
      </trkpt>
      <trkpt lat="45.06618" lon="5.54958">
        <ele>1007</ele>
        <time>2010-01-01T01:39:42Z</time>
      </trkpt>
      <trkpt lat="45.06623" lon="5.5497">
        <ele>1006</ele>
        <time>2010-01-01T01:39:46Z</time>
      </trkpt>
      <trkpt lat="45.06625" lon="5.54976">
        <ele>1005</ele>
        <time>2010-01-01T01:39:48Z</time>
      </trkpt>
      <trkpt lat="45.0663" lon="5.55011">
        <ele>1002</ele>
        <time>2010-01-01T01:39:58Z</time>
      </trkpt>
      <trkpt lat="45.06635" lon="5.55042">
        <ele>1002</ele>
        <time>2010-01-01T01:40:07Z</time>
      </trkpt>
      <trkpt lat="45.06636" lon="5.5505">
        <ele>1002</ele>
        <time>2010-01-01T01:40:10Z</time>
      </trkpt>
      <trkpt lat="45.06636" lon="5.55053">
        <ele>1003</ele>
        <time>2010-01-01T01:40:10Z</time>
      </trkpt>
      <trkpt lat="45.06636" lon="5.55056">
        <ele>1003</ele>
        <time>2010-01-01T01:40:11Z</time>
      </trkpt>
      <trkpt lat="45.06638" lon="5.55056">
        <ele>1003</ele>
        <time>2010-01-01T01:40:12Z</time>
      </trkpt>
      <trkpt lat="45.06641" lon="5.55059">
        <ele>1002</ele>
        <time>2010-01-01T01:40:14Z</time>
      </trkpt>
      <trkpt lat="45.06647" lon="5.55069">
        <ele>1001</ele>
        <time>2010-01-01T01:40:17Z</time>
      </trkpt>
      <trkpt lat="45.06649" lon="5.55072">
        <ele>1000</ele>
        <time>2010-01-01T01:40:18Z</time>
      </trkpt>
      <trkpt lat="45.06651" lon="5.55074">
        <ele>1000</ele>
        <time>2010-01-01T01:40:19Z</time>
      </trkpt>
      <trkpt lat="45.06662" lon="5.55076">
        <ele>998</ele>
        <time>2010-01-01T01:40:24Z</time>
      </trkpt>
      <trkpt lat="45.06665" lon="5.55077">
        <ele>997</ele>
        <time>2010-01-01T01:40:25Z</time>
      </trkpt>
      <trkpt lat="45.06668" lon="5.5508">
        <ele>997</ele>
        <time>2010-01-01T01:40:27Z</time>
      </trkpt>
      <trkpt lat="45.06672" lon="5.55086">
        <ele>996</ele>
        <time>2010-01-01T01:40:29Z</time>
      </trkpt>
      <trkpt lat="45.06674" lon="5.55084">
        <ele>996</ele>
        <time>2010-01-01T01:40:30Z</time>
      </trkpt>
      <trkpt lat="45.06707" lon="5.55083">
        <ele>996</ele>
        <time>2010-01-01T01:40:43Z</time>
      </trkpt>
      <trkpt lat="45.06726" lon="5.55084">
        <ele>995</ele>
        <time>2010-01-01T01:40:51Z</time>
      </trkpt>
      <trkpt lat="45.0675" lon="5.55085">
        <ele>995</ele>
        <time>2010-01-01T01:41:00Z</time>
      </trkpt>
      <trkpt lat="45.06751" lon="5.55041">
        <ele>993</ele>
        <time>2010-01-01T01:41:13Z</time>
      </trkpt>
      <trkpt lat="45.06752" lon="5.5499">
        <ele>991</ele>
        <time>2010-01-01T01:41:27Z</time>
      </trkpt>
      <trkpt lat="45.06753" lon="5.54978">
        <ele>991</ele>
        <time>2010-01-01T01:41:31Z</time>
      </trkpt>
      <trkpt lat="45.06754" lon="5.54895">
        <ele>988</ele>
        <time>2010-01-01T01:41:54Z</time>
      </trkpt>
      <trkpt lat="45.06754" lon="5.5485">
        <ele>986</ele>
        <time>2010-01-01T01:42:07Z</time>
      </trkpt>
      <trkpt lat="45.06755" lon="5.54833">
        <ele>985</ele>
        <time>2010-01-01T01:42:12Z</time>
      </trkpt>
      <trkpt lat="45.06755" lon="5.54821">
        <ele>986</ele>
        <time>2010-01-01T01:42:15Z</time>
      </trkpt>
      <trkpt lat="45.06755" lon="5.548">
        <ele>986</ele>
        <time>2010-01-01T01:42:21Z</time>
      </trkpt>
      <trkpt lat="45.06756" lon="5.54789">
        <ele>986</ele>
        <time>2010-01-01T01:42:24Z</time>
      </trkpt>
      <trkpt lat="45.0675" lon="5.55085">
        <ele>995</ele>
        <time>2010-01-01T01:43:48Z</time>
      </trkpt>
      <trkpt lat="45.06751" lon="5.55041">
        <ele>993</ele>
        <time>2010-01-01T01:44:00Z</time>
      </trkpt>
      <trkpt lat="45.06752" lon="5.5499">
        <ele>991</ele>
        <time>2010-01-01T01:44:15Z</time>
      </trkpt>
      <trkpt lat="45.06753" lon="5.54978">
        <ele>991</ele>
        <time>2010-01-01T01:44:18Z</time>
      </trkpt>
      <trkpt lat="45.06754" lon="5.54895">
        <ele>988</ele>
        <time>2010-01-01T01:44:42Z</time>
      </trkpt>
      <trkpt lat="45.06754" lon="5.5485">
        <ele>986</ele>
        <time>2010-01-01T01:44:54Z</time>
      </trkpt>
      <trkpt lat="45.06755" lon="5.54833">
        <ele>985</ele>
        <time>2010-01-01T01:44:59Z</time>
      </trkpt>
      <trkpt lat="45.06755" lon="5.54821">
        <ele>986</ele>
        <time>2010-01-01T01:45:03Z</time>
      </trkpt>
      <trkpt lat="45.06755" lon="5.548">
        <ele>986</ele>
        <time>2010-01-01T01:45:08Z</time>
      </trkpt>
      <trkpt lat="45.06756" lon="5.54789">
        <ele>986</ele>
        <time>2010-01-01T01:45:12Z</time>
      </trkpt>
      <trkpt lat="45.06756" lon="5.54786">
        <ele>986</ele>
        <time>2010-01-01T01:45:12Z</time>
      </trkpt>
      <trkpt lat="45.06761" lon="5.54788">
        <ele>986</ele>
        <time>2010-01-01T01:45:15Z</time>
      </trkpt>
      <trkpt lat="45.06765" lon="5.54792">
        <ele>985</ele>
        <time>2010-01-01T01:45:16Z</time>
      </trkpt>
      <trkpt lat="45.06781" lon="5.54816">
        <ele>984</ele>
        <time>2010-01-01T01:45:26Z</time>
      </trkpt>
      <trkpt lat="45.06789" lon="5.5483">
        <ele>984</ele>
        <time>2010-01-01T01:45:31Z</time>
      </trkpt>
      <trkpt lat="45.06791" lon="5.54833">
        <ele>984</ele>
        <time>2010-01-01T01:45:32Z</time>
      </trkpt>
      <trkpt lat="45.06796" lon="5.54839">
        <ele>984</ele>
        <time>2010-01-01T01:45:35Z</time>
      </trkpt>
      <trkpt lat="45.06799" lon="5.54842">
        <ele>984</ele>
        <time>2010-01-01T01:45:36Z</time>
      </trkpt>
      <trkpt lat="45.06805" lon="5.54846">
        <ele>985</ele>
        <time>2010-01-01T01:45:39Z</time>
      </trkpt>
      <trkpt lat="45.06814" lon="5.54849">
        <ele>986</ele>
        <time>2010-01-01T01:45:43Z</time>
      </trkpt>
      <trkpt lat="45.06816" lon="5.5485">
        <ele>987</ele>
        <time>2010-01-01T01:45:43Z</time>
      </trkpt>
      <trkpt lat="45.06814" lon="5.54849">
        <ele>986</ele>
        <time>2010-01-01T01:45:44Z</time>
      </trkpt>
      <trkpt lat="45.06816" lon="5.54842">
        <ele>986</ele>
        <time>2010-01-01T01:45:46Z</time>
      </trkpt>
      <trkpt lat="45.06821" lon="5.54832">
        <ele>986</ele>
        <time>2010-01-01T01:45:50Z</time>
      </trkpt>
      <trkpt lat="45.06837" lon="5.548">
        <ele>986</ele>
        <time>2010-01-01T01:46:01Z</time>
      </trkpt>
      <trkpt lat="45.06854" lon="5.54771">
        <ele>987</ele>
        <time>2010-01-01T01:46:12Z</time>
      </trkpt>
      <trkpt lat="45.0686" lon="5.5476">
        <ele>986</ele>
        <time>2010-01-01T01:46:15Z</time>
      </trkpt>
      <trkpt lat="45.06875" lon="5.54734">
        <ele>984</ele>
        <time>2010-01-01T01:46:25Z</time>
      </trkpt>
      <trkpt lat="45.06889" lon="5.54711">
        <ele>981</ele>
        <time>2010-01-01T01:46:34Z</time>
      </trkpt>
      <trkpt lat="45.06895" lon="5.54703">
        <ele>980</ele>
        <time>2010-01-01T01:46:37Z</time>
      </trkpt>
      <trkpt lat="45.06898" lon="5.54701">
        <ele>979</ele>
        <time>2010-01-01T01:46:38Z</time>
      </trkpt>
      <trkpt lat="45.06899" lon="5.547">
        <ele>979</ele>
        <time>2010-01-01T01:46:39Z</time>
      </trkpt>
      <trkpt lat="45.069" lon="5.54699">
        <ele>979</ele>
        <time>2010-01-01T01:46:39Z</time>
      </trkpt>
      <trkpt lat="45.06904" lon="5.54697">
        <ele>979</ele>
        <time>2010-01-01T01:46:41Z</time>
      </trkpt>
      <trkpt lat="45.06907" lon="5.54695">
        <ele>978</ele>
        <time>2010-01-01T01:46:42Z</time>
      </trkpt>
      <trkpt lat="45.06912" lon="5.54695">
        <ele>978</ele>
        <time>2010-01-01T01:46:44Z</time>
      </trkpt>
      <trkpt lat="45.06917" lon="5.54695">
        <ele>979</ele>
        <time>2010-01-01T01:46:46Z</time>
      </trkpt>
      <trkpt lat="45.06922" lon="5.54695">
        <ele>978</ele>
        <time>2010-01-01T01:46:48Z</time>
      </trkpt>
      <trkpt lat="45.06937" lon="5.54696">
        <ele>978</ele>
        <time>2010-01-01T01:46:54Z</time>
      </trkpt>
      <trkpt lat="45.06969" lon="5.54697">
        <ele>979</ele>
        <time>2010-01-01T01:47:07Z</time>
      </trkpt>
      <trkpt lat="45.06977" lon="5.54697">
        <ele>979</ele>
        <time>2010-01-01T01:47:10Z</time>
      </trkpt>
      <trkpt lat="45.06993" lon="5.54697">
        <ele>980</ele>
        <time>2010-01-01T01:47:17Z</time>
      </trkpt>
      <trkpt lat="45.06997" lon="5.54697">
        <ele>980</ele>
        <time>2010-01-01T01:47:18Z</time>
      </trkpt>
      <trkpt lat="45.07016" lon="5.54698">
        <ele>980</ele>
        <time>2010-01-01T01:47:26Z</time>
      </trkpt>
      <trkpt lat="45.07036" lon="5.54699">
        <ele>980</ele>
        <time>2010-01-01T01:47:34Z</time>
      </trkpt>
      <trkpt lat="45.07049" lon="5.547">
        <ele>978</ele>
        <time>2010-01-01T01:47:39Z</time>
      </trkpt>
      <trkpt lat="45.07055" lon="5.54702">
        <ele>978</ele>
        <time>2010-01-01T01:47:42Z</time>
      </trkpt>
      <trkpt lat="45.0706" lon="5.54704">
        <ele>978</ele>
        <time>2010-01-01T01:47:44Z</time>
      </trkpt>
      <trkpt lat="45.07069" lon="5.54709">
        <ele>978</ele>
        <time>2010-01-01T01:47:47Z</time>
      </trkpt>
      <trkpt lat="45.07082" lon="5.54715">
        <ele>978</ele>
        <time>2010-01-01T01:47:53Z</time>
      </trkpt>
      <trkpt lat="45.07091" lon="5.54719">
        <ele>978</ele>
        <time>2010-01-01T01:47:57Z</time>
      </trkpt>
      <trkpt lat="45.07099" lon="5.54723">
        <ele>979</ele>
        <time>2010-01-01T01:48:00Z</time>
      </trkpt>
      <trkpt lat="45.07121" lon="5.54728">
        <ele>979</ele>
        <time>2010-01-01T01:48:09Z</time>
      </trkpt>
      <trkpt lat="45.07147" lon="5.54737">
        <ele>981</ele>
        <time>2010-01-01T01:48:20Z</time>
      </trkpt>
      <trkpt lat="45.07169" lon="5.54747">
        <ele>982</ele>
        <time>2010-01-01T01:48:29Z</time>
      </trkpt>
      <trkpt lat="45.07188" lon="5.54758">
        <ele>984</ele>
        <time>2010-01-01T01:48:37Z</time>
      </trkpt>
      <trkpt lat="45.072" lon="5.54767">
        <ele>984</ele>
        <time>2010-01-01T01:48:43Z</time>
      </trkpt>
      <trkpt lat="45.0721" lon="5.5477">
        <ele>983</ele>
        <time>2010-01-01T01:48:47Z</time>
      </trkpt>
      <trkpt lat="45.07227" lon="5.54782">
        <ele>984</ele>
        <time>2010-01-01T01:48:54Z</time>
      </trkpt>
      <trkpt lat="45.07239" lon="5.54771">
        <ele>980</ele>
        <time>2010-01-01T01:49:00Z</time>
      </trkpt>
      <trkpt lat="45.07244" lon="5.54772">
        <ele>979</ele>
        <time>2010-01-01T01:49:02Z</time>
      </trkpt>
      <trkpt lat="45.0725" lon="5.5477">
        <ele>978</ele>
        <time>2010-01-01T01:49:05Z</time>
      </trkpt>
      <trkpt lat="45.07254" lon="5.54768">
        <ele>977</ele>
        <time>2010-01-01T01:49:06Z</time>
      </trkpt>
      <trkpt lat="45.0726" lon="5.54766">
        <ele>976</ele>
        <time>2010-01-01T01:49:09Z</time>
      </trkpt>
      <trkpt lat="45.07267" lon="5.54765">
        <ele>975</ele>
        <time>2010-01-01T01:49:12Z</time>
      </trkpt>
      <trkpt lat="45.07273" lon="5.54764">
        <ele>975</ele>
        <time>2010-01-01T01:49:14Z</time>
      </trkpt>
      <trkpt lat="45.07279" lon="5.54764">
        <ele>974</ele>
        <time>2010-01-01T01:49:16Z</time>
      </trkpt>
      <trkpt lat="45.07286" lon="5.54765">
        <ele>974</ele>
        <time>2010-01-01T01:49:19Z</time>
      </trkpt>
      <trkpt lat="45.07287" lon="5.54765">
        <ele>974</ele>
        <time>2010-01-01T01:49:20Z</time>
      </trkpt>
      <trkpt lat="45.07295" lon="5.54766">
        <ele>974</ele>
        <time>2010-01-01T01:49:23Z</time>
      </trkpt>
      <trkpt lat="45.07302" lon="5.54767">
        <ele>973</ele>
        <time>2010-01-01T01:49:26Z</time>
      </trkpt>
      <trkpt lat="45.07308" lon="5.54769">
        <ele>973</ele>
        <time>2010-01-01T01:49:28Z</time>
      </trkpt>
      <trkpt lat="45.07319" lon="5.54774">
        <ele>972</ele>
        <time>2010-01-01T01:49:33Z</time>
      </trkpt>
      <trkpt lat="45.07337" lon="5.54786">
        <ele>971</ele>
        <time>2010-01-01T01:49:41Z</time>
      </trkpt>
      <trkpt lat="45.07347" lon="5.54798">
        <ele>971</ele>
        <time>2010-01-01T01:49:46Z</time>
      </trkpt>
      <trkpt lat="45.07361" lon="5.54817">
        <ele>972</ele>
        <time>2010-01-01T01:49:54Z</time>
      </trkpt>
      <trkpt lat="45.07371" lon="5.54825">
        <ele>972</ele>
        <time>2010-01-01T01:49:58Z</time>
      </trkpt>
      <trkpt lat="45.07379" lon="5.54828">
        <ele>972</ele>
        <time>2010-01-01T01:50:02Z</time>
      </trkpt>
      <trkpt lat="45.07387" lon="5.54822">
        <ele>970</ele>
        <time>2010-01-01T01:50:05Z</time>
      </trkpt>
      <trkpt lat="45.07385" lon="5.54818">
        <ele>970</ele>
        <time>2010-01-01T01:50:07Z</time>
      </trkpt>
      <trkpt lat="45.07378" lon="5.54803">
        <ele>970</ele>
        <time>2010-01-01T01:50:12Z</time>
      </trkpt>
      <trkpt lat="45.07381" lon="5.54777">
        <ele>966</ele>
        <time>2010-01-01T01:50:19Z</time>
      </trkpt>
      <trkpt lat="45.07383" lon="5.54763">
        <ele>965</ele>
        <time>2010-01-01T01:50:23Z</time>
      </trkpt>
      <trkpt lat="45.07382" lon="5.54739">
        <ele>964</ele>
        <time>2010-01-01T01:50:30Z</time>
      </trkpt>
      <trkpt lat="45.07385" lon="5.54705">
        <ele>963</ele>
        <time>2010-01-01T01:50:40Z</time>
      </trkpt>
      <trkpt lat="45.0739" lon="5.54676">
        <ele>964</ele>
        <time>2010-01-01T01:50:48Z</time>
      </trkpt>
      <trkpt lat="45.07392" lon="5.54653">
        <ele>965</ele>
        <time>2010-01-01T01:50:55Z</time>
      </trkpt>
      <trkpt lat="45.07391" lon="5.54635">
        <ele>966</ele>
        <time>2010-01-01T01:51:00Z</time>
      </trkpt>
      <trkpt lat="45.07402" lon="5.54633">
        <ele>967</ele>
        <time>2010-01-01T01:51:04Z</time>
      </trkpt>
      <trkpt lat="45.07407" lon="5.5463">
        <ele>968</ele>
        <time>2010-01-01T01:51:06Z</time>
      </trkpt>
      <trkpt lat="45.07412" lon="5.54642">
        <ele>968</ele>
        <time>2010-01-01T01:51:10Z</time>
      </trkpt>
      <trkpt lat="45.07414" lon="5.54645">
        <ele>967</ele>
        <time>2010-01-01T01:51:11Z</time>
      </trkpt>
      <trkpt lat="45.07412" lon="5.54642">
        <ele>968</ele>
        <time>2010-01-01T01:51:13Z</time>
      </trkpt>
      <trkpt lat="45.07407" lon="5.5463">
        <ele>968</ele>
        <time>2010-01-01T01:51:17Z</time>
      </trkpt>
      <trkpt lat="45.07411" lon="5.54632">
        <ele>968</ele>
        <time>2010-01-01T01:51:18Z</time>
      </trkpt>
      <trkpt lat="45.07415" lon="5.54636">
        <ele>969</ele>
        <time>2010-01-01T01:51:20Z</time>
      </trkpt>
      <trkpt lat="45.07436" lon="5.54653">
        <ele>970</ele>
        <time>2010-01-01T01:51:30Z</time>
      </trkpt>
      <trkpt lat="45.0746" lon="5.54671">
        <ele>970</ele>
        <time>2010-01-01T01:51:41Z</time>
      </trkpt>
      <trkpt lat="45.07486" lon="5.54687">
        <ele>973</ele>
        <time>2010-01-01T01:51:52Z</time>
      </trkpt>
      <trkpt lat="45.07513" lon="5.547">
        <ele>972</ele>
        <time>2010-01-01T01:52:04Z</time>
      </trkpt>
      <trkpt lat="45.07536" lon="5.5471">
        <ele>970</ele>
        <time>2010-01-01T01:52:13Z</time>
      </trkpt>
      <trkpt lat="45.07549" lon="5.54714">
        <ele>971</ele>
        <time>2010-01-01T01:52:18Z</time>
      </trkpt>
      <trkpt lat="45.07554" lon="5.54716">
        <ele>972</ele>
        <time>2010-01-01T01:52:21Z</time>
      </trkpt>
      <trkpt lat="45.0756" lon="5.54718">
        <ele>972</ele>
        <time>2010-01-01T01:52:23Z</time>
      </trkpt>
      <trkpt lat="45.07566" lon="5.54721">
        <ele>973</ele>
        <time>2010-01-01T01:52:26Z</time>
      </trkpt>
      <trkpt lat="45.07573" lon="5.54722">
        <ele>975</ele>
        <time>2010-01-01T01:52:28Z</time>
      </trkpt>
      <trkpt lat="45.0758" lon="5.54725">
        <ele>976</ele>
        <time>2010-01-01T01:52:31Z</time>
      </trkpt>
      <trkpt lat="45.07587" lon="5.54728">
        <ele>977</ele>
        <time>2010-01-01T01:52:34Z</time>
      </trkpt>
      <trkpt lat="45.07594" lon="5.54731">
        <ele>978</ele>
        <time>2010-01-01T01:52:37Z</time>
      </trkpt>
      <trkpt lat="45.07602" lon="5.54735">
        <ele>979</ele>
        <time>2010-01-01T01:52:41Z</time>
      </trkpt>
      <trkpt lat="45.0761" lon="5.5474">
        <ele>979</ele>
        <time>2010-01-01T01:52:44Z</time>
      </trkpt>
      <trkpt lat="45.07632" lon="5.54751">
        <ele>982</ele>
        <time>2010-01-01T01:52:53Z</time>
      </trkpt>
      <trkpt lat="45.07655" lon="5.54762">
        <ele>985</ele>
        <time>2010-01-01T01:53:03Z</time>
      </trkpt>
      <trkpt lat="45.07669" lon="5.54769">
        <ele>986</ele>
        <time>2010-01-01T01:53:09Z</time>
      </trkpt>
      <trkpt lat="45.07684" lon="5.54776">
        <ele>984</ele>
        <time>2010-01-01T01:53:15Z</time>
      </trkpt>
      <trkpt lat="45.07716" lon="5.54792">
        <ele>978</ele>
        <time>2010-01-01T01:53:29Z</time>
      </trkpt>
      <trkpt lat="45.07734" lon="5.54802">
        <ele>976</ele>
        <time>2010-01-01T01:53:37Z</time>
      </trkpt>
      <trkpt lat="45.07748" lon="5.54809">
        <ele>975</ele>
        <time>2010-01-01T01:53:43Z</time>
      </trkpt>
      <trkpt lat="45.07761" lon="5.54815">
        <ele>976</ele>
        <time>2010-01-01T01:53:48Z</time>
      </trkpt>
      <trkpt lat="45.07772" lon="5.5482">
        <ele>976</ele>
        <time>2010-01-01T01:53:53Z</time>
      </trkpt>
      <trkpt lat="45.07782" lon="5.54824">
        <ele>977</ele>
        <time>2010-01-01T01:53:57Z</time>
      </trkpt>
      <trkpt lat="45.0779" lon="5.54827">
        <ele>976</ele>
        <time>2010-01-01T01:54:00Z</time>
      </trkpt>
      <trkpt lat="45.07797" lon="5.54831">
        <ele>975</ele>
        <time>2010-01-01T01:54:03Z</time>
      </trkpt>
      <trkpt lat="45.07803" lon="5.54834">
        <ele>974</ele>
        <time>2010-01-01T01:54:06Z</time>
      </trkpt>
      <trkpt lat="45.07811" lon="5.54836">
        <ele>974</ele>
        <time>2010-01-01T01:54:09Z</time>
      </trkpt>
      <trkpt lat="45.07819" lon="5.54838">
        <ele>974</ele>
        <time>2010-01-01T01:54:12Z</time>
      </trkpt>
      <trkpt lat="45.07827" lon="5.54841">
        <ele>973</ele>
        <time>2010-01-01T01:54:16Z</time>
      </trkpt>
      <trkpt lat="45.07833" lon="5.54843">
        <ele>973</ele>
        <time>2010-01-01T01:54:18Z</time>
      </trkpt>
      <trkpt lat="45.07841" lon="5.54844">
        <ele>974</ele>
        <time>2010-01-01T01:54:21Z</time>
      </trkpt>
      <trkpt lat="45.07849" lon="5.54848">
        <ele>974</ele>
        <time>2010-01-01T01:54:25Z</time>
      </trkpt>
      <trkpt lat="45.07858" lon="5.54852">
        <ele>974</ele>
        <time>2010-01-01T01:54:28Z</time>
      </trkpt>
      <trkpt lat="45.07864" lon="5.54854">
        <ele>975</ele>
        <time>2010-01-01T01:54:31Z</time>
      </trkpt>
      <trkpt lat="45.07872" lon="5.54856">
        <ele>975</ele>
        <time>2010-01-01T01:54:34Z</time>
      </trkpt>
      <trkpt lat="45.0788" lon="5.54858">
        <ele>975</ele>
        <time>2010-01-01T01:54:37Z</time>
      </trkpt>
      <trkpt lat="45.07881" lon="5.54859">
        <ele>975</ele>
        <time>2010-01-01T01:54:38Z</time>
      </trkpt>
      <trkpt lat="45.07889" lon="5.5486">
        <ele>976</ele>
        <time>2010-01-01T01:54:41Z</time>
      </trkpt>
      <trkpt lat="45.07896" lon="5.54861">
        <ele>978</ele>
        <time>2010-01-01T01:54:44Z</time>
      </trkpt>
      <trkpt lat="45.07922" lon="5.54859">
        <ele>987</ele>
        <time>2010-01-01T01:54:54Z</time>
      </trkpt>
      <trkpt lat="45.07946" lon="5.5486">
        <ele>989</ele>
        <time>2010-01-01T01:55:04Z</time>
      </trkpt>
      <trkpt lat="45.07967" lon="5.54862">
        <ele>987</ele>
        <time>2010-01-01T01:55:12Z</time>
      </trkpt>
      <trkpt lat="45.07991" lon="5.54866">
        <ele>985</ele>
        <time>2010-01-01T01:55:22Z</time>
      </trkpt>
      <trkpt lat="45.08005" lon="5.54869">
        <ele>986</ele>
        <time>2010-01-01T01:55:28Z</time>
      </trkpt>
      <trkpt lat="45.08023" lon="5.54874">
        <ele>987</ele>
        <time>2010-01-01T01:55:35Z</time>
      </trkpt>
      <trkpt lat="45.08036" lon="5.54877">
        <ele>990</ele>
        <time>2010-01-01T01:55:40Z</time>
      </trkpt>
      <trkpt lat="45.08044" lon="5.54882">
        <ele>990</ele>
        <time>2010-01-01T01:55:44Z</time>
      </trkpt>
      <trkpt lat="45.08052" lon="5.54885">
        <ele>990</ele>
        <time>2010-01-01T01:55:47Z</time>
      </trkpt>
      <trkpt lat="45.08061" lon="5.54888">
        <ele>992</ele>
        <time>2010-01-01T01:55:51Z</time>
      </trkpt>
      <trkpt lat="45.08069" lon="5.54892">
        <ele>992</ele>
        <time>2010-01-01T01:55:54Z</time>
      </trkpt>
      <trkpt lat="45.08075" lon="5.54896">
        <ele>993</ele>
        <time>2010-01-01T01:55:57Z</time>
      </trkpt>
      <trkpt lat="45.08082" lon="5.549">
        <ele>993</ele>
        <time>2010-01-01T01:56:00Z</time>
      </trkpt>
      <trkpt lat="45.0809" lon="5.54905">
        <ele>993</ele>
        <time>2010-01-01T01:56:03Z</time>
      </trkpt>
      <trkpt lat="45.08095" lon="5.5491">
        <ele>992</ele>
        <time>2010-01-01T01:56:06Z</time>
      </trkpt>
      <trkpt lat="45.08102" lon="5.54916">
        <ele>991</ele>
        <time>2010-01-01T01:56:09Z</time>
      </trkpt>
      <trkpt lat="45.08111" lon="5.54924">
        <ele>991</ele>
        <time>2010-01-01T01:56:13Z</time>
      </trkpt>
      <trkpt lat="45.08122" lon="5.54937">
        <ele>989</ele>
        <time>2010-01-01T01:56:19Z</time>
      </trkpt>
      <trkpt lat="45.08136" lon="5.54949">
        <ele>988</ele>
        <time>2010-01-01T01:56:26Z</time>
      </trkpt>
      <trkpt lat="45.08146" lon="5.54955">
        <ele>988</ele>
        <time>2010-01-01T01:56:30Z</time>
      </trkpt>
      <trkpt lat="45.08164" lon="5.54966">
        <ele>987</ele>
        <time>2010-01-01T01:56:38Z</time>
      </trkpt>
      <trkpt lat="45.08185" lon="5.54978">
        <ele>981</ele>
        <time>2010-01-01T01:56:47Z</time>
      </trkpt>
      <trkpt lat="45.08196" lon="5.54985">
        <ele>978</ele>
        <time>2010-01-01T01:56:52Z</time>
      </trkpt>
      <trkpt lat="45.08206" lon="5.54991">
        <ele>975</ele>
        <time>2010-01-01T01:56:56Z</time>
      </trkpt>
      <trkpt lat="45.08214" lon="5.54996">
        <ele>973</ele>
        <time>2010-01-01T01:57:00Z</time>
      </trkpt>
      <trkpt lat="45.08219" lon="5.55">
        <ele>971</ele>
        <time>2010-01-01T01:57:02Z</time>
      </trkpt>
      <trkpt lat="45.08226" lon="5.55004">
        <ele>970</ele>
        <time>2010-01-01T01:57:05Z</time>
      </trkpt>
      <trkpt lat="45.08233" lon="5.55007">
        <ele>971</ele>
        <time>2010-01-01T01:57:08Z</time>
      </trkpt>
      <trkpt lat="45.0824" lon="5.5501">
        <ele>972</ele>
        <time>2010-01-01T01:57:11Z</time>
      </trkpt>
      <trkpt lat="45.08247" lon="5.55014">
        <ele>972</ele>
        <time>2010-01-01T01:57:14Z</time>
      </trkpt>
      <trkpt lat="45.08254" lon="5.55016">
        <ele>974</ele>
        <time>2010-01-01T01:57:17Z</time>
      </trkpt>
      <trkpt lat="45.08261" lon="5.5502">
        <ele>975</ele>
        <time>2010-01-01T01:57:20Z</time>
      </trkpt>
      <trkpt lat="45.08268" lon="5.55022">
        <ele>976</ele>
        <time>2010-01-01T01:57:23Z</time>
      </trkpt>
      <trkpt lat="45.08275" lon="5.55025">
        <ele>977</ele>
        <time>2010-01-01T01:57:26Z</time>
      </trkpt>
      <trkpt lat="45.08281" lon="5.55028">
        <ele>977</ele>
        <time>2010-01-01T01:57:28Z</time>
      </trkpt>
      <trkpt lat="45.08287" lon="5.55031">
        <ele>977</ele>
        <time>2010-01-01T01:57:31Z</time>
      </trkpt>
      <trkpt lat="45.08293" lon="5.55034">
        <ele>976</ele>
        <time>2010-01-01T01:57:33Z</time>
      </trkpt>
      <trkpt lat="45.08298" lon="5.55037">
        <ele>976</ele>
        <time>2010-01-01T01:57:35Z</time>
      </trkpt>
      <trkpt lat="45.08303" lon="5.5504">
        <ele>976</ele>
        <time>2010-01-01T01:57:38Z</time>
      </trkpt>
      <trkpt lat="45.08308" lon="5.55044">
        <ele>975</ele>
        <time>2010-01-01T01:57:40Z</time>
      </trkpt>
      <trkpt lat="45.08312" lon="5.55047">
        <ele>974</ele>
        <time>2010-01-01T01:57:42Z</time>
      </trkpt>
      <trkpt lat="45.08316" lon="5.55049">
        <ele>974</ele>
        <time>2010-01-01T01:57:43Z</time>
      </trkpt>
      <trkpt lat="45.0832" lon="5.55052">
        <ele>973</ele>
        <time>2010-01-01T01:57:45Z</time>
      </trkpt>
      <trkpt lat="45.08325" lon="5.55054">
        <ele>973</ele>
        <time>2010-01-01T01:57:47Z</time>
      </trkpt>
      <trkpt lat="45.08329" lon="5.55057">
        <ele>972</ele>
        <time>2010-01-01T01:57:49Z</time>
      </trkpt>
      <trkpt lat="45.08333" lon="5.55059">
        <ele>972</ele>
        <time>2010-01-01T01:57:51Z</time>
      </trkpt>
      <trkpt lat="45.08339" lon="5.5506">
        <ele>972</ele>
        <time>2010-01-01T01:57:53Z</time>
      </trkpt>
      <trkpt lat="45.08352" lon="5.55061">
        <ele>971</ele>
        <time>2010-01-01T01:57:58Z</time>
      </trkpt>
      <trkpt lat="45.08364" lon="5.55062">
        <ele>971</ele>
        <time>2010-01-01T01:58:03Z</time>
      </trkpt>
      <trkpt lat="45.08375" lon="5.55062">
        <ele>972</ele>
        <time>2010-01-01T01:58:08Z</time>
      </trkpt>
      <trkpt lat="45.08379" lon="5.55062">
        <ele>972</ele>
        <time>2010-01-01T01:58:09Z</time>
      </trkpt>
      <trkpt lat="45.08392" lon="5.55068">
        <ele>972</ele>
        <time>2010-01-01T01:58:15Z</time>
      </trkpt>
      <trkpt lat="45.08405" lon="5.55072">
        <ele>973</ele>
        <time>2010-01-01T01:58:20Z</time>
      </trkpt>
      <trkpt lat="45.0841" lon="5.55074">
        <ele>973</ele>
        <time>2010-01-01T01:58:22Z</time>
      </trkpt>
      <trkpt lat="45.08414" lon="5.55075">
        <ele>973</ele>
        <time>2010-01-01T01:58:24Z</time>
      </trkpt>
      <trkpt lat="45.08419" lon="5.55077">
        <ele>973</ele>
        <time>2010-01-01T01:58:26Z</time>
      </trkpt>
      <trkpt lat="45.08424" lon="5.55078">
        <ele>973</ele>
        <time>2010-01-01T01:58:28Z</time>
      </trkpt>
      <trkpt lat="45.08428" lon="5.55079">
        <ele>974</ele>
        <time>2010-01-01T01:58:29Z</time>
      </trkpt>
      <trkpt lat="45.08434" lon="5.55079">
        <ele>975</ele>
        <time>2010-01-01T01:58:32Z</time>
      </trkpt>
      <trkpt lat="45.08439" lon="5.55079">
        <ele>975</ele>
        <time>2010-01-01T01:58:34Z</time>
      </trkpt>
      <trkpt lat="45.08445" lon="5.55079">
        <ele>976</ele>
        <time>2010-01-01T01:58:36Z</time>
      </trkpt>
      <trkpt lat="45.08452" lon="5.55078">
        <ele>977</ele>
        <time>2010-01-01T01:58:39Z</time>
      </trkpt>
      <trkpt lat="45.08457" lon="5.55078">
        <ele>977</ele>
        <time>2010-01-01T01:58:41Z</time>
      </trkpt>
      <trkpt lat="45.08461" lon="5.55078">
        <ele>978</ele>
        <time>2010-01-01T01:58:43Z</time>
      </trkpt>
      <trkpt lat="45.08468" lon="5.55078">
        <ele>978</ele>
        <time>2010-01-01T01:58:45Z</time>
      </trkpt>
      <trkpt lat="45.08474" lon="5.55079">
        <ele>978</ele>
        <time>2010-01-01T01:58:48Z</time>
      </trkpt>
      <trkpt lat="45.08481" lon="5.55079">
        <ele>978</ele>
        <time>2010-01-01T01:58:51Z</time>
      </trkpt>
      <trkpt lat="45.08486" lon="5.5508">
        <ele>978</ele>
        <time>2010-01-01T01:58:53Z</time>
      </trkpt>
      <trkpt lat="45.08494" lon="5.55082">
        <ele>977</ele>
        <time>2010-01-01T01:58:56Z</time>
      </trkpt>
      <trkpt lat="45.08496" lon="5.55082">
        <ele>977</ele>
        <time>2010-01-01T01:58:57Z</time>
      </trkpt>
      <trkpt lat="45.08503" lon="5.55084">
        <ele>976</ele>
        <time>2010-01-01T01:59:00Z</time>
      </trkpt>
      <trkpt lat="45.08504" lon="5.55096">
        <ele>975</ele>
        <time>2010-01-01T01:59:03Z</time>
      </trkpt>
      <trkpt lat="45.08504" lon="5.55101">
        <ele>975</ele>
        <time>2010-01-01T01:59:04Z</time>
      </trkpt>
      <trkpt lat="45.08504" lon="5.55109">
        <ele>974</ele>
        <time>2010-01-01T01:59:07Z</time>
      </trkpt>
      <trkpt lat="45.08506" lon="5.55124">
        <ele>973</ele>
        <time>2010-01-01T01:59:11Z</time>
      </trkpt>
      <trkpt lat="45.08507" lon="5.5513">
        <ele>972</ele>
        <time>2010-01-01T01:59:13Z</time>
      </trkpt>
      <trkpt lat="45.08507" lon="5.55136">
        <ele>972</ele>
        <time>2010-01-01T01:59:14Z</time>
      </trkpt>
      <trkpt lat="45.08508" lon="5.55143">
        <ele>972</ele>
        <time>2010-01-01T01:59:16Z</time>
      </trkpt>
      <trkpt lat="45.08509" lon="5.55148">
        <ele>972</ele>
        <time>2010-01-01T01:59:18Z</time>
      </trkpt>
      <trkpt lat="45.0851" lon="5.55152">
        <ele>972</ele>
        <time>2010-01-01T01:59:19Z</time>
      </trkpt>
      <trkpt lat="45.0851" lon="5.55158">
        <ele>972</ele>
        <time>2010-01-01T01:59:21Z</time>
      </trkpt>
      <trkpt lat="45.08511" lon="5.55164">
        <ele>972</ele>
        <time>2010-01-01T01:59:23Z</time>
      </trkpt>
      <trkpt lat="45.08511" lon="5.5517">
        <ele>972</ele>
        <time>2010-01-01T01:59:24Z</time>
      </trkpt>
      <trkpt lat="45.08512" lon="5.55175">
        <ele>972</ele>
        <time>2010-01-01T01:59:26Z</time>
      </trkpt>
      <trkpt lat="45.08512" lon="5.5518">
        <ele>972</ele>
        <time>2010-01-01T01:59:27Z</time>
      </trkpt>
      <trkpt lat="45.08512" lon="5.55181">
        <ele>972</ele>
        <time>2010-01-01T01:59:27Z</time>
      </trkpt>
      <trkpt lat="45.08512" lon="5.5518">
        <ele>972</ele>
        <time>2010-01-01T01:59:28Z</time>
      </trkpt>
      <trkpt lat="45.08512" lon="5.55175">
        <ele>972</ele>
        <time>2010-01-01T01:59:29Z</time>
      </trkpt>
      <trkpt lat="45.08518" lon="5.55173">
        <ele>972</ele>
        <time>2010-01-01T01:59:32Z</time>
      </trkpt>
      <trkpt lat="45.0852" lon="5.55173">
        <ele>972</ele>
        <time>2010-01-01T01:59:32Z</time>
      </trkpt>
      <trkpt lat="45.08523" lon="5.55174">
        <ele>972</ele>
        <time>2010-01-01T01:59:34Z</time>
      </trkpt>
      <trkpt lat="45.08525" lon="5.55175">
        <ele>972</ele>
        <time>2010-01-01T01:59:34Z</time>
      </trkpt>
      <trkpt lat="45.08527" lon="5.55176">
        <ele>972</ele>
        <time>2010-01-01T01:59:35Z</time>
      </trkpt>
      <trkpt lat="45.08529" lon="5.55178">
        <ele>972</ele>
        <time>2010-01-01T01:59:36Z</time>
      </trkpt>
      <trkpt lat="45.08537" lon="5.55186">
        <ele>973</ele>
        <time>2010-01-01T01:59:40Z</time>
      </trkpt>
      <trkpt lat="45.08551" lon="5.55201">
        <ele>973</ele>
        <time>2010-01-01T01:59:47Z</time>
      </trkpt>
      <trkpt lat="45.08559" lon="5.55206">
        <ele>973</ele>
        <time>2010-01-01T01:59:51Z</time>
      </trkpt>
      <trkpt lat="45.08565" lon="5.55211">
        <ele>973</ele>
        <time>2010-01-01T01:59:54Z</time>
      </trkpt>
      <trkpt lat="45.08572" lon="5.55216">
        <ele>973</ele>
        <time>2010-01-01T01:59:57Z</time>
      </trkpt>
      <trkpt lat="45.08579" lon="5.55221">
        <ele>973</ele>
        <time>2010-01-01T02:00:00Z</time>
      </trkpt>
      <trkpt lat="45.08585" lon="5.55226">
        <ele>972</ele>
        <time>2010-01-01T02:00:03Z</time>
      </trkpt>
      <trkpt lat="45.08591" lon="5.55229">
        <ele>972</ele>
        <time>2010-01-01T02:00:05Z</time>
      </trkpt>
      <trkpt lat="45.08597" lon="5.55231">
        <ele>972</ele>
        <time>2010-01-01T02:00:08Z</time>
      </trkpt>
      <trkpt lat="45.08601" lon="5.55232">
        <ele>973</ele>
        <time>2010-01-01T02:00:09Z</time>
      </trkpt>
      <trkpt lat="45.08607" lon="5.55232">
        <ele>973</ele>
        <time>2010-01-01T02:00:12Z</time>
      </trkpt>
      <trkpt lat="45.08611" lon="5.55231">
        <ele>973</ele>
        <time>2010-01-01T02:00:13Z</time>
      </trkpt>
      <trkpt lat="45.08618" lon="5.55229">
        <ele>973</ele>
        <time>2010-01-01T02:00:16Z</time>
      </trkpt>
      <trkpt lat="45.08624" lon="5.55227">
        <ele>973</ele>
        <time>2010-01-01T02:00:19Z</time>
      </trkpt>
      <trkpt lat="45.08629" lon="5.55225">
        <ele>973</ele>
        <time>2010-01-01T02:00:21Z</time>
      </trkpt>
      <trkpt lat="45.08633" lon="5.55224">
        <ele>973</ele>
        <time>2010-01-01T02:00:22Z</time>
      </trkpt>
      <trkpt lat="45.08637" lon="5.55224">
        <ele>973</ele>
        <time>2010-01-01T02:00:24Z</time>
      </trkpt>
      <trkpt lat="45.08641" lon="5.55225">
        <ele>974</ele>
        <time>2010-01-01T02:00:26Z</time>
      </trkpt>
      <trkpt lat="45.08644" lon="5.55226">
        <ele>974</ele>
        <time>2010-01-01T02:00:27Z</time>
      </trkpt>
      <trkpt lat="45.08647" lon="5.55228">
        <ele>974</ele>
        <time>2010-01-01T02:00:28Z</time>
      </trkpt>
      <trkpt lat="45.08649" lon="5.55232">
        <ele>974</ele>
        <time>2010-01-01T02:00:29Z</time>
      </trkpt>
      <trkpt lat="45.08659" lon="5.55232">
        <ele>974</ele>
        <time>2010-01-01T02:00:33Z</time>
      </trkpt>
      <trkpt lat="45.08664" lon="5.55231">
        <ele>974</ele>
        <time>2010-01-01T02:00:36Z</time>
      </trkpt>
      <trkpt lat="45.08669" lon="5.55231">
        <ele>974</ele>
        <time>2010-01-01T02:00:38Z</time>
      </trkpt>
      <trkpt lat="45.08675" lon="5.5523">
        <ele>974</ele>
        <time>2010-01-01T02:00:40Z</time>
      </trkpt>
      <trkpt lat="45.0868" lon="5.55229">
        <ele>974</ele>
        <time>2010-01-01T02:00:42Z</time>
      </trkpt>
      <trkpt lat="45.08685" lon="5.55227">
        <ele>974</ele>
        <time>2010-01-01T02:00:44Z</time>
      </trkpt>
      <trkpt lat="45.0869" lon="5.55227">
        <ele>974</ele>
        <time>2010-01-01T02:00:46Z</time>
      </trkpt>
      <trkpt lat="45.08694" lon="5.55226">
        <ele>974</ele>
        <time>2010-01-01T02:00:48Z</time>
      </trkpt>
      <trkpt lat="45.08697" lon="5.55225">
        <ele>974</ele>
        <time>2010-01-01T02:00:49Z</time>
      </trkpt>
      <trkpt lat="45.087" lon="5.55225">
        <ele>974</ele>
        <time>2010-01-01T02:00:50Z</time>
      </trkpt>
      <trkpt lat="45.08704" lon="5.55224">
        <ele>974</ele>
        <time>2010-01-01T02:00:52Z</time>
      </trkpt>
      <trkpt lat="45.08712" lon="5.55224">
        <ele>974</ele>
        <time>2010-01-01T02:00:55Z</time>
      </trkpt>
      <trkpt lat="45.08716" lon="5.55225">
        <ele>974</ele>
        <time>2010-01-01T02:00:57Z</time>
      </trkpt>
      <trkpt lat="45.08717" lon="5.55225">
        <ele>974</ele>
        <time>2010-01-01T02:00:57Z</time>
      </trkpt>
      <trkpt lat="45.08723" lon="5.55225">
        <ele>973</ele>
        <time>2010-01-01T02:00:59Z</time>
      </trkpt>
      <trkpt lat="45.08729" lon="5.55226">
        <ele>973</ele>
        <time>2010-01-01T02:01:02Z</time>
      </trkpt>
      <trkpt lat="45.08735" lon="5.55227">
        <ele>973</ele>
        <time>2010-01-01T02:01:04Z</time>
      </trkpt>
      <trkpt lat="45.08742" lon="5.55228">
        <ele>973</ele>
        <time>2010-01-01T02:01:07Z</time>
      </trkpt>
      <trkpt lat="45.08748" lon="5.5523">
        <ele>973</ele>
        <time>2010-01-01T02:01:09Z</time>
      </trkpt>
      <trkpt lat="45.08753" lon="5.55231">
        <ele>973</ele>
        <time>2010-01-01T02:01:11Z</time>
      </trkpt>
      <trkpt lat="45.08759" lon="5.55232">
        <ele>972</ele>
        <time>2010-01-01T02:01:14Z</time>
      </trkpt>
      <trkpt lat="45.08765" lon="5.55231">
        <ele>972</ele>
        <time>2010-01-01T02:01:16Z</time>
      </trkpt>
      <trkpt lat="45.08771" lon="5.5523">
        <ele>971</ele>
        <time>2010-01-01T02:01:19Z</time>
      </trkpt>
      <trkpt lat="45.08782" lon="5.55229">
        <ele>970</ele>
        <time>2010-01-01T02:01:23Z</time>
      </trkpt>
      <trkpt lat="45.08794" lon="5.55228">
        <ele>970</ele>
        <time>2010-01-01T02:01:28Z</time>
      </trkpt>
      <trkpt lat="45.08808" lon="5.55229">
        <ele>971</ele>
        <time>2010-01-01T02:01:34Z</time>
      </trkpt>
      <trkpt lat="45.08822" lon="5.5523">
        <ele>973</ele>
        <time>2010-01-01T02:01:39Z</time>
      </trkpt>
      <trkpt lat="45.08833" lon="5.5523">
        <ele>976</ele>
        <time>2010-01-01T02:01:44Z</time>
      </trkpt>
      <trkpt lat="45.08847" lon="5.55229">
        <ele>976</ele>
        <time>2010-01-01T02:01:49Z</time>
      </trkpt>
      <trkpt lat="45.08861" lon="5.55224">
        <ele>976</ele>
        <time>2010-01-01T02:01:55Z</time>
      </trkpt>
      <trkpt lat="45.08868" lon="5.55219">
        <ele>977</ele>
        <time>2010-01-01T02:01:58Z</time>
      </trkpt>
      <trkpt lat="45.08874" lon="5.55219">
        <ele>977</ele>
        <time>2010-01-01T02:02:01Z</time>
      </trkpt>
      <trkpt lat="45.08877" lon="5.55219">
        <ele>977</ele>
        <time>2010-01-01T02:02:02Z</time>
      </trkpt>
      <trkpt lat="45.08879" lon="5.55215">
        <ele>977</ele>
        <time>2010-01-01T02:02:03Z</time>
      </trkpt>
      <trkpt lat="45.08881" lon="5.55211">
        <ele>978</ele>
        <time>2010-01-01T02:02:04Z</time>
      </trkpt>
      <trkpt lat="45.08884" lon="5.55208">
        <ele>978</ele>
        <time>2010-01-01T02:02:06Z</time>
      </trkpt>
      <trkpt lat="45.08885" lon="5.55207">
        <ele>979</ele>
        <time>2010-01-01T02:02:06Z</time>
      </trkpt>
      <trkpt lat="45.08888" lon="5.55202">
        <ele>979</ele>
        <time>2010-01-01T02:02:08Z</time>
      </trkpt>
      <trkpt lat="45.08891" lon="5.55197">
        <ele>980</ele>
        <time>2010-01-01T02:02:10Z</time>
      </trkpt>
      <trkpt lat="45.08894" lon="5.5519">
        <ele>981</ele>
        <time>2010-01-01T02:02:12Z</time>
      </trkpt>
      <trkpt lat="45.08899" lon="5.55175">
        <ele>984</ele>
        <time>2010-01-01T02:02:17Z</time>
      </trkpt>
      <trkpt lat="45.08902" lon="5.5517">
        <ele>985</ele>
        <time>2010-01-01T02:02:19Z</time>
      </trkpt>
      <trkpt lat="45.08904" lon="5.55166">
        <ele>986</ele>
        <time>2010-01-01T02:02:20Z</time>
      </trkpt>
      <trkpt lat="45.08906" lon="5.55163">
        <ele>987</ele>
        <time>2010-01-01T02:02:22Z</time>
      </trkpt>
      <trkpt lat="45.08908" lon="5.55162">
        <ele>987</ele>
        <time>2010-01-01T02:02:22Z</time>
      </trkpt>
      <trkpt lat="45.0891" lon="5.5516">
        <ele>987</ele>
        <time>2010-01-01T02:02:23Z</time>
      </trkpt>
      <trkpt lat="45.08914" lon="5.55158">
        <ele>988</ele>
        <time>2010-01-01T02:02:25Z</time>
      </trkpt>
      <trkpt lat="45.08917" lon="5.55157">
        <ele>988</ele>
        <time>2010-01-01T02:02:26Z</time>
      </trkpt>
      <trkpt lat="45.08922" lon="5.55156">
        <ele>989</ele>
        <time>2010-01-01T02:02:28Z</time>
      </trkpt>
      <trkpt lat="45.08927" lon="5.55154">
        <ele>990</ele>
        <time>2010-01-01T02:02:30Z</time>
      </trkpt>
      <trkpt lat="45.08931" lon="5.55154">
        <ele>990</ele>
        <time>2010-01-01T02:02:32Z</time>
      </trkpt>
      <trkpt lat="45.08935" lon="5.55153">
        <ele>991</ele>
        <time>2010-01-01T02:02:34Z</time>
      </trkpt>
      <trkpt lat="45.08939" lon="5.55152">
        <ele>991</ele>
        <time>2010-01-01T02:02:35Z</time>
      </trkpt>
      <trkpt lat="45.08943" lon="5.5515">
        <ele>992</ele>
        <time>2010-01-01T02:02:37Z</time>
      </trkpt>
      <trkpt lat="45.08946" lon="5.55148">
        <ele>993</ele>
        <time>2010-01-01T02:02:38Z</time>
      </trkpt>
      <trkpt lat="45.08949" lon="5.55146">
        <ele>994</ele>
        <time>2010-01-01T02:02:40Z</time>
      </trkpt>
      <trkpt lat="45.08952" lon="5.55144">
        <ele>995</ele>
        <time>2010-01-01T02:02:41Z</time>
      </trkpt>
      <trkpt lat="45.08955" lon="5.55141">
        <ele>997</ele>
        <time>2010-01-01T02:02:42Z</time>
      </trkpt>
      <trkpt lat="45.08957" lon="5.55138">
        <ele>999</ele>
        <time>2010-01-01T02:02:44Z</time>
      </trkpt>
      <trkpt lat="45.08958" lon="5.55136">
        <ele>1000</ele>
        <time>2010-01-01T02:02:44Z</time>
      </trkpt>
      <trkpt lat="45.08958" lon="5.55132">
        <ele>1002</ele>
        <time>2010-01-01T02:02:45Z</time>
      </trkpt>
      <trkpt lat="45.08958" lon="5.55127">
        <ele>1004</ele>
        <time>2010-01-01T02:02:47Z</time>
      </trkpt>
      <trkpt lat="45.08956" lon="5.55122">
        <ele>1006</ele>
        <time>2010-01-01T02:02:48Z</time>
      </trkpt>
      <trkpt lat="45.08956" lon="5.55117">
        <ele>1008</ele>
        <time>2010-01-01T02:02:50Z</time>
      </trkpt>
      <trkpt lat="45.08956" lon="5.55112">
        <ele>1011</ele>
        <time>2010-01-01T02:02:51Z</time>
      </trkpt>
      <trkpt lat="45.08957" lon="5.55108">
        <ele>1013</ele>
        <time>2010-01-01T02:02:52Z</time>
      </trkpt>
      <trkpt lat="45.08958" lon="5.55104">
        <ele>1014</ele>
        <time>2010-01-01T02:02:54Z</time>
      </trkpt>
      <trkpt lat="45.0896" lon="5.55099">
        <ele>1017</ele>
        <time>2010-01-01T02:02:55Z</time>
      </trkpt>
      <trkpt lat="45.08961" lon="5.55094">
        <ele>1019</ele>
        <time>2010-01-01T02:02:57Z</time>
      </trkpt>
      <trkpt lat="45.08961" lon="5.55088">
        <ele>1021</ele>
        <time>2010-01-01T02:02:58Z</time>
      </trkpt>
      <trkpt lat="45.08962" lon="5.55083">
        <ele>1023</ele>
        <time>2010-01-01T02:03:00Z</time>
      </trkpt>
      <trkpt lat="45.08962" lon="5.55078">
        <ele>1024</ele>
        <time>2010-01-01T02:03:01Z</time>
      </trkpt>
      <trkpt lat="45.08962" lon="5.55075">
        <ele>1025</ele>
        <time>2010-01-01T02:03:02Z</time>
      </trkpt>
      <trkpt lat="45.08961" lon="5.5507">
        <ele>1026</ele>
        <time>2010-01-01T02:03:04Z</time>
      </trkpt>
      <trkpt lat="45.08961" lon="5.55068">
        <ele>1026</ele>
        <time>2010-01-01T02:03:04Z</time>
      </trkpt>
      <trkpt lat="45.08961" lon="5.55062">
        <ele>1028</ele>
        <time>2010-01-01T02:03:06Z</time>
      </trkpt>
      <trkpt lat="45.0896" lon="5.55049">
        <ele>1030</ele>
        <time>2010-01-01T02:03:10Z</time>
      </trkpt>
      <trkpt lat="45.08967" lon="5.55008">
        <ele>1043</ele>
        <time>2010-01-01T02:03:22Z</time>
      </trkpt>
      <trkpt lat="45.08982" lon="5.54985">
        <ele>1057</ele>
        <time>2010-01-01T02:03:30Z</time>
      </trkpt>
      <trkpt lat="45.09078" lon="5.54983">
        <ele>1082</ele>
        <time>2010-01-01T02:04:09Z</time>
      </trkpt>
      <trkpt lat="45.09184" lon="5.54988">
        <ele>1093</ele>
        <time>2010-01-01T02:04:51Z</time>
      </trkpt>
      <trkpt lat="45.09222" lon="5.54976">
        <ele>1100</ele>
        <time>2010-01-01T02:05:07Z</time>
      </trkpt>
      <trkpt lat="45.09278" lon="5.54913">
        <ele>1108</ele>
        <time>2010-01-01T02:05:36Z</time>
      </trkpt>
      <trkpt lat="45.09282" lon="5.5491">
        <ele>1109</ele>
        <time>2010-01-01T02:05:37Z</time>
      </trkpt>
      <trkpt lat="45.09283" lon="5.54797">
        <ele>1141</ele>
        <time>2010-01-01T02:06:09Z</time>
      </trkpt>
      <trkpt lat="45.09293" lon="5.5475">
        <ele>1153</ele>
        <time>2010-01-01T02:06:23Z</time>
      </trkpt>
      <trkpt lat="45.09322" lon="5.54745">
        <ele>1158</ele>
        <time>2010-01-01T02:06:35Z</time>
      </trkpt>
      <trkpt lat="45.0936" lon="5.5477">
        <ele>1158</ele>
        <time>2010-01-01T02:06:52Z</time>
      </trkpt>
      <trkpt lat="45.09396" lon="5.54739">
        <ele>1171</ele>
        <time>2010-01-01T02:07:08Z</time>
      </trkpt>
      <trkpt lat="45.09425" lon="5.5473">
        <ele>1176</ele>
        <time>2010-01-01T02:07:20Z</time>
      </trkpt>
      <trkpt lat="45.09468" lon="5.54648">
        <ele>1203</ele>
        <time>2010-01-01T02:07:49Z</time>
      </trkpt>
      <trkpt lat="45.09472" lon="5.5455">
        <ele>1230</ele>
        <time>2010-01-01T02:08:17Z</time>
      </trkpt>
      <trkpt lat="45.09504" lon="5.5454">
        <ele>1234</ele>
        <time>2010-01-01T02:08:30Z</time>
      </trkpt>
      <trkpt lat="45.09519" lon="5.54545">
        <ele>1233</ele>
        <time>2010-01-01T02:08:36Z</time>
      </trkpt>
      <trkpt lat="45.09585" lon="5.54552">
        <ele>1233</ele>
        <time>2010-01-01T02:09:03Z</time>
      </trkpt>
      <trkpt lat="45.0966" lon="5.54624">
        <ele>1219</ele>
        <time>2010-01-01T02:09:39Z</time>
      </trkpt>
      <trkpt lat="45.09697" lon="5.54634">
        <ele>1219</ele>
        <time>2010-01-01T02:09:54Z</time>
      </trkpt>
      <trkpt lat="45.09724" lon="5.54673">
        <ele>1208</ele>
        <time>2010-01-01T02:10:10Z</time>
      </trkpt>
      <trkpt lat="45.09744" lon="5.54678">
        <ele>1206</ele>
        <time>2010-01-01T02:10:18Z</time>
      </trkpt>
      <trkpt lat="45.09794" lon="5.54737">
        <ele>1187</ele>
        <time>2010-01-01T02:10:44Z</time>
      </trkpt>
      <trkpt lat="45.09794" lon="5.54774">
        <ele>1179</ele>
        <time>2010-01-01T02:10:54Z</time>
      </trkpt>
      <trkpt lat="45.09816" lon="5.54751">
        <ele>1183</ele>
        <time>2010-01-01T02:11:05Z</time>
      </trkpt>
      <trkpt lat="45.09806" lon="5.54698">
        <ele>1198</ele>
        <time>2010-01-01T02:11:21Z</time>
      </trkpt>
      <trkpt lat="45.09785" lon="5.5466">
        <ele>1209</ele>
        <time>2010-01-01T02:11:34Z</time>
      </trkpt>
      <trkpt lat="45.09858" lon="5.54527">
        <ele>1218</ele>
        <time>2010-01-01T02:12:22Z</time>
      </trkpt>
      <trkpt lat="45.09875" lon="5.54512">
        <ele>1221</ele>
        <time>2010-01-01T02:12:30Z</time>
      </trkpt>
      <trkpt lat="45.09893" lon="5.54522">
        <ele>1220</ele>
        <time>2010-01-01T02:12:38Z</time>
      </trkpt>
      <trkpt lat="45.09902" lon="5.54553">
        <ele>1213</ele>
        <time>2010-01-01T02:12:47Z</time>
      </trkpt>
      <trkpt lat="45.09917" lon="5.54628">
        <ele>1204</ele>
        <time>2010-01-01T02:13:09Z</time>
      </trkpt>
      <trkpt lat="45.09937" lon="5.5464">
        <ele>1204</ele>
        <time>2010-01-01T02:13:18Z</time>
      </trkpt>
      <trkpt lat="45.10015" lon="5.54652">
        <ele>1207</ele>
        <time>2010-01-01T02:13:49Z</time>
      </trkpt>
      <trkpt lat="45.10078" lon="5.54678">
        <ele>1197</ele>
        <time>2010-01-01T02:14:15Z</time>
      </trkpt>
      <trkpt lat="45.1018" lon="5.54647">
        <ele>1192</ele>
        <time>2010-01-01T02:14:57Z</time>
      </trkpt>
      <trkpt lat="45.10222" lon="5.54689">
        <ele>1190</ele>
        <time>2010-01-01T02:15:18Z</time>
      </trkpt>
      <trkpt lat="45.10246" lon="5.54785">
        <ele>1188</ele>
        <time>2010-01-01T02:15:47Z</time>
      </trkpt>
      <trkpt lat="45.10293" lon="5.54773">
        <ele>1198</ele>
        <time>2010-01-01T02:16:06Z</time>
      </trkpt>
      <trkpt lat="45.10305" lon="5.54703">
        <ele>1201</ele>
        <time>2010-01-01T02:16:26Z</time>
      </trkpt>
      <trkpt lat="45.10351" lon="5.54649">
        <ele>1203</ele>
        <time>2010-01-01T02:16:50Z</time>
      </trkpt>
      <trkpt lat="45.10427" lon="5.54612">
        <ele>1208</ele>
        <time>2010-01-01T02:17:22Z</time>
      </trkpt>
      <trkpt lat="45.10546" lon="5.5462">
        <ele>1218</ele>
        <time>2010-01-01T02:18:10Z</time>
      </trkpt>
      <trkpt lat="45.10611" lon="5.54609">
        <ele>1219</ele>
        <time>2010-01-01T02:18:36Z</time>
      </trkpt>
      <trkpt lat="45.10625" lon="5.54616">
        <ele>1219</ele>
        <time>2010-01-01T02:18:42Z</time>
      </trkpt>
      <trkpt lat="45.10631" lon="5.54616">
        <ele>1219</ele>
        <time>2010-01-01T02:18:44Z</time>
      </trkpt>
      <trkpt lat="45.10639" lon="5.54616">
        <ele>1220</ele>
        <time>2010-01-01T02:18:48Z</time>
      </trkpt>
      <trkpt lat="45.10647" lon="5.54616">
        <ele>1220</ele>
        <time>2010-01-01T02:18:51Z</time>
      </trkpt>
      <trkpt lat="45.10654" lon="5.54616">
        <ele>1220</ele>
        <time>2010-01-01T02:18:54Z</time>
      </trkpt>
      <trkpt lat="45.1066" lon="5.54616">
        <ele>1220</ele>
        <time>2010-01-01T02:18:56Z</time>
      </trkpt>
      <trkpt lat="45.10666" lon="5.54615">
        <ele>1220</ele>
        <time>2010-01-01T02:18:58Z</time>
      </trkpt>
      <trkpt lat="45.10672" lon="5.54614">
        <ele>1219</ele>
        <time>2010-01-01T02:19:01Z</time>
      </trkpt>
      <trkpt lat="45.10679" lon="5.54613">
        <ele>1219</ele>
        <time>2010-01-01T02:19:04Z</time>
      </trkpt>
      <trkpt lat="45.10687" lon="5.54613">
        <ele>1219</ele>
        <time>2010-01-01T02:19:07Z</time>
      </trkpt>
      <trkpt lat="45.10694" lon="5.54613">
        <ele>1219</ele>
        <time>2010-01-01T02:19:10Z</time>
      </trkpt>
      <trkpt lat="45.107" lon="5.54613">
        <ele>1218</ele>
        <time>2010-01-01T02:19:12Z</time>
      </trkpt>
      <trkpt lat="45.10706" lon="5.54613">
        <ele>1218</ele>
        <time>2010-01-01T02:19:14Z</time>
      </trkpt>
      <trkpt lat="45.10711" lon="5.54615">
        <ele>1218</ele>
        <time>2010-01-01T02:19:17Z</time>
      </trkpt>
      <trkpt lat="45.10716" lon="5.54616">
        <ele>1217</ele>
        <time>2010-01-01T02:19:19Z</time>
      </trkpt>
      <trkpt lat="45.10744" lon="5.54631">
        <ele>1216</ele>
        <time>2010-01-01T02:19:31Z</time>
      </trkpt>
      <trkpt lat="45.10762" lon="5.54635">
        <ele>1215</ele>
        <time>2010-01-01T02:19:38Z</time>
      </trkpt>
      <trkpt lat="45.10772" lon="5.54637">
        <ele>1214</ele>
        <time>2010-01-01T02:19:42Z</time>
      </trkpt>
      <trkpt lat="45.10788" lon="5.54634">
        <ele>1212</ele>
        <time>2010-01-01T02:19:48Z</time>
      </trkpt>
      <trkpt lat="45.10802" lon="5.54628">
        <ele>1210</ele>
        <time>2010-01-01T02:19:54Z</time>
      </trkpt>
      <trkpt lat="45.10816" lon="5.54616">
        <ele>1207</ele>
        <time>2010-01-01T02:20:01Z</time>
      </trkpt>
      <trkpt lat="45.10846" lon="5.54585">
        <ele>1200</ele>
        <time>2010-01-01T02:20:16Z</time>
      </trkpt>
      <trkpt lat="45.10882" lon="5.54552">
        <ele>1197</ele>
        <time>2010-01-01T02:20:33Z</time>
      </trkpt>
      <trkpt lat="45.10927" lon="5.54519">
        <ele>1198</ele>
        <time>2010-01-01T02:20:53Z</time>
      </trkpt>
      <trkpt lat="45.10973" lon="5.54492">
        <ele>1195</ele>
        <time>2010-01-01T02:21:13Z</time>
      </trkpt>
      <trkpt lat="45.11015" lon="5.54467">
        <ele>1195</ele>
        <time>2010-01-01T02:21:31Z</time>
      </trkpt>
      <trkpt lat="45.11086" lon="5.54431">
        <ele>1190</ele>
        <time>2010-01-01T02:22:01Z</time>
      </trkpt>
      <trkpt lat="45.11104" lon="5.54408">
        <ele>1185</ele>
        <time>2010-01-01T02:22:11Z</time>
      </trkpt>
      <trkpt lat="45.11118" lon="5.5439">
        <ele>1181</ele>
        <time>2010-01-01T02:22:19Z</time>
      </trkpt>
      <trkpt lat="45.11123" lon="5.54377">
        <ele>1179</ele>
        <time>2010-01-01T02:22:23Z</time>
      </trkpt>
      <trkpt lat="45.11125" lon="5.54365">
        <ele>1177</ele>
        <time>2010-01-01T02:22:26Z</time>
      </trkpt>
      <trkpt lat="45.11123" lon="5.54352">
        <ele>1176</ele>
        <time>2010-01-01T02:22:30Z</time>
      </trkpt>
      <trkpt lat="45.11118" lon="5.5433">
        <ele>1174</ele>
        <time>2010-01-01T02:22:37Z</time>
      </trkpt>
      <trkpt lat="45.11115" lon="5.54314">
        <ele>1172</ele>
        <time>2010-01-01T02:22:41Z</time>
      </trkpt>
      <trkpt lat="45.11117" lon="5.54293">
        <ele>1168</ele>
        <time>2010-01-01T02:22:47Z</time>
      </trkpt>
      <trkpt lat="45.11123" lon="5.54288">
        <ele>1167</ele>
        <time>2010-01-01T02:22:50Z</time>
      </trkpt>
      <trkpt lat="45.11133" lon="5.54284">
        <ele>1166</ele>
        <time>2010-01-01T02:22:54Z</time>
      </trkpt>
      <trkpt lat="45.1114" lon="5.54279">
        <ele>1165</ele>
        <time>2010-01-01T02:22:57Z</time>
      </trkpt>
      <trkpt lat="45.11148" lon="5.54264">
        <ele>1163</ele>
        <time>2010-01-01T02:23:03Z</time>
      </trkpt>
      <trkpt lat="45.11154" lon="5.54237">
        <ele>1160</ele>
        <time>2010-01-01T02:23:11Z</time>
      </trkpt>
      <trkpt lat="45.11159" lon="5.54207">
        <ele>1157</ele>
        <time>2010-01-01T02:23:19Z</time>
      </trkpt>
      <trkpt lat="45.11163" lon="5.54181">
        <ele>1154</ele>
        <time>2010-01-01T02:23:27Z</time>
      </trkpt>
      <trkpt lat="45.11167" lon="5.54153">
        <ele>1149</ele>
        <time>2010-01-01T02:23:35Z</time>
      </trkpt>
      <trkpt lat="45.11173" lon="5.54118">
        <ele>1142</ele>
        <time>2010-01-01T02:23:45Z</time>
      </trkpt>
      <trkpt lat="45.11174" lon="5.54096">
        <ele>1137</ele>
        <time>2010-01-01T02:23:51Z</time>
      </trkpt>
      <trkpt lat="45.11175" lon="5.54075">
        <ele>1131</ele>
        <time>2010-01-01T02:23:57Z</time>
      </trkpt>
      <trkpt lat="45.11177" lon="5.54064">
        <ele>1129</ele>
        <time>2010-01-01T02:24:01Z</time>
      </trkpt>
      <trkpt lat="45.11182" lon="5.54056">
        <ele>1128</ele>
        <time>2010-01-01T02:24:04Z</time>
      </trkpt>
      <trkpt lat="45.11189" lon="5.54049">
        <ele>1127</ele>
        <time>2010-01-01T02:24:07Z</time>
      </trkpt>
      <trkpt lat="45.11205" lon="5.54038">
        <ele>1123</ele>
        <time>2010-01-01T02:24:14Z</time>
      </trkpt>
      <trkpt lat="45.11216" lon="5.54029">
        <ele>1120</ele>
        <time>2010-01-01T02:24:19Z</time>
      </trkpt>
      <trkpt lat="45.11222" lon="5.54024">
        <ele>1119</ele>
        <time>2010-01-01T02:24:22Z</time>
      </trkpt>
      <trkpt lat="45.11226" lon="5.54017">
        <ele>1117</ele>
        <time>2010-01-01T02:24:25Z</time>
      </trkpt>
      <trkpt lat="45.11228" lon="5.5401">
        <ele>1115</ele>
        <time>2010-01-01T02:24:27Z</time>
      </trkpt>
      <trkpt lat="45.11232" lon="5.53993">
        <ele>1112</ele>
        <time>2010-01-01T02:24:32Z</time>
      </trkpt>
      <trkpt lat="45.1124" lon="5.53985">
        <ele>1110</ele>
        <time>2010-01-01T02:24:36Z</time>
      </trkpt>
      <trkpt lat="45.11243" lon="5.53977">
        <ele>1108</ele>
        <time>2010-01-01T02:24:38Z</time>
      </trkpt>
      <trkpt lat="45.11245" lon="5.53968">
        <ele>1106</ele>
        <time>2010-01-01T02:24:41Z</time>
      </trkpt>
      <trkpt lat="45.11249" lon="5.53949">
        <ele>1103</ele>
        <time>2010-01-01T02:24:46Z</time>
      </trkpt>
      <trkpt lat="45.11253" lon="5.5393">
        <ele>1099</ele>
        <time>2010-01-01T02:24:52Z</time>
      </trkpt>
      <trkpt lat="45.11257" lon="5.53917">
        <ele>1095</ele>
        <time>2010-01-01T02:24:56Z</time>
      </trkpt>
      <trkpt lat="45.11263" lon="5.53907">
        <ele>1091</ele>
        <time>2010-01-01T02:25:00Z</time>
      </trkpt>
      <trkpt lat="45.11268" lon="5.539">
        <ele>1089</ele>
        <time>2010-01-01T02:25:03Z</time>
      </trkpt>
      <trkpt lat="45.11274" lon="5.53896">
        <ele>1087</ele>
        <time>2010-01-01T02:25:05Z</time>
      </trkpt>
      <trkpt lat="45.11285" lon="5.53891">
        <ele>1086</ele>
        <time>2010-01-01T02:25:10Z</time>
      </trkpt>
      <trkpt lat="45.11288" lon="5.53886">
        <ele>1085</ele>
        <time>2010-01-01T02:25:12Z</time>
      </trkpt>
      <trkpt lat="45.1129" lon="5.5388">
        <ele>1084</ele>
        <time>2010-01-01T02:25:14Z</time>
      </trkpt>
      <trkpt lat="45.11294" lon="5.53872">
        <ele>1082</ele>
        <time>2010-01-01T02:25:16Z</time>
      </trkpt>
      <trkpt lat="45.11302" lon="5.53864">
        <ele>1081</ele>
        <time>2010-01-01T02:25:20Z</time>
      </trkpt>
      <trkpt lat="45.1131" lon="5.53854">
        <ele>1079</ele>
        <time>2010-01-01T02:25:25Z</time>
      </trkpt>
      <trkpt lat="45.11316" lon="5.53843">
        <ele>1076</ele>
        <time>2010-01-01T02:25:28Z</time>
      </trkpt>
      <trkpt lat="45.11322" lon="5.5383">
        <ele>1074</ele>
        <time>2010-01-01T02:25:33Z</time>
      </trkpt>
      <trkpt lat="45.11325" lon="5.53816">
        <ele>1071</ele>
        <time>2010-01-01T02:25:37Z</time>
      </trkpt>
      <trkpt lat="45.11327" lon="5.53809">
        <ele>1070</ele>
        <time>2010-01-01T02:25:39Z</time>
      </trkpt>
      <trkpt lat="45.11328" lon="5.53803">
        <ele>1069</ele>
        <time>2010-01-01T02:25:41Z</time>
      </trkpt>
      <trkpt lat="45.11326" lon="5.538">
        <ele>1068</ele>
        <time>2010-01-01T02:25:42Z</time>
      </trkpt>
      <trkpt lat="45.11321" lon="5.53795">
        <ele>1067</ele>
        <time>2010-01-01T02:25:44Z</time>
      </trkpt>
      <trkpt lat="45.11319" lon="5.5379">
        <ele>1066</ele>
        <time>2010-01-01T02:25:46Z</time>
      </trkpt>
      <trkpt lat="45.11317" lon="5.53782">
        <ele>1064</ele>
        <time>2010-01-01T02:25:48Z</time>
      </trkpt>
      <trkpt lat="45.11318" lon="5.53772">
        <ele>1062</ele>
        <time>2010-01-01T02:25:51Z</time>
      </trkpt>
      <trkpt lat="45.11318" lon="5.53764">
        <ele>1060</ele>
        <time>2010-01-01T02:25:54Z</time>
      </trkpt>
      <trkpt lat="45.11317" lon="5.53762">
        <ele>1060</ele>
        <time>2010-01-01T02:25:54Z</time>
      </trkpt>
      <trkpt lat="45.11316" lon="5.5376">
        <ele>1059</ele>
        <time>2010-01-01T02:25:55Z</time>
      </trkpt>
      <trkpt lat="45.11314" lon="5.53759">
        <ele>1059</ele>
        <time>2010-01-01T02:25:56Z</time>
      </trkpt>
      <trkpt lat="45.11311" lon="5.53758">
        <ele>1058</ele>
        <time>2010-01-01T02:25:57Z</time>
      </trkpt>
      <trkpt lat="45.11313" lon="5.53754">
        <ele>1058</ele>
        <time>2010-01-01T02:25:58Z</time>
      </trkpt>
      <trkpt lat="45.11317" lon="5.5375">
        <ele>1057</ele>
        <time>2010-01-01T02:26:00Z</time>
      </trkpt>
      <trkpt lat="45.1132" lon="5.53744">
        <ele>1055</ele>
        <time>2010-01-01T02:26:02Z</time>
      </trkpt>
      <trkpt lat="45.11323" lon="5.53737">
        <ele>1054</ele>
        <time>2010-01-01T02:26:05Z</time>
      </trkpt>
      <trkpt lat="45.11324" lon="5.53731">
        <ele>1052</ele>
        <time>2010-01-01T02:26:07Z</time>
      </trkpt>
      <trkpt lat="45.11323" lon="5.53724">
        <ele>1050</ele>
        <time>2010-01-01T02:26:09Z</time>
      </trkpt>
      <trkpt lat="45.11319" lon="5.5372">
        <ele>1049</ele>
        <time>2010-01-01T02:26:11Z</time>
      </trkpt>
      <trkpt lat="45.11315" lon="5.53718">
        <ele>1048</ele>
        <time>2010-01-01T02:26:12Z</time>
      </trkpt>
      <trkpt lat="45.11312" lon="5.53714">
        <ele>1046</ele>
        <time>2010-01-01T02:26:14Z</time>
      </trkpt>
      <trkpt lat="45.11316" lon="5.53695">
        <ele>1042</ele>
        <time>2010-01-01T02:26:19Z</time>
      </trkpt>
      <trkpt lat="45.11321" lon="5.53685">
        <ele>1040</ele>
        <time>2010-01-01T02:26:23Z</time>
      </trkpt>
      <trkpt lat="45.11328" lon="5.53679">
        <ele>1039</ele>
        <time>2010-01-01T02:26:26Z</time>
      </trkpt>
      <trkpt lat="45.11334" lon="5.53676">
        <ele>1039</ele>
        <time>2010-01-01T02:26:29Z</time>
      </trkpt>
      <trkpt lat="45.11344" lon="5.53669">
        <ele>1036</ele>
        <time>2010-01-01T02:26:33Z</time>
      </trkpt>
      <trkpt lat="45.11365" lon="5.53661">
        <ele>1030</ele>
        <time>2010-01-01T02:26:42Z</time>
      </trkpt>
      <trkpt lat="45.11394" lon="5.53654">
        <ele>1021</ele>
        <time>2010-01-01T02:26:54Z</time>
      </trkpt>
      <trkpt lat="45.11422" lon="5.53649">
        <ele>1014</ele>
        <time>2010-01-01T02:27:05Z</time>
      </trkpt>
      <trkpt lat="45.11436" lon="5.53645">
        <ele>1011</ele>
        <time>2010-01-01T02:27:11Z</time>
      </trkpt>
      <trkpt lat="45.11445" lon="5.53645">
        <ele>1010</ele>
        <time>2010-01-01T02:27:14Z</time>
      </trkpt>
      <trkpt lat="45.11451" lon="5.53647">
        <ele>1009</ele>
        <time>2010-01-01T02:27:17Z</time>
      </trkpt>
      <trkpt lat="45.1146" lon="5.53651">
        <ele>1007</ele>
        <time>2010-01-01T02:27:21Z</time>
      </trkpt>
      <trkpt lat="45.11469" lon="5.5366">
        <ele>1007</ele>
        <time>2010-01-01T02:27:25Z</time>
      </trkpt>
      <trkpt lat="45.11486" lon="5.53676">
        <ele>1004</ele>
        <time>2010-01-01T02:27:33Z</time>
      </trkpt>
      <trkpt lat="45.11497" lon="5.53681">
        <ele>1000</ele>
        <time>2010-01-01T02:27:38Z</time>
      </trkpt>
      <trkpt lat="45.11506" lon="5.53684">
        <ele>998</ele>
        <time>2010-01-01T02:27:41Z</time>
      </trkpt>
      <trkpt lat="45.11515" lon="5.53685">
        <ele>996</ele>
        <time>2010-01-01T02:27:45Z</time>
      </trkpt>
      <trkpt lat="45.11523" lon="5.53684">
        <ele>994</ele>
        <time>2010-01-01T02:27:48Z</time>
      </trkpt>
      <trkpt lat="45.11532" lon="5.53681">
        <ele>993</ele>
        <time>2010-01-01T02:27:52Z</time>
      </trkpt>
      <trkpt lat="45.11538" lon="5.5368">
        <ele>992</ele>
        <time>2010-01-01T02:27:54Z</time>
      </trkpt>
      <trkpt lat="45.11545" lon="5.53678">
        <ele>992</ele>
        <time>2010-01-01T02:27:57Z</time>
      </trkpt>
      <trkpt lat="45.11554" lon="5.53676">
        <ele>991</ele>
        <time>2010-01-01T02:28:01Z</time>
      </trkpt>
      <trkpt lat="45.11558" lon="5.53675">
        <ele>990</ele>
        <time>2010-01-01T02:28:03Z</time>
      </trkpt>
      <trkpt lat="45.11566" lon="5.53676">
        <ele>990</ele>
        <time>2010-01-01T02:28:06Z</time>
      </trkpt>
      <trkpt lat="45.11578" lon="5.53675">
        <ele>990</ele>
        <time>2010-01-01T02:28:11Z</time>
      </trkpt>
      <trkpt lat="45.11589" lon="5.53675">
        <ele>989</ele>
        <time>2010-01-01T02:28:15Z</time>
      </trkpt>
      <trkpt lat="45.116" lon="5.53677">
        <ele>987</ele>
        <time>2010-01-01T02:28:19Z</time>
      </trkpt>
      <trkpt lat="45.11607" lon="5.53678">
        <ele>986</ele>
        <time>2010-01-01T02:28:22Z</time>
      </trkpt>
      <trkpt lat="45.11613" lon="5.5368">
        <ele>984</ele>
        <time>2010-01-01T02:28:25Z</time>
      </trkpt>
      <trkpt lat="45.11618" lon="5.53681">
        <ele>983</ele>
        <time>2010-01-01T02:28:27Z</time>
      </trkpt>
      <trkpt lat="45.11623" lon="5.53684">
        <ele>981</ele>
        <time>2010-01-01T02:28:29Z</time>
      </trkpt>
      <trkpt lat="45.11629" lon="5.53687">
        <ele>979</ele>
        <time>2010-01-01T02:28:31Z</time>
      </trkpt>
      <trkpt lat="45.11634" lon="5.53689">
        <ele>978</ele>
        <time>2010-01-01T02:28:34Z</time>
      </trkpt>
      <trkpt lat="45.11638" lon="5.53692">
        <ele>977</ele>
        <time>2010-01-01T02:28:35Z</time>
      </trkpt>
      <trkpt lat="45.11648" lon="5.53696">
        <ele>977</ele>
        <time>2010-01-01T02:28:39Z</time>
      </trkpt>
      <trkpt lat="45.1166" lon="5.53702">
        <ele>976</ele>
        <time>2010-01-01T02:28:45Z</time>
      </trkpt>
      <trkpt lat="45.11665" lon="5.53705">
        <ele>976</ele>
        <time>2010-01-01T02:28:47Z</time>
      </trkpt>
      <trkpt lat="45.11668" lon="5.53709">
        <ele>976</ele>
        <time>2010-01-01T02:28:48Z</time>
      </trkpt>
      <trkpt lat="45.11673" lon="5.53712">
        <ele>976</ele>
        <time>2010-01-01T02:28:51Z</time>
      </trkpt>
      <trkpt lat="45.11676" lon="5.53715">
        <ele>976</ele>
        <time>2010-01-01T02:28:52Z</time>
      </trkpt>
      <trkpt lat="45.11681" lon="5.5372">
        <ele>976</ele>
        <time>2010-01-01T02:28:55Z</time>
      </trkpt>
      <trkpt lat="45.11691" lon="5.53714">
        <ele>976</ele>
        <time>2010-01-01T02:28:59Z</time>
      </trkpt>
      <trkpt lat="45.11701" lon="5.53713">
        <ele>975</ele>
        <time>2010-01-01T02:29:03Z</time>
      </trkpt>
      <trkpt lat="45.11707" lon="5.53712">
        <ele>975</ele>
        <time>2010-01-01T02:29:05Z</time>
      </trkpt>
      <trkpt lat="45.11718" lon="5.53712">
        <ele>975</ele>
        <time>2010-01-01T02:29:10Z</time>
      </trkpt>
      <trkpt lat="45.11732" lon="5.53714">
        <ele>974</ele>
        <time>2010-01-01T02:29:15Z</time>
      </trkpt>
      <trkpt lat="45.11754" lon="5.53722">
        <ele>972</ele>
        <time>2010-01-01T02:29:24Z</time>
      </trkpt>
      <trkpt lat="45.11785" lon="5.53734">
        <ele>973</ele>
        <time>2010-01-01T02:29:37Z</time>
      </trkpt>
      <trkpt lat="45.11821" lon="5.5375">
        <ele>973</ele>
        <time>2010-01-01T02:29:52Z</time>
      </trkpt>
      <trkpt lat="45.11858" lon="5.53765">
        <ele>974</ele>
        <time>2010-01-01T02:30:08Z</time>
      </trkpt>
      <trkpt lat="45.11869" lon="5.53768">
        <ele>974</ele>
        <time>2010-01-01T02:30:12Z</time>
      </trkpt>
      <trkpt lat="45.11879" lon="5.53755">
        <ele>974</ele>
        <time>2010-01-01T02:30:18Z</time>
      </trkpt>
      <trkpt lat="45.11893" lon="5.53735">
        <ele>974</ele>
        <time>2010-01-01T02:30:26Z</time>
      </trkpt>
      <trkpt lat="45.11911" lon="5.53708">
        <ele>973</ele>
        <time>2010-01-01T02:30:36Z</time>
      </trkpt>
      <trkpt lat="45.11927" lon="5.53728">
        <ele>974</ele>
        <time>2010-01-01T02:30:45Z</time>
      </trkpt>
      <trkpt lat="45.11928" lon="5.53729">
        <ele>974</ele>
        <time>2010-01-01T02:30:45Z</time>
      </trkpt>
      <trkpt lat="45.1194" lon="5.5374">
        <ele>974</ele>
        <time>2010-01-01T02:30:51Z</time>
      </trkpt>
      <trkpt lat="45.11956" lon="5.53751">
        <ele>974</ele>
        <time>2010-01-01T02:30:58Z</time>
      </trkpt>
      <trkpt lat="45.11966" lon="5.53762">
        <ele>974</ele>
        <time>2010-01-01T02:31:03Z</time>
      </trkpt>
      <trkpt lat="45.11981" lon="5.53776">
        <ele>975</ele>
        <time>2010-01-01T02:31:10Z</time>
      </trkpt>
      <trkpt lat="45.11984" lon="5.53778">
        <ele>975</ele>
        <time>2010-01-01T02:31:12Z</time>
      </trkpt>
      <trkpt lat="45.11994" lon="5.53783">
        <ele>975</ele>
        <time>2010-01-01T02:31:16Z</time>
      </trkpt>
      <trkpt lat="45.12008" lon="5.53791">
        <ele>976</ele>
        <time>2010-01-01T02:31:22Z</time>
      </trkpt>
      <trkpt lat="45.12028" lon="5.53802">
        <ele>978</ele>
        <time>2010-01-01T02:31:30Z</time>
      </trkpt>
      <trkpt lat="45.12033" lon="5.53804">
        <ele>978</ele>
        <time>2010-01-01T02:31:33Z</time>
      </trkpt>
      <trkpt lat="45.12041" lon="5.53806">
        <ele>978</ele>
        <time>2010-01-01T02:31:36Z</time>
      </trkpt>
      <trkpt lat="45.12048" lon="5.53807">
        <ele>978</ele>
        <time>2010-01-01T02:31:39Z</time>
      </trkpt>
      <trkpt lat="45.12059" lon="5.53808">
        <ele>979</ele>
        <time>2010-01-01T02:31:43Z</time>
      </trkpt>
      <trkpt lat="45.12067" lon="5.53809">
        <ele>979</ele>
        <time>2010-01-01T02:31:46Z</time>
      </trkpt>
      <trkpt lat="45.12077" lon="5.5381">
        <ele>979</ele>
        <time>2010-01-01T02:31:50Z</time>
      </trkpt>
      <trkpt lat="45.12093" lon="5.53811">
        <ele>980</ele>
        <time>2010-01-01T02:31:57Z</time>
      </trkpt>
      <trkpt lat="45.12109" lon="5.53812">
        <ele>980</ele>
        <time>2010-01-01T02:32:03Z</time>
      </trkpt>
      <trkpt lat="45.12118" lon="5.53814">
        <ele>978</ele>
        <time>2010-01-01T02:32:07Z</time>
      </trkpt>
      <trkpt lat="45.12128" lon="5.53817">
        <ele>977</ele>
        <time>2010-01-01T02:32:11Z</time>
      </trkpt>
      <trkpt lat="45.12139" lon="5.5382">
        <ele>974</ele>
        <time>2010-01-01T02:32:15Z</time>
      </trkpt>
      <trkpt lat="45.12149" lon="5.53822">
        <ele>972</ele>
        <time>2010-01-01T02:32:19Z</time>
      </trkpt>
      <trkpt lat="45.12162" lon="5.53824">
        <ele>969</ele>
        <time>2010-01-01T02:32:25Z</time>
      </trkpt>
      <trkpt lat="45.12173" lon="5.53825">
        <ele>968</ele>
        <time>2010-01-01T02:32:29Z</time>
      </trkpt>
      <trkpt lat="45.12193" lon="5.53826">
        <ele>967</ele>
        <time>2010-01-01T02:32:37Z</time>
      </trkpt>
      <trkpt lat="45.12216" lon="5.53828">
        <ele>970</ele>
        <time>2010-01-01T02:32:46Z</time>
      </trkpt>
      <trkpt lat="45.12233" lon="5.53829">
        <ele>972</ele>
        <time>2010-01-01T02:32:53Z</time>
      </trkpt>
      <trkpt lat="45.1224" lon="5.53831">
        <ele>974</ele>
        <time>2010-01-01T02:32:56Z</time>
      </trkpt>
      <trkpt lat="45.12246" lon="5.53833">
        <ele>976</ele>
        <time>2010-01-01T02:32:58Z</time>
      </trkpt>
      <trkpt lat="45.12254" lon="5.53836">
        <ele>977</ele>
        <time>2010-01-01T02:33:02Z</time>
      </trkpt>
      <trkpt lat="45.12262" lon="5.5384">
        <ele>977</ele>
        <time>2010-01-01T02:33:05Z</time>
      </trkpt>
      <trkpt lat="45.1227" lon="5.53846">
        <ele>977</ele>
        <time>2010-01-01T02:33:09Z</time>
      </trkpt>
      <trkpt lat="45.12282" lon="5.53857">
        <ele>978</ele>
        <time>2010-01-01T02:33:14Z</time>
      </trkpt>
      <trkpt lat="45.12288" lon="5.53861">
        <ele>979</ele>
        <time>2010-01-01T02:33:17Z</time>
      </trkpt>
      <trkpt lat="45.12294" lon="5.53865">
        <ele>979</ele>
        <time>2010-01-01T02:33:20Z</time>
      </trkpt>
      <trkpt lat="45.12299" lon="5.53867">
        <ele>979</ele>
        <time>2010-01-01T02:33:22Z</time>
      </trkpt>
      <trkpt lat="45.12306" lon="5.53869">
        <ele>980</ele>
        <time>2010-01-01T02:33:25Z</time>
      </trkpt>
      <trkpt lat="45.12313" lon="5.5387">
        <ele>981</ele>
        <time>2010-01-01T02:33:27Z</time>
      </trkpt>
      <trkpt lat="45.12319" lon="5.5387">
        <ele>982</ele>
        <time>2010-01-01T02:33:30Z</time>
      </trkpt>
      <trkpt lat="45.12326" lon="5.5387">
        <ele>983</ele>
        <time>2010-01-01T02:33:33Z</time>
      </trkpt>
      <trkpt lat="45.12335" lon="5.53868">
        <ele>984</ele>
        <time>2010-01-01T02:33:36Z</time>
      </trkpt>
      <trkpt lat="45.12342" lon="5.53866">
        <ele>986</ele>
        <time>2010-01-01T02:33:39Z</time>
      </trkpt>
      <trkpt lat="45.12353" lon="5.53863">
        <ele>988</ele>
        <time>2010-01-01T02:33:44Z</time>
      </trkpt>
      <trkpt lat="45.12367" lon="5.53858">
        <ele>990</ele>
        <time>2010-01-01T02:33:49Z</time>
      </trkpt>
      <trkpt lat="45.12402" lon="5.53848">
        <ele>992</ele>
        <time>2010-01-01T02:34:04Z</time>
      </trkpt>
      <trkpt lat="45.12427" lon="5.53842">
        <ele>992</ele>
        <time>2010-01-01T02:34:14Z</time>
      </trkpt>
      <trkpt lat="45.12447" lon="5.53839">
        <ele>991</ele>
        <time>2010-01-01T02:34:22Z</time>
      </trkpt>
      <trkpt lat="45.12456" lon="5.53838">
        <ele>991</ele>
        <time>2010-01-01T02:34:26Z</time>
      </trkpt>
      <trkpt lat="45.12465" lon="5.53838">
        <ele>990</ele>
        <time>2010-01-01T02:34:29Z</time>
      </trkpt>
      <trkpt lat="45.12483" lon="5.53838">
        <ele>990</ele>
        <time>2010-01-01T02:34:36Z</time>
      </trkpt>
      <trkpt lat="45.125" lon="5.53838">
        <ele>990</ele>
        <time>2010-01-01T02:34:43Z</time>
      </trkpt>
      <trkpt lat="45.12516" lon="5.53839">
        <ele>991</ele>
        <time>2010-01-01T02:34:50Z</time>
      </trkpt>
      <trkpt lat="45.12523" lon="5.5384">
        <ele>991</ele>
        <time>2010-01-01T02:34:52Z</time>
      </trkpt>
      <trkpt lat="45.12526" lon="5.5384">
        <ele>991</ele>
        <time>2010-01-01T02:34:54Z</time>
      </trkpt>
      <trkpt lat="45.12526" lon="5.53831">
        <ele>991</ele>
        <time>2010-01-01T02:34:56Z</time>
      </trkpt>
      <trkpt lat="45.12527" lon="5.53812">
        <ele>990</ele>
        <time>2010-01-01T02:35:02Z</time>
      </trkpt>
      <trkpt lat="45.12527" lon="5.53784">
        <ele>987</ele>
        <time>2010-01-01T02:35:09Z</time>
      </trkpt>
      <trkpt lat="45.12528" lon="5.53754">
        <ele>986</ele>
        <time>2010-01-01T02:35:18Z</time>
      </trkpt>
      <trkpt lat="45.1253" lon="5.53727">
        <ele>986</ele>
        <time>2010-01-01T02:35:26Z</time>
      </trkpt>
      <trkpt lat="45.12532" lon="5.53706">
        <ele>985</ele>
        <time>2010-01-01T02:35:32Z</time>
      </trkpt>
      <trkpt lat="45.12532" lon="5.53699">
        <ele>985</ele>
        <time>2010-01-01T02:35:34Z</time>
      </trkpt>
      <trkpt lat="45.12534" lon="5.53692">
        <ele>985</ele>
        <time>2010-01-01T02:35:36Z</time>
      </trkpt>
      <trkpt lat="45.12535" lon="5.53685">
        <ele>985</ele>
        <time>2010-01-01T02:35:38Z</time>
      </trkpt>
      <trkpt lat="45.12539" lon="5.53672">
        <ele>984</ele>
        <time>2010-01-01T02:35:42Z</time>
      </trkpt>
      <trkpt lat="45.12544" lon="5.53659">
        <ele>984</ele>
        <time>2010-01-01T02:35:46Z</time>
      </trkpt>
      <trkpt lat="45.12546" lon="5.53652">
        <ele>984</ele>
        <time>2010-01-01T02:35:48Z</time>
      </trkpt>
      <trkpt lat="45.12546" lon="5.53645">
        <ele>984</ele>
        <time>2010-01-01T02:35:50Z</time>
      </trkpt>
      <trkpt lat="45.12546" lon="5.53637">
        <ele>983</ele>
        <time>2010-01-01T02:35:52Z</time>
      </trkpt>
      <trkpt lat="45.12547" lon="5.53623">
        <ele>982</ele>
        <time>2010-01-01T02:35:56Z</time>
      </trkpt>
      <trkpt lat="45.12547" lon="5.5361">
        <ele>981</ele>
        <time>2010-01-01T02:36:00Z</time>
      </trkpt>
      <trkpt lat="45.12549" lon="5.53597">
        <ele>980</ele>
        <time>2010-01-01T02:36:04Z</time>
      </trkpt>
      <trkpt lat="45.12554" lon="5.53569">
        <ele>979</ele>
        <time>2010-01-01T02:36:12Z</time>
      </trkpt>
      <trkpt lat="45.12556" lon="5.53557">
        <ele>979</ele>
        <time>2010-01-01T02:36:15Z</time>
      </trkpt>
      <trkpt lat="45.12557" lon="5.53545">
        <ele>978</ele>
        <time>2010-01-01T02:36:19Z</time>
      </trkpt>
      <trkpt lat="45.12557" lon="5.53533">
        <ele>977</ele>
        <time>2010-01-01T02:36:22Z</time>
      </trkpt>
      <trkpt lat="45.1256" lon="5.5351">
        <ele>975</ele>
        <time>2010-01-01T02:36:29Z</time>
      </trkpt>
      <trkpt lat="45.12563" lon="5.53484">
        <ele>973</ele>
        <time>2010-01-01T02:36:36Z</time>
      </trkpt>
      <trkpt lat="45.12565" lon="5.5347">
        <ele>973</ele>
        <time>2010-01-01T02:36:40Z</time>
      </trkpt>
      <trkpt lat="45.12567" lon="5.53459">
        <ele>973</ele>
        <time>2010-01-01T02:36:43Z</time>
      </trkpt>
      <trkpt lat="45.1257" lon="5.5345">
        <ele>974</ele>
        <time>2010-01-01T02:36:46Z</time>
      </trkpt>
      <trkpt lat="45.12573" lon="5.53443">
        <ele>974</ele>
        <time>2010-01-01T02:36:49Z</time>
      </trkpt>
      <trkpt lat="45.12579" lon="5.53429">
        <ele>973</ele>
        <time>2010-01-01T02:36:53Z</time>
      </trkpt>
      <trkpt lat="45.12586" lon="5.53412">
        <ele>972</ele>
        <time>2010-01-01T02:36:59Z</time>
      </trkpt>
      <trkpt lat="45.12598" lon="5.53386">
        <ele>969</ele>
        <time>2010-01-01T02:37:07Z</time>
      </trkpt>
      <trkpt lat="45.12612" lon="5.53363">
        <ele>968</ele>
        <time>2010-01-01T02:37:16Z</time>
      </trkpt>
      <trkpt lat="45.12613" lon="5.53361">
        <ele>968</ele>
        <time>2010-01-01T02:37:17Z</time>
      </trkpt>
      <trkpt lat="45.1262" lon="5.53347">
        <ele>968</ele>
        <time>2010-01-01T02:37:22Z</time>
      </trkpt>
      <trkpt lat="45.12629" lon="5.53327">
        <ele>968</ele>
        <time>2010-01-01T02:37:28Z</time>
      </trkpt>
      <trkpt lat="45.12632" lon="5.53319">
        <ele>968</ele>
        <time>2010-01-01T02:37:31Z</time>
      </trkpt>
      <trkpt lat="45.12635" lon="5.5331">
        <ele>968</ele>
        <time>2010-01-01T02:37:34Z</time>
      </trkpt>
      <trkpt lat="45.12638" lon="5.53301">
        <ele>967</ele>
        <time>2010-01-01T02:37:36Z</time>
      </trkpt>
      <trkpt lat="45.12641" lon="5.53286">
        <ele>966</ele>
        <time>2010-01-01T02:37:41Z</time>
      </trkpt>
      <trkpt lat="45.12645" lon="5.53263">
        <ele>967</ele>
        <time>2010-01-01T02:37:48Z</time>
      </trkpt>
      <trkpt lat="45.12645" lon="5.53256">
        <ele>967</ele>
        <time>2010-01-01T02:37:50Z</time>
      </trkpt>
      <trkpt lat="45.12645" lon="5.53249">
        <ele>967</ele>
        <time>2010-01-01T02:37:52Z</time>
      </trkpt>
      <trkpt lat="45.12643" lon="5.5324">
        <ele>968</ele>
        <time>2010-01-01T02:37:54Z</time>
      </trkpt>
      <trkpt lat="45.12642" lon="5.53233">
        <ele>968</ele>
        <time>2010-01-01T02:37:56Z</time>
      </trkpt>
      <trkpt lat="45.12643" lon="5.53227">
        <ele>968</ele>
        <time>2010-01-01T02:37:58Z</time>
      </trkpt>
      <trkpt lat="45.12645" lon="5.53223">
        <ele>968</ele>
        <time>2010-01-01T02:37:59Z</time>
      </trkpt>
      <trkpt lat="45.12648" lon="5.5322">
        <ele>968</ele>
        <time>2010-01-01T02:38:01Z</time>
      </trkpt>
      <trkpt lat="45.12652" lon="5.53214">
        <ele>968</ele>
        <time>2010-01-01T02:38:03Z</time>
      </trkpt>
      <trkpt lat="45.12656" lon="5.5321">
        <ele>968</ele>
        <time>2010-01-01T02:38:05Z</time>
      </trkpt>
      <trkpt lat="45.12663" lon="5.53203">
        <ele>967</ele>
        <time>2010-01-01T02:38:09Z</time>
      </trkpt>
      <trkpt lat="45.1267" lon="5.53193">
        <ele>967</ele>
        <time>2010-01-01T02:38:13Z</time>
      </trkpt>
      <trkpt lat="45.12677" lon="5.53182">
        <ele>967</ele>
        <time>2010-01-01T02:38:17Z</time>
      </trkpt>
      <trkpt lat="45.12679" lon="5.53177">
        <ele>967</ele>
        <time>2010-01-01T02:38:18Z</time>
      </trkpt>
      <trkpt lat="45.1268" lon="5.53172">
        <ele>967</ele>
        <time>2010-01-01T02:38:20Z</time>
      </trkpt>
      <trkpt lat="45.12681" lon="5.53167">
        <ele>967</ele>
        <time>2010-01-01T02:38:21Z</time>
      </trkpt>
      <trkpt lat="45.12681" lon="5.53162">
        <ele>968</ele>
        <time>2010-01-01T02:38:23Z</time>
      </trkpt>
      <trkpt lat="45.12681" lon="5.53155">
        <ele>968</ele>
        <time>2010-01-01T02:38:25Z</time>
      </trkpt>
      <trkpt lat="45.1268" lon="5.53147">
        <ele>969</ele>
        <time>2010-01-01T02:38:27Z</time>
      </trkpt>
      <trkpt lat="45.12676" lon="5.53124">
        <ele>971</ele>
        <time>2010-01-01T02:38:34Z</time>
      </trkpt>
      <trkpt lat="45.12673" lon="5.53109">
        <ele>972</ele>
        <time>2010-01-01T02:38:38Z</time>
      </trkpt>
      <trkpt lat="45.12672" lon="5.531">
        <ele>973</ele>
        <time>2010-01-01T02:38:41Z</time>
      </trkpt>
      <trkpt lat="45.12672" lon="5.53092">
        <ele>974</ele>
        <time>2010-01-01T02:38:43Z</time>
      </trkpt>
      <trkpt lat="45.12672" lon="5.53084">
        <ele>974</ele>
        <time>2010-01-01T02:38:45Z</time>
      </trkpt>
      <trkpt lat="45.12673" lon="5.53076">
        <ele>974</ele>
        <time>2010-01-01T02:38:47Z</time>
      </trkpt>
      <trkpt lat="45.12675" lon="5.53061">
        <ele>974</ele>
        <time>2010-01-01T02:38:52Z</time>
      </trkpt>
      <trkpt lat="45.12679" lon="5.53041">
        <ele>974</ele>
        <time>2010-01-01T02:38:58Z</time>
      </trkpt>
      <trkpt lat="45.12683" lon="5.53026">
        <ele>974</ele>
        <time>2010-01-01T02:39:02Z</time>
      </trkpt>
      <trkpt lat="45.12685" lon="5.5302">
        <ele>974</ele>
        <time>2010-01-01T02:39:04Z</time>
      </trkpt>
      <trkpt lat="45.12686" lon="5.53016">
        <ele>975</ele>
        <time>2010-01-01T02:39:05Z</time>
      </trkpt>
      <trkpt lat="45.12691" lon="5.53002">
        <ele>975</ele>
        <time>2010-01-01T02:39:10Z</time>
      </trkpt>
      <trkpt lat="45.12695" lon="5.52994">
        <ele>975</ele>
        <time>2010-01-01T02:39:12Z</time>
      </trkpt>
      <trkpt lat="45.12697" lon="5.52985">
        <ele>975</ele>
        <time>2010-01-01T02:39:15Z</time>
      </trkpt>
      <trkpt lat="45.12699" lon="5.52976">
        <ele>976</ele>
        <time>2010-01-01T02:39:18Z</time>
      </trkpt>
      <trkpt lat="45.12701" lon="5.5296">
        <ele>977</ele>
        <time>2010-01-01T02:39:22Z</time>
      </trkpt>
      <trkpt lat="45.12703" lon="5.52939">
        <ele>978</ele>
        <time>2010-01-01T02:39:28Z</time>
      </trkpt>
      <trkpt lat="45.12705" lon="5.52915">
        <ele>979</ele>
        <time>2010-01-01T02:39:35Z</time>
      </trkpt>
      <trkpt lat="45.12705" lon="5.52899">
        <ele>981</ele>
        <time>2010-01-01T02:39:40Z</time>
      </trkpt>
      <trkpt lat="45.12705" lon="5.52886">
        <ele>983</ele>
        <time>2010-01-01T02:39:43Z</time>
      </trkpt>
      <trkpt lat="45.12705" lon="5.52873">
        <ele>985</ele>
        <time>2010-01-01T02:39:47Z</time>
      </trkpt>
      <trkpt lat="45.12704" lon="5.52862">
        <ele>986</ele>
        <time>2010-01-01T02:39:50Z</time>
      </trkpt>
      <trkpt lat="45.12702" lon="5.52852">
        <ele>986</ele>
        <time>2010-01-01T02:39:53Z</time>
      </trkpt>
      <trkpt lat="45.127" lon="5.52838">
        <ele>986</ele>
        <time>2010-01-01T02:39:57Z</time>
      </trkpt>
      <trkpt lat="45.127" lon="5.52836">
        <ele>986</ele>
        <time>2010-01-01T02:39:58Z</time>
      </trkpt>
      <trkpt lat="45.12699" lon="5.52826">
        <ele>986</ele>
        <time>2010-01-01T02:40:01Z</time>
      </trkpt>
      <trkpt lat="45.12697" lon="5.52821">
        <ele>986</ele>
        <time>2010-01-01T02:40:02Z</time>
      </trkpt>
      <trkpt lat="45.12694" lon="5.52806">
        <ele>986</ele>
        <time>2010-01-01T02:40:07Z</time>
      </trkpt>
      <trkpt lat="45.12689" lon="5.52789">
        <ele>987</ele>
        <time>2010-01-01T02:40:12Z</time>
      </trkpt>
      <trkpt lat="45.12686" lon="5.52779">
        <ele>988</ele>
        <time>2010-01-01T02:40:15Z</time>
      </trkpt>
      <trkpt lat="45.1268" lon="5.52765">
        <ele>991</ele>
        <time>2010-01-01T02:40:19Z</time>
      </trkpt>
      <trkpt lat="45.12726" lon="5.52688">
        <ele>990</ele>
        <time>2010-01-01T02:40:48Z</time>
      </trkpt>
      <trkpt lat="45.12653" lon="5.5272">
        <ele>998</ele>
        <time>2010-01-01T02:41:19Z</time>
      </trkpt>
      <trkpt lat="45.12633" lon="5.52652">
        <ele>1000</ele>
        <time>2010-01-01T02:41:39Z</time>
      </trkpt>
      <trkpt lat="45.12599" lon="5.52588">
        <ele>1001</ele>
        <time>2010-01-01T02:42:02Z</time>
      </trkpt>
      <trkpt lat="45.12595" lon="5.52529">
        <ele>1004</ele>
        <time>2010-01-01T02:42:19Z</time>
      </trkpt>
      <trkpt lat="45.12587" lon="5.52517">
        <ele>1004</ele>
        <time>2010-01-01T02:42:23Z</time>
      </trkpt>
      <trkpt lat="45.12581" lon="5.52509">
        <ele>1005</ele>
        <time>2010-01-01T02:42:27Z</time>
      </trkpt>
      <trkpt lat="45.12574" lon="5.52498">
        <ele>1005</ele>
        <time>2010-01-01T02:42:31Z</time>
      </trkpt>
      <trkpt lat="45.12568" lon="5.52482">
        <ele>1007</ele>
        <time>2010-01-01T02:42:36Z</time>
      </trkpt>
      <trkpt lat="45.12565" lon="5.52474">
        <ele>1007</ele>
        <time>2010-01-01T02:42:39Z</time>
      </trkpt>
      <trkpt lat="45.12562" lon="5.52465">
        <ele>1008</ele>
        <time>2010-01-01T02:42:41Z</time>
      </trkpt>
      <trkpt lat="45.12556" lon="5.52452">
        <ele>1010</ele>
        <time>2010-01-01T02:42:46Z</time>
      </trkpt>
      <trkpt lat="45.12551" lon="5.52443">
        <ele>1012</ele>
        <time>2010-01-01T02:42:49Z</time>
      </trkpt>
      <trkpt lat="45.1255" lon="5.52441">
        <ele>1012</ele>
        <time>2010-01-01T02:42:50Z</time>
      </trkpt>
      <trkpt lat="45.12543" lon="5.52426">
        <ele>1013</ele>
        <time>2010-01-01T02:42:55Z</time>
      </trkpt>
      <trkpt lat="45.12538" lon="5.5241">
        <ele>1015</ele>
        <time>2010-01-01T02:43:00Z</time>
      </trkpt>
      <trkpt lat="45.12534" lon="5.52399">
        <ele>1016</ele>
        <time>2010-01-01T02:43:03Z</time>
      </trkpt>
      <trkpt lat="45.1253" lon="5.52387">
        <ele>1017</ele>
        <time>2010-01-01T02:43:07Z</time>
      </trkpt>
      <trkpt lat="45.12526" lon="5.52374">
        <ele>1018</ele>
        <time>2010-01-01T02:43:11Z</time>
      </trkpt>
      <trkpt lat="45.1252" lon="5.5236">
        <ele>1019</ele>
        <time>2010-01-01T02:43:16Z</time>
      </trkpt>
      <trkpt lat="45.12515" lon="5.52352">
        <ele>1020</ele>
        <time>2010-01-01T02:43:19Z</time>
      </trkpt>
      <trkpt lat="45.12511" lon="5.52343">
        <ele>1020</ele>
        <time>2010-01-01T02:43:22Z</time>
      </trkpt>
      <trkpt lat="45.1251" lon="5.52342">
        <ele>1020</ele>
        <time>2010-01-01T02:43:22Z</time>
      </trkpt>
      <trkpt lat="45.12505" lon="5.52329">
        <ele>1022</ele>
        <time>2010-01-01T02:43:26Z</time>
      </trkpt>
      <trkpt lat="45.12502" lon="5.52321">
        <ele>1022</ele>
        <time>2010-01-01T02:43:29Z</time>
      </trkpt>
      <trkpt lat="45.12499" lon="5.52317">
        <ele>1023</ele>
        <time>2010-01-01T02:43:30Z</time>
      </trkpt>
      <trkpt lat="45.12498" lon="5.52316">
        <ele>1023</ele>
        <time>2010-01-01T02:43:31Z</time>
      </trkpt>
      <trkpt lat="45.12495" lon="5.52313">
        <ele>1023</ele>
        <time>2010-01-01T02:43:32Z</time>
      </trkpt>
      <trkpt lat="45.12495" lon="5.52312">
        <ele>1023</ele>
        <time>2010-01-01T02:43:33Z</time>
      </trkpt>
      <trkpt lat="45.1249" lon="5.52305">
        <ele>1023</ele>
        <time>2010-01-01T02:43:35Z</time>
      </trkpt>
      <trkpt lat="45.12485" lon="5.52297">
        <ele>1024</ele>
        <time>2010-01-01T02:43:39Z</time>
      </trkpt>
      <trkpt lat="45.1248" lon="5.52287">
        <ele>1024</ele>
        <time>2010-01-01T02:43:42Z</time>
      </trkpt>
      <trkpt lat="45.12474" lon="5.5228">
        <ele>1024</ele>
        <time>2010-01-01T02:43:45Z</time>
      </trkpt>
      <trkpt lat="45.12465" lon="5.52272">
        <ele>1027</ele>
        <time>2010-01-01T02:43:49Z</time>
      </trkpt>
      <trkpt lat="45.1246" lon="5.52268">
        <ele>1028</ele>
        <time>2010-01-01T02:43:52Z</time>
      </trkpt>
      <trkpt lat="45.12459" lon="5.52266">
        <ele>1029</ele>
        <time>2010-01-01T02:43:52Z</time>
      </trkpt>
      <trkpt lat="45.12455" lon="5.52263">
        <ele>1031</ele>
        <time>2010-01-01T02:43:54Z</time>
      </trkpt>
      <trkpt lat="45.12453" lon="5.52256">
        <ele>1032</ele>
        <time>2010-01-01T02:43:56Z</time>
      </trkpt>
      <trkpt lat="45.12452" lon="5.52244">
        <ele>1035</ele>
        <time>2010-01-01T02:44:00Z</time>
      </trkpt>
      <trkpt lat="45.12452" lon="5.52237">
        <ele>1036</ele>
        <time>2010-01-01T02:44:02Z</time>
      </trkpt>
      <trkpt lat="45.12453" lon="5.52223">
        <ele>1039</ele>
        <time>2010-01-01T02:44:06Z</time>
      </trkpt>
      <trkpt lat="45.12454" lon="5.5222">
        <ele>1039</ele>
        <time>2010-01-01T02:44:07Z</time>
      </trkpt>
      <trkpt lat="45.12454" lon="5.52215">
        <ele>1041</ele>
        <time>2010-01-01T02:44:08Z</time>
      </trkpt>
      <trkpt lat="45.12454" lon="5.52206">
        <ele>1043</ele>
        <time>2010-01-01T02:44:11Z</time>
      </trkpt>
      <trkpt lat="45.12454" lon="5.52197">
        <ele>1046</ele>
        <time>2010-01-01T02:44:13Z</time>
      </trkpt>
      <trkpt lat="45.12453" lon="5.52189">
        <ele>1048</ele>
        <time>2010-01-01T02:44:15Z</time>
      </trkpt>
      <trkpt lat="45.12452" lon="5.52185">
        <ele>1048</ele>
        <time>2010-01-01T02:44:17Z</time>
      </trkpt>
      <trkpt lat="45.12451" lon="5.52178">
        <ele>1049</ele>
        <time>2010-01-01T02:44:19Z</time>
      </trkpt>
      <trkpt lat="45.1245" lon="5.52177">
        <ele>1049</ele>
        <time>2010-01-01T02:44:19Z</time>
      </trkpt>
      <trkpt lat="45.12448" lon="5.52169">
        <ele>1051</ele>
        <time>2010-01-01T02:44:21Z</time>
      </trkpt>
      <trkpt lat="45.12447" lon="5.52165">
        <ele>1051</ele>
        <time>2010-01-01T02:44:23Z</time>
      </trkpt>
      <trkpt lat="45.12445" lon="5.52161">
        <ele>1052</ele>
        <time>2010-01-01T02:44:24Z</time>
      </trkpt>
      <trkpt lat="45.12444" lon="5.52158">
        <ele>1052</ele>
        <time>2010-01-01T02:44:25Z</time>
      </trkpt>
      <trkpt lat="45.12444" lon="5.52157">
        <ele>1052</ele>
        <time>2010-01-01T02:44:25Z</time>
      </trkpt>
      <trkpt lat="45.12443" lon="5.52154">
        <ele>1053</ele>
        <time>2010-01-01T02:44:26Z</time>
      </trkpt>
      <trkpt lat="45.12443" lon="5.5215">
        <ele>1053</ele>
        <time>2010-01-01T02:44:27Z</time>
      </trkpt>
      <trkpt lat="45.12442" lon="5.52147">
        <ele>1054</ele>
        <time>2010-01-01T02:44:28Z</time>
      </trkpt>
      <trkpt lat="45.12439" lon="5.52139">
        <ele>1055</ele>
        <time>2010-01-01T02:44:31Z</time>
      </trkpt>
      <trkpt lat="45.12439" lon="5.52138">
        <ele>1055</ele>
        <time>2010-01-01T02:44:31Z</time>
      </trkpt>
      <trkpt lat="45.12439" lon="5.52134">
        <ele>1056</ele>
        <time>2010-01-01T02:44:32Z</time>
      </trkpt>
      <trkpt lat="45.12439" lon="5.5213">
        <ele>1056</ele>
        <time>2010-01-01T02:44:33Z</time>
      </trkpt>
      <trkpt lat="45.12436" lon="5.52126">
        <ele>1058</ele>
        <time>2010-01-01T02:44:35Z</time>
      </trkpt>
      <trkpt lat="45.12436" lon="5.52124">
        <ele>1058</ele>
        <time>2010-01-01T02:44:36Z</time>
      </trkpt>
      <trkpt lat="45.12437" lon="5.52123">
        <ele>1058</ele>
        <time>2010-01-01T02:44:36Z</time>
      </trkpt>
      <trkpt lat="45.12436" lon="5.52116">
        <ele>1059</ele>
        <time>2010-01-01T02:44:38Z</time>
      </trkpt>
      <trkpt lat="45.12433" lon="5.52112">
        <ele>1060</ele>
        <time>2010-01-01T02:44:40Z</time>
      </trkpt>
      <trkpt lat="45.12433" lon="5.52111">
        <ele>1061</ele>
        <time>2010-01-01T02:44:40Z</time>
      </trkpt>
      <trkpt lat="45.12432" lon="5.5211">
        <ele>1061</ele>
        <time>2010-01-01T02:44:41Z</time>
      </trkpt>
      <trkpt lat="45.12432" lon="5.52108">
        <ele>1061</ele>
        <time>2010-01-01T02:44:41Z</time>
      </trkpt>
      <trkpt lat="45.12432" lon="5.52104">
        <ele>1061</ele>
        <time>2010-01-01T02:44:42Z</time>
      </trkpt>
      <trkpt lat="45.12428" lon="5.521">
        <ele>1063</ele>
        <time>2010-01-01T02:44:44Z</time>
      </trkpt>
      <trkpt lat="45.12428" lon="5.52098">
        <ele>1063</ele>
        <time>2010-01-01T02:44:45Z</time>
      </trkpt>
      <trkpt lat="45.12427" lon="5.52096">
        <ele>1063</ele>
        <time>2010-01-01T02:44:45Z</time>
      </trkpt>
      <trkpt lat="45.12427" lon="5.52097">
        <ele>1063</ele>
        <time>2010-01-01T02:44:46Z</time>
      </trkpt>
      <trkpt lat="45.12424" lon="5.52092">
        <ele>1064</ele>
        <time>2010-01-01T02:44:48Z</time>
      </trkpt>
      <trkpt lat="45.12423" lon="5.52088">
        <ele>1065</ele>
        <time>2010-01-01T02:44:49Z</time>
      </trkpt>
      <trkpt lat="45.1242" lon="5.52086">
        <ele>1066</ele>
        <time>2010-01-01T02:44:50Z</time>
      </trkpt>
      <trkpt lat="45.1242" lon="5.52085">
        <ele>1066</ele>
        <time>2010-01-01T02:44:50Z</time>
      </trkpt>
      <trkpt lat="45.12419" lon="5.5208">
        <ele>1066</ele>
        <time>2010-01-01T02:44:52Z</time>
      </trkpt>
      <trkpt lat="45.12421" lon="5.52073">
        <ele>1066</ele>
        <time>2010-01-01T02:44:54Z</time>
      </trkpt>
      <trkpt lat="45.12421" lon="5.52072">
        <ele>1066</ele>
        <time>2010-01-01T02:44:54Z</time>
      </trkpt>
      <trkpt lat="45.12425" lon="5.52064">
        <ele>1065</ele>
        <time>2010-01-01T02:44:57Z</time>
      </trkpt>
      <trkpt lat="45.12429" lon="5.52059">
        <ele>1064</ele>
        <time>2010-01-01T02:44:59Z</time>
      </trkpt>
      <trkpt lat="45.1243" lon="5.52057">
        <ele>1064</ele>
        <time>2010-01-01T02:45:00Z</time>
      </trkpt>
      <trkpt lat="45.12429" lon="5.52055">
        <ele>1064</ele>
        <time>2010-01-01T02:45:01Z</time>
      </trkpt>
      <trkpt lat="45.1243" lon="5.5205">
        <ele>1064</ele>
        <time>2010-01-01T02:45:02Z</time>
      </trkpt>
      <trkpt lat="45.1243" lon="5.52043">
        <ele>1064</ele>
        <time>2010-01-01T02:45:04Z</time>
      </trkpt>
      <trkpt lat="45.1243" lon="5.52042">
        <ele>1064</ele>
        <time>2010-01-01T02:45:04Z</time>
      </trkpt>
      <trkpt lat="45.12429" lon="5.52039">
        <ele>1064</ele>
        <time>2010-01-01T02:45:05Z</time>
      </trkpt>
      <trkpt lat="45.12424" lon="5.52035">
        <ele>1065</ele>
        <time>2010-01-01T02:45:07Z</time>
      </trkpt>
      <trkpt lat="45.12422" lon="5.52032">
        <ele>1066</ele>
        <time>2010-01-01T02:45:09Z</time>
      </trkpt>
      <trkpt lat="45.12419" lon="5.52026">
        <ele>1066</ele>
        <time>2010-01-01T02:45:11Z</time>
      </trkpt>
      <trkpt lat="45.12417" lon="5.52021">
        <ele>1067</ele>
        <time>2010-01-01T02:45:12Z</time>
      </trkpt>
      <trkpt lat="45.12415" lon="5.52016">
        <ele>1067</ele>
        <time>2010-01-01T02:45:14Z</time>
      </trkpt>
      <trkpt lat="45.12414" lon="5.52013">
        <ele>1068</ele>
        <time>2010-01-01T02:45:15Z</time>
      </trkpt>
      <trkpt lat="45.12411" lon="5.52007">
        <ele>1068</ele>
        <time>2010-01-01T02:45:17Z</time>
      </trkpt>
      <trkpt lat="45.12408" lon="5.52002">
        <ele>1069</ele>
        <time>2010-01-01T02:45:19Z</time>
      </trkpt>
      <trkpt lat="45.12405" lon="5.51994">
        <ele>1070</ele>
        <time>2010-01-01T02:45:21Z</time>
      </trkpt>
      <trkpt lat="45.12399" lon="5.51987">
        <ele>1072</ele>
        <time>2010-01-01T02:45:25Z</time>
      </trkpt>
      <trkpt lat="45.12393" lon="5.51978">
        <ele>1075</ele>
        <time>2010-01-01T02:45:28Z</time>
      </trkpt>
      <trkpt lat="45.12389" lon="5.51973">
        <ele>1076</ele>
        <time>2010-01-01T02:45:30Z</time>
      </trkpt>
      <trkpt lat="45.12383" lon="5.51966">
        <ele>1079</ele>
        <time>2010-01-01T02:45:33Z</time>
      </trkpt>
      <trkpt lat="45.12378" lon="5.51958">
        <ele>1081</ele>
        <time>2010-01-01T02:45:36Z</time>
      </trkpt>
      <trkpt lat="45.12373" lon="5.51952">
        <ele>1083</ele>
        <time>2010-01-01T02:45:39Z</time>
      </trkpt>
      <trkpt lat="45.12368" lon="5.51945">
        <ele>1086</ele>
        <time>2010-01-01T02:45:42Z</time>
      </trkpt>
      <trkpt lat="45.12365" lon="5.51939">
        <ele>1087</ele>
        <time>2010-01-01T02:45:44Z</time>
      </trkpt>
      <trkpt lat="45.12362" lon="5.51933">
        <ele>1088</ele>
        <time>2010-01-01T02:45:46Z</time>
      </trkpt>
      <trkpt lat="45.12358" lon="5.51926">
        <ele>1089</ele>
        <time>2010-01-01T02:45:48Z</time>
      </trkpt>
      <trkpt lat="45.12357" lon="5.51924">
        <ele>1090</ele>
        <time>2010-01-01T02:45:49Z</time>
      </trkpt>
      <trkpt lat="45.12356" lon="5.51921">
        <ele>1090</ele>
        <time>2010-01-01T02:45:50Z</time>
      </trkpt>
      <trkpt lat="45.12354" lon="5.51919">
        <ele>1091</ele>
        <time>2010-01-01T02:45:51Z</time>
      </trkpt>
      <trkpt lat="45.12352" lon="5.51917">
        <ele>1091</ele>
        <time>2010-01-01T02:45:52Z</time>
      </trkpt>
      <trkpt lat="45.12349" lon="5.51912">
        <ele>1092</ele>
        <time>2010-01-01T02:45:54Z</time>
      </trkpt>
      <trkpt lat="45.12348" lon="5.5191">
        <ele>1093</ele>
        <time>2010-01-01T02:45:55Z</time>
      </trkpt>
      <trkpt lat="45.12346" lon="5.51907">
        <ele>1093</ele>
        <time>2010-01-01T02:45:56Z</time>
      </trkpt>
      <trkpt lat="45.12342" lon="5.51901">
        <ele>1095</ele>
        <time>2010-01-01T02:45:58Z</time>
      </trkpt>
      <trkpt lat="45.12341" lon="5.51898">
        <ele>1096</ele>
        <time>2010-01-01T02:45:59Z</time>
      </trkpt>
      <trkpt lat="45.1234" lon="5.51897">
        <ele>1096</ele>
        <time>2010-01-01T02:45:59Z</time>
      </trkpt>
      <trkpt lat="45.12338" lon="5.51893">
        <ele>1097</ele>
        <time>2010-01-01T02:46:01Z</time>
      </trkpt>
      <trkpt lat="45.12338" lon="5.51891">
        <ele>1098</ele>
        <time>2010-01-01T02:46:01Z</time>
      </trkpt>
      <trkpt lat="45.12334" lon="5.51886">
        <ele>1099</ele>
        <time>2010-01-01T02:46:04Z</time>
      </trkpt>
      <trkpt lat="45.12328" lon="5.51879">
        <ele>1101</ele>
        <time>2010-01-01T02:46:07Z</time>
      </trkpt>
      <trkpt lat="45.12324" lon="5.51872">
        <ele>1102</ele>
        <time>2010-01-01T02:46:09Z</time>
      </trkpt>
      <trkpt lat="45.12321" lon="5.51865">
        <ele>1102</ele>
        <time>2010-01-01T02:46:12Z</time>
      </trkpt>
      <trkpt lat="45.1232" lon="5.51864">
        <ele>1103</ele>
        <time>2010-01-01T02:46:12Z</time>
      </trkpt>
      <trkpt lat="45.12317" lon="5.51857">
        <ele>1104</ele>
        <time>2010-01-01T02:46:14Z</time>
      </trkpt>
      <trkpt lat="45.12312" lon="5.51849">
        <ele>1106</ele>
        <time>2010-01-01T02:46:17Z</time>
      </trkpt>
      <trkpt lat="45.12308" lon="5.51843">
        <ele>1108</ele>
        <time>2010-01-01T02:46:20Z</time>
      </trkpt>
      <trkpt lat="45.12304" lon="5.51836">
        <ele>1110</ele>
        <time>2010-01-01T02:46:22Z</time>
      </trkpt>
      <trkpt lat="45.123" lon="5.51828">
        <ele>1112</ele>
        <time>2010-01-01T02:46:25Z</time>
      </trkpt>
      <trkpt lat="45.12297" lon="5.51822">
        <ele>1113</ele>
        <time>2010-01-01T02:46:27Z</time>
      </trkpt>
      <trkpt lat="45.12294" lon="5.51817">
        <ele>1114</ele>
        <time>2010-01-01T02:46:29Z</time>
      </trkpt>
      <trkpt lat="45.1229" lon="5.51814">
        <ele>1116</ele>
        <time>2010-01-01T02:46:31Z</time>
      </trkpt>
      <trkpt lat="45.12286" lon="5.51809">
        <ele>1118</ele>
        <time>2010-01-01T02:46:33Z</time>
      </trkpt>
      <trkpt lat="45.12282" lon="5.51802">
        <ele>1119</ele>
        <time>2010-01-01T02:46:35Z</time>
      </trkpt>
      <trkpt lat="45.12279" lon="5.51796">
        <ele>1120</ele>
        <time>2010-01-01T02:46:38Z</time>
      </trkpt>
      <trkpt lat="45.12276" lon="5.51794">
        <ele>1121</ele>
        <time>2010-01-01T02:46:39Z</time>
      </trkpt>
      <trkpt lat="45.12274" lon="5.51791">
        <ele>1121</ele>
        <time>2010-01-01T02:46:40Z</time>
      </trkpt>
      <trkpt lat="45.12272" lon="5.51789">
        <ele>1122</ele>
        <time>2010-01-01T02:46:41Z</time>
      </trkpt>
      <trkpt lat="45.12269" lon="5.51786">
        <ele>1122</ele>
        <time>2010-01-01T02:46:42Z</time>
      </trkpt>
      <trkpt lat="45.12268" lon="5.51784">
        <ele>1122</ele>
        <time>2010-01-01T02:46:43Z</time>
      </trkpt>
      <trkpt lat="45.12266" lon="5.51783">
        <ele>1123</ele>
        <time>2010-01-01T02:46:44Z</time>
      </trkpt>
      <trkpt lat="45.12265" lon="5.51782">
        <ele>1123</ele>
        <time>2010-01-01T02:46:44Z</time>
      </trkpt>
      <trkpt lat="45.12262" lon="5.51777">
        <ele>1124</ele>
        <time>2010-01-01T02:46:46Z</time>
      </trkpt>
      <trkpt lat="45.12259" lon="5.51772">
        <ele>1125</ele>
        <time>2010-01-01T02:46:48Z</time>
      </trkpt>
      <trkpt lat="45.12257" lon="5.51771">
        <ele>1125</ele>
        <time>2010-01-01T02:46:49Z</time>
      </trkpt>
      <trkpt lat="45.12255" lon="5.51767">
        <ele>1126</ele>
        <time>2010-01-01T02:46:50Z</time>
      </trkpt>
      <trkpt lat="45.12253" lon="5.51765">
        <ele>1126</ele>
        <time>2010-01-01T02:46:51Z</time>
      </trkpt>
      <trkpt lat="45.1225" lon="5.51761">
        <ele>1127</ele>
        <time>2010-01-01T02:46:53Z</time>
      </trkpt>
      <trkpt lat="45.12246" lon="5.51758">
        <ele>1130</ele>
        <time>2010-01-01T02:46:55Z</time>
      </trkpt>
      <trkpt lat="45.12243" lon="5.51754">
        <ele>1131</ele>
        <time>2010-01-01T02:46:57Z</time>
      </trkpt>
      <trkpt lat="45.12241" lon="5.51751">
        <ele>1133</ele>
        <time>2010-01-01T02:46:58Z</time>
      </trkpt>
      <trkpt lat="45.12236" lon="5.51747">
        <ele>1135</ele>
        <time>2010-01-01T02:47:00Z</time>
      </trkpt>
      <trkpt lat="45.12231" lon="5.51742">
        <ele>1138</ele>
        <time>2010-01-01T02:47:02Z</time>
      </trkpt>
      <trkpt lat="45.12228" lon="5.51739">
        <ele>1139</ele>
        <time>2010-01-01T02:47:04Z</time>
      </trkpt>
      <trkpt lat="45.12225" lon="5.51734">
        <ele>1141</ele>
        <time>2010-01-01T02:47:06Z</time>
      </trkpt>
      <trkpt lat="45.12221" lon="5.5173">
        <ele>1143</ele>
        <time>2010-01-01T02:47:08Z</time>
      </trkpt>
      <trkpt lat="45.12216" lon="5.51728">
        <ele>1145</ele>
        <time>2010-01-01T02:47:10Z</time>
      </trkpt>
      <trkpt lat="45.12214" lon="5.51725">
        <ele>1146</ele>
        <time>2010-01-01T02:47:11Z</time>
      </trkpt>
      <trkpt lat="45.12211" lon="5.51722">
        <ele>1147</ele>
        <time>2010-01-01T02:47:12Z</time>
      </trkpt>
      <trkpt lat="45.12207" lon="5.51718">
        <ele>1149</ele>
        <time>2010-01-01T02:47:14Z</time>
      </trkpt>
      <trkpt lat="45.12205" lon="5.51716">
        <ele>1150</ele>
        <time>2010-01-01T02:47:15Z</time>
      </trkpt>
      <trkpt lat="45.12204" lon="5.51715">
        <ele>1151</ele>
        <time>2010-01-01T02:47:16Z</time>
      </trkpt>
      <trkpt lat="45.122" lon="5.51714">
        <ele>1152</ele>
        <time>2010-01-01T02:47:17Z</time>
      </trkpt>
      <trkpt lat="45.12194" lon="5.51709">
        <ele>1156</ele>
        <time>2010-01-01T02:47:20Z</time>
      </trkpt>
      <trkpt lat="45.12193" lon="5.51709">
        <ele>1156</ele>
        <time>2010-01-01T02:47:21Z</time>
      </trkpt>
      <trkpt lat="45.12192" lon="5.51706">
        <ele>1157</ele>
        <time>2010-01-01T02:47:22Z</time>
      </trkpt>
      <trkpt lat="45.12189" lon="5.51702">
        <ele>1158</ele>
        <time>2010-01-01T02:47:23Z</time>
      </trkpt>
      <trkpt lat="45.12188" lon="5.51701">
        <ele>1158</ele>
        <time>2010-01-01T02:47:24Z</time>
      </trkpt>
      <trkpt lat="45.12187" lon="5.51699">
        <ele>1159</ele>
        <time>2010-01-01T02:47:24Z</time>
      </trkpt>
      <trkpt lat="45.12186" lon="5.51697">
        <ele>1159</ele>
        <time>2010-01-01T02:47:25Z</time>
      </trkpt>
      <trkpt lat="45.12184" lon="5.51693">
        <ele>1160</ele>
        <time>2010-01-01T02:47:27Z</time>
      </trkpt>
      <trkpt lat="45.12184" lon="5.51692">
        <ele>1160</ele>
        <time>2010-01-01T02:47:27Z</time>
      </trkpt>
      <trkpt lat="45.12183" lon="5.51691">
        <ele>1161</ele>
        <time>2010-01-01T02:47:27Z</time>
      </trkpt>
      <trkpt lat="45.12182" lon="5.51687">
        <ele>1161</ele>
        <time>2010-01-01T02:47:28Z</time>
      </trkpt>
      <trkpt lat="45.12181" lon="5.51686">
        <ele>1161</ele>
        <time>2010-01-01T02:47:29Z</time>
      </trkpt>
      <trkpt lat="45.12175" lon="5.5168">
        <ele>1164</ele>
        <time>2010-01-01T02:47:32Z</time>
      </trkpt>
      <trkpt lat="45.12175" lon="5.51678">
        <ele>1164</ele>
        <time>2010-01-01T02:47:32Z</time>
      </trkpt>
      <trkpt lat="45.12173" lon="5.51674">
        <ele>1165</ele>
        <time>2010-01-01T02:47:34Z</time>
      </trkpt>
      <trkpt lat="45.12172" lon="5.51672">
        <ele>1165</ele>
        <time>2010-01-01T02:47:35Z</time>
      </trkpt>
      <trkpt lat="45.12168" lon="5.51663">
        <ele>1167</ele>
        <time>2010-01-01T02:47:38Z</time>
      </trkpt>
      <trkpt lat="45.12165" lon="5.51659">
        <ele>1168</ele>
        <time>2010-01-01T02:47:39Z</time>
      </trkpt>
      <trkpt lat="45.12164" lon="5.51657">
        <ele>1168</ele>
        <time>2010-01-01T02:47:40Z</time>
      </trkpt>
      <trkpt lat="45.12163" lon="5.51656">
        <ele>1168</ele>
        <time>2010-01-01T02:47:40Z</time>
      </trkpt>
      <trkpt lat="45.1216" lon="5.51652">
        <ele>1169</ele>
        <time>2010-01-01T02:47:42Z</time>
      </trkpt>
      <trkpt lat="45.12159" lon="5.51651">
        <ele>1170</ele>
        <time>2010-01-01T02:47:43Z</time>
      </trkpt>
      <trkpt lat="45.12156" lon="5.51648">
        <ele>1171</ele>
        <time>2010-01-01T02:47:44Z</time>
      </trkpt>
      <trkpt lat="45.12155" lon="5.51647">
        <ele>1171</ele>
        <time>2010-01-01T02:47:44Z</time>
      </trkpt>
      <trkpt lat="45.12149" lon="5.51639">
        <ele>1173</ele>
        <time>2010-01-01T02:47:48Z</time>
      </trkpt>
      <trkpt lat="45.12144" lon="5.51631">
        <ele>1174</ele>
        <time>2010-01-01T02:47:51Z</time>
      </trkpt>
      <trkpt lat="45.1214" lon="5.51625">
        <ele>1175</ele>
        <time>2010-01-01T02:47:53Z</time>
      </trkpt>
      <trkpt lat="45.12135" lon="5.51619">
        <ele>1176</ele>
        <time>2010-01-01T02:47:56Z</time>
      </trkpt>
      <trkpt lat="45.12131" lon="5.51614">
        <ele>1177</ele>
        <time>2010-01-01T02:47:58Z</time>
      </trkpt>
      <trkpt lat="45.1213" lon="5.51612">
        <ele>1178</ele>
        <time>2010-01-01T02:47:59Z</time>
      </trkpt>
      <trkpt lat="45.12124" lon="5.51605">
        <ele>1179</ele>
        <time>2010-01-01T02:48:02Z</time>
      </trkpt>
      <trkpt lat="45.1212" lon="5.516">
        <ele>1179</ele>
        <time>2010-01-01T02:48:04Z</time>
      </trkpt>
      <trkpt lat="45.12119" lon="5.51599">
        <ele>1179</ele>
        <time>2010-01-01T02:48:04Z</time>
      </trkpt>
      <trkpt lat="45.12113" lon="5.51593">
        <ele>1181</ele>
        <time>2010-01-01T02:48:07Z</time>
      </trkpt>
      <trkpt lat="45.12107" lon="5.51588">
        <ele>1183</ele>
        <time>2010-01-01T02:48:10Z</time>
      </trkpt>
      <trkpt lat="45.12106" lon="5.51587">
        <ele>1183</ele>
        <time>2010-01-01T02:48:11Z</time>
      </trkpt>
      <trkpt lat="45.12099" lon="5.51581">
        <ele>1184</ele>
        <time>2010-01-01T02:48:14Z</time>
      </trkpt>
      <trkpt lat="45.12092" lon="5.51579">
        <ele>1187</ele>
        <time>2010-01-01T02:48:17Z</time>
      </trkpt>
      <trkpt lat="45.12088" lon="5.51576">
        <ele>1189</ele>
        <time>2010-01-01T02:48:18Z</time>
      </trkpt>
      <trkpt lat="45.12085" lon="5.51573">
        <ele>1189</ele>
        <time>2010-01-01T02:48:20Z</time>
      </trkpt>
      <trkpt lat="45.1208" lon="5.51568">
        <ele>1190</ele>
        <time>2010-01-01T02:48:22Z</time>
      </trkpt>
      <trkpt lat="45.12075" lon="5.51564">
        <ele>1191</ele>
        <time>2010-01-01T02:48:25Z</time>
      </trkpt>
      <trkpt lat="45.12068" lon="5.51561">
        <ele>1193</ele>
        <time>2010-01-01T02:48:28Z</time>
      </trkpt>
      <trkpt lat="45.12066" lon="5.5156">
        <ele>1194</ele>
        <time>2010-01-01T02:48:28Z</time>
      </trkpt>
      <trkpt lat="45.12063" lon="5.51559">
        <ele>1195</ele>
        <time>2010-01-01T02:48:30Z</time>
      </trkpt>
      <trkpt lat="45.12057" lon="5.51558">
        <ele>1196</ele>
        <time>2010-01-01T02:48:32Z</time>
      </trkpt>
      <trkpt lat="45.12056" lon="5.51557">
        <ele>1197</ele>
        <time>2010-01-01T02:48:33Z</time>
      </trkpt>
      <trkpt lat="45.12051" lon="5.51555">
        <ele>1198</ele>
        <time>2010-01-01T02:48:35Z</time>
      </trkpt>
      <trkpt lat="45.12045" lon="5.51554">
        <ele>1199</ele>
        <time>2010-01-01T02:48:37Z</time>
      </trkpt>
      <trkpt lat="45.12044" lon="5.51554">
        <ele>1199</ele>
        <time>2010-01-01T02:48:38Z</time>
      </trkpt>
      <trkpt lat="45.12038" lon="5.51551">
        <ele>1200</ele>
        <time>2010-01-01T02:48:40Z</time>
      </trkpt>
      <trkpt lat="45.12031" lon="5.5155">
        <ele>1202</ele>
        <time>2010-01-01T02:48:43Z</time>
      </trkpt>
      <trkpt lat="45.1203" lon="5.5155">
        <ele>1202</ele>
        <time>2010-01-01T02:48:43Z</time>
      </trkpt>
      <trkpt lat="45.12023" lon="5.51548">
        <ele>1204</ele>
        <time>2010-01-01T02:48:46Z</time>
      </trkpt>
      <trkpt lat="45.12022" lon="5.51547">
        <ele>1204</ele>
        <time>2010-01-01T02:48:47Z</time>
      </trkpt>
      <trkpt lat="45.1202" lon="5.51546">
        <ele>1204</ele>
        <time>2010-01-01T02:48:47Z</time>
      </trkpt>
      <trkpt lat="45.12013" lon="5.51544">
        <ele>1205</ele>
        <time>2010-01-01T02:48:50Z</time>
      </trkpt>
      <trkpt lat="45.12005" lon="5.51543">
        <ele>1207</ele>
        <time>2010-01-01T02:48:54Z</time>
      </trkpt>
      <trkpt lat="45.12005" lon="5.51542">
        <ele>1207</ele>
        <time>2010-01-01T02:48:54Z</time>
      </trkpt>
      <trkpt lat="45.12" lon="5.51538">
        <ele>1207</ele>
        <time>2010-01-01T02:48:56Z</time>
      </trkpt>
      <trkpt lat="45.11994" lon="5.51536">
        <ele>1208</ele>
        <time>2010-01-01T02:48:59Z</time>
      </trkpt>
      <trkpt lat="45.11993" lon="5.51536">
        <ele>1208</ele>
        <time>2010-01-01T02:48:59Z</time>
      </trkpt>
      <trkpt lat="45.11991" lon="5.51535">
        <ele>1209</ele>
        <time>2010-01-01T02:49:00Z</time>
      </trkpt>
      <trkpt lat="45.11989" lon="5.51534">
        <ele>1209</ele>
        <time>2010-01-01T02:49:01Z</time>
      </trkpt>
      <trkpt lat="45.11981" lon="5.51529">
        <ele>1210</ele>
        <time>2010-01-01T02:49:04Z</time>
      </trkpt>
      <trkpt lat="45.1198" lon="5.51529">
        <ele>1210</ele>
        <time>2010-01-01T02:49:05Z</time>
      </trkpt>
      <trkpt lat="45.11974" lon="5.51527">
        <ele>1211</ele>
        <time>2010-01-01T02:49:07Z</time>
      </trkpt>
      <trkpt lat="45.11963" lon="5.51525">
        <ele>1213</ele>
        <time>2010-01-01T02:49:12Z</time>
      </trkpt>
      <trkpt lat="45.11956" lon="5.51526">
        <ele>1215</ele>
        <time>2010-01-01T02:49:14Z</time>
      </trkpt>
      <trkpt lat="45.11955" lon="5.51527">
        <ele>1216</ele>
        <time>2010-01-01T02:49:15Z</time>
      </trkpt>
      <trkpt lat="45.11945" lon="5.51525">
        <ele>1218</ele>
        <time>2010-01-01T02:49:19Z</time>
      </trkpt>
      <trkpt lat="45.11939" lon="5.51524">
        <ele>1219</ele>
        <time>2010-01-01T02:49:21Z</time>
      </trkpt>
      <trkpt lat="45.11935" lon="5.51525">
        <ele>1220</ele>
        <time>2010-01-01T02:49:23Z</time>
      </trkpt>
      <trkpt lat="45.11927" lon="5.51523">
        <ele>1222</ele>
        <time>2010-01-01T02:49:26Z</time>
      </trkpt>
      <trkpt lat="45.11924" lon="5.5152">
        <ele>1222</ele>
        <time>2010-01-01T02:49:28Z</time>
      </trkpt>
      <trkpt lat="45.1192" lon="5.51516">
        <ele>1222</ele>
        <time>2010-01-01T02:49:30Z</time>
      </trkpt>
      <trkpt lat="45.11919" lon="5.51514">
        <ele>1222</ele>
        <time>2010-01-01T02:49:30Z</time>
      </trkpt>
      <trkpt lat="45.11914" lon="5.51508">
        <ele>1222</ele>
        <time>2010-01-01T02:49:33Z</time>
      </trkpt>
      <trkpt lat="45.11912" lon="5.51507">
        <ele>1222</ele>
        <time>2010-01-01T02:49:34Z</time>
      </trkpt>
      <trkpt lat="45.11903" lon="5.51498">
        <ele>1223</ele>
        <time>2010-01-01T02:49:38Z</time>
      </trkpt>
      <trkpt lat="45.11897" lon="5.51489">
        <ele>1222</ele>
        <time>2010-01-01T02:49:42Z</time>
      </trkpt>
      <trkpt lat="45.11893" lon="5.51484">
        <ele>1222</ele>
        <time>2010-01-01T02:49:44Z</time>
      </trkpt>
      <trkpt lat="45.1189" lon="5.51482">
        <ele>1223</ele>
        <time>2010-01-01T02:49:45Z</time>
      </trkpt>
      <trkpt lat="45.11888" lon="5.51481">
        <ele>1223</ele>
        <time>2010-01-01T02:49:46Z</time>
      </trkpt>
      <trkpt lat="45.11884" lon="5.51475">
        <ele>1223</ele>
        <time>2010-01-01T02:49:48Z</time>
      </trkpt>
      <trkpt lat="45.11879" lon="5.51468">
        <ele>1223</ele>
        <time>2010-01-01T02:49:51Z</time>
      </trkpt>
      <trkpt lat="45.11877" lon="5.51464">
        <ele>1223</ele>
        <time>2010-01-01T02:49:52Z</time>
      </trkpt>
      <trkpt lat="45.11867" lon="5.51452">
        <ele>1223</ele>
        <time>2010-01-01T02:49:58Z</time>
      </trkpt>
      <trkpt lat="45.11862" lon="5.51448">
        <ele>1224</ele>
        <time>2010-01-01T02:50:00Z</time>
      </trkpt>
      <trkpt lat="45.11856" lon="5.51443">
        <ele>1226</ele>
        <time>2010-01-01T02:50:03Z</time>
      </trkpt>
      <trkpt lat="45.11852" lon="5.5144">
        <ele>1227</ele>
        <time>2010-01-01T02:50:05Z</time>
      </trkpt>
      <trkpt lat="45.1185" lon="5.51439">
        <ele>1227</ele>
        <time>2010-01-01T02:50:05Z</time>
      </trkpt>
      <trkpt lat="45.11846" lon="5.51433">
        <ele>1228</ele>
        <time>2010-01-01T02:50:08Z</time>
      </trkpt>
      <trkpt lat="45.1184" lon="5.51424">
        <ele>1227</ele>
        <time>2010-01-01T02:50:11Z</time>
      </trkpt>
      <trkpt lat="45.11832" lon="5.51415">
        <ele>1228</ele>
        <time>2010-01-01T02:50:15Z</time>
      </trkpt>
      <trkpt lat="45.11823" lon="5.5141">
        <ele>1230</ele>
        <time>2010-01-01T02:50:19Z</time>
      </trkpt>
      <trkpt lat="45.1182" lon="5.51409">
        <ele>1231</ele>
        <time>2010-01-01T02:50:21Z</time>
      </trkpt>
      <trkpt lat="45.11814" lon="5.51405">
        <ele>1232</ele>
        <time>2010-01-01T02:50:23Z</time>
      </trkpt>
      <trkpt lat="45.11808" lon="5.51394">
        <ele>1229</ele>
        <time>2010-01-01T02:50:27Z</time>
      </trkpt>
      <trkpt lat="45.11801" lon="5.51391">
        <ele>1231</ele>
        <time>2010-01-01T02:50:30Z</time>
      </trkpt>
      <trkpt lat="45.118" lon="5.51388">
        <ele>1230</ele>
        <time>2010-01-01T02:50:31Z</time>
      </trkpt>
      <trkpt lat="45.11792" lon="5.51378">
        <ele>1231</ele>
        <time>2010-01-01T02:50:35Z</time>
      </trkpt>
      <trkpt lat="45.11791" lon="5.51376">
        <ele>1230</ele>
        <time>2010-01-01T02:50:36Z</time>
      </trkpt>
      <trkpt lat="45.11784" lon="5.51368">
        <ele>1230</ele>
        <time>2010-01-01T02:50:40Z</time>
      </trkpt>
      <trkpt lat="45.11774" lon="5.51353">
        <ele>1229</ele>
        <time>2010-01-01T02:50:45Z</time>
      </trkpt>
      <trkpt lat="45.11771" lon="5.51349">
        <ele>1230</ele>
        <time>2010-01-01T02:50:47Z</time>
      </trkpt>
      <trkpt lat="45.11766" lon="5.51342">
        <ele>1230</ele>
        <time>2010-01-01T02:50:50Z</time>
      </trkpt>
      <trkpt lat="45.11755" lon="5.51331">
        <ele>1231</ele>
        <time>2010-01-01T02:50:55Z</time>
      </trkpt>
      <trkpt lat="45.11746" lon="5.51324">
        <ele>1233</ele>
        <time>2010-01-01T02:50:59Z</time>
      </trkpt>
      <trkpt lat="45.11738" lon="5.51318">
        <ele>1235</ele>
        <time>2010-01-01T02:51:03Z</time>
      </trkpt>
      <trkpt lat="45.11729" lon="5.5131">
        <ele>1236</ele>
        <time>2010-01-01T02:51:07Z</time>
      </trkpt>
      <trkpt lat="45.11721" lon="5.51297">
        <ele>1236</ele>
        <time>2010-01-01T02:51:12Z</time>
      </trkpt>
      <trkpt lat="45.11717" lon="5.51292">
        <ele>1237</ele>
        <time>2010-01-01T02:51:14Z</time>
      </trkpt>
      <trkpt lat="45.11709" lon="5.51285">
        <ele>1237</ele>
        <time>2010-01-01T02:51:18Z</time>
      </trkpt>
      <trkpt lat="45.117" lon="5.51274">
        <ele>1237</ele>
        <time>2010-01-01T02:51:23Z</time>
      </trkpt>
      <trkpt lat="45.1169" lon="5.51265">
        <ele>1237</ele>
        <time>2010-01-01T02:51:27Z</time>
      </trkpt>
      <trkpt lat="45.11678" lon="5.51261">
        <ele>1239</ele>
        <time>2010-01-01T02:51:32Z</time>
      </trkpt>
      <trkpt lat="45.11669" lon="5.51255">
        <ele>1239</ele>
        <time>2010-01-01T02:51:36Z</time>
      </trkpt>
      <trkpt lat="45.11659" lon="5.51249">
        <ele>1240</ele>
        <time>2010-01-01T02:51:41Z</time>
      </trkpt>
      <trkpt lat="45.11647" lon="5.51241">
        <ele>1241</ele>
        <time>2010-01-01T02:51:46Z</time>
      </trkpt>
      <trkpt lat="45.11641" lon="5.51235">
        <ele>1241</ele>
        <time>2010-01-01T02:51:49Z</time>
      </trkpt>
      <trkpt lat="45.11638" lon="5.51232">
        <ele>1242</ele>
        <time>2010-01-01T02:51:50Z</time>
      </trkpt>
      <trkpt lat="45.11632" lon="5.51227">
        <ele>1243</ele>
        <time>2010-01-01T02:51:53Z</time>
      </trkpt>
      <trkpt lat="45.1163" lon="5.51226">
        <ele>1243</ele>
        <time>2010-01-01T02:51:54Z</time>
      </trkpt>
      <trkpt lat="45.11623" lon="5.51219">
        <ele>1244</ele>
        <time>2010-01-01T02:51:57Z</time>
      </trkpt>
      <trkpt lat="45.11618" lon="5.51215">
        <ele>1245</ele>
        <time>2010-01-01T02:52:00Z</time>
      </trkpt>
      <trkpt lat="45.11615" lon="5.51215">
        <ele>1246</ele>
        <time>2010-01-01T02:52:01Z</time>
      </trkpt>
      <trkpt lat="45.11607" lon="5.51212">
        <ele>1248</ele>
        <time>2010-01-01T02:52:04Z</time>
      </trkpt>
      <trkpt lat="45.11605" lon="5.51211">
        <ele>1248</ele>
        <time>2010-01-01T02:52:05Z</time>
      </trkpt>
      <trkpt lat="45.11596" lon="5.51204">
        <ele>1249</ele>
        <time>2010-01-01T02:52:09Z</time>
      </trkpt>
      <trkpt lat="45.11587" lon="5.51196">
        <ele>1250</ele>
        <time>2010-01-01T02:52:14Z</time>
      </trkpt>
      <trkpt lat="45.11586" lon="5.51195">
        <ele>1250</ele>
        <time>2010-01-01T02:52:14Z</time>
      </trkpt>
      <trkpt lat="45.11578" lon="5.51189">
        <ele>1250</ele>
        <time>2010-01-01T02:52:18Z</time>
      </trkpt>
      <trkpt lat="45.11567" lon="5.51183">
        <ele>1251</ele>
        <time>2010-01-01T02:52:22Z</time>
      </trkpt>
      <trkpt lat="45.11558" lon="5.51174">
        <ele>1251</ele>
        <time>2010-01-01T02:52:27Z</time>
      </trkpt>
      <trkpt lat="45.11553" lon="5.51166">
        <ele>1251</ele>
        <time>2010-01-01T02:52:30Z</time>
      </trkpt>
      <trkpt lat="45.1155" lon="5.51163">
        <ele>1252</ele>
        <time>2010-01-01T02:52:31Z</time>
      </trkpt>
      <trkpt lat="45.11541" lon="5.51153">
        <ele>1253</ele>
        <time>2010-01-01T02:52:36Z</time>
      </trkpt>
      <trkpt lat="45.11537" lon="5.5115">
        <ele>1254</ele>
        <time>2010-01-01T02:52:38Z</time>
      </trkpt>
      <trkpt lat="45.11534" lon="5.51148">
        <ele>1255</ele>
        <time>2010-01-01T02:52:39Z</time>
      </trkpt>
      <trkpt lat="45.11526" lon="5.5114">
        <ele>1256</ele>
        <time>2010-01-01T02:52:43Z</time>
      </trkpt>
      <trkpt lat="45.11515" lon="5.51129">
        <ele>1258</ele>
        <time>2010-01-01T02:52:48Z</time>
      </trkpt>
      <trkpt lat="45.11506" lon="5.51118">
        <ele>1259</ele>
        <time>2010-01-01T02:52:53Z</time>
      </trkpt>
      <trkpt lat="45.11504" lon="5.51114">
        <ele>1259</ele>
        <time>2010-01-01T02:52:54Z</time>
      </trkpt>
      <trkpt lat="45.11501" lon="5.5111">
        <ele>1259</ele>
        <time>2010-01-01T02:52:56Z</time>
      </trkpt>
      <trkpt lat="45.11493" lon="5.51101">
        <ele>1261</ele>
        <time>2010-01-01T02:53:00Z</time>
      </trkpt>
      <trkpt lat="45.11486" lon="5.51096">
        <ele>1262</ele>
        <time>2010-01-01T02:53:03Z</time>
      </trkpt>
      <trkpt lat="45.11485" lon="5.51095">
        <ele>1262</ele>
        <time>2010-01-01T02:53:04Z</time>
      </trkpt>
      <trkpt lat="45.1148" lon="5.51091">
        <ele>1263</ele>
        <time>2010-01-01T02:53:06Z</time>
      </trkpt>
      <trkpt lat="45.11477" lon="5.51088">
        <ele>1264</ele>
        <time>2010-01-01T02:53:08Z</time>
      </trkpt>
      <trkpt lat="45.11468" lon="5.51078">
        <ele>1265</ele>
        <time>2010-01-01T02:53:12Z</time>
      </trkpt>
      <trkpt lat="45.11461" lon="5.51064">
        <ele>1265</ele>
        <time>2010-01-01T02:53:17Z</time>
      </trkpt>
      <trkpt lat="45.11455" lon="5.51056">
        <ele>1265</ele>
        <time>2010-01-01T02:53:20Z</time>
      </trkpt>
      <trkpt lat="45.11447" lon="5.51045">
        <ele>1264</ele>
        <time>2010-01-01T02:53:25Z</time>
      </trkpt>
      <trkpt lat="45.11437" lon="5.51036">
        <ele>1266</ele>
        <time>2010-01-01T02:53:29Z</time>
      </trkpt>
      <trkpt lat="45.11429" lon="5.51029">
        <ele>1267</ele>
        <time>2010-01-01T02:53:33Z</time>
      </trkpt>
      <trkpt lat="45.1142" lon="5.5102">
        <ele>1268</ele>
        <time>2010-01-01T02:53:38Z</time>
      </trkpt>
      <trkpt lat="45.11407" lon="5.5101">
        <ele>1269</ele>
        <time>2010-01-01T02:53:44Z</time>
      </trkpt>
      <trkpt lat="45.11399" lon="5.51007">
        <ele>1271</ele>
        <time>2010-01-01T02:53:47Z</time>
      </trkpt>
      <trkpt lat="45.11394" lon="5.51005">
        <ele>1272</ele>
        <time>2010-01-01T02:53:49Z</time>
      </trkpt>
      <trkpt lat="45.11392" lon="5.51003">
        <ele>1272</ele>
        <time>2010-01-01T02:53:50Z</time>
      </trkpt>
      <trkpt lat="45.11383" lon="5.50998">
        <ele>1274</ele>
        <time>2010-01-01T02:53:54Z</time>
      </trkpt>
      <trkpt lat="45.11373" lon="5.5099">
        <ele>1276</ele>
        <time>2010-01-01T02:53:58Z</time>
      </trkpt>
      <trkpt lat="45.11364" lon="5.50982">
        <ele>1278</ele>
        <time>2010-01-01T02:54:03Z</time>
      </trkpt>
      <trkpt lat="45.11357" lon="5.50974">
        <ele>1279</ele>
        <time>2010-01-01T02:54:06Z</time>
      </trkpt>
      <trkpt lat="45.11348" lon="5.50967">
        <ele>1280</ele>
        <time>2010-01-01T02:54:10Z</time>
      </trkpt>
      <trkpt lat="45.11338" lon="5.50958">
        <ele>1283</ele>
        <time>2010-01-01T02:54:15Z</time>
      </trkpt>
      <trkpt lat="45.1133" lon="5.5095">
        <ele>1285</ele>
        <time>2010-01-01T02:54:19Z</time>
      </trkpt>
      <trkpt lat="45.11323" lon="5.50941">
        <ele>1287</ele>
        <time>2010-01-01T02:54:23Z</time>
      </trkpt>
      <trkpt lat="45.11319" lon="5.50929">
        <ele>1287</ele>
        <time>2010-01-01T02:54:27Z</time>
      </trkpt>
      <trkpt lat="45.11316" lon="5.50913">
        <ele>1286</ele>
        <time>2010-01-01T02:54:31Z</time>
      </trkpt>
      <trkpt lat="45.11313" lon="5.50899">
        <ele>1284</ele>
        <time>2010-01-01T02:54:35Z</time>
      </trkpt>
      <trkpt lat="45.11308" lon="5.50886">
        <ele>1283</ele>
        <time>2010-01-01T02:54:40Z</time>
      </trkpt>
      <trkpt lat="45.11303" lon="5.50875">
        <ele>1282</ele>
        <time>2010-01-01T02:54:43Z</time>
      </trkpt>
      <trkpt lat="45.11298" lon="5.50867">
        <ele>1282</ele>
        <time>2010-01-01T02:54:46Z</time>
      </trkpt>
      <trkpt lat="45.11296" lon="5.50863">
        <ele>1282</ele>
        <time>2010-01-01T02:54:48Z</time>
      </trkpt>
      <trkpt lat="45.11292" lon="5.50862">
        <ele>1283</ele>
        <time>2010-01-01T02:54:49Z</time>
      </trkpt>
      <trkpt lat="45.11286" lon="5.50859">
        <ele>1285</ele>
        <time>2010-01-01T02:54:52Z</time>
      </trkpt>
      <trkpt lat="45.11282" lon="5.50853">
        <ele>1285</ele>
        <time>2010-01-01T02:54:54Z</time>
      </trkpt>
      <trkpt lat="45.11277" lon="5.50848">
        <ele>1287</ele>
        <time>2010-01-01T02:54:57Z</time>
      </trkpt>
      <trkpt lat="45.11276" lon="5.50846">
        <ele>1287</ele>
        <time>2010-01-01T02:54:57Z</time>
      </trkpt>
      <trkpt lat="45.11275" lon="5.50846">
        <ele>1288</ele>
        <time>2010-01-01T02:54:58Z</time>
      </trkpt>
      <trkpt lat="45.11272" lon="5.50844">
        <ele>1289</ele>
        <time>2010-01-01T02:54:59Z</time>
      </trkpt>
      <trkpt lat="45.11266" lon="5.50841">
        <ele>1291</ele>
        <time>2010-01-01T02:55:02Z</time>
      </trkpt>
      <trkpt lat="45.11263" lon="5.50839">
        <ele>1292</ele>
        <time>2010-01-01T02:55:03Z</time>
      </trkpt>
      <trkpt lat="45.11258" lon="5.50838">
        <ele>1293</ele>
        <time>2010-01-01T02:55:05Z</time>
      </trkpt>
      <trkpt lat="45.11254" lon="5.50834">
        <ele>1294</ele>
        <time>2010-01-01T02:55:07Z</time>
      </trkpt>
      <trkpt lat="45.11251" lon="5.50833">
        <ele>1295</ele>
        <time>2010-01-01T02:55:08Z</time>
      </trkpt>
      <trkpt lat="45.11245" lon="5.5083">
        <ele>1297</ele>
        <time>2010-01-01T02:55:11Z</time>
      </trkpt>
      <trkpt lat="45.11239" lon="5.50828">
        <ele>1298</ele>
        <time>2010-01-01T02:55:13Z</time>
      </trkpt>
      <trkpt lat="45.11235" lon="5.50825">
        <ele>1299</ele>
        <time>2010-01-01T02:55:15Z</time>
      </trkpt>
      <trkpt lat="45.11234" lon="5.50825">
        <ele>1299</ele>
        <time>2010-01-01T02:55:15Z</time>
      </trkpt>
      <trkpt lat="45.11229" lon="5.50823">
        <ele>1300</ele>
        <time>2010-01-01T02:55:17Z</time>
      </trkpt>
      <trkpt lat="45.11224" lon="5.50823">
        <ele>1302</ele>
        <time>2010-01-01T02:55:19Z</time>
      </trkpt>
      <trkpt lat="45.11223" lon="5.50824">
        <ele>1302</ele>
        <time>2010-01-01T02:55:20Z</time>
      </trkpt>
      <trkpt lat="45.11219" lon="5.50823">
        <ele>1303</ele>
        <time>2010-01-01T02:55:22Z</time>
      </trkpt>
      <trkpt lat="45.11213" lon="5.50823">
        <ele>1304</ele>
        <time>2010-01-01T02:55:24Z</time>
      </trkpt>
      <trkpt lat="45.11208" lon="5.50823">
        <ele>1306</ele>
        <time>2010-01-01T02:55:26Z</time>
      </trkpt>
      <trkpt lat="45.11201" lon="5.50821">
        <ele>1307</ele>
        <time>2010-01-01T02:55:29Z</time>
      </trkpt>
      <trkpt lat="45.11197" lon="5.50819">
        <ele>1307</ele>
        <time>2010-01-01T02:55:31Z</time>
      </trkpt>
      <trkpt lat="45.11194" lon="5.5082">
        <ele>1308</ele>
        <time>2010-01-01T02:55:32Z</time>
      </trkpt>
      <trkpt lat="45.11191" lon="5.5082">
        <ele>1309</ele>
        <time>2010-01-01T02:55:33Z</time>
      </trkpt>
      <trkpt lat="45.1119" lon="5.50819">
        <ele>1309</ele>
        <time>2010-01-01T02:55:33Z</time>
      </trkpt>
      <trkpt lat="45.11183" lon="5.50813">
        <ele>1310</ele>
        <time>2010-01-01T02:55:37Z</time>
      </trkpt>
      <trkpt lat="45.11182" lon="5.50813">
        <ele>1311</ele>
        <time>2010-01-01T02:55:37Z</time>
      </trkpt>
      <trkpt lat="45.11175" lon="5.50809">
        <ele>1312</ele>
        <time>2010-01-01T02:55:40Z</time>
      </trkpt>
      <trkpt lat="45.11172" lon="5.50808">
        <ele>1313</ele>
        <time>2010-01-01T02:55:41Z</time>
      </trkpt>
      <trkpt lat="45.11168" lon="5.50804">
        <ele>1314</ele>
        <time>2010-01-01T02:55:43Z</time>
      </trkpt>
      <trkpt lat="45.11162" lon="5.508">
        <ele>1315</ele>
        <time>2010-01-01T02:55:46Z</time>
      </trkpt>
      <trkpt lat="45.11161" lon="5.50799">
        <ele>1315</ele>
        <time>2010-01-01T02:55:46Z</time>
      </trkpt>
      <trkpt lat="45.11155" lon="5.50793">
        <ele>1317</ele>
        <time>2010-01-01T02:55:49Z</time>
      </trkpt>
      <trkpt lat="45.11149" lon="5.5079">
        <ele>1318</ele>
        <time>2010-01-01T02:55:52Z</time>
      </trkpt>
      <trkpt lat="45.11142" lon="5.50784">
        <ele>1320</ele>
        <time>2010-01-01T02:55:55Z</time>
      </trkpt>
      <trkpt lat="45.11141" lon="5.50783">
        <ele>1321</ele>
        <time>2010-01-01T02:55:56Z</time>
      </trkpt>
      <trkpt lat="45.11137" lon="5.50781">
        <ele>1322</ele>
        <time>2010-01-01T02:55:57Z</time>
      </trkpt>
      <trkpt lat="45.11132" lon="5.50779">
        <ele>1323</ele>
        <time>2010-01-01T02:55:59Z</time>
      </trkpt>
      <trkpt lat="45.11131" lon="5.50778">
        <ele>1324</ele>
        <time>2010-01-01T02:56:00Z</time>
      </trkpt>
      <trkpt lat="45.11125" lon="5.50771">
        <ele>1324</ele>
        <time>2010-01-01T02:56:03Z</time>
      </trkpt>
      <trkpt lat="45.11123" lon="5.50769">
        <ele>1324</ele>
        <time>2010-01-01T02:56:04Z</time>
      </trkpt>
      <trkpt lat="45.1112" lon="5.50766">
        <ele>1325</ele>
        <time>2010-01-01T02:56:06Z</time>
      </trkpt>
      <trkpt lat="45.11116" lon="5.50764">
        <ele>1326</ele>
        <time>2010-01-01T02:56:07Z</time>
      </trkpt>
      <trkpt lat="45.11115" lon="5.50762">
        <ele>1326</ele>
        <time>2010-01-01T02:56:08Z</time>
      </trkpt>
      <trkpt lat="45.11109" lon="5.50756">
        <ele>1326</ele>
        <time>2010-01-01T02:56:11Z</time>
      </trkpt>
      <trkpt lat="45.11101" lon="5.50754">
        <ele>1328</ele>
        <time>2010-01-01T02:56:14Z</time>
      </trkpt>
      <trkpt lat="45.11096" lon="5.50751">
        <ele>1329</ele>
        <time>2010-01-01T02:56:16Z</time>
      </trkpt>
      <trkpt lat="45.11093" lon="5.50748">
        <ele>1329</ele>
        <time>2010-01-01T02:56:18Z</time>
      </trkpt>
      <trkpt lat="45.11091" lon="5.50746">
        <ele>1329</ele>
        <time>2010-01-01T02:56:19Z</time>
      </trkpt>
      <trkpt lat="45.11086" lon="5.50741">
        <ele>1329</ele>
        <time>2010-01-01T02:56:21Z</time>
      </trkpt>
      <trkpt lat="45.11081" lon="5.50735">
        <ele>1329</ele>
        <time>2010-01-01T02:56:24Z</time>
      </trkpt>
      <trkpt lat="45.11068" lon="5.50727">
        <ele>1331</ele>
        <time>2010-01-01T02:56:29Z</time>
      </trkpt>
      <trkpt lat="45.11066" lon="5.50726">
        <ele>1331</ele>
        <time>2010-01-01T02:56:30Z</time>
      </trkpt>
      <trkpt lat="45.11062" lon="5.50723">
        <ele>1332</ele>
        <time>2010-01-01T02:56:32Z</time>
      </trkpt>
      <trkpt lat="45.11059" lon="5.50721">
        <ele>1333</ele>
        <time>2010-01-01T02:56:33Z</time>
      </trkpt>
      <trkpt lat="45.11057" lon="5.5072">
        <ele>1333</ele>
        <time>2010-01-01T02:56:34Z</time>
      </trkpt>
      <trkpt lat="45.11052" lon="5.50713">
        <ele>1333</ele>
        <time>2010-01-01T02:56:37Z</time>
      </trkpt>
      <trkpt lat="45.11043" lon="5.50706">
        <ele>1334</ele>
        <time>2010-01-01T02:56:41Z</time>
      </trkpt>
      <trkpt lat="45.11032" lon="5.50697">
        <ele>1335</ele>
        <time>2010-01-01T02:56:46Z</time>
      </trkpt>
      <trkpt lat="45.11022" lon="5.5069">
        <ele>1336</ele>
        <time>2010-01-01T02:56:51Z</time>
      </trkpt>
      <trkpt lat="45.11011" lon="5.50683">
        <ele>1337</ele>
        <time>2010-01-01T02:56:56Z</time>
      </trkpt>
      <trkpt lat="45.11003" lon="5.50676">
        <ele>1338</ele>
        <time>2010-01-01T02:56:59Z</time>
      </trkpt>
      <trkpt lat="45.10995" lon="5.50668">
        <ele>1338</ele>
        <time>2010-01-01T02:57:03Z</time>
      </trkpt>
      <trkpt lat="45.10987" lon="5.50663">
        <ele>1338</ele>
        <time>2010-01-01T02:57:07Z</time>
      </trkpt>
      <trkpt lat="45.10979" lon="5.50655">
        <ele>1336</ele>
        <time>2010-01-01T02:57:11Z</time>
      </trkpt>
      <trkpt lat="45.10967" lon="5.50644">
        <ele>1336</ele>
        <time>2010-01-01T02:57:16Z</time>
      </trkpt>
      <trkpt lat="45.10955" lon="5.50631">
        <ele>1335</ele>
        <time>2010-01-01T02:57:23Z</time>
      </trkpt>
      <trkpt lat="45.10946" lon="5.50623">
        <ele>1336</ele>
        <time>2010-01-01T02:57:27Z</time>
      </trkpt>
      <trkpt lat="45.10936" lon="5.50616">
        <ele>1337</ele>
        <time>2010-01-01T02:57:31Z</time>
      </trkpt>
      <trkpt lat="45.10925" lon="5.50608">
        <ele>1338</ele>
        <time>2010-01-01T02:57:36Z</time>
      </trkpt>
      <trkpt lat="45.1092" lon="5.50606">
        <ele>1338</ele>
        <time>2010-01-01T02:57:38Z</time>
      </trkpt>
      <trkpt lat="45.10916" lon="5.50601">
        <ele>1338</ele>
        <time>2010-01-01T02:57:40Z</time>
      </trkpt>
      <trkpt lat="45.10905" lon="5.5059">
        <ele>1339</ele>
        <time>2010-01-01T02:57:46Z</time>
      </trkpt>
      <trkpt lat="45.10898" lon="5.50585">
        <ele>1339</ele>
        <time>2010-01-01T02:57:49Z</time>
      </trkpt>
      <trkpt lat="45.10896" lon="5.50584">
        <ele>1339</ele>
        <time>2010-01-01T02:57:50Z</time>
      </trkpt>
      <trkpt lat="45.10882" lon="5.50574">
        <ele>1341</ele>
        <time>2010-01-01T02:57:56Z</time>
      </trkpt>
      <trkpt lat="45.10877" lon="5.50568">
        <ele>1341</ele>
        <time>2010-01-01T02:57:59Z</time>
      </trkpt>
      <trkpt lat="45.10875" lon="5.50565">
        <ele>1341</ele>
        <time>2010-01-01T02:58:00Z</time>
      </trkpt>
      <trkpt lat="45.10868" lon="5.50556">
        <ele>1342</ele>
        <time>2010-01-01T02:58:04Z</time>
      </trkpt>
      <trkpt lat="45.10866" lon="5.50554">
        <ele>1342</ele>
        <time>2010-01-01T02:58:05Z</time>
      </trkpt>
      <trkpt lat="45.1086" lon="5.50547">
        <ele>1343</ele>
        <time>2010-01-01T02:58:08Z</time>
      </trkpt>
      <trkpt lat="45.10853" lon="5.5054">
        <ele>1344</ele>
        <time>2010-01-01T02:58:11Z</time>
      </trkpt>
      <trkpt lat="45.10842" lon="5.5053">
        <ele>1346</ele>
        <time>2010-01-01T02:58:16Z</time>
      </trkpt>
      <trkpt lat="45.10837" lon="5.50524">
        <ele>1347</ele>
        <time>2010-01-01T02:58:19Z</time>
      </trkpt>
      <trkpt lat="45.10834" lon="5.50519">
        <ele>1347</ele>
        <time>2010-01-01T02:58:21Z</time>
      </trkpt>
      <trkpt lat="45.10827" lon="5.50508">
        <ele>1348</ele>
        <time>2010-01-01T02:58:25Z</time>
      </trkpt>
      <trkpt lat="45.10818" lon="5.50497">
        <ele>1349</ele>
        <time>2010-01-01T02:58:30Z</time>
      </trkpt>
      <trkpt lat="45.10814" lon="5.50491">
        <ele>1349</ele>
        <time>2010-01-01T02:58:32Z</time>
      </trkpt>
      <trkpt lat="45.10809" lon="5.50485">
        <ele>1350</ele>
        <time>2010-01-01T02:58:35Z</time>
      </trkpt>
      <trkpt lat="45.10808" lon="5.50484">
        <ele>1350</ele>
        <time>2010-01-01T02:58:35Z</time>
      </trkpt>
      <trkpt lat="45.10805" lon="5.5048">
        <ele>1351</ele>
        <time>2010-01-01T02:58:37Z</time>
      </trkpt>
      <trkpt lat="45.10804" lon="5.50478">
        <ele>1351</ele>
        <time>2010-01-01T02:58:38Z</time>
      </trkpt>
      <trkpt lat="45.10802" lon="5.50475">
        <ele>1351</ele>
        <time>2010-01-01T02:58:39Z</time>
      </trkpt>
      <trkpt lat="45.10797" lon="5.50472">
        <ele>1352</ele>
        <time>2010-01-01T02:58:41Z</time>
      </trkpt>
      <trkpt lat="45.10795" lon="5.5047">
        <ele>1352</ele>
        <time>2010-01-01T02:58:42Z</time>
      </trkpt>
      <trkpt lat="45.10792" lon="5.5047">
        <ele>1353</ele>
        <time>2010-01-01T02:58:43Z</time>
      </trkpt>
      <trkpt lat="45.10789" lon="5.50469">
        <ele>1354</ele>
        <time>2010-01-01T02:58:44Z</time>
      </trkpt>
      <trkpt lat="45.10788" lon="5.50469">
        <ele>1354</ele>
        <time>2010-01-01T02:58:45Z</time>
      </trkpt>
      <trkpt lat="45.10783" lon="5.50468">
        <ele>1355</ele>
        <time>2010-01-01T02:58:47Z</time>
      </trkpt>
      <trkpt lat="45.10772" lon="5.50464">
        <ele>1357</ele>
        <time>2010-01-01T02:58:51Z</time>
      </trkpt>
      <trkpt lat="45.10768" lon="5.50461">
        <ele>1358</ele>
        <time>2010-01-01T02:58:53Z</time>
      </trkpt>
      <trkpt lat="45.10764" lon="5.50458">
        <ele>1358</ele>
        <time>2010-01-01T02:58:55Z</time>
      </trkpt>
      <trkpt lat="45.10759" lon="5.50453">
        <ele>1359</ele>
        <time>2010-01-01T02:58:57Z</time>
      </trkpt>
      <trkpt lat="45.10757" lon="5.50452">
        <ele>1359</ele>
        <time>2010-01-01T02:58:58Z</time>
      </trkpt>
      <trkpt lat="45.10752" lon="5.5045">
        <ele>1360</ele>
        <time>2010-01-01T02:59:00Z</time>
      </trkpt>
      <trkpt lat="45.10747" lon="5.50448">
        <ele>1362</ele>
        <time>2010-01-01T02:59:02Z</time>
      </trkpt>
      <trkpt lat="45.10742" lon="5.50445">
        <ele>1363</ele>
        <time>2010-01-01T02:59:05Z</time>
      </trkpt>
      <trkpt lat="45.10737" lon="5.50441">
        <ele>1364</ele>
        <time>2010-01-01T02:59:07Z</time>
      </trkpt>
      <trkpt lat="45.10733" lon="5.50439">
        <ele>1365</ele>
        <time>2010-01-01T02:59:09Z</time>
      </trkpt>
      <trkpt lat="45.10731" lon="5.50437">
        <ele>1365</ele>
        <time>2010-01-01T02:59:10Z</time>
      </trkpt>
      <trkpt lat="45.10729" lon="5.50437">
        <ele>1366</ele>
        <time>2010-01-01T02:59:10Z</time>
      </trkpt>
      <trkpt lat="45.10725" lon="5.50435">
        <ele>1367</ele>
        <time>2010-01-01T02:59:12Z</time>
      </trkpt>
      <trkpt lat="45.10725" lon="5.50434">
        <ele>1367</ele>
        <time>2010-01-01T02:59:12Z</time>
      </trkpt>
      <trkpt lat="45.10721" lon="5.50433">
        <ele>1368</ele>
        <time>2010-01-01T02:59:14Z</time>
      </trkpt>
      <trkpt lat="45.10717" lon="5.50432">
        <ele>1369</ele>
        <time>2010-01-01T02:59:16Z</time>
      </trkpt>
      <trkpt lat="45.10715" lon="5.50431">
        <ele>1369</ele>
        <time>2010-01-01T02:59:16Z</time>
      </trkpt>
      <trkpt lat="45.10713" lon="5.50431">
        <ele>1370</ele>
        <time>2010-01-01T02:59:17Z</time>
      </trkpt>
      <trkpt lat="45.10711" lon="5.50431">
        <ele>1370</ele>
        <time>2010-01-01T02:59:18Z</time>
      </trkpt>
      <trkpt lat="45.10708" lon="5.5043">
        <ele>1371</ele>
        <time>2010-01-01T02:59:19Z</time>
      </trkpt>
      <trkpt lat="45.10705" lon="5.5043">
        <ele>1372</ele>
        <time>2010-01-01T02:59:20Z</time>
      </trkpt>
      <trkpt lat="45.10701" lon="5.50428">
        <ele>1372</ele>
        <time>2010-01-01T02:59:22Z</time>
      </trkpt>
      <trkpt lat="45.10698" lon="5.50429">
        <ele>1373</ele>
        <time>2010-01-01T02:59:23Z</time>
      </trkpt>
      <trkpt lat="45.10695" lon="5.50432">
        <ele>1375</ele>
        <time>2010-01-01T02:59:25Z</time>
      </trkpt>
      <trkpt lat="45.10693" lon="5.50433">
        <ele>1375</ele>
        <time>2010-01-01T02:59:26Z</time>
      </trkpt>
      <trkpt lat="45.1069" lon="5.50433">
        <ele>1377</ele>
        <time>2010-01-01T02:59:27Z</time>
      </trkpt>
      <trkpt lat="45.10682" lon="5.50433">
        <ele>1380</ele>
        <time>2010-01-01T02:59:30Z</time>
      </trkpt>
      <trkpt lat="45.10676" lon="5.50431">
        <ele>1382</ele>
        <time>2010-01-01T02:59:33Z</time>
      </trkpt>
      <trkpt lat="45.10676" lon="5.5043">
        <ele>1382</ele>
        <time>2010-01-01T02:59:33Z</time>
      </trkpt>
      <trkpt lat="45.10674" lon="5.50429">
        <ele>1382</ele>
        <time>2010-01-01T02:59:34Z</time>
      </trkpt>
      <trkpt lat="45.10669" lon="5.50426">
        <ele>1384</ele>
        <time>2010-01-01T02:59:36Z</time>
      </trkpt>
      <trkpt lat="45.10667" lon="5.50425">
        <ele>1385</ele>
        <time>2010-01-01T02:59:37Z</time>
      </trkpt>
      <trkpt lat="45.10664" lon="5.50421">
        <ele>1385</ele>
        <time>2010-01-01T02:59:38Z</time>
      </trkpt>
      <trkpt lat="45.10662" lon="5.50421">
        <ele>1385</ele>
        <time>2010-01-01T02:59:39Z</time>
      </trkpt>
      <trkpt lat="45.10659" lon="5.5042">
        <ele>1386</ele>
        <time>2010-01-01T02:59:40Z</time>
      </trkpt>
      <trkpt lat="45.10655" lon="5.50418">
        <ele>1387</ele>
        <time>2010-01-01T02:59:42Z</time>
      </trkpt>
      <trkpt lat="45.10654" lon="5.50417">
        <ele>1387</ele>
        <time>2010-01-01T02:59:43Z</time>
      </trkpt>
      <trkpt lat="45.10649" lon="5.50415">
        <ele>1388</ele>
        <time>2010-01-01T02:59:45Z</time>
      </trkpt>
      <trkpt lat="45.10647" lon="5.50415">
        <ele>1389</ele>
        <time>2010-01-01T02:59:45Z</time>
      </trkpt>
      <trkpt lat="45.10641" lon="5.50414">
        <ele>1390</ele>
        <time>2010-01-01T02:59:48Z</time>
      </trkpt>
      <trkpt lat="45.10638" lon="5.50411">
        <ele>1390</ele>
        <time>2010-01-01T02:59:49Z</time>
      </trkpt>
      <trkpt lat="45.10637" lon="5.50409">
        <ele>1390</ele>
        <time>2010-01-01T02:59:50Z</time>
      </trkpt>
      <trkpt lat="45.10631" lon="5.50408">
        <ele>1391</ele>
        <time>2010-01-01T02:59:52Z</time>
      </trkpt>
      <trkpt lat="45.1063" lon="5.50408">
        <ele>1391</ele>
        <time>2010-01-01T02:59:53Z</time>
      </trkpt>
      <trkpt lat="45.10626" lon="5.50406">
        <ele>1391</ele>
        <time>2010-01-01T02:59:55Z</time>
      </trkpt>
      <trkpt lat="45.10623" lon="5.50405">
        <ele>1392</ele>
        <time>2010-01-01T02:59:56Z</time>
      </trkpt>
      <trkpt lat="45.10619" lon="5.50401">
        <ele>1391</ele>
        <time>2010-01-01T02:59:58Z</time>
      </trkpt>
      <trkpt lat="45.10614" lon="5.50398">
        <ele>1392</ele>
        <time>2010-01-01T03:00:00Z</time>
      </trkpt>
      <trkpt lat="45.10607" lon="5.50397">
        <ele>1393</ele>
        <time>2010-01-01T03:00:03Z</time>
      </trkpt>
      <trkpt lat="45.10602" lon="5.50396">
        <ele>1395</ele>
        <time>2010-01-01T03:00:05Z</time>
      </trkpt>
      <trkpt lat="45.10601" lon="5.50395">
        <ele>1395</ele>
        <time>2010-01-01T03:00:05Z</time>
      </trkpt>
      <trkpt lat="45.10597" lon="5.50394">
        <ele>1396</ele>
        <time>2010-01-01T03:00:07Z</time>
      </trkpt>
      <trkpt lat="45.10593" lon="5.50393">
        <ele>1397</ele>
        <time>2010-01-01T03:00:09Z</time>
      </trkpt>
      <trkpt lat="45.10587" lon="5.5039">
        <ele>1398</ele>
        <time>2010-01-01T03:00:11Z</time>
      </trkpt>
      <trkpt lat="45.10586" lon="5.50389">
        <ele>1399</ele>
        <time>2010-01-01T03:00:12Z</time>
      </trkpt>
      <trkpt lat="45.10581" lon="5.50387">
        <ele>1400</ele>
        <time>2010-01-01T03:00:14Z</time>
      </trkpt>
      <trkpt lat="45.10576" lon="5.50384">
        <ele>1400</ele>
        <time>2010-01-01T03:00:16Z</time>
      </trkpt>
      <trkpt lat="45.10569" lon="5.50383">
        <ele>1402</ele>
        <time>2010-01-01T03:00:19Z</time>
      </trkpt>
      <trkpt lat="45.10564" lon="5.50381">
        <ele>1404</ele>
        <time>2010-01-01T03:00:21Z</time>
      </trkpt>
      <trkpt lat="45.10562" lon="5.5038">
        <ele>1404</ele>
        <time>2010-01-01T03:00:22Z</time>
      </trkpt>
      <trkpt lat="45.10559" lon="5.50379">
        <ele>1405</ele>
        <time>2010-01-01T03:00:23Z</time>
      </trkpt>
      <trkpt lat="45.10554" lon="5.50377">
        <ele>1406</ele>
        <time>2010-01-01T03:00:25Z</time>
      </trkpt>
      <trkpt lat="45.1055" lon="5.50379">
        <ele>1408</ele>
        <time>2010-01-01T03:00:27Z</time>
      </trkpt>
      <trkpt lat="45.10544" lon="5.50381">
        <ele>1410</ele>
        <time>2010-01-01T03:00:29Z</time>
      </trkpt>
      <trkpt lat="45.10542" lon="5.50382">
        <ele>1411</ele>
        <time>2010-01-01T03:00:30Z</time>
      </trkpt>
      <trkpt lat="45.1054" lon="5.50383">
        <ele>1412</ele>
        <time>2010-01-01T03:00:31Z</time>
      </trkpt>
      <trkpt lat="45.10535" lon="5.50384">
        <ele>1413</ele>
        <time>2010-01-01T03:00:33Z</time>
      </trkpt>
      <trkpt lat="45.10529" lon="5.50387">
        <ele>1416</ele>
        <time>2010-01-01T03:00:35Z</time>
      </trkpt>
      <trkpt lat="45.10523" lon="5.50386">
        <ele>1417</ele>
        <time>2010-01-01T03:00:38Z</time>
      </trkpt>
      <trkpt lat="45.10519" lon="5.50386">
        <ele>1419</ele>
        <time>2010-01-01T03:00:39Z</time>
      </trkpt>
      <trkpt lat="45.10518" lon="5.50386">
        <ele>1419</ele>
        <time>2010-01-01T03:00:40Z</time>
      </trkpt>
      <trkpt lat="45.10515" lon="5.50382">
        <ele>1419</ele>
        <time>2010-01-01T03:00:41Z</time>
      </trkpt>
      <trkpt lat="45.10514" lon="5.50382">
        <ele>1419</ele>
        <time>2010-01-01T03:00:42Z</time>
      </trkpt>
      <trkpt lat="45.10513" lon="5.50383">
        <ele>1420</ele>
        <time>2010-01-01T03:00:42Z</time>
      </trkpt>
      <trkpt lat="45.10509" lon="5.50382">
        <ele>1421</ele>
        <time>2010-01-01T03:00:44Z</time>
      </trkpt>
      <trkpt lat="45.10504" lon="5.50381">
        <ele>1422</ele>
        <time>2010-01-01T03:00:46Z</time>
      </trkpt>
      <trkpt lat="45.10501" lon="5.50382">
        <ele>1423</ele>
        <time>2010-01-01T03:00:47Z</time>
      </trkpt>
      <trkpt lat="45.10497" lon="5.50381">
        <ele>1424</ele>
        <time>2010-01-01T03:00:49Z</time>
      </trkpt>
      <trkpt lat="45.10496" lon="5.50381">
        <ele>1425</ele>
        <time>2010-01-01T03:00:49Z</time>
      </trkpt>
      <trkpt lat="45.1049" lon="5.5038">
        <ele>1426</ele>
        <time>2010-01-01T03:00:52Z</time>
      </trkpt>
      <trkpt lat="45.10487" lon="5.5038">
        <ele>1427</ele>
        <time>2010-01-01T03:00:53Z</time>
      </trkpt>
      <trkpt lat="45.10485" lon="5.5038">
        <ele>1428</ele>
        <time>2010-01-01T03:00:54Z</time>
      </trkpt>
      <trkpt lat="45.10479" lon="5.50384">
        <ele>1430</ele>
        <time>2010-01-01T03:00:56Z</time>
      </trkpt>
      <trkpt lat="45.10474" lon="5.50383">
        <ele>1431</ele>
        <time>2010-01-01T03:00:58Z</time>
      </trkpt>
      <trkpt lat="45.1047" lon="5.50385">
        <ele>1433</ele>
        <time>2010-01-01T03:01:00Z</time>
      </trkpt>
      <trkpt lat="45.10467" lon="5.50387">
        <ele>1434</ele>
        <time>2010-01-01T03:01:01Z</time>
      </trkpt>
      <trkpt lat="45.10466" lon="5.50388">
        <ele>1435</ele>
        <time>2010-01-01T03:01:02Z</time>
      </trkpt>
      <trkpt lat="45.10461" lon="5.50387">
        <ele>1436</ele>
        <time>2010-01-01T03:01:04Z</time>
      </trkpt>
      <trkpt lat="45.1046" lon="5.50388">
        <ele>1436</ele>
        <time>2010-01-01T03:01:04Z</time>
      </trkpt>
      <trkpt lat="45.1046" lon="5.5039">
        <ele>1437</ele>
        <time>2010-01-01T03:01:05Z</time>
      </trkpt>
      <trkpt lat="45.10453" lon="5.50389">
        <ele>1438</ele>
        <time>2010-01-01T03:01:08Z</time>
      </trkpt>
      <trkpt lat="45.10447" lon="5.50386">
        <ele>1439</ele>
        <time>2010-01-01T03:01:10Z</time>
      </trkpt>
      <trkpt lat="45.10446" lon="5.50386">
        <ele>1440</ele>
        <time>2010-01-01T03:01:11Z</time>
      </trkpt>
      <trkpt lat="45.10443" lon="5.50387">
        <ele>1441</ele>
        <time>2010-01-01T03:01:12Z</time>
      </trkpt>
      <trkpt lat="45.10442" lon="5.50388">
        <ele>1441</ele>
        <time>2010-01-01T03:01:12Z</time>
      </trkpt>
      <trkpt lat="45.10437" lon="5.50395">
        <ele>1443</ele>
        <time>2010-01-01T03:01:15Z</time>
      </trkpt>
      <trkpt lat="45.10438" lon="5.504">
        <ele>1443</ele>
        <time>2010-01-01T03:01:17Z</time>
      </trkpt>
      <trkpt lat="45.1044" lon="5.50404">
        <ele>1443</ele>
        <time>2010-01-01T03:01:18Z</time>
      </trkpt>
      <trkpt lat="45.10439" lon="5.50406">
        <ele>1443</ele>
        <time>2010-01-01T03:01:19Z</time>
      </trkpt>
      <trkpt lat="45.10436" lon="5.50408">
        <ele>1444</ele>
        <time>2010-01-01T03:01:20Z</time>
      </trkpt>
      <trkpt lat="45.10436" lon="5.50409">
        <ele>1444</ele>
        <time>2010-01-01T03:01:20Z</time>
      </trkpt>
      <trkpt lat="45.10432" lon="5.50412">
        <ele>1445</ele>
        <time>2010-01-01T03:01:22Z</time>
      </trkpt>
      <trkpt lat="45.10431" lon="5.50415">
        <ele>1445</ele>
        <time>2010-01-01T03:01:23Z</time>
      </trkpt>
      <trkpt lat="45.10427" lon="5.50418">
        <ele>1446</ele>
        <time>2010-01-01T03:01:25Z</time>
      </trkpt>
      <trkpt lat="45.10424" lon="5.50418">
        <ele>1447</ele>
        <time>2010-01-01T03:01:26Z</time>
      </trkpt>
      <trkpt lat="45.10422" lon="5.5042">
        <ele>1448</ele>
        <time>2010-01-01T03:01:27Z</time>
      </trkpt>
      <trkpt lat="45.10419" lon="5.50422">
        <ele>1449</ele>
        <time>2010-01-01T03:01:28Z</time>
      </trkpt>
      <trkpt lat="45.10417" lon="5.50423">
        <ele>1449</ele>
        <time>2010-01-01T03:01:29Z</time>
      </trkpt>
      <trkpt lat="45.10415" lon="5.50428">
        <ele>1450</ele>
        <time>2010-01-01T03:01:31Z</time>
      </trkpt>
      <trkpt lat="45.10413" lon="5.5043">
        <ele>1451</ele>
        <time>2010-01-01T03:01:32Z</time>
      </trkpt>
      <trkpt lat="45.10412" lon="5.50432">
        <ele>1452</ele>
        <time>2010-01-01T03:01:33Z</time>
      </trkpt>
      <trkpt lat="45.10409" lon="5.50434">
        <ele>1453</ele>
        <time>2010-01-01T03:01:34Z</time>
      </trkpt>
      <trkpt lat="45.10407" lon="5.50436">
        <ele>1454</ele>
        <time>2010-01-01T03:01:35Z</time>
      </trkpt>
      <trkpt lat="45.10404" lon="5.50436">
        <ele>1456</ele>
        <time>2010-01-01T03:01:36Z</time>
      </trkpt>
      <trkpt lat="45.10402" lon="5.5044">
        <ele>1457</ele>
        <time>2010-01-01T03:01:37Z</time>
      </trkpt>
      <trkpt lat="45.104" lon="5.50441">
        <ele>1458</ele>
        <time>2010-01-01T03:01:38Z</time>
      </trkpt>
      <trkpt lat="45.10398" lon="5.50444">
        <ele>1459</ele>
        <time>2010-01-01T03:01:39Z</time>
      </trkpt>
      <trkpt lat="45.10395" lon="5.50445">
        <ele>1460</ele>
        <time>2010-01-01T03:01:41Z</time>
      </trkpt>
      <trkpt lat="45.10394" lon="5.50446">
        <ele>1461</ele>
        <time>2010-01-01T03:01:41Z</time>
      </trkpt>
      <trkpt lat="45.10392" lon="5.50449">
        <ele>1462</ele>
        <time>2010-01-01T03:01:42Z</time>
      </trkpt>
      <trkpt lat="45.10386" lon="5.5045">
        <ele>1463</ele>
        <time>2010-01-01T03:01:45Z</time>
      </trkpt>
      <trkpt lat="45.10383" lon="5.50451">
        <ele>1464</ele>
        <time>2010-01-01T03:01:46Z</time>
      </trkpt>
      <trkpt lat="45.10379" lon="5.50452">
        <ele>1465</ele>
        <time>2010-01-01T03:01:48Z</time>
      </trkpt>
      <trkpt lat="45.10377" lon="5.50454">
        <ele>1465</ele>
        <time>2010-01-01T03:01:49Z</time>
      </trkpt>
      <trkpt lat="45.10374" lon="5.50457">
        <ele>1466</ele>
        <time>2010-01-01T03:01:50Z</time>
      </trkpt>
      <trkpt lat="45.10371" lon="5.5046">
        <ele>1466</ele>
        <time>2010-01-01T03:01:52Z</time>
      </trkpt>
      <trkpt lat="45.10366" lon="5.50461">
        <ele>1467</ele>
        <time>2010-01-01T03:01:54Z</time>
      </trkpt>
      <trkpt lat="45.10364" lon="5.50462">
        <ele>1468</ele>
        <time>2010-01-01T03:01:54Z</time>
      </trkpt>
      <trkpt lat="45.10363" lon="5.50461">
        <ele>1468</ele>
        <time>2010-01-01T03:01:55Z</time>
      </trkpt>
      <trkpt lat="45.10362" lon="5.50458">
        <ele>1468</ele>
        <time>2010-01-01T03:01:56Z</time>
      </trkpt>
      <trkpt lat="45.10358" lon="5.5045">
        <ele>1469</ele>
        <time>2010-01-01T03:01:59Z</time>
      </trkpt>
      <trkpt lat="45.10354" lon="5.50443">
        <ele>1470</ele>
        <time>2010-01-01T03:02:01Z</time>
      </trkpt>
      <trkpt lat="45.10352" lon="5.50438">
        <ele>1470</ele>
        <time>2010-01-01T03:02:03Z</time>
      </trkpt>
      <trkpt lat="45.10349" lon="5.50433">
        <ele>1471</ele>
        <time>2010-01-01T03:02:05Z</time>
      </trkpt>
      <trkpt lat="45.10347" lon="5.50427">
        <ele>1471</ele>
        <time>2010-01-01T03:02:06Z</time>
      </trkpt>
      <trkpt lat="45.10346" lon="5.50424">
        <ele>1472</ele>
        <time>2010-01-01T03:02:07Z</time>
      </trkpt>
      <trkpt lat="45.10345" lon="5.50422">
        <ele>1472</ele>
        <time>2010-01-01T03:02:08Z</time>
      </trkpt>
      <trkpt lat="45.10344" lon="5.50421">
        <ele>1472</ele>
        <time>2010-01-01T03:02:09Z</time>
      </trkpt>
      <trkpt lat="45.10341" lon="5.50412">
        <ele>1474</ele>
        <time>2010-01-01T03:02:11Z</time>
      </trkpt>
      <trkpt lat="45.10338" lon="5.50408">
        <ele>1475</ele>
        <time>2010-01-01T03:02:13Z</time>
      </trkpt>
      <trkpt lat="45.10335" lon="5.50403">
        <ele>1476</ele>
        <time>2010-01-01T03:02:15Z</time>
      </trkpt>
      <trkpt lat="45.10335" lon="5.50402">
        <ele>1476</ele>
        <time>2010-01-01T03:02:15Z</time>
      </trkpt>
      <trkpt lat="45.10333" lon="5.50401">
        <ele>1477</ele>
        <time>2010-01-01T03:02:16Z</time>
      </trkpt>
      <trkpt lat="45.10332" lon="5.504">
        <ele>1477</ele>
        <time>2010-01-01T03:02:17Z</time>
      </trkpt>
      <trkpt lat="45.1033" lon="5.50395">
        <ele>1478</ele>
        <time>2010-01-01T03:02:18Z</time>
      </trkpt>
      <trkpt lat="45.10329" lon="5.50394">
        <ele>1478</ele>
        <time>2010-01-01T03:02:19Z</time>
      </trkpt>
      <trkpt lat="45.10327" lon="5.50391">
        <ele>1479</ele>
        <time>2010-01-01T03:02:20Z</time>
      </trkpt>
      <trkpt lat="45.10323" lon="5.50383">
        <ele>1481</ele>
        <time>2010-01-01T03:02:23Z</time>
      </trkpt>
      <trkpt lat="45.10321" lon="5.50381">
        <ele>1481</ele>
        <time>2010-01-01T03:02:24Z</time>
      </trkpt>
      <trkpt lat="45.1032" lon="5.5038">
        <ele>1481</ele>
        <time>2010-01-01T03:02:24Z</time>
      </trkpt>
      <trkpt lat="45.10316" lon="5.50376">
        <ele>1482</ele>
        <time>2010-01-01T03:02:26Z</time>
      </trkpt>
      <trkpt lat="45.10311" lon="5.50369">
        <ele>1483</ele>
        <time>2010-01-01T03:02:29Z</time>
      </trkpt>
      <trkpt lat="45.10309" lon="5.50367">
        <ele>1484</ele>
        <time>2010-01-01T03:02:30Z</time>
      </trkpt>
      <trkpt lat="45.10307" lon="5.50362">
        <ele>1484</ele>
        <time>2010-01-01T03:02:31Z</time>
      </trkpt>
      <trkpt lat="45.10303" lon="5.50359">
        <ele>1485</ele>
        <time>2010-01-01T03:02:33Z</time>
      </trkpt>
      <trkpt lat="45.10302" lon="5.50356">
        <ele>1485</ele>
        <time>2010-01-01T03:02:34Z</time>
      </trkpt>
      <trkpt lat="45.10301" lon="5.50354">
        <ele>1485</ele>
        <time>2010-01-01T03:02:35Z</time>
      </trkpt>
      <trkpt lat="45.10299" lon="5.5035">
        <ele>1485</ele>
        <time>2010-01-01T03:02:36Z</time>
      </trkpt>
      <trkpt lat="45.10297" lon="5.50346">
        <ele>1485</ele>
        <time>2010-01-01T03:02:38Z</time>
      </trkpt>
      <trkpt lat="45.10296" lon="5.50344">
        <ele>1486</ele>
        <time>2010-01-01T03:02:38Z</time>
      </trkpt>
      <trkpt lat="45.10291" lon="5.50338">
        <ele>1487</ele>
        <time>2010-01-01T03:02:41Z</time>
      </trkpt>
      <trkpt lat="45.10289" lon="5.50337">
        <ele>1487</ele>
        <time>2010-01-01T03:02:42Z</time>
      </trkpt>
      <trkpt lat="45.10285" lon="5.50336">
        <ele>1488</ele>
        <time>2010-01-01T03:02:43Z</time>
      </trkpt>
      <trkpt lat="45.10278" lon="5.50332">
        <ele>1489</ele>
        <time>2010-01-01T03:02:46Z</time>
      </trkpt>
      <trkpt lat="45.10276" lon="5.50331">
        <ele>1490</ele>
        <time>2010-01-01T03:02:47Z</time>
      </trkpt>
      <trkpt lat="45.10273" lon="5.5033">
        <ele>1490</ele>
        <time>2010-01-01T03:02:49Z</time>
      </trkpt>
      <trkpt lat="45.10266" lon="5.50328">
        <ele>1491</ele>
        <time>2010-01-01T03:02:51Z</time>
      </trkpt>
      <trkpt lat="45.1026" lon="5.50326">
        <ele>1492</ele>
        <time>2010-01-01T03:02:54Z</time>
      </trkpt>
      <trkpt lat="45.10251" lon="5.50324">
        <ele>1494</ele>
        <time>2010-01-01T03:02:58Z</time>
      </trkpt>
      <trkpt lat="45.10244" lon="5.50321">
        <ele>1495</ele>
        <time>2010-01-01T03:03:00Z</time>
      </trkpt>
      <trkpt lat="45.10239" lon="5.50317">
        <ele>1496</ele>
        <time>2010-01-01T03:03:03Z</time>
      </trkpt>
      <trkpt lat="45.10229" lon="5.50313">
        <ele>1498</ele>
        <time>2010-01-01T03:03:07Z</time>
      </trkpt>
      <trkpt lat="45.10223" lon="5.5031">
        <ele>1499</ele>
        <time>2010-01-01T03:03:09Z</time>
      </trkpt>
      <trkpt lat="45.10214" lon="5.50308">
        <ele>1500</ele>
        <time>2010-01-01T03:03:13Z</time>
      </trkpt>
      <trkpt lat="45.10205" lon="5.50306">
        <ele>1502</ele>
        <time>2010-01-01T03:03:17Z</time>
      </trkpt>
      <trkpt lat="45.102" lon="5.50305">
        <ele>1503</ele>
        <time>2010-01-01T03:03:19Z</time>
      </trkpt>
      <trkpt lat="45.10197" lon="5.50303">
        <ele>1503</ele>
        <time>2010-01-01T03:03:20Z</time>
      </trkpt>
      <trkpt lat="45.1019" lon="5.50298">
        <ele>1504</ele>
        <time>2010-01-01T03:03:23Z</time>
      </trkpt>
      <trkpt lat="45.10185" lon="5.50295">
        <ele>1504</ele>
        <time>2010-01-01T03:03:25Z</time>
      </trkpt>
      <trkpt lat="45.10177" lon="5.50293">
        <ele>1505</ele>
        <time>2010-01-01T03:03:29Z</time>
      </trkpt>
      <trkpt lat="45.10172" lon="5.5029">
        <ele>1505</ele>
        <time>2010-01-01T03:03:31Z</time>
      </trkpt>
      <trkpt lat="45.1017" lon="5.5029">
        <ele>1505</ele>
        <time>2010-01-01T03:03:32Z</time>
      </trkpt>
      <trkpt lat="45.10167" lon="5.50289">
        <ele>1505</ele>
        <time>2010-01-01T03:03:33Z</time>
      </trkpt>
      <trkpt lat="45.10164" lon="5.50289">
        <ele>1506</ele>
        <time>2010-01-01T03:03:34Z</time>
      </trkpt>
      <trkpt lat="45.10159" lon="5.5029">
        <ele>1506</ele>
        <time>2010-01-01T03:03:36Z</time>
      </trkpt>
      <trkpt lat="45.1015" lon="5.5029">
        <ele>1507</ele>
        <time>2010-01-01T03:03:40Z</time>
      </trkpt>
      <trkpt lat="45.10135" lon="5.50287">
        <ele>1509</ele>
        <time>2010-01-01T03:03:46Z</time>
      </trkpt>
      <trkpt lat="45.10124" lon="5.50281">
        <ele>1510</ele>
        <time>2010-01-01T03:03:50Z</time>
      </trkpt>
      <trkpt lat="45.10115" lon="5.50274">
        <ele>1511</ele>
        <time>2010-01-01T03:03:55Z</time>
      </trkpt>
      <trkpt lat="45.10109" lon="5.5027">
        <ele>1511</ele>
        <time>2010-01-01T03:03:57Z</time>
      </trkpt>
      <trkpt lat="45.10106" lon="5.50269">
        <ele>1511</ele>
        <time>2010-01-01T03:03:58Z</time>
      </trkpt>
      <trkpt lat="45.101" lon="5.50268">
        <ele>1511</ele>
        <time>2010-01-01T03:04:01Z</time>
      </trkpt>
      <trkpt lat="45.10086" lon="5.50262">
        <ele>1511</ele>
        <time>2010-01-01T03:04:07Z</time>
      </trkpt>
      <trkpt lat="45.10076" lon="5.50258">
        <ele>1511</ele>
        <time>2010-01-01T03:04:11Z</time>
      </trkpt>
      <trkpt lat="45.10068" lon="5.50258">
        <ele>1511</ele>
        <time>2010-01-01T03:04:14Z</time>
      </trkpt>
      <trkpt lat="45.10065" lon="5.50257">
        <ele>1511</ele>
        <time>2010-01-01T03:04:15Z</time>
      </trkpt>
      <trkpt lat="45.10055" lon="5.50251">
        <ele>1511</ele>
        <time>2010-01-01T03:04:20Z</time>
      </trkpt>
      <trkpt lat="45.10047" lon="5.50246">
        <ele>1512</ele>
        <time>2010-01-01T03:04:23Z</time>
      </trkpt>
      <trkpt lat="45.10034" lon="5.50242">
        <ele>1512</ele>
        <time>2010-01-01T03:04:29Z</time>
      </trkpt>
      <trkpt lat="45.10023" lon="5.50238">
        <ele>1513</ele>
        <time>2010-01-01T03:04:33Z</time>
      </trkpt>
      <trkpt lat="45.10014" lon="5.50232">
        <ele>1513</ele>
        <time>2010-01-01T03:04:37Z</time>
      </trkpt>
      <trkpt lat="45.10011" lon="5.50229">
        <ele>1513</ele>
        <time>2010-01-01T03:04:39Z</time>
      </trkpt>
      <trkpt lat="45.10005" lon="5.50224">
        <ele>1513</ele>
        <time>2010-01-01T03:04:41Z</time>
      </trkpt>
      <trkpt lat="45.09996" lon="5.50214">
        <ele>1512</ele>
        <time>2010-01-01T03:04:46Z</time>
      </trkpt>
      <trkpt lat="45.09987" lon="5.50205">
        <ele>1511</ele>
        <time>2010-01-01T03:04:50Z</time>
      </trkpt>
      <trkpt lat="45.09978" lon="5.50197">
        <ele>1510</ele>
        <time>2010-01-01T03:04:55Z</time>
      </trkpt>
      <trkpt lat="45.09973" lon="5.50196">
        <ele>1510</ele>
        <time>2010-01-01T03:04:57Z</time>
      </trkpt>
      <trkpt lat="45.09965" lon="5.50195">
        <ele>1510</ele>
        <time>2010-01-01T03:05:00Z</time>
      </trkpt>
      <trkpt lat="45.09952" lon="5.50194">
        <ele>1509</ele>
        <time>2010-01-01T03:05:05Z</time>
      </trkpt>
      <trkpt lat="45.0994" lon="5.50194">
        <ele>1509</ele>
        <time>2010-01-01T03:05:10Z</time>
      </trkpt>
      <trkpt lat="45.09938" lon="5.50194">
        <ele>1509</ele>
        <time>2010-01-01T03:05:11Z</time>
      </trkpt>
      <trkpt lat="45.09928" lon="5.50198">
        <ele>1509</ele>
        <time>2010-01-01T03:05:15Z</time>
      </trkpt>
      <trkpt lat="45.09915" lon="5.50197">
        <ele>1507</ele>
        <time>2010-01-01T03:05:20Z</time>
      </trkpt>
      <trkpt lat="45.09903" lon="5.50203">
        <ele>1506</ele>
        <time>2010-01-01T03:05:25Z</time>
      </trkpt>
      <trkpt lat="45.09891" lon="5.50213">
        <ele>1505</ele>
        <time>2010-01-01T03:05:31Z</time>
      </trkpt>
      <trkpt lat="45.09881" lon="5.50219">
        <ele>1504</ele>
        <time>2010-01-01T03:05:35Z</time>
      </trkpt>
      <trkpt lat="45.09879" lon="5.5022">
        <ele>1504</ele>
        <time>2010-01-01T03:05:36Z</time>
      </trkpt>
      <trkpt lat="45.0987" lon="5.50228">
        <ele>1504</ele>
        <time>2010-01-01T03:05:40Z</time>
      </trkpt>
      <trkpt lat="45.09854" lon="5.50236">
        <ele>1502</ele>
        <time>2010-01-01T03:05:47Z</time>
      </trkpt>
      <trkpt lat="45.09842" lon="5.50246">
        <ele>1501</ele>
        <time>2010-01-01T03:05:52Z</time>
      </trkpt>
      <trkpt lat="45.09831" lon="5.50253">
        <ele>1499</ele>
        <time>2010-01-01T03:05:57Z</time>
      </trkpt>
      <trkpt lat="45.09817" lon="5.50265">
        <ele>1494</ele>
        <time>2010-01-01T03:06:04Z</time>
      </trkpt>
      <trkpt lat="45.09806" lon="5.50269">
        <ele>1491</ele>
        <time>2010-01-01T03:06:08Z</time>
      </trkpt>
      <trkpt lat="45.09796" lon="5.50281">
        <ele>1489</ele>
        <time>2010-01-01T03:06:14Z</time>
      </trkpt>
      <trkpt lat="45.09786" lon="5.50297">
        <ele>1488</ele>
        <time>2010-01-01T03:06:20Z</time>
      </trkpt>
      <trkpt lat="45.09773" lon="5.5031">
        <ele>1487</ele>
        <time>2010-01-01T03:06:26Z</time>
      </trkpt>
      <trkpt lat="45.09763" lon="5.50314">
        <ele>1487</ele>
        <time>2010-01-01T03:06:30Z</time>
      </trkpt>
      <trkpt lat="45.09758" lon="5.50317">
        <ele>1487</ele>
        <time>2010-01-01T03:06:32Z</time>
      </trkpt>
      <trkpt lat="45.09757" lon="5.50319">
        <ele>1488</ele>
        <time>2010-01-01T03:06:33Z</time>
      </trkpt>
      <trkpt lat="45.09753" lon="5.50319">
        <ele>1488</ele>
        <time>2010-01-01T03:06:35Z</time>
      </trkpt>
      <trkpt lat="45.09752" lon="5.5032">
        <ele>1488</ele>
        <time>2010-01-01T03:06:35Z</time>
      </trkpt>
      <trkpt lat="45.09747" lon="5.50324">
        <ele>1488</ele>
        <time>2010-01-01T03:06:37Z</time>
      </trkpt>
      <trkpt lat="45.09741" lon="5.50326">
        <ele>1490</ele>
        <time>2010-01-01T03:06:40Z</time>
      </trkpt>
      <trkpt lat="45.09738" lon="5.50329">
        <ele>1490</ele>
        <time>2010-01-01T03:06:41Z</time>
      </trkpt>
      <trkpt lat="45.09737" lon="5.5033">
        <ele>1491</ele>
        <time>2010-01-01T03:06:42Z</time>
      </trkpt>
      <trkpt lat="45.09734" lon="5.50331">
        <ele>1491</ele>
        <time>2010-01-01T03:06:43Z</time>
      </trkpt>
      <trkpt lat="45.09731" lon="5.50332">
        <ele>1492</ele>
        <time>2010-01-01T03:06:44Z</time>
      </trkpt>
      <trkpt lat="45.09729" lon="5.50333">
        <ele>1492</ele>
        <time>2010-01-01T03:06:45Z</time>
      </trkpt>
      <trkpt lat="45.09725" lon="5.50335">
        <ele>1493</ele>
        <time>2010-01-01T03:06:47Z</time>
      </trkpt>
      <trkpt lat="45.09724" lon="5.50335">
        <ele>1493</ele>
        <time>2010-01-01T03:06:47Z</time>
      </trkpt>
      <trkpt lat="45.09722" lon="5.50337">
        <ele>1494</ele>
        <time>2010-01-01T03:06:48Z</time>
      </trkpt>
      <trkpt lat="45.09721" lon="5.50338">
        <ele>1494</ele>
        <time>2010-01-01T03:06:49Z</time>
      </trkpt>
      <trkpt lat="45.09719" lon="5.50339">
        <ele>1495</ele>
        <time>2010-01-01T03:06:50Z</time>
      </trkpt>
      <trkpt lat="45.09716" lon="5.50338">
        <ele>1496</ele>
        <time>2010-01-01T03:06:51Z</time>
      </trkpt>
      <trkpt lat="45.09715" lon="5.50339">
        <ele>1496</ele>
        <time>2010-01-01T03:06:51Z</time>
      </trkpt>
      <trkpt lat="45.09713" lon="5.50339">
        <ele>1496</ele>
        <time>2010-01-01T03:06:52Z</time>
      </trkpt>
      <trkpt lat="45.0971" lon="5.50342">
        <ele>1498</ele>
        <time>2010-01-01T03:06:54Z</time>
      </trkpt>
      <trkpt lat="45.09707" lon="5.5034">
        <ele>1498</ele>
        <time>2010-01-01T03:06:55Z</time>
      </trkpt>
      <trkpt lat="45.09705" lon="5.50342">
        <ele>1499</ele>
        <time>2010-01-01T03:06:56Z</time>
      </trkpt>
      <trkpt lat="45.09703" lon="5.50343">
        <ele>1500</ele>
        <time>2010-01-01T03:06:57Z</time>
      </trkpt>
      <trkpt lat="45.09702" lon="5.50343">
        <ele>1500</ele>
        <time>2010-01-01T03:06:57Z</time>
      </trkpt>
      <trkpt lat="45.09699" lon="5.50343">
        <ele>1501</ele>
        <time>2010-01-01T03:06:58Z</time>
      </trkpt>
      <trkpt lat="45.09697" lon="5.50343">
        <ele>1502</ele>
        <time>2010-01-01T03:06:59Z</time>
      </trkpt>
      <trkpt lat="45.09693" lon="5.50344">
        <ele>1503</ele>
        <time>2010-01-01T03:07:01Z</time>
      </trkpt>
      <trkpt lat="45.09688" lon="5.50344">
        <ele>1505</ele>
        <time>2010-01-01T03:07:03Z</time>
      </trkpt>
      <trkpt lat="45.09687" lon="5.50344">
        <ele>1505</ele>
        <time>2010-01-01T03:07:03Z</time>
      </trkpt>
      <trkpt lat="45.09683" lon="5.50346">
        <ele>1506</ele>
        <time>2010-01-01T03:07:05Z</time>
      </trkpt>
      <trkpt lat="45.09682" lon="5.50346">
        <ele>1507</ele>
        <time>2010-01-01T03:07:05Z</time>
      </trkpt>
      <trkpt lat="45.09678" lon="5.50345">
        <ele>1508</ele>
        <time>2010-01-01T03:07:07Z</time>
      </trkpt>
      <trkpt lat="45.09675" lon="5.50346">
        <ele>1509</ele>
        <time>2010-01-01T03:07:08Z</time>
      </trkpt>
      <trkpt lat="45.09672" lon="5.50346">
        <ele>1510</ele>
        <time>2010-01-01T03:07:09Z</time>
      </trkpt>
      <trkpt lat="45.0967" lon="5.50347">
        <ele>1510</ele>
        <time>2010-01-01T03:07:10Z</time>
      </trkpt>
      <trkpt lat="45.09665" lon="5.50352">
        <ele>1512</ele>
        <time>2010-01-01T03:07:13Z</time>
      </trkpt>
      <trkpt lat="45.09661" lon="5.50356">
        <ele>1514</ele>
        <time>2010-01-01T03:07:15Z</time>
      </trkpt>
      <trkpt lat="45.0966" lon="5.50359">
        <ele>1514</ele>
        <time>2010-01-01T03:07:16Z</time>
      </trkpt>
      <trkpt lat="45.09657" lon="5.50363">
        <ele>1515</ele>
        <time>2010-01-01T03:07:17Z</time>
      </trkpt>
      <trkpt lat="45.09655" lon="5.50367">
        <ele>1516</ele>
        <time>2010-01-01T03:07:19Z</time>
      </trkpt>
      <trkpt lat="45.09654" lon="5.50368">
        <ele>1516</ele>
        <time>2010-01-01T03:07:19Z</time>
      </trkpt>
      <trkpt lat="45.09648" lon="5.50371">
        <ele>1517</ele>
        <time>2010-01-01T03:07:22Z</time>
      </trkpt>
      <trkpt lat="45.09646" lon="5.50371">
        <ele>1517</ele>
        <time>2010-01-01T03:07:22Z</time>
      </trkpt>
      <trkpt lat="45.09643" lon="5.50371">
        <ele>1517</ele>
        <time>2010-01-01T03:07:24Z</time>
      </trkpt>
      <trkpt lat="45.09638" lon="5.50371">
        <ele>1518</ele>
        <time>2010-01-01T03:07:26Z</time>
      </trkpt>
      <trkpt lat="45.09637" lon="5.50371">
        <ele>1518</ele>
        <time>2010-01-01T03:07:26Z</time>
      </trkpt>
      <trkpt lat="45.0963" lon="5.5037">
        <ele>1518</ele>
        <time>2010-01-01T03:07:29Z</time>
      </trkpt>
      <trkpt lat="45.09628" lon="5.50369">
        <ele>1519</ele>
        <time>2010-01-01T03:07:30Z</time>
      </trkpt>
      <trkpt lat="45.09625" lon="5.50367">
        <ele>1519</ele>
        <time>2010-01-01T03:07:31Z</time>
      </trkpt>
      <trkpt lat="45.09618" lon="5.50367">
        <ele>1519</ele>
        <time>2010-01-01T03:07:34Z</time>
      </trkpt>
      <trkpt lat="45.09611" lon="5.50367">
        <ele>1520</ele>
        <time>2010-01-01T03:07:37Z</time>
      </trkpt>
      <trkpt lat="45.09608" lon="5.50365">
        <ele>1520</ele>
        <time>2010-01-01T03:07:38Z</time>
      </trkpt>
      <trkpt lat="45.09601" lon="5.50364">
        <ele>1522</ele>
        <time>2010-01-01T03:07:41Z</time>
      </trkpt>
      <trkpt lat="45.09593" lon="5.50363">
        <ele>1523</ele>
        <time>2010-01-01T03:07:44Z</time>
      </trkpt>
      <trkpt lat="45.09591" lon="5.50362">
        <ele>1524</ele>
        <time>2010-01-01T03:07:45Z</time>
      </trkpt>
      <trkpt lat="45.0959" lon="5.50361">
        <ele>1524</ele>
        <time>2010-01-01T03:07:45Z</time>
      </trkpt>
      <trkpt lat="45.09586" lon="5.50361">
        <ele>1525</ele>
        <time>2010-01-01T03:07:47Z</time>
      </trkpt>
      <trkpt lat="45.09584" lon="5.50362">
        <ele>1525</ele>
        <time>2010-01-01T03:07:48Z</time>
      </trkpt>
      <trkpt lat="45.09582" lon="5.50361">
        <ele>1526</ele>
        <time>2010-01-01T03:07:49Z</time>
      </trkpt>
      <trkpt lat="45.09576" lon="5.50362">
        <ele>1527</ele>
        <time>2010-01-01T03:07:51Z</time>
      </trkpt>
      <trkpt lat="45.0957" lon="5.50363">
        <ele>1528</ele>
        <time>2010-01-01T03:07:53Z</time>
      </trkpt>
      <trkpt lat="45.09564" lon="5.50362">
        <ele>1530</ele>
        <time>2010-01-01T03:07:56Z</time>
      </trkpt>
      <trkpt lat="45.09559" lon="5.50361">
        <ele>1531</ele>
        <time>2010-01-01T03:07:58Z</time>
      </trkpt>
      <trkpt lat="45.09552" lon="5.50359">
        <ele>1532</ele>
        <time>2010-01-01T03:08:01Z</time>
      </trkpt>
      <trkpt lat="45.09551" lon="5.5036">
        <ele>1533</ele>
        <time>2010-01-01T03:08:01Z</time>
      </trkpt>
      <trkpt lat="45.09543" lon="5.50358">
        <ele>1535</ele>
        <time>2010-01-01T03:08:04Z</time>
      </trkpt>
      <trkpt lat="45.09537" lon="5.50355">
        <ele>1536</ele>
        <time>2010-01-01T03:08:07Z</time>
      </trkpt>
      <trkpt lat="45.09532" lon="5.50353">
        <ele>1537</ele>
        <time>2010-01-01T03:08:09Z</time>
      </trkpt>
      <trkpt lat="45.09526" lon="5.5035">
        <ele>1538</ele>
        <time>2010-01-01T03:08:12Z</time>
      </trkpt>
      <trkpt lat="45.09523" lon="5.50348">
        <ele>1539</ele>
        <time>2010-01-01T03:08:13Z</time>
      </trkpt>
      <trkpt lat="45.0952" lon="5.50346">
        <ele>1539</ele>
        <time>2010-01-01T03:08:14Z</time>
      </trkpt>
      <trkpt lat="45.09517" lon="5.50343">
        <ele>1539</ele>
        <time>2010-01-01T03:08:16Z</time>
      </trkpt>
      <trkpt lat="45.09517" lon="5.50342">
        <ele>1539</ele>
        <time>2010-01-01T03:08:16Z</time>
      </trkpt>
      <trkpt lat="45.09514" lon="5.50337">
        <ele>1539</ele>
        <time>2010-01-01T03:08:18Z</time>
      </trkpt>
      <trkpt lat="45.09512" lon="5.50335">
        <ele>1539</ele>
        <time>2010-01-01T03:08:19Z</time>
      </trkpt>
      <trkpt lat="45.0951" lon="5.50333">
        <ele>1539</ele>
        <time>2010-01-01T03:08:20Z</time>
      </trkpt>
      <trkpt lat="45.09504" lon="5.50329">
        <ele>1538</ele>
        <time>2010-01-01T03:08:23Z</time>
      </trkpt>
      <trkpt lat="45.09499" lon="5.50328">
        <ele>1538</ele>
        <time>2010-01-01T03:08:25Z</time>
      </trkpt>
      <trkpt lat="45.0949" lon="5.50329">
        <ele>1539</ele>
        <time>2010-01-01T03:08:28Z</time>
      </trkpt>
      <trkpt lat="45.09485" lon="5.50328">
        <ele>1539</ele>
        <time>2010-01-01T03:08:30Z</time>
      </trkpt>
      <trkpt lat="45.09476" lon="5.50326">
        <ele>1540</ele>
        <time>2010-01-01T03:08:34Z</time>
      </trkpt>
      <trkpt lat="45.09473" lon="5.50326">
        <ele>1540</ele>
        <time>2010-01-01T03:08:35Z</time>
      </trkpt>
      <trkpt lat="45.0947" lon="5.50323">
        <ele>1540</ele>
        <time>2010-01-01T03:08:37Z</time>
      </trkpt>
      <trkpt lat="45.09469" lon="5.50323">
        <ele>1540</ele>
        <time>2010-01-01T03:08:37Z</time>
      </trkpt>
      <trkpt lat="45.09464" lon="5.50322">
        <ele>1540</ele>
        <time>2010-01-01T03:08:39Z</time>
      </trkpt>
      <trkpt lat="45.09459" lon="5.5032">
        <ele>1541</ele>
        <time>2010-01-01T03:08:41Z</time>
      </trkpt>
      <trkpt lat="45.09452" lon="5.5032">
        <ele>1542</ele>
        <time>2010-01-01T03:08:44Z</time>
      </trkpt>
      <trkpt lat="45.09445" lon="5.50321">
        <ele>1544</ele>
        <time>2010-01-01T03:08:47Z</time>
      </trkpt>
      <trkpt lat="45.09439" lon="5.5032">
        <ele>1545</ele>
        <time>2010-01-01T03:08:49Z</time>
      </trkpt>
      <trkpt lat="45.09435" lon="5.50317">
        <ele>1545</ele>
        <time>2010-01-01T03:08:51Z</time>
      </trkpt>
      <trkpt lat="45.09434" lon="5.50315">
        <ele>1545</ele>
        <time>2010-01-01T03:08:52Z</time>
      </trkpt>
      <trkpt lat="45.09428" lon="5.50315">
        <ele>1546</ele>
        <time>2010-01-01T03:08:54Z</time>
      </trkpt>
      <trkpt lat="45.09421" lon="5.50317">
        <ele>1547</ele>
        <time>2010-01-01T03:08:57Z</time>
      </trkpt>
      <trkpt lat="45.09418" lon="5.50316">
        <ele>1548</ele>
        <time>2010-01-01T03:08:58Z</time>
      </trkpt>
      <trkpt lat="45.09414" lon="5.50313">
        <ele>1548</ele>
        <time>2010-01-01T03:09:00Z</time>
      </trkpt>
      <trkpt lat="45.09408" lon="5.50312">
        <ele>1548</ele>
        <time>2010-01-01T03:09:02Z</time>
      </trkpt>
      <trkpt lat="45.09398" lon="5.50313">
        <ele>1549</ele>
        <time>2010-01-01T03:09:06Z</time>
      </trkpt>
      <trkpt lat="45.09391" lon="5.50311">
        <ele>1550</ele>
        <time>2010-01-01T03:09:09Z</time>
      </trkpt>
      <trkpt lat="45.09387" lon="5.50309">
        <ele>1550</ele>
        <time>2010-01-01T03:09:11Z</time>
      </trkpt>
      <trkpt lat="45.09383" lon="5.50309">
        <ele>1550</ele>
        <time>2010-01-01T03:09:12Z</time>
      </trkpt>
      <trkpt lat="45.09379" lon="5.50306">
        <ele>1550</ele>
        <time>2010-01-01T03:09:14Z</time>
      </trkpt>
      <trkpt lat="45.09378" lon="5.50306">
        <ele>1550</ele>
        <time>2010-01-01T03:09:15Z</time>
      </trkpt>
      <trkpt lat="45.09374" lon="5.50305">
        <ele>1550</ele>
        <time>2010-01-01T03:09:16Z</time>
      </trkpt>
      <trkpt lat="45.09371" lon="5.50304">
        <ele>1550</ele>
        <time>2010-01-01T03:09:18Z</time>
      </trkpt>
      <trkpt lat="45.09369" lon="5.50303">
        <ele>1550</ele>
        <time>2010-01-01T03:09:18Z</time>
      </trkpt>
      <trkpt lat="45.09361" lon="5.50309">
        <ele>1551</ele>
        <time>2010-01-01T03:09:22Z</time>
      </trkpt>
      <trkpt lat="45.09361" lon="5.5031">
        <ele>1551</ele>
        <time>2010-01-01T03:09:22Z</time>
      </trkpt>
      <trkpt lat="45.0936" lon="5.5031">
        <ele>1551</ele>
        <time>2010-01-01T03:09:23Z</time>
      </trkpt>
      <trkpt lat="45.09316" lon="5.50319">
        <ele>1551</ele>
        <time>2010-01-01T03:09:40Z</time>
      </trkpt>
      <trkpt lat="45.09307" lon="5.50316">
        <ele>1551</ele>
        <time>2010-01-01T03:09:44Z</time>
      </trkpt>
      <trkpt lat="45.09305" lon="5.50314">
        <ele>1551</ele>
        <time>2010-01-01T03:09:45Z</time>
      </trkpt>
      <trkpt lat="45.09304" lon="5.50314">
        <ele>1551</ele>
        <time>2010-01-01T03:09:46Z</time>
      </trkpt>
      <trkpt lat="45.09298" lon="5.50313">
        <ele>1551</ele>
        <time>2010-01-01T03:09:48Z</time>
      </trkpt>
      <trkpt lat="45.09288" lon="5.50313">
        <ele>1551</ele>
        <time>2010-01-01T03:09:52Z</time>
      </trkpt>
      <trkpt lat="45.09278" lon="5.50311">
        <ele>1551</ele>
        <time>2010-01-01T03:09:56Z</time>
      </trkpt>
      <trkpt lat="45.09272" lon="5.50304">
        <ele>1551</ele>
        <time>2010-01-01T03:09:59Z</time>
      </trkpt>
      <trkpt lat="45.09268" lon="5.50302">
        <ele>1550</ele>
        <time>2010-01-01T03:10:01Z</time>
      </trkpt>
      <trkpt lat="45.09267" lon="5.50302">
        <ele>1550</ele>
        <time>2010-01-01T03:10:01Z</time>
      </trkpt>
      <trkpt lat="45.0926" lon="5.50302">
        <ele>1550</ele>
        <time>2010-01-01T03:10:04Z</time>
      </trkpt>
      <trkpt lat="45.09256" lon="5.50303">
        <ele>1549</ele>
        <time>2010-01-01T03:10:06Z</time>
      </trkpt>
      <trkpt lat="45.09251" lon="5.50302">
        <ele>1549</ele>
        <time>2010-01-01T03:10:08Z</time>
      </trkpt>
      <trkpt lat="45.09242" lon="5.50305">
        <ele>1546</ele>
        <time>2010-01-01T03:10:11Z</time>
      </trkpt>
      <trkpt lat="45.09239" lon="5.50308">
        <ele>1545</ele>
        <time>2010-01-01T03:10:13Z</time>
      </trkpt>
      <trkpt lat="45.09236" lon="5.50311">
        <ele>1544</ele>
        <time>2010-01-01T03:10:14Z</time>
      </trkpt>
      <trkpt lat="45.09234" lon="5.5031">
        <ele>1544</ele>
        <time>2010-01-01T03:10:15Z</time>
      </trkpt>
      <trkpt lat="45.09233" lon="5.5031">
        <ele>1543</ele>
        <time>2010-01-01T03:10:16Z</time>
      </trkpt>
      <trkpt lat="45.09232" lon="5.50309">
        <ele>1543</ele>
        <time>2010-01-01T03:10:16Z</time>
      </trkpt>
      <trkpt lat="45.09232" lon="5.50307">
        <ele>1543</ele>
        <time>2010-01-01T03:10:17Z</time>
      </trkpt>
      <trkpt lat="45.09233" lon="5.50304">
        <ele>1543</ele>
        <time>2010-01-01T03:10:18Z</time>
      </trkpt>
      <trkpt lat="45.09231" lon="5.50296">
        <ele>1541</ele>
        <time>2010-01-01T03:10:20Z</time>
      </trkpt>
      <trkpt lat="45.09231" lon="5.50286">
        <ele>1540</ele>
        <time>2010-01-01T03:10:23Z</time>
      </trkpt>
      <trkpt lat="45.09229" lon="5.50287">
        <ele>1539</ele>
        <time>2010-01-01T03:10:24Z</time>
      </trkpt>
      <trkpt lat="45.09227" lon="5.50285">
        <ele>1539</ele>
        <time>2010-01-01T03:10:25Z</time>
      </trkpt>
      <trkpt lat="45.09226" lon="5.50285">
        <ele>1538</ele>
        <time>2010-01-01T03:10:25Z</time>
      </trkpt>
      <trkpt lat="45.09226" lon="5.50284">
        <ele>1538</ele>
        <time>2010-01-01T03:10:25Z</time>
      </trkpt>
      <trkpt lat="45.09225" lon="5.50282">
        <ele>1538</ele>
        <time>2010-01-01T03:10:26Z</time>
      </trkpt>
      <trkpt lat="45.09224" lon="5.5028">
        <ele>1537</ele>
        <time>2010-01-01T03:10:27Z</time>
      </trkpt>
      <trkpt lat="45.09222" lon="5.50279">
        <ele>1537</ele>
        <time>2010-01-01T03:10:28Z</time>
      </trkpt>
      <trkpt lat="45.09223" lon="5.50279">
        <ele>1537</ele>
        <time>2010-01-01T03:10:28Z</time>
      </trkpt>
      <trkpt lat="45.09222" lon="5.50276">
        <ele>1536</ele>
        <time>2010-01-01T03:10:29Z</time>
      </trkpt>
      <trkpt lat="45.09221" lon="5.50275">
        <ele>1536</ele>
        <time>2010-01-01T03:10:29Z</time>
      </trkpt>
      <trkpt lat="45.09218" lon="5.50273">
        <ele>1534</ele>
        <time>2010-01-01T03:10:31Z</time>
      </trkpt>
      <trkpt lat="45.09217" lon="5.50274">
        <ele>1534</ele>
        <time>2010-01-01T03:10:31Z</time>
      </trkpt>
      <trkpt lat="45.09217" lon="5.50273">
        <ele>1534</ele>
        <time>2010-01-01T03:10:31Z</time>
      </trkpt>
      <trkpt lat="45.09215" lon="5.50267">
        <ele>1532</ele>
        <time>2010-01-01T03:10:33Z</time>
      </trkpt>
      <trkpt lat="45.09213" lon="5.50266">
        <ele>1531</ele>
        <time>2010-01-01T03:10:34Z</time>
      </trkpt>
      <trkpt lat="45.09209" lon="5.50256">
        <ele>1528</ele>
        <time>2010-01-01T03:10:37Z</time>
      </trkpt>
      <trkpt lat="45.09202" lon="5.50253">
        <ele>1526</ele>
        <time>2010-01-01T03:10:40Z</time>
      </trkpt>
      <trkpt lat="45.09201" lon="5.5025">
        <ele>1525</ele>
        <time>2010-01-01T03:10:41Z</time>
      </trkpt>
      <trkpt lat="45.09201" lon="5.50251">
        <ele>1525</ele>
        <time>2010-01-01T03:10:42Z</time>
      </trkpt>
      <trkpt lat="45.09197" lon="5.50251">
        <ele>1524</ele>
        <time>2010-01-01T03:10:43Z</time>
      </trkpt>
      <trkpt lat="45.09196" lon="5.50249">
        <ele>1524</ele>
        <time>2010-01-01T03:10:44Z</time>
      </trkpt>
      <trkpt lat="45.09193" lon="5.50246">
        <ele>1522</ele>
        <time>2010-01-01T03:10:45Z</time>
      </trkpt>
      <trkpt lat="45.09188" lon="5.50246">
        <ele>1522</ele>
        <time>2010-01-01T03:10:47Z</time>
      </trkpt>
      <trkpt lat="45.09185" lon="5.50242">
        <ele>1520</ele>
        <time>2010-01-01T03:10:49Z</time>
      </trkpt>
      <trkpt lat="45.09183" lon="5.50237">
        <ele>1519</ele>
        <time>2010-01-01T03:10:51Z</time>
      </trkpt>
      <trkpt lat="45.0918" lon="5.50229">
        <ele>1518</ele>
        <time>2010-01-01T03:10:53Z</time>
      </trkpt>
      <trkpt lat="45.09177" lon="5.50225">
        <ele>1517</ele>
        <time>2010-01-01T03:10:55Z</time>
      </trkpt>
      <trkpt lat="45.09164" lon="5.50204">
        <ele>1513</ele>
        <time>2010-01-01T03:11:03Z</time>
      </trkpt>
      <trkpt lat="45.09147" lon="5.50188">
        <ele>1509</ele>
        <time>2010-01-01T03:11:11Z</time>
      </trkpt>
      <trkpt lat="45.09135" lon="5.50184">
        <ele>1508</ele>
        <time>2010-01-01T03:11:16Z</time>
      </trkpt>
      <trkpt lat="45.09124" lon="5.50174">
        <ele>1505</ele>
        <time>2010-01-01T03:11:21Z</time>
      </trkpt>
      <trkpt lat="45.09118" lon="5.50173">
        <ele>1504</ele>
        <time>2010-01-01T03:11:23Z</time>
      </trkpt>
      <trkpt lat="45.09113" lon="5.5017">
        <ele>1503</ele>
        <time>2010-01-01T03:11:26Z</time>
      </trkpt>
      <trkpt lat="45.09108" lon="5.50171">
        <ele>1502</ele>
        <time>2010-01-01T03:11:28Z</time>
      </trkpt>
      <trkpt lat="45.09101" lon="5.50168">
        <ele>1502</ele>
        <time>2010-01-01T03:11:31Z</time>
      </trkpt>
      <trkpt lat="45.09092" lon="5.50167">
        <ele>1501</ele>
        <time>2010-01-01T03:11:34Z</time>
      </trkpt>
      <trkpt lat="45.09089" lon="5.50165">
        <ele>1501</ele>
        <time>2010-01-01T03:11:36Z</time>
      </trkpt>
      <trkpt lat="45.09083" lon="5.50165">
        <ele>1501</ele>
        <time>2010-01-01T03:11:38Z</time>
      </trkpt>
      <trkpt lat="45.09079" lon="5.50167">
        <ele>1500</ele>
        <time>2010-01-01T03:11:40Z</time>
      </trkpt>
      <trkpt lat="45.09078" lon="5.50177">
        <ele>1498</ele>
        <time>2010-01-01T03:11:43Z</time>
      </trkpt>
      <trkpt lat="45.09078" lon="5.50181">
        <ele>1498</ele>
        <time>2010-01-01T03:11:44Z</time>
      </trkpt>
      <trkpt lat="45.09081" lon="5.50197">
        <ele>1496</ele>
        <time>2010-01-01T03:11:48Z</time>
      </trkpt>
      <trkpt lat="45.09084" lon="5.50206">
        <ele>1496</ele>
        <time>2010-01-01T03:11:51Z</time>
      </trkpt>
      <trkpt lat="45.09086" lon="5.50215">
        <ele>1496</ele>
        <time>2010-01-01T03:11:54Z</time>
      </trkpt>
      <trkpt lat="45.09092" lon="5.50222">
        <ele>1497</ele>
        <time>2010-01-01T03:11:57Z</time>
      </trkpt>
      <trkpt lat="45.09094" lon="5.50225">
        <ele>1497</ele>
        <time>2010-01-01T03:11:58Z</time>
      </trkpt>
      <trkpt lat="45.09095" lon="5.50231">
        <ele>1497</ele>
        <time>2010-01-01T03:12:00Z</time>
      </trkpt>
      <trkpt lat="45.09091" lon="5.50236">
        <ele>1496</ele>
        <time>2010-01-01T03:12:02Z</time>
      </trkpt>
      <trkpt lat="45.0909" lon="5.50238">
        <ele>1495</ele>
        <time>2010-01-01T03:12:03Z</time>
      </trkpt>
      <trkpt lat="45.09078" lon="5.50243">
        <ele>1491</ele>
        <time>2010-01-01T03:12:08Z</time>
      </trkpt>
      <trkpt lat="45.09068" lon="5.50248">
        <ele>1487</ele>
        <time>2010-01-01T03:12:12Z</time>
      </trkpt>
      <trkpt lat="45.09063" lon="5.50248">
        <ele>1485</ele>
        <time>2010-01-01T03:12:14Z</time>
      </trkpt>
      <trkpt lat="45.0906" lon="5.50246">
        <ele>1485</ele>
        <time>2010-01-01T03:12:15Z</time>
      </trkpt>
      <trkpt lat="45.09053" lon="5.50238">
        <ele>1484</ele>
        <time>2010-01-01T03:12:19Z</time>
      </trkpt>
      <trkpt lat="45.09049" lon="5.50239">
        <ele>1484</ele>
        <time>2010-01-01T03:12:20Z</time>
      </trkpt>
      <trkpt lat="45.09045" lon="5.50243">
        <ele>1482</ele>
        <time>2010-01-01T03:12:22Z</time>
      </trkpt>
      <trkpt lat="45.09037" lon="5.5025">
        <ele>1480</ele>
        <time>2010-01-01T03:12:26Z</time>
      </trkpt>
      <trkpt lat="45.0902" lon="5.50261">
        <ele>1473</ele>
        <time>2010-01-01T03:12:34Z</time>
      </trkpt>
      <trkpt lat="45.09008" lon="5.5027">
        <ele>1467</ele>
        <time>2010-01-01T03:12:39Z</time>
      </trkpt>
      <trkpt lat="45.08999" lon="5.50277">
        <ele>1462</ele>
        <time>2010-01-01T03:12:43Z</time>
      </trkpt>
      <trkpt lat="45.08988" lon="5.50279">
        <ele>1458</ele>
        <time>2010-01-01T03:12:48Z</time>
      </trkpt>
      <trkpt lat="45.08977" lon="5.50283">
        <ele>1453</ele>
        <time>2010-01-01T03:12:52Z</time>
      </trkpt>
      <trkpt lat="45.08972" lon="5.50289">
        <ele>1451</ele>
        <time>2010-01-01T03:12:55Z</time>
      </trkpt>
      <trkpt lat="45.08969" lon="5.50289">
        <ele>1450</ele>
        <time>2010-01-01T03:12:56Z</time>
      </trkpt>
      <trkpt lat="45.08958" lon="5.50292">
        <ele>1446</ele>
        <time>2010-01-01T03:13:01Z</time>
      </trkpt>
      <trkpt lat="45.0895" lon="5.50294">
        <ele>1443</ele>
        <time>2010-01-01T03:13:04Z</time>
      </trkpt>
      <trkpt lat="45.08943" lon="5.503">
        <ele>1439</ele>
        <time>2010-01-01T03:13:07Z</time>
      </trkpt>
      <trkpt lat="45.08936" lon="5.5031">
        <ele>1436</ele>
        <time>2010-01-01T03:13:11Z</time>
      </trkpt>
      <trkpt lat="45.0893" lon="5.50315">
        <ele>1434</ele>
        <time>2010-01-01T03:13:14Z</time>
      </trkpt>
      <trkpt lat="45.08926" lon="5.50316">
        <ele>1433</ele>
        <time>2010-01-01T03:13:15Z</time>
      </trkpt>
      <trkpt lat="45.08919" lon="5.50321">
        <ele>1430</ele>
        <time>2010-01-01T03:13:19Z</time>
      </trkpt>
      <trkpt lat="45.08908" lon="5.5033">
        <ele>1425</ele>
        <time>2010-01-01T03:13:24Z</time>
      </trkpt>
      <trkpt lat="45.08905" lon="5.50331">
        <ele>1425</ele>
        <time>2010-01-01T03:13:25Z</time>
      </trkpt>
      <trkpt lat="45.08892" lon="5.50336">
        <ele>1421</ele>
        <time>2010-01-01T03:13:30Z</time>
      </trkpt>
      <trkpt lat="45.08879" lon="5.50339">
        <ele>1418</ele>
        <time>2010-01-01T03:13:36Z</time>
      </trkpt>
      <trkpt lat="45.08861" lon="5.50346">
        <ele>1413</ele>
        <time>2010-01-01T03:13:43Z</time>
      </trkpt>
      <trkpt lat="45.08851" lon="5.5035">
        <ele>1410</ele>
        <time>2010-01-01T03:13:47Z</time>
      </trkpt>
      <trkpt lat="45.08849" lon="5.50348">
        <ele>1410</ele>
        <time>2010-01-01T03:13:48Z</time>
      </trkpt>
      <trkpt lat="45.08841" lon="5.5035">
        <ele>1408</ele>
        <time>2010-01-01T03:13:51Z</time>
      </trkpt>
      <trkpt lat="45.08831" lon="5.50353">
        <ele>1406</ele>
        <time>2010-01-01T03:13:55Z</time>
      </trkpt>
      <trkpt lat="45.08823" lon="5.50356">
        <ele>1405</ele>
        <time>2010-01-01T03:13:59Z</time>
      </trkpt>
      <trkpt lat="45.08816" lon="5.50361">
        <ele>1403</ele>
        <time>2010-01-01T03:14:02Z</time>
      </trkpt>
      <trkpt lat="45.08806" lon="5.50364">
        <ele>1402</ele>
        <time>2010-01-01T03:14:06Z</time>
      </trkpt>
      <trkpt lat="45.08793" lon="5.50363">
        <ele>1399</ele>
        <time>2010-01-01T03:14:11Z</time>
      </trkpt>
      <trkpt lat="45.08778" lon="5.50361">
        <ele>1397</ele>
        <time>2010-01-01T03:14:17Z</time>
      </trkpt>
      <trkpt lat="45.08765" lon="5.5036">
        <ele>1394</ele>
        <time>2010-01-01T03:14:22Z</time>
      </trkpt>
      <trkpt lat="45.08749" lon="5.50361">
        <ele>1390</ele>
        <time>2010-01-01T03:14:29Z</time>
      </trkpt>
      <trkpt lat="45.08738" lon="5.50364">
        <ele>1389</ele>
        <time>2010-01-01T03:14:33Z</time>
      </trkpt>
      <trkpt lat="45.08728" lon="5.50365">
        <ele>1388</ele>
        <time>2010-01-01T03:14:37Z</time>
      </trkpt>
      <trkpt lat="45.08716" lon="5.5037">
        <ele>1385</ele>
        <time>2010-01-01T03:14:42Z</time>
      </trkpt>
      <trkpt lat="45.08703" lon="5.50375">
        <ele>1383</ele>
        <time>2010-01-01T03:14:48Z</time>
      </trkpt>
      <trkpt lat="45.0869" lon="5.50378">
        <ele>1382</ele>
        <time>2010-01-01T03:14:53Z</time>
      </trkpt>
      <trkpt lat="45.08677" lon="5.50385">
        <ele>1380</ele>
        <time>2010-01-01T03:14:59Z</time>
      </trkpt>
      <trkpt lat="45.08662" lon="5.50396">
        <ele>1377</ele>
        <time>2010-01-01T03:15:05Z</time>
      </trkpt>
      <trkpt lat="45.08649" lon="5.50402">
        <ele>1374</ele>
        <time>2010-01-01T03:15:11Z</time>
      </trkpt>
      <trkpt lat="45.08633" lon="5.5041">
        <ele>1370</ele>
        <time>2010-01-01T03:15:18Z</time>
      </trkpt>
      <trkpt lat="45.08617" lon="5.50416">
        <ele>1368</ele>
        <time>2010-01-01T03:15:24Z</time>
      </trkpt>
      <trkpt lat="45.08602" lon="5.50431">
        <ele>1365</ele>
        <time>2010-01-01T03:15:32Z</time>
      </trkpt>
      <trkpt lat="45.08584" lon="5.50436">
        <ele>1363</ele>
        <time>2010-01-01T03:15:39Z</time>
      </trkpt>
      <trkpt lat="45.08574" lon="5.50439">
        <ele>1360</ele>
        <time>2010-01-01T03:15:43Z</time>
      </trkpt>
      <trkpt lat="45.08562" lon="5.50446">
        <ele>1355</ele>
        <time>2010-01-01T03:15:48Z</time>
      </trkpt>
      <trkpt lat="45.08549" lon="5.50453">
        <ele>1351</ele>
        <time>2010-01-01T03:15:54Z</time>
      </trkpt>
      <trkpt lat="45.08538" lon="5.50458">
        <ele>1348</ele>
        <time>2010-01-01T03:15:58Z</time>
      </trkpt>
      <trkpt lat="45.08527" lon="5.50465">
        <ele>1345</ele>
        <time>2010-01-01T03:16:03Z</time>
      </trkpt>
      <trkpt lat="45.08512" lon="5.50467">
        <ele>1343</ele>
        <time>2010-01-01T03:16:09Z</time>
      </trkpt>
      <trkpt lat="45.08496" lon="5.50469">
        <ele>1340</ele>
        <time>2010-01-01T03:16:16Z</time>
      </trkpt>
      <trkpt lat="45.08481" lon="5.5047">
        <ele>1337</ele>
        <time>2010-01-01T03:16:22Z</time>
      </trkpt>
      <trkpt lat="45.08463" lon="5.50471">
        <ele>1334</ele>
        <time>2010-01-01T03:16:29Z</time>
      </trkpt>
      <trkpt lat="45.08451" lon="5.50466">
        <ele>1335</ele>
        <time>2010-01-01T03:16:34Z</time>
      </trkpt>
      <trkpt lat="45.08436" lon="5.50469">
        <ele>1333</ele>
        <time>2010-01-01T03:16:40Z</time>
      </trkpt>
      <trkpt lat="45.08421" lon="5.50471">
        <ele>1331</ele>
        <time>2010-01-01T03:16:46Z</time>
      </trkpt>
      <trkpt lat="45.08406" lon="5.50477">
        <ele>1329</ele>
        <time>2010-01-01T03:16:52Z</time>
      </trkpt>
      <trkpt lat="45.0839" lon="5.50484">
        <ele>1327</ele>
        <time>2010-01-01T03:16:59Z</time>
      </trkpt>
      <trkpt lat="45.08376" lon="5.50488">
        <ele>1324</ele>
        <time>2010-01-01T03:17:05Z</time>
      </trkpt>
      <trkpt lat="45.08363" lon="5.50499">
        <ele>1320</ele>
        <time>2010-01-01T03:17:11Z</time>
      </trkpt>
      <trkpt lat="45.08352" lon="5.50501">
        <ele>1318</ele>
        <time>2010-01-01T03:17:15Z</time>
      </trkpt>
      <trkpt lat="45.08341" lon="5.50505">
        <ele>1316</ele>
        <time>2010-01-01T03:17:20Z</time>
      </trkpt>
      <trkpt lat="45.08327" lon="5.50511">
        <ele>1312</ele>
        <time>2010-01-01T03:17:26Z</time>
      </trkpt>
      <trkpt lat="45.08315" lon="5.50513">
        <ele>1309</ele>
        <time>2010-01-01T03:17:30Z</time>
      </trkpt>
      <trkpt lat="45.08305" lon="5.50515">
        <ele>1306</ele>
        <time>2010-01-01T03:17:35Z</time>
      </trkpt>
      <trkpt lat="45.08293" lon="5.50519">
        <ele>1303</ele>
        <time>2010-01-01T03:17:39Z</time>
      </trkpt>
      <trkpt lat="45.08279" lon="5.50519">
        <ele>1301</ele>
        <time>2010-01-01T03:17:45Z</time>
      </trkpt>
      <trkpt lat="45.08268" lon="5.5052">
        <ele>1299</ele>
        <time>2010-01-01T03:17:49Z</time>
      </trkpt>
      <trkpt lat="45.08255" lon="5.50523">
        <ele>1297</ele>
        <time>2010-01-01T03:17:55Z</time>
      </trkpt>
      <trkpt lat="45.08241" lon="5.50521">
        <ele>1295</ele>
        <time>2010-01-01T03:18:00Z</time>
      </trkpt>
      <trkpt lat="45.08226" lon="5.50518">
        <ele>1293</ele>
        <time>2010-01-01T03:18:06Z</time>
      </trkpt>
      <trkpt lat="45.0821" lon="5.50512">
        <ele>1293</ele>
        <time>2010-01-01T03:18:13Z</time>
      </trkpt>
      <trkpt lat="45.08195" lon="5.505">
        <ele>1295</ele>
        <time>2010-01-01T03:18:20Z</time>
      </trkpt>
      <trkpt lat="45.08177" lon="5.50495">
        <ele>1291</ele>
        <time>2010-01-01T03:18:27Z</time>
      </trkpt>
      <trkpt lat="45.08157" lon="5.50488">
        <ele>1288</ele>
        <time>2010-01-01T03:18:36Z</time>
      </trkpt>
      <trkpt lat="45.08144" lon="5.50487">
        <ele>1286</ele>
        <time>2010-01-01T03:18:41Z</time>
      </trkpt>
      <trkpt lat="45.08125" lon="5.50482">
        <ele>1286</ele>
        <time>2010-01-01T03:18:48Z</time>
      </trkpt>
      <trkpt lat="45.08116" lon="5.50481">
        <ele>1286</ele>
        <time>2010-01-01T03:18:52Z</time>
      </trkpt>
      <trkpt lat="45.08114" lon="5.50482">
        <ele>1286</ele>
        <time>2010-01-01T03:18:53Z</time>
      </trkpt>
      <trkpt lat="45.08099" lon="5.50496">
        <ele>1281</ele>
        <time>2010-01-01T03:19:00Z</time>
      </trkpt>
      <trkpt lat="45.08087" lon="5.505">
        <ele>1279</ele>
        <time>2010-01-01T03:19:05Z</time>
      </trkpt>
      <trkpt lat="45.08074" lon="5.50508">
        <ele>1277</ele>
        <time>2010-01-01T03:19:11Z</time>
      </trkpt>
      <trkpt lat="45.0806" lon="5.50505">
        <ele>1277</ele>
        <time>2010-01-01T03:19:16Z</time>
      </trkpt>
      <trkpt lat="45.08053" lon="5.50508">
        <ele>1276</ele>
        <time>2010-01-01T03:19:19Z</time>
      </trkpt>
      <trkpt lat="45.0805" lon="5.50508">
        <ele>1276</ele>
        <time>2010-01-01T03:19:21Z</time>
      </trkpt>
      <trkpt lat="45.08037" lon="5.50514">
        <ele>1275</ele>
        <time>2010-01-01T03:19:26Z</time>
      </trkpt>
      <trkpt lat="45.08025" lon="5.50519">
        <ele>1274</ele>
        <time>2010-01-01T03:19:31Z</time>
      </trkpt>
      <trkpt lat="45.08007" lon="5.50528">
        <ele>1270</ele>
        <time>2010-01-01T03:19:39Z</time>
      </trkpt>
      <trkpt lat="45.07993" lon="5.50528">
        <ele>1268</ele>
        <time>2010-01-01T03:19:44Z</time>
      </trkpt>
      <trkpt lat="45.07981" lon="5.50535">
        <ele>1267</ele>
        <time>2010-01-01T03:19:49Z</time>
      </trkpt>
      <trkpt lat="45.0797" lon="5.50549">
        <ele>1266</ele>
        <time>2010-01-01T03:19:55Z</time>
      </trkpt>
      <trkpt lat="45.07959" lon="5.50559">
        <ele>1266</ele>
        <time>2010-01-01T03:20:01Z</time>
      </trkpt>
      <trkpt lat="45.07943" lon="5.50568">
        <ele>1265</ele>
        <time>2010-01-01T03:20:08Z</time>
      </trkpt>
      <trkpt lat="45.07939" lon="5.50567">
        <ele>1265</ele>
        <time>2010-01-01T03:20:09Z</time>
      </trkpt>
      <trkpt lat="45.07927" lon="5.50569">
        <ele>1265</ele>
        <time>2010-01-01T03:20:14Z</time>
      </trkpt>
      <trkpt lat="45.07915" lon="5.50578">
        <ele>1265</ele>
        <time>2010-01-01T03:20:19Z</time>
      </trkpt>
      <trkpt lat="45.07902" lon="5.50586">
        <ele>1264</ele>
        <time>2010-01-01T03:20:25Z</time>
      </trkpt>
      <trkpt lat="45.07888" lon="5.50595">
        <ele>1262</ele>
        <time>2010-01-01T03:20:31Z</time>
      </trkpt>
      <trkpt lat="45.07871" lon="5.50603">
        <ele>1260</ele>
        <time>2010-01-01T03:20:38Z</time>
      </trkpt>
      <trkpt lat="45.07856" lon="5.50608">
        <ele>1258</ele>
        <time>2010-01-01T03:20:45Z</time>
      </trkpt>
      <trkpt lat="45.07848" lon="5.50614">
        <ele>1257</ele>
        <time>2010-01-01T03:20:48Z</time>
      </trkpt>
      <trkpt lat="45.07838" lon="5.50619">
        <ele>1255</ele>
        <time>2010-01-01T03:20:52Z</time>
      </trkpt>
      <trkpt lat="45.07821" lon="5.50626">
        <ele>1253</ele>
        <time>2010-01-01T03:21:00Z</time>
      </trkpt>
      <trkpt lat="45.07808" lon="5.50635">
        <ele>1250</ele>
        <time>2010-01-01T03:21:05Z</time>
      </trkpt>
      <trkpt lat="45.07793" lon="5.5064">
        <ele>1248</ele>
        <time>2010-01-01T03:21:12Z</time>
      </trkpt>
      <trkpt lat="45.07781" lon="5.50641">
        <ele>1247</ele>
        <time>2010-01-01T03:21:16Z</time>
      </trkpt>
      <trkpt lat="45.0777" lon="5.50642">
        <ele>1246</ele>
        <time>2010-01-01T03:21:21Z</time>
      </trkpt>
      <trkpt lat="45.07757" lon="5.50645">
        <ele>1245</ele>
        <time>2010-01-01T03:21:26Z</time>
      </trkpt>
      <trkpt lat="45.07744" lon="5.50651">
        <ele>1242</ele>
        <time>2010-01-01T03:21:31Z</time>
      </trkpt>
      <trkpt lat="45.07735" lon="5.50655">
        <ele>1241</ele>
        <time>2010-01-01T03:21:35Z</time>
      </trkpt>
      <trkpt lat="45.07729" lon="5.50656">
        <ele>1240</ele>
        <time>2010-01-01T03:21:38Z</time>
      </trkpt>
      <trkpt lat="45.07724" lon="5.50654">
        <ele>1239</ele>
        <time>2010-01-01T03:21:40Z</time>
      </trkpt>
      <trkpt lat="45.0771" lon="5.50652">
        <ele>1236</ele>
        <time>2010-01-01T03:21:45Z</time>
      </trkpt>
      <trkpt lat="45.07699" lon="5.50643">
        <ele>1234</ele>
        <time>2010-01-01T03:21:50Z</time>
      </trkpt>
      <trkpt lat="45.07696" lon="5.5064">
        <ele>1234</ele>
        <time>2010-01-01T03:21:52Z</time>
      </trkpt>
      <trkpt lat="45.07684" lon="5.50626">
        <ele>1234</ele>
        <time>2010-01-01T03:21:58Z</time>
      </trkpt>
      <trkpt lat="45.0767" lon="5.50618">
        <ele>1234</ele>
        <time>2010-01-01T03:22:04Z</time>
      </trkpt>
      <trkpt lat="45.07655" lon="5.50619">
        <ele>1232</ele>
        <time>2010-01-01T03:22:10Z</time>
      </trkpt>
      <trkpt lat="45.07637" lon="5.50626">
        <ele>1230</ele>
        <time>2010-01-01T03:22:18Z</time>
      </trkpt>
      <trkpt lat="45.07625" lon="5.50635">
        <ele>1227</ele>
        <time>2010-01-01T03:22:23Z</time>
      </trkpt>
      <trkpt lat="45.07612" lon="5.50646">
        <ele>1224</ele>
        <time>2010-01-01T03:22:29Z</time>
      </trkpt>
      <trkpt lat="45.07596" lon="5.5066">
        <ele>1218</ele>
        <time>2010-01-01T03:22:37Z</time>
      </trkpt>
      <trkpt lat="45.07594" lon="5.50662">
        <ele>1217</ele>
        <time>2010-01-01T03:22:38Z</time>
      </trkpt>
      <trkpt lat="45.07582" lon="5.50674">
        <ele>1213</ele>
        <time>2010-01-01T03:22:44Z</time>
      </trkpt>
      <trkpt lat="45.07568" lon="5.50684">
        <ele>1210</ele>
        <time>2010-01-01T03:22:50Z</time>
      </trkpt>
      <trkpt lat="45.07555" lon="5.50691">
        <ele>1207</ele>
        <time>2010-01-01T03:22:55Z</time>
      </trkpt>
      <trkpt lat="45.07541" lon="5.507">
        <ele>1203</ele>
        <time>2010-01-01T03:23:02Z</time>
      </trkpt>
      <trkpt lat="45.07531" lon="5.50709">
        <ele>1201</ele>
        <time>2010-01-01T03:23:06Z</time>
      </trkpt>
      <trkpt lat="45.0752" lon="5.50718">
        <ele>1198</ele>
        <time>2010-01-01T03:23:11Z</time>
      </trkpt>
      <trkpt lat="45.07511" lon="5.50727">
        <ele>1195</ele>
        <time>2010-01-01T03:23:16Z</time>
      </trkpt>
      <trkpt lat="45.07498" lon="5.50733">
        <ele>1190</ele>
        <time>2010-01-01T03:23:21Z</time>
      </trkpt>
      <trkpt lat="45.07485" lon="5.5074">
        <ele>1185</ele>
        <time>2010-01-01T03:23:27Z</time>
      </trkpt>
      <trkpt lat="45.07469" lon="5.50748">
        <ele>1181</ele>
        <time>2010-01-01T03:23:34Z</time>
      </trkpt>
      <trkpt lat="45.07462" lon="5.5075">
        <ele>1181</ele>
        <time>2010-01-01T03:23:37Z</time>
      </trkpt>
      <trkpt lat="45.07464" lon="5.50744">
        <ele>1180</ele>
        <time>2010-01-01T03:23:38Z</time>
      </trkpt>
      <trkpt lat="45.07472" lon="5.50732">
        <ele>1181</ele>
        <time>2010-01-01T03:23:43Z</time>
      </trkpt>
      <trkpt lat="45.07474" lon="5.50729">
        <ele>1182</ele>
        <time>2010-01-01T03:23:44Z</time>
      </trkpt>
      <trkpt lat="45.07481" lon="5.50716">
        <ele>1185</ele>
        <time>2010-01-01T03:23:49Z</time>
      </trkpt>
      <trkpt lat="45.07489" lon="5.50701">
        <ele>1188</ele>
        <time>2010-01-01T03:23:54Z</time>
      </trkpt>
      <trkpt lat="45.07495" lon="5.50687">
        <ele>1190</ele>
        <time>2010-01-01T03:23:59Z</time>
      </trkpt>
      <trkpt lat="45.07496" lon="5.50683">
        <ele>1191</ele>
        <time>2010-01-01T03:24:00Z</time>
      </trkpt>
      <trkpt lat="45.07498" lon="5.50665">
        <ele>1191</ele>
        <time>2010-01-01T03:24:05Z</time>
      </trkpt>
      <trkpt lat="45.07499" lon="5.50647">
        <ele>1191</ele>
        <time>2010-01-01T03:24:10Z</time>
      </trkpt>
      <trkpt lat="45.07499" lon="5.5062">
        <ele>1191</ele>
        <time>2010-01-01T03:24:18Z</time>
      </trkpt>
      <trkpt lat="45.07498" lon="5.50601">
        <ele>1190</ele>
        <time>2010-01-01T03:24:23Z</time>
      </trkpt>
      <trkpt lat="45.075" lon="5.50577">
        <ele>1187</ele>
        <time>2010-01-01T03:24:30Z</time>
      </trkpt>
      <trkpt lat="45.07503" lon="5.50561">
        <ele>1185</ele>
        <time>2010-01-01T03:24:35Z</time>
      </trkpt>
      <trkpt lat="45.07507" lon="5.50542">
        <ele>1184</ele>
        <time>2010-01-01T03:24:40Z</time>
      </trkpt>
      <trkpt lat="45.07512" lon="5.50525">
        <ele>1184</ele>
        <time>2010-01-01T03:24:46Z</time>
      </trkpt>
      <trkpt lat="45.07515" lon="5.50511">
        <ele>1184</ele>
        <time>2010-01-01T03:24:50Z</time>
      </trkpt>
      <trkpt lat="45.07521" lon="5.50492">
        <ele>1184</ele>
        <time>2010-01-01T03:24:56Z</time>
      </trkpt>
      <trkpt lat="45.07522" lon="5.50488">
        <ele>1184</ele>
        <time>2010-01-01T03:24:57Z</time>
      </trkpt>
      <trkpt lat="45.07523" lon="5.50477">
        <ele>1183</ele>
        <time>2010-01-01T03:25:00Z</time>
      </trkpt>
      <trkpt lat="45.0753" lon="5.50456">
        <ele>1181</ele>
        <time>2010-01-01T03:25:06Z</time>
      </trkpt>
      <trkpt lat="45.07539" lon="5.50441">
        <ele>1179</ele>
        <time>2010-01-01T03:25:12Z</time>
      </trkpt>
      <trkpt lat="45.07551" lon="5.50438">
        <ele>1181</ele>
        <time>2010-01-01T03:25:17Z</time>
      </trkpt>
      <trkpt lat="45.0756" lon="5.50423">
        <ele>1180</ele>
        <time>2010-01-01T03:25:23Z</time>
      </trkpt>
      <trkpt lat="45.07554" lon="5.50394">
        <ele>1176</ele>
        <time>2010-01-01T03:25:31Z</time>
      </trkpt>
      <trkpt lat="45.07553" lon="5.50393">
        <ele>1176</ele>
        <time>2010-01-01T03:25:32Z</time>
      </trkpt>
      <trkpt lat="45.07548" lon="5.5039">
        <ele>1174</ele>
        <time>2010-01-01T03:25:34Z</time>
      </trkpt>
      <trkpt lat="45.07543" lon="5.50384">
        <ele>1173</ele>
        <time>2010-01-01T03:25:36Z</time>
      </trkpt>
      <trkpt lat="45.07541" lon="5.50379">
        <ele>1173</ele>
        <time>2010-01-01T03:25:38Z</time>
      </trkpt>
      <trkpt lat="45.07508" lon="5.50356">
        <ele>1161</ele>
        <time>2010-01-01T03:25:53Z</time>
      </trkpt>
      <trkpt lat="45.07501" lon="5.50353">
        <ele>1159</ele>
        <time>2010-01-01T03:25:56Z</time>
      </trkpt>
      <trkpt lat="45.07496" lon="5.50351">
        <ele>1157</ele>
        <time>2010-01-01T03:25:58Z</time>
      </trkpt>
      <trkpt lat="45.07493" lon="5.50348">
        <ele>1156</ele>
        <time>2010-01-01T03:25:59Z</time>
      </trkpt>
      <trkpt lat="45.07485" lon="5.50343">
        <ele>1154</ele>
        <time>2010-01-01T03:26:03Z</time>
      </trkpt>
      <trkpt lat="45.07475" lon="5.50338">
        <ele>1152</ele>
        <time>2010-01-01T03:26:07Z</time>
      </trkpt>
      <trkpt lat="45.0747" lon="5.5033">
        <ele>1150</ele>
        <time>2010-01-01T03:26:10Z</time>
      </trkpt>
      <trkpt lat="45.07469" lon="5.50329">
        <ele>1150</ele>
        <time>2010-01-01T03:26:10Z</time>
      </trkpt>
      <trkpt lat="45.07465" lon="5.50324">
        <ele>1148</ele>
        <time>2010-01-01T03:26:13Z</time>
      </trkpt>
      <trkpt lat="45.07459" lon="5.50312">
        <ele>1144</ele>
        <time>2010-01-01T03:26:17Z</time>
      </trkpt>
      <trkpt lat="45.07454" lon="5.50307">
        <ele>1141</ele>
        <time>2010-01-01T03:26:19Z</time>
      </trkpt>
      <trkpt lat="45.0745" lon="5.50303">
        <ele>1139</ele>
        <time>2010-01-01T03:26:21Z</time>
      </trkpt>
      <trkpt lat="45.07445" lon="5.50296">
        <ele>1134</ele>
        <time>2010-01-01T03:26:24Z</time>
      </trkpt>
      <trkpt lat="45.07442" lon="5.5029">
        <ele>1130</ele>
        <time>2010-01-01T03:26:26Z</time>
      </trkpt>
      <trkpt lat="45.07439" lon="5.50281">
        <ele>1125</ele>
        <time>2010-01-01T03:26:29Z</time>
      </trkpt>
      <trkpt lat="45.07441" lon="5.50277">
        <ele>1125</ele>
        <time>2010-01-01T03:26:30Z</time>
      </trkpt>
      <trkpt lat="45.07446" lon="5.50272">
        <ele>1126</ele>
        <time>2010-01-01T03:26:33Z</time>
      </trkpt>
      <trkpt lat="45.0745" lon="5.50271">
        <ele>1128</ele>
        <time>2010-01-01T03:26:34Z</time>
      </trkpt>
      <trkpt lat="45.07456" lon="5.5027">
        <ele>1130</ele>
        <time>2010-01-01T03:26:37Z</time>
      </trkpt>
      <trkpt lat="45.07459" lon="5.50269">
        <ele>1131</ele>
        <time>2010-01-01T03:26:38Z</time>
      </trkpt>
      <trkpt lat="45.07475" lon="5.50266">
        <ele>1138</ele>
        <time>2010-01-01T03:26:44Z</time>
      </trkpt>
      <trkpt lat="45.07486" lon="5.50267">
        <ele>1142</ele>
        <time>2010-01-01T03:26:49Z</time>
      </trkpt>
      <trkpt lat="45.07494" lon="5.50262">
        <ele>1142</ele>
        <time>2010-01-01T03:26:52Z</time>
      </trkpt>
      <trkpt lat="45.07505" lon="5.50257">
        <ele>1145</ele>
        <time>2010-01-01T03:26:57Z</time>
      </trkpt>
      <trkpt lat="45.07509" lon="5.5025">
        <ele>1144</ele>
        <time>2010-01-01T03:26:59Z</time>
      </trkpt>
      <trkpt lat="45.07512" lon="5.50248">
        <ele>1144</ele>
        <time>2010-01-01T03:27:01Z</time>
      </trkpt>
      <trkpt lat="45.07521" lon="5.5024">
        <ele>1144</ele>
        <time>2010-01-01T03:27:05Z</time>
      </trkpt>
      <trkpt lat="45.07533" lon="5.5023">
        <ele>1144</ele>
        <time>2010-01-01T03:27:11Z</time>
      </trkpt>
      <trkpt lat="45.07548" lon="5.50224">
        <ele>1147</ele>
        <time>2010-01-01T03:27:17Z</time>
      </trkpt>
      <trkpt lat="45.07562" lon="5.50215">
        <ele>1147</ele>
        <time>2010-01-01T03:27:23Z</time>
      </trkpt>
      <trkpt lat="45.07578" lon="5.50199">
        <ele>1143</ele>
        <time>2010-01-01T03:27:31Z</time>
      </trkpt>
      <trkpt lat="45.07592" lon="5.50182">
        <ele>1141</ele>
        <time>2010-01-01T03:27:38Z</time>
      </trkpt>
      <trkpt lat="45.07603" lon="5.50167">
        <ele>1139</ele>
        <time>2010-01-01T03:27:44Z</time>
      </trkpt>
      <trkpt lat="45.07614" lon="5.50154">
        <ele>1140</ele>
        <time>2010-01-01T03:27:50Z</time>
      </trkpt>
      <trkpt lat="45.07621" lon="5.50134">
        <ele>1136</ele>
        <time>2010-01-01T03:27:56Z</time>
      </trkpt>
      <trkpt lat="45.07628" lon="5.5011">
        <ele>1132</ele>
        <time>2010-01-01T03:28:04Z</time>
      </trkpt>
      <trkpt lat="45.07638" lon="5.50098">
        <ele>1132</ele>
        <time>2010-01-01T03:28:09Z</time>
      </trkpt>
      <trkpt lat="45.07645" lon="5.50079">
        <ele>1127</ele>
        <time>2010-01-01T03:28:15Z</time>
      </trkpt>
      <trkpt lat="45.07654" lon="5.5006">
        <ele>1123</ele>
        <time>2010-01-01T03:28:22Z</time>
      </trkpt>
      <trkpt lat="45.07665" lon="5.5005">
        <ele>1123</ele>
        <time>2010-01-01T03:28:27Z</time>
      </trkpt>
      <trkpt lat="45.07675" lon="5.50033">
        <ele>1122</ele>
        <time>2010-01-01T03:28:33Z</time>
      </trkpt>
      <trkpt lat="45.07686" lon="5.50022">
        <ele>1124</ele>
        <time>2010-01-01T03:28:38Z</time>
      </trkpt>
      <trkpt lat="45.07696" lon="5.50011">
        <ele>1127</ele>
        <time>2010-01-01T03:28:43Z</time>
      </trkpt>
      <trkpt lat="45.07706" lon="5.49992">
        <ele>1127</ele>
        <time>2010-01-01T03:28:50Z</time>
      </trkpt>
      <trkpt lat="45.07714" lon="5.49969">
        <ele>1126</ele>
        <time>2010-01-01T03:28:57Z</time>
      </trkpt>
      <trkpt lat="45.0772" lon="5.49951">
        <ele>1123</ele>
        <time>2010-01-01T03:29:03Z</time>
      </trkpt>
      <trkpt lat="45.07731" lon="5.49929">
        <ele>1123</ele>
        <time>2010-01-01T03:29:11Z</time>
      </trkpt>
      <trkpt lat="45.07738" lon="5.49909">
        <ele>1124</ele>
        <time>2010-01-01T03:29:17Z</time>
      </trkpt>
      <trkpt lat="45.07743" lon="5.49892">
        <ele>1125</ele>
        <time>2010-01-01T03:29:22Z</time>
      </trkpt>
      <trkpt lat="45.07745" lon="5.49875">
        <ele>1124</ele>
        <time>2010-01-01T03:29:27Z</time>
      </trkpt>
      <trkpt lat="45.07748" lon="5.49853">
        <ele>1122</ele>
        <time>2010-01-01T03:29:33Z</time>
      </trkpt>
      <trkpt lat="45.07749" lon="5.49832">
        <ele>1118</ele>
        <time>2010-01-01T03:29:39Z</time>
      </trkpt>
      <trkpt lat="45.07751" lon="5.4981">
        <ele>1112</ele>
        <time>2010-01-01T03:29:46Z</time>
      </trkpt>
      <trkpt lat="45.07757" lon="5.49784">
        <ele>1110</ele>
        <time>2010-01-01T03:29:53Z</time>
      </trkpt>
      <trkpt lat="45.07757" lon="5.49779">
        <ele>1108</ele>
        <time>2010-01-01T03:29:55Z</time>
      </trkpt>
      <trkpt lat="45.07758" lon="5.4976">
        <ele>1105</ele>
        <time>2010-01-01T03:30:00Z</time>
      </trkpt>
      <trkpt lat="45.07763" lon="5.49738">
        <ele>1103</ele>
        <time>2010-01-01T03:30:07Z</time>
      </trkpt>
      <trkpt lat="45.07769" lon="5.49711">
        <ele>1102</ele>
        <time>2010-01-01T03:30:15Z</time>
      </trkpt>
      <trkpt lat="45.07773" lon="5.49691">
        <ele>1101</ele>
        <time>2010-01-01T03:30:21Z</time>
      </trkpt>
      <trkpt lat="45.07776" lon="5.4967">
        <ele>1099</ele>
        <time>2010-01-01T03:30:27Z</time>
      </trkpt>
      <trkpt lat="45.07784" lon="5.49647">
        <ele>1099</ele>
        <time>2010-01-01T03:30:34Z</time>
      </trkpt>
      <trkpt lat="45.07799" lon="5.49627">
        <ele>1102</ele>
        <time>2010-01-01T03:30:42Z</time>
      </trkpt>
      <trkpt lat="45.07805" lon="5.49609">
        <ele>1102</ele>
        <time>2010-01-01T03:30:48Z</time>
      </trkpt>
      <trkpt lat="45.07809" lon="5.49596">
        <ele>1098</ele>
        <time>2010-01-01T03:30:52Z</time>
      </trkpt>
      <trkpt lat="45.0781" lon="5.49592">
        <ele>1097</ele>
        <time>2010-01-01T03:30:53Z</time>
      </trkpt>
      <trkpt lat="45.07811" lon="5.49582">
        <ele>1094</ele>
        <time>2010-01-01T03:30:56Z</time>
      </trkpt>
      <trkpt lat="45.07812" lon="5.49579">
        <ele>1093</ele>
        <time>2010-01-01T03:30:57Z</time>
      </trkpt>
      <trkpt lat="45.07814" lon="5.49567">
        <ele>1090</ele>
        <time>2010-01-01T03:31:00Z</time>
      </trkpt>
      <trkpt lat="45.07815" lon="5.49564">
        <ele>1090</ele>
        <time>2010-01-01T03:31:01Z</time>
      </trkpt>
      <trkpt lat="45.07818" lon="5.49554">
        <ele>1088</ele>
        <time>2010-01-01T03:31:04Z</time>
      </trkpt>
      <trkpt lat="45.0782" lon="5.49552">
        <ele>1087</ele>
        <time>2010-01-01T03:31:05Z</time>
      </trkpt>
      <trkpt lat="45.0783" lon="5.49546">
        <ele>1088</ele>
        <time>2010-01-01T03:31:10Z</time>
      </trkpt>
      <trkpt lat="45.07836" lon="5.49548">
        <ele>1089</ele>
        <time>2010-01-01T03:31:12Z</time>
      </trkpt>
      <trkpt lat="45.07845" lon="5.49547">
        <ele>1090</ele>
        <time>2010-01-01T03:31:16Z</time>
      </trkpt>
      <trkpt lat="45.07853" lon="5.49555">
        <ele>1092</ele>
        <time>2010-01-01T03:31:20Z</time>
      </trkpt>
      <trkpt lat="45.07854" lon="5.49557">
        <ele>1092</ele>
        <time>2010-01-01T03:31:20Z</time>
      </trkpt>
      <trkpt lat="45.07858" lon="5.49563">
        <ele>1093</ele>
        <time>2010-01-01T03:31:23Z</time>
      </trkpt>
      <trkpt lat="45.0786" lon="5.49565">
        <ele>1094</ele>
        <time>2010-01-01T03:31:24Z</time>
      </trkpt>
      <trkpt lat="45.07863" lon="5.49571">
        <ele>1095</ele>
        <time>2010-01-01T03:31:26Z</time>
      </trkpt>
      <trkpt lat="45.0787" lon="5.49586">
        <ele>1097</ele>
        <time>2010-01-01T03:31:31Z</time>
      </trkpt>
      <trkpt lat="45.07872" lon="5.49588">
        <ele>1098</ele>
        <time>2010-01-01T03:31:32Z</time>
      </trkpt>
      <trkpt lat="45.07877" lon="5.49596">
        <ele>1099</ele>
        <time>2010-01-01T03:31:35Z</time>
      </trkpt>
      <trkpt lat="45.0788" lon="5.49599">
        <ele>1100</ele>
        <time>2010-01-01T03:31:36Z</time>
      </trkpt>
      <trkpt lat="45.07885" lon="5.49603">
        <ele>1100</ele>
        <time>2010-01-01T03:31:38Z</time>
      </trkpt>
      <trkpt lat="45.07894" lon="5.4961">
        <ele>1100</ele>
        <time>2010-01-01T03:31:43Z</time>
      </trkpt>
      <trkpt lat="45.07899" lon="5.49617">
        <ele>1102</ele>
        <time>2010-01-01T03:31:45Z</time>
      </trkpt>
      <trkpt lat="45.07905" lon="5.49623">
        <ele>1104</ele>
        <time>2010-01-01T03:31:48Z</time>
      </trkpt>
      <trkpt lat="45.07907" lon="5.49625">
        <ele>1105</ele>
        <time>2010-01-01T03:31:49Z</time>
      </trkpt>
      <trkpt lat="45.07913" lon="5.49633">
        <ele>1107</ele>
        <time>2010-01-01T03:31:53Z</time>
      </trkpt>
      <trkpt lat="45.07921" lon="5.49637">
        <ele>1107</ele>
        <time>2010-01-01T03:31:56Z</time>
      </trkpt>
      <trkpt lat="45.07929" lon="5.49641">
        <ele>1105</ele>
        <time>2010-01-01T03:31:59Z</time>
      </trkpt>
      <trkpt lat="45.07938" lon="5.49646">
        <ele>1103</ele>
        <time>2010-01-01T03:32:03Z</time>
      </trkpt>
      <trkpt lat="45.0795" lon="5.49657">
        <ele>1104</ele>
        <time>2010-01-01T03:32:09Z</time>
      </trkpt>
      <trkpt lat="45.07964" lon="5.49668">
        <ele>1104</ele>
        <time>2010-01-01T03:32:15Z</time>
      </trkpt>
      <trkpt lat="45.0797" lon="5.49672">
        <ele>1104</ele>
        <time>2010-01-01T03:32:18Z</time>
      </trkpt>
      <trkpt lat="45.07972" lon="5.49672">
        <ele>1103</ele>
        <time>2010-01-01T03:32:19Z</time>
      </trkpt>
      <trkpt lat="45.07975" lon="5.49674">
        <ele>1103</ele>
        <time>2010-01-01T03:32:20Z</time>
      </trkpt>
      <trkpt lat="45.07982" lon="5.49681">
        <ele>1107</ele>
        <time>2010-01-01T03:32:24Z</time>
      </trkpt>
      <trkpt lat="45.07991" lon="5.49692">
        <ele>1112</ele>
        <time>2010-01-01T03:32:28Z</time>
      </trkpt>
      <trkpt lat="45.08001" lon="5.49703">
        <ele>1118</ele>
        <time>2010-01-01T03:32:33Z</time>
      </trkpt>
      <trkpt lat="45.08006" lon="5.49702">
        <ele>1116</ele>
        <time>2010-01-01T03:32:35Z</time>
      </trkpt>
      <trkpt lat="45.0801" lon="5.49701">
        <ele>1115</ele>
        <time>2010-01-01T03:32:37Z</time>
      </trkpt>
      <trkpt lat="45.08021" lon="5.49699">
        <ele>1113</ele>
        <time>2010-01-01T03:32:42Z</time>
      </trkpt>
      <trkpt lat="45.08032" lon="5.49695">
        <ele>1111</ele>
        <time>2010-01-01T03:32:46Z</time>
      </trkpt>
      <trkpt lat="45.08043" lon="5.49697">
        <ele>1112</ele>
        <time>2010-01-01T03:32:51Z</time>
      </trkpt>
      <trkpt lat="45.08053" lon="5.49686">
        <ele>1108</ele>
        <time>2010-01-01T03:32:56Z</time>
      </trkpt>
      <trkpt lat="45.08065" lon="5.49672">
        <ele>1105</ele>
        <time>2010-01-01T03:33:02Z</time>
      </trkpt>
      <trkpt lat="45.08077" lon="5.49664">
        <ele>1103</ele>
        <time>2010-01-01T03:33:07Z</time>
      </trkpt>
      <trkpt lat="45.08085" lon="5.49655">
        <ele>1100</ele>
        <time>2010-01-01T03:33:11Z</time>
      </trkpt>
      <trkpt lat="45.08087" lon="5.49655">
        <ele>1101</ele>
        <time>2010-01-01T03:33:12Z</time>
      </trkpt>
      <trkpt lat="45.08095" lon="5.49651">
        <ele>1103</ele>
        <time>2010-01-01T03:33:15Z</time>
      </trkpt>
      <trkpt lat="45.08106" lon="5.49649">
        <ele>1106</ele>
        <time>2010-01-01T03:33:20Z</time>
      </trkpt>
      <trkpt lat="45.08117" lon="5.49645">
        <ele>1108</ele>
        <time>2010-01-01T03:33:24Z</time>
      </trkpt>
      <trkpt lat="45.08129" lon="5.4964">
        <ele>1110</ele>
        <time>2010-01-01T03:33:29Z</time>
      </trkpt>
      <trkpt lat="45.08138" lon="5.49636">
        <ele>1112</ele>
        <time>2010-01-01T03:33:33Z</time>
      </trkpt>
      <trkpt lat="45.08149" lon="5.49625">
        <ele>1110</ele>
        <time>2010-01-01T03:33:39Z</time>
      </trkpt>
      <trkpt lat="45.08159" lon="5.4962">
        <ele>1110</ele>
        <time>2010-01-01T03:33:43Z</time>
      </trkpt>
      <trkpt lat="45.08172" lon="5.49617">
        <ele>1111</ele>
        <time>2010-01-01T03:33:48Z</time>
      </trkpt>
      <trkpt lat="45.08185" lon="5.49614">
        <ele>1113</ele>
        <time>2010-01-01T03:33:53Z</time>
      </trkpt>
      <trkpt lat="45.0819" lon="5.49611">
        <ele>1113</ele>
        <time>2010-01-01T03:33:56Z</time>
      </trkpt>
      <trkpt lat="45.08195" lon="5.49609">
        <ele>1113</ele>
        <time>2010-01-01T03:33:58Z</time>
      </trkpt>
      <trkpt lat="45.08198" lon="5.49603">
        <ele>1113</ele>
        <time>2010-01-01T03:34:00Z</time>
      </trkpt>
      <trkpt lat="45.08203" lon="5.49598">
        <ele>1114</ele>
        <time>2010-01-01T03:34:02Z</time>
      </trkpt>
      <trkpt lat="45.08211" lon="5.49588">
        <ele>1114</ele>
        <time>2010-01-01T03:34:06Z</time>
      </trkpt>
      <trkpt lat="45.08224" lon="5.49572">
        <ele>1115</ele>
        <time>2010-01-01T03:34:13Z</time>
      </trkpt>
      <trkpt lat="45.0823" lon="5.49554">
        <ele>1113</ele>
        <time>2010-01-01T03:34:19Z</time>
      </trkpt>
      <trkpt lat="45.08234" lon="5.49534">
        <ele>1111</ele>
        <time>2010-01-01T03:34:25Z</time>
      </trkpt>
      <trkpt lat="45.08245" lon="5.49526">
        <ele>1112</ele>
        <time>2010-01-01T03:34:30Z</time>
      </trkpt>
      <trkpt lat="45.08311" lon="5.49532">
        <ele>1115</ele>
        <time>2010-01-01T03:34:56Z</time>
      </trkpt>
      <trkpt lat="45.08285" lon="5.49494">
        <ele>1108</ele>
        <time>2010-01-01T03:35:11Z</time>
      </trkpt>
      <trkpt lat="45.08282" lon="5.49464">
        <ele>1097</ele>
        <time>2010-01-01T03:35:20Z</time>
      </trkpt>
      <trkpt lat="45.08388" lon="5.49476">
        <ele>1100</ele>
        <time>2010-01-01T03:36:02Z</time>
      </trkpt>
      <trkpt lat="45.08405" lon="5.49462">
        <ele>1085</ele>
        <time>2010-01-01T03:36:10Z</time>
      </trkpt>
      <trkpt lat="45.08375" lon="5.49435">
        <ele>1027</ele>
        <time>2010-01-01T03:36:24Z</time>
      </trkpt>
      <trkpt lat="45.08336" lon="5.49408">
        <ele>1014</ele>
        <time>2010-01-01T03:36:42Z</time>
      </trkpt>
      <trkpt lat="45.08313" lon="5.49392">
        <ele>1005</ele>
        <time>2010-01-01T03:36:52Z</time>
      </trkpt>
      <trkpt lat="45.08286" lon="5.49366">
        <ele>966</ele>
        <time>2010-01-01T03:37:05Z</time>
      </trkpt>
      <trkpt lat="45.08299" lon="5.49338">
        <ele>917</ele>
        <time>2010-01-01T03:37:15Z</time>
      </trkpt>
      <trkpt lat="45.08335" lon="5.49366">
        <ele>950</ele>
        <time>2010-01-01T03:37:31Z</time>
      </trkpt>
      <trkpt lat="45.08336" lon="5.49362">
        <ele>945</ele>
        <time>2010-01-01T03:37:32Z</time>
      </trkpt>
      <trkpt lat="45.08324" lon="5.49324">
        <ele>894</ele>
        <time>2010-01-01T03:37:44Z</time>
      </trkpt>
      <trkpt lat="45.08318" lon="5.49307">
        <ele>885</ele>
        <time>2010-01-01T03:37:49Z</time>
      </trkpt>
      <trkpt lat="45.08317" lon="5.49305">
        <ele>884</ele>
        <time>2010-01-01T03:37:50Z</time>
      </trkpt>
      <trkpt lat="45.08313" lon="5.49299">
        <ele>883</ele>
        <time>2010-01-01T03:37:52Z</time>
      </trkpt>
      <trkpt lat="45.08312" lon="5.49297">
        <ele>882</ele>
        <time>2010-01-01T03:37:53Z</time>
      </trkpt>
      <trkpt lat="45.08306" lon="5.49286">
        <ele>879</ele>
        <time>2010-01-01T03:37:57Z</time>
      </trkpt>
      <trkpt lat="45.08304" lon="5.49286">
        <ele>880</ele>
        <time>2010-01-01T03:37:58Z</time>
      </trkpt>
      <trkpt lat="45.08299" lon="5.49279">
        <ele>879</ele>
        <time>2010-01-01T03:38:01Z</time>
      </trkpt>
      <trkpt lat="45.08294" lon="5.49275">
        <ele>879</ele>
        <time>2010-01-01T03:38:03Z</time>
      </trkpt>
      <trkpt lat="45.08293" lon="5.49271">
        <ele>878</ele>
        <time>2010-01-01T03:38:04Z</time>
      </trkpt>
      <trkpt lat="45.08293" lon="5.49266">
        <ele>875</ele>
        <time>2010-01-01T03:38:06Z</time>
      </trkpt>
      <trkpt lat="45.08296" lon="5.49262">
        <ele>872</ele>
        <time>2010-01-01T03:38:07Z</time>
      </trkpt>
      <trkpt lat="45.083" lon="5.49264">
        <ele>872</ele>
        <time>2010-01-01T03:38:09Z</time>
      </trkpt>
      <trkpt lat="45.08303" lon="5.49264">
        <ele>871</ele>
        <time>2010-01-01T03:38:10Z</time>
      </trkpt>
      <trkpt lat="45.08305" lon="5.49265">
        <ele>871</ele>
        <time>2010-01-01T03:38:11Z</time>
      </trkpt>
      <trkpt lat="45.08305" lon="5.49264">
        <ele>871</ele>
        <time>2010-01-01T03:38:11Z</time>
      </trkpt>
      <trkpt lat="45.08307" lon="5.49263">
        <ele>869</ele>
        <time>2010-01-01T03:38:12Z</time>
      </trkpt>
      <trkpt lat="45.08312" lon="5.49264">
        <ele>867</ele>
        <time>2010-01-01T03:38:14Z</time>
      </trkpt>
      <trkpt lat="45.08321" lon="5.49264">
        <ele>862</ele>
        <time>2010-01-01T03:38:18Z</time>
      </trkpt>
      <trkpt lat="45.08331" lon="5.49247">
        <ele>850</ele>
        <time>2010-01-01T03:38:24Z</time>
      </trkpt>
      <trkpt lat="45.083" lon="5.49237">
        <ele>860</ele>
        <time>2010-01-01T03:38:37Z</time>
      </trkpt>
      <trkpt lat="45.08276" lon="5.49214">
        <ele>851</ele>
        <time>2010-01-01T03:38:48Z</time>
      </trkpt>
      <trkpt lat="45.08293" lon="5.49204">
        <ele>844</ele>
        <time>2010-01-01T03:38:56Z</time>
      </trkpt>
      <trkpt lat="45.08291" lon="5.49204">
        <ele>844</ele>
        <time>2010-01-01T03:38:56Z</time>
      </trkpt>
      <trkpt lat="45.0829" lon="5.49202">
        <ele>844</ele>
        <time>2010-01-01T03:38:57Z</time>
      </trkpt>
      <trkpt lat="45.08287" lon="5.49195">
        <ele>841</ele>
        <time>2010-01-01T03:38:59Z</time>
      </trkpt>
      <trkpt lat="45.08285" lon="5.49196">
        <ele>842</ele>
        <time>2010-01-01T03:39:00Z</time>
      </trkpt>
      <trkpt lat="45.08278" lon="5.49192">
        <ele>842</ele>
        <time>2010-01-01T03:39:03Z</time>
      </trkpt>
      <trkpt lat="45.0827" lon="5.49186">
        <ele>841</ele>
        <time>2010-01-01T03:39:07Z</time>
      </trkpt>
      <trkpt lat="45.08271" lon="5.49184">
        <ele>840</ele>
        <time>2010-01-01T03:39:08Z</time>
      </trkpt>
      <trkpt lat="45.08271" lon="5.49183">
        <ele>839</ele>
        <time>2010-01-01T03:39:08Z</time>
      </trkpt>
      <trkpt lat="45.08273" lon="5.49179">
        <ele>837</ele>
        <time>2010-01-01T03:39:09Z</time>
      </trkpt>
      <trkpt lat="45.08277" lon="5.49178">
        <ele>836</ele>
        <time>2010-01-01T03:39:11Z</time>
      </trkpt>
      <trkpt lat="45.08286" lon="5.49175">
        <ele>832</ele>
        <time>2010-01-01T03:39:15Z</time>
      </trkpt>
      <trkpt lat="45.08289" lon="5.49173">
        <ele>830</ele>
        <time>2010-01-01T03:39:16Z</time>
      </trkpt>
      <trkpt lat="45.08299" lon="5.49174">
        <ele>827</ele>
        <time>2010-01-01T03:39:20Z</time>
      </trkpt>
      <trkpt lat="45.083" lon="5.49173">
        <ele>826</ele>
        <time>2010-01-01T03:39:20Z</time>
      </trkpt>
      <trkpt lat="45.08306" lon="5.49173">
        <ele>825</ele>
        <time>2010-01-01T03:39:23Z</time>
      </trkpt>
      <trkpt lat="45.08309" lon="5.49172">
        <ele>824</ele>
        <time>2010-01-01T03:39:24Z</time>
      </trkpt>
      <trkpt lat="45.08307" lon="5.4917">
        <ele>823</ele>
        <time>2010-01-01T03:39:25Z</time>
      </trkpt>
      <trkpt lat="45.08298" lon="5.49156">
        <ele>821</ele>
        <time>2010-01-01T03:39:30Z</time>
      </trkpt>
      <trkpt lat="45.08289" lon="5.49143">
        <ele>819</ele>
        <time>2010-01-01T03:39:36Z</time>
      </trkpt>
      <trkpt lat="45.08283" lon="5.49126">
        <ele>814</ele>
        <time>2010-01-01T03:39:41Z</time>
      </trkpt>
      <trkpt lat="45.08282" lon="5.49125">
        <ele>813</ele>
        <time>2010-01-01T03:39:41Z</time>
      </trkpt>
      <trkpt lat="45.08279" lon="5.4912">
        <ele>812</ele>
        <time>2010-01-01T03:39:43Z</time>
      </trkpt>
      <trkpt lat="45.08296" lon="5.49122">
        <ele>810</ele>
        <time>2010-01-01T03:39:50Z</time>
      </trkpt>
      <trkpt lat="45.08319" lon="5.4912">
        <ele>807</ele>
        <time>2010-01-01T03:39:59Z</time>
      </trkpt>
      <trkpt lat="45.08313" lon="5.49101">
        <ele>802</ele>
        <time>2010-01-01T03:40:05Z</time>
      </trkpt>
      <trkpt lat="45.08256" lon="5.49081">
        <ele>798</ele>
        <time>2010-01-01T03:40:29Z</time>
      </trkpt>
      <trkpt lat="45.0832" lon="5.49074">
        <ele>793</ele>
        <time>2010-01-01T03:40:54Z</time>
      </trkpt>
      <trkpt lat="45.083" lon="5.49039">
        <ele>785</ele>
        <time>2010-01-01T03:41:07Z</time>
      </trkpt>
      <trkpt lat="45.08318" lon="5.49012">
        <ele>778</ele>
        <time>2010-01-01T03:41:18Z</time>
      </trkpt>
      <trkpt lat="45.08293" lon="5.48986">
        <ele>768</ele>
        <time>2010-01-01T03:41:30Z</time>
      </trkpt>
      <trkpt lat="45.08284" lon="5.48978">
        <ele>764</ele>
        <time>2010-01-01T03:41:34Z</time>
      </trkpt>
      <trkpt lat="45.08276" lon="5.48968">
        <ele>760</ele>
        <time>2010-01-01T03:41:39Z</time>
      </trkpt>
      <trkpt lat="45.08266" lon="5.48956">
        <ele>754</ele>
        <time>2010-01-01T03:41:44Z</time>
      </trkpt>
      <trkpt lat="45.08254" lon="5.48948">
        <ele>749</ele>
        <time>2010-01-01T03:41:49Z</time>
      </trkpt>
      <trkpt lat="45.08253" lon="5.48944">
        <ele>747</ele>
        <time>2010-01-01T03:41:50Z</time>
      </trkpt>
      <trkpt lat="45.08251" lon="5.48934">
        <ele>744</ele>
        <time>2010-01-01T03:41:53Z</time>
      </trkpt>
      <trkpt lat="45.08258" lon="5.48925">
        <ele>743</ele>
        <time>2010-01-01T03:41:57Z</time>
      </trkpt>
      <trkpt lat="45.08271" lon="5.48913">
        <ele>742</ele>
        <time>2010-01-01T03:42:03Z</time>
      </trkpt>
      <trkpt lat="45.08274" lon="5.4891">
        <ele>742</ele>
        <time>2010-01-01T03:42:05Z</time>
      </trkpt>
      <trkpt lat="45.08277" lon="5.48909">
        <ele>743</ele>
        <time>2010-01-01T03:42:06Z</time>
      </trkpt>
      <trkpt lat="45.08277" lon="5.4891">
        <ele>736</ele>
        <time>2010-01-01T03:48:01Z</time>
      </trkpt>
      <trkpt lat="45.08293" lon="5.48891">
        <ele>734.9</ele>
        <time>2010-01-01T03:48:01Z</time>
      </trkpt>
      <trkpt lat="45.08295" lon="5.48891">
        <ele>735</ele>
        <time>2010-01-01T03:48:04Z</time>
      </trkpt>
      <trkpt lat="45.08293" lon="5.48891">
        <ele>734.9</ele>
        <time>2010-01-01T03:48:05Z</time>
      </trkpt>
      <trkpt lat="45.08289" lon="5.48867">
        <ele>731.9</ele>
        <time>2010-01-01T03:48:07Z</time>
      </trkpt>
      <trkpt lat="45.08281" lon="5.48839">
        <ele>728.5</ele>
        <time>2010-01-01T03:48:08Z</time>
      </trkpt>
      <trkpt lat="45.0828" lon="5.48837">
        <ele>728.2</ele>
        <time>2010-01-01T03:48:09Z</time>
      </trkpt>
      <trkpt lat="45.0827" lon="5.48805">
        <ele>717.8</ele>
        <time>2010-01-01T03:48:09Z</time>
      </trkpt>
      <trkpt lat="45.08258" lon="5.48783">
        <ele>715.3</ele>
        <time>2010-01-01T03:48:12Z</time>
      </trkpt>
      <trkpt lat="45.08253" lon="5.48779">
        <ele>714.5</ele>
        <time>2010-01-01T03:48:13Z</time>
      </trkpt>
      <trkpt lat="45.08244" lon="5.48771">
        <ele>704.3</ele>
        <time>2010-01-01T03:48:16Z</time>
      </trkpt>
      <trkpt lat="45.08221" lon="5.48762">
        <ele>701.8</ele>
        <time>2010-01-01T03:48:17Z</time>
      </trkpt>
      <trkpt lat="45.08198" lon="5.48755">
        <ele>697.3</ele>
        <time>2010-01-01T03:48:20Z</time>
      </trkpt>
      <trkpt lat="45.08186" lon="5.48752">
        <ele>693.9</ele>
        <time>2010-01-01T03:48:20Z</time>
      </trkpt>
      <trkpt lat="45.08182" lon="5.48751">
        <ele>692.4</ele>
        <time>2010-01-01T03:48:23Z</time>
      </trkpt>
      <trkpt lat="45.08183" lon="5.48734">
        <ele>689</ele>
        <time>2010-01-01T03:48:26Z</time>
      </trkpt>
      <trkpt lat="45.08188" lon="5.4869">
        <ele>687.7</ele>
        <time>2010-01-01T03:48:26Z</time>
      </trkpt>
      <trkpt lat="45.08189" lon="5.48675">
        <ele>686.3</ele>
        <time>2010-01-01T03:48:27Z</time>
      </trkpt>
      <trkpt lat="45.08189" lon="5.4867">
        <ele>686.1</ele>
        <time>2010-01-01T03:48:30Z</time>
      </trkpt>
      <trkpt lat="45.0819" lon="5.48651">
        <ele>683.1</ele>
        <time>2010-01-01T03:48:31Z</time>
      </trkpt>
      <trkpt lat="45.0819" lon="5.4862">
        <ele>683</ele>
        <time>2010-01-01T03:48:32Z</time>
      </trkpt>
      <trkpt lat="45.0819" lon="5.48598">
        <ele>681.9</ele>
        <time>2010-01-01T03:48:33Z</time>
      </trkpt>
      <trkpt lat="45.08191" lon="5.48588">
        <ele>681.6</ele>
        <time>2010-01-01T03:48:38Z</time>
      </trkpt>
      <trkpt lat="45.08192" lon="5.48582">
        <ele>678.5</ele>
        <time>2010-01-01T03:48:40Z</time>
      </trkpt>
      <trkpt lat="45.08197" lon="5.48566">
        <ele>678.7</ele>
        <time>2010-01-01T03:48:41Z</time>
      </trkpt>
      <trkpt lat="45.08209" lon="5.48545">
        <ele>678.9</ele>
        <time>2010-01-01T03:48:42Z</time>
      </trkpt>
      <trkpt lat="45.08228" lon="5.48519">
        <ele>678.4</ele>
        <time>2010-01-01T03:48:43Z</time>
      </trkpt>
      <trkpt lat="45.08229" lon="5.48518">
        <ele>678.4</ele>
        <time>2010-01-01T03:48:44Z</time>
      </trkpt>
      <trkpt lat="45.08246" lon="5.48503">
        <ele>677.4</ele>
        <time>2010-01-01T03:48:47Z</time>
      </trkpt>
      <trkpt lat="45.08265" lon="5.48494">
        <ele>676.6</ele>
        <time>2010-01-01T03:48:50Z</time>
      </trkpt>
      <trkpt lat="45.0827" lon="5.48493">
        <ele>676.6</ele>
        <time>2010-01-01T03:48:51Z</time>
      </trkpt>
      <trkpt lat="45.08295" lon="5.48485">
        <ele>677.1</ele>
        <time>2010-01-01T03:48:52Z</time>
      </trkpt>
      <trkpt lat="45.08316" lon="5.4848">
        <ele>678.1</ele>
        <time>2010-01-01T03:48:52Z</time>
      </trkpt>
      <trkpt lat="45.08325" lon="5.48478">
        <ele>678.3</ele>
        <time>2010-01-01T03:48:53Z</time>
      </trkpt>
      <trkpt lat="45.08356" lon="5.48471">
        <ele>681.8</ele>
        <time>2010-01-01T03:48:55Z</time>
      </trkpt>
      <trkpt lat="45.08357" lon="5.48471">
        <ele>681.8</ele>
        <time>2010-01-01T03:48:57Z</time>
      </trkpt>
      <trkpt lat="45.08374" lon="5.48464">
        <ele>682.1</ele>
        <time>2010-01-01T03:48:57Z</time>
      </trkpt>
      <trkpt lat="45.08385" lon="5.48456">
        <ele>682.2</ele>
        <time>2010-01-01T03:49:00Z</time>
      </trkpt>
      <trkpt lat="45.08392" lon="5.48449">
        <ele>682.1</ele>
        <time>2010-01-01T03:49:01Z</time>
      </trkpt>
      <trkpt lat="45.08398" lon="5.48437">
        <ele>681.8</ele>
        <time>2010-01-01T03:49:03Z</time>
      </trkpt>
      <trkpt lat="45.084" lon="5.48429">
        <ele>681.6</ele>
        <time>2010-01-01T03:49:05Z</time>
      </trkpt>
      <trkpt lat="45.08401" lon="5.48423">
        <ele>681.5</ele>
        <time>2010-01-01T03:49:06Z</time>
      </trkpt>
      <trkpt lat="45.08402" lon="5.4842">
        <ele>681.5</ele>
        <time>2010-01-01T03:49:08Z</time>
      </trkpt>
      <trkpt lat="45.08403" lon="5.48414">
        <ele>681.7</ele>
        <time>2010-01-01T03:49:10Z</time>
      </trkpt>
      <trkpt lat="45.08405" lon="5.48413">
        <ele>681.8</ele>
        <time>2010-01-01T03:49:10Z</time>
      </trkpt>
      <trkpt lat="45.08405" lon="5.48413">
        <ele>681.8</ele>
        <time>2010-01-01T03:49:12Z</time>
      </trkpt>
      <trkpt lat="45.08408" lon="5.48411">
        <ele>681.9</ele>
        <time>2010-01-01T03:49:15Z</time>
      </trkpt>
      <trkpt lat="45.0842" lon="5.48412">
        <ele>686.6</ele>
        <time>2010-01-01T03:49:17Z</time>
      </trkpt>
      <trkpt lat="45.08439" lon="5.48415">
        <ele>696.1</ele>
        <time>2010-01-01T03:49:20Z</time>
      </trkpt>
      <trkpt lat="45.08458" lon="5.48416">
        <ele>702.3</ele>
        <time>2010-01-01T03:49:22Z</time>
      </trkpt>
      <trkpt lat="45.0847" lon="5.48418">
        <ele>699.5</ele>
        <time>2010-01-01T03:49:23Z</time>
      </trkpt>
      <trkpt lat="45.08495" lon="5.48421">
        <ele>706.9</ele>
        <time>2010-01-01T03:49:25Z</time>
      </trkpt>
      <trkpt lat="45.08526" lon="5.48426">
        <ele>715.6</ele>
        <time>2010-01-01T03:49:26Z</time>
      </trkpt>
      <trkpt lat="45.08533" lon="5.48427">
        <ele>717</ele>
        <time>2010-01-01T03:49:29Z</time>
      </trkpt>
      <trkpt lat="45.08552" lon="5.4843">
        <ele>720.9</ele>
        <time>2010-01-01T03:49:32Z</time>
      </trkpt>
      <trkpt lat="45.08573" lon="5.48438">
        <ele>724.4</ele>
        <time>2010-01-01T03:49:33Z</time>
      </trkpt>
      <trkpt lat="45.08585" lon="5.48444">
        <ele>734.1</ele>
        <time>2010-01-01T03:49:36Z</time>
      </trkpt>
      <trkpt lat="45.08594" lon="5.48453">
        <ele>733</ele>
        <time>2010-01-01T03:49:38Z</time>
      </trkpt>
      <trkpt lat="45.08602" lon="5.48458">
        <ele>732.4</ele>
        <time>2010-01-01T03:49:41Z</time>
      </trkpt>
      <trkpt lat="45.08611" lon="5.48461">
        <ele>732.8</ele>
        <time>2010-01-01T03:49:43Z</time>
      </trkpt>
      <trkpt lat="45.08634" lon="5.48461">
        <ele>735.3</ele>
        <time>2010-01-01T03:49:44Z</time>
      </trkpt>
      <trkpt lat="45.08667" lon="5.48463">
        <ele>750</ele>
        <time>2010-01-01T03:49:45Z</time>
      </trkpt>
      <trkpt lat="45.08695" lon="5.48464">
        <ele>752.7</ele>
        <time>2010-01-01T03:49:47Z</time>
      </trkpt>
      <trkpt lat="45.08728" lon="5.48461">
        <ele>757.5</ele>
        <time>2010-01-01T03:49:48Z</time>
      </trkpt>
      <trkpt lat="45.08742" lon="5.48461">
        <ele>758.8</ele>
        <time>2010-01-01T03:49:48Z</time>
      </trkpt>
      <trkpt lat="45.08742" lon="5.48461">
        <ele>758.9</ele>
        <time>2010-01-01T03:49:50Z</time>
      </trkpt>
      <trkpt lat="45.08756" lon="5.4846">
        <ele>774.9</ele>
        <time>2010-01-01T03:49:51Z</time>
      </trkpt>
      <trkpt lat="45.08768" lon="5.48459">
        <ele>776.2</ele>
        <time>2010-01-01T03:49:51Z</time>
      </trkpt>
      <trkpt lat="45.08783" lon="5.4846">
        <ele>778.1</ele>
        <time>2010-01-01T03:49:52Z</time>
      </trkpt>
      <trkpt lat="45.08794" lon="5.48462">
        <ele>779.5</ele>
        <time>2010-01-01T03:49:53Z</time>
      </trkpt>
      <trkpt lat="45.08812" lon="5.48464">
        <ele>781.4</ele>
        <time>2010-01-01T03:49:55Z</time>
      </trkpt>
      <trkpt lat="45.08831" lon="5.48468">
        <ele>782</ele>
        <time>2010-01-01T03:49:56Z</time>
      </trkpt>
      <trkpt lat="45.08847" lon="5.48481">
        <ele>795.6</ele>
        <time>2010-01-01T03:49:57Z</time>
      </trkpt>
      <trkpt lat="45.08861" lon="5.48497">
        <ele>787</ele>
        <time>2010-01-01T03:49:59Z</time>
      </trkpt>
      <trkpt lat="45.08862" lon="5.48497">
        <ele>787</ele>
        <time>2010-01-01T03:50:00Z</time>
      </trkpt>
      <trkpt lat="45.0887" lon="5.485">
        <ele>789</ele>
        <time>2010-01-01T03:50:02Z</time>
      </trkpt>
      <trkpt lat="45.08872" lon="5.48501">
        <ele>790</ele>
        <time>2010-01-01T03:50:04Z</time>
      </trkpt>
      <trkpt lat="45.08876" lon="5.48506">
        <ele>790</ele>
        <time>2010-01-01T03:50:07Z</time>
      </trkpt>
      <trkpt lat="45.08878" lon="5.48507">
        <ele>791</ele>
        <time>2010-01-01T03:50:07Z</time>
      </trkpt>
      <trkpt lat="45.08878" lon="5.48508">
        <ele>790</ele>
        <time>2010-01-01T03:50:09Z</time>
      </trkpt>
      <trkpt lat="45.0888" lon="5.48508">
        <ele>791</ele>
        <time>2010-01-01T03:50:11Z</time>
      </trkpt>
      <trkpt lat="45.08886" lon="5.48505">
        <ele>793</ele>
        <time>2010-01-01T03:50:12Z</time>
      </trkpt>
      <trkpt lat="45.0889" lon="5.48504">
        <ele>795</ele>
        <time>2010-01-01T03:50:13Z</time>
      </trkpt>
      <trkpt lat="45.08896" lon="5.48507">
        <ele>796</ele>
        <time>2010-01-01T03:50:15Z</time>
      </trkpt>
      <trkpt lat="45.08899" lon="5.4851">
        <ele>796</ele>
        <time>2010-01-01T03:50:17Z</time>
      </trkpt>
      <trkpt lat="45.08905" lon="5.48509">
        <ele>798</ele>
        <time>2010-01-01T03:50:18Z</time>
      </trkpt>
      <trkpt lat="45.08906" lon="5.48508">
        <ele>798</ele>
        <time>2010-01-01T03:50:19Z</time>
      </trkpt>
      <trkpt lat="45.08912" lon="5.48506">
        <ele>800</ele>
        <time>2010-01-01T03:50:20Z</time>
      </trkpt>
      <trkpt lat="45.08919" lon="5.48505">
        <ele>803</ele>
        <time>2010-01-01T03:50:23Z</time>
      </trkpt>
      <trkpt lat="45.08919" lon="5.48506">
        <ele>803</ele>
        <time>2010-01-01T03:50:25Z</time>
      </trkpt>
      <trkpt lat="45.08922" lon="5.48508">
        <ele>803</ele>
        <time>2010-01-01T03:50:28Z</time>
      </trkpt>
      <trkpt lat="45.08929" lon="5.48509">
        <ele>806</ele>
        <time>2010-01-01T03:50:28Z</time>
      </trkpt>
      <trkpt lat="45.08932" lon="5.48507">
        <ele>808</ele>
        <time>2010-01-01T03:50:30Z</time>
      </trkpt>
      <trkpt lat="45.08934" lon="5.48508">
        <ele>809</ele>
        <time>2010-01-01T03:50:30Z</time>
      </trkpt>
      <trkpt lat="45.08937" lon="5.48508">
        <ele>810</ele>
        <time>2010-01-01T03:50:31Z</time>
      </trkpt>
      <trkpt lat="45.08948" lon="5.48507">
        <ele>815</ele>
        <time>2010-01-01T03:50:32Z</time>
      </trkpt>
      <trkpt lat="45.08952" lon="5.48505">
        <ele>818</ele>
        <time>2010-01-01T03:50:32Z</time>
      </trkpt>
      <trkpt lat="45.08955" lon="5.48506">
        <ele>818</ele>
        <time>2010-01-01T03:50:34Z</time>
      </trkpt>
      <trkpt lat="45.08956" lon="5.48508">
        <ele>818</ele>
        <time>2010-01-01T03:50:35Z</time>
      </trkpt>
      <trkpt lat="45.0896" lon="5.48508">
        <ele>820</ele>
        <time>2010-01-01T03:50:36Z</time>
      </trkpt>
      <trkpt lat="45.08963" lon="5.4851">
        <ele>820</ele>
        <time>2010-01-01T03:50:37Z</time>
      </trkpt>
      <trkpt lat="45.08968" lon="5.48514">
        <ele>820</ele>
        <time>2010-01-01T03:50:38Z</time>
      </trkpt>
      <trkpt lat="45.08976" lon="5.48516">
        <ele>822</ele>
        <time>2010-01-01T03:50:39Z</time>
      </trkpt>
      <trkpt lat="45.08978" lon="5.48517">
        <ele>823</ele>
        <time>2010-01-01T03:50:40Z</time>
      </trkpt>
      <trkpt lat="45.08979" lon="5.48519">
        <ele>822</ele>
        <time>2010-01-01T03:50:41Z</time>
      </trkpt>
      <trkpt lat="45.0898" lon="5.4852">
        <ele>822</ele>
        <time>2010-01-01T03:50:42Z</time>
      </trkpt>
      <trkpt lat="45.0898" lon="5.48523">
        <ele>821</ele>
        <time>2010-01-01T03:50:42Z</time>
      </trkpt>
      <trkpt lat="45.08985" lon="5.48524">
        <ele>822</ele>
        <time>2010-01-01T03:50:43Z</time>
      </trkpt>
      <trkpt lat="45.0899" lon="5.48527">
        <ele>822</ele>
        <time>2010-01-01T03:50:45Z</time>
      </trkpt>
      <trkpt lat="45.08991" lon="5.48527">
        <ele>822</ele>
        <time>2010-01-01T03:50:46Z</time>
      </trkpt>
      <trkpt lat="45.08996" lon="5.48531">
        <ele>823</ele>
        <time>2010-01-01T03:50:47Z</time>
      </trkpt>
      <trkpt lat="45.08998" lon="5.48533">
        <ele>823</ele>
        <time>2010-01-01T03:50:51Z</time>
      </trkpt>
      <trkpt lat="45.09003" lon="5.48536">
        <ele>824</ele>
        <time>2010-01-01T03:50:52Z</time>
      </trkpt>
      <trkpt lat="45.09004" lon="5.48543">
        <ele>823</ele>
        <time>2010-01-01T03:50:54Z</time>
      </trkpt>
      <trkpt lat="45.09005" lon="5.48545">
        <ele>823</ele>
        <time>2010-01-01T03:50:55Z</time>
      </trkpt>
      <trkpt lat="45.09005" lon="5.48555">
        <ele>822</ele>
        <time>2010-01-01T03:50:57Z</time>
      </trkpt>
      <trkpt lat="45.09005" lon="5.48559">
        <ele>822</ele>
        <time>2010-01-01T03:50:57Z</time>
      </trkpt>
      <trkpt lat="45.09003" lon="5.4856">
        <ele>821</ele>
        <time>2010-01-01T03:51:00Z</time>
      </trkpt>
      <trkpt lat="45.09001" lon="5.48564">
        <ele>820</ele>
        <time>2010-01-01T03:51:03Z</time>
      </trkpt>
      <trkpt lat="45.08996" lon="5.48573">
        <ele>819</ele>
        <time>2010-01-01T03:51:06Z</time>
      </trkpt>
      <trkpt lat="45.08993" lon="5.48577">
        <ele>818</ele>
        <time>2010-01-01T03:51:07Z</time>
      </trkpt>
      <trkpt lat="45.08987" lon="5.48583">
        <ele>816</ele>
        <time>2010-01-01T03:51:10Z</time>
      </trkpt>
      <trkpt lat="45.08982" lon="5.48587">
        <ele>815</ele>
        <time>2010-01-01T03:51:11Z</time>
      </trkpt>
      <trkpt lat="45.0898" lon="5.48588">
        <ele>815</ele>
        <time>2010-01-01T03:51:12Z</time>
      </trkpt>
      <trkpt lat="45.08974" lon="5.48592">
        <ele>813</ele>
        <time>2010-01-01T03:51:13Z</time>
      </trkpt>
      <trkpt lat="45.08972" lon="5.48594">
        <ele>813</ele>
        <time>2010-01-01T03:51:14Z</time>
      </trkpt>
      <trkpt lat="45.08967" lon="5.48596">
        <ele>812</ele>
        <time>2010-01-01T03:51:17Z</time>
      </trkpt>
      <trkpt lat="45.08962" lon="5.48604">
        <ele>813</ele>
        <time>2010-01-01T03:51:19Z</time>
      </trkpt>
      <trkpt lat="45.08959" lon="5.48608">
        <ele>814</ele>
        <time>2010-01-01T03:51:19Z</time>
      </trkpt>
      <trkpt lat="45.08955" lon="5.48615">
        <ele>815</ele>
        <time>2010-01-01T03:51:20Z</time>
      </trkpt>
      <trkpt lat="45.08955" lon="5.48622">
        <ele>817</ele>
        <time>2010-01-01T03:51:23Z</time>
      </trkpt>
      <trkpt lat="45.08954" lon="5.48632">
        <ele>820</ele>
        <time>2010-01-01T03:51:26Z</time>
      </trkpt>
      <trkpt lat="45.08956" lon="5.48639">
        <ele>823</ele>
        <time>2010-01-01T03:51:28Z</time>
      </trkpt>
      <trkpt lat="45.08956" lon="5.48644">
        <ele>824</ele>
        <time>2010-01-01T03:51:29Z</time>
      </trkpt>
      <trkpt lat="45.08956" lon="5.48647">
        <ele>825</ele>
        <time>2010-01-01T03:51:30Z</time>
      </trkpt>
      <trkpt lat="45.08956" lon="5.48654">
        <ele>826</ele>
        <time>2010-01-01T03:51:31Z</time>
      </trkpt>
      <trkpt lat="45.08955" lon="5.48656">
        <ele>826</ele>
        <time>2010-01-01T03:51:33Z</time>
      </trkpt>
      <trkpt lat="45.08955" lon="5.48657">
        <ele>826</ele>
        <time>2010-01-01T03:51:33Z</time>
      </trkpt>
      <trkpt lat="45.08956" lon="5.48664">
        <ele>828</ele>
        <time>2010-01-01T03:51:35Z</time>
      </trkpt>
      <trkpt lat="45.08956" lon="5.48666">
        <ele>828</ele>
        <time>2010-01-01T03:51:36Z</time>
      </trkpt>
      <trkpt lat="45.08955" lon="5.48667">
        <ele>828</ele>
        <time>2010-01-01T03:51:39Z</time>
      </trkpt>
      <trkpt lat="45.08955" lon="5.48672">
        <ele>829</ele>
        <time>2010-01-01T03:51:40Z</time>
      </trkpt>
      <trkpt lat="45.08956" lon="5.48675">
        <ele>830</ele>
        <time>2010-01-01T03:51:44Z</time>
      </trkpt>
      <trkpt lat="45.08958" lon="5.48681">
        <ele>832</ele>
        <time>2010-01-01T03:51:49Z</time>
      </trkpt>
      <trkpt lat="45.08958" lon="5.48683">
        <ele>832</ele>
        <time>2010-01-01T03:51:52Z</time>
      </trkpt>
      <trkpt lat="45.08959" lon="5.48686">
        <ele>833</ele>
        <time>2010-01-01T03:51:53Z</time>
      </trkpt>
      <trkpt lat="45.08962" lon="5.48692">
        <ele>835</ele>
        <time>2010-01-01T03:51:55Z</time>
      </trkpt>
      <trkpt lat="45.08964" lon="5.48696">
        <ele>837</ele>
        <time>2010-01-01T03:51:59Z</time>
      </trkpt>
      <trkpt lat="45.08968" lon="5.48701">
        <ele>840</ele>
        <time>2010-01-01T03:52:03Z</time>
      </trkpt>
      <trkpt lat="45.08972" lon="5.48706">
        <ele>842</ele>
        <time>2010-01-01T03:52:06Z</time>
      </trkpt>
      <trkpt lat="45.08976" lon="5.48712">
        <ele>846</ele>
        <time>2010-01-01T03:52:07Z</time>
      </trkpt>
      <trkpt lat="45.08976" lon="5.48713">
        <ele>846</ele>
        <time>2010-01-01T03:52:09Z</time>
      </trkpt>
      <trkpt lat="45.08976" lon="5.48721">
        <ele>848</ele>
        <time>2010-01-01T03:52:12Z</time>
      </trkpt>
      <trkpt lat="45.08979" lon="5.48723">
        <ele>849</ele>
        <time>2010-01-01T03:52:13Z</time>
      </trkpt>
      <trkpt lat="45.08982" lon="5.48727">
        <ele>851</ele>
        <time>2010-01-01T03:52:14Z</time>
      </trkpt>
      <trkpt lat="45.08984" lon="5.4873">
        <ele>852</ele>
        <time>2010-01-01T03:52:15Z</time>
      </trkpt>
      <trkpt lat="45.08984" lon="5.48736">
        <ele>853</ele>
        <time>2010-01-01T03:52:17Z</time>
      </trkpt>
      <trkpt lat="45.08986" lon="5.48742">
        <ele>854</ele>
        <time>2010-01-01T03:52:19Z</time>
      </trkpt>
      <trkpt lat="45.08987" lon="5.48746">
        <ele>855</ele>
        <time>2010-01-01T03:52:20Z</time>
      </trkpt>
      <trkpt lat="45.08988" lon="5.48748">
        <ele>855</ele>
        <time>2010-01-01T03:52:23Z</time>
      </trkpt>
      <trkpt lat="45.08991" lon="5.48751">
        <ele>857</ele>
        <time>2010-01-01T03:52:26Z</time>
      </trkpt>
      <trkpt lat="45.08989" lon="5.4876">
        <ele>857</ele>
        <time>2010-01-01T03:52:27Z</time>
      </trkpt>
      <trkpt lat="45.0899" lon="5.48766">
        <ele>857</ele>
        <time>2010-01-01T03:52:29Z</time>
      </trkpt>
      <trkpt lat="45.08993" lon="5.48777">
        <ele>859</ele>
        <time>2010-01-01T03:52:30Z</time>
      </trkpt>
      <trkpt lat="45.08993" lon="5.48778">
        <ele>859</ele>
        <time>2010-01-01T03:52:33Z</time>
      </trkpt>
      <trkpt lat="45.08991" lon="5.48781">
        <ele>859</ele>
        <time>2010-01-01T03:52:33Z</time>
      </trkpt>
      <trkpt lat="45.08991" lon="5.48782">
        <ele>859</ele>
        <time>2010-01-01T03:52:35Z</time>
      </trkpt>
      <trkpt lat="45.08991" lon="5.48785">
        <ele>860</ele>
        <time>2010-01-01T03:52:38Z</time>
      </trkpt>
      <trkpt lat="45.08991" lon="5.4879">
        <ele>860</ele>
        <time>2010-01-01T03:52:39Z</time>
      </trkpt>
      <trkpt lat="45.08991" lon="5.48791">
        <ele>861</ele>
        <time>2010-01-01T03:52:42Z</time>
      </trkpt>
      <trkpt lat="45.08988" lon="5.48796">
        <ele>861</ele>
        <time>2010-01-01T03:52:43Z</time>
      </trkpt>
      <trkpt lat="45.08987" lon="5.48799">
        <ele>861</ele>
        <time>2010-01-01T03:52:43Z</time>
      </trkpt>
      <trkpt lat="45.08986" lon="5.48803">
        <ele>861</ele>
        <time>2010-01-01T03:52:44Z</time>
      </trkpt>
      <trkpt lat="45.08985" lon="5.48806">
        <ele>862</ele>
        <time>2010-01-01T03:52:45Z</time>
      </trkpt>
      <trkpt lat="45.08986" lon="5.48809">
        <ele>863</ele>
        <time>2010-01-01T03:52:48Z</time>
      </trkpt>
      <trkpt lat="45.08987" lon="5.48811">
        <ele>864</ele>
        <time>2010-01-01T03:52:50Z</time>
      </trkpt>
      <trkpt lat="45.08989" lon="5.48814">
        <ele>865</ele>
        <time>2010-01-01T03:52:53Z</time>
      </trkpt>
      <trkpt lat="45.08989" lon="5.4881">
        <ele>864</ele>
        <time>2010-01-01T03:52:56Z</time>
      </trkpt>
      <trkpt lat="45.0899" lon="5.4881">
        <ele>864</ele>
        <time>2010-01-01T03:52:58Z</time>
      </trkpt>
      <trkpt lat="45.0899" lon="5.48809">
        <ele>864</ele>
        <time>2010-01-01T03:53:00Z</time>
      </trkpt>
      <trkpt lat="45.0899" lon="5.48804">
        <ele>862</ele>
        <time>2010-01-01T03:53:00Z</time>
      </trkpt>
      <trkpt lat="45.08992" lon="5.48801">
        <ele>862</ele>
        <time>2010-01-01T03:53:01Z</time>
      </trkpt>
      <trkpt lat="45.08995" lon="5.488">
        <ele>863</ele>
        <time>2010-01-01T03:53:02Z</time>
      </trkpt>
      <trkpt lat="45.08997" lon="5.48799">
        <ele>863</ele>
        <time>2010-01-01T03:53:03Z</time>
      </trkpt>
      <trkpt lat="45.09006" lon="5.48792">
        <ele>865</ele>
        <time>2010-01-01T03:53:06Z</time>
      </trkpt>
      <trkpt lat="45.09009" lon="5.48788">
        <ele>866</ele>
        <time>2010-01-01T03:53:07Z</time>
      </trkpt>
      <trkpt lat="45.09013" lon="5.48784">
        <ele>867</ele>
        <time>2010-01-01T03:53:08Z</time>
      </trkpt>
      <trkpt lat="45.09013" lon="5.48782">
        <ele>867</ele>
        <time>2010-01-01T03:53:11Z</time>
      </trkpt>
      <trkpt lat="45.09015" lon="5.48777">
        <ele>867</ele>
        <time>2010-01-01T03:53:12Z</time>
      </trkpt>
      <trkpt lat="45.09016" lon="5.48774">
        <ele>867</ele>
        <time>2010-01-01T03:53:15Z</time>
      </trkpt>
      <trkpt lat="45.09014" lon="5.48766">
        <ele>866</ele>
        <time>2010-01-01T03:53:16Z</time>
      </trkpt>
      <trkpt lat="45.09011" lon="5.48756">
        <ele>864</ele>
        <time>2010-01-01T03:53:17Z</time>
      </trkpt>
      <trkpt lat="45.0901" lon="5.48746">
        <ele>863</ele>
        <time>2010-01-01T03:53:19Z</time>
      </trkpt>
      <trkpt lat="45.09011" lon="5.48743">
        <ele>863</ele>
        <time>2010-01-01T03:53:20Z</time>
      </trkpt>
      <trkpt lat="45.09016" lon="5.48734">
        <ele>864</ele>
        <time>2010-01-01T03:53:24Z</time>
      </trkpt>
      <trkpt lat="45.09018" lon="5.48733">
        <ele>865</ele>
        <time>2010-01-01T03:53:26Z</time>
      </trkpt>
      <trkpt lat="45.0902" lon="5.48731">
        <ele>866</ele>
        <time>2010-01-01T03:53:26Z</time>
      </trkpt>
      <trkpt lat="45.09021" lon="5.48728">
        <ele>866</ele>
        <time>2010-01-01T03:53:27Z</time>
      </trkpt>
      <trkpt lat="45.09024" lon="5.48725">
        <ele>866</ele>
        <time>2010-01-01T03:53:28Z</time>
      </trkpt>
      <trkpt lat="45.0903" lon="5.48719">
        <ele>867</ele>
        <time>2010-01-01T03:53:29Z</time>
      </trkpt>
      <trkpt lat="45.09033" lon="5.48716">
        <ele>867</ele>
        <time>2010-01-01T03:53:30Z</time>
      </trkpt>
      <trkpt lat="45.09035" lon="5.48715">
        <ele>867</ele>
        <time>2010-01-01T03:53:32Z</time>
      </trkpt>
      <trkpt lat="45.09036" lon="5.48713">
        <ele>867</ele>
        <time>2010-01-01T03:53:38Z</time>
      </trkpt>
      <trkpt lat="45.09042" lon="5.48707">
        <ele>867</ele>
        <time>2010-01-01T03:53:40Z</time>
      </trkpt>
      <trkpt lat="45.09048" lon="5.487">
        <ele>867</ele>
        <time>2010-01-01T03:53:40Z</time>
      </trkpt>
      <trkpt lat="45.09053" lon="5.48697">
        <ele>867</ele>
        <time>2010-01-01T03:53:43Z</time>
      </trkpt>
      <trkpt lat="45.09055" lon="5.48696">
        <ele>868</ele>
        <time>2010-01-01T03:53:43Z</time>
      </trkpt>
      <trkpt lat="45.09057" lon="5.48693">
        <ele>868</ele>
        <time>2010-01-01T03:53:45Z</time>
      </trkpt>
      <trkpt lat="45.09058" lon="5.48692">
        <ele>868</ele>
        <time>2010-01-01T03:53:51Z</time>
      </trkpt>
      <trkpt lat="45.09061" lon="5.48686">
        <ele>867</ele>
        <time>2010-01-01T03:53:52Z</time>
      </trkpt>
      <trkpt lat="45.09062" lon="5.48685">
        <ele>867</ele>
        <time>2010-01-01T03:53:53Z</time>
      </trkpt>
      <trkpt lat="45.09063" lon="5.48681">
        <ele>866</ele>
        <time>2010-01-01T03:53:54Z</time>
      </trkpt>
      <trkpt lat="45.09066" lon="5.48677">
        <ele>866</ele>
        <time>2010-01-01T03:53:55Z</time>
      </trkpt>
      <trkpt lat="45.09071" lon="5.48671">
        <ele>866</ele>
        <time>2010-01-01T03:53:56Z</time>
      </trkpt>
      <trkpt lat="45.09071" lon="5.48669">
        <ele>866</ele>
        <time>2010-01-01T03:53:56Z</time>
      </trkpt>
      <trkpt lat="45.09077" lon="5.48654">
        <ele>864</ele>
        <time>2010-01-01T03:53:57Z</time>
      </trkpt>
      <trkpt lat="45.09086" lon="5.48647">
        <ele>865</ele>
        <time>2010-01-01T03:53:58Z</time>
      </trkpt>
      <trkpt lat="45.09091" lon="5.48638">
        <ele>865</ele>
        <time>2010-01-01T03:53:59Z</time>
      </trkpt>
      <trkpt lat="45.09093" lon="5.48637">
        <ele>865</ele>
        <time>2010-01-01T03:53:59Z</time>
      </trkpt>
      <trkpt lat="45.09097" lon="5.48631">
        <ele>866</ele>
        <time>2010-01-01T03:54:02Z</time>
      </trkpt>
      <trkpt lat="45.09105" lon="5.48624">
        <ele>868</ele>
        <time>2010-01-01T03:54:05Z</time>
      </trkpt>
      <trkpt lat="45.09114" lon="5.48615">
        <ele>870</ele>
        <time>2010-01-01T03:54:06Z</time>
      </trkpt>
      <trkpt lat="45.09121" lon="5.48612">
        <ele>872</ele>
        <time>2010-01-01T03:54:07Z</time>
      </trkpt>
      <trkpt lat="45.09122" lon="5.48613">
        <ele>872</ele>
        <time>2010-01-01T03:54:09Z</time>
      </trkpt>
      <trkpt lat="45.09127" lon="5.48613">
        <ele>874</ele>
        <time>2010-01-01T03:54:10Z</time>
      </trkpt>
      <trkpt lat="45.09135" lon="5.48617">
        <ele>878</ele>
        <time>2010-01-01T03:54:12Z</time>
      </trkpt>
      <trkpt lat="45.09138" lon="5.48617">
        <ele>879</ele>
        <time>2010-01-01T03:54:12Z</time>
      </trkpt>
      <trkpt lat="45.0914" lon="5.48619">
        <ele>880</ele>
        <time>2010-01-01T03:54:13Z</time>
      </trkpt>
      <trkpt lat="45.09141" lon="5.48618">
        <ele>881</ele>
        <time>2010-01-01T03:54:13Z</time>
      </trkpt>
      <trkpt lat="45.09147" lon="5.48621">
        <ele>882</ele>
        <time>2010-01-01T03:54:14Z</time>
      </trkpt>
      <trkpt lat="45.09149" lon="5.48625">
        <ele>884</ele>
        <time>2010-01-01T03:54:15Z</time>
      </trkpt>
      <trkpt lat="45.09153" lon="5.48628">
        <ele>885</ele>
        <time>2010-01-01T03:54:15Z</time>
      </trkpt>
      <trkpt lat="45.09158" lon="5.48632">
        <ele>887</ele>
        <time>2010-01-01T03:54:16Z</time>
      </trkpt>
      <trkpt lat="45.09167" lon="5.48633">
        <ele>889</ele>
        <time>2010-01-01T03:54:17Z</time>
      </trkpt>
      <trkpt lat="45.09169" lon="5.48634">
        <ele>889</ele>
        <time>2010-01-01T03:54:17Z</time>
      </trkpt>
      <trkpt lat="45.09173" lon="5.48635">
        <ele>890</ele>
        <time>2010-01-01T03:54:21Z</time>
      </trkpt>
      <trkpt lat="45.09177" lon="5.48634">
        <ele>891</ele>
        <time>2010-01-01T03:54:23Z</time>
      </trkpt>
      <trkpt lat="45.09182" lon="5.4863">
        <ele>892</ele>
        <time>2010-01-01T03:54:24Z</time>
      </trkpt>
      <trkpt lat="45.09183" lon="5.4863">
        <ele>892</ele>
        <time>2010-01-01T03:54:25Z</time>
      </trkpt>
      <trkpt lat="45.09189" lon="5.48629">
        <ele>894</ele>
        <time>2010-01-01T03:54:27Z</time>
      </trkpt>
      <trkpt lat="45.09195" lon="5.4863">
        <ele>895</ele>
        <time>2010-01-01T03:54:29Z</time>
      </trkpt>
      <trkpt lat="45.09197" lon="5.4863">
        <ele>896</ele>
        <time>2010-01-01T03:54:32Z</time>
      </trkpt>
      <trkpt lat="45.09204" lon="5.48627">
        <ele>897</ele>
        <time>2010-01-01T03:54:34Z</time>
      </trkpt>
      <trkpt lat="45.09207" lon="5.48627">
        <ele>898</ele>
        <time>2010-01-01T03:54:35Z</time>
      </trkpt>
      <trkpt lat="45.09208" lon="5.48627">
        <ele>898</ele>
        <time>2010-01-01T03:54:36Z</time>
      </trkpt>
      <trkpt lat="45.0921" lon="5.48627">
        <ele>899</ele>
        <time>2010-01-01T03:54:37Z</time>
      </trkpt>
      <trkpt lat="45.09213" lon="5.48626">
        <ele>899</ele>
        <time>2010-01-01T03:54:38Z</time>
      </trkpt>
      <trkpt lat="45.09219" lon="5.48623">
        <ele>900</ele>
        <time>2010-01-01T03:54:38Z</time>
      </trkpt>
      <trkpt lat="45.09225" lon="5.48623">
        <ele>902</ele>
        <time>2010-01-01T03:54:40Z</time>
      </trkpt>
      <trkpt lat="45.09231" lon="5.4862">
        <ele>903</ele>
        <time>2010-01-01T03:54:42Z</time>
      </trkpt>
      <trkpt lat="45.0924" lon="5.48617">
        <ele>905</ele>
        <time>2010-01-01T03:54:43Z</time>
      </trkpt>
      <trkpt lat="45.09244" lon="5.48613">
        <ele>905</ele>
        <time>2010-01-01T03:54:44Z</time>
      </trkpt>
      <trkpt lat="45.09247" lon="5.48611">
        <ele>906</ele>
        <time>2010-01-01T03:54:44Z</time>
      </trkpt>
      <trkpt lat="45.09248" lon="5.4861">
        <ele>906</ele>
        <time>2010-01-01T03:54:45Z</time>
      </trkpt>
      <trkpt lat="45.09249" lon="5.48607">
        <ele>906</ele>
        <time>2010-01-01T03:54:47Z</time>
      </trkpt>
      <trkpt lat="45.09248" lon="5.48605">
        <ele>905</ele>
        <time>2010-01-01T03:54:48Z</time>
      </trkpt>
      <trkpt lat="45.0925" lon="5.48601">
        <ele>905</ele>
        <time>2010-01-01T03:54:49Z</time>
      </trkpt>
      <trkpt lat="45.09254" lon="5.48592">
        <ele>905</ele>
        <time>2010-01-01T03:54:49Z</time>
      </trkpt>
      <trkpt lat="45.09255" lon="5.48588">
        <ele>905</ele>
        <time>2010-01-01T03:54:51Z</time>
      </trkpt>
      <trkpt lat="45.09256" lon="5.48585">
        <ele>904</ele>
        <time>2010-01-01T03:54:52Z</time>
      </trkpt>
      <trkpt lat="45.09259" lon="5.48575">
        <ele>905</ele>
        <time>2010-01-01T03:54:52Z</time>
      </trkpt>
      <trkpt lat="45.0926" lon="5.48574">
        <ele>905</ele>
        <time>2010-01-01T03:54:54Z</time>
      </trkpt>
      <trkpt lat="45.09266" lon="5.48565">
        <ele>906</ele>
        <time>2010-01-01T03:54:55Z</time>
      </trkpt>
      <trkpt lat="45.09268" lon="5.48564">
        <ele>906</ele>
        <time>2010-01-01T03:54:57Z</time>
      </trkpt>
      <trkpt lat="45.0927" lon="5.48561">
        <ele>907</ele>
        <time>2010-01-01T03:54:59Z</time>
      </trkpt>
      <trkpt lat="45.09273" lon="5.48561">
        <ele>908</ele>
        <time>2010-01-01T03:55:00Z</time>
      </trkpt>
      <trkpt lat="45.09277" lon="5.48561">
        <ele>909</ele>
        <time>2010-01-01T03:55:01Z</time>
      </trkpt>
      <trkpt lat="45.09285" lon="5.48563">
        <ele>911</ele>
        <time>2010-01-01T03:55:02Z</time>
      </trkpt>
      <trkpt lat="45.0929" lon="5.48562">
        <ele>912</ele>
        <time>2010-01-01T03:55:03Z</time>
      </trkpt>
      <trkpt lat="45.09291" lon="5.48561">
        <ele>913</ele>
        <time>2010-01-01T03:55:04Z</time>
      </trkpt>
      <trkpt lat="45.09293" lon="5.48558">
        <ele>913</ele>
        <time>2010-01-01T03:55:07Z</time>
      </trkpt>
      <trkpt lat="45.09294" lon="5.48557">
        <ele>913</ele>
        <time>2010-01-01T03:55:08Z</time>
      </trkpt>
      <trkpt lat="45.09297" lon="5.48556">
        <ele>914</ele>
        <time>2010-01-01T03:55:09Z</time>
      </trkpt>
      <trkpt lat="45.09299" lon="5.48555">
        <ele>915</ele>
        <time>2010-01-01T03:55:11Z</time>
      </trkpt>
      <trkpt lat="45.09305" lon="5.48553">
        <ele>916</ele>
        <time>2010-01-01T03:55:12Z</time>
      </trkpt>
      <trkpt lat="45.09317" lon="5.48545">
        <ele>918</ele>
        <time>2010-01-01T03:55:13Z</time>
      </trkpt>
      <trkpt lat="45.09323" lon="5.48545">
        <ele>920</ele>
        <time>2010-01-01T03:55:17Z</time>
      </trkpt>
      <trkpt lat="45.09324" lon="5.48545">
        <ele>920</ele>
        <time>2010-01-01T03:55:18Z</time>
      </trkpt>
      <trkpt lat="45.0933" lon="5.48541">
        <ele>921</ele>
        <time>2010-01-01T03:55:18Z</time>
      </trkpt>
      <trkpt lat="45.09331" lon="5.48541">
        <ele>921</ele>
        <time>2010-01-01T03:55:19Z</time>
      </trkpt>
      <trkpt lat="45.09334" lon="5.4854">
        <ele>922</ele>
        <time>2010-01-01T03:55:21Z</time>
      </trkpt>
      <trkpt lat="45.0935" lon="5.48545">
        <ele>927</ele>
        <time>2010-01-01T03:55:23Z</time>
      </trkpt>
      <trkpt lat="45.09351" lon="5.48545">
        <ele>928</ele>
        <time>2010-01-01T03:55:25Z</time>
      </trkpt>
      <trkpt lat="45.09354" lon="5.48543">
        <ele>929</ele>
        <time>2010-01-01T03:55:25Z</time>
      </trkpt>
      <trkpt lat="45.09356" lon="5.48542">
        <ele>929</ele>
        <time>2010-01-01T03:55:26Z</time>
      </trkpt>
      <trkpt lat="45.09358" lon="5.48541">
        <ele>930</ele>
        <time>2010-01-01T03:55:27Z</time>
      </trkpt>
      <trkpt lat="45.09361" lon="5.4854">
        <ele>931</ele>
        <time>2010-01-01T03:55:28Z</time>
      </trkpt>
      <trkpt lat="45.09362" lon="5.48539">
        <ele>931</ele>
        <time>2010-01-01T03:55:29Z</time>
      </trkpt>
      <trkpt lat="45.09364" lon="5.4854">
        <ele>932</ele>
        <time>2010-01-01T03:55:29Z</time>
      </trkpt>
      <trkpt lat="45.09365" lon="5.48542">
        <ele>932</ele>
        <time>2010-01-01T03:55:30Z</time>
      </trkpt>
      <trkpt lat="45.09366" lon="5.48544">
        <ele>933</ele>
        <time>2010-01-01T03:55:31Z</time>
      </trkpt>
      <trkpt lat="45.09367" lon="5.48547">
        <ele>933</ele>
        <time>2010-01-01T03:55:33Z</time>
      </trkpt>
      <trkpt lat="45.09373" lon="5.48552">
        <ele>935</ele>
        <time>2010-01-01T03:55:34Z</time>
      </trkpt>
      <trkpt lat="45.09379" lon="5.48554">
        <ele>937</ele>
        <time>2010-01-01T03:55:35Z</time>
      </trkpt>
      <trkpt lat="45.09381" lon="5.48554">
        <ele>938</ele>
        <time>2010-01-01T03:55:36Z</time>
      </trkpt>
      <trkpt lat="45.09384" lon="5.48555">
        <ele>939</ele>
        <time>2010-01-01T03:55:37Z</time>
      </trkpt>
      <trkpt lat="45.09388" lon="5.48558">
        <ele>940</ele>
        <time>2010-01-01T03:55:38Z</time>
      </trkpt>
      <trkpt lat="45.09391" lon="5.48558">
        <ele>942</ele>
        <time>2010-01-01T03:55:39Z</time>
      </trkpt>
      <trkpt lat="45.09396" lon="5.48555">
        <ele>943</ele>
        <time>2010-01-01T03:55:40Z</time>
      </trkpt>
      <trkpt lat="45.09396" lon="5.48554">
        <ele>943</ele>
        <time>2010-01-01T03:55:42Z</time>
      </trkpt>
      <trkpt lat="45.09397" lon="5.48555">
        <ele>943</ele>
        <time>2010-01-01T03:55:43Z</time>
      </trkpt>
      <trkpt lat="45.09398" lon="5.48555">
        <ele>944</ele>
        <time>2010-01-01T03:55:44Z</time>
      </trkpt>
      <trkpt lat="45.09401" lon="5.48556">
        <ele>945</ele>
        <time>2010-01-01T03:55:45Z</time>
      </trkpt>
      <trkpt lat="45.09402" lon="5.48556">
        <ele>945</ele>
        <time>2010-01-01T03:55:46Z</time>
      </trkpt>
      <trkpt lat="45.09403" lon="5.48557">
        <ele>946</ele>
        <time>2010-01-01T03:55:48Z</time>
      </trkpt>
      <trkpt lat="45.09405" lon="5.48559">
        <ele>947</ele>
        <time>2010-01-01T03:55:49Z</time>
      </trkpt>
      <trkpt lat="45.09406" lon="5.48558">
        <ele>947</ele>
        <time>2010-01-01T03:55:50Z</time>
      </trkpt>
      <trkpt lat="45.09407" lon="5.48558">
        <ele>947</ele>
        <time>2010-01-01T03:55:51Z</time>
      </trkpt>
      <trkpt lat="45.09416" lon="5.48559">
        <ele>951</ele>
        <time>2010-01-01T03:55:52Z</time>
      </trkpt>
      <trkpt lat="45.09422" lon="5.48559">
        <ele>953</ele>
        <time>2010-01-01T03:55:55Z</time>
      </trkpt>
      <trkpt lat="45.09423" lon="5.48561">
        <ele>953</ele>
        <time>2010-01-01T03:55:55Z</time>
      </trkpt>
      <trkpt lat="45.09424" lon="5.48564">
        <ele>954</ele>
        <time>2010-01-01T03:55:58Z</time>
      </trkpt>
      <trkpt lat="45.09429" lon="5.48559">
        <ele>955</ele>
        <time>2010-01-01T03:55:59Z</time>
      </trkpt>
      <trkpt lat="45.09434" lon="5.48556">
        <ele>957</ele>
        <time>2010-01-01T03:56:00Z</time>
      </trkpt>
      <trkpt lat="45.0944" lon="5.48553">
        <ele>959</ele>
        <time>2010-01-01T03:56:01Z</time>
      </trkpt>
      <trkpt lat="45.09445" lon="5.48554">
        <ele>961</ele>
        <time>2010-01-01T03:56:02Z</time>
      </trkpt>
      <trkpt lat="45.09446" lon="5.48552">
        <ele>961</ele>
        <time>2010-01-01T03:56:04Z</time>
      </trkpt>
      <trkpt lat="45.09446" lon="5.48549">
        <ele>961</ele>
        <time>2010-01-01T03:56:05Z</time>
      </trkpt>
      <trkpt lat="45.09448" lon="5.48546">
        <ele>961</ele>
        <time>2010-01-01T03:56:07Z</time>
      </trkpt>
      <trkpt lat="45.09449" lon="5.48541">
        <ele>961</ele>
        <time>2010-01-01T03:56:08Z</time>
      </trkpt>
      <trkpt lat="45.09449" lon="5.4854">
        <ele>961</ele>
        <time>2010-01-01T03:56:10Z</time>
      </trkpt>
      <trkpt lat="45.09453" lon="5.48537">
        <ele>962</ele>
        <time>2010-01-01T03:56:10Z</time>
      </trkpt>
      <trkpt lat="45.09458" lon="5.48535">
        <ele>964</ele>
        <time>2010-01-01T03:56:13Z</time>
      </trkpt>
      <trkpt lat="45.0946" lon="5.48533">
        <ele>964</ele>
        <time>2010-01-01T03:56:15Z</time>
      </trkpt>
      <trkpt lat="45.09461" lon="5.48533">
        <ele>965</ele>
        <time>2010-01-01T03:56:17Z</time>
      </trkpt>
      <trkpt lat="45.09462" lon="5.48533">
        <ele>965</ele>
        <time>2010-01-01T03:56:19Z</time>
      </trkpt>
      <trkpt lat="45.09465" lon="5.48531">
        <ele>966</ele>
        <time>2010-01-01T03:56:20Z</time>
      </trkpt>
      <trkpt lat="45.09468" lon="5.48534">
        <ele>967</ele>
        <time>2010-01-01T03:56:23Z</time>
      </trkpt>
      <trkpt lat="45.0947" lon="5.48533">
        <ele>967</ele>
        <time>2010-01-01T03:56:26Z</time>
      </trkpt>
      <trkpt lat="45.09472" lon="5.48532">
        <ele>968</ele>
        <time>2010-01-01T03:56:29Z</time>
      </trkpt>
      <trkpt lat="45.09474" lon="5.48532">
        <ele>969</ele>
        <time>2010-01-01T03:56:32Z</time>
      </trkpt>
      <trkpt lat="45.09477" lon="5.4853">
        <ele>969</ele>
        <time>2010-01-01T03:56:34Z</time>
      </trkpt>
      <trkpt lat="45.0948" lon="5.4853">
        <ele>970</ele>
        <time>2010-01-01T03:56:35Z</time>
      </trkpt>
      <trkpt lat="45.09481" lon="5.48529">
        <ele>970</ele>
        <time>2010-01-01T03:56:35Z</time>
      </trkpt>
      <trkpt lat="45.09484" lon="5.4853">
        <ele>971</ele>
        <time>2010-01-01T03:56:36Z</time>
      </trkpt>
      <trkpt lat="45.09487" lon="5.48533">
        <ele>972</ele>
        <time>2010-01-01T03:56:36Z</time>
      </trkpt>
      <trkpt lat="45.09492" lon="5.48531">
        <ele>974</ele>
        <time>2010-01-01T03:56:37Z</time>
      </trkpt>
      <trkpt lat="45.09495" lon="5.48528">
        <ele>974</ele>
        <time>2010-01-01T03:56:38Z</time>
      </trkpt>
      <trkpt lat="45.09498" lon="5.48525">
        <ele>975</ele>
        <time>2010-01-01T03:56:39Z</time>
      </trkpt>
      <trkpt lat="45.09499" lon="5.48522">
        <ele>975</ele>
        <time>2010-01-01T03:56:40Z</time>
      </trkpt>
      <trkpt lat="45.09501" lon="5.48519">
        <ele>975</ele>
        <time>2010-01-01T03:56:41Z</time>
      </trkpt>
      <trkpt lat="45.09502" lon="5.48518">
        <ele>975</ele>
        <time>2010-01-01T03:56:41Z</time>
      </trkpt>
      <trkpt lat="45.09505" lon="5.48515">
        <ele>975</ele>
        <time>2010-01-01T03:56:42Z</time>
      </trkpt>
      <trkpt lat="45.09512" lon="5.4851">
        <ele>977</ele>
        <time>2010-01-01T03:56:43Z</time>
      </trkpt>
      <trkpt lat="45.09514" lon="5.48509">
        <ele>977</ele>
        <time>2010-01-01T03:56:46Z</time>
      </trkpt>
      <trkpt lat="45.09515" lon="5.48507">
        <ele>977</ele>
        <time>2010-01-01T03:56:47Z</time>
      </trkpt>
      <trkpt lat="45.0952" lon="5.48507">
        <ele>978</ele>
        <time>2010-01-01T03:56:48Z</time>
      </trkpt>
      <trkpt lat="45.09522" lon="5.48507">
        <ele>979</ele>
        <time>2010-01-01T03:56:49Z</time>
      </trkpt>
      <trkpt lat="45.09526" lon="5.48507">
        <ele>980</ele>
        <time>2010-01-01T03:56:50Z</time>
      </trkpt>
      <trkpt lat="45.09535" lon="5.48505">
        <ele>982</ele>
        <time>2010-01-01T03:56:50Z</time>
      </trkpt>
      <trkpt lat="45.09537" lon="5.48503">
        <ele>983</ele>
        <time>2010-01-01T03:56:52Z</time>
      </trkpt>
      <trkpt lat="45.09538" lon="5.48503">
        <ele>983</ele>
        <time>2010-01-01T03:56:53Z</time>
      </trkpt>
      <trkpt lat="45.09539" lon="5.48502">
        <ele>983</ele>
        <time>2010-01-01T03:56:54Z</time>
      </trkpt>
      <trkpt lat="45.09543" lon="5.485">
        <ele>984</ele>
        <time>2010-01-01T03:56:55Z</time>
      </trkpt>
      <trkpt lat="45.09549" lon="5.48499">
        <ele>985</ele>
        <time>2010-01-01T03:56:58Z</time>
      </trkpt>
      <trkpt lat="45.09553" lon="5.48499">
        <ele>987</ele>
        <time>2010-01-01T03:56:59Z</time>
      </trkpt>
      <trkpt lat="45.09554" lon="5.48499">
        <ele>987</ele>
        <time>2010-01-01T03:57:01Z</time>
      </trkpt>
      <trkpt lat="45.09556" lon="5.48498">
        <ele>987</ele>
        <time>2010-01-01T03:57:05Z</time>
      </trkpt>
      <trkpt lat="45.09559" lon="5.48497">
        <ele>988</ele>
        <time>2010-01-01T03:57:06Z</time>
      </trkpt>
      <trkpt lat="45.09561" lon="5.48496">
        <ele>989</ele>
        <time>2010-01-01T03:57:08Z</time>
      </trkpt>
      <trkpt lat="45.09563" lon="5.48496">
        <ele>989</ele>
        <time>2010-01-01T03:57:09Z</time>
      </trkpt>
      <trkpt lat="45.09564" lon="5.48495">
        <ele>989</ele>
        <time>2010-01-01T03:57:10Z</time>
      </trkpt>
      <trkpt lat="45.09566" lon="5.48494">
        <ele>990</ele>
        <time>2010-01-01T03:57:13Z</time>
      </trkpt>
      <trkpt lat="45.09569" lon="5.48491">
        <ele>990</ele>
        <time>2010-01-01T03:57:13Z</time>
      </trkpt>
      <trkpt lat="45.09573" lon="5.48489">
        <ele>991</ele>
        <time>2010-01-01T03:57:15Z</time>
      </trkpt>
      <trkpt lat="45.09576" lon="5.48488">
        <ele>992</ele>
        <time>2010-01-01T03:57:19Z</time>
      </trkpt>
      <trkpt lat="45.09578" lon="5.48487">
        <ele>993</ele>
        <time>2010-01-01T03:57:20Z</time>
      </trkpt>
      <trkpt lat="45.0958" lon="5.48485">
        <ele>993</ele>
        <time>2010-01-01T03:57:21Z</time>
      </trkpt>
      <trkpt lat="45.09583" lon="5.48484">
        <ele>993</ele>
        <time>2010-01-01T03:57:23Z</time>
      </trkpt>
      <trkpt lat="45.09585" lon="5.48484">
        <ele>994</ele>
        <time>2010-01-01T03:57:25Z</time>
      </trkpt>
      <trkpt lat="45.09588" lon="5.48484">
        <ele>995</ele>
        <time>2010-01-01T03:57:26Z</time>
      </trkpt>
      <trkpt lat="45.09589" lon="5.48484">
        <ele>995</ele>
        <time>2010-01-01T03:57:27Z</time>
      </trkpt>
      <trkpt lat="45.09595" lon="5.48484">
        <ele>997</ele>
        <time>2010-01-01T03:57:31Z</time>
      </trkpt>
      <trkpt lat="45.09596" lon="5.48482">
        <ele>997</ele>
        <time>2010-01-01T03:57:33Z</time>
      </trkpt>
      <trkpt lat="45.09598" lon="5.48481">
        <ele>998</ele>
        <time>2010-01-01T03:57:34Z</time>
      </trkpt>
      <trkpt lat="45.09601" lon="5.48479">
        <ele>998</ele>
        <time>2010-01-01T03:57:34Z</time>
      </trkpt>
      <trkpt lat="45.09602" lon="5.48478">
        <ele>998</ele>
        <time>2010-01-01T03:57:36Z</time>
      </trkpt>
      <trkpt lat="45.09606" lon="5.48474">
        <ele>998</ele>
        <time>2010-01-01T03:57:37Z</time>
      </trkpt>
      <trkpt lat="45.0961" lon="5.48471">
        <ele>999</ele>
        <time>2010-01-01T03:57:38Z</time>
      </trkpt>
      <trkpt lat="45.09611" lon="5.48469">
        <ele>999</ele>
        <time>2010-01-01T03:57:39Z</time>
      </trkpt>
      <trkpt lat="45.09612" lon="5.4847">
        <ele>999</ele>
        <time>2010-01-01T03:57:40Z</time>
      </trkpt>
      <trkpt lat="45.09616" lon="5.48469">
        <ele>1000</ele>
        <time>2010-01-01T03:57:40Z</time>
      </trkpt>
      <trkpt lat="45.09622" lon="5.48467">
        <ele>1001</ele>
        <time>2010-01-01T03:57:42Z</time>
      </trkpt>
      <trkpt lat="45.09623" lon="5.48466">
        <ele>1002</ele>
        <time>2010-01-01T03:57:44Z</time>
      </trkpt>
      <trkpt lat="45.0963" lon="5.48462">
        <ele>1003</ele>
        <time>2010-01-01T03:57:44Z</time>
      </trkpt>
      <trkpt lat="45.09632" lon="5.4846">
        <ele>1004</ele>
        <time>2010-01-01T03:57:46Z</time>
      </trkpt>
      <trkpt lat="45.09634" lon="5.4846">
        <ele>1004</ele>
        <time>2010-01-01T03:57:49Z</time>
      </trkpt>
      <trkpt lat="45.09636" lon="5.48461">
        <ele>1005</ele>
        <time>2010-01-01T03:57:50Z</time>
      </trkpt>
      <trkpt lat="45.09639" lon="5.48461">
        <ele>1006</ele>
        <time>2010-01-01T03:57:51Z</time>
      </trkpt>
      <trkpt lat="45.09643" lon="5.48463">
        <ele>1007</ele>
        <time>2010-01-01T03:57:54Z</time>
      </trkpt>
      <trkpt lat="45.09645" lon="5.48464">
        <ele>1008</ele>
        <time>2010-01-01T03:57:58Z</time>
      </trkpt>
      <trkpt lat="45.09651" lon="5.48464">
        <ele>1010</ele>
        <time>2010-01-01T03:58:03Z</time>
      </trkpt>
      <trkpt lat="45.09654" lon="5.48462">
        <ele>1011</ele>
        <time>2010-01-01T03:58:07Z</time>
      </trkpt>
      <trkpt lat="45.09658" lon="5.4846">
        <ele>1013</ele>
        <time>2010-01-01T03:58:08Z</time>
      </trkpt>
      <trkpt lat="45.09658" lon="5.48459">
        <ele>1013</ele>
        <time>2010-01-01T03:58:10Z</time>
      </trkpt>
      <trkpt lat="45.09665" lon="5.48457">
        <ele>1015</ele>
        <time>2010-01-01T03:58:15Z</time>
      </trkpt>
      <trkpt lat="45.0967" lon="5.48454">
        <ele>1017</ele>
        <time>2010-01-01T03:58:18Z</time>
      </trkpt>
      <trkpt lat="45.09675" lon="5.48451">
        <ele>1019</ele>
        <time>2010-01-01T03:58:22Z</time>
      </trkpt>
      <trkpt lat="45.09678" lon="5.4845">
        <ele>1020</ele>
        <time>2010-01-01T03:58:25Z</time>
      </trkpt>
      <trkpt lat="45.09682" lon="5.48448">
        <ele>1021</ele>
        <time>2010-01-01T03:58:29Z</time>
      </trkpt>
      <trkpt lat="45.09687" lon="5.48444">
        <ele>1022</ele>
        <time>2010-01-01T03:58:30Z</time>
      </trkpt>
      <trkpt lat="45.09695" lon="5.48441">
        <ele>1025</ele>
        <time>2010-01-01T03:58:34Z</time>
      </trkpt>
      <trkpt lat="45.09702" lon="5.48437">
        <ele>1028</ele>
        <time>2010-01-01T03:58:37Z</time>
      </trkpt>
      <trkpt lat="45.09707" lon="5.48432">
        <ele>1030</ele>
        <time>2010-01-01T03:58:39Z</time>
      </trkpt>
      <trkpt lat="45.09713" lon="5.48427">
        <ele>1032</ele>
        <time>2010-01-01T03:58:42Z</time>
      </trkpt>
      <trkpt lat="45.09714" lon="5.48428">
        <ele>1032</ele>
        <time>2010-01-01T03:58:47Z</time>
      </trkpt>
      <trkpt lat="45.09715" lon="5.48428">
        <ele>1033</ele>
        <time>2010-01-01T03:58:50Z</time>
      </trkpt>
      <trkpt lat="45.09717" lon="5.48428">
        <ele>1033</ele>
        <time>2010-01-01T03:58:51Z</time>
      </trkpt>
      <trkpt lat="45.09717" lon="5.48427">
        <ele>1033</ele>
        <time>2010-01-01T03:58:52Z</time>
      </trkpt>
      <trkpt lat="45.09719" lon="5.48424">
        <ele>1034</ele>
        <time>2010-01-01T03:58:53Z</time>
      </trkpt>
      <trkpt lat="45.09721" lon="5.48422">
        <ele>1035</ele>
        <time>2010-01-01T03:58:54Z</time>
      </trkpt>
      <trkpt lat="45.09723" lon="5.48421">
        <ele>1036</ele>
        <time>2010-01-01T03:58:55Z</time>
      </trkpt>
      <trkpt lat="45.09724" lon="5.4842">
        <ele>1036</ele>
        <time>2010-01-01T03:58:57Z</time>
      </trkpt>
      <trkpt lat="45.09727" lon="5.48419">
        <ele>1037</ele>
        <time>2010-01-01T03:59:01Z</time>
      </trkpt>
      <trkpt lat="45.09728" lon="5.48418">
        <ele>1038</ele>
        <time>2010-01-01T03:59:05Z</time>
      </trkpt>
      <trkpt lat="45.09729" lon="5.48417">
        <ele>1038</ele>
        <time>2010-01-01T03:59:10Z</time>
      </trkpt>
      <trkpt lat="45.09732" lon="5.48414">
        <ele>1040</ele>
        <time>2010-01-01T03:59:14Z</time>
      </trkpt>
      <trkpt lat="45.09738" lon="5.48409">
        <ele>1043</ele>
        <time>2010-01-01T03:59:17Z</time>
      </trkpt>
      <trkpt lat="45.09739" lon="5.48409">
        <ele>1043</ele>
        <time>2010-01-01T03:59:19Z</time>
      </trkpt>
      <trkpt lat="45.09742" lon="5.48409">
        <ele>1044</ele>
        <time>2010-01-01T03:59:19Z</time>
      </trkpt>
      <trkpt lat="45.09745" lon="5.48407">
        <ele>1045</ele>
        <time>2010-01-01T03:59:26Z</time>
      </trkpt>
      <trkpt lat="45.09747" lon="5.48407">
        <ele>1046</ele>
        <time>2010-01-01T03:59:30Z</time>
      </trkpt>
      <trkpt lat="45.09748" lon="5.48407">
        <ele>1046</ele>
        <time>2010-01-01T03:59:34Z</time>
      </trkpt>
      <trkpt lat="45.09746" lon="5.48402">
        <ele>1047</ele>
        <time>2010-01-01T03:59:35Z</time>
      </trkpt>
      <trkpt lat="45.09745" lon="5.484">
        <ele>1048</ele>
        <time>2010-01-01T03:59:36Z</time>
      </trkpt>
      <trkpt lat="45.09742" lon="5.48396">
        <ele>1048</ele>
        <time>2010-01-01T03:59:40Z</time>
      </trkpt>
      <trkpt lat="45.09741" lon="5.48394">
        <ele>1048</ele>
        <time>2010-01-01T03:59:41Z</time>
      </trkpt>
      <trkpt lat="45.09735" lon="5.48387">
        <ele>1049</ele>
        <time>2010-01-01T03:59:42Z</time>
      </trkpt>
      <trkpt lat="45.09734" lon="5.48386">
        <ele>1049</ele>
        <time>2010-01-01T03:59:45Z</time>
      </trkpt>
      <trkpt lat="45.09731" lon="5.48379">
        <ele>1049</ele>
        <time>2010-01-01T03:59:45Z</time>
      </trkpt>
      <trkpt lat="45.09724" lon="5.48368">
        <ele>1050</ele>
        <time>2010-01-01T03:59:50Z</time>
      </trkpt>
      <trkpt lat="45.09722" lon="5.48365">
        <ele>1050</ele>
        <time>2010-01-01T03:59:50Z</time>
      </trkpt>
      <trkpt lat="45.09718" lon="5.48361">
        <ele>1049</ele>
        <time>2010-01-01T03:59:54Z</time>
      </trkpt>
      <trkpt lat="45.09717" lon="5.48359">
        <ele>1049</ele>
        <time>2010-01-01T03:59:58Z</time>
      </trkpt>
      <trkpt lat="45.09716" lon="5.48357">
        <ele>1049</ele>
        <time>2010-01-01T04:00:04Z</time>
      </trkpt>
      <trkpt lat="45.09711" lon="5.48349">
        <ele>1049</ele>
        <time>2010-01-01T04:00:09Z</time>
      </trkpt>
      <trkpt lat="45.09711" lon="5.48347">
        <ele>1050</ele>
        <time>2010-01-01T04:00:14Z</time>
      </trkpt>
      <trkpt lat="45.09711" lon="5.48339">
        <ele>1051</ele>
        <time>2010-01-01T04:00:18Z</time>
      </trkpt>
      <trkpt lat="45.09706" lon="5.48328">
        <ele>1052</ele>
        <time>2010-01-01T04:00:19Z</time>
      </trkpt>
      <trkpt lat="45.09705" lon="5.48327">
        <ele>1051</ele>
        <time>2010-01-01T04:00:24Z</time>
      </trkpt>
      <trkpt lat="45.09701" lon="5.48324">
        <ele>1051</ele>
        <time>2010-01-01T04:00:29Z</time>
      </trkpt>
      <trkpt lat="45.09699" lon="5.48319">
        <ele>1051</ele>
        <time>2010-01-01T04:00:34Z</time>
      </trkpt>
      <trkpt lat="45.09697" lon="5.48313">
        <ele>1052</ele>
        <time>2010-01-01T04:00:42Z</time>
      </trkpt>
      <trkpt lat="45.09695" lon="5.48309">
        <ele>1052</ele>
        <time>2010-01-01T04:00:50Z</time>
      </trkpt>
      <trkpt lat="45.09695" lon="5.48308">
        <ele>1052</ele>
        <time>2010-01-01T04:00:51Z</time>
      </trkpt>
      <trkpt lat="45.09695" lon="5.48294">
        <ele>1053</ele>
        <time>2010-01-01T04:00:57Z</time>
      </trkpt>
      <trkpt lat="45.09696" lon="5.48284">
        <ele>1053</ele>
        <time>2010-01-01T04:01:02Z</time>
      </trkpt>
      <trkpt lat="45.09697" lon="5.48283">
        <ele>1054</ele>
        <time>2010-01-01T04:01:08Z</time>
      </trkpt>
      <trkpt lat="45.09698" lon="5.48282">
        <ele>1054</ele>
        <time>2010-01-01T04:01:14Z</time>
      </trkpt>
      <trkpt lat="45.09699" lon="5.48277">
        <ele>1054</ele>
        <time>2010-01-01T04:01:21Z</time>
      </trkpt>
      <trkpt lat="45.09699" lon="5.48274">
        <ele>1054</ele>
        <time>2010-01-01T04:01:26Z</time>
      </trkpt>
      <trkpt lat="45.09699" lon="5.48268">
        <ele>1053</ele>
        <time>2010-01-01T04:01:31Z</time>
      </trkpt>
      <trkpt lat="45.09701" lon="5.48266">
        <ele>1053</ele>
        <time>2010-01-01T04:01:38Z</time>
      </trkpt>
      <trkpt lat="45.09701" lon="5.48267">
        <ele>1053</ele>
        <time>2010-01-01T04:01:43Z</time>
      </trkpt>
      <trkpt lat="45.09703" lon="5.48267">
        <ele>1053</ele>
        <time>2010-01-01T04:01:47Z</time>
      </trkpt>
      <trkpt lat="45.09707" lon="5.48271">
        <ele>1054</ele>
        <time>2010-01-01T04:01:53Z</time>
      </trkpt>
      <trkpt lat="45.0971" lon="5.48273">
        <ele>1054</ele>
        <time>2010-01-01T04:02:00Z</time>
      </trkpt>
      <trkpt lat="45.09711" lon="5.48275">
        <ele>1055</ele>
        <time>2010-01-01T04:02:04Z</time>
      </trkpt>
      <trkpt lat="45.09715" lon="5.48276">
        <ele>1055</ele>
        <time>2010-01-01T04:02:05Z</time>
      </trkpt>
      <trkpt lat="45.09722" lon="5.48281">
        <ele>1057</ele>
        <time>2010-01-01T04:02:06Z</time>
      </trkpt>
      <trkpt lat="45.09723" lon="5.48282">
        <ele>1057</ele>
        <time>2010-01-01T04:02:07Z</time>
      </trkpt>
      <trkpt lat="45.09727" lon="5.48284">
        <ele>1056</ele>
        <time>2010-01-01T04:02:12Z</time>
      </trkpt>
      <trkpt lat="45.09734" lon="5.48287">
        <ele>1056</ele>
        <time>2010-01-01T04:02:17Z</time>
      </trkpt>
      <trkpt lat="45.09743" lon="5.48293">
        <ele>1057</ele>
        <time>2010-01-01T04:02:18Z</time>
      </trkpt>
      <trkpt lat="45.09754" lon="5.48295">
        <ele>1057</ele>
        <time>2010-01-01T04:02:21Z</time>
      </trkpt>
      <trkpt lat="45.09765" lon="5.48296">
        <ele>1056</ele>
        <time>2010-01-01T04:02:25Z</time>
      </trkpt>
      <trkpt lat="45.09767" lon="5.48297">
        <ele>1056</ele>
        <time>2010-01-01T04:02:26Z</time>
      </trkpt>
      <trkpt lat="45.09772" lon="5.48301">
        <ele>1057</ele>
        <time>2010-01-01T04:02:29Z</time>
      </trkpt>
      <trkpt lat="45.09781" lon="5.48309">
        <ele>1059</ele>
        <time>2010-01-01T04:02:30Z</time>
      </trkpt>
      <trkpt lat="45.09788" lon="5.48314">
        <ele>1059</ele>
        <time>2010-01-01T04:02:35Z</time>
      </trkpt>
      <trkpt lat="45.09798" lon="5.48316">
        <ele>1059</ele>
        <time>2010-01-01T04:02:38Z</time>
      </trkpt>
      <trkpt lat="45.09805" lon="5.48324">
        <ele>1061</ele>
        <time>2010-01-01T04:02:38Z</time>
      </trkpt>
      <trkpt lat="45.09811" lon="5.48332">
        <ele>1062</ele>
        <time>2010-01-01T04:02:39Z</time>
      </trkpt>
      <trkpt lat="45.09812" lon="5.48336">
        <ele>1063</ele>
        <time>2010-01-01T04:02:41Z</time>
      </trkpt>
      <trkpt lat="45.09818" lon="5.48347">
        <ele>1063</ele>
        <time>2010-01-01T04:02:46Z</time>
      </trkpt>
      <trkpt lat="45.09825" lon="5.48352">
        <ele>1062</ele>
        <time>2010-01-01T04:02:47Z</time>
      </trkpt>
      <trkpt lat="45.09828" lon="5.48357">
        <ele>1062</ele>
        <time>2010-01-01T04:02:50Z</time>
      </trkpt>
      <trkpt lat="45.09834" lon="5.48364">
        <ele>1063</ele>
        <time>2010-01-01T04:02:54Z</time>
      </trkpt>
      <trkpt lat="45.09844" lon="5.48376">
        <ele>1064</ele>
        <time>2010-01-01T04:02:59Z</time>
      </trkpt>
      <trkpt lat="45.0985" lon="5.48381">
        <ele>1065</ele>
        <time>2010-01-01T04:03:00Z</time>
      </trkpt>
      <trkpt lat="45.09852" lon="5.48381">
        <ele>1065</ele>
        <time>2010-01-01T04:03:03Z</time>
      </trkpt>
      <trkpt lat="45.09854" lon="5.48385">
        <ele>1065</ele>
        <time>2010-01-01T04:03:05Z</time>
      </trkpt>
      <trkpt lat="45.09855" lon="5.48388">
        <ele>1066</ele>
        <time>2010-01-01T04:03:08Z</time>
      </trkpt>
      <trkpt lat="45.09855" lon="5.4839">
        <ele>1066</ele>
        <time>2010-01-01T04:03:11Z</time>
      </trkpt>
      <trkpt lat="45.09858" lon="5.4839">
        <ele>1066</ele>
        <time>2010-01-01T04:03:13Z</time>
      </trkpt>
      <trkpt lat="45.09864" lon="5.48388">
        <ele>1067</ele>
        <time>2010-01-01T04:03:13Z</time>
      </trkpt>
      <trkpt lat="45.09873" lon="5.48386">
        <ele>1067</ele>
        <time>2010-01-01T04:03:14Z</time>
      </trkpt>
      <trkpt lat="45.09883" lon="5.48387">
        <ele>1069</ele>
        <time>2010-01-01T04:03:18Z</time>
      </trkpt>
      <trkpt lat="45.09895" lon="5.48387">
        <ele>1069</ele>
        <time>2010-01-01T04:03:18Z</time>
      </trkpt>
      <trkpt lat="45.09906" lon="5.48389">
        <ele>1070</ele>
        <time>2010-01-01T04:03:21Z</time>
      </trkpt>
      <trkpt lat="45.09914" lon="5.48388">
        <ele>1069</ele>
        <time>2010-01-01T04:03:23Z</time>
      </trkpt>
      <trkpt lat="45.09917" lon="5.48386">
        <ele>1069</ele>
        <time>2010-01-01T04:03:26Z</time>
      </trkpt>
      <trkpt lat="45.09918" lon="5.48386">
        <ele>1068</ele>
        <time>2010-01-01T04:03:30Z</time>
      </trkpt>
      <trkpt lat="45.09934" lon="5.48382">
        <ele>1065</ele>
        <time>2010-01-01T04:03:36Z</time>
      </trkpt>
      <trkpt lat="45.09946" lon="5.48383">
        <ele>1063</ele>
        <time>2010-01-01T04:03:37Z</time>
      </trkpt>
      <trkpt lat="45.09955" lon="5.48384">
        <ele>1063</ele>
        <time>2010-01-01T04:03:39Z</time>
      </trkpt>
      <trkpt lat="45.09957" lon="5.48384">
        <ele>1063</ele>
        <time>2010-01-01T04:03:40Z</time>
      </trkpt>
      <trkpt lat="45.0996" lon="5.48385">
        <ele>1063</ele>
        <time>2010-01-01T04:03:44Z</time>
      </trkpt>
      <trkpt lat="45.09969" lon="5.48387">
        <ele>1064</ele>
        <time>2010-01-01T04:03:49Z</time>
      </trkpt>
      <trkpt lat="45.09972" lon="5.48389">
        <ele>1065</ele>
        <time>2010-01-01T04:03:50Z</time>
      </trkpt>
      <trkpt lat="45.09975" lon="5.48391">
        <ele>1065</ele>
        <time>2010-01-01T04:03:51Z</time>
      </trkpt>
      <trkpt lat="45.09981" lon="5.48393">
        <ele>1066</ele>
        <time>2010-01-01T04:03:53Z</time>
      </trkpt>
      <trkpt lat="45.09981" lon="5.48394">
        <ele>1067</ele>
        <time>2010-01-01T04:03:57Z</time>
      </trkpt>
      <trkpt lat="45.09992" lon="5.48393">
        <ele>1066</ele>
        <time>2010-01-01T04:04:03Z</time>
      </trkpt>
      <trkpt lat="45.09994" lon="5.48394">
        <ele>1067</ele>
        <time>2010-01-01T04:04:07Z</time>
      </trkpt>
      <trkpt lat="45.10004" lon="5.48394">
        <ele>1067</ele>
        <time>2010-01-01T04:04:11Z</time>
      </trkpt>
      <trkpt lat="45.10013" lon="5.484">
        <ele>1069</ele>
        <time>2010-01-01T04:04:17Z</time>
      </trkpt>
      <trkpt lat="45.10027" lon="5.48405">
        <ele>1070</ele>
        <time>2010-01-01T04:04:22Z</time>
      </trkpt>
      <trkpt lat="45.1004" lon="5.48409">
        <ele>1074</ele>
        <time>2010-01-01T04:04:24Z</time>
      </trkpt>
      <trkpt lat="45.10052" lon="5.48412">
        <ele>1077</ele>
        <time>2010-01-01T04:04:27Z</time>
      </trkpt>
      <trkpt lat="45.10062" lon="5.48411">
        <ele>1077</ele>
        <time>2010-01-01T04:04:33Z</time>
      </trkpt>
      <trkpt lat="45.10064" lon="5.48411">
        <ele>1076</ele>
        <time>2010-01-01T04:04:38Z</time>
      </trkpt>
      <trkpt lat="45.10076" lon="5.48408">
        <ele>1073</ele>
        <time>2010-01-01T04:04:45Z</time>
      </trkpt>
      <trkpt lat="45.10087" lon="5.48401">
        <ele>1069</ele>
        <time>2010-01-01T04:04:51Z</time>
      </trkpt>
      <trkpt lat="45.10099" lon="5.48393">
        <ele>1066</ele>
        <time>2010-01-01T04:04:58Z</time>
      </trkpt>
      <trkpt lat="45.10116" lon="5.48381">
        <ele>1063</ele>
        <time>2010-01-01T04:05:05Z</time>
      </trkpt>
      <trkpt lat="45.10134" lon="5.4837">
        <ele>1061</ele>
        <time>2010-01-01T04:05:10Z</time>
      </trkpt>
      <trkpt lat="45.10137" lon="5.4837">
        <ele>1062</ele>
        <time>2010-01-01T04:05:18Z</time>
      </trkpt>
      <trkpt lat="45.10151" lon="5.48362">
        <ele>1058</ele>
        <time>2010-01-01T04:05:25Z</time>
      </trkpt>
      <trkpt lat="45.10163" lon="5.48353">
        <ele>1055</ele>
        <time>2010-01-01T04:05:32Z</time>
      </trkpt>
      <trkpt lat="45.10177" lon="5.48348">
        <ele>1055</ele>
        <time>2010-01-01T04:05:39Z</time>
      </trkpt>
      <trkpt lat="45.10189" lon="5.48339">
        <ele>1054</ele>
        <time>2010-01-01T04:05:45Z</time>
      </trkpt>
      <trkpt lat="45.10206" lon="5.48331">
        <ele>1052</ele>
        <time>2010-01-01T04:05:48Z</time>
      </trkpt>
      <trkpt lat="45.10219" lon="5.48325">
        <ele>1050</ele>
        <time>2010-01-01T04:06:24Z</time>
      </trkpt>
      <trkpt lat="45.1023" lon="5.48315">
        <ele>1047</ele>
        <time>2010-01-01T04:06:25Z</time>
      </trkpt>
      <trkpt lat="45.10247" lon="5.48309">
        <ele>1045</ele>
        <time>2010-01-01T04:06:25Z</time>
      </trkpt>
      <trkpt lat="45.10259" lon="5.48309">
        <ele>1044</ele>
        <time>2010-01-01T04:06:26Z</time>
      </trkpt>
      <trkpt lat="45.10269" lon="5.48307">
        <ele>1042</ele>
        <time>2010-01-01T04:06:27Z</time>
      </trkpt>
      <trkpt lat="45.10284" lon="5.48308">
        <ele>1041</ele>
        <time>2010-01-01T04:06:31Z</time>
      </trkpt>
      <trkpt lat="45.103" lon="5.4831">
        <ele>1042</ele>
        <time>2010-01-01T04:06:42Z</time>
      </trkpt>
      <trkpt lat="45.10311" lon="5.48307">
        <ele>1041</ele>
        <time>2010-01-01T04:06:46Z</time>
      </trkpt>
      <trkpt lat="45.10312" lon="5.48305">
        <ele>1040</ele>
        <time>2010-01-01T04:06:51Z</time>
      </trkpt>
      <trkpt lat="45.1031" lon="5.48304">
        <ele>1040</ele>
        <time>2010-01-01T04:06:56Z</time>
      </trkpt>
      <trkpt lat="45.10312" lon="5.48303">
        <ele>1040</ele>
        <time>2010-01-01T04:07:00Z</time>
      </trkpt>
      <trkpt lat="45.10325" lon="5.48296">
        <ele>1036</ele>
        <time>2010-01-01T04:07:04Z</time>
      </trkpt>
      <trkpt lat="45.10336" lon="5.48293">
        <ele>1034</ele>
        <time>2010-01-01T04:07:08Z</time>
      </trkpt>
      <trkpt lat="45.10338" lon="5.48291">
        <ele>1033</ele>
        <time>2010-01-01T04:07:09Z</time>
      </trkpt>
      <trkpt lat="45.10345" lon="5.48288">
        <ele>1031</ele>
        <time>2010-01-01T04:07:12Z</time>
      </trkpt>
      <trkpt lat="45.10355" lon="5.48283">
        <ele>1029</ele>
        <time>2010-01-01T04:07:14Z</time>
      </trkpt>
      <trkpt lat="45.10358" lon="5.48283">
        <ele>1029</ele>
        <time>2010-01-01T04:07:16Z</time>
      </trkpt>
      <trkpt lat="45.10365" lon="5.4828">
        <ele>1028</ele>
        <time>2010-01-01T04:07:19Z</time>
      </trkpt>
      <trkpt lat="45.10366" lon="5.48275">
        <ele>1027</ele>
        <time>2010-01-01T04:07:20Z</time>
      </trkpt>
      <trkpt lat="45.10375" lon="5.48267">
        <ele>1024</ele>
        <time>2010-01-01T04:07:23Z</time>
      </trkpt>
      <trkpt lat="45.10382" lon="5.48264">
        <ele>1022</ele>
        <time>2010-01-01T04:07:28Z</time>
      </trkpt>
      <trkpt lat="45.10383" lon="5.48263">
        <ele>1022</ele>
        <time>2010-01-01T04:07:33Z</time>
      </trkpt>
      <trkpt lat="45.10384" lon="5.48261">
        <ele>1021</ele>
        <time>2010-01-01T04:07:38Z</time>
      </trkpt>
      <trkpt lat="45.10387" lon="5.48256">
        <ele>1019</ele>
        <time>2010-01-01T04:07:43Z</time>
      </trkpt>
      <trkpt lat="45.10395" lon="5.48242">
        <ele>1014</ele>
        <time>2010-01-01T04:07:48Z</time>
      </trkpt>
      <trkpt lat="45.10397" lon="5.48241">
        <ele>1013</ele>
        <time>2010-01-01T04:07:52Z</time>
      </trkpt>
      <trkpt lat="45.10405" lon="5.48235">
        <ele>1010</ele>
        <time>2010-01-01T04:07:58Z</time>
      </trkpt>
      <trkpt lat="45.10415" lon="5.4823">
        <ele>1006</ele>
        <time>2010-01-01T04:08:04Z</time>
      </trkpt>
      <trkpt lat="45.10425" lon="5.48223">
        <ele>1002</ele>
        <time>2010-01-01T04:08:09Z</time>
      </trkpt>
      <trkpt lat="45.10427" lon="5.48221">
        <ele>1001</ele>
        <time>2010-01-01T04:08:14Z</time>
      </trkpt>
      <trkpt lat="45.10433" lon="5.48214">
        <ele>998</ele>
        <time>2010-01-01T04:08:18Z</time>
      </trkpt>
      <trkpt lat="45.10437" lon="5.48216">
        <ele>998</ele>
        <time>2010-01-01T04:08:25Z</time>
      </trkpt>
      <trkpt lat="45.10445" lon="5.48212">
        <ele>996</ele>
        <time>2010-01-01T04:08:27Z</time>
      </trkpt>
      <trkpt lat="45.10453" lon="5.48209">
        <ele>994</ele>
        <time>2010-01-01T04:08:29Z</time>
      </trkpt>
      <trkpt lat="45.10456" lon="5.48207">
        <ele>993</ele>
        <time>2010-01-01T04:08:31Z</time>
      </trkpt>
      <trkpt lat="45.10457" lon="5.48205">
        <ele>992</ele>
        <time>2010-01-01T04:08:34Z</time>
      </trkpt>
      <trkpt lat="45.10458" lon="5.48202">
        <ele>992</ele>
        <time>2010-01-01T04:08:40Z</time>
      </trkpt>
      <trkpt lat="45.10465" lon="5.48195">
        <ele>989</ele>
        <time>2010-01-01T04:08:46Z</time>
      </trkpt>
      <trkpt lat="45.10466" lon="5.48193">
        <ele>989</ele>
        <time>2010-01-01T04:08:51Z</time>
      </trkpt>
      <trkpt lat="45.10468" lon="5.48185">
        <ele>986</ele>
        <time>2010-01-01T04:08:55Z</time>
      </trkpt>
      <trkpt lat="45.10471" lon="5.48178">
        <ele>983</ele>
        <time>2010-01-01T04:09:00Z</time>
      </trkpt>
      <trkpt lat="45.10475" lon="5.48169">
        <ele>980</ele>
        <time>2010-01-01T04:09:04Z</time>
      </trkpt>
      <trkpt lat="45.10476" lon="5.48155">
        <ele>974</ele>
        <time>2010-01-01T04:09:08Z</time>
      </trkpt>
      <trkpt lat="45.10477" lon="5.48136">
        <ele>967</ele>
        <time>2010-01-01T04:09:13Z</time>
      </trkpt>
      <trkpt lat="45.10478" lon="5.48132">
        <ele>966</ele>
        <time>2010-01-01T04:09:17Z</time>
      </trkpt>
      <trkpt lat="45.1048" lon="5.48125">
        <ele>964</ele>
        <time>2010-01-01T04:09:20Z</time>
      </trkpt>
      <trkpt lat="45.10481" lon="5.48123">
        <ele>963</ele>
        <time>2010-01-01T04:09:25Z</time>
      </trkpt>
      <trkpt lat="45.10489" lon="5.48111">
        <ele>959</ele>
        <time>2010-01-01T04:09:26Z</time>
      </trkpt>
      <trkpt lat="45.105" lon="5.48105">
        <ele>957</ele>
        <time>2010-01-01T04:09:28Z</time>
      </trkpt>
      <trkpt lat="45.10502" lon="5.48105">
        <ele>957</ele>
        <time>2010-01-01T04:09:30Z</time>
      </trkpt>
      <trkpt lat="45.10504" lon="5.48103">
        <ele>956</ele>
        <time>2010-01-01T04:09:34Z</time>
      </trkpt>
      <trkpt lat="45.10499" lon="5.48102">
        <ele>956</ele>
        <time>2010-01-01T04:09:38Z</time>
      </trkpt>
      <trkpt lat="45.10489" lon="5.481">
        <ele>956</ele>
        <time>2010-01-01T04:09:42Z</time>
      </trkpt>
      <trkpt lat="45.10474" lon="5.48094">
        <ele>954</ele>
        <time>2010-01-01T04:09:47Z</time>
      </trkpt>
      <trkpt lat="45.10466" lon="5.48085">
        <ele>953</ele>
        <time>2010-01-01T04:09:51Z</time>
      </trkpt>
      <trkpt lat="45.10459" lon="5.48075">
        <ele>950</ele>
        <time>2010-01-01T04:09:54Z</time>
      </trkpt>
      <trkpt lat="45.10448" lon="5.48059">
        <ele>947</ele>
        <time>2010-01-01T04:09:58Z</time>
      </trkpt>
      <trkpt lat="45.10439" lon="5.48047">
        <ele>944</ele>
        <time>2010-01-01T04:10:04Z</time>
      </trkpt>
      <trkpt lat="45.10435" lon="5.48043">
        <ele>944</ele>
        <time>2010-01-01T04:10:11Z</time>
      </trkpt>
      <trkpt lat="45.1043" lon="5.48036">
        <ele>942</ele>
        <time>2010-01-01T04:10:16Z</time>
      </trkpt>
      <trkpt lat="45.10419" lon="5.48024">
        <ele>939</ele>
        <time>2010-01-01T04:10:21Z</time>
      </trkpt>
      <trkpt lat="45.10408" lon="5.48014">
        <ele>938</ele>
        <time>2010-01-01T04:10:26Z</time>
      </trkpt>
      <trkpt lat="45.10392" lon="5.48002">
        <ele>936</ele>
        <time>2010-01-01T04:10:29Z</time>
      </trkpt>
      <trkpt lat="45.10381" lon="5.47991">
        <ele>934</ele>
        <time>2010-01-01T04:10:32Z</time>
      </trkpt>
      <trkpt lat="45.10364" lon="5.47979">
        <ele>932</ele>
        <time>2010-01-01T04:10:36Z</time>
      </trkpt>
      <trkpt lat="45.1035" lon="5.47967">
        <ele>929</ele>
        <time>2010-01-01T04:10:40Z</time>
      </trkpt>
      <trkpt lat="45.10338" lon="5.4796">
        <ele>927</ele>
        <time>2010-01-01T04:10:42Z</time>
      </trkpt>
      <trkpt lat="45.10319" lon="5.47952">
        <ele>924</ele>
        <time>2010-01-01T04:10:44Z</time>
      </trkpt>
      <trkpt lat="45.10303" lon="5.47945">
        <ele>922</ele>
        <time>2010-01-01T04:10:46Z</time>
      </trkpt>
      <trkpt lat="45.10284" lon="5.47938">
        <ele>921</ele>
        <time>2010-01-01T04:10:47Z</time>
      </trkpt>
      <trkpt lat="45.10267" lon="5.47931">
        <ele>921</ele>
        <time>2010-01-01T04:10:49Z</time>
      </trkpt>
      <trkpt lat="45.10253" lon="5.47929">
        <ele>924</ele>
        <time>2010-01-01T04:10:51Z</time>
      </trkpt>
      <trkpt lat="45.10247" lon="5.47925">
        <ele>924</ele>
        <time>2010-01-01T04:10:53Z</time>
      </trkpt>
      <trkpt lat="45.10157" lon="5.47908">
        <ele>926</ele>
        <time>2010-01-01T04:10:58Z</time>
      </trkpt>
      <trkpt lat="45.10156" lon="5.47905">
        <ele>924</ele>
        <time>2010-01-01T04:11:01Z</time>
      </trkpt>
      <trkpt lat="45.10156" lon="5.47904">
        <ele>924</ele>
        <time>2010-01-01T04:11:03Z</time>
      </trkpt>
      <trkpt lat="45.10155" lon="5.47903">
        <ele>923</ele>
        <time>2010-01-01T04:11:05Z</time>
      </trkpt>
      <trkpt lat="45.10153" lon="5.479">
        <ele>922</ele>
        <time>2010-01-01T04:11:06Z</time>
      </trkpt>
      <trkpt lat="45.10155" lon="5.47885">
        <ele>915</ele>
        <time>2010-01-01T04:11:07Z</time>
      </trkpt>
      <trkpt lat="45.10171" lon="5.47853">
        <ele>899</ele>
        <time>2010-01-01T04:11:09Z</time>
      </trkpt>
      <trkpt lat="45.1018" lon="5.47846">
        <ele>896</ele>
        <time>2010-01-01T04:11:12Z</time>
      </trkpt>
      <trkpt lat="45.10185" lon="5.47833">
        <ele>891</ele>
        <time>2010-01-01T04:11:13Z</time>
      </trkpt>
      <trkpt lat="45.10194" lon="5.47821">
        <ele>886</ele>
        <time>2010-01-01T04:11:14Z</time>
      </trkpt>
      <trkpt lat="45.10202" lon="5.47809">
        <ele>883</ele>
        <time>2010-01-01T04:11:15Z</time>
      </trkpt>
      <trkpt lat="45.1021" lon="5.47803">
        <ele>881</ele>
        <time>2010-01-01T04:11:17Z</time>
      </trkpt>
      <trkpt lat="45.10218" lon="5.47792">
        <ele>879</ele>
        <time>2010-01-01T04:11:18Z</time>
      </trkpt>
      <trkpt lat="45.1022" lon="5.47792">
        <ele>879</ele>
        <time>2010-01-01T04:11:19Z</time>
      </trkpt>
      <trkpt lat="45.10226" lon="5.47788">
        <ele>878</ele>
        <time>2010-01-01T04:11:20Z</time>
      </trkpt>
      <trkpt lat="45.10229" lon="5.47783">
        <ele>877</ele>
        <time>2010-01-01T04:11:21Z</time>
      </trkpt>
      <trkpt lat="45.10232" lon="5.47777">
        <ele>876</ele>
        <time>2010-01-01T04:11:22Z</time>
      </trkpt>
      <trkpt lat="45.10239" lon="5.47769">
        <ele>873</ele>
        <time>2010-01-01T04:11:23Z</time>
      </trkpt>
      <trkpt lat="45.10241" lon="5.47767">
        <ele>873</ele>
        <time>2010-01-01T04:11:25Z</time>
      </trkpt>
      <trkpt lat="45.10245" lon="5.4776">
        <ele>871</ele>
        <time>2010-01-01T04:11:26Z</time>
      </trkpt>
      <trkpt lat="45.1025" lon="5.47745">
        <ele>868</ele>
        <time>2010-01-01T04:11:32Z</time>
      </trkpt>
      <trkpt lat="45.10253" lon="5.47727">
        <ele>863</ele>
        <time>2010-01-01T04:11:34Z</time>
      </trkpt>
      <trkpt lat="45.10255" lon="5.47708">
        <ele>859</ele>
        <time>2010-01-01T04:11:35Z</time>
      </trkpt>
      <trkpt lat="45.10256" lon="5.47691">
        <ele>854</ele>
        <time>2010-01-01T04:11:37Z</time>
      </trkpt>
      <trkpt lat="45.10259" lon="5.47673">
        <ele>849</ele>
        <time>2010-01-01T04:11:38Z</time>
      </trkpt>
      <trkpt lat="45.10262" lon="5.47659">
        <ele>846</ele>
        <time>2010-01-01T04:11:39Z</time>
      </trkpt>
      <trkpt lat="45.10267" lon="5.4764">
        <ele>843</ele>
        <time>2010-01-01T04:11:40Z</time>
      </trkpt>
      <trkpt lat="45.10272" lon="5.47622">
        <ele>843</ele>
        <time>2010-01-01T04:11:42Z</time>
      </trkpt>
      <trkpt lat="45.10274" lon="5.47604">
        <ele>842</ele>
        <time>2010-01-01T04:11:43Z</time>
      </trkpt>
      <trkpt lat="45.10276" lon="5.47585">
        <ele>841</ele>
        <time>2010-01-01T04:11:45Z</time>
      </trkpt>
      <trkpt lat="45.10277" lon="5.47571">
        <ele>839</ele>
        <time>2010-01-01T04:11:46Z</time>
      </trkpt>
      <trkpt lat="45.10276" lon="5.47548">
        <ele>834</ele>
        <time>2010-01-01T04:11:50Z</time>
      </trkpt>
      <trkpt lat="45.10274" lon="5.47542">
        <ele>832</ele>
        <time>2010-01-01T04:11:55Z</time>
      </trkpt>
      <trkpt lat="45.10271" lon="5.47534">
        <ele>830</ele>
        <time>2010-01-01T04:11:59Z</time>
      </trkpt>
      <trkpt lat="45.10269" lon="5.47529">
        <ele>829</ele>
        <time>2010-01-01T04:12:04Z</time>
      </trkpt>
      <trkpt lat="45.10266" lon="5.4752">
        <ele>827</ele>
        <time>2010-01-01T04:12:06Z</time>
      </trkpt>
      <trkpt lat="45.10259" lon="5.47498">
        <ele>823</ele>
        <time>2010-01-01T04:12:09Z</time>
      </trkpt>
      <trkpt lat="45.10256" lon="5.4748">
        <ele>822</ele>
        <time>2010-01-01T04:12:11Z</time>
      </trkpt>
      <trkpt lat="45.10254" lon="5.47461">
        <ele>822</ele>
        <time>2010-01-01T04:12:13Z</time>
      </trkpt>
      <trkpt lat="45.10253" lon="5.47446">
        <ele>823</ele>
        <time>2010-01-01T04:12:16Z</time>
      </trkpt>
      <trkpt lat="45.10251" lon="5.4743">
        <ele>822</ele>
        <time>2010-01-01T04:12:18Z</time>
      </trkpt>
      <trkpt lat="45.10247" lon="5.47418">
        <ele>821</ele>
        <time>2010-01-01T04:12:21Z</time>
      </trkpt>
      <trkpt lat="45.10243" lon="5.47403">
        <ele>820</ele>
        <time>2010-01-01T04:12:25Z</time>
      </trkpt>
      <trkpt lat="45.10238" lon="5.47387">
        <ele>819</ele>
        <time>2010-01-01T04:12:28Z</time>
      </trkpt>
      <trkpt lat="45.10234" lon="5.47375">
        <ele>818</ele>
        <time>2010-01-01T04:12:32Z</time>
      </trkpt>
      <trkpt lat="45.10232" lon="5.47363">
        <ele>817</ele>
        <time>2010-01-01T04:12:36Z</time>
      </trkpt>
      <trkpt lat="45.10244" lon="5.47357">
        <ele>818</ele>
        <time>2010-01-01T04:12:40Z</time>
      </trkpt>
      <trkpt lat="45.10243" lon="5.47355">
        <ele>817</ele>
        <time>2010-01-01T04:12:44Z</time>
      </trkpt>
      <trkpt lat="45.10248" lon="5.47352">
        <ele>818</ele>
        <time>2010-01-01T04:12:48Z</time>
      </trkpt>
      <trkpt lat="45.10252" lon="5.4735">
        <ele>818</ele>
        <time>2010-01-01T04:12:52Z</time>
      </trkpt>
      <trkpt lat="45.10261" lon="5.47351">
        <ele>817</ele>
        <time>2010-01-01T04:12:56Z</time>
      </trkpt>
      <trkpt lat="45.10271" lon="5.47354">
        <ele>817</ele>
        <time>2010-01-01T04:13:01Z</time>
      </trkpt>
      <trkpt lat="45.10281" lon="5.47357">
        <ele>816</ele>
        <time>2010-01-01T04:13:03Z</time>
      </trkpt>
      <trkpt lat="45.10294" lon="5.47362">
        <ele>815</ele>
        <time>2010-01-01T04:13:07Z</time>
      </trkpt>
      <trkpt lat="45.10303" lon="5.47366">
        <ele>814</ele>
        <time>2010-01-01T04:13:09Z</time>
      </trkpt>
      <trkpt lat="45.1031" lon="5.47368">
        <ele>814</ele>
        <time>2010-01-01T04:13:12Z</time>
      </trkpt>
      <trkpt lat="45.10321" lon="5.47373">
        <ele>814</ele>
        <time>2010-01-01T04:13:14Z</time>
      </trkpt>
      <trkpt lat="45.10334" lon="5.4738">
        <ele>815</ele>
        <time>2010-01-01T04:13:19Z</time>
      </trkpt>
      <trkpt lat="45.1035" lon="5.47388">
        <ele>815</ele>
        <time>2010-01-01T04:13:22Z</time>
      </trkpt>
      <trkpt lat="45.10362" lon="5.47395">
        <ele>815</ele>
        <time>2010-01-01T04:13:27Z</time>
      </trkpt>
      <trkpt lat="45.10373" lon="5.474">
        <ele>816</ele>
        <time>2010-01-01T04:13:30Z</time>
      </trkpt>
      <trkpt lat="45.10385" lon="5.47405">
        <ele>815</ele>
        <time>2010-01-01T04:13:33Z</time>
      </trkpt>
      <trkpt lat="45.10393" lon="5.47408">
        <ele>815</ele>
        <time>2010-01-01T04:13:35Z</time>
      </trkpt>
      <trkpt lat="45.10401" lon="5.47411">
        <ele>816</ele>
        <time>2010-01-01T04:13:37Z</time>
      </trkpt>
      <trkpt lat="45.10411" lon="5.47416">
        <ele>816</ele>
        <time>2010-01-01T04:13:40Z</time>
      </trkpt>
      <trkpt lat="45.10418" lon="5.47421">
        <ele>817</ele>
        <time>2010-01-01T04:13:42Z</time>
      </trkpt>
      <trkpt lat="45.10423" lon="5.47424">
        <ele>817</ele>
        <time>2010-01-01T04:13:46Z</time>
      </trkpt>
      <trkpt lat="45.10424" lon="5.4743">
        <ele>818</ele>
        <time>2010-01-01T04:13:50Z</time>
      </trkpt>
      <trkpt lat="45.10428" lon="5.47436">
        <ele>819</ele>
        <time>2010-01-01T04:13:52Z</time>
      </trkpt>
      <trkpt lat="45.10431" lon="5.47439">
        <ele>819</ele>
        <time>2010-01-01T04:13:55Z</time>
      </trkpt>
      <trkpt lat="45.10435" lon="5.47441">
        <ele>819</ele>
        <time>2010-01-01T04:13:58Z</time>
      </trkpt>
      <trkpt lat="45.1044" lon="5.47441">
        <ele>819</ele>
        <time>2010-01-01T04:14:00Z</time>
      </trkpt>
      <trkpt lat="45.10446" lon="5.47441">
        <ele>819</ele>
        <time>2010-01-01T04:14:03Z</time>
      </trkpt>
      <trkpt lat="45.10457" lon="5.47442">
        <ele>821</ele>
        <time>2010-01-01T04:14:06Z</time>
      </trkpt>
      <trkpt lat="45.10465" lon="5.47443">
        <ele>822</ele>
        <time>2010-01-01T04:14:10Z</time>
      </trkpt>
      <trkpt lat="45.1047" lon="5.47444">
        <ele>822</ele>
        <time>2010-01-01T04:14:13Z</time>
      </trkpt>
      <trkpt lat="45.10475" lon="5.47445">
        <ele>823</ele>
        <time>2010-01-01T04:14:17Z</time>
      </trkpt>
      <trkpt lat="45.10476" lon="5.47445">
        <ele>823</ele>
        <time>2010-01-01T04:14:20Z</time>
      </trkpt>
      <trkpt lat="45.1048" lon="5.47445">
        <ele>824</ele>
        <time>2010-01-01T04:14:23Z</time>
      </trkpt>
      <trkpt lat="45.10484" lon="5.47446">
        <ele>824</ele>
        <time>2010-01-01T04:14:29Z</time>
      </trkpt>
      <trkpt lat="45.10491" lon="5.47446">
        <ele>825</ele>
        <time>2010-01-01T04:14:34Z</time>
      </trkpt>
      <trkpt lat="45.10495" lon="5.47447">
        <ele>826</ele>
        <time>2010-01-01T04:14:36Z</time>
      </trkpt>
      <trkpt lat="45.10496" lon="5.47447">
        <ele>826</ele>
        <time>2010-01-01T04:14:37Z</time>
      </trkpt>
      <trkpt lat="45.105" lon="5.47446">
        <ele>827</ele>
        <time>2010-01-01T04:14:38Z</time>
      </trkpt>
      <trkpt lat="45.10504" lon="5.47445">
        <ele>828</ele>
        <time>2010-01-01T04:14:39Z</time>
      </trkpt>
      <trkpt lat="45.10508" lon="5.47444">
        <ele>829</ele>
        <time>2010-01-01T04:14:40Z</time>
      </trkpt>
      <trkpt lat="45.10509" lon="5.47444">
        <ele>829</ele>
        <time>2010-01-01T04:14:41Z</time>
      </trkpt>
      <trkpt lat="45.10511" lon="5.47441">
        <ele>829</ele>
        <time>2010-01-01T04:14:42Z</time>
      </trkpt>
      <trkpt lat="45.10514" lon="5.47438">
        <ele>830</ele>
        <time>2010-01-01T04:14:43Z</time>
      </trkpt>
      <trkpt lat="45.10514" lon="5.47436">
        <ele>830</ele>
        <time>2010-01-01T04:14:44Z</time>
      </trkpt>
      <trkpt lat="45.10516" lon="5.47434">
        <ele>830</ele>
        <time>2010-01-01T04:14:45Z</time>
      </trkpt>
      <trkpt lat="45.10518" lon="5.47429">
        <ele>831</ele>
        <time>2010-01-01T04:14:47Z</time>
      </trkpt>
      <trkpt lat="45.10519" lon="5.47423">
        <ele>831</ele>
        <time>2010-01-01T04:14:50Z</time>
      </trkpt>
      <trkpt lat="45.10523" lon="5.47404">
        <ele>831</ele>
        <time>2010-01-01T04:14:52Z</time>
      </trkpt>
      <trkpt lat="45.10525" lon="5.47398">
        <ele>831</ele>
        <time>2010-01-01T04:14:54Z</time>
      </trkpt>
      <trkpt lat="45.10527" lon="5.47394">
        <ele>832</ele>
        <time>2010-01-01T04:14:55Z</time>
      </trkpt>
      <trkpt lat="45.1053" lon="5.47391">
        <ele>832</ele>
        <time>2010-01-01T04:14:57Z</time>
      </trkpt>
      <trkpt lat="45.10533" lon="5.47389">
        <ele>832</ele>
        <time>2010-01-01T04:14:58Z</time>
      </trkpt>
      <trkpt lat="45.10536" lon="5.47388">
        <ele>833</ele>
        <time>2010-01-01T04:14:59Z</time>
      </trkpt>
      <trkpt lat="45.10539" lon="5.47388">
        <ele>833</ele>
        <time>2010-01-01T04:15:01Z</time>
      </trkpt>
      <trkpt lat="45.10542" lon="5.47388">
        <ele>833</ele>
        <time>2010-01-01T04:15:02Z</time>
      </trkpt>
      <trkpt lat="45.10545" lon="5.4739">
        <ele>834</ele>
        <time>2010-01-01T04:15:04Z</time>
      </trkpt>
      <trkpt lat="45.10549" lon="5.47391">
        <ele>835</ele>
        <time>2010-01-01T04:15:06Z</time>
      </trkpt>
      <trkpt lat="45.10553" lon="5.47394">
        <ele>835</ele>
        <time>2010-01-01T04:15:08Z</time>
      </trkpt>
      <trkpt lat="45.10561" lon="5.47399">
        <ele>837</ele>
        <time>2010-01-01T04:15:09Z</time>
      </trkpt>
      <trkpt lat="45.10573" lon="5.47407">
        <ele>841</ele>
        <time>2010-01-01T04:15:11Z</time>
      </trkpt>
      <trkpt lat="45.10582" lon="5.47414">
        <ele>843</ele>
        <time>2010-01-01T04:15:13Z</time>
      </trkpt>
      <trkpt lat="45.10592" lon="5.47421">
        <ele>845</ele>
        <time>2010-01-01T04:15:14Z</time>
      </trkpt>
      <trkpt lat="45.10598" lon="5.47425">
        <ele>846</ele>
        <time>2010-01-01T04:15:16Z</time>
      </trkpt>
      <trkpt lat="45.10604" lon="5.47428">
        <ele>848</ele>
        <time>2010-01-01T04:15:17Z</time>
      </trkpt>
      <trkpt lat="45.10609" lon="5.47429">
        <ele>849</ele>
        <time>2010-01-01T04:15:18Z</time>
      </trkpt>
      <trkpt lat="45.10614" lon="5.4743">
        <ele>849</ele>
        <time>2010-01-01T04:15:22Z</time>
      </trkpt>
      <trkpt lat="45.10621" lon="5.47431">
        <ele>850</ele>
        <time>2010-01-01T04:15:25Z</time>
      </trkpt>
      <trkpt lat="45.10627" lon="5.47431">
        <ele>850</ele>
        <time>2010-01-01T04:15:27Z</time>
      </trkpt>
      <trkpt lat="45.10633" lon="5.47431">
        <ele>850</ele>
        <time>2010-01-01T04:15:29Z</time>
      </trkpt>
      <trkpt lat="45.10643" lon="5.47431">
        <ele>851</ele>
        <time>2010-01-01T04:15:34Z</time>
      </trkpt>
      <trkpt lat="45.10652" lon="5.47433">
        <ele>852</ele>
        <time>2010-01-01T04:15:39Z</time>
      </trkpt>
      <trkpt lat="45.10661" lon="5.47433">
        <ele>852</ele>
        <time>2010-01-01T04:15:42Z</time>
      </trkpt>
      <trkpt lat="45.1067" lon="5.47435">
        <ele>852</ele>
        <time>2010-01-01T04:15:45Z</time>
      </trkpt>
      <trkpt lat="45.1068" lon="5.47439">
        <ele>851</ele>
        <time>2010-01-01T04:15:47Z</time>
      </trkpt>
      <trkpt lat="45.10689" lon="5.47444">
        <ele>851</ele>
        <time>2010-01-01T04:15:50Z</time>
      </trkpt>
      <trkpt lat="45.10698" lon="5.47451">
        <ele>851</ele>
        <time>2010-01-01T04:15:52Z</time>
      </trkpt>
      <trkpt lat="45.10708" lon="5.4746">
        <ele>850</ele>
        <time>2010-01-01T04:15:55Z</time>
      </trkpt>
      <trkpt lat="45.10716" lon="5.47467">
        <ele>850</ele>
        <time>2010-01-01T04:15:59Z</time>
      </trkpt>
      <trkpt lat="45.10725" lon="5.47476">
        <ele>850</ele>
        <time>2010-01-01T04:16:01Z</time>
      </trkpt>
      <trkpt lat="45.1073" lon="5.47483">
        <ele>851</ele>
        <time>2010-01-01T04:16:04Z</time>
      </trkpt>
      <trkpt lat="45.10737" lon="5.47491">
        <ele>852</ele>
        <time>2010-01-01T04:16:07Z</time>
      </trkpt>
      <trkpt lat="45.10741" lon="5.47497">
        <ele>853</ele>
        <time>2010-01-01T04:16:09Z</time>
      </trkpt>
      <trkpt lat="45.10745" lon="5.47502">
        <ele>853</ele>
        <time>2010-01-01T04:16:21Z</time>
      </trkpt>
      <trkpt lat="45.1075" lon="5.47508">
        <ele>853</ele>
        <time>2010-01-01T04:16:37Z</time>
      </trkpt>
      <trkpt lat="45.10759" lon="5.47518">
        <ele>853</ele>
        <time>2010-01-01T04:16:49Z</time>
      </trkpt>
      <trkpt lat="45.10765" lon="5.47525">
        <ele>853</ele>
        <time>2010-01-01T04:16:57Z</time>
      </trkpt>
      <trkpt lat="45.10774" lon="5.47537">
        <ele>854</ele>
        <time>2010-01-01T04:17:02Z</time>
      </trkpt>
      <trkpt lat="45.1078" lon="5.47546">
        <ele>855</ele>
        <time>2010-01-01T04:17:06Z</time>
      </trkpt>
      <trkpt lat="45.10784" lon="5.47552">
        <ele>856</ele>
        <time>2010-01-01T04:17:14Z</time>
      </trkpt>
      <trkpt lat="45.10787" lon="5.47558">
        <ele>857</ele>
        <time>2010-01-01T04:17:26Z</time>
      </trkpt>
      <trkpt lat="45.10791" lon="5.47566">
        <ele>858</ele>
        <time>2010-01-01T04:17:37Z</time>
      </trkpt>
      <trkpt lat="45.10795" lon="5.47574">
        <ele>860</ele>
        <time>2010-01-01T04:17:45Z</time>
      </trkpt>
      <trkpt lat="45.10798" lon="5.4758">
        <ele>861</ele>
        <time>2010-01-01T04:17:52Z</time>
      </trkpt>
      <trkpt lat="45.10802" lon="5.47592">
        <ele>863</ele>
        <time>2010-01-01T04:17:59Z</time>
      </trkpt>
      <trkpt lat="45.10806" lon="5.47603">
        <ele>865</ele>
        <time>2010-01-01T04:18:10Z</time>
      </trkpt>
      <trkpt lat="45.1081" lon="5.47611">
        <ele>866</ele>
        <time>2010-01-01T04:18:25Z</time>
      </trkpt>
      <trkpt lat="45.10813" lon="5.47619">
        <ele>867</ele>
        <time>2010-01-01T04:19:06Z</time>
      </trkpt>
      <trkpt lat="45.10818" lon="5.47626">
        <ele>868</ele>
        <time>2010-01-01T04:19:18Z</time>
      </trkpt>
      <trkpt lat="45.10823" lon="5.47632">
        <ele>868</ele>
        <time>2010-01-01T04:19:27Z</time>
      </trkpt>
      <trkpt lat="45.10828" lon="5.47637">
        <ele>868</ele>
        <time>2010-01-01T04:19:35Z</time>
      </trkpt>
      <trkpt lat="45.10835" lon="5.47643">
        <ele>868</ele>
        <time>2010-01-01T04:19:41Z</time>
      </trkpt>
      <trkpt lat="45.10844" lon="5.47649">
        <ele>870</ele>
        <time>2010-01-01T04:19:44Z</time>
      </trkpt>
      <trkpt lat="45.10851" lon="5.47654">
        <ele>871</ele>
        <time>2010-01-01T04:19:46Z</time>
      </trkpt>
      <trkpt lat="45.10861" lon="5.47659">
        <ele>871</ele>
        <time>2010-01-01T04:19:49Z</time>
      </trkpt>
      <trkpt lat="45.10868" lon="5.47662">
        <ele>872</ele>
        <time>2010-01-01T04:19:57Z</time>
      </trkpt>
      <trkpt lat="45.10873" lon="5.47665">
        <ele>873</ele>
        <time>2010-01-01T04:20:06Z</time>
      </trkpt>
      <trkpt lat="45.10888" lon="5.47673">
        <ele>876</ele>
        <time>2010-01-01T04:20:09Z</time>
      </trkpt>
      <trkpt lat="45.109" lon="5.4768">
        <ele>877</ele>
        <time>2010-01-01T04:20:12Z</time>
      </trkpt>
      <trkpt lat="45.10905" lon="5.47683">
        <ele>878</ele>
        <time>2010-01-01T04:20:16Z</time>
      </trkpt>
      <trkpt lat="45.10906" lon="5.47683">
        <ele>878</ele>
        <time>2010-01-01T04:20:20Z</time>
      </trkpt>
      <trkpt lat="45.10908" lon="5.47685">
        <ele>878</ele>
        <time>2010-01-01T04:20:24Z</time>
      </trkpt>
      <trkpt lat="45.1091" lon="5.47687">
        <ele>878</ele>
        <time>2010-01-01T04:20:27Z</time>
      </trkpt>
      <trkpt lat="45.10911" lon="5.4769">
        <ele>879</ele>
        <time>2010-01-01T04:20:32Z</time>
      </trkpt>
      <trkpt lat="45.10912" lon="5.47693">
        <ele>879</ele>
        <time>2010-01-01T04:20:35Z</time>
      </trkpt>
      <trkpt lat="45.10913" lon="5.47697">
        <ele>880</ele>
        <time>2010-01-01T04:20:39Z</time>
      </trkpt>
      <trkpt lat="45.10913" lon="5.47701">
        <ele>880</ele>
        <time>2010-01-01T04:20:42Z</time>
      </trkpt>
      <trkpt lat="45.10911" lon="5.47705">
        <ele>881</ele>
        <time>2010-01-01T04:20:45Z</time>
      </trkpt>
      <trkpt lat="45.1091" lon="5.47706">
        <ele>881</ele>
        <time>2010-01-01T04:20:49Z</time>
      </trkpt>
      <trkpt lat="45.10909" lon="5.47714">
        <ele>882</ele>
        <time>2010-01-01T04:20:51Z</time>
      </trkpt>
      <trkpt lat="45.1091" lon="5.47725">
        <ele>884</ele>
        <time>2010-01-01T04:20:56Z</time>
      </trkpt>
      <trkpt lat="45.10911" lon="5.47733">
        <ele>885</ele>
        <time>2010-01-01T04:21:00Z</time>
      </trkpt>
      <trkpt lat="45.10913" lon="5.47737">
        <ele>885</ele>
        <time>2010-01-01T04:21:07Z</time>
      </trkpt>
      <trkpt lat="45.10916" lon="5.4774">
        <ele>886</ele>
        <time>2010-01-01T04:21:12Z</time>
      </trkpt>
      <trkpt lat="45.1092" lon="5.47741">
        <ele>886</ele>
        <time>2010-01-01T04:21:17Z</time>
      </trkpt>
      <trkpt lat="45.10923" lon="5.47743">
        <ele>887</ele>
        <time>2010-01-01T04:21:30Z</time>
      </trkpt>
      <trkpt lat="45.10925" lon="5.47744">
        <ele>887</ele>
        <time>2010-01-01T04:21:41Z</time>
      </trkpt>
      <trkpt lat="45.10927" lon="5.47748">
        <ele>887</ele>
        <time>2010-01-01T04:21:49Z</time>
      </trkpt>
      <trkpt lat="45.1093" lon="5.47751">
        <ele>888</ele>
        <time>2010-01-01T04:21:55Z</time>
      </trkpt>
      <trkpt lat="45.10935" lon="5.47752">
        <ele>888</ele>
        <time>2010-01-01T04:21:59Z</time>
      </trkpt>
      <trkpt lat="45.10939" lon="5.47751">
        <ele>888</ele>
        <time>2010-01-01T04:22:02Z</time>
      </trkpt>
      <trkpt lat="45.10944" lon="5.47749">
        <ele>887</ele>
        <time>2010-01-01T04:22:03Z</time>
      </trkpt>
      <trkpt lat="45.10948" lon="5.47748">
        <ele>888</ele>
        <time>2010-01-01T04:22:11Z</time>
      </trkpt>
      <trkpt lat="45.10951" lon="5.47745">
        <ele>888</ele>
        <time>2010-01-01T04:22:14Z</time>
      </trkpt>
      <trkpt lat="45.10954" lon="5.4774">
        <ele>888</ele>
        <time>2010-01-01T04:22:16Z</time>
      </trkpt>
      <trkpt lat="45.10956" lon="5.47735">
        <ele>888</ele>
        <time>2010-01-01T04:22:16Z</time>
      </trkpt>
      <trkpt lat="45.10958" lon="5.47728">
        <ele>888</ele>
        <time>2010-01-01T04:22:23Z</time>
      </trkpt>
      <trkpt lat="45.10958" lon="5.47725">
        <ele>888</ele>
        <time>2010-01-01T04:22:29Z</time>
      </trkpt>
      <trkpt lat="45.10961" lon="5.47725">
        <ele>889</ele>
        <time>2010-01-01T04:22:34Z</time>
      </trkpt>
      <trkpt lat="45.10969" lon="5.47725">
        <ele>891</ele>
        <time>2010-01-01T04:22:40Z</time>
      </trkpt>
      <trkpt lat="45.10977" lon="5.47721">
        <ele>892</ele>
        <time>2010-01-01T04:22:46Z</time>
      </trkpt>
      <trkpt lat="45.1098" lon="5.47717">
        <ele>893</ele>
        <time>2010-01-01T04:22:52Z</time>
      </trkpt>
      <trkpt lat="45.10983" lon="5.47712">
        <ele>893</ele>
        <time>2010-01-01T04:22:58Z</time>
      </trkpt>
      <trkpt lat="45.10988" lon="5.47693">
        <ele>894</ele>
        <time>2010-01-01T04:23:04Z</time>
      </trkpt>
      <trkpt lat="45.10994" lon="5.47679">
        <ele>894</ele>
        <time>2010-01-01T04:23:09Z</time>
      </trkpt>
      <trkpt lat="45.10998" lon="5.4767">
        <ele>894</ele>
        <time>2010-01-01T04:23:12Z</time>
      </trkpt>
      <trkpt lat="45.11002" lon="5.47662">
        <ele>894</ele>
        <time>2010-01-01T04:23:19Z</time>
      </trkpt>
      <trkpt lat="45.11006" lon="5.47655">
        <ele>894</ele>
        <time>2010-01-01T04:23:25Z</time>
      </trkpt>
      <trkpt lat="45.11012" lon="5.4765">
        <ele>895</ele>
        <time>2010-01-01T04:23:27Z</time>
      </trkpt>
      <trkpt lat="45.11018" lon="5.47648">
        <ele>897</ele>
        <time>2010-01-01T04:23:30Z</time>
      </trkpt>
      <trkpt lat="45.11025" lon="5.47645">
        <ele>898</ele>
        <time>2010-01-01T04:23:34Z</time>
      </trkpt>
      <trkpt lat="45.11033" lon="5.47645">
        <ele>901</ele>
        <time>2010-01-01T04:23:42Z</time>
      </trkpt>
      <trkpt lat="45.11039" lon="5.47645">
        <ele>903</ele>
        <time>2010-01-01T04:23:56Z</time>
      </trkpt>
      <trkpt lat="45.11046" lon="5.47646">
        <ele>906</ele>
        <time>2010-01-01T04:24:05Z</time>
      </trkpt>
      <trkpt lat="45.11054" lon="5.47649">
        <ele>910</ele>
        <time>2010-01-01T04:24:13Z</time>
      </trkpt>
      <trkpt lat="45.11059" lon="5.47653">
        <ele>912</ele>
        <time>2010-01-01T04:24:21Z</time>
      </trkpt>
      <trkpt lat="45.11082" lon="5.47676">
        <ele>914</ele>
        <time>2010-01-01T04:24:29Z</time>
      </trkpt>
      <trkpt lat="45.11117" lon="5.47706">
        <ele>920</ele>
        <time>2010-01-01T04:24:34Z</time>
      </trkpt>
      <trkpt lat="45.11141" lon="5.47733">
        <ele>926</ele>
        <time>2010-01-01T04:24:38Z</time>
      </trkpt>
      <trkpt lat="45.11149" lon="5.47757">
        <ele>931</ele>
        <time>2010-01-01T04:24:44Z</time>
      </trkpt>
      <trkpt lat="45.11155" lon="5.47775">
        <ele>935</ele>
        <time>2010-01-01T04:24:47Z</time>
      </trkpt>
      <trkpt lat="45.11164" lon="5.4778">
        <ele>936</ele>
        <time>2010-01-01T04:24:49Z</time>
      </trkpt>
      <trkpt lat="45.11182" lon="5.47777">
        <ele>935</ele>
        <time>2010-01-01T04:24:51Z</time>
      </trkpt>
      <trkpt lat="45.11212" lon="5.47773">
        <ele>931</ele>
        <time>2010-01-01T04:24:56Z</time>
      </trkpt>
      <trkpt lat="45.1124" lon="5.47776">
        <ele>933</ele>
        <time>2010-01-01T04:24:59Z</time>
      </trkpt>
      <trkpt lat="45.11259" lon="5.47787">
        <ele>937</ele>
        <time>2010-01-01T04:25:01Z</time>
      </trkpt>
      <trkpt lat="45.11268" lon="5.47808">
        <ele>942</ele>
        <time>2010-01-01T04:25:04Z</time>
      </trkpt>
      <trkpt lat="45.11281" lon="5.47826">
        <ele>944</ele>
        <time>2010-01-01T04:25:05Z</time>
      </trkpt>
      <trkpt lat="45.11304" lon="5.47847">
        <ele>941</ele>
        <time>2010-01-01T04:25:07Z</time>
      </trkpt>
      <trkpt lat="45.11334" lon="5.47877">
        <ele>942</ele>
        <time>2010-01-01T04:25:09Z</time>
      </trkpt>
      <trkpt lat="45.11409" lon="5.47978">
        <ele>949</ele>
        <time>2010-01-01T04:25:11Z</time>
      </trkpt>
      <trkpt lat="45.11433" lon="5.48003">
        <ele>955</ele>
        <time>2010-01-01T04:25:14Z</time>
      </trkpt>
      <trkpt lat="45.1145" lon="5.48021">
        <ele>960</ele>
        <time>2010-01-01T04:25:17Z</time>
      </trkpt>
      <trkpt lat="45.11434" lon="5.48037">
        <ele>963</ele>
        <time>2010-01-01T04:25:22Z</time>
      </trkpt>
      <trkpt lat="45.11446" lon="5.48049">
        <ele>965</ele>
        <time>2010-01-01T04:25:31Z</time>
      </trkpt>
      <trkpt lat="45.11454" lon="5.48054">
        <ele>966</ele>
        <time>2010-01-01T04:25:45Z</time>
      </trkpt>
      <trkpt lat="45.11459" lon="5.48055">
        <ele>966</ele>
        <time>2010-01-01T04:25:55Z</time>
      </trkpt>
      <trkpt lat="45.11467" lon="5.48055">
        <ele>966</ele>
        <time>2010-01-01T04:26:02Z</time>
      </trkpt>
      <trkpt lat="45.11485" lon="5.48062">
        <ele>967</ele>
        <time>2010-01-01T04:26:08Z</time>
      </trkpt>
      <trkpt lat="45.11507" lon="5.48066">
        <ele>968</ele>
        <time>2010-01-01T04:26:12Z</time>
      </trkpt>
      <trkpt lat="45.11515" lon="5.48067">
        <ele>969</ele>
        <time>2010-01-01T04:26:17Z</time>
      </trkpt>
      <trkpt lat="45.11524" lon="5.48068">
        <ele>969</ele>
        <time>2010-01-01T04:26:21Z</time>
      </trkpt>
      <trkpt lat="45.11534" lon="5.48069">
        <ele>970</ele>
        <time>2010-01-01T04:26:24Z</time>
      </trkpt>
      <trkpt lat="45.11543" lon="5.48071">
        <ele>971</ele>
        <time>2010-01-01T04:26:28Z</time>
      </trkpt>
      <trkpt lat="45.11553" lon="5.48074">
        <ele>972</ele>
        <time>2010-01-01T04:26:32Z</time>
      </trkpt>
      <trkpt lat="45.11561" lon="5.48076">
        <ele>973</ele>
        <time>2010-01-01T04:26:37Z</time>
      </trkpt>
      <trkpt lat="45.11572" lon="5.48079">
        <ele>974</ele>
        <time>2010-01-01T04:26:42Z</time>
      </trkpt>
      <trkpt lat="45.11579" lon="5.48081">
        <ele>975</ele>
        <time>2010-01-01T04:26:46Z</time>
      </trkpt>
      <trkpt lat="45.11589" lon="5.48083">
        <ele>975</ele>
        <time>2010-01-01T04:26:49Z</time>
      </trkpt>
      <trkpt lat="45.11596" lon="5.48085">
        <ele>975</ele>
        <time>2010-01-01T04:26:53Z</time>
      </trkpt>
      <trkpt lat="45.11604" lon="5.48088">
        <ele>975</ele>
        <time>2010-01-01T04:26:57Z</time>
      </trkpt>
      <trkpt lat="45.11613" lon="5.4809">
        <ele>975</ele>
        <time>2010-01-01T04:27:02Z</time>
      </trkpt>
      <trkpt lat="45.11619" lon="5.48092">
        <ele>975</ele>
        <time>2010-01-01T04:27:08Z</time>
      </trkpt>
      <trkpt lat="45.11631" lon="5.48097">
        <ele>977</ele>
        <time>2010-01-01T04:27:17Z</time>
      </trkpt>
      <trkpt lat="45.1164" lon="5.481">
        <ele>978</ele>
        <time>2010-01-01T04:27:18Z</time>
      </trkpt>
      <trkpt lat="45.11657" lon="5.48107">
        <ele>983</ele>
        <time>2010-01-01T04:27:21Z</time>
      </trkpt>
      <trkpt lat="45.1167" lon="5.48109">
        <ele>985</ele>
        <time>2010-01-01T04:27:29Z</time>
      </trkpt>
      <trkpt lat="45.11681" lon="5.48108">
        <ele>984</ele>
        <time>2010-01-01T04:27:37Z</time>
      </trkpt>
      <trkpt lat="45.11714" lon="5.48098">
        <ele>982</ele>
        <time>2010-01-01T04:27:43Z</time>
      </trkpt>
      <trkpt lat="45.11741" lon="5.48086">
        <ele>982</ele>
        <time>2010-01-01T04:27:47Z</time>
      </trkpt>
      <trkpt lat="45.11758" lon="5.48077">
        <ele>982</ele>
        <time>2010-01-01T04:27:52Z</time>
      </trkpt>
      <trkpt lat="45.11772" lon="5.48071">
        <ele>982</ele>
        <time>2010-01-01T04:27:59Z</time>
      </trkpt>
      <trkpt lat="45.11783" lon="5.48066">
        <ele>982</ele>
        <time>2010-01-01T04:28:06Z</time>
      </trkpt>
      <trkpt lat="45.11789" lon="5.48064">
        <ele>982</ele>
        <time>2010-01-01T04:28:14Z</time>
      </trkpt>
      <trkpt lat="45.11793" lon="5.48061">
        <ele>982</ele>
        <time>2010-01-01T04:28:18Z</time>
      </trkpt>
      <trkpt lat="45.11807" lon="5.48045">
        <ele>981</ele>
        <time>2010-01-01T04:28:24Z</time>
      </trkpt>
      <trkpt lat="45.11814" lon="5.48039">
        <ele>982</ele>
        <time>2010-01-01T04:28:31Z</time>
      </trkpt>
      <trkpt lat="45.11819" lon="5.48036">
        <ele>982</ele>
        <time>2010-01-01T04:28:35Z</time>
      </trkpt>
      <trkpt lat="45.1182" lon="5.48036">
        <ele>982</ele>
        <time>2010-01-01T04:28:38Z</time>
      </trkpt>
      <trkpt lat="45.11836" lon="5.48038">
        <ele>985</ele>
        <time>2010-01-01T04:28:43Z</time>
      </trkpt>
      <trkpt lat="45.1185" lon="5.48041">
        <ele>988</ele>
        <time>2010-01-01T04:28:48Z</time>
      </trkpt>
      <trkpt lat="45.11862" lon="5.48048">
        <ele>991</ele>
        <time>2010-01-01T04:28:55Z</time>
      </trkpt>
      <trkpt lat="45.11873" lon="5.48063">
        <ele>991</ele>
        <time>2010-01-01T04:28:59Z</time>
      </trkpt>
      <trkpt lat="45.11881" lon="5.48083">
        <ele>991</ele>
        <time>2010-01-01T04:29:03Z</time>
      </trkpt>
      <trkpt lat="45.11886" lon="5.48102">
        <ele>992</ele>
        <time>2010-01-01T04:29:07Z</time>
      </trkpt>
      <trkpt lat="45.11889" lon="5.48122">
        <ele>993</ele>
        <time>2010-01-01T04:29:14Z</time>
      </trkpt>
      <trkpt lat="45.11895" lon="5.48142">
        <ele>994</ele>
        <time>2010-01-01T04:29:22Z</time>
      </trkpt>
      <trkpt lat="45.11902" lon="5.48156">
        <ele>995</ele>
        <time>2010-01-01T04:29:29Z</time>
      </trkpt>
      <trkpt lat="45.11909" lon="5.48164">
        <ele>996</ele>
        <time>2010-01-01T04:29:37Z</time>
      </trkpt>
      <trkpt lat="45.11923" lon="5.48177">
        <ele>998</ele>
        <time>2010-01-01T04:29:42Z</time>
      </trkpt>
      <trkpt lat="45.11937" lon="5.48186">
        <ele>999</ele>
        <time>2010-01-01T04:29:48Z</time>
      </trkpt>
      <trkpt lat="45.11942" lon="5.48187">
        <ele>999</ele>
        <time>2010-01-01T04:29:52Z</time>
      </trkpt>
      <trkpt lat="45.11948" lon="5.48189">
        <ele>999</ele>
        <time>2010-01-01T04:29:57Z</time>
      </trkpt>
      <trkpt lat="45.11958" lon="5.48188">
        <ele>999</ele>
        <time>2010-01-01T04:30:02Z</time>
      </trkpt>
      <trkpt lat="45.11978" lon="5.4818">
        <ele>999</ele>
        <time>2010-01-01T04:30:05Z</time>
      </trkpt>
      <trkpt lat="45.1201" lon="5.48163">
        <ele>999</ele>
        <time>2010-01-01T04:30:09Z</time>
      </trkpt>
      <trkpt lat="45.12032" lon="5.48154">
        <ele>999</ele>
        <time>2010-01-01T04:30:11Z</time>
      </trkpt>
      <trkpt lat="45.12051" lon="5.48142">
        <ele>997</ele>
        <time>2010-01-01T04:30:13Z</time>
      </trkpt>
      <trkpt lat="45.12069" lon="5.48132">
        <ele>996</ele>
        <time>2010-01-01T04:30:15Z</time>
      </trkpt>
      <trkpt lat="45.12087" lon="5.48119">
        <ele>994</ele>
        <time>2010-01-01T04:30:20Z</time>
      </trkpt>
      <trkpt lat="45.12099" lon="5.48112">
        <ele>993</ele>
        <time>2010-01-01T04:30:24Z</time>
      </trkpt>
      <trkpt lat="45.12109" lon="5.48108">
        <ele>994</ele>
        <time>2010-01-01T04:30:27Z</time>
      </trkpt>
      <trkpt lat="45.12122" lon="5.48104">
        <ele>993</ele>
        <time>2010-01-01T04:30:29Z</time>
      </trkpt>
      <trkpt lat="45.12129" lon="5.48104">
        <ele>993</ele>
        <time>2010-01-01T04:30:30Z</time>
      </trkpt>
      <trkpt lat="45.12135" lon="5.48105">
        <ele>993</ele>
        <time>2010-01-01T04:30:34Z</time>
      </trkpt>
      <trkpt lat="45.1214" lon="5.48106">
        <ele>993</ele>
        <time>2010-01-01T04:30:35Z</time>
      </trkpt>
      <trkpt lat="45.12153" lon="5.4811">
        <ele>996</ele>
        <time>2010-01-01T04:30:38Z</time>
      </trkpt>
      <trkpt lat="45.1216" lon="5.48111">
        <ele>997</ele>
        <time>2010-01-01T04:30:44Z</time>
      </trkpt>
      <trkpt lat="45.12165" lon="5.4811">
        <ele>998</ele>
        <time>2010-01-01T04:30:50Z</time>
      </trkpt>
      <trkpt lat="45.1217" lon="5.48106">
        <ele>998</ele>
        <time>2010-01-01T04:31:00Z</time>
      </trkpt>
      <trkpt lat="45.12173" lon="5.48101">
        <ele>998</ele>
        <time>2010-01-01T04:31:10Z</time>
      </trkpt>
      <trkpt lat="45.12177" lon="5.481">
        <ele>999</ele>
        <time>2010-01-01T04:31:16Z</time>
      </trkpt>
      <trkpt lat="45.12181" lon="5.48099">
        <ele>999</ele>
        <time>2010-01-01T04:31:25Z</time>
      </trkpt>
      <trkpt lat="45.12187" lon="5.48096">
        <ele>1000</ele>
        <time>2010-01-01T04:31:34Z</time>
      </trkpt>
      <trkpt lat="45.12193" lon="5.48093">
        <ele>1000</ele>
        <time>2010-01-01T04:31:44Z</time>
      </trkpt>
      <trkpt lat="45.12202" lon="5.48093">
        <ele>1001</ele>
        <time>2010-01-01T04:31:51Z</time>
      </trkpt>
      <trkpt lat="45.12213" lon="5.48094">
        <ele>1003</ele>
        <time>2010-01-01T04:31:56Z</time>
      </trkpt>
      <trkpt lat="45.12235" lon="5.48096">
        <ele>1007</ele>
        <time>2010-01-01T04:32:06Z</time>
      </trkpt>
      <trkpt lat="45.1227" lon="5.48095">
        <ele>1012</ele>
        <time>2010-01-01T04:32:16Z</time>
      </trkpt>
      <trkpt lat="45.12296" lon="5.48099">
        <ele>1014</ele>
        <time>2010-01-01T04:32:22Z</time>
      </trkpt>
      <trkpt lat="45.12314" lon="5.48103">
        <ele>1015</ele>
        <time>2010-01-01T04:32:29Z</time>
      </trkpt>
      <trkpt lat="45.12328" lon="5.48108">
        <ele>1016</ele>
        <time>2010-01-01T04:32:35Z</time>
      </trkpt>
      <trkpt lat="45.12337" lon="5.48112">
        <ele>1017</ele>
        <time>2010-01-01T04:32:39Z</time>
      </trkpt>
      <trkpt lat="45.12348" lon="5.48121">
        <ele>1020</ele>
        <time>2010-01-01T04:32:44Z</time>
      </trkpt>
      <trkpt lat="45.12357" lon="5.48129">
        <ele>1023</ele>
        <time>2010-01-01T04:32:49Z</time>
      </trkpt>
      <trkpt lat="45.12364" lon="5.48134">
        <ele>1025</ele>
        <time>2010-01-01T04:32:53Z</time>
      </trkpt>
      <trkpt lat="45.12372" lon="5.48136">
        <ele>1027</ele>
        <time>2010-01-01T04:32:56Z</time>
      </trkpt>
      <trkpt lat="45.12383" lon="5.48136">
        <ele>1029</ele>
        <time>2010-01-01T04:33:00Z</time>
      </trkpt>
      <trkpt lat="45.12395" lon="5.48136">
        <ele>1031</ele>
        <time>2010-01-01T04:33:03Z</time>
      </trkpt>
      <trkpt lat="45.12407" lon="5.4814">
        <ele>1035</ele>
        <time>2010-01-01T04:33:06Z</time>
      </trkpt>
      <trkpt lat="45.12417" lon="5.48141">
        <ele>1038</ele>
        <time>2010-01-01T04:33:09Z</time>
      </trkpt>
      <trkpt lat="45.12426" lon="5.48141">
        <ele>1039</ele>
        <time>2010-01-01T04:33:13Z</time>
      </trkpt>
      <trkpt lat="45.12435" lon="5.48139">
        <ele>1040</ele>
        <time>2010-01-01T04:33:17Z</time>
      </trkpt>
      <trkpt lat="45.12444" lon="5.48137">
        <ele>1041</ele>
        <time>2010-01-01T04:33:21Z</time>
      </trkpt>
      <trkpt lat="45.12457" lon="5.4814">
        <ele>1044</ele>
        <time>2010-01-01T04:33:27Z</time>
      </trkpt>
      <trkpt lat="45.12471" lon="5.48145">
        <ele>1048</ele>
        <time>2010-01-01T04:33:32Z</time>
      </trkpt>
      <trkpt lat="45.12492" lon="5.48155">
        <ele>1050</ele>
        <time>2010-01-01T04:33:35Z</time>
      </trkpt>
      <trkpt lat="45.12495" lon="5.48156">
        <ele>1050</ele>
        <time>2010-01-01T04:33:37Z</time>
      </trkpt>
      <trkpt lat="45.12503" lon="5.48159">
        <ele>1050</ele>
        <time>2010-01-01T04:33:39Z</time>
      </trkpt>
      <trkpt lat="45.12521" lon="5.48166">
        <ele>1049</ele>
        <time>2010-01-01T04:33:43Z</time>
      </trkpt>
      <trkpt lat="45.12541" lon="5.48175">
        <ele>1051</ele>
        <time>2010-01-01T04:33:46Z</time>
      </trkpt>
      <trkpt lat="45.12555" lon="5.48178">
        <ele>1053</ele>
        <time>2010-01-01T04:33:50Z</time>
      </trkpt>
      <trkpt lat="45.12566" lon="5.48178">
        <ele>1053</ele>
        <time>2010-01-01T04:33:55Z</time>
      </trkpt>
      <trkpt lat="45.12578" lon="5.48178">
        <ele>1054</ele>
        <time>2010-01-01T04:34:00Z</time>
      </trkpt>
      <trkpt lat="45.12596" lon="5.48178">
        <ele>1054</ele>
        <time>2010-01-01T04:34:07Z</time>
      </trkpt>
      <trkpt lat="45.12613" lon="5.48181">
        <ele>1054</ele>
        <time>2010-01-01T04:34:16Z</time>
      </trkpt>
      <trkpt lat="45.12632" lon="5.48184">
        <ele>1054</ele>
        <time>2010-01-01T04:34:22Z</time>
      </trkpt>
      <trkpt lat="45.12642" lon="5.48182">
        <ele>1054</ele>
        <time>2010-01-01T04:34:26Z</time>
      </trkpt>
      <trkpt lat="45.12656" lon="5.48175">
        <ele>1055</ele>
        <time>2010-01-01T04:34:28Z</time>
      </trkpt>
      <trkpt lat="45.12672" lon="5.48164">
        <ele>1057</ele>
        <time>2010-01-01T04:34:30Z</time>
      </trkpt>
      <trkpt lat="45.12682" lon="5.48159">
        <ele>1058</ele>
        <time>2010-01-01T04:34:32Z</time>
      </trkpt>
      <trkpt lat="45.12689" lon="5.48158">
        <ele>1060</ele>
        <time>2010-01-01T04:34:34Z</time>
      </trkpt>
      <trkpt lat="45.12701" lon="5.48167">
        <ele>1064</ele>
        <time>2010-01-01T04:34:38Z</time>
      </trkpt>
      <trkpt lat="45.12713" lon="5.48174">
        <ele>1067</ele>
        <time>2010-01-01T04:34:46Z</time>
      </trkpt>
      <trkpt lat="45.12727" lon="5.48183">
        <ele>1069</ele>
        <time>2010-01-01T04:34:52Z</time>
      </trkpt>
      <trkpt lat="45.12737" lon="5.48193">
        <ele>1070</ele>
        <time>2010-01-01T04:34:58Z</time>
      </trkpt>
      <trkpt lat="45.12744" lon="5.482">
        <ele>1071</ele>
        <time>2010-01-01T04:35:04Z</time>
      </trkpt>
      <trkpt lat="45.12752" lon="5.4821">
        <ele>1072</ele>
        <time>2010-01-01T04:35:09Z</time>
      </trkpt>
      <trkpt lat="45.12765" lon="5.48223">
        <ele>1073</ele>
        <time>2010-01-01T04:35:14Z</time>
      </trkpt>
      <trkpt lat="45.12784" lon="5.48234">
        <ele>1074</ele>
        <time>2010-01-01T04:35:17Z</time>
      </trkpt>
      <trkpt lat="45.12802" lon="5.48243">
        <ele>1075</ele>
        <time>2010-01-01T04:35:19Z</time>
      </trkpt>
      <trkpt lat="45.1282" lon="5.48251">
        <ele>1075</ele>
        <time>2010-01-01T04:35:20Z</time>
      </trkpt>
      <trkpt lat="45.12833" lon="5.48255">
        <ele>1075</ele>
        <time>2010-01-01T04:35:22Z</time>
      </trkpt>
      <trkpt lat="45.12846" lon="5.48258">
        <ele>1076</ele>
        <time>2010-01-01T04:35:27Z</time>
      </trkpt>
      <trkpt lat="45.12858" lon="5.48261">
        <ele>1076</ele>
        <time>2010-01-01T04:35:31Z</time>
      </trkpt>
      <trkpt lat="45.12868" lon="5.48267">
        <ele>1076</ele>
        <time>2010-01-01T04:35:37Z</time>
      </trkpt>
      <trkpt lat="45.12879" lon="5.48274">
        <ele>1076</ele>
        <time>2010-01-01T04:35:41Z</time>
      </trkpt>
      <trkpt lat="45.12887" lon="5.48281">
        <ele>1077</ele>
        <time>2010-01-01T04:35:47Z</time>
      </trkpt>
      <trkpt lat="45.12894" lon="5.48288">
        <ele>1077</ele>
        <time>2010-01-01T04:35:53Z</time>
      </trkpt>
      <trkpt lat="45.12899" lon="5.4829">
        <ele>1077</ele>
        <time>2010-01-01T04:35:55Z</time>
      </trkpt>
      <trkpt lat="45.12904" lon="5.48289">
        <ele>1077</ele>
        <time>2010-01-01T04:35:58Z</time>
      </trkpt>
      <trkpt lat="45.1291" lon="5.48286">
        <ele>1077</ele>
        <time>2010-01-01T04:36:01Z</time>
      </trkpt>
      <trkpt lat="45.12919" lon="5.48278">
        <ele>1077</ele>
        <time>2010-01-01T04:36:04Z</time>
      </trkpt>
      <trkpt lat="45.12927" lon="5.48269">
        <ele>1077</ele>
        <time>2010-01-01T04:36:08Z</time>
      </trkpt>
      <trkpt lat="45.1293" lon="5.48279">
        <ele>1078</ele>
        <time>2010-01-01T04:36:10Z</time>
      </trkpt>
      <trkpt lat="45.12934" lon="5.48282">
        <ele>1078</ele>
        <time>2010-01-01T04:36:12Z</time>
      </trkpt>
      <trkpt lat="45.1293" lon="5.48279">
        <ele>1078</ele>
        <time>2010-01-01T04:36:15Z</time>
      </trkpt>
      <trkpt lat="45.12927" lon="5.48269">
        <ele>1077</ele>
        <time>2010-01-01T04:36:19Z</time>
      </trkpt>
      <trkpt lat="45.12931" lon="5.48267">
        <ele>1077</ele>
        <time>2010-01-01T04:36:26Z</time>
      </trkpt>
      <trkpt lat="45.12938" lon="5.48262">
        <ele>1077</ele>
        <time>2010-01-01T04:36:36Z</time>
      </trkpt>
      <trkpt lat="45.12951" lon="5.48255">
        <ele>1078</ele>
        <time>2010-01-01T04:36:43Z</time>
      </trkpt>
      <trkpt lat="45.12966" lon="5.48247">
        <ele>1079</ele>
        <time>2010-01-01T04:36:51Z</time>
      </trkpt>
      <trkpt lat="45.12988" lon="5.48232">
        <ele>1081</ele>
        <time>2010-01-01T04:37:00Z</time>
      </trkpt>
      <trkpt lat="45.13011" lon="5.48215">
        <ele>1081</ele>
        <time>2010-01-01T04:37:08Z</time>
      </trkpt>
      <trkpt lat="45.13024" lon="5.48206">
        <ele>1080</ele>
        <time>2010-01-01T04:37:16Z</time>
      </trkpt>
      <trkpt lat="45.13041" lon="5.48184">
        <ele>1079</ele>
        <time>2010-01-01T04:37:22Z</time>
      </trkpt>
      <trkpt lat="45.13057" lon="5.48162">
        <ele>1078</ele>
        <time>2010-01-01T04:37:26Z</time>
      </trkpt>
      <trkpt lat="45.13076" lon="5.48143">
        <ele>1077</ele>
        <time>2010-01-01T04:37:34Z</time>
      </trkpt>
      <trkpt lat="45.13091" lon="5.48131">
        <ele>1075</ele>
        <time>2010-01-01T04:37:47Z</time>
      </trkpt>
      <trkpt lat="45.13104" lon="5.48125">
        <ele>1074</ele>
        <time>2010-01-01T04:37:58Z</time>
      </trkpt>
      <trkpt lat="45.13128" lon="5.48114">
        <ele>1072</ele>
        <time>2010-01-01T04:38:09Z</time>
      </trkpt>
      <trkpt lat="45.13152" lon="5.4811">
        <ele>1072</ele>
        <time>2010-01-01T04:38:23Z</time>
      </trkpt>
      <trkpt lat="45.13168" lon="5.4811">
        <ele>1073</ele>
        <time>2010-01-01T04:38:36Z</time>
      </trkpt>
      <trkpt lat="45.13186" lon="5.4811">
        <ele>1074</ele>
        <time>2010-01-01T04:38:47Z</time>
      </trkpt>
      <trkpt lat="45.13201" lon="5.48109">
        <ele>1075</ele>
        <time>2010-01-01T04:38:55Z</time>
      </trkpt>
      <trkpt lat="45.1321" lon="5.48109">
        <ele>1074</ele>
        <time>2010-01-01T04:39:01Z</time>
      </trkpt>
      <trkpt lat="45.13222" lon="5.48111">
        <ele>1073</ele>
        <time>2010-01-01T04:39:06Z</time>
      </trkpt>
      <trkpt lat="45.13234" lon="5.48113">
        <ele>1073</ele>
        <time>2010-01-01T04:39:11Z</time>
      </trkpt>
      <trkpt lat="45.13245" lon="5.48114">
        <ele>1072</ele>
        <time>2010-01-01T04:39:16Z</time>
      </trkpt>
      <trkpt lat="45.13253" lon="5.48114">
        <ele>1071</ele>
        <time>2010-01-01T04:39:20Z</time>
      </trkpt>
      <trkpt lat="45.13262" lon="5.48115">
        <ele>1070</ele>
        <time>2010-01-01T04:39:25Z</time>
      </trkpt>
      <trkpt lat="45.1327" lon="5.48117">
        <ele>1068</ele>
        <time>2010-01-01T04:39:31Z</time>
      </trkpt>
      <trkpt lat="45.13276" lon="5.48122">
        <ele>1068</ele>
        <time>2010-01-01T04:39:38Z</time>
      </trkpt>
      <trkpt lat="45.13282" lon="5.4813">
        <ele>1067</ele>
        <time>2010-01-01T04:39:44Z</time>
      </trkpt>
      <trkpt lat="45.13288" lon="5.48138">
        <ele>1067</ele>
        <time>2010-01-01T04:39:51Z</time>
      </trkpt>
      <trkpt lat="45.13297" lon="5.48146">
        <ele>1066</ele>
        <time>2010-01-01T04:40:00Z</time>
      </trkpt>
      <trkpt lat="45.13307" lon="5.48151">
        <ele>1066</ele>
        <time>2010-01-01T04:40:04Z</time>
      </trkpt>
      <trkpt lat="45.13321" lon="5.48157">
        <ele>1068</ele>
        <time>2010-01-01T04:40:09Z</time>
      </trkpt>
      <trkpt lat="45.13334" lon="5.48159">
        <ele>1070</ele>
        <time>2010-01-01T04:40:15Z</time>
      </trkpt>
      <trkpt lat="45.13341" lon="5.48159">
        <ele>1070</ele>
        <time>2010-01-01T04:40:20Z</time>
      </trkpt>
      <trkpt lat="45.13346" lon="5.48158">
        <ele>1071</ele>
        <time>2010-01-01T04:40:24Z</time>
      </trkpt>
      <trkpt lat="45.13351" lon="5.48155">
        <ele>1070</ele>
        <time>2010-01-01T04:40:28Z</time>
      </trkpt>
      <trkpt lat="45.13358" lon="5.48148">
        <ele>1069</ele>
        <time>2010-01-01T04:40:31Z</time>
      </trkpt>
      <trkpt lat="45.13367" lon="5.48144">
        <ele>1069</ele>
        <time>2010-01-01T04:40:33Z</time>
      </trkpt>
      <trkpt lat="45.13377" lon="5.48143">
        <ele>1069</ele>
        <time>2010-01-01T04:40:40Z</time>
      </trkpt>
      <trkpt lat="45.13388" lon="5.48141">
        <ele>1069</ele>
        <time>2010-01-01T04:40:47Z</time>
      </trkpt>
      <trkpt lat="45.13401" lon="5.48142">
        <ele>1071</ele>
        <time>2010-01-01T04:40:54Z</time>
      </trkpt>
      <trkpt lat="45.13418" lon="5.48148">
        <ele>1074</ele>
        <time>2010-01-01T04:41:02Z</time>
      </trkpt>
      <trkpt lat="45.1344" lon="5.48154">
        <ele>1076</ele>
        <time>2010-01-01T04:41:09Z</time>
      </trkpt>
      <trkpt lat="45.13455" lon="5.48157">
        <ele>1077</ele>
        <time>2010-01-01T04:41:18Z</time>
      </trkpt>
      <trkpt lat="45.13465" lon="5.48156">
        <ele>1077</ele>
        <time>2010-01-01T04:41:28Z</time>
      </trkpt>
      <trkpt lat="45.13468" lon="5.4816">
        <ele>1078</ele>
        <time>2010-01-01T04:41:38Z</time>
      </trkpt>
      <trkpt lat="45.13471" lon="5.48166">
        <ele>1078</ele>
        <time>2010-01-01T04:41:44Z</time>
      </trkpt>
      <trkpt lat="45.13475" lon="5.48169">
        <ele>1079</ele>
        <time>2010-01-01T04:41:49Z</time>
      </trkpt>
      <trkpt lat="45.13481" lon="5.48172">
        <ele>1080</ele>
        <time>2010-01-01T04:41:51Z</time>
      </trkpt>
      <trkpt lat="45.13491" lon="5.48174">
        <ele>1081</ele>
        <time>2010-01-01T04:41:56Z</time>
      </trkpt>
      <trkpt lat="45.13509" lon="5.48177">
        <ele>1082</ele>
        <time>2010-01-01T04:42:04Z</time>
      </trkpt>
      <trkpt lat="45.13526" lon="5.48182">
        <ele>1084</ele>
        <time>2010-01-01T04:42:11Z</time>
      </trkpt>
      <trkpt lat="45.1354" lon="5.48184">
        <ele>1084</ele>
        <time>2010-01-01T04:42:17Z</time>
      </trkpt>
      <trkpt lat="45.13555" lon="5.48185">
        <ele>1083</ele>
        <time>2010-01-01T04:42:21Z</time>
      </trkpt>
      <trkpt lat="45.13566" lon="5.48187">
        <ele>1083</ele>
        <time>2010-01-01T04:42:24Z</time>
      </trkpt>
      <trkpt lat="45.1358" lon="5.4819">
        <ele>1083</ele>
        <time>2010-01-01T04:42:27Z</time>
      </trkpt>
      <trkpt lat="45.13586" lon="5.48193">
        <ele>1083</ele>
        <time>2010-01-01T04:42:31Z</time>
      </trkpt>
      <trkpt lat="45.13591" lon="5.48195">
        <ele>1084</ele>
        <time>2010-01-01T04:42:39Z</time>
      </trkpt>
      <trkpt lat="45.13594" lon="5.48196">
        <ele>1084</ele>
        <time>2010-01-01T04:42:46Z</time>
      </trkpt>
      <trkpt lat="45.136" lon="5.48196">
        <ele>1084</ele>
        <time>2010-01-01T04:42:54Z</time>
      </trkpt>
      <trkpt lat="45.1361" lon="5.482">
        <ele>1084</ele>
        <time>2010-01-01T04:43:02Z</time>
      </trkpt>
      <trkpt lat="45.13621" lon="5.48206">
        <ele>1085</ele>
        <time>2010-01-01T04:43:10Z</time>
      </trkpt>
      <trkpt lat="45.13633" lon="5.48214">
        <ele>1086</ele>
        <time>2010-01-01T04:43:23Z</time>
      </trkpt>
      <trkpt lat="45.13643" lon="5.4822">
        <ele>1087</ele>
        <time>2010-01-01T04:43:36Z</time>
      </trkpt>
      <trkpt lat="45.13657" lon="5.48231">
        <ele>1088</ele>
        <time>2010-01-01T04:43:41Z</time>
      </trkpt>
      <trkpt lat="45.1367" lon="5.48238">
        <ele>1087</ele>
        <time>2010-01-01T04:43:44Z</time>
      </trkpt>
      <trkpt lat="45.13674" lon="5.4824">
        <ele>1087</ele>
        <time>2010-01-01T04:43:48Z</time>
      </trkpt>
      <trkpt lat="45.13682" lon="5.48242">
        <ele>1086</ele>
        <time>2010-01-01T04:43:52Z</time>
      </trkpt>
      <trkpt lat="45.13684" lon="5.48251">
        <ele>1087</ele>
        <time>2010-01-01T04:43:56Z</time>
      </trkpt>
      <trkpt lat="45.13688" lon="5.48262">
        <ele>1087</ele>
        <time>2010-01-01T04:44:00Z</time>
      </trkpt>
      <trkpt lat="45.13695" lon="5.48269">
        <ele>1086</ele>
        <time>2010-01-01T04:44:04Z</time>
      </trkpt>
      <trkpt lat="45.13701" lon="5.48275">
        <ele>1086</ele>
        <time>2010-01-01T04:44:10Z</time>
      </trkpt>
      <trkpt lat="45.13706" lon="5.48276">
        <ele>1086</ele>
        <time>2010-01-01T04:44:22Z</time>
      </trkpt>
      <trkpt lat="45.13712" lon="5.48279">
        <ele>1087</ele>
        <time>2010-01-01T04:44:31Z</time>
      </trkpt>
      <trkpt lat="45.13719" lon="5.4829">
        <ele>1088</ele>
        <time>2010-01-01T04:45:00Z</time>
      </trkpt>
      <trkpt lat="45.13728" lon="5.4831">
        <ele>1089</ele>
        <time>2010-01-01T04:45:12Z</time>
      </trkpt>
      <trkpt lat="45.13741" lon="5.4834">
        <ele>1087</ele>
        <time>2010-01-01T04:45:31Z</time>
      </trkpt>
      <trkpt lat="45.13753" lon="5.4836">
        <ele>1084</ele>
        <time>2010-01-01T04:45:48Z</time>
      </trkpt>
      <trkpt lat="45.13767" lon="5.48379">
        <ele>1086</ele>
        <time>2010-01-01T04:46:03Z</time>
      </trkpt>
      <trkpt lat="45.13786" lon="5.48398">
        <ele>1090</ele>
        <time>2010-01-01T04:46:24Z</time>
      </trkpt>
      <trkpt lat="45.13803" lon="5.48414">
        <ele>1095</ele>
        <time>2010-01-01T04:46:46Z</time>
      </trkpt>
      <trkpt lat="45.1382" lon="5.48428">
        <ele>1097</ele>
        <time>2010-01-01T04:47:13Z</time>
      </trkpt>
      <trkpt lat="45.13832" lon="5.48436">
        <ele>1098</ele>
        <time>2010-01-01T04:47:15Z</time>
      </trkpt>
      <trkpt lat="45.13842" lon="5.4844">
        <ele>1098</ele>
        <time>2010-01-01T04:47:37Z</time>
      </trkpt>
      <trkpt lat="45.13862" lon="5.48445">
        <ele>1101</ele>
        <time>2010-01-01T04:47:47Z</time>
      </trkpt>
      <trkpt lat="45.13895" lon="5.48445">
        <ele>1107</ele>
        <time>2010-01-01T04:48:12Z</time>
      </trkpt>
      <trkpt lat="45.13923" lon="5.48441">
        <ele>1108</ele>
        <time>2010-01-01T04:48:14Z</time>
      </trkpt>
      <trkpt lat="45.13949" lon="5.48438">
        <ele>1110</ele>
        <time>2010-01-01T04:48:15Z</time>
      </trkpt>
      <trkpt lat="45.13984" lon="5.48436">
        <ele>1110</ele>
        <time>2010-01-01T04:48:36Z</time>
      </trkpt>
      <trkpt lat="45.14017" lon="5.4844">
        <ele>1111</ele>
        <time>2010-01-01T04:49:05Z</time>
      </trkpt>
      <trkpt lat="45.14044" lon="5.48445">
        <ele>1113</ele>
        <time>2010-01-01T04:49:22Z</time>
      </trkpt>
      <trkpt lat="45.14064" lon="5.48448">
        <ele>1114</ele>
        <time>2010-01-01T04:49:40Z</time>
      </trkpt>
      <trkpt lat="45.14079" lon="5.4845">
        <ele>1116</ele>
        <time>2010-01-01T04:49:48Z</time>
      </trkpt>
      <trkpt lat="45.14091" lon="5.48455">
        <ele>1116</ele>
        <time>2010-01-01T04:49:53Z</time>
      </trkpt>
      <trkpt lat="45.14102" lon="5.4846">
        <ele>1117</ele>
        <time>2010-01-01T04:50:19Z</time>
      </trkpt>
      <trkpt lat="45.14115" lon="5.48465">
        <ele>1116</ele>
        <time>2010-01-01T04:50:24Z</time>
      </trkpt>
      <trkpt lat="45.14124" lon="5.48468">
        <ele>1116</ele>
        <time>2010-01-01T04:50:34Z</time>
      </trkpt>
      <trkpt lat="45.14137" lon="5.48469">
        <ele>1115</ele>
        <time>2010-01-01T04:50:47Z</time>
      </trkpt>
      <trkpt lat="45.14151" lon="5.4847">
        <ele>1115</ele>
        <time>2010-01-01T04:51:23Z</time>
      </trkpt>
      <trkpt lat="45.14169" lon="5.48478">
        <ele>1115</ele>
        <time>2010-01-01T04:51:48Z</time>
      </trkpt>
      <trkpt lat="45.14181" lon="5.48486">
        <ele>1117</ele>
        <time>2010-01-01T04:51:54Z</time>
      </trkpt>
      <trkpt lat="45.14199" lon="5.48497">
        <ele>1119</ele>
        <time>2010-01-01T04:51:58Z</time>
      </trkpt>
      <trkpt lat="45.14219" lon="5.48511">
        <ele>1121</ele>
        <time>2010-01-01T04:52:11Z</time>
      </trkpt>
      <trkpt lat="45.14229" lon="5.48515">
        <ele>1122</ele>
        <time>2010-01-01T04:52:23Z</time>
      </trkpt>
      <trkpt lat="45.14241" lon="5.48517">
        <ele>1122</ele>
        <time>2010-01-01T04:52:37Z</time>
      </trkpt>
      <trkpt lat="45.14255" lon="5.4852">
        <ele>1121</ele>
        <time>2010-01-01T04:53:05Z</time>
      </trkpt>
      <trkpt lat="45.14266" lon="5.48524">
        <ele>1120</ele>
        <time>2010-01-01T04:53:20Z</time>
      </trkpt>
      <trkpt lat="45.14276" lon="5.48532">
        <ele>1119</ele>
        <time>2010-01-01T04:53:34Z</time>
      </trkpt>
      <trkpt lat="45.14284" lon="5.48542">
        <ele>1121</ele>
        <time>2010-01-01T04:53:51Z</time>
      </trkpt>
      <trkpt lat="45.14288" lon="5.48551">
        <ele>1122</ele>
        <time>2010-01-01T04:54:01Z</time>
      </trkpt>
      <trkpt lat="45.14291" lon="5.48557">
        <ele>1123</ele>
        <time>2010-01-01T04:54:18Z</time>
      </trkpt>
      <trkpt lat="45.14299" lon="5.48579">
        <ele>1128</ele>
        <time>2010-01-01T04:54:32Z</time>
      </trkpt>
      <trkpt lat="45.14309" lon="5.48598">
        <ele>1131</ele>
        <time>2010-01-01T04:55:00Z</time>
      </trkpt>
      <trkpt lat="45.14323" lon="5.48613">
        <ele>1132</ele>
        <time>2010-01-01T04:55:50Z</time>
      </trkpt>
      <trkpt lat="45.14338" lon="5.4863">
        <ele>1132</ele>
        <time>2010-01-01T04:56:02Z</time>
      </trkpt>
      <trkpt lat="45.14352" lon="5.48646">
        <ele>1134</ele>
        <time>2010-01-01T04:56:08Z</time>
      </trkpt>
      <trkpt lat="45.14368" lon="5.48668">
        <ele>1135</ele>
        <time>2010-01-01T04:56:15Z</time>
      </trkpt>
      <trkpt lat="45.14384" lon="5.48694">
        <ele>1133</ele>
        <time>2010-01-01T04:56:25Z</time>
      </trkpt>
      <trkpt lat="45.14399" lon="5.48723">
        <ele>1134</ele>
        <time>2010-01-01T04:57:03Z</time>
      </trkpt>
      <trkpt lat="45.14408" lon="5.48742">
        <ele>1136</ele>
        <time>2010-01-01T04:57:39Z</time>
      </trkpt>
      <trkpt lat="45.14414" lon="5.48757">
        <ele>1139</ele>
        <time>2010-01-01T04:57:52Z</time>
      </trkpt>
      <trkpt lat="45.14418" lon="5.48762">
        <ele>1139</ele>
        <time>2010-01-01T04:58:00Z</time>
      </trkpt>
      <trkpt lat="45.14423" lon="5.48776">
        <ele>1142</ele>
        <time>2010-01-01T04:58:09Z</time>
      </trkpt>
      <trkpt lat="45.14432" lon="5.48803">
        <ele>1146</ele>
        <time>2010-01-01T04:58:10Z</time>
      </trkpt>
      <trkpt lat="45.1444" lon="5.48823">
        <ele>1151</ele>
        <time>2010-01-01T04:58:18Z</time>
      </trkpt>
      <trkpt lat="45.14446" lon="5.48845">
        <ele>1158</ele>
        <time>2010-01-01T04:58:34Z</time>
      </trkpt>
      <trkpt lat="45.1445" lon="5.48857">
        <ele>1164</ele>
        <time>2010-01-01T04:58:44Z</time>
      </trkpt>
      <trkpt lat="45.14454" lon="5.48865">
        <ele>1168</ele>
        <time>2010-01-01T04:59:01Z</time>
      </trkpt>
      <trkpt lat="45.14461" lon="5.48871">
        <ele>1170</ele>
        <time>2010-01-01T04:59:12Z</time>
      </trkpt>
      <trkpt lat="45.14471" lon="5.48872">
        <ele>1170</ele>
        <time>2010-01-01T04:59:20Z</time>
      </trkpt>
      <trkpt lat="45.1449" lon="5.48869">
        <ele>1165</ele>
        <time>2010-01-01T04:59:28Z</time>
      </trkpt>
      <trkpt lat="45.14508" lon="5.4887">
        <ele>1163</ele>
        <time>2010-01-01T04:59:40Z</time>
      </trkpt>
      <trkpt lat="45.14528" lon="5.48876">
        <ele>1163</ele>
        <time>2010-01-01T04:59:47Z</time>
      </trkpt>
      <trkpt lat="45.14547" lon="5.48885">
        <ele>1165</ele>
        <time>2010-01-01T04:59:56Z</time>
      </trkpt>
      <trkpt lat="45.14566" lon="5.48896">
        <ele>1167</ele>
        <time>2010-01-01T05:00:11Z</time>
      </trkpt>
      <trkpt lat="45.14591" lon="5.4892">
        <ele>1171</ele>
        <time>2010-01-01T05:00:32Z</time>
      </trkpt>
      <trkpt lat="45.14616" lon="5.4895">
        <ele>1173</ele>
        <time>2010-01-01T05:00:47Z</time>
      </trkpt>
      <trkpt lat="45.14622" lon="5.48966">
        <ele>1175</ele>
        <time>2010-01-01T05:00:55Z</time>
      </trkpt>
      <trkpt lat="45.14624" lon="5.48976">
        <ele>1176</ele>
        <time>2010-01-01T05:01:04Z</time>
      </trkpt>
      <trkpt lat="45.14627" lon="5.48992">
        <ele>1177</ele>
        <time>2010-01-01T05:01:14Z</time>
      </trkpt>
      <trkpt lat="45.1463" lon="5.49005">
        <ele>1177</ele>
        <time>2010-01-01T05:01:30Z</time>
      </trkpt>
      <trkpt lat="45.14636" lon="5.49015">
        <ele>1177</ele>
        <time>2010-01-01T05:01:36Z</time>
      </trkpt>
      <trkpt lat="45.14643" lon="5.49023">
        <ele>1177</ele>
        <time>2010-01-01T05:01:43Z</time>
      </trkpt>
      <trkpt lat="45.14653" lon="5.49032">
        <ele>1178</ele>
        <time>2010-01-01T05:01:49Z</time>
      </trkpt>
      <trkpt lat="45.14665" lon="5.49045">
        <ele>1179</ele>
        <time>2010-01-01T05:01:56Z</time>
      </trkpt>
      <trkpt lat="45.1469" lon="5.49069">
        <ele>1181</ele>
        <time>2010-01-01T05:02:07Z</time>
      </trkpt>
      <trkpt lat="45.14708" lon="5.49084">
        <ele>1182</ele>
        <time>2010-01-01T05:02:14Z</time>
      </trkpt>
      <trkpt lat="45.14777" lon="5.49121">
        <ele>1186</ele>
        <time>2010-01-01T05:02:19Z</time>
      </trkpt>
      <trkpt lat="45.14804" lon="5.49135">
        <ele>1188</ele>
        <time>2010-01-01T05:02:26Z</time>
      </trkpt>
      <trkpt lat="45.14839" lon="5.49179">
        <ele>1198</ele>
        <time>2010-01-01T05:02:30Z</time>
      </trkpt>
      <trkpt lat="45.14873" lon="5.49219">
        <ele>1206</ele>
        <time>2010-01-01T05:02:37Z</time>
      </trkpt>
      <trkpt lat="45.14895" lon="5.4926">
        <ele>1210</ele>
        <time>2010-01-01T05:02:43Z</time>
      </trkpt>
      <trkpt lat="45.14915" lon="5.49328">
        <ele>1221</ele>
        <time>2010-01-01T05:02:50Z</time>
      </trkpt>
      <trkpt lat="45.14941" lon="5.49398">
        <ele>1235</ele>
        <time>2010-01-01T05:03:02Z</time>
      </trkpt>
      <trkpt lat="45.14984" lon="5.49473">
        <ele>1253</ele>
        <time>2010-01-01T05:03:10Z</time>
      </trkpt>
      <trkpt lat="45.14987" lon="5.49478">
        <ele>1254</ele>
        <time>2010-01-01T05:03:18Z</time>
      </trkpt>
      <trkpt lat="45.15026" lon="5.49532">
        <ele>1265</ele>
        <time>2010-01-01T05:03:25Z</time>
      </trkpt>
      <trkpt lat="45.15044" lon="5.49556">
        <ele>1270</ele>
        <time>2010-01-01T05:03:33Z</time>
      </trkpt>
      <trkpt lat="45.15084" lon="5.49624">
        <ele>1283</ele>
        <time>2010-01-01T05:03:40Z</time>
      </trkpt>
      <trkpt lat="45.15087" lon="5.4963">
        <ele>1285</ele>
        <time>2010-01-01T05:03:45Z</time>
      </trkpt>
      <trkpt lat="45.15089" lon="5.49635">
        <ele>1287</ele>
        <time>2010-01-01T05:03:48Z</time>
      </trkpt>
      <trkpt lat="45.15111" lon="5.49701">
        <ele>1296</ele>
        <time>2010-01-01T05:03:50Z</time>
      </trkpt>
      <trkpt lat="45.15142" lon="5.49793">
        <ele>1315</ele>
        <time>2010-01-01T05:04:13Z</time>
      </trkpt>
      <trkpt lat="45.15162" lon="5.49847">
        <ele>1325</ele>
        <time>2010-01-01T05:04:17Z</time>
      </trkpt>
      <trkpt lat="45.152" lon="5.49883">
        <ele>1328</ele>
        <time>2010-01-01T05:04:25Z</time>
      </trkpt>
      <trkpt lat="45.15215" lon="5.49898">
        <ele>1330</ele>
        <time>2010-01-01T05:04:42Z</time>
      </trkpt>
      <trkpt lat="45.15226" lon="5.49909">
        <ele>1331</ele>
        <time>2010-01-01T05:04:49Z</time>
      </trkpt>
      <trkpt lat="45.15275" lon="5.49971">
        <ele>1346</ele>
        <time>2010-01-01T05:04:55Z</time>
      </trkpt>
      <trkpt lat="45.15281" lon="5.49985">
        <ele>1349</ele>
        <time>2010-01-01T05:04:58Z</time>
      </trkpt>
      <trkpt lat="45.15294" lon="5.50014">
        <ele>1356</ele>
        <time>2010-01-01T05:05:02Z</time>
      </trkpt>
      <trkpt lat="45.15261" lon="5.5002">
        <ele>1372</ele>
        <time>2010-01-01T05:05:05Z</time>
      </trkpt>
      <trkpt lat="45.15328" lon="5.50105">
        <ele>1385</ele>
        <time>2010-01-01T05:05:08Z</time>
      </trkpt>
      <trkpt lat="45.15371" lon="5.50167">
        <ele>1397</ele>
        <time>2010-01-01T05:05:11Z</time>
      </trkpt>
      <trkpt lat="45.15355" lon="5.50171">
        <ele>1406</ele>
        <time>2010-01-01T05:05:15Z</time>
      </trkpt>
      <trkpt lat="45.15356" lon="5.50185">
        <ele>1415</ele>
        <time>2010-01-01T05:05:17Z</time>
      </trkpt>
      <trkpt lat="45.15378" lon="5.50218">
        <ele>1418</ele>
        <time>2010-01-01T05:05:20Z</time>
      </trkpt>
      <trkpt lat="45.15387" lon="5.5026">
        <ele>1419</ele>
        <time>2010-01-01T05:05:23Z</time>
      </trkpt>
      <trkpt lat="45.15412" lon="5.50291">
        <ele>1419</ele>
        <time>2010-01-01T05:05:26Z</time>
      </trkpt>
      <trkpt lat="45.15473" lon="5.5034">
        <ele>1420</ele>
        <time>2010-01-01T05:05:31Z</time>
      </trkpt>
      <trkpt lat="45.15499" lon="5.50378">
        <ele>1419</ele>
        <time>2010-01-01T05:05:34Z</time>
      </trkpt>
      <trkpt lat="45.15511" lon="5.50426">
        <ele>1414</ele>
        <time>2010-01-01T05:05:38Z</time>
      </trkpt>
      <trkpt lat="45.15517" lon="5.50486">
        <ele>1410</ele>
        <time>2010-01-01T05:05:41Z</time>
      </trkpt>
      <trkpt lat="45.15523" lon="5.50522">
        <ele>1405</ele>
        <time>2010-01-01T05:05:43Z</time>
      </trkpt>
      <trkpt lat="45.15551" lon="5.50567">
        <ele>1399</ele>
        <time>2010-01-01T05:05:45Z</time>
      </trkpt>
      <trkpt lat="45.15575" lon="5.50599">
        <ele>1392</ele>
        <time>2010-01-01T05:05:46Z</time>
      </trkpt>
      <trkpt lat="45.15627" lon="5.50665">
        <ele>1384</ele>
        <time>2010-01-01T05:05:48Z</time>
      </trkpt>
      <trkpt lat="45.15726" lon="5.50776">
        <ele>1385</ele>
        <time>2010-01-01T05:05:52Z</time>
      </trkpt>
      <trkpt lat="45.15752" lon="5.50795">
        <ele>1383</ele>
        <time>2010-01-01T05:05:55Z</time>
      </trkpt>
      <trkpt lat="45.15736" lon="5.50802">
        <ele>1379</ele>
        <time>2010-01-01T05:05:59Z</time>
      </trkpt>
      <trkpt lat="45.15752" lon="5.50795">
        <ele>1383</ele>
        <time>2010-01-01T05:06:03Z</time>
      </trkpt>
      <trkpt lat="45.15773" lon="5.50811">
        <ele>1380</ele>
        <time>2010-01-01T05:06:06Z</time>
      </trkpt>
      <trkpt lat="45.15862" lon="5.50865">
        <ele>1375</ele>
        <time>2010-01-01T05:06:08Z</time>
      </trkpt>
      <trkpt lat="45.15936" lon="5.50935">
        <ele>1355</ele>
        <time>2010-01-01T05:06:10Z</time>
      </trkpt>
      <trkpt lat="45.15953" lon="5.50974">
        <ele>1350</ele>
        <time>2010-01-01T05:06:17Z</time>
      </trkpt>
      <trkpt lat="45.1596" lon="5.51002">
        <ele>1345</ele>
        <time>2010-01-01T05:06:38Z</time>
      </trkpt>
      <trkpt lat="45.15967" lon="5.51031">
        <ele>1339</ele>
        <time>2010-01-01T05:06:51Z</time>
      </trkpt>
      <trkpt lat="45.15969" lon="5.51034">
        <ele>1338</ele>
        <time>2010-01-01T05:06:54Z</time>
      </trkpt>
      <trkpt lat="45.15983" lon="5.51051">
        <ele>1337</ele>
        <time>2010-01-01T05:06:58Z</time>
      </trkpt>
      <trkpt lat="45.1602" lon="5.51077">
        <ele>1339</ele>
        <time>2010-01-01T05:07:01Z</time>
      </trkpt>
      <trkpt lat="45.16042" lon="5.51093">
        <ele>1338</ele>
        <time>2010-01-01T05:07:04Z</time>
      </trkpt>
      <trkpt lat="45.16083" lon="5.51113">
        <ele>1335</ele>
        <time>2010-01-01T05:07:08Z</time>
      </trkpt>
      <trkpt lat="45.16103" lon="5.51136">
        <ele>1328</ele>
        <time>2010-01-01T05:07:11Z</time>
      </trkpt>
      <trkpt lat="45.16113" lon="5.5116">
        <ele>1323</ele>
        <time>2010-01-01T05:07:14Z</time>
      </trkpt>
      <trkpt lat="45.16113" lon="5.5119">
        <ele>1316</ele>
        <time>2010-01-01T05:07:18Z</time>
      </trkpt>
      <trkpt lat="45.16117" lon="5.51232">
        <ele>1306</ele>
        <time>2010-01-01T05:07:21Z</time>
      </trkpt>
      <trkpt lat="45.16122" lon="5.51256">
        <ele>1300</ele>
        <time>2010-01-01T05:07:24Z</time>
      </trkpt>
      <trkpt lat="45.1614" lon="5.51275">
        <ele>1297</ele>
        <time>2010-01-01T05:07:27Z</time>
      </trkpt>
      <trkpt lat="45.16176" lon="5.51293">
        <ele>1293</ele>
        <time>2010-01-01T05:07:30Z</time>
      </trkpt>
      <trkpt lat="45.16226" lon="5.51316">
        <ele>1294</ele>
        <time>2010-01-01T05:07:32Z</time>
      </trkpt>
      <trkpt lat="45.16262" lon="5.51332">
        <ele>1293</ele>
        <time>2010-01-01T05:07:33Z</time>
      </trkpt>
      <trkpt lat="45.16275" lon="5.51352">
        <ele>1288</ele>
        <time>2010-01-01T05:07:37Z</time>
      </trkpt>
      <trkpt lat="45.16287" lon="5.51377">
        <ele>1283</ele>
        <time>2010-01-01T05:07:40Z</time>
      </trkpt>
      <trkpt lat="45.16293" lon="5.51411">
        <ele>1276</ele>
        <time>2010-01-01T05:07:41Z</time>
      </trkpt>
      <trkpt lat="45.16297" lon="5.51468">
        <ele>1268</ele>
        <time>2010-01-01T05:07:44Z</time>
      </trkpt>
      <trkpt lat="45.16298" lon="5.51489">
        <ele>1262</ele>
        <time>2010-01-01T05:07:47Z</time>
      </trkpt>
      <trkpt lat="45.1631" lon="5.5151">
        <ele>1260</ele>
        <time>2010-01-01T05:07:51Z</time>
      </trkpt>
      <trkpt lat="45.16321" lon="5.51525">
        <ele>1258</ele>
        <time>2010-01-01T05:07:56Z</time>
      </trkpt>
      <trkpt lat="45.16335" lon="5.51539">
        <ele>1256</ele>
        <time>2010-01-01T05:07:59Z</time>
      </trkpt>
      <trkpt lat="45.16359" lon="5.51557">
        <ele>1252</ele>
        <time>2010-01-01T05:08:01Z</time>
      </trkpt>
      <trkpt lat="45.16374" lon="5.51569">
        <ele>1249</ele>
        <time>2010-01-01T05:08:07Z</time>
      </trkpt>
      <trkpt lat="45.16385" lon="5.51578">
        <ele>1247</ele>
        <time>2010-01-01T05:08:11Z</time>
      </trkpt>
      <trkpt lat="45.16398" lon="5.51594">
        <ele>1242</ele>
        <time>2010-01-01T05:08:14Z</time>
      </trkpt>
      <trkpt lat="45.16405" lon="5.51603">
        <ele>1238</ele>
        <time>2010-01-01T05:08:16Z</time>
      </trkpt>
      <trkpt lat="45.16415" lon="5.51624">
        <ele>1231</ele>
        <time>2010-01-01T05:08:19Z</time>
      </trkpt>
      <trkpt lat="45.1642" lon="5.51645">
        <ele>1224</ele>
        <time>2010-01-01T05:08:21Z</time>
      </trkpt>
      <trkpt lat="45.16424" lon="5.5167">
        <ele>1218</ele>
        <time>2010-01-01T05:08:23Z</time>
      </trkpt>
      <trkpt lat="45.16427" lon="5.5171">
        <ele>1204</ele>
        <time>2010-01-01T05:08:32Z</time>
      </trkpt>
      <trkpt lat="45.16433" lon="5.51738">
        <ele>1199</ele>
        <time>2010-01-01T05:09:05Z</time>
      </trkpt>
      <trkpt lat="45.16451" lon="5.51752">
        <ele>1200</ele>
        <time>2010-01-01T05:09:19Z</time>
      </trkpt>
      <trkpt lat="45.16467" lon="5.51758">
        <ele>1201</ele>
        <time>2010-01-01T05:09:25Z</time>
      </trkpt>
      <trkpt lat="45.16487" lon="5.51762">
        <ele>1202</ele>
        <time>2010-01-01T05:09:29Z</time>
      </trkpt>
      <trkpt lat="45.16505" lon="5.51764">
        <ele>1202</ele>
        <time>2010-01-01T05:09:34Z</time>
      </trkpt>
      <trkpt lat="45.16516" lon="5.51768">
        <ele>1202</ele>
        <time>2010-01-01T05:09:40Z</time>
      </trkpt>
      <trkpt lat="45.16522" lon="5.51775">
        <ele>1200</ele>
        <time>2010-01-01T05:09:43Z</time>
      </trkpt>
      <trkpt lat="45.16524" lon="5.51783">
        <ele>1199</ele>
        <time>2010-01-01T05:09:44Z</time>
      </trkpt>
      <trkpt lat="45.16504" lon="5.51859">
        <ele>1177</ele>
        <time>2010-01-01T05:09:47Z</time>
      </trkpt>
      <trkpt lat="45.16509" lon="5.51871">
        <ele>1174</ele>
        <time>2010-01-01T05:09:50Z</time>
      </trkpt>
      <trkpt lat="45.16522" lon="5.51894">
        <ele>1169</ele>
        <time>2010-01-01T05:09:54Z</time>
      </trkpt>
      <trkpt lat="45.16547" lon="5.5194">
        <ele>1152</ele>
        <time>2010-01-01T05:09:57Z</time>
      </trkpt>
      <trkpt lat="45.16558" lon="5.5196">
        <ele>1147</ele>
        <time>2010-01-01T05:10:02Z</time>
      </trkpt>
      <trkpt lat="45.16569" lon="5.51975">
        <ele>1144</ele>
        <time>2010-01-01T05:10:05Z</time>
      </trkpt>
      <trkpt lat="45.16573" lon="5.51982">
        <ele>1143</ele>
        <time>2010-01-01T05:10:10Z</time>
      </trkpt>
      <trkpt lat="45.16581" lon="5.5199">
        <ele>1141</ele>
        <time>2010-01-01T05:10:13Z</time>
      </trkpt>
      <trkpt lat="45.16588" lon="5.51995">
        <ele>1141</ele>
        <time>2010-01-01T05:10:17Z</time>
      </trkpt>
      <trkpt lat="45.16594" lon="5.52002">
        <ele>1139</ele>
        <time>2010-01-01T05:10:18Z</time>
      </trkpt>
      <trkpt lat="45.16602" lon="5.52008">
        <ele>1138</ele>
        <time>2010-01-01T05:10:23Z</time>
      </trkpt>
      <trkpt lat="45.16609" lon="5.52015">
        <ele>1137</ele>
        <time>2010-01-01T05:10:27Z</time>
      </trkpt>
      <trkpt lat="45.16614" lon="5.5202">
        <ele>1136</ele>
        <time>2010-01-01T05:10:30Z</time>
      </trkpt>
      <trkpt lat="45.1662" lon="5.52024">
        <ele>1135</ele>
        <time>2010-01-01T05:10:32Z</time>
      </trkpt>
      <trkpt lat="45.16627" lon="5.52029">
        <ele>1133</ele>
        <time>2010-01-01T05:10:35Z</time>
      </trkpt>
      <trkpt lat="45.16634" lon="5.52035">
        <ele>1132</ele>
        <time>2010-01-01T05:10:37Z</time>
      </trkpt>
      <trkpt lat="45.16644" lon="5.52042">
        <ele>1130</ele>
        <time>2010-01-01T05:10:39Z</time>
      </trkpt>
      <trkpt lat="45.16652" lon="5.52047">
        <ele>1128</ele>
        <time>2010-01-01T05:10:42Z</time>
      </trkpt>
      <trkpt lat="45.1666" lon="5.52052">
        <ele>1127</ele>
        <time>2010-01-01T05:10:47Z</time>
      </trkpt>
      <trkpt lat="45.16667" lon="5.52055">
        <ele>1126</ele>
        <time>2010-01-01T05:10:53Z</time>
      </trkpt>
      <trkpt lat="45.16673" lon="5.52059">
        <ele>1125</ele>
        <time>2010-01-01T05:10:58Z</time>
      </trkpt>
      <trkpt lat="45.16676" lon="5.52064">
        <ele>1123</ele>
        <time>2010-01-01T05:11:02Z</time>
      </trkpt>
      <trkpt lat="45.16678" lon="5.52067">
        <ele>1122</ele>
        <time>2010-01-01T05:11:06Z</time>
      </trkpt>
      <trkpt lat="45.16681" lon="5.52072">
        <ele>1121</ele>
        <time>2010-01-01T05:11:09Z</time>
      </trkpt>
      <trkpt lat="45.16689" lon="5.5208">
        <ele>1118</ele>
        <time>2010-01-01T05:11:13Z</time>
      </trkpt>
      <trkpt lat="45.16695" lon="5.52087">
        <ele>1117</ele>
        <time>2010-01-01T05:11:17Z</time>
      </trkpt>
      <trkpt lat="45.16703" lon="5.52095">
        <ele>1116</ele>
        <time>2010-01-01T05:11:21Z</time>
      </trkpt>
      <trkpt lat="45.1671" lon="5.52102">
        <ele>1115</ele>
        <time>2010-01-01T05:11:25Z</time>
      </trkpt>
      <trkpt lat="45.16717" lon="5.52107">
        <ele>1114</ele>
        <time>2010-01-01T05:11:27Z</time>
      </trkpt>
      <trkpt lat="45.16721" lon="5.5211">
        <ele>1113</ele>
        <time>2010-01-01T05:11:29Z</time>
      </trkpt>
      <trkpt lat="45.16726" lon="5.52113">
        <ele>1113</ele>
        <time>2010-01-01T05:11:33Z</time>
      </trkpt>
      <trkpt lat="45.16741" lon="5.52125">
        <ele>1112</ele>
        <time>2010-01-01T05:11:35Z</time>
      </trkpt>
      <trkpt lat="45.16784" lon="5.52171">
        <ele>1103</ele>
        <time>2010-01-01T05:11:38Z</time>
      </trkpt>
      <trkpt lat="45.16803" lon="5.52208">
        <ele>1096</ele>
        <time>2010-01-01T05:11:41Z</time>
      </trkpt>
      <trkpt lat="45.16802" lon="5.52218">
        <ele>1094</ele>
        <time>2010-01-01T05:11:49Z</time>
      </trkpt>
      <trkpt lat="45.16801" lon="5.52232">
        <ele>1091</ele>
        <time>2010-01-01T05:11:56Z</time>
      </trkpt>
      <trkpt lat="45.16801" lon="5.52243">
        <ele>1088</ele>
        <time>2010-01-01T05:11:59Z</time>
      </trkpt>
      <trkpt lat="45.16802" lon="5.52255">
        <ele>1086</ele>
        <time>2010-01-01T05:12:04Z</time>
      </trkpt>
      <trkpt lat="45.16803" lon="5.52266">
        <ele>1083</ele>
        <time>2010-01-01T05:12:09Z</time>
      </trkpt>
      <trkpt lat="45.16804" lon="5.52277">
        <ele>1080</ele>
        <time>2010-01-01T05:12:13Z</time>
      </trkpt>
      <trkpt lat="45.16806" lon="5.52289">
        <ele>1077</ele>
        <time>2010-01-01T05:12:18Z</time>
      </trkpt>
      <trkpt lat="45.16808" lon="5.52301">
        <ele>1074</ele>
        <time>2010-01-01T05:12:22Z</time>
      </trkpt>
      <trkpt lat="45.16809" lon="5.52313">
        <ele>1072</ele>
        <time>2010-01-01T05:12:26Z</time>
      </trkpt>
      <trkpt lat="45.16811" lon="5.52322">
        <ele>1070</ele>
        <time>2010-01-01T05:12:29Z</time>
      </trkpt>
      <trkpt lat="45.16814" lon="5.52331">
        <ele>1068</ele>
        <time>2010-01-01T05:12:32Z</time>
      </trkpt>
      <trkpt lat="45.16817" lon="5.52341">
        <ele>1066</ele>
        <time>2010-01-01T05:12:36Z</time>
      </trkpt>
      <trkpt lat="45.16819" lon="5.52348">
        <ele>1064</ele>
        <time>2010-01-01T05:12:38Z</time>
      </trkpt>
      <trkpt lat="45.16821" lon="5.52352">
        <ele>1064</ele>
        <time>2010-01-01T05:12:41Z</time>
      </trkpt>
      <trkpt lat="45.16828" lon="5.52362">
        <ele>1062</ele>
        <time>2010-01-01T05:12:44Z</time>
      </trkpt>
      <trkpt lat="45.16834" lon="5.5237">
        <ele>1062</ele>
        <time>2010-01-01T05:12:47Z</time>
      </trkpt>
      <trkpt lat="45.16836" lon="5.52372">
        <ele>1062</ele>
        <time>2010-01-01T05:12:50Z</time>
      </trkpt>
      <trkpt lat="45.16841" lon="5.52376">
        <ele>1061</ele>
        <time>2010-01-01T05:12:53Z</time>
      </trkpt>
      <trkpt lat="45.16847" lon="5.52382">
        <ele>1061</ele>
        <time>2010-01-01T05:12:56Z</time>
      </trkpt>
      <trkpt lat="45.16857" lon="5.52382">
        <ele>1062</ele>
        <time>2010-01-01T05:13:00Z</time>
      </trkpt>
      <trkpt lat="45.1687" lon="5.52382">
        <ele>1063</ele>
        <time>2010-01-01T05:13:04Z</time>
      </trkpt>
      <trkpt lat="45.16878" lon="5.52382">
        <ele>1064</ele>
        <time>2010-01-01T05:13:07Z</time>
      </trkpt>
      <trkpt lat="45.16884" lon="5.52382">
        <ele>1065</ele>
        <time>2010-01-01T05:13:11Z</time>
      </trkpt>
      <trkpt lat="45.16898" lon="5.52384">
        <ele>1065</ele>
        <time>2010-01-01T05:13:15Z</time>
      </trkpt>
      <trkpt lat="45.16908" lon="5.52387">
        <ele>1065</ele>
        <time>2010-01-01T05:13:19Z</time>
      </trkpt>
      <trkpt lat="45.16914" lon="5.52389">
        <ele>1064</ele>
        <time>2010-01-01T05:13:22Z</time>
      </trkpt>
      <trkpt lat="45.16921" lon="5.52391">
        <ele>1065</ele>
        <time>2010-01-01T05:13:24Z</time>
      </trkpt>
      <trkpt lat="45.16928" lon="5.52391">
        <ele>1068</ele>
        <time>2010-01-01T05:13:27Z</time>
      </trkpt>
      <trkpt lat="45.16933" lon="5.52392">
        <ele>1070</ele>
        <time>2010-01-01T05:13:28Z</time>
      </trkpt>
      <trkpt lat="45.16937" lon="5.52392">
        <ele>1071</ele>
        <time>2010-01-01T05:13:31Z</time>
      </trkpt>
      <trkpt lat="45.16959" lon="5.52392">
        <ele>1078</ele>
        <time>2010-01-01T05:13:36Z</time>
      </trkpt>
      <trkpt lat="45.17041" lon="5.52404">
        <ele>1087</ele>
        <time>2010-01-01T05:13:40Z</time>
      </trkpt>
      <trkpt lat="45.17074" lon="5.52386">
        <ele>1091</ele>
        <time>2010-01-01T05:13:44Z</time>
      </trkpt>
      <trkpt lat="45.1709" lon="5.52383">
        <ele>1093</ele>
        <time>2010-01-01T05:13:47Z</time>
      </trkpt>
      <trkpt lat="45.17098" lon="5.52388">
        <ele>1093</ele>
        <time>2010-01-01T05:13:49Z</time>
      </trkpt>
      <trkpt lat="45.17105" lon="5.52404">
        <ele>1091</ele>
        <time>2010-01-01T05:13:52Z</time>
      </trkpt>
      <trkpt lat="45.17108" lon="5.52425">
        <ele>1087</ele>
        <time>2010-01-01T05:13:55Z</time>
      </trkpt>
      <trkpt lat="45.17112" lon="5.52432">
        <ele>1086</ele>
        <time>2010-01-01T05:13:58Z</time>
      </trkpt>
      <trkpt lat="45.17115" lon="5.52436">
        <ele>1086</ele>
        <time>2010-01-01T05:14:02Z</time>
      </trkpt>
      <trkpt lat="45.17121" lon="5.5244">
        <ele>1086</ele>
        <time>2010-01-01T05:14:06Z</time>
      </trkpt>
      <trkpt lat="45.17129" lon="5.52443">
        <ele>1087</ele>
        <time>2010-01-01T05:14:09Z</time>
      </trkpt>
      <trkpt lat="45.17137" lon="5.52446">
        <ele>1088</ele>
        <time>2010-01-01T05:14:13Z</time>
      </trkpt>
      <trkpt lat="45.17146" lon="5.52449">
        <ele>1089</ele>
        <time>2010-01-01T05:14:16Z</time>
      </trkpt>
      <trkpt lat="45.17156" lon="5.52453">
        <ele>1090</ele>
        <time>2010-01-01T05:14:19Z</time>
      </trkpt>
      <trkpt lat="45.17165" lon="5.52457">
        <ele>1090</ele>
        <time>2010-01-01T05:14:22Z</time>
      </trkpt>
      <trkpt lat="45.17177" lon="5.52462">
        <ele>1091</ele>
        <time>2010-01-01T05:14:24Z</time>
      </trkpt>
      <trkpt lat="45.17184" lon="5.52464">
        <ele>1091</ele>
        <time>2010-01-01T05:14:26Z</time>
      </trkpt>
      <trkpt lat="45.17194" lon="5.52467">
        <ele>1091</ele>
        <time>2010-01-01T05:14:29Z</time>
      </trkpt>
      <trkpt lat="45.17195" lon="5.52468">
        <ele>1091</ele>
        <time>2010-01-01T05:14:32Z</time>
      </trkpt>
      <trkpt lat="45.17208" lon="5.52474">
        <ele>1090</ele>
        <time>2010-01-01T05:14:35Z</time>
      </trkpt>
      <trkpt lat="45.17217" lon="5.52476">
        <ele>1089</ele>
        <time>2010-01-01T05:14:37Z</time>
      </trkpt>
      <trkpt lat="45.17223" lon="5.52481">
        <ele>1088</ele>
        <time>2010-01-01T05:14:40Z</time>
      </trkpt>
      <trkpt lat="45.17229" lon="5.52485">
        <ele>1086</ele>
        <time>2010-01-01T05:14:44Z</time>
      </trkpt>
      <trkpt lat="45.17233" lon="5.52491">
        <ele>1084</ele>
        <time>2010-01-01T05:14:46Z</time>
      </trkpt>
      <trkpt lat="45.17237" lon="5.52496">
        <ele>1083</ele>
        <time>2010-01-01T05:14:49Z</time>
      </trkpt>
      <trkpt lat="45.17242" lon="5.52499">
        <ele>1082</ele>
        <time>2010-01-01T05:14:50Z</time>
      </trkpt>
      <trkpt lat="45.17249" lon="5.525">
        <ele>1081</ele>
        <time>2010-01-01T05:14:53Z</time>
      </trkpt>
      <trkpt lat="45.17262" lon="5.52505">
        <ele>1079</ele>
        <time>2010-01-01T05:14:56Z</time>
      </trkpt>
      <trkpt lat="45.17276" lon="5.52507">
        <ele>1077</ele>
        <time>2010-01-01T05:14:58Z</time>
      </trkpt>
      <trkpt lat="45.17288" lon="5.52508">
        <ele>1075</ele>
        <time>2010-01-01T05:15:01Z</time>
      </trkpt>
      <trkpt lat="45.17298" lon="5.52509">
        <ele>1072</ele>
        <time>2010-01-01T05:15:03Z</time>
      </trkpt>
      <trkpt lat="45.17308" lon="5.52508">
        <ele>1070</ele>
        <time>2010-01-01T05:15:06Z</time>
      </trkpt>
      <trkpt lat="45.17317" lon="5.52508">
        <ele>1068</ele>
        <time>2010-01-01T05:15:08Z</time>
      </trkpt>
      <trkpt lat="45.17326" lon="5.52508">
        <ele>1067</ele>
        <time>2010-01-01T05:15:12Z</time>
      </trkpt>
      <trkpt lat="45.17336" lon="5.52508">
        <ele>1065</ele>
        <time>2010-01-01T05:15:15Z</time>
      </trkpt>
      <trkpt lat="45.17346" lon="5.52509">
        <ele>1064</ele>
        <time>2010-01-01T05:15:20Z</time>
      </trkpt>
      <trkpt lat="45.17356" lon="5.52512">
        <ele>1061</ele>
        <time>2010-01-01T05:15:23Z</time>
      </trkpt>
      <trkpt lat="45.1736" lon="5.52513">
        <ele>1061</ele>
        <time>2010-01-01T05:15:26Z</time>
      </trkpt>
      <trkpt lat="45.17365" lon="5.52514">
        <ele>1060</ele>
        <time>2010-01-01T05:15:30Z</time>
      </trkpt>
      <trkpt lat="45.17376" lon="5.52517">
        <ele>1059</ele>
        <time>2010-01-01T05:15:33Z</time>
      </trkpt>
      <trkpt lat="45.1738" lon="5.52518">
        <ele>1059</ele>
        <time>2010-01-01T05:15:38Z</time>
      </trkpt>
      <trkpt lat="45.17387" lon="5.5252">
        <ele>1058</ele>
        <time>2010-01-01T05:15:41Z</time>
      </trkpt>
      <trkpt lat="45.17395" lon="5.52522">
        <ele>1058</ele>
        <time>2010-01-01T05:15:44Z</time>
      </trkpt>
      <trkpt lat="45.17416" lon="5.52526">
        <ele>1058</ele>
        <time>2010-01-01T05:15:47Z</time>
      </trkpt>
      <trkpt lat="45.17432" lon="5.52528">
        <ele>1059</ele>
        <time>2010-01-01T05:15:50Z</time>
      </trkpt>
      <trkpt lat="45.17439" lon="5.52528">
        <ele>1060</ele>
        <time>2010-01-01T05:15:52Z</time>
      </trkpt>
      <trkpt lat="45.17453" lon="5.5253">
        <ele>1061</ele>
        <time>2010-01-01T05:15:53Z</time>
      </trkpt>
      <trkpt lat="45.17466" lon="5.52532">
        <ele>1062</ele>
        <time>2010-01-01T05:15:54Z</time>
      </trkpt>
      <trkpt lat="45.17476" lon="5.52534">
        <ele>1063</ele>
        <time>2010-01-01T05:15:55Z</time>
      </trkpt>
      <trkpt lat="45.17488" lon="5.52535">
        <ele>1065</ele>
        <time>2010-01-01T05:15:58Z</time>
      </trkpt>
      <trkpt lat="45.17498" lon="5.52536">
        <ele>1067</ele>
        <time>2010-01-01T05:16:06Z</time>
      </trkpt>
      <trkpt lat="45.17507" lon="5.52537">
        <ele>1068</ele>
        <time>2010-01-01T05:16:12Z</time>
      </trkpt>
      <trkpt lat="45.17515" lon="5.52537">
        <ele>1071</ele>
        <time>2010-01-01T05:16:20Z</time>
      </trkpt>
      <trkpt lat="45.17522" lon="5.52537">
        <ele>1073</ele>
        <time>2010-01-01T05:16:24Z</time>
      </trkpt>
      <trkpt lat="45.17531" lon="5.52539">
        <ele>1074</ele>
        <time>2010-01-01T05:16:27Z</time>
      </trkpt>
      <trkpt lat="45.17538" lon="5.52541">
        <ele>1074</ele>
        <time>2010-01-01T05:16:29Z</time>
      </trkpt>
      <trkpt lat="45.17545" lon="5.52545">
        <ele>1073</ele>
        <time>2010-01-01T05:16:33Z</time>
      </trkpt>
      <trkpt lat="45.17551" lon="5.52551">
        <ele>1071</ele>
        <time>2010-01-01T05:16:41Z</time>
      </trkpt>
      <trkpt lat="45.17557" lon="5.52556">
        <ele>1070</ele>
        <time>2010-01-01T05:16:53Z</time>
      </trkpt>
      <trkpt lat="45.17563" lon="5.52561">
        <ele>1069</ele>
        <time>2010-01-01T05:16:57Z</time>
      </trkpt>
      <trkpt lat="45.17571" lon="5.52566">
        <ele>1069</ele>
        <time>2010-01-01T05:16:59Z</time>
      </trkpt>
      <trkpt lat="45.17578" lon="5.52568">
        <ele>1070</ele>
        <time>2010-01-01T05:17:03Z</time>
      </trkpt>
      <trkpt lat="45.17586" lon="5.52571">
        <ele>1071</ele>
        <time>2010-01-01T05:17:07Z</time>
      </trkpt>
      <trkpt lat="45.17596" lon="5.52574">
        <ele>1073</ele>
        <time>2010-01-01T05:17:18Z</time>
      </trkpt>
      <trkpt lat="45.17605" lon="5.52575">
        <ele>1075</ele>
        <time>2010-01-01T05:17:32Z</time>
      </trkpt>
      <trkpt lat="45.17615" lon="5.52578">
        <ele>1078</ele>
        <time>2010-01-01T05:17:59Z</time>
      </trkpt>
      <trkpt lat="45.17624" lon="5.52581">
        <ele>1079</ele>
        <time>2010-01-01T05:18:19Z</time>
      </trkpt>
      <trkpt lat="45.17633" lon="5.52585">
        <ele>1081</ele>
        <time>2010-01-01T05:18:39Z</time>
      </trkpt>
      <trkpt lat="45.17639" lon="5.52589">
        <ele>1081</ele>
        <time>2010-01-01T05:19:01Z</time>
      </trkpt>
      <trkpt lat="45.17646" lon="5.52592">
        <ele>1081</ele>
        <time>2010-01-01T05:19:17Z</time>
      </trkpt>
      <trkpt lat="45.17652" lon="5.52592">
        <ele>1083</ele>
        <time>2010-01-01T05:19:35Z</time>
      </trkpt>
      <trkpt lat="45.17656" lon="5.52592">
        <ele>1084</ele>
        <time>2010-01-01T05:19:48Z</time>
      </trkpt>
      <trkpt lat="45.17663" lon="5.52589">
        <ele>1087</ele>
        <time>2010-01-01T05:20:00Z</time>
      </trkpt>
      <trkpt lat="45.17675" lon="5.52587">
        <ele>1091</ele>
        <time>2010-01-01T05:20:14Z</time>
      </trkpt>
      <trkpt lat="45.17684" lon="5.52585">
        <ele>1094</ele>
        <time>2010-01-01T05:20:19Z</time>
      </trkpt>
      <trkpt lat="45.17693" lon="5.52581">
        <ele>1097</ele>
        <time>2010-01-01T05:20:22Z</time>
      </trkpt>
      <trkpt lat="45.177" lon="5.52577">
        <ele>1100</ele>
        <time>2010-01-01T05:20:25Z</time>
      </trkpt>
      <trkpt lat="45.17706" lon="5.52577">
        <ele>1102</ele>
        <time>2010-01-01T05:20:27Z</time>
      </trkpt>
      <trkpt lat="45.17714" lon="5.52581">
        <ele>1103</ele>
        <time>2010-01-01T05:20:30Z</time>
      </trkpt>
      <trkpt lat="45.1772" lon="5.52584">
        <ele>1103</ele>
        <time>2010-01-01T05:20:33Z</time>
      </trkpt>
      <trkpt lat="45.17727" lon="5.5259">
        <ele>1104</ele>
        <time>2010-01-01T05:20:36Z</time>
      </trkpt>
      <trkpt lat="45.17735" lon="5.52597">
        <ele>1105</ele>
        <time>2010-01-01T05:20:41Z</time>
      </trkpt>
      <trkpt lat="45.17742" lon="5.52605">
        <ele>1104</ele>
        <time>2010-01-01T05:20:44Z</time>
      </trkpt>
      <trkpt lat="45.17749" lon="5.52613">
        <ele>1104</ele>
        <time>2010-01-01T05:20:47Z</time>
      </trkpt>
      <trkpt lat="45.17754" lon="5.52623">
        <ele>1103</ele>
        <time>2010-01-01T05:20:51Z</time>
      </trkpt>
      <trkpt lat="45.17761" lon="5.52632">
        <ele>1103</ele>
        <time>2010-01-01T05:20:57Z</time>
      </trkpt>
      <trkpt lat="45.17766" lon="5.5264">
        <ele>1103</ele>
        <time>2010-01-01T05:21:01Z</time>
      </trkpt>
      <trkpt lat="45.17771" lon="5.52648">
        <ele>1102</ele>
        <time>2010-01-01T05:21:06Z</time>
      </trkpt>
      <trkpt lat="45.17773" lon="5.52653">
        <ele>1101</ele>
        <time>2010-01-01T05:21:10Z</time>
      </trkpt>
      <trkpt lat="45.17775" lon="5.52659">
        <ele>1099</ele>
        <time>2010-01-01T05:21:12Z</time>
      </trkpt>
      <trkpt lat="45.17777" lon="5.52669">
        <ele>1097</ele>
        <time>2010-01-01T05:21:16Z</time>
      </trkpt>
      <trkpt lat="45.1778" lon="5.52678">
        <ele>1097</ele>
        <time>2010-01-01T05:21:18Z</time>
      </trkpt>
      <trkpt lat="45.17784" lon="5.52687">
        <ele>1097</ele>
        <time>2010-01-01T05:21:19Z</time>
      </trkpt>
      <trkpt lat="45.17787" lon="5.52695">
        <ele>1096</ele>
        <time>2010-01-01T05:21:20Z</time>
      </trkpt>
      <trkpt lat="45.17789" lon="5.52703">
        <ele>1095</ele>
        <time>2010-01-01T05:21:29Z</time>
      </trkpt>
      <trkpt lat="45.17793" lon="5.52716">
        <ele>1094</ele>
        <time>2010-01-01T05:21:40Z</time>
      </trkpt>
      <trkpt lat="45.17796" lon="5.52724">
        <ele>1093</ele>
        <time>2010-01-01T05:21:57Z</time>
      </trkpt>
      <trkpt lat="45.178" lon="5.52732">
        <ele>1093</ele>
        <time>2010-01-01T05:22:04Z</time>
      </trkpt>
      <trkpt lat="45.17802" lon="5.52736">
        <ele>1092</ele>
        <time>2010-01-01T05:22:06Z</time>
      </trkpt>
      <trkpt lat="45.17808" lon="5.52741">
        <ele>1093</ele>
        <time>2010-01-01T05:22:07Z</time>
      </trkpt>
      <trkpt lat="45.17814" lon="5.52746">
        <ele>1094</ele>
        <time>2010-01-01T05:22:07Z</time>
      </trkpt>
      <trkpt lat="45.17819" lon="5.52747">
        <ele>1096</ele>
        <time>2010-01-01T05:22:22Z</time>
      </trkpt>
      <trkpt lat="45.17825" lon="5.5275">
        <ele>1099</ele>
        <time>2010-01-01T05:22:33Z</time>
      </trkpt>
      <trkpt lat="45.1783" lon="5.52756">
        <ele>1099</ele>
        <time>2010-01-01T05:22:44Z</time>
      </trkpt>
      <trkpt lat="45.17836" lon="5.52762">
        <ele>1099</ele>
        <time>2010-01-01T05:22:51Z</time>
      </trkpt>
      <trkpt lat="45.1784" lon="5.52768">
        <ele>1098</ele>
        <time>2010-01-01T05:22:55Z</time>
      </trkpt>
      <trkpt lat="45.17848" lon="5.52773">
        <ele>1098</ele>
        <time>2010-01-01T05:22:59Z</time>
      </trkpt>
      <trkpt lat="45.17854" lon="5.52777">
        <ele>1097</ele>
        <time>2010-01-01T05:23:02Z</time>
      </trkpt>
      <trkpt lat="45.17866" lon="5.52786">
        <ele>1096</ele>
        <time>2010-01-01T05:23:12Z</time>
      </trkpt>
      <trkpt lat="45.17872" lon="5.52791">
        <ele>1095</ele>
        <time>2010-01-01T05:23:22Z</time>
      </trkpt>
      <trkpt lat="45.1788" lon="5.52797">
        <ele>1093</ele>
        <time>2010-01-01T05:23:28Z</time>
      </trkpt>
      <trkpt lat="45.17887" lon="5.52803">
        <ele>1091</ele>
        <time>2010-01-01T05:23:32Z</time>
      </trkpt>
      <trkpt lat="45.17896" lon="5.52807">
        <ele>1089</ele>
        <time>2010-01-01T05:23:37Z</time>
      </trkpt>
      <trkpt lat="45.17907" lon="5.52813">
        <ele>1086</ele>
        <time>2010-01-01T05:23:38Z</time>
      </trkpt>
      <trkpt lat="45.17914" lon="5.52817">
        <ele>1085</ele>
        <time>2010-01-01T05:23:42Z</time>
      </trkpt>
      <trkpt lat="45.17921" lon="5.52821">
        <ele>1083</ele>
        <time>2010-01-01T05:23:46Z</time>
      </trkpt>
      <trkpt lat="45.17928" lon="5.52824">
        <ele>1082</ele>
        <time>2010-01-01T05:23:50Z</time>
      </trkpt>
      <trkpt lat="45.17934" lon="5.52826">
        <ele>1082</ele>
        <time>2010-01-01T05:23:54Z</time>
      </trkpt>
      <trkpt lat="45.17939" lon="5.52825">
        <ele>1082</ele>
        <time>2010-01-01T05:23:58Z</time>
      </trkpt>
      <trkpt lat="45.17943" lon="5.52825">
        <ele>1082</ele>
        <time>2010-01-01T05:24:02Z</time>
      </trkpt>
      <trkpt lat="45.17944" lon="5.52825">
        <ele>1082</ele>
        <time>2010-01-01T05:24:07Z</time>
      </trkpt>
      <trkpt lat="45.17948" lon="5.52823">
        <ele>1082</ele>
        <time>2010-01-01T05:24:11Z</time>
      </trkpt>
      <trkpt lat="45.17953" lon="5.5282">
        <ele>1082</ele>
        <time>2010-01-01T05:24:15Z</time>
      </trkpt>
      <trkpt lat="45.17949" lon="5.52849">
        <ele>1076</ele>
        <time>2010-01-01T05:24:18Z</time>
      </trkpt>
      <trkpt lat="45.17946" lon="5.5287">
        <ele>1072</ele>
        <time>2010-01-01T05:24:21Z</time>
      </trkpt>
      <trkpt lat="45.17942" lon="5.52897">
        <ele>1067</ele>
        <time>2010-01-01T05:24:26Z</time>
      </trkpt>
      <trkpt lat="45.17939" lon="5.52912">
        <ele>1064</ele>
        <time>2010-01-01T05:24:30Z</time>
      </trkpt>
      <trkpt lat="45.17935" lon="5.52922">
        <ele>1062</ele>
        <time>2010-01-01T05:24:32Z</time>
      </trkpt>
      <trkpt lat="45.17933" lon="5.52929">
        <ele>1061</ele>
        <time>2010-01-01T05:24:34Z</time>
      </trkpt>
      <trkpt lat="45.17932" lon="5.52941">
        <ele>1059</ele>
        <time>2010-01-01T05:24:38Z</time>
      </trkpt>
      <trkpt lat="45.17925" lon="5.52967">
        <ele>1053</ele>
        <time>2010-01-01T05:24:42Z</time>
      </trkpt>
      <trkpt lat="45.17912" lon="5.53008">
        <ele>1045</ele>
        <time>2010-01-01T05:24:45Z</time>
      </trkpt>
      <trkpt lat="45.17909" lon="5.5302">
        <ele>1044</ele>
        <time>2010-01-01T05:24:46Z</time>
      </trkpt>
      <trkpt lat="45.17907" lon="5.53028">
        <ele>1042</ele>
        <time>2010-01-01T05:24:48Z</time>
      </trkpt>
      <trkpt lat="45.17907" lon="5.53039">
        <ele>1042</ele>
        <time>2010-01-01T05:24:51Z</time>
      </trkpt>
      <trkpt lat="45.17904" lon="5.53053">
        <ele>1042</ele>
        <time>2010-01-01T05:24:54Z</time>
      </trkpt>
      <trkpt lat="45.17892" lon="5.5309">
        <ele>1041</ele>
        <time>2010-01-01T05:24:57Z</time>
      </trkpt>
      <trkpt lat="45.17875" lon="5.53133">
        <ele>1040</ele>
        <time>2010-01-01T05:25:00Z</time>
      </trkpt>
      <trkpt lat="45.17843" lon="5.53218">
        <ele>1042</ele>
        <time>2010-01-01T05:25:04Z</time>
      </trkpt>
      <trkpt lat="45.17819" lon="5.5328">
        <ele>1041</ele>
        <time>2010-01-01T05:25:06Z</time>
      </trkpt>
      <trkpt lat="45.17796" lon="5.53342">
        <ele>1038</ele>
        <time>2010-01-01T05:25:10Z</time>
      </trkpt>
      <trkpt lat="45.17771" lon="5.5341">
        <ele>1039</ele>
        <time>2010-01-01T05:25:12Z</time>
      </trkpt>
      <trkpt lat="45.17749" lon="5.53461">
        <ele>1039</ele>
        <time>2010-01-01T05:25:15Z</time>
      </trkpt>
      <trkpt lat="45.17727" lon="5.53514">
        <ele>1036</ele>
        <time>2010-01-01T05:25:19Z</time>
      </trkpt>
      <trkpt lat="45.17709" lon="5.53552">
        <ele>1043</ele>
        <time>2010-01-01T05:25:27Z</time>
      </trkpt>
      <trkpt lat="45.17692" lon="5.5359">
        <ele>1048</ele>
        <time>2010-01-01T05:25:38Z</time>
      </trkpt>
      <trkpt lat="45.17675" lon="5.5363">
        <ele>1048</ele>
        <time>2010-01-01T05:25:44Z</time>
      </trkpt>
      <trkpt lat="45.17668" lon="5.53647">
        <ele>1049</ele>
        <time>2010-01-01T05:26:00Z</time>
      </trkpt>
      <trkpt lat="45.17667" lon="5.53658">
        <ele>1049</ele>
        <time>2010-01-01T05:26:18Z</time>
      </trkpt>
      <trkpt lat="45.17662" lon="5.53662">
        <ele>1049</ele>
        <time>2010-01-01T05:26:43Z</time>
      </trkpt>
      <trkpt lat="45.17667" lon="5.53658">
        <ele>1049</ele>
        <time>2010-01-01T05:27:05Z</time>
      </trkpt>
      <trkpt lat="45.1767" lon="5.53668">
        <ele>1050</ele>
        <time>2010-01-01T05:27:15Z</time>
      </trkpt>
      <trkpt lat="45.17671" lon="5.53679">
        <ele>1050</ele>
        <time>2010-01-01T05:27:17Z</time>
      </trkpt>
      <trkpt lat="45.17669" lon="5.53688">
        <ele>1050</ele>
        <time>2010-01-01T05:27:28Z</time>
      </trkpt>
      <trkpt lat="45.17664" lon="5.53706">
        <ele>1051</ele>
        <time>2010-01-01T05:27:37Z</time>
      </trkpt>
      <trkpt lat="45.1766" lon="5.53714">
        <ele>1051</ele>
        <time>2010-01-01T05:28:05Z</time>
      </trkpt>
      <trkpt lat="45.17658" lon="5.53723">
        <ele>1051</ele>
        <time>2010-01-01T05:28:21Z</time>
      </trkpt>
      <trkpt lat="45.17653" lon="5.53738">
        <ele>1050</ele>
        <time>2010-01-01T05:28:30Z</time>
      </trkpt>
      <trkpt lat="45.17648" lon="5.53755">
        <ele>1048</ele>
        <time>2010-01-01T05:28:42Z</time>
      </trkpt>
      <trkpt lat="45.17646" lon="5.53771">
        <ele>1046</ele>
        <time>2010-01-01T05:28:51Z</time>
      </trkpt>
      <trkpt lat="45.17644" lon="5.53788">
        <ele>1045</ele>
        <time>2010-01-01T05:29:05Z</time>
      </trkpt>
      <trkpt lat="45.17643" lon="5.53802">
        <ele>1044</ele>
        <time>2010-01-01T05:29:11Z</time>
      </trkpt>
      <trkpt lat="45.17643" lon="5.5381">
        <ele>1044</ele>
        <time>2010-01-01T05:29:13Z</time>
      </trkpt>
      <trkpt lat="45.17642" lon="5.53823">
        <ele>1044</ele>
        <time>2010-01-01T05:29:17Z</time>
      </trkpt>
      <trkpt lat="45.1764" lon="5.5383">
        <ele>1044</ele>
        <time>2010-01-01T05:29:23Z</time>
      </trkpt>
      <trkpt lat="45.17639" lon="5.53832">
        <ele>1044</ele>
        <time>2010-01-01T05:29:30Z</time>
      </trkpt>
      <trkpt lat="45.17633" lon="5.5395">
        <ele>1038.5</ele>
        <time>2019-06-01T12:58:51.000Z</time>
      </trkpt>
      <trkpt lat="45.17633" lon="5.5395">
        <ele>1038.5</ele>
        <time>2019-06-01T12:58:51.000Z</time>
      </trkpt>
      <trkpt lat="45.17631" lon="5.53964">
        <ele>1039</ele>
        <time>2019-06-01T12:58:56.000Z</time>
      </trkpt>
      <trkpt lat="45.17629" lon="5.53994">
        <ele>1038.8</ele>
        <time>2019-06-01T12:59:03.000Z</time>
      </trkpt>
      <trkpt lat="45.17632" lon="5.54004">
        <ele>1040.4</ele>
        <time>2019-06-01T12:59:09.000Z</time>
      </trkpt>
      <trkpt lat="45.17671" lon="5.54036">
        <ele>1042.6</ele>
        <time>2019-06-01T12:59:15.000Z</time>
      </trkpt>
      <trkpt lat="45.17713" lon="5.54071">
        <ele>1044.6</ele>
        <time>2019-06-01T12:59:20.000Z</time>
      </trkpt>
      <trkpt lat="45.1775" lon="5.54114">
        <ele>1046.3</ele>
        <time>2019-06-01T12:59:26.000Z</time>
      </trkpt>
      <trkpt lat="45.17779" lon="5.54121">
        <ele>1054.8</ele>
        <time>2019-06-01T12:59:32.000Z</time>
      </trkpt>
      <trkpt lat="45.17783" lon="5.54103">
        <ele>1054.8</ele>
        <time>2019-06-01T12:59:39.000Z</time>
      </trkpt>
      <trkpt lat="45.17789" lon="5.54081">
        <ele>1054.6</ele>
        <time>2019-06-01T12:59:46.000Z</time>
      </trkpt>
      <trkpt lat="45.17796" lon="5.5406">
        <ele>1054.4</ele>
        <time>2019-06-01T12:59:47.000Z</time>
      </trkpt>
      <trkpt lat="45.17802" lon="5.54042">
        <ele>1054.4</ele>
        <time>2019-06-01T12:59:52.000Z</time>
      </trkpt>
      <trkpt lat="45.17809" lon="5.54025">
        <ele>1054.2</ele>
        <time>2019-06-01T12:59:59.000Z</time>
      </trkpt>
      <trkpt lat="45.17817" lon="5.54008">
        <ele>1054.2</ele>
        <time>2019-06-01T13:00:06.000Z</time>
      </trkpt>
      <trkpt lat="45.17826" lon="5.53992">
        <ele>1054</ele>
        <time>2019-06-01T13:00:12.000Z</time>
      </trkpt>
      <trkpt lat="45.17839" lon="5.53973">
        <ele>1054</ele>
        <time>2019-06-01T13:00:17.000Z</time>
      </trkpt>
      <trkpt lat="45.17853" lon="5.53956">
        <ele>1054</ele>
        <time>2019-06-01T13:00:21.000Z</time>
      </trkpt>
      <trkpt lat="45.17855" lon="5.53953">
        <ele>1054</ele>
        <time>2019-06-01T13:00:26.000Z</time>
      </trkpt>
      <trkpt lat="45.17866" lon="5.53943">
        <ele>1054</ele>
        <time>2019-06-01T13:00:32.000Z</time>
      </trkpt>
      <trkpt lat="45.17881" lon="5.53932">
        <ele>1054</ele>
        <time>2019-06-01T13:00:39.000Z</time>
      </trkpt>
      <trkpt lat="45.17897" lon="5.53925">
        <ele>1053.8</ele>
        <time>2019-06-01T13:00:46.000Z</time>
      </trkpt>
      <trkpt lat="45.1791" lon="5.53921">
        <ele>1054</ele>
        <time>2019-06-01T13:00:52.000Z</time>
      </trkpt>
      <trkpt lat="45.17922" lon="5.53923">
        <ele>1054</ele>
        <time>2019-06-01T13:00:58.000Z</time>
      </trkpt>
      <trkpt lat="45.17931" lon="5.53925">
        <ele>1054</ele>
        <time>2019-06-01T13:01:01.000Z</time>
      </trkpt>
      <trkpt lat="45.17942" lon="5.5393">
        <ele>1053.8</ele>
        <time>2019-06-01T13:01:03.000Z</time>
      </trkpt>
      <trkpt lat="45.17955" lon="5.53937">
        <ele>1053.8</ele>
        <time>2019-06-01T13:01:09.000Z</time>
      </trkpt>
      <trkpt lat="45.17968" lon="5.53947">
        <ele>1053.8</ele>
        <time>2019-06-01T13:01:15.000Z</time>
      </trkpt>
      <trkpt lat="45.17982" lon="5.53958">
        <ele>1053.6</ele>
        <time>2019-06-01T13:01:20.000Z</time>
      </trkpt>
      <trkpt lat="45.17992" lon="5.53966">
        <ele>1053.6</ele>
        <time>2019-06-01T13:01:27.000Z</time>
      </trkpt>
      <trkpt lat="45.18003" lon="5.53975">
        <ele>1053.8</ele>
        <time>2019-06-01T13:01:35.000Z</time>
      </trkpt>
      <trkpt lat="45.18009" lon="5.53977">
        <ele>1053.8</ele>
        <time>2019-06-01T13:01:40.000Z</time>
      </trkpt>
      <trkpt lat="45.18013" lon="5.53977">
        <ele>1054</ele>
        <time>2019-06-01T13:01:45.000Z</time>
      </trkpt>
      <trkpt lat="45.18025" lon="5.53982">
        <ele>1054.6</ele>
        <time>2019-06-01T13:01:51.000Z</time>
      </trkpt>
      <trkpt lat="45.18038" lon="5.53981">
        <ele>1055.4</ele>
        <time>2019-06-01T13:01:57.000Z</time>
      </trkpt>
      <trkpt lat="45.18047" lon="5.53973">
        <ele>1056</ele>
        <time>2019-06-01T13:02:03.000Z</time>
      </trkpt>
      <trkpt lat="45.18058" lon="5.53955">
        <ele>1057</ele>
        <time>2019-06-01T13:02:10.000Z</time>
      </trkpt>
      <trkpt lat="45.18067" lon="5.53934">
        <ele>1057.8</ele>
        <time>2019-06-01T13:02:15.000Z</time>
      </trkpt>
      <trkpt lat="45.18073" lon="5.53918">
        <ele>1058</ele>
        <time>2019-06-01T13:02:21.000Z</time>
      </trkpt>
      <trkpt lat="45.1808" lon="5.53901">
        <ele>1058</ele>
        <time>2019-06-01T13:02:28.000Z</time>
      </trkpt>
      <trkpt lat="45.18086" lon="5.53882">
        <ele>1058.2</ele>
        <time>2019-06-01T13:02:34.000Z</time>
      </trkpt>
      <trkpt lat="45.18093" lon="5.53863">
        <ele>1058.4</ele>
        <time>2019-06-01T13:02:40.000Z</time>
      </trkpt>
      <trkpt lat="45.18099" lon="5.53844">
        <ele>1059</ele>
        <time>2019-06-01T13:02:46.000Z</time>
      </trkpt>
      <trkpt lat="45.18106" lon="5.53822">
        <ele>1059.4</ele>
        <time>2019-06-01T13:02:52.000Z</time>
      </trkpt>
      <trkpt lat="45.18112" lon="5.53807">
        <ele>1059.8</ele>
        <time>2019-06-01T13:02:59.000Z</time>
      </trkpt>
      <trkpt lat="45.18118" lon="5.53789">
        <ele>1060</ele>
        <time>2019-06-01T13:03:05.000Z</time>
      </trkpt>
      <trkpt lat="45.18132" lon="5.5377">
        <ele>1060.2</ele>
        <time>2019-06-01T13:03:13.000Z</time>
      </trkpt>
      <trkpt lat="45.18146" lon="5.53762">
        <ele>1060.4</ele>
        <time>2019-06-01T13:03:21.000Z</time>
      </trkpt>
      <trkpt lat="45.18162" lon="5.5376">
        <ele>1060.6</ele>
        <time>2019-06-01T13:03:30.000Z</time>
      </trkpt>
      <trkpt lat="45.18175" lon="5.53759">
        <ele>1060.8</ele>
        <time>2019-06-01T13:03:36.000Z</time>
      </trkpt>
      <trkpt lat="45.1819" lon="5.53758">
        <ele>1061.2</ele>
        <time>2019-06-01T13:03:43.000Z</time>
      </trkpt>
      <trkpt lat="45.18205" lon="5.53757">
        <ele>1061.6</ele>
        <time>2019-06-01T13:03:49.000Z</time>
      </trkpt>
      <trkpt lat="45.18219" lon="5.53757">
        <ele>1062</ele>
        <time>2019-06-01T13:03:56.000Z</time>
      </trkpt>
      <trkpt lat="45.18237" lon="5.53757">
        <ele>1063</ele>
        <time>2019-06-01T13:04:02.000Z</time>
      </trkpt>
      <trkpt lat="45.18255" lon="5.53755">
        <ele>1063.8</ele>
        <time>2019-06-01T13:04:07.000Z</time>
      </trkpt>
      <trkpt lat="45.18274" lon="5.53752">
        <ele>1064.8</ele>
        <time>2019-06-01T13:04:14.000Z</time>
      </trkpt>
      <trkpt lat="45.18286" lon="5.53749">
        <ele>1065.4</ele>
        <time>2019-06-01T13:04:20.000Z</time>
      </trkpt>
      <trkpt lat="45.18302" lon="5.53745">
        <ele>1066</ele>
        <time>2019-06-01T13:04:26.000Z</time>
      </trkpt>
      <trkpt lat="45.18315" lon="5.53743">
        <ele>1066.4</ele>
        <time>2019-06-01T13:04:33.000Z</time>
      </trkpt>
      <trkpt lat="45.1833" lon="5.53742">
        <ele>1067.2</ele>
        <time>2019-06-01T13:04:39.000Z</time>
      </trkpt>
      <trkpt lat="45.18345" lon="5.53741">
        <ele>1067.6</ele>
        <time>2019-06-01T13:04:45.000Z</time>
      </trkpt>
      <trkpt lat="45.18357" lon="5.53738">
        <ele>1067.8</ele>
        <time>2019-06-01T13:04:50.000Z</time>
      </trkpt>
      <trkpt lat="45.18375" lon="5.53735">
        <ele>1068</ele>
        <time>2019-06-01T13:04:56.000Z</time>
      </trkpt>
      <trkpt lat="45.18389" lon="5.53731">
        <ele>1068.2</ele>
        <time>2019-06-01T13:05:01.000Z</time>
      </trkpt>
      <trkpt lat="45.18402" lon="5.53729">
        <ele>1068.6</ele>
        <time>2019-06-01T13:05:08.000Z</time>
      </trkpt>
      <trkpt lat="45.18417" lon="5.53727">
        <ele>1069.4</ele>
        <time>2019-06-01T13:05:15.000Z</time>
      </trkpt>
      <trkpt lat="45.18429" lon="5.53738">
        <ele>1069.6</ele>
        <time>2019-06-01T13:05:21.000Z</time>
      </trkpt>
      <trkpt lat="45.18441" lon="5.53748">
        <ele>1069.6</ele>
        <time>2019-06-01T13:05:26.000Z</time>
      </trkpt>
      <trkpt lat="45.1845" lon="5.53756">
        <ele>1069.6</ele>
        <time>2019-06-01T13:05:32.000Z</time>
      </trkpt>
      <trkpt lat="45.18459" lon="5.53768">
        <ele>1069.8</ele>
        <time>2019-06-01T13:05:37.000Z</time>
      </trkpt>
      <trkpt lat="45.18468" lon="5.53779">
        <ele>1070</ele>
        <time>2019-06-01T13:05:43.000Z</time>
      </trkpt>
      <trkpt lat="45.18481" lon="5.53789">
        <ele>1070.4</ele>
        <time>2019-06-01T13:05:49.000Z</time>
      </trkpt>
      <trkpt lat="45.18496" lon="5.53797">
        <ele>1071.2</ele>
        <time>2019-06-01T13:05:55.000Z</time>
      </trkpt>
      <trkpt lat="45.18507" lon="5.53803">
        <ele>1071.6</ele>
        <time>2019-06-01T13:05:56.000Z</time>
      </trkpt>
      <trkpt lat="45.18517" lon="5.53807">
        <ele>1072.2</ele>
        <time>2019-06-01T13:05:59.000Z</time>
      </trkpt>
      <trkpt lat="45.1853" lon="5.53813">
        <ele>1073.2</ele>
        <time>2019-06-01T13:06:01.000Z</time>
      </trkpt>
      <trkpt lat="45.18539" lon="5.53816">
        <ele>1073.6</ele>
        <time>2019-06-01T13:06:06.000Z</time>
      </trkpt>
      <trkpt lat="45.18551" lon="5.53818">
        <ele>1074.2</ele>
        <time>2019-06-01T13:06:11.000Z</time>
      </trkpt>
      <trkpt lat="45.18563" lon="5.53819">
        <ele>1074.6</ele>
        <time>2019-06-01T13:06:18.000Z</time>
      </trkpt>
      <trkpt lat="45.18575" lon="5.53817">
        <ele>1074.6</ele>
        <time>2019-06-01T13:06:25.000Z</time>
      </trkpt>
      <trkpt lat="45.18577" lon="5.53817">
        <ele>1074.6</ele>
        <time>2019-06-01T13:06:29.000Z</time>
      </trkpt>
      <trkpt lat="45.18583" lon="5.53817">
        <ele>1074.8</ele>
        <time>2019-06-01T13:06:35.000Z</time>
      </trkpt>
      <trkpt lat="45.18587" lon="5.53817">
        <ele>1074.8</ele>
        <time>2019-06-01T13:06:37.000Z</time>
      </trkpt>
      <trkpt lat="45.18598" lon="5.5382">
        <ele>1074.6</ele>
        <time>2019-06-01T13:06:40.000Z</time>
      </trkpt>
      <trkpt lat="45.18607" lon="5.53824">
        <ele>1074.8</ele>
        <time>2019-06-01T13:06:46.000Z</time>
      </trkpt>
      <trkpt lat="45.18618" lon="5.53831">
        <ele>1075.2</ele>
        <time>2019-06-01T13:06:52.000Z</time>
      </trkpt>
      <trkpt lat="45.18629" lon="5.53825">
        <ele>1076.2</ele>
        <time>2019-06-01T13:06:57.000Z</time>
      </trkpt>
      <trkpt lat="45.18637" lon="5.53819">
        <ele>1076.8</ele>
        <time>2019-06-01T13:07:02.000Z</time>
      </trkpt>
      <trkpt lat="45.18648" lon="5.53813">
        <ele>1077.8</ele>
        <time>2019-06-01T13:07:03.000Z</time>
      </trkpt>
      <trkpt lat="45.18652" lon="5.53813">
        <ele>1078.2</ele>
        <time>2019-06-01T13:07:06.000Z</time>
      </trkpt>
      <trkpt lat="45.18658" lon="5.53813">
        <ele>1078.6</ele>
        <time>2019-06-01T13:07:12.000Z</time>
      </trkpt>
      <trkpt lat="45.18669" lon="5.53817">
        <ele>1079.4</ele>
        <time>2019-06-01T13:07:14.000Z</time>
      </trkpt>
      <trkpt lat="45.18681" lon="5.53826">
        <ele>1080.2</ele>
        <time>2019-06-01T13:07:17.000Z</time>
      </trkpt>
      <trkpt lat="45.18687" lon="5.53834">
        <ele>1080.8</ele>
        <time>2019-06-01T13:07:22.000Z</time>
      </trkpt>
      <trkpt lat="45.18696" lon="5.53841">
        <ele>1081.2</ele>
        <time>2019-06-01T13:07:26.000Z</time>
      </trkpt>
      <trkpt lat="45.18698" lon="5.53841">
        <ele>1081.4</ele>
        <time>2019-06-01T13:07:28.000Z</time>
      </trkpt>
      <trkpt lat="45.18701" lon="5.53845">
        <ele>1081.6</ele>
        <time>2019-06-01T13:07:36.000Z</time>
      </trkpt>
      <trkpt lat="45.18713" lon="5.53852">
        <ele>1083</ele>
        <time>2019-06-01T13:07:37.000Z</time>
      </trkpt>
      <trkpt lat="45.18717" lon="5.53852">
        <ele>1083.4</ele>
        <time>2019-06-01T13:07:41.000Z</time>
      </trkpt>
      <trkpt lat="45.18721" lon="5.53854">
        <ele>1084</ele>
        <time>2019-06-01T13:07:43.000Z</time>
      </trkpt>
      <trkpt lat="45.18728" lon="5.53857">
        <ele>1085</ele>
        <time>2019-06-01T13:07:48.000Z</time>
      </trkpt>
      <trkpt lat="45.18736" lon="5.5386">
        <ele>1085.8</ele>
        <time>2019-06-01T13:07:49.000Z</time>
      </trkpt>
      <trkpt lat="45.18739" lon="5.53862">
        <ele>1086.2</ele>
        <time>2019-06-01T13:07:53.000Z</time>
      </trkpt>
      <trkpt lat="45.18751" lon="5.53867">
        <ele>1087.4</ele>
        <time>2019-06-01T13:07:54.000Z</time>
      </trkpt>
      <trkpt lat="45.18753" lon="5.53869">
        <ele>1087.4</ele>
        <time>2019-06-01T13:08:01.000Z</time>
      </trkpt>
      <trkpt lat="45.1876" lon="5.53872">
        <ele>1088.2</ele>
        <time>2019-06-01T13:08:09.000Z</time>
      </trkpt>
      <trkpt lat="45.18764" lon="5.53873">
        <ele>1088.4</ele>
        <time>2019-06-01T13:08:15.000Z</time>
      </trkpt>
      <trkpt lat="45.18772" lon="5.53876">
        <ele>1089.2</ele>
        <time>2019-06-01T13:08:21.000Z</time>
      </trkpt>
      <trkpt lat="45.18773" lon="5.53875">
        <ele>1089.2</ele>
        <time>2019-06-01T13:08:28.000Z</time>
      </trkpt>
      <trkpt lat="45.1878" lon="5.53876">
        <ele>1089.6</ele>
        <time>2019-06-01T13:08:32.000Z</time>
      </trkpt>
      <trkpt lat="45.18781" lon="5.53877">
        <ele>1089.8</ele>
        <time>2019-06-01T13:08:38.000Z</time>
      </trkpt>
      <trkpt lat="45.18794" lon="5.53874">
        <ele>1089.6</ele>
        <time>2019-06-01T13:08:41.000Z</time>
      </trkpt>
      <trkpt lat="45.18807" lon="5.53873">
        <ele>1089.8</ele>
        <time>2019-06-01T13:08:43.000Z</time>
      </trkpt>
      <trkpt lat="45.18817" lon="5.53871">
        <ele>1090.2</ele>
        <time>2019-06-01T13:08:48.000Z</time>
      </trkpt>
      <trkpt lat="45.18827" lon="5.53868">
        <ele>1090.6</ele>
        <time>2019-06-01T13:08:50.000Z</time>
      </trkpt>
      <trkpt lat="45.18837" lon="5.53867">
        <ele>1092.6</ele>
        <time>2019-06-01T13:08:54.000Z</time>
      </trkpt>
      <trkpt lat="45.18843" lon="5.53867">
        <ele>1094.6</ele>
        <time>2019-06-01T13:08:58.000Z</time>
      </trkpt>
      <trkpt lat="45.18854" lon="5.53866">
        <ele>1096.4</ele>
        <time>2019-06-01T13:09:06.000Z</time>
      </trkpt>
      <trkpt lat="45.1886" lon="5.53863">
        <ele>1097.4</ele>
        <time>2019-06-01T13:09:13.000Z</time>
      </trkpt>
      <trkpt lat="45.18864" lon="5.53861">
        <ele>1098.4</ele>
        <time>2019-06-01T13:09:21.000Z</time>
      </trkpt>
      <trkpt lat="45.1887" lon="5.53862">
        <ele>1099.8</ele>
        <time>2019-06-01T13:09:28.000Z</time>
      </trkpt>
      <trkpt lat="45.18873" lon="5.53863">
        <ele>1100.2</ele>
        <time>2019-06-01T13:09:34.000Z</time>
      </trkpt>
      <trkpt lat="45.18882" lon="5.53864">
        <ele>1101.2</ele>
        <time>2019-06-01T13:09:40.000Z</time>
      </trkpt>
      <trkpt lat="45.18889" lon="5.5387">
        <ele>1102</ele>
        <time>2019-06-01T13:09:45.000Z</time>
      </trkpt>
      <trkpt lat="45.18901" lon="5.53876">
        <ele>1103.6</ele>
        <time>2019-06-01T13:09:50.000Z</time>
      </trkpt>
      <trkpt lat="45.18912" lon="5.53878">
        <ele>1105.2</ele>
        <time>2019-06-01T13:09:52.000Z</time>
      </trkpt>
      <trkpt lat="45.18924" lon="5.53876">
        <ele>1106.8</ele>
        <time>2019-06-01T13:09:55.000Z</time>
      </trkpt>
      <trkpt lat="45.18935" lon="5.53871">
        <ele>1107.8</ele>
        <time>2019-06-01T13:09:56.000Z</time>
      </trkpt>
      <trkpt lat="45.18945" lon="5.5387">
        <ele>1108.8</ele>
        <time>2019-06-01T13:10:00.000Z</time>
      </trkpt>
      <trkpt lat="45.18953" lon="5.53873">
        <ele>1109.8</ele>
        <time>2019-06-01T13:10:02.000Z</time>
      </trkpt>
      <trkpt lat="45.18958" lon="5.53877">
        <ele>1110.6</ele>
        <time>2019-06-01T13:10:07.000Z</time>
      </trkpt>
      <trkpt lat="45.18961" lon="5.53885">
        <ele>1111.6</ele>
        <time>2019-06-01T13:10:13.000Z</time>
      </trkpt>
      <trkpt lat="45.18963" lon="5.53892">
        <ele>1112.2</ele>
        <time>2019-06-01T13:10:19.000Z</time>
      </trkpt>
      <trkpt lat="45.18968" lon="5.53899">
        <ele>1113</ele>
        <time>2019-06-01T13:10:21.000Z</time>
      </trkpt>
      <trkpt lat="45.18969" lon="5.53901">
        <ele>1113.4</ele>
        <time>2019-06-01T13:10:23.000Z</time>
      </trkpt>
      <trkpt lat="45.18973" lon="5.53907">
        <ele>1114.4</ele>
        <time>2019-06-01T13:10:25.000Z</time>
      </trkpt>
      <trkpt lat="45.18976" lon="5.53911">
        <ele>1114.8</ele>
        <time>2019-06-01T13:10:29.000Z</time>
      </trkpt>
      <trkpt lat="45.18981" lon="5.53919">
        <ele>1115.8</ele>
        <time>2019-06-01T13:10:34.000Z</time>
      </trkpt>
      <trkpt lat="45.18988" lon="5.53928">
        <ele>1116.4</ele>
        <time>2019-06-01T13:10:35.000Z</time>
      </trkpt>
      <trkpt lat="45.18993" lon="5.5394">
        <ele>1117</ele>
        <time>2019-06-01T13:10:38.000Z</time>
      </trkpt>
      <trkpt lat="45.18997" lon="5.53941">
        <ele>1117.4</ele>
        <time>2019-06-01T13:10:41.000Z</time>
      </trkpt>
      <trkpt lat="45.18998" lon="5.53946">
        <ele>1117.6</ele>
        <time>2019-06-01T13:10:48.000Z</time>
      </trkpt>
      <trkpt lat="45.19" lon="5.53951">
        <ele>1118</ele>
        <time>2019-06-01T13:10:54.000Z</time>
      </trkpt>
      <trkpt lat="45.19002" lon="5.53958">
        <ele>1118.8</ele>
        <time>2019-06-01T13:10:59.000Z</time>
      </trkpt>
      <trkpt lat="45.19008" lon="5.53967">
        <ele>1120</ele>
        <time>2019-06-01T13:11:02.000Z</time>
      </trkpt>
      <trkpt lat="45.19009" lon="5.53969">
        <ele>1120.2</ele>
        <time>2019-06-01T13:11:05.000Z</time>
      </trkpt>
      <trkpt lat="45.19012" lon="5.53975">
        <ele>1120.8</ele>
        <time>2019-06-01T13:11:10.000Z</time>
      </trkpt>
      <trkpt lat="45.19015" lon="5.53979">
        <ele>1121.4</ele>
        <time>2019-06-01T13:11:11.000Z</time>
      </trkpt>
      <trkpt lat="45.1902" lon="5.53987">
        <ele>1123.2</ele>
        <time>2019-06-01T13:11:15.000Z</time>
      </trkpt>
      <trkpt lat="45.19027" lon="5.53998">
        <ele>1124.4</ele>
        <time>2019-06-01T13:11:16.000Z</time>
      </trkpt>
      <trkpt lat="45.19032" lon="5.54006">
        <ele>1125</ele>
        <time>2019-06-01T13:11:19.000Z</time>
      </trkpt>
      <trkpt lat="45.19035" lon="5.54012">
        <ele>1125.8</ele>
        <time>2019-06-01T13:11:22.000Z</time>
      </trkpt>
      <trkpt lat="45.19036" lon="5.54017">
        <ele>1127</ele>
        <time>2019-06-01T13:11:25.000Z</time>
      </trkpt>
      <trkpt lat="45.19041" lon="5.54024">
        <ele>1128.6</ele>
        <time>2019-06-01T13:11:27.000Z</time>
      </trkpt>
      <trkpt lat="45.19042" lon="5.54027">
        <ele>1128.8</ele>
        <time>2019-06-01T13:11:31.000Z</time>
      </trkpt>
      <trkpt lat="45.19045" lon="5.54035">
        <ele>1130</ele>
        <time>2019-06-01T13:11:32.000Z</time>
      </trkpt>
      <trkpt lat="45.19045" lon="5.54036">
        <ele>1130.4</ele>
        <time>2019-06-01T13:11:34.000Z</time>
      </trkpt>
      <trkpt lat="45.19047" lon="5.54042">
        <ele>1131.2</ele>
        <time>2019-06-01T13:11:36.000Z</time>
      </trkpt>
      <trkpt lat="45.19048" lon="5.54046">
        <ele>1131.8</ele>
        <time>2019-06-01T13:11:39.000Z</time>
      </trkpt>
      <trkpt lat="45.19052" lon="5.5405">
        <ele>1132.4</ele>
        <time>2019-06-01T13:11:44.000Z</time>
      </trkpt>
      <trkpt lat="45.19054" lon="5.54054">
        <ele>1133</ele>
        <time>2019-06-01T13:11:50.000Z</time>
      </trkpt>
      <trkpt lat="45.19055" lon="5.54059">
        <ele>1133.6</ele>
        <time>2019-06-01T13:11:55.000Z</time>
      </trkpt>
      <trkpt lat="45.19055" lon="5.5406">
        <ele>1133.8</ele>
        <time>2019-06-01T13:11:58.000Z</time>
      </trkpt>
      <trkpt lat="45.19056" lon="5.54063">
        <ele>1134.4</ele>
        <time>2019-06-01T13:12:03.000Z</time>
      </trkpt>
      <trkpt lat="45.19058" lon="5.54065">
        <ele>1135</ele>
        <time>2019-06-01T13:12:06.000Z</time>
      </trkpt>
      <trkpt lat="45.19062" lon="5.5407">
        <ele>1135.6</ele>
        <time>2019-06-01T13:12:09.000Z</time>
      </trkpt>
      <trkpt lat="45.19067" lon="5.54078">
        <ele>1137</ele>
        <time>2019-06-01T13:12:10.000Z</time>
      </trkpt>
      <trkpt lat="45.19074" lon="5.54083">
        <ele>1138.2</ele>
        <time>2019-06-01T13:12:13.000Z</time>
      </trkpt>
      <trkpt lat="45.1908" lon="5.54086">
        <ele>1139.4</ele>
        <time>2019-06-01T13:12:15.000Z</time>
      </trkpt>
      <trkpt lat="45.19081" lon="5.54087">
        <ele>1140.2</ele>
        <time>2019-06-01T13:12:20.000Z</time>
      </trkpt>
      <trkpt lat="45.19086" lon="5.54092">
        <ele>1141.6</ele>
        <time>2019-06-01T13:12:23.000Z</time>
      </trkpt>
      <trkpt lat="45.19089" lon="5.54096">
        <ele>1142.4</ele>
        <time>2019-06-01T13:12:25.000Z</time>
      </trkpt>
      <trkpt lat="45.19093" lon="5.54099">
        <ele>1143</ele>
        <time>2019-06-01T13:12:30.000Z</time>
      </trkpt>
      <trkpt lat="45.19094" lon="5.541">
        <ele>1143.4</ele>
        <time>2019-06-01T13:12:35.000Z</time>
      </trkpt>
      <trkpt lat="45.19098" lon="5.54105">
        <ele>1143.8</ele>
        <time>2019-06-01T13:12:39.000Z</time>
      </trkpt>
      <trkpt lat="45.191" lon="5.54107">
        <ele>1144.2</ele>
        <time>2019-06-01T13:12:40.000Z</time>
      </trkpt>
      <trkpt lat="45.19103" lon="5.54114">
        <ele>1145.6</ele>
        <time>2019-06-01T13:12:43.000Z</time>
      </trkpt>
      <trkpt lat="45.19107" lon="5.5412">
        <ele>1146</ele>
        <time>2019-06-01T13:12:44.000Z</time>
      </trkpt>
      <trkpt lat="45.1911" lon="5.54124">
        <ele>1146.4</ele>
        <time>2019-06-01T13:12:45.000Z</time>
      </trkpt>
      <trkpt lat="45.19113" lon="5.54132">
        <ele>1147.4</ele>
        <time>2019-06-01T13:12:48.000Z</time>
      </trkpt>
      <trkpt lat="45.19124" lon="5.54145">
        <ele>1148.6</ele>
        <time>2019-06-01T13:12:50.000Z</time>
      </trkpt>
      <trkpt lat="45.19132" lon="5.54154">
        <ele>1149.6</ele>
        <time>2019-06-01T13:12:53.000Z</time>
      </trkpt>
      <trkpt lat="45.19135" lon="5.54158">
        <ele>1149.8</ele>
        <time>2019-06-01T13:12:59.000Z</time>
      </trkpt>
      <trkpt lat="45.19141" lon="5.5417">
        <ele>1150.6</ele>
        <time>2019-06-01T13:13:04.000Z</time>
      </trkpt>
      <trkpt lat="45.19142" lon="5.54172">
        <ele>1151</ele>
        <time>2019-06-01T13:13:12.000Z</time>
      </trkpt>
      <trkpt lat="45.19145" lon="5.54176">
        <ele>1151.2</ele>
        <time>2019-06-01T13:13:18.000Z</time>
      </trkpt>
      <trkpt lat="45.19146" lon="5.54182">
        <ele>1151.8</ele>
        <time>2019-06-01T13:13:24.000Z</time>
      </trkpt>
      <trkpt lat="45.19149" lon="5.54186">
        <ele>1152.2</ele>
        <time>2019-06-01T13:13:27.000Z</time>
      </trkpt>
      <trkpt lat="45.19156" lon="5.54193">
        <ele>1152.8</ele>
        <time>2019-06-01T13:13:29.000Z</time>
      </trkpt>
      <trkpt lat="45.19164" lon="5.54203">
        <ele>1154.6</ele>
        <time>2019-06-01T13:13:31.000Z</time>
      </trkpt>
      <trkpt lat="45.19169" lon="5.54211">
        <ele>1155.6</ele>
        <time>2019-06-01T13:13:35.000Z</time>
      </trkpt>
      <trkpt lat="45.19176" lon="5.54222">
        <ele>1155.8</ele>
        <time>2019-06-01T13:13:37.000Z</time>
      </trkpt>
      <trkpt lat="45.19184" lon="5.54226">
        <ele>1156</ele>
        <time>2019-06-01T13:13:39.000Z</time>
      </trkpt>
      <trkpt lat="45.19192" lon="5.5423">
        <ele>1156.4</ele>
        <time>2019-06-01T13:13:42.000Z</time>
      </trkpt>
      <trkpt lat="45.19194" lon="5.54233">
        <ele>1156.4</ele>
        <time>2019-06-01T13:13:44.000Z</time>
      </trkpt>
      <trkpt lat="45.19196" lon="5.54234">
        <ele>1156.8</ele>
        <time>2019-06-01T13:13:48.000Z</time>
      </trkpt>
      <trkpt lat="45.19199" lon="5.54237">
        <ele>1157</ele>
        <time>2019-06-01T13:13:53.000Z</time>
      </trkpt>
      <trkpt lat="45.19203" lon="5.54239">
        <ele>1157.6</ele>
        <time>2019-06-01T13:13:58.000Z</time>
      </trkpt>
      <trkpt lat="45.19204" lon="5.5424">
        <ele>1158.2</ele>
        <time>2019-06-01T13:14:01.000Z</time>
      </trkpt>
      <trkpt lat="45.19205" lon="5.54241">
        <ele>1158.8</ele>
        <time>2019-06-01T13:14:03.000Z</time>
      </trkpt>
      <trkpt lat="45.19208" lon="5.54246">
        <ele>1159.4</ele>
        <time>2019-06-01T13:14:08.000Z</time>
      </trkpt>
      <trkpt lat="45.1921" lon="5.54249">
        <ele>1159.8</ele>
        <time>2019-06-01T13:14:09.000Z</time>
      </trkpt>
      <trkpt lat="45.19212" lon="5.54255">
        <ele>1160.6</ele>
        <time>2019-06-01T13:14:12.000Z</time>
      </trkpt>
      <trkpt lat="45.19222" lon="5.54263">
        <ele>1162.2</ele>
        <time>2019-06-01T13:14:14.000Z</time>
      </trkpt>
      <trkpt lat="45.19225" lon="5.54261">
        <ele>1163.6</ele>
        <time>2019-06-01T13:14:17.000Z</time>
      </trkpt>
      <trkpt lat="45.19227" lon="5.54259">
        <ele>1164.8</ele>
        <time>2019-06-01T13:14:18.000Z</time>
      </trkpt>
      <trkpt lat="45.19229" lon="5.54255">
        <ele>1165.6</ele>
        <time>2019-06-01T13:14:20.000Z</time>
      </trkpt>
      <trkpt lat="45.19233" lon="5.54254">
        <ele>1167.4</ele>
        <time>2019-06-01T13:14:23.000Z</time>
      </trkpt>
      <trkpt lat="45.19233" lon="5.54255">
        <ele>1167.8</ele>
        <time>2019-06-01T13:14:27.000Z</time>
      </trkpt>
      <trkpt lat="45.19235" lon="5.54256">
        <ele>1169</ele>
        <time>2019-06-01T13:14:31.000Z</time>
      </trkpt>
      <trkpt lat="45.19236" lon="5.54258">
        <ele>1169.8</ele>
        <time>2019-06-01T13:14:36.000Z</time>
      </trkpt>
      <trkpt lat="45.19239" lon="5.54262">
        <ele>1171.2</ele>
        <time>2019-06-01T13:14:41.000Z</time>
      </trkpt>
      <trkpt lat="45.1924" lon="5.54263">
        <ele>1171.6</ele>
        <time>2019-06-01T13:14:47.000Z</time>
      </trkpt>
      <trkpt lat="45.19243" lon="5.54267">
        <ele>1172</ele>
        <time>2019-06-01T13:14:49.000Z</time>
      </trkpt>
      <trkpt lat="45.19245" lon="5.54273">
        <ele>1172.6</ele>
        <time>2019-06-01T13:14:52.000Z</time>
      </trkpt>
      <trkpt lat="45.19248" lon="5.54275">
        <ele>1173.4</ele>
        <time>2019-06-01T13:14:58.000Z</time>
      </trkpt>
      <trkpt lat="45.19249" lon="5.54271">
        <ele>1174.6</ele>
        <time>2019-06-01T13:15:03.000Z</time>
      </trkpt>
      <trkpt lat="45.19255" lon="5.54273">
        <ele>1176.4</ele>
        <time>2019-06-01T13:15:06.000Z</time>
      </trkpt>
      <trkpt lat="45.19259" lon="5.54276">
        <ele>1178.2</ele>
        <time>2019-06-01T13:15:08.000Z</time>
      </trkpt>
      <trkpt lat="45.19264" lon="5.54278">
        <ele>1179.8</ele>
        <time>2019-06-01T13:15:11.000Z</time>
      </trkpt>
      <trkpt lat="45.19266" lon="5.54281">
        <ele>1180</ele>
        <time>2019-06-01T13:15:13.000Z</time>
      </trkpt>
      <trkpt lat="45.19268" lon="5.54281">
        <ele>1180.6</ele>
        <time>2019-06-01T13:15:14.000Z</time>
      </trkpt>
      <trkpt lat="45.19274" lon="5.54282">
        <ele>1182.2</ele>
        <time>2019-06-01T13:15:15.000Z</time>
      </trkpt>
      <trkpt lat="45.19279" lon="5.54285">
        <ele>1183.4</ele>
        <time>2019-06-01T13:15:19.000Z</time>
      </trkpt>
      <trkpt lat="45.19281" lon="5.54285">
        <ele>1184.6</ele>
        <time>2019-06-01T13:15:24.000Z</time>
      </trkpt>
      <trkpt lat="45.19282" lon="5.54285">
        <ele>1185</ele>
        <time>2019-06-01T13:15:29.000Z</time>
      </trkpt>
      <trkpt lat="45.19282" lon="5.54282">
        <ele>1185.8</ele>
        <time>2019-06-01T13:15:36.000Z</time>
      </trkpt>
      <trkpt lat="45.19283" lon="5.5428">
        <ele>1186</ele>
        <time>2019-06-01T13:15:47.000Z</time>
      </trkpt>
      <trkpt lat="45.19283" lon="5.5428">
        <ele>1186.2</ele>
        <time>2019-06-01T13:15:48.000Z</time>
      </trkpt>
      <trkpt lat="45.19285" lon="5.54281">
        <ele>1186.4</ele>
        <time>2019-06-01T13:15:51.000Z</time>
      </trkpt>
      <trkpt lat="45.19285" lon="5.54282">
        <ele>1188.2</ele>
        <time>2019-06-01T13:15:53.000Z</time>
      </trkpt>
      <trkpt lat="45.19291" lon="5.54286">
        <ele>1189.4</ele>
        <time>2019-06-01T13:15:58.000Z</time>
      </trkpt>
      <trkpt lat="45.19296" lon="5.5429">
        <ele>1190.8</ele>
        <time>2019-06-01T13:16:03.000Z</time>
      </trkpt>
      <trkpt lat="45.19296" lon="5.54285">
        <ele>1194.6</ele>
        <time>2019-06-01T13:16:07.000Z</time>
      </trkpt>
      <trkpt lat="45.19305" lon="5.54285">
        <ele>1199</ele>
        <time>2019-06-01T13:16:09.000Z</time>
      </trkpt>
      <trkpt lat="45.19306" lon="5.54285">
        <ele>1199.4</ele>
        <time>2019-06-01T13:16:11.000Z</time>
      </trkpt>
      <trkpt lat="45.19309" lon="5.54284">
        <ele>1200.4</ele>
        <time>2019-06-01T13:16:13.000Z</time>
      </trkpt>
      <trkpt lat="45.19311" lon="5.54287">
        <ele>1200.8</ele>
        <time>2019-06-01T13:16:18.000Z</time>
      </trkpt>
      <trkpt lat="45.19318" lon="5.54293">
        <ele>1201.6</ele>
        <time>2019-06-01T13:16:20.000Z</time>
      </trkpt>
      <trkpt lat="45.19321" lon="5.54285">
        <ele>1201.8</ele>
        <time>2019-06-01T13:16:26.000Z</time>
      </trkpt>
      <trkpt lat="45.19325" lon="5.54284">
        <ele>1202.4</ele>
        <time>2019-06-01T13:16:30.000Z</time>
      </trkpt>
      <trkpt lat="45.19327" lon="5.54286">
        <ele>1202.4</ele>
        <time>2019-06-01T13:16:31.000Z</time>
      </trkpt>
      <trkpt lat="45.19329" lon="5.54286">
        <ele>1202.4</ele>
        <time>2019-06-01T13:16:36.000Z</time>
      </trkpt>
      <trkpt lat="45.19331" lon="5.54285">
        <ele>1202.8</ele>
        <time>2019-06-01T13:16:38.000Z</time>
      </trkpt>
      <trkpt lat="45.19335" lon="5.54284">
        <ele>1203.2</ele>
        <time>2019-06-01T13:16:41.000Z</time>
      </trkpt>
      <trkpt lat="45.19336" lon="5.54283">
        <ele>1203.4</ele>
        <time>2019-06-01T13:16:43.000Z</time>
      </trkpt>
      <trkpt lat="45.19344" lon="5.54281">
        <ele>1204.2</ele>
        <time>2019-06-01T13:16:47.000Z</time>
      </trkpt>
      <trkpt lat="45.1935" lon="5.54283">
        <ele>1204.6</ele>
        <time>2019-06-01T13:16:50.000Z</time>
      </trkpt>
      <trkpt lat="45.19351" lon="5.54285">
        <ele>1204.6</ele>
        <time>2019-06-01T13:16:52.000Z</time>
      </trkpt>
      <trkpt lat="45.19358" lon="5.54286">
        <ele>1204.6</ele>
        <time>2019-06-01T13:16:54.000Z</time>
      </trkpt>
      <trkpt lat="45.19359" lon="5.54285">
        <ele>1205</ele>
        <time>2019-06-01T13:16:57.000Z</time>
      </trkpt>
      <trkpt lat="45.19362" lon="5.54284">
        <ele>1205</ele>
        <time>2019-06-01T13:17:00.000Z</time>
      </trkpt>
      <trkpt lat="45.19363" lon="5.54284">
        <ele>1205.6</ele>
        <time>2019-06-01T13:17:03.000Z</time>
      </trkpt>
      <trkpt lat="45.19368" lon="5.54282">
        <ele>1205.8</ele>
        <time>2019-06-01T13:17:04.000Z</time>
      </trkpt>
      <trkpt lat="45.19372" lon="5.54279">
        <ele>1205.8</ele>
        <time>2019-06-01T13:17:07.000Z</time>
      </trkpt>
      <trkpt lat="45.19373" lon="5.54281">
        <ele>1206.2</ele>
        <time>2019-06-01T13:17:08.000Z</time>
      </trkpt>
      <trkpt lat="45.19372" lon="5.54281">
        <ele>1206.4</ele>
        <time>2019-06-01T13:17:10.000Z</time>
      </trkpt>
      <trkpt lat="45.19377" lon="5.54283">
        <ele>1207</ele>
        <time>2019-06-01T13:17:16.000Z</time>
      </trkpt>
      <trkpt lat="45.19379" lon="5.54286">
        <ele>1207.4</ele>
        <time>2019-06-01T13:17:22.000Z</time>
      </trkpt>
      <trkpt lat="45.19383" lon="5.54288">
        <ele>1208.8</ele>
        <time>2019-06-01T13:17:29.000Z</time>
      </trkpt>
      <trkpt lat="45.19384" lon="5.54287">
        <ele>1209</ele>
        <time>2019-06-01T13:17:31.000Z</time>
      </trkpt>
      <trkpt lat="45.19384" lon="5.54284">
        <ele>1210</ele>
        <time>2019-06-01T13:17:34.000Z</time>
      </trkpt>
      <trkpt lat="45.19384" lon="5.54281">
        <ele>1210.2</ele>
        <time>2019-06-01T13:17:41.000Z</time>
      </trkpt>
      <trkpt lat="45.19386" lon="5.5428">
        <ele>1211.4</ele>
        <time>2019-06-01T13:17:45.000Z</time>
      </trkpt>
      <trkpt lat="45.19388" lon="5.54282">
        <ele>1213.8</ele>
        <time>2019-06-01T13:17:46.000Z</time>
      </trkpt>
      <trkpt lat="45.19399" lon="5.54287">
        <ele>1215.4</ele>
        <time>2019-06-01T13:17:47.000Z</time>
      </trkpt>
      <trkpt lat="45.19408" lon="5.54291">
        <ele>1216.4</ele>
        <time>2019-06-01T13:17:52.000Z</time>
      </trkpt>
      <trkpt lat="45.19409" lon="5.5429">
        <ele>1216.8</ele>
        <time>2019-06-01T13:17:53.000Z</time>
      </trkpt>
      <trkpt lat="45.19411" lon="5.54289">
        <ele>1217.4</ele>
        <time>2019-06-01T13:17:55.000Z</time>
      </trkpt>
      <trkpt lat="45.19416" lon="5.54286">
        <ele>1219.4</ele>
        <time>2019-06-01T13:17:57.000Z</time>
      </trkpt>
      <trkpt lat="45.19421" lon="5.54289">
        <ele>1221</ele>
        <time>2019-06-01T13:17:58.000Z</time>
      </trkpt>
      <trkpt lat="45.19423" lon="5.54291">
        <ele>1221.4</ele>
        <time>2019-06-01T13:18:01.000Z</time>
      </trkpt>
      <trkpt lat="45.19424" lon="5.54293">
        <ele>1221.4</ele>
        <time>2019-06-01T13:18:03.000Z</time>
      </trkpt>
      <trkpt lat="45.19429" lon="5.54296">
        <ele>1223</ele>
        <time>2019-06-01T13:18:05.000Z</time>
      </trkpt>
      <trkpt lat="45.1943" lon="5.54297">
        <ele>1223.2</ele>
        <time>2019-06-01T13:18:09.000Z</time>
      </trkpt>
      <trkpt lat="45.19435" lon="5.543">
        <ele>1223.8</ele>
        <time>2019-06-01T13:18:15.000Z</time>
      </trkpt>
      <trkpt lat="45.19437" lon="5.543">
        <ele>1224.4</ele>
        <time>2019-06-01T13:18:19.000Z</time>
      </trkpt>
      <trkpt lat="45.19438" lon="5.54301">
        <ele>1224.6</ele>
        <time>2019-06-01T13:18:23.000Z</time>
      </trkpt>
      <trkpt lat="45.19441" lon="5.543">
        <ele>1225</ele>
        <time>2019-06-01T13:18:24.000Z</time>
      </trkpt>
      <trkpt lat="45.19444" lon="5.543">
        <ele>1225.2</ele>
        <time>2019-06-01T13:18:41.000Z</time>
      </trkpt>
      <trkpt lat="45.19446" lon="5.54301">
        <ele>1225.4</ele>
        <time>2019-06-01T13:18:43.000Z</time>
      </trkpt>
      <trkpt lat="45.19451" lon="5.543">
        <ele>1225.6</ele>
        <time>2019-06-01T13:18:47.000Z</time>
      </trkpt>
      <trkpt lat="45.19458" lon="5.54306">
        <ele>1226</ele>
        <time>2019-06-01T13:18:49.000Z</time>
      </trkpt>
      <trkpt lat="45.19462" lon="5.54306">
        <ele>1226.2</ele>
        <time>2019-06-01T13:18:54.000Z</time>
      </trkpt>
      <trkpt lat="45.19467" lon="5.54308">
        <ele>1226.8</ele>
        <time>2019-06-01T13:18:57.000Z</time>
      </trkpt>
      <trkpt lat="45.19467" lon="5.54307">
        <ele>1227</ele>
        <time>2019-06-01T13:18:59.000Z</time>
      </trkpt>
      <trkpt lat="45.19481" lon="5.54318">
        <ele>1232</ele>
        <time>2019-06-01T13:19:04.000Z</time>
      </trkpt>
      <trkpt lat="45.19483" lon="5.54317">
        <ele>1232.4</ele>
        <time>2019-06-01T13:19:08.000Z</time>
      </trkpt>
      <trkpt lat="45.19483" lon="5.54314">
        <ele>1233.6</ele>
        <time>2019-06-01T13:19:09.000Z</time>
      </trkpt>
      <trkpt lat="45.19486" lon="5.54312">
        <ele>1234.2</ele>
        <time>2019-06-01T13:19:10.000Z</time>
      </trkpt>
      <trkpt lat="45.19495" lon="5.54311">
        <ele>1235.2</ele>
        <time>2019-06-01T13:19:14.000Z</time>
      </trkpt>
      <trkpt lat="45.19499" lon="5.54309">
        <ele>1235.8</ele>
        <time>2019-06-01T13:19:16.000Z</time>
      </trkpt>
      <trkpt lat="45.19502" lon="5.54308">
        <ele>1236.4</ele>
        <time>2019-06-01T13:19:20.000Z</time>
      </trkpt>
      <trkpt lat="45.19506" lon="5.54306">
        <ele>1237.6</ele>
        <time>2019-06-01T13:19:21.000Z</time>
      </trkpt>
      <trkpt lat="45.1951" lon="5.54305">
        <ele>1238.8</ele>
        <time>2019-06-01T13:19:25.000Z</time>
      </trkpt>
      <trkpt lat="45.19512" lon="5.54307">
        <ele>1239.2</ele>
        <time>2019-06-01T13:19:27.000Z</time>
      </trkpt>
      <trkpt lat="45.19513" lon="5.54308">
        <ele>1239.4</ele>
        <time>2019-06-01T13:19:29.000Z</time>
      </trkpt>
      <trkpt lat="45.19516" lon="5.54308">
        <ele>1240.4</ele>
        <time>2019-06-01T13:19:30.000Z</time>
      </trkpt>
      <trkpt lat="45.1952" lon="5.54309">
        <ele>1240.8</ele>
        <time>2019-06-01T13:19:35.000Z</time>
      </trkpt>
      <trkpt lat="45.19522" lon="5.54309">
        <ele>1241.6</ele>
        <time>2019-06-01T13:19:43.000Z</time>
      </trkpt>
      <trkpt lat="45.19523" lon="5.5431">
        <ele>1241.8</ele>
        <time>2019-06-01T13:19:45.000Z</time>
      </trkpt>
      <trkpt lat="45.19527" lon="5.54308">
        <ele>1242.4</ele>
        <time>2019-06-01T13:19:48.000Z</time>
      </trkpt>
      <trkpt lat="45.19527" lon="5.54307">
        <ele>1243</ele>
        <time>2019-06-01T13:19:49.000Z</time>
      </trkpt>
      <trkpt lat="45.19529" lon="5.54308">
        <ele>1243.4</ele>
        <time>2019-06-01T13:19:53.000Z</time>
      </trkpt>
      <trkpt lat="45.19531" lon="5.54308">
        <ele>1243.8</ele>
        <time>2019-06-01T13:19:54.000Z</time>
      </trkpt>
      <trkpt lat="45.19536" lon="5.5431">
        <ele>1245</ele>
        <time>2019-06-01T13:19:58.000Z</time>
      </trkpt>
      <trkpt lat="45.19538" lon="5.54311">
        <ele>1247.2</ele>
        <time>2019-06-01T13:19:59.000Z</time>
      </trkpt>
      <trkpt lat="45.19541" lon="5.54312">
        <ele>1247.4</ele>
        <time>2019-06-01T13:20:02.000Z</time>
      </trkpt>
      <trkpt lat="45.19543" lon="5.54311">
        <ele>1248.2</ele>
        <time>2019-06-01T13:20:03.000Z</time>
      </trkpt>
      <trkpt lat="45.19544" lon="5.5431">
        <ele>1248.4</ele>
        <time>2019-06-01T13:20:09.000Z</time>
      </trkpt>
      <trkpt lat="45.1955" lon="5.54312">
        <ele>1248.6</ele>
        <time>2019-06-01T13:20:40.000Z</time>
      </trkpt>
      <trkpt lat="45.19551" lon="5.54312">
        <ele>1249</ele>
        <time>2019-06-01T13:20:43.000Z</time>
      </trkpt>
      <trkpt lat="45.19555" lon="5.54312">
        <ele>1249.4</ele>
        <time>2019-06-01T13:20:47.000Z</time>
      </trkpt>
      <trkpt lat="45.19556" lon="5.54312">
        <ele>1249.2</ele>
        <time>2019-06-01T13:20:48.000Z</time>
      </trkpt>
      <trkpt lat="45.19554" lon="5.54308">
        <ele>1249.6</ele>
        <time>2019-06-01T13:20:53.000Z</time>
      </trkpt>
      <trkpt lat="45.19554" lon="5.54306">
        <ele>1250.2</ele>
        <time>2019-06-01T13:20:54.000Z</time>
      </trkpt>
      <trkpt lat="45.19557" lon="5.5431">
        <ele>1253</ele>
        <time>2019-06-01T13:20:56.000Z</time>
      </trkpt>
      <trkpt lat="45.19565" lon="5.54313">
        <ele>1260</ele>
        <time>2019-06-01T13:20:58.000Z</time>
      </trkpt>
      <trkpt lat="45.19569" lon="5.54317">
        <ele>1260.8</ele>
        <time>2019-06-01T13:21:09.000Z</time>
      </trkpt>
      <trkpt lat="45.19574" lon="5.5432">
        <ele>1260.8</ele>
        <time>2019-06-01T13:21:11.000Z</time>
      </trkpt>
      <trkpt lat="45.19574" lon="5.54319">
        <ele>1260.8</ele>
        <time>2019-06-01T13:21:14.000Z</time>
      </trkpt>
      <trkpt lat="45.19575" lon="5.54318">
        <ele>1261.8</ele>
        <time>2019-06-01T13:21:18.000Z</time>
      </trkpt>
      <trkpt lat="45.19576" lon="5.54316">
        <ele>1262</ele>
        <time>2019-06-01T13:21:20.000Z</time>
      </trkpt>
      <trkpt lat="45.1958" lon="5.54317">
        <ele>1262.4</ele>
        <time>2019-06-01T13:21:26.000Z</time>
      </trkpt>
      <trkpt lat="45.19581" lon="5.54319">
        <ele>1262.8</ele>
        <time>2019-06-01T13:21:29.000Z</time>
      </trkpt>
      <trkpt lat="45.19587" lon="5.54323">
        <ele>1266</ele>
        <time>2019-06-01T13:21:31.000Z</time>
      </trkpt>
      <trkpt lat="45.19588" lon="5.54321">
        <ele>1266.2</ele>
        <time>2019-06-01T13:21:37.000Z</time>
      </trkpt>
      <trkpt lat="45.19594" lon="5.54323">
        <ele>1267</ele>
        <time>2019-06-01T13:21:38.000Z</time>
      </trkpt>
      <trkpt lat="45.19599" lon="5.54322">
        <ele>1267.8</ele>
        <time>2019-06-01T13:21:43.000Z</time>
      </trkpt>
      <trkpt lat="45.196" lon="5.54321">
        <ele>1268</ele>
        <time>2019-06-01T13:21:47.000Z</time>
      </trkpt>
      <trkpt lat="45.19604" lon="5.54323">
        <ele>1269.4</ele>
        <time>2019-06-01T13:21:50.000Z</time>
      </trkpt>
      <trkpt lat="45.19606" lon="5.54323">
        <ele>1270</ele>
        <time>2019-06-01T13:21:51.000Z</time>
      </trkpt>
      <trkpt lat="45.19607" lon="5.54324">
        <ele>1270.2</ele>
        <time>2019-06-01T13:21:57.000Z</time>
      </trkpt>
      <trkpt lat="45.19612" lon="5.54325">
        <ele>1271</ele>
        <time>2019-06-01T13:22:02.000Z</time>
      </trkpt>
      <trkpt lat="45.19614" lon="5.54326">
        <ele>1271.4</ele>
        <time>2019-06-01T13:22:06.000Z</time>
      </trkpt>
      <trkpt lat="45.19617" lon="5.54326">
        <ele>1273</ele>
        <time>2019-06-01T13:22:12.000Z</time>
      </trkpt>
      <trkpt lat="45.19621" lon="5.54328">
        <ele>1274.4</ele>
        <time>2019-06-01T13:22:21.000Z</time>
      </trkpt>
      <trkpt lat="45.19624" lon="5.5433">
        <ele>1275.6</ele>
        <time>2019-06-01T13:22:27.000Z</time>
      </trkpt>
      <trkpt lat="45.19625" lon="5.5433">
        <ele>1275.8</ele>
        <time>2019-06-01T13:22:32.000Z</time>
      </trkpt>
      <trkpt lat="45.19634" lon="5.54338">
        <ele>1277.8</ele>
        <time>2019-06-01T13:22:43.000Z</time>
      </trkpt>
      <trkpt lat="45.19639" lon="5.54342">
        <ele>1278.8</ele>
        <time>2019-06-01T13:22:45.000Z</time>
      </trkpt>
      <trkpt lat="45.19641" lon="5.54341">
        <ele>1279</ele>
        <time>2019-06-01T13:22:51.000Z</time>
      </trkpt>
      <trkpt lat="45.19645" lon="5.54342">
        <ele>1280.6</ele>
        <time>2019-06-01T13:22:56.000Z</time>
      </trkpt>
      <trkpt lat="45.19653" lon="5.54349">
        <ele>1282.8</ele>
        <time>2019-06-01T13:23:02.000Z</time>
      </trkpt>
      <trkpt lat="45.19655" lon="5.5435">
        <ele>1284</ele>
        <time>2019-06-01T13:23:03.000Z</time>
      </trkpt>
      <trkpt lat="45.19659" lon="5.54357">
        <ele>1284.2</ele>
        <time>2019-06-01T13:23:06.000Z</time>
      </trkpt>
      <trkpt lat="45.19667" lon="5.54363">
        <ele>1285.4</ele>
        <time>2019-06-01T13:23:09.000Z</time>
      </trkpt>
      <trkpt lat="45.19668" lon="5.54363">
        <ele>1285.6</ele>
        <time>2019-06-01T13:23:15.000Z</time>
      </trkpt>
      <trkpt lat="45.19671" lon="5.5436">
        <ele>1288</ele>
        <time>2019-06-01T13:23:16.000Z</time>
      </trkpt>
      <trkpt lat="45.19675" lon="5.54359">
        <ele>1288.4</ele>
        <time>2019-06-01T13:23:21.000Z</time>
      </trkpt>
      <trkpt lat="45.19676" lon="5.54359">
        <ele>1288.4</ele>
        <time>2019-06-01T13:23:23.000Z</time>
      </trkpt>
      <trkpt lat="45.19678" lon="5.54359">
        <ele>1288.6</ele>
        <time>2019-06-01T13:23:27.000Z</time>
      </trkpt>
      <trkpt lat="45.19681" lon="5.54358">
        <ele>1288.4</ele>
        <time>2019-06-01T13:23:28.000Z</time>
      </trkpt>
      <trkpt lat="45.19683" lon="5.54359">
        <ele>1288.4</ele>
        <time>2019-06-01T13:23:33.000Z</time>
      </trkpt>
      <trkpt lat="45.19689" lon="5.54358">
        <ele>1288.2</ele>
        <time>2019-06-01T13:23:35.000Z</time>
      </trkpt>
      <trkpt lat="45.19689" lon="5.5436">
        <ele>1288</ele>
        <time>2019-06-01T13:23:37.000Z</time>
      </trkpt>
      <trkpt lat="45.19695" lon="5.54362">
        <ele>1287.8</ele>
        <time>2019-06-01T13:23:47.000Z</time>
      </trkpt>
      <trkpt lat="45.19696" lon="5.54361">
        <ele>1287.8</ele>
        <time>2019-06-01T13:23:53.000Z</time>
      </trkpt>
      <trkpt lat="45.19697" lon="5.54362">
        <ele>1288.2</ele>
        <time>2019-06-01T13:23:58.000Z</time>
      </trkpt>
      <trkpt lat="45.19697" lon="5.54363">
        <ele>1288.6</ele>
        <time>2019-06-01T13:24:07.000Z</time>
      </trkpt>
      <trkpt lat="45.19697" lon="5.54362">
        <ele>1290.4</ele>
        <time>2019-06-01T13:24:08.000Z</time>
      </trkpt>
      <trkpt lat="45.19698" lon="5.54362">
        <ele>1291.4</ele>
        <time>2019-06-01T13:24:09.000Z</time>
      </trkpt>
      <trkpt lat="45.197" lon="5.54363">
        <ele>1292</ele>
        <time>2019-06-01T13:24:11.000Z</time>
      </trkpt>
      <trkpt lat="45.19703" lon="5.54367">
        <ele>1297.6</ele>
        <time>2019-06-01T13:24:12.000Z</time>
      </trkpt>
      <trkpt lat="45.19708" lon="5.54374">
        <ele>1302.2</ele>
        <time>2019-06-01T13:24:15.000Z</time>
      </trkpt>
      <trkpt lat="45.1972" lon="5.5438">
        <ele>1304.6</ele>
        <time>2019-06-01T13:24:18.000Z</time>
      </trkpt>
      <trkpt lat="45.19732" lon="5.54377">
        <ele>1307.2</ele>
        <time>2019-06-01T13:24:24.000Z</time>
      </trkpt>
      <trkpt lat="45.19733" lon="5.54377">
        <ele>1307.4</ele>
        <time>2019-06-01T13:24:30.000Z</time>
      </trkpt>
      <trkpt lat="45.19734" lon="5.54377">
        <ele>1307.6</ele>
        <time>2019-06-01T13:24:32.000Z</time>
      </trkpt>
      <trkpt lat="45.19734" lon="5.54376">
        <ele>1308</ele>
        <time>2019-06-01T13:24:34.000Z</time>
      </trkpt>
      <trkpt lat="45.19734" lon="5.54375">
        <ele>1308.6</ele>
        <time>2019-06-01T13:24:36.000Z</time>
      </trkpt>
      <trkpt lat="45.19733" lon="5.54372">
        <ele>1309.2</ele>
        <time>2019-06-01T13:24:43.000Z</time>
      </trkpt>
      <trkpt lat="45.19734" lon="5.5437">
        <ele>1309.8</ele>
        <time>2019-06-01T13:24:45.000Z</time>
      </trkpt>
      <trkpt lat="45.19739" lon="5.54377">
        <ele>1310.6</ele>
        <time>2019-06-01T13:24:47.000Z</time>
      </trkpt>
      <trkpt lat="45.19742" lon="5.54379">
        <ele>1311.2</ele>
        <time>2019-06-01T13:24:53.000Z</time>
      </trkpt>
      <trkpt lat="45.19741" lon="5.54377">
        <ele>1311.6</ele>
        <time>2019-06-01T13:24:58.000Z</time>
      </trkpt>
      <trkpt lat="45.19742" lon="5.54379">
        <ele>1312.2</ele>
        <time>2019-06-01T13:25:03.000Z</time>
      </trkpt>
      <trkpt lat="45.19744" lon="5.54381">
        <ele>1312.8</ele>
        <time>2019-06-01T13:25:09.000Z</time>
      </trkpt>
      <trkpt lat="45.19747" lon="5.54384">
        <ele>1314</ele>
        <time>2019-06-01T13:25:13.000Z</time>
      </trkpt>
      <trkpt lat="45.19747" lon="5.54385">
        <ele>1315</ele>
        <time>2019-06-01T13:25:15.000Z</time>
      </trkpt>
      <trkpt lat="45.19748" lon="5.54389">
        <ele>1315.8</ele>
        <time>2019-06-01T13:25:16.000Z</time>
      </trkpt>
      <trkpt lat="45.19751" lon="5.54394">
        <ele>1317.8</ele>
        <time>2019-06-01T13:25:19.000Z</time>
      </trkpt>
      <trkpt lat="45.19749" lon="5.54394">
        <ele>1319.8</ele>
        <time>2019-06-01T13:25:21.000Z</time>
      </trkpt>
      <trkpt lat="45.19751" lon="5.54397">
        <ele>1321.4</ele>
        <time>2019-06-01T13:25:23.000Z</time>
      </trkpt>
      <trkpt lat="45.19751" lon="5.54412">
        <ele>1323</ele>
        <time>2019-06-01T13:25:26.000Z</time>
      </trkpt>
      <trkpt lat="45.1975" lon="5.54417">
        <ele>1324</ele>
        <time>2019-06-01T13:25:28.000Z</time>
      </trkpt>
      <trkpt lat="45.1975" lon="5.54424">
        <ele>1324.2</ele>
        <time>2019-06-01T13:25:32.000Z</time>
      </trkpt>
      <trkpt lat="45.19753" lon="5.54429">
        <ele>1324.4</ele>
        <time>2019-06-01T13:25:35.000Z</time>
      </trkpt>
      <trkpt lat="45.19756" lon="5.54433">
        <ele>1324</ele>
        <time>2019-06-01T13:25:41.000Z</time>
      </trkpt>
      <trkpt lat="45.19758" lon="5.54437">
        <ele>1324</ele>
        <time>2019-06-01T13:25:50.000Z</time>
      </trkpt>
      <trkpt lat="45.19759" lon="5.5444">
        <ele>1324.6</ele>
        <time>2019-06-01T13:25:53.000Z</time>
      </trkpt>
      <trkpt lat="45.19759" lon="5.54438">
        <ele>1325</ele>
        <time>2019-06-01T13:26:22.000Z</time>
      </trkpt>
      <trkpt lat="45.19761" lon="5.54435">
        <ele>1325.2</ele>
        <time>2019-06-01T13:26:24.000Z</time>
      </trkpt>
      <trkpt lat="45.19765" lon="5.54434">
        <ele>1326</ele>
        <time>2019-06-01T13:26:26.000Z</time>
      </trkpt>
      <trkpt lat="45.19768" lon="5.54429">
        <ele>1327</ele>
        <time>2019-06-01T13:26:27.000Z</time>
      </trkpt>
      <trkpt lat="45.19772" lon="5.54433">
        <ele>1328</ele>
        <time>2019-06-01T13:26:31.000Z</time>
      </trkpt>
      <trkpt lat="45.1978" lon="5.54444">
        <ele>1328.4</ele>
        <time>2019-06-01T13:26:33.000Z</time>
      </trkpt>
      <trkpt lat="45.19781" lon="5.54445">
        <ele>1328.4</ele>
        <time>2019-06-01T13:26:36.000Z</time>
      </trkpt>
      <trkpt lat="45.1978" lon="5.5444">
        <ele>1331.8</ele>
        <time>2019-06-01T13:26:37.000Z</time>
      </trkpt>
      <trkpt lat="45.1978" lon="5.54444">
        <ele>1332.4</ele>
        <time>2019-06-01T13:26:42.000Z</time>
      </trkpt>
      <trkpt lat="45.19779" lon="5.54447">
        <ele>1332.4</ele>
        <time>2019-06-01T13:26:44.000Z</time>
      </trkpt>
      <trkpt lat="45.19778" lon="5.54448">
        <ele>1332.6</ele>
        <time>2019-06-01T13:26:46.000Z</time>
      </trkpt>
      <trkpt lat="45.19776" lon="5.54454">
        <ele>1332.2</ele>
        <time>2019-06-01T13:26:50.000Z</time>
      </trkpt>
      <trkpt lat="45.19777" lon="5.54458">
        <ele>1332.4</ele>
        <time>2019-06-01T13:26:53.000Z</time>
      </trkpt>
      <trkpt lat="45.19774" lon="5.54462">
        <ele>1332.6</ele>
        <time>2019-06-01T13:26:56.000Z</time>
      </trkpt>
      <trkpt lat="45.19774" lon="5.54464">
        <ele>1332.6</ele>
        <time>2019-06-01T13:27:01.000Z</time>
      </trkpt>
      <trkpt lat="45.19774" lon="5.54473">
        <ele>1333.2</ele>
        <time>2019-06-01T13:27:04.000Z</time>
      </trkpt>
      <trkpt lat="45.19775" lon="5.54475">
        <ele>1333.4</ele>
        <time>2019-06-01T13:27:07.000Z</time>
      </trkpt>
      <trkpt lat="45.19777" lon="5.5448">
        <ele>1333.4</ele>
        <time>2019-06-01T13:27:09.000Z</time>
      </trkpt>
      <trkpt lat="45.19778" lon="5.54488">
        <ele>1333.8</ele>
        <time>2019-06-01T13:27:11.000Z</time>
      </trkpt>
      <trkpt lat="45.19778" lon="5.54495">
        <ele>1334</ele>
        <time>2019-06-01T13:27:13.000Z</time>
      </trkpt>
      <trkpt lat="45.19777" lon="5.54501">
        <ele>1334.2</ele>
        <time>2019-06-01T13:27:19.000Z</time>
      </trkpt>
      <trkpt lat="45.19776" lon="5.54511">
        <ele>1334.4</ele>
        <time>2019-06-01T13:27:21.000Z</time>
      </trkpt>
      <trkpt lat="45.19777" lon="5.54516">
        <ele>1334.4</ele>
        <time>2019-06-01T13:27:22.000Z</time>
      </trkpt>
      <trkpt lat="45.19778" lon="5.54524">
        <ele>1334.4</ele>
        <time>2019-06-01T13:27:25.000Z</time>
      </trkpt>
      <trkpt lat="45.19781" lon="5.5453">
        <ele>1334.2</ele>
        <time>2019-06-01T13:27:28.000Z</time>
      </trkpt>
      <trkpt lat="45.19782" lon="5.54533">
        <ele>1334.2</ele>
        <time>2019-06-01T13:27:29.000Z</time>
      </trkpt>
      <trkpt lat="45.19783" lon="5.54535">
        <ele>1334.2</ele>
        <time>2019-06-01T13:27:31.000Z</time>
      </trkpt>
      <trkpt lat="45.19787" lon="5.5454">
        <ele>1334</ele>
        <time>2019-06-01T13:27:34.000Z</time>
      </trkpt>
      <trkpt lat="45.19788" lon="5.54543">
        <ele>1334</ele>
        <time>2019-06-01T13:27:36.000Z</time>
      </trkpt>
      <trkpt lat="45.19788" lon="5.54544">
        <ele>1333.8</ele>
        <time>2019-06-01T13:27:40.000Z</time>
      </trkpt>
      <trkpt lat="45.19788" lon="5.54547">
        <ele>1333.8</ele>
        <time>2019-06-01T13:27:41.000Z</time>
      </trkpt>
      <trkpt lat="45.19786" lon="5.54553">
        <ele>1333.8</ele>
        <time>2019-06-01T13:27:44.000Z</time>
      </trkpt>
      <trkpt lat="45.19785" lon="5.54554">
        <ele>1333.8</ele>
        <time>2019-06-01T13:27:55.000Z</time>
      </trkpt>
      <trkpt lat="45.19787" lon="5.54558">
        <ele>1333.8</ele>
        <time>2019-06-01T13:27:59.000Z</time>
      </trkpt>
      <trkpt lat="45.19788" lon="5.54562">
        <ele>1333.8</ele>
        <time>2019-06-01T13:28:02.000Z</time>
      </trkpt>
      <trkpt lat="45.19789" lon="5.54565">
        <ele>1334</ele>
        <time>2019-06-01T13:28:04.000Z</time>
      </trkpt>
      <trkpt lat="45.1979" lon="5.54568">
        <ele>1334.4</ele>
        <time>2019-06-01T13:28:07.000Z</time>
      </trkpt>
      <trkpt lat="45.19791" lon="5.54569">
        <ele>1334.6</ele>
        <time>2019-06-01T13:28:08.000Z</time>
      </trkpt>
      <trkpt lat="45.19792" lon="5.54572">
        <ele>1334.8</ele>
        <time>2019-06-01T13:28:10.000Z</time>
      </trkpt>
      <trkpt lat="45.19791" lon="5.54577">
        <ele>1336.8</ele>
        <time>2019-06-01T13:28:14.000Z</time>
      </trkpt>
      <trkpt lat="45.19788" lon="5.54584">
        <ele>1337.2</ele>
        <time>2019-06-01T13:28:16.000Z</time>
      </trkpt>
      <trkpt lat="45.19788" lon="5.54588">
        <ele>1337.8</ele>
        <time>2019-06-01T13:28:21.000Z</time>
      </trkpt>
      <trkpt lat="45.19789" lon="5.54591">
        <ele>1338.2</ele>
        <time>2019-06-01T13:28:31.000Z</time>
      </trkpt>
      <trkpt lat="45.1979" lon="5.54594">
        <ele>1339</ele>
        <time>2019-06-01T13:28:36.000Z</time>
      </trkpt>
      <trkpt lat="45.1979" lon="5.54595">
        <ele>1339.2</ele>
        <time>2019-06-01T13:28:38.000Z</time>
      </trkpt>
      <trkpt lat="45.19794" lon="5.54599">
        <ele>1339.6</ele>
        <time>2019-06-01T13:28:40.000Z</time>
      </trkpt>
      <trkpt lat="45.19798" lon="5.54606">
        <ele>1340.4</ele>
        <time>2019-06-01T13:28:43.000Z</time>
      </trkpt>
      <trkpt lat="45.19798" lon="5.54608">
        <ele>1340.8</ele>
        <time>2019-06-01T13:28:46.000Z</time>
      </trkpt>
      <trkpt lat="45.19802" lon="5.54613">
        <ele>1341.8</ele>
        <time>2019-06-01T13:28:48.000Z</time>
      </trkpt>
      <trkpt lat="45.19805" lon="5.54619">
        <ele>1343.8</ele>
        <time>2019-06-01T13:28:55.000Z</time>
      </trkpt>
      <trkpt lat="45.19806" lon="5.54628">
        <ele>1344.8</ele>
        <time>2019-06-01T13:29:00.000Z</time>
      </trkpt>
      <trkpt lat="45.19807" lon="5.54635">
        <ele>1344.8</ele>
        <time>2019-06-01T13:29:06.000Z</time>
      </trkpt>
      <trkpt lat="45.19808" lon="5.54638">
        <ele>1345.2</ele>
        <time>2019-06-01T13:29:11.000Z</time>
      </trkpt>
      <trkpt lat="45.19812" lon="5.54639">
        <ele>1345.2</ele>
        <time>2019-06-01T13:29:14.000Z</time>
      </trkpt>
      <trkpt lat="45.19818" lon="5.54641">
        <ele>1345.4</ele>
        <time>2019-06-01T13:29:17.000Z</time>
      </trkpt>
      <trkpt lat="45.19821" lon="5.54644">
        <ele>1345.4</ele>
        <time>2019-06-01T13:29:18.000Z</time>
      </trkpt>
      <trkpt lat="45.19834" lon="5.54652">
        <ele>1345.2</ele>
        <time>2019-06-01T13:29:22.000Z</time>
      </trkpt>
      <trkpt lat="45.19844" lon="5.54662">
        <ele>1345.2</ele>
        <time>2019-06-01T13:29:23.000Z</time>
      </trkpt>
      <trkpt lat="45.19853" lon="5.54674">
        <ele>1344.8</ele>
        <time>2019-06-01T13:29:24.000Z</time>
      </trkpt>
      <trkpt lat="45.19857" lon="5.5468">
        <ele>1344.4</ele>
        <time>2019-06-01T13:29:28.000Z</time>
      </trkpt>
      <trkpt lat="45.19861" lon="5.54678">
        <ele>1344.2</ele>
        <time>2019-06-01T13:29:30.000Z</time>
      </trkpt>
      <trkpt lat="45.19866" lon="5.54672">
        <ele>1344</ele>
        <time>2019-06-01T13:29:32.000Z</time>
      </trkpt>
      <trkpt lat="45.19868" lon="5.54671">
        <ele>1343.8</ele>
        <time>2019-06-01T13:29:36.000Z</time>
      </trkpt>
      <trkpt lat="45.19876" lon="5.54669">
        <ele>1343.4</ele>
        <time>2019-06-01T13:29:37.000Z</time>
      </trkpt>
      <trkpt lat="45.19876" lon="5.54669">
        <ele>1343.4</ele>
        <time>2019-06-01T13:29:39.000Z</time>
      </trkpt>
      <trkpt lat="45.19878" lon="5.54671">
        <ele>1343.2</ele>
        <time>2019-06-01T13:29:41.000Z</time>
      </trkpt>
      <trkpt lat="45.19884" lon="5.54676">
        <ele>1342.8</ele>
        <time>2019-06-01T13:29:45.000Z</time>
      </trkpt>
      <trkpt lat="45.19886" lon="5.54675">
        <ele>1342.4</ele>
        <time>2019-06-01T13:29:47.000Z</time>
      </trkpt>
      <trkpt lat="45.19891" lon="5.54673">
        <ele>1342.2</ele>
        <time>2019-06-01T13:29:54.000Z</time>
      </trkpt>
      <trkpt lat="45.19901" lon="5.54668">
        <ele>1341.6</ele>
        <time>2019-06-01T13:29:58.000Z</time>
      </trkpt>
      <trkpt lat="45.19902" lon="5.54668">
        <ele>1341.4</ele>
        <time>2019-06-01T13:30:00.000Z</time>
      </trkpt>
      <trkpt lat="45.19908" lon="5.54671">
        <ele>1341</ele>
        <time>2019-06-01T13:30:02.000Z</time>
      </trkpt>
      <trkpt lat="45.19914" lon="5.54672">
        <ele>1340.8</ele>
        <time>2019-06-01T13:30:05.000Z</time>
      </trkpt>
      <trkpt lat="45.19923" lon="5.54673">
        <ele>1340.2</ele>
        <time>2019-06-01T13:30:06.000Z</time>
      </trkpt>
      <trkpt lat="45.19928" lon="5.54671">
        <ele>1339.8</ele>
        <time>2019-06-01T13:30:12.000Z</time>
      </trkpt>
      <trkpt lat="45.1994" lon="5.54669">
        <ele>1338.6</ele>
        <time>2019-06-01T13:30:19.000Z</time>
      </trkpt>
      <trkpt lat="45.19951" lon="5.54672">
        <ele>1338</ele>
        <time>2019-06-01T13:30:24.000Z</time>
      </trkpt>
      <trkpt lat="45.19955" lon="5.54672">
        <ele>1337.6</ele>
        <time>2019-06-01T13:30:26.000Z</time>
      </trkpt>
      <trkpt lat="45.1996" lon="5.54672">
        <ele>1337.2</ele>
        <time>2019-06-01T13:30:30.000Z</time>
      </trkpt>
      <trkpt lat="45.19966" lon="5.54676">
        <ele>1336.8</ele>
        <time>2019-06-01T13:30:36.000Z</time>
      </trkpt>
      <trkpt lat="45.19967" lon="5.54676">
        <ele>1336.8</ele>
        <time>2019-06-01T13:30:44.000Z</time>
      </trkpt>
      <trkpt lat="45.19977" lon="5.54683">
        <ele>1335.8</ele>
        <time>2019-06-01T13:30:45.000Z</time>
      </trkpt>
      <trkpt lat="45.19989" lon="5.54696">
        <ele>1335.2</ele>
        <time>2019-06-01T13:30:51.000Z</time>
      </trkpt>
      <trkpt lat="45.19998" lon="5.54708">
        <ele>1334.6</ele>
        <time>2019-06-01T13:30:53.000Z</time>
      </trkpt>
      <trkpt lat="45.20002" lon="5.54714">
        <ele>1334.4</ele>
        <time>2019-06-01T13:30:56.000Z</time>
      </trkpt>
      <trkpt lat="45.20005" lon="5.54719">
        <ele>1334.2</ele>
        <time>2019-06-01T13:31:00.000Z</time>
      </trkpt>
      <trkpt lat="45.20013" lon="5.54728">
        <ele>1333.6</ele>
        <time>2019-06-01T13:31:01.000Z</time>
      </trkpt>
      <trkpt lat="45.20022" lon="5.54736">
        <ele>1333</ele>
        <time>2019-06-01T13:31:03.000Z</time>
      </trkpt>
      <trkpt lat="45.20023" lon="5.54738">
        <ele>1332.8</ele>
        <time>2019-06-01T13:31:04.000Z</time>
      </trkpt>
      <trkpt lat="45.20027" lon="5.5474">
        <ele>1332.4</ele>
        <time>2019-06-01T13:31:11.000Z</time>
      </trkpt>
      <trkpt lat="45.20029" lon="5.54745">
        <ele>1332.2</ele>
        <time>2019-06-01T13:31:15.000Z</time>
      </trkpt>
      <trkpt lat="45.20032" lon="5.54753">
        <ele>1332</ele>
        <time>2019-06-01T13:31:15.000Z</time>
      </trkpt>
      <trkpt lat="45.20034" lon="5.54759">
        <ele>1331.6</ele>
        <time>2019-06-01T13:31:20.000Z</time>
      </trkpt>
      <trkpt lat="45.20035" lon="5.54761">
        <ele>1331.6</ele>
        <time>2019-06-01T13:31:23.000Z</time>
      </trkpt>
      <trkpt lat="45.20035" lon="5.54764">
        <ele>1331.4</ele>
        <time>2019-06-01T13:31:26.000Z</time>
      </trkpt>
      <trkpt lat="45.20035" lon="5.54765">
        <ele>1331.2</ele>
        <time>2019-06-01T13:31:30.000Z</time>
      </trkpt>
      <trkpt lat="45.20037" lon="5.54766">
        <ele>1331</ele>
        <time>2019-06-01T13:31:32.000Z</time>
      </trkpt>
      <trkpt lat="45.20037" lon="5.54767">
        <ele>1331</ele>
        <time>2019-06-01T13:31:36.000Z</time>
      </trkpt>
      <trkpt lat="45.20037" lon="5.54767">
        <ele>1331</ele>
        <time>2019-06-01T13:31:38.000Z</time>
      </trkpt>
      <trkpt lat="45.20039" lon="5.54776">
        <ele>1330.8</ele>
        <time>2019-06-01T13:31:43.000Z</time>
      </trkpt>
      <trkpt lat="45.20042" lon="5.54782">
        <ele>1330.6</ele>
        <time>2019-06-01T13:31:45.000Z</time>
      </trkpt>
      <trkpt lat="45.20045" lon="5.54788">
        <ele>1330.4</ele>
        <time>2019-06-01T13:31:50.000Z</time>
      </trkpt>
      <trkpt lat="45.2005" lon="5.54794">
        <ele>1330</ele>
        <time>2019-06-01T13:31:53.000Z</time>
      </trkpt>
      <trkpt lat="45.20052" lon="5.54797">
        <ele>1329.8</ele>
        <time>2019-06-01T13:31:56.000Z</time>
      </trkpt>
      <trkpt lat="45.20056" lon="5.54805">
        <ele>1329.6</ele>
        <time>2019-06-01T13:32:00.000Z</time>
      </trkpt>
      <trkpt lat="45.20059" lon="5.54811">
        <ele>1329.4</ele>
        <time>2019-06-01T13:32:02.000Z</time>
      </trkpt>
      <trkpt lat="45.20064" lon="5.54825">
        <ele>1329</ele>
        <time>2019-06-01T13:32:05.000Z</time>
      </trkpt>
      <trkpt lat="45.20066" lon="5.54831">
        <ele>1328.8</ele>
        <time>2019-06-01T13:32:08.000Z</time>
      </trkpt>
      <trkpt lat="45.2007" lon="5.54842">
        <ele>1328.4</ele>
        <time>2019-06-01T13:32:13.000Z</time>
      </trkpt>
      <trkpt lat="45.20073" lon="5.54847">
        <ele>1328.2</ele>
        <time>2019-06-01T13:32:19.000Z</time>
      </trkpt>
      <trkpt lat="45.20073" lon="5.54851">
        <ele>1328</ele>
        <time>2019-06-01T13:32:20.000Z</time>
      </trkpt>
      <trkpt lat="45.20076" lon="5.54856">
        <ele>1327.6</ele>
        <time>2019-06-01T13:32:23.000Z</time>
      </trkpt>
      <trkpt lat="45.20077" lon="5.54859">
        <ele>1327.4</ele>
        <time>2019-06-01T13:32:35.000Z</time>
      </trkpt>
      <trkpt lat="45.20081" lon="5.54862">
        <ele>1327</ele>
        <time>2019-06-01T13:32:41.000Z</time>
      </trkpt>
      <trkpt lat="45.20083" lon="5.54867">
        <ele>1326.6</ele>
        <time>2019-06-01T13:32:48.000Z</time>
      </trkpt>
      <trkpt lat="45.20084" lon="5.54875">
        <ele>1326</ele>
        <time>2019-06-01T13:32:51.000Z</time>
      </trkpt>
      <trkpt lat="45.20084" lon="5.54884">
        <ele>1325.4</ele>
        <time>2019-06-01T13:32:52.000Z</time>
      </trkpt>
      <trkpt lat="45.20084" lon="5.54885">
        <ele>1325.2</ele>
        <time>2019-06-01T13:32:57.000Z</time>
      </trkpt>
      <trkpt lat="45.20084" lon="5.54888">
        <ele>1325</ele>
        <time>2019-06-01T13:32:58.000Z</time>
      </trkpt>
      <trkpt lat="45.20087" lon="5.54898">
        <ele>1324.2</ele>
        <time>2019-06-01T13:33:04.000Z</time>
      </trkpt>
      <trkpt lat="45.20082" lon="5.54914">
        <ele>1323.8</ele>
        <time>2019-06-01T13:33:16.000Z</time>
      </trkpt>
      <trkpt lat="45.2008" lon="5.54931">
        <ele>1323.4</ele>
        <time>2019-06-01T13:33:17.000Z</time>
      </trkpt>
      <trkpt lat="45.20077" lon="5.54941">
        <ele>1323.2</ele>
        <time>2019-06-01T13:33:18.000Z</time>
      </trkpt>
      <trkpt lat="45.20075" lon="5.54942">
        <ele>1323.2</ele>
        <time>2019-06-01T13:33:21.000Z</time>
      </trkpt>
      <trkpt lat="45.20069" lon="5.54949">
        <ele>1323.2</ele>
        <time>2019-06-01T13:33:25.000Z</time>
      </trkpt>
      <trkpt lat="45.20068" lon="5.54952">
        <ele>1323</ele>
        <time>2019-06-01T13:33:28.000Z</time>
      </trkpt>
      <trkpt lat="45.20067" lon="5.54955">
        <ele>1323</ele>
        <time>2019-06-01T13:33:30.000Z</time>
      </trkpt>
      <trkpt lat="45.20068" lon="5.54942">
        <ele>1322.8</ele>
        <time>2019-06-01T13:33:34.000Z</time>
      </trkpt>
      <trkpt lat="45.20069" lon="5.54942">
        <ele>1322.8</ele>
        <time>2019-06-01T13:33:35.000Z</time>
      </trkpt>
      <trkpt lat="45.20069" lon="5.54939">
        <ele>1322.8</ele>
        <time>2019-06-01T13:33:40.000Z</time>
      </trkpt>
      <trkpt lat="45.20071" lon="5.54935">
        <ele>1323</ele>
        <time>2019-06-01T13:33:42.000Z</time>
      </trkpt>
      <trkpt lat="45.20073" lon="5.54938">
        <ele>1323.2</ele>
        <time>2019-06-01T13:33:45.000Z</time>
      </trkpt>
      <trkpt lat="45.20071" lon="5.54942">
        <ele>1322.8</ele>
        <time>2019-06-01T13:33:49.000Z</time>
      </trkpt>
      <trkpt lat="45.2007" lon="5.54944">
        <ele>1322.8</ele>
        <time>2019-06-01T13:33:58.000Z</time>
      </trkpt>
      <trkpt lat="45.20071" lon="5.54948">
        <ele>1322.8</ele>
        <time>2019-06-01T13:34:01.000Z</time>
      </trkpt>
      <trkpt lat="45.2007" lon="5.5495">
        <ele>1322.6</ele>
        <time>2019-06-01T13:34:04.000Z</time>
      </trkpt>
      <trkpt lat="45.20071" lon="5.5495">
        <ele>1322.6</ele>
        <time>2019-06-01T13:34:08.000Z</time>
      </trkpt>
      <trkpt lat="45.20072" lon="5.54954">
        <ele>1322.4</ele>
        <time>2019-06-01T13:34:11.000Z</time>
      </trkpt>
      <trkpt lat="45.20072" lon="5.5496">
        <ele>1322.4</ele>
        <time>2019-06-01T13:34:15.000Z</time>
      </trkpt>
      <trkpt lat="45.20072" lon="5.54962">
        <ele>1322.2</ele>
        <time>2019-06-01T13:34:22.000Z</time>
      </trkpt>
      <trkpt lat="45.20071" lon="5.54963">
        <ele>1321.6</ele>
        <time>2019-06-01T13:34:25.000Z</time>
      </trkpt>
      <trkpt lat="45.20072" lon="5.54964">
        <ele>1321.4</ele>
        <time>2019-06-01T13:34:27.000Z</time>
      </trkpt>
      <trkpt lat="45.20074" lon="5.54969">
        <ele>1321.2</ele>
        <time>2019-06-01T13:34:36.000Z</time>
      </trkpt>
      <trkpt lat="45.20076" lon="5.54973">
        <ele>1321</ele>
        <time>2019-06-01T13:34:40.000Z</time>
      </trkpt>
      <trkpt lat="45.20079" lon="5.54981">
        <ele>1320.8</ele>
        <time>2019-06-01T13:34:47.000Z</time>
      </trkpt>
      <trkpt lat="45.20083" lon="5.5499">
        <ele>1320.4</ele>
        <time>2019-06-01T13:34:55.000Z</time>
      </trkpt>
      <trkpt lat="45.20075" lon="5.55004">
        <ele>1320</ele>
        <time>2019-06-01T13:35:00.000Z</time>
      </trkpt>
      <trkpt lat="45.20075" lon="5.55011">
        <ele>1320</ele>
        <time>2019-06-01T13:35:03.000Z</time>
      </trkpt>
      <trkpt lat="45.20077" lon="5.5501">
        <ele>1320</ele>
        <time>2019-06-01T13:35:12.000Z</time>
      </trkpt>
      <trkpt lat="45.20079" lon="5.55012">
        <ele>1321.4</ele>
        <time>2019-06-01T13:35:13.000Z</time>
      </trkpt>
      <trkpt lat="45.20079" lon="5.55008">
        <ele>1321.8</ele>
        <time>2019-06-01T13:35:16.000Z</time>
      </trkpt>
      <trkpt lat="45.20087" lon="5.55002">
        <ele>1322.2</ele>
        <time>2019-06-01T13:35:29.000Z</time>
      </trkpt>
      <trkpt lat="45.20096" lon="5.55">
        <ele>1322.4</ele>
        <time>2019-06-01T13:35:33.000Z</time>
      </trkpt>
      <trkpt lat="45.20097" lon="5.55002">
        <ele>1322.6</ele>
        <time>2019-06-01T13:35:34.000Z</time>
      </trkpt>
      <trkpt lat="45.20097" lon="5.55006">
        <ele>1322.8</ele>
        <time>2019-06-01T13:35:38.000Z</time>
      </trkpt>
      <trkpt lat="45.20095" lon="5.55001">
        <ele>1324.6</ele>
        <time>2019-06-01T13:35:40.000Z</time>
      </trkpt>
      <trkpt lat="45.20095" lon="5.55003">
        <ele>1324.6</ele>
        <time>2019-06-01T13:35:41.000Z</time>
      </trkpt>
      <trkpt lat="45.20096" lon="5.55004">
        <ele>1325</ele>
        <time>2019-06-01T13:35:45.000Z</time>
      </trkpt>
      <trkpt lat="45.20106" lon="5.55017">
        <ele>1327.2</ele>
        <time>2019-06-01T13:35:51.000Z</time>
      </trkpt>
      <trkpt lat="45.20107" lon="5.55023">
        <ele>1327.4</ele>
        <time>2019-06-01T13:35:57.000Z</time>
      </trkpt>
      <trkpt lat="45.20109" lon="5.55025">
        <ele>1327.4</ele>
        <time>2019-06-01T13:36:01.000Z</time>
      </trkpt>
      <trkpt lat="45.20112" lon="5.5503">
        <ele>1327.2</ele>
        <time>2019-06-01T13:36:04.000Z</time>
      </trkpt>
      <trkpt lat="45.20113" lon="5.55032">
        <ele>1327</ele>
        <time>2019-06-01T13:36:07.000Z</time>
      </trkpt>
      <trkpt lat="45.20112" lon="5.55034">
        <ele>1327</ele>
        <time>2019-06-01T13:36:11.000Z</time>
      </trkpt>
      <trkpt lat="45.20115" lon="5.55041">
        <ele>1326.8</ele>
        <time>2019-06-01T13:36:14.000Z</time>
      </trkpt>
      <trkpt lat="45.20121" lon="5.55053">
        <ele>1326.4</ele>
        <time>2019-06-01T13:36:15.000Z</time>
      </trkpt>
      <trkpt lat="45.20128" lon="5.55059">
        <ele>1326.4</ele>
        <time>2019-06-01T13:36:20.000Z</time>
      </trkpt>
      <trkpt lat="45.20129" lon="5.55062">
        <ele>1326.2</ele>
        <time>2019-06-01T13:36:24.000Z</time>
      </trkpt>
      <trkpt lat="45.2013" lon="5.55063">
        <ele>1326.2</ele>
        <time>2019-06-01T13:36:26.000Z</time>
      </trkpt>
      <trkpt lat="45.2013" lon="5.5506">
        <ele>1326.2</ele>
        <time>2019-06-01T13:36:33.000Z</time>
      </trkpt>
      <trkpt lat="45.2013" lon="5.5506">
        <ele>1326.2</ele>
        <time>2019-06-01T13:36:34.000Z</time>
      </trkpt>
      <trkpt lat="45.20132" lon="5.55064">
        <ele>1326.2</ele>
        <time>2019-06-01T13:36:38.000Z</time>
      </trkpt>
      <trkpt lat="45.20133" lon="5.55064">
        <ele>1326.2</ele>
        <time>2019-06-01T13:36:39.000Z</time>
      </trkpt>
      <trkpt lat="45.20137" lon="5.55063">
        <ele>1326</ele>
        <time>2019-06-01T13:36:41.000Z</time>
      </trkpt>
      <trkpt lat="45.20142" lon="5.55065">
        <ele>1326</ele>
        <time>2019-06-01T13:36:42.000Z</time>
      </trkpt>
      <trkpt lat="45.20145" lon="5.55064">
        <ele>1325.8</ele>
        <time>2019-06-01T13:36:47.000Z</time>
      </trkpt>
      <trkpt lat="45.20159" lon="5.55063">
        <ele>1325.6</ele>
        <time>2019-06-01T13:36:49.000Z</time>
      </trkpt>
      <trkpt lat="45.20161" lon="5.55064">
        <ele>1325.6</ele>
        <time>2019-06-01T13:36:52.000Z</time>
      </trkpt>
      <trkpt lat="45.20168" lon="5.55067">
        <ele>1325.4</ele>
        <time>2019-06-01T13:36:57.000Z</time>
      </trkpt>
      <trkpt lat="45.20169" lon="5.55065">
        <ele>1325.4</ele>
        <time>2019-06-01T13:36:58.000Z</time>
      </trkpt>
      <trkpt lat="45.20171" lon="5.55066">
        <ele>1325.4</ele>
        <time>2019-06-01T13:37:00.000Z</time>
      </trkpt>
      <trkpt lat="45.20172" lon="5.55068">
        <ele>1325.4</ele>
        <time>2019-06-01T13:37:01.000Z</time>
      </trkpt>
      <trkpt lat="45.2018" lon="5.55086">
        <ele>1325</ele>
        <time>2019-06-01T13:37:08.000Z</time>
      </trkpt>
      <trkpt lat="45.20179" lon="5.55091">
        <ele>1324.8</ele>
        <time>2019-06-01T13:37:13.000Z</time>
      </trkpt>
      <trkpt lat="45.2018" lon="5.55101">
        <ele>1324.8</ele>
        <time>2019-06-01T13:37:18.000Z</time>
      </trkpt>
      <trkpt lat="45.20183" lon="5.55114">
        <ele>1324.6</ele>
        <time>2019-06-01T13:37:20.000Z</time>
      </trkpt>
      <trkpt lat="45.20184" lon="5.55116">
        <ele>1324.4</ele>
        <time>2019-06-01T13:37:24.000Z</time>
      </trkpt>
      <trkpt lat="45.20183" lon="5.55118">
        <ele>1324.6</ele>
        <time>2019-06-01T13:37:30.000Z</time>
      </trkpt>
      <trkpt lat="45.20183" lon="5.55122">
        <ele>1324.6</ele>
        <time>2019-06-01T13:37:35.000Z</time>
      </trkpt>
      <trkpt lat="45.20181" lon="5.55134">
        <ele>1325.2</ele>
        <time>2019-06-01T13:37:35.000Z</time>
      </trkpt>
      <trkpt lat="45.20175" lon="5.55147">
        <ele>1325.2</ele>
        <time>2019-06-01T13:37:40.000Z</time>
      </trkpt>
      <trkpt lat="45.20167" lon="5.55159">
        <ele>1325</ele>
        <time>2019-06-01T13:37:41.000Z</time>
      </trkpt>
      <trkpt lat="45.20165" lon="5.55167">
        <ele>1324.8</ele>
        <time>2019-06-01T13:37:44.000Z</time>
      </trkpt>
      <trkpt lat="45.20162" lon="5.55181">
        <ele>1324.6</ele>
        <time>2019-06-01T13:37:47.000Z</time>
      </trkpt>
      <trkpt lat="45.20159" lon="5.55203">
        <ele>1324.4</ele>
        <time>2019-06-01T14:08:28.000Z</time>
      </trkpt>
      <trkpt lat="45.20153" lon="5.55224">
        <ele>1324.4</ele>
        <time>2019-06-01T14:08:34.000Z</time>
      </trkpt>
      <trkpt lat="45.20153" lon="5.55224">
        <ele>1324.4</ele>
        <time>2019-06-01T14:08:37.000Z</time>
      </trkpt>
      <trkpt lat="45.20145" lon="5.55238">
        <ele>1324.8</ele>
        <time>2019-06-01T14:08:40.000Z</time>
      </trkpt>
      <trkpt lat="45.20143" lon="5.55241">
        <ele>1324.8</ele>
        <time>2019-06-01T14:08:44.000Z</time>
      </trkpt>
      <trkpt lat="45.20139" lon="5.5525">
        <ele>1325</ele>
        <time>2019-06-01T14:08:46.000Z</time>
      </trkpt>
      <trkpt lat="45.20143" lon="5.55261">
        <ele>1324.8</ele>
        <time>2019-06-01T14:08:48.000Z</time>
      </trkpt>
      <trkpt lat="45.20138" lon="5.55279">
        <ele>1329</ele>
        <time>2019-06-01T14:08:49.000Z</time>
      </trkpt>
      <trkpt lat="45.20138" lon="5.55288">
        <ele>1328.4</ele>
        <time>2019-06-01T14:08:53.000Z</time>
      </trkpt>
      <trkpt lat="45.20137" lon="5.5529">
        <ele>1328</ele>
        <time>2019-06-01T14:08:57.000Z</time>
      </trkpt>
      <trkpt lat="45.20133" lon="5.55292">
        <ele>1327.8</ele>
        <time>2019-06-01T14:09:01.000Z</time>
      </trkpt>
      <trkpt lat="45.20121" lon="5.55301">
        <ele>1327.6</ele>
        <time>2019-06-01T14:09:05.000Z</time>
      </trkpt>
      <trkpt lat="45.20114" lon="5.55303">
        <ele>1327.4</ele>
        <time>2019-06-01T14:09:06.000Z</time>
      </trkpt>
      <trkpt lat="45.20108" lon="5.55305">
        <ele>1327.2</ele>
        <time>2019-06-01T14:09:09.000Z</time>
      </trkpt>
      <trkpt lat="45.20105" lon="5.55306">
        <ele>1327.2</ele>
        <time>2019-06-01T14:09:14.000Z</time>
      </trkpt>
      <trkpt lat="45.20093" lon="5.55308">
        <ele>1326.8</ele>
        <time>2019-06-01T14:09:16.000Z</time>
      </trkpt>
      <trkpt lat="45.20089" lon="5.55312">
        <ele>1326.6</ele>
        <time>2019-06-01T14:09:18.000Z</time>
      </trkpt>
      <trkpt lat="45.20087" lon="5.55315">
        <ele>1326.2</ele>
        <time>2019-06-01T14:09:23.000Z</time>
      </trkpt>
      <trkpt lat="45.20084" lon="5.55315">
        <ele>1326</ele>
        <time>2019-06-01T14:09:24.000Z</time>
      </trkpt>
      <trkpt lat="45.20082" lon="5.55317">
        <ele>1326</ele>
        <time>2019-06-01T14:09:27.000Z</time>
      </trkpt>
      <trkpt lat="45.20074" lon="5.55321">
        <ele>1325.8</ele>
        <time>2019-06-01T14:09:31.000Z</time>
      </trkpt>
      <trkpt lat="45.20063" lon="5.55333">
        <ele>1325.4</ele>
        <time>2019-06-01T14:09:34.000Z</time>
      </trkpt>
      <trkpt lat="45.20057" lon="5.55338">
        <ele>1325.2</ele>
        <time>2019-06-01T14:09:36.000Z</time>
      </trkpt>
      <trkpt lat="45.20051" lon="5.55341">
        <ele>1325.2</ele>
        <time>2019-06-01T14:09:40.000Z</time>
      </trkpt>
      <trkpt lat="45.20041" lon="5.55342">
        <ele>1324.8</ele>
        <time>2019-06-01T14:09:44.000Z</time>
      </trkpt>
      <trkpt lat="45.20039" lon="5.55344">
        <ele>1324.8</ele>
        <time>2019-06-01T14:09:49.000Z</time>
      </trkpt>
      <trkpt lat="45.20032" lon="5.55352">
        <ele>1324.6</ele>
        <time>2019-06-01T14:09:50.000Z</time>
      </trkpt>
      <trkpt lat="45.20025" lon="5.55358">
        <ele>1324</ele>
        <time>2019-06-01T14:09:53.000Z</time>
      </trkpt>
      <trkpt lat="45.2002" lon="5.55365">
        <ele>1323.6</ele>
        <time>2019-06-01T14:09:59.000Z</time>
      </trkpt>
      <trkpt lat="45.20017" lon="5.55372">
        <ele>1323.4</ele>
        <time>2019-06-01T14:10:01.000Z</time>
      </trkpt>
      <trkpt lat="45.20011" lon="5.55384">
        <ele>1322.6</ele>
        <time>2019-06-01T14:10:05.000Z</time>
      </trkpt>
      <trkpt lat="45.20002" lon="5.5539">
        <ele>1322</ele>
        <time>2019-06-01T14:10:08.000Z</time>
      </trkpt>
      <trkpt lat="45.19998" lon="5.55398">
        <ele>1321</ele>
        <time>2019-06-01T14:10:11.000Z</time>
      </trkpt>
      <trkpt lat="45.19999" lon="5.55401">
        <ele>1320.8</ele>
        <time>2019-06-01T14:10:17.000Z</time>
      </trkpt>
      <trkpt lat="45.20002" lon="5.55408">
        <ele>1320.2</ele>
        <time>2019-06-01T14:10:19.000Z</time>
      </trkpt>
      <trkpt lat="45.20006" lon="5.55426">
        <ele>1318.8</ele>
        <time>2019-06-01T14:10:23.000Z</time>
      </trkpt>
      <trkpt lat="45.20009" lon="5.55432">
        <ele>1318.2</ele>
        <time>2019-06-01T14:10:26.000Z</time>
      </trkpt>
      <trkpt lat="45.20013" lon="5.55442">
        <ele>1317.4</ele>
        <time>2019-06-01T14:10:28.000Z</time>
      </trkpt>
      <trkpt lat="45.20015" lon="5.55448">
        <ele>1316.6</ele>
        <time>2019-06-01T14:10:32.000Z</time>
      </trkpt>
      <trkpt lat="45.20019" lon="5.55451">
        <ele>1315.8</ele>
        <time>2019-06-01T14:10:37.000Z</time>
      </trkpt>
      <trkpt lat="45.20027" lon="5.55455">
        <ele>1314.4</ele>
        <time>2019-06-01T14:10:38.000Z</time>
      </trkpt>
      <trkpt lat="45.20029" lon="5.55458">
        <ele>1314</ele>
        <time>2019-06-01T14:10:39.000Z</time>
      </trkpt>
      <trkpt lat="45.20034" lon="5.5546">
        <ele>1313.2</ele>
        <time>2019-06-01T14:10:41.000Z</time>
      </trkpt>
      <trkpt lat="45.2004" lon="5.55462">
        <ele>1312.4</ele>
        <time>2019-06-01T14:10:46.000Z</time>
      </trkpt>
      <trkpt lat="45.20044" lon="5.55463">
        <ele>1312</ele>
        <time>2019-06-01T14:10:51.000Z</time>
      </trkpt>
      <trkpt lat="45.20054" lon="5.55459">
        <ele>1310.8</ele>
        <time>2019-06-01T14:10:56.000Z</time>
      </trkpt>
      <trkpt lat="45.20067" lon="5.55459">
        <ele>1309.8</ele>
        <time>2019-06-01T14:11:01.000Z</time>
      </trkpt>
      <trkpt lat="45.20068" lon="5.5546">
        <ele>1309.6</ele>
        <time>2019-06-01T14:11:07.000Z</time>
      </trkpt>
      <trkpt lat="45.20069" lon="5.5546">
        <ele>1309.4</ele>
        <time>2019-06-01T14:11:12.000Z</time>
      </trkpt>
      <trkpt lat="45.20073" lon="5.5546">
        <ele>1309.2</ele>
        <time>2019-06-01T14:11:17.000Z</time>
      </trkpt>
      <trkpt lat="45.20087" lon="5.55462">
        <ele>1308.2</ele>
        <time>2019-06-01T14:11:22.000Z</time>
      </trkpt>
      <trkpt lat="45.20099" lon="5.55463">
        <ele>1307.8</ele>
        <time>2019-06-01T14:11:27.000Z</time>
      </trkpt>
      <trkpt lat="45.20111" lon="5.55462">
        <ele>1307.2</ele>
        <time>2019-06-01T14:11:32.000Z</time>
      </trkpt>
      <trkpt lat="45.20124" lon="5.55462">
        <ele>1306.8</ele>
        <time>2019-06-01T14:11:33.000Z</time>
      </trkpt>
      <trkpt lat="45.20141" lon="5.55459">
        <ele>1306.2</ele>
        <time>2019-06-01T14:11:38.000Z</time>
      </trkpt>
      <trkpt lat="45.20153" lon="5.55455">
        <ele>1305.6</ele>
        <time>2019-06-01T14:11:39.000Z</time>
      </trkpt>
      <trkpt lat="45.20168" lon="5.55456">
        <ele>1305.2</ele>
        <time>2019-06-01T14:11:42.000Z</time>
      </trkpt>
      <trkpt lat="45.2018" lon="5.55455">
        <ele>1304.8</ele>
        <time>2019-06-01T14:11:43.000Z</time>
      </trkpt>
      <trkpt lat="45.20192" lon="5.55456">
        <ele>1304.6</ele>
        <time>2019-06-01T14:11:46.000Z</time>
      </trkpt>
      <trkpt lat="45.20203" lon="5.55459">
        <ele>1304.4</ele>
        <time>2019-06-01T14:11:48.000Z</time>
      </trkpt>
      <trkpt lat="45.20205" lon="5.5546">
        <ele>1304.2</ele>
        <time>2019-06-01T14:11:49.000Z</time>
      </trkpt>
      <trkpt lat="45.20215" lon="5.55469">
        <ele>1304.2</ele>
        <time>2019-06-01T14:11:53.000Z</time>
      </trkpt>
      <trkpt lat="45.20218" lon="5.55471">
        <ele>1304.2</ele>
        <time>2019-06-01T14:11:59.000Z</time>
      </trkpt>
      <trkpt lat="45.20223" lon="5.55475">
        <ele>1305</ele>
        <time>2019-06-01T14:12:01.000Z</time>
      </trkpt>
      <trkpt lat="45.20225" lon="5.55478">
        <ele>1305</ele>
        <time>2019-06-01T14:12:04.000Z</time>
      </trkpt>
      <trkpt lat="45.20228" lon="5.55482">
        <ele>1305</ele>
        <time>2019-06-01T14:12:05.000Z</time>
      </trkpt>
      <trkpt lat="45.20231" lon="5.55485">
        <ele>1305.2</ele>
        <time>2019-06-01T14:12:08.000Z</time>
      </trkpt>
      <trkpt lat="45.20232" lon="5.55485">
        <ele>1305.4</ele>
        <time>2019-06-01T14:12:14.000Z</time>
      </trkpt>
      <trkpt lat="45.20237" lon="5.55489">
        <ele>1305.4</ele>
        <time>2019-06-01T14:12:18.000Z</time>
      </trkpt>
      <trkpt lat="45.20243" lon="5.55497">
        <ele>1305.2</ele>
        <time>2019-06-01T14:12:19.000Z</time>
      </trkpt>
      <trkpt lat="45.20244" lon="5.55499">
        <ele>1305.2</ele>
        <time>2019-06-01T14:12:23.000Z</time>
      </trkpt>
      <trkpt lat="45.20246" lon="5.55502">
        <ele>1305.2</ele>
        <time>2019-06-01T14:12:28.000Z</time>
      </trkpt>
      <trkpt lat="45.20247" lon="5.55502">
        <ele>1305</ele>
        <time>2019-06-01T14:12:29.000Z</time>
      </trkpt>
      <trkpt lat="45.2025" lon="5.55504">
        <ele>1304.8</ele>
        <time>2019-06-01T14:12:32.000Z</time>
      </trkpt>
      <trkpt lat="45.20259" lon="5.55505">
        <ele>1304.4</ele>
        <time>2019-06-01T14:12:36.000Z</time>
      </trkpt>
      <trkpt lat="45.20268" lon="5.55503">
        <ele>1304</ele>
        <time>2019-06-01T14:12:40.000Z</time>
      </trkpt>
      <trkpt lat="45.20271" lon="5.55503">
        <ele>1304</ele>
        <time>2019-06-01T14:12:45.000Z</time>
      </trkpt>
      <trkpt lat="45.20283" lon="5.55506">
        <ele>1303.6</ele>
        <time>2019-06-01T14:12:50.000Z</time>
      </trkpt>
      <trkpt lat="45.20295" lon="5.55511">
        <ele>1303</ele>
        <time>2019-06-01T14:12:55.000Z</time>
      </trkpt>
      <trkpt lat="45.20297" lon="5.5551">
        <ele>1302.8</ele>
        <time>2019-06-01T14:12:58.000Z</time>
      </trkpt>
      <trkpt lat="45.20306" lon="5.55512">
        <ele>1302.6</ele>
        <time>2019-06-01T14:13:01.000Z</time>
      </trkpt>
      <trkpt lat="45.20316" lon="5.55513">
        <ele>1302.2</ele>
        <time>2019-06-01T14:13:03.000Z</time>
      </trkpt>
      <trkpt lat="45.20327" lon="5.55515">
        <ele>1302</ele>
        <time>2019-06-01T14:13:07.000Z</time>
      </trkpt>
      <trkpt lat="45.2034" lon="5.55516">
        <ele>1301.8</ele>
        <time>2019-06-01T14:13:14.000Z</time>
      </trkpt>
      <trkpt lat="45.20345" lon="5.55516">
        <ele>1301.6</ele>
        <time>2019-06-01T14:13:18.000Z</time>
      </trkpt>
      <trkpt lat="45.20352" lon="5.55519">
        <ele>1301.4</ele>
        <time>2019-06-01T14:13:19.000Z</time>
      </trkpt>
      <trkpt lat="45.20355" lon="5.5552">
        <ele>1301.4</ele>
        <time>2019-06-01T14:13:23.000Z</time>
      </trkpt>
      <trkpt lat="45.20358" lon="5.55521">
        <ele>1301.4</ele>
        <time>2019-06-01T14:13:25.000Z</time>
      </trkpt>
      <trkpt lat="45.20359" lon="5.55523">
        <ele>1301.4</ele>
        <time>2019-06-01T14:13:27.000Z</time>
      </trkpt>
      <trkpt lat="45.20364" lon="5.55523">
        <ele>1301.4</ele>
        <time>2019-06-01T14:13:32.000Z</time>
      </trkpt>
      <trkpt lat="45.20368" lon="5.55525">
        <ele>1301.4</ele>
        <time>2019-06-01T14:13:38.000Z</time>
      </trkpt>
      <trkpt lat="45.20371" lon="5.55527">
        <ele>1301.6</ele>
        <time>2019-06-01T14:13:39.000Z</time>
      </trkpt>
      <trkpt lat="45.20372" lon="5.55527">
        <ele>1301.6</ele>
        <time>2019-06-01T14:13:43.000Z</time>
      </trkpt>
      <trkpt lat="45.20377" lon="5.55529">
        <ele>1301.8</ele>
        <time>2019-06-01T14:13:48.000Z</time>
      </trkpt>
      <trkpt lat="45.2038" lon="5.55532">
        <ele>1302.2</ele>
        <time>2019-06-01T14:13:53.000Z</time>
      </trkpt>
      <trkpt lat="45.20381" lon="5.55535">
        <ele>1302.4</ele>
        <time>2019-06-01T14:13:55.000Z</time>
      </trkpt>
      <trkpt lat="45.20386" lon="5.55538">
        <ele>1303</ele>
        <time>2019-06-01T14:13:59.000Z</time>
      </trkpt>
      <trkpt lat="45.20393" lon="5.55546">
        <ele>1303.6</ele>
        <time>2019-06-01T14:14:07.000Z</time>
      </trkpt>
      <trkpt lat="45.20394" lon="5.55546">
        <ele>1303.6</ele>
        <time>2019-06-01T14:14:34.000Z</time>
      </trkpt>
      <trkpt lat="45.20399" lon="5.55546">
        <ele>1304</ele>
        <time>2019-06-01T14:20:20.000Z</time>
      </trkpt>
      <trkpt lat="45.20406" lon="5.55548">
        <ele>1304.6</ele>
        <time>2019-06-01T14:20:22.000Z</time>
      </trkpt>
      <trkpt lat="45.2041" lon="5.55549">
        <ele>1305.6</ele>
        <time>2019-06-01T14:20:25.000Z</time>
      </trkpt>
      <trkpt lat="45.20413" lon="5.55547">
        <ele>1306.4</ele>
        <time>2019-06-01T14:20:29.000Z</time>
      </trkpt>
      <trkpt lat="45.20418" lon="5.55547">
        <ele>1307.6</ele>
        <time>2019-06-01T14:20:33.000Z</time>
      </trkpt>
      <trkpt lat="45.20419" lon="5.55549">
        <ele>1310</ele>
        <time>2019-06-01T14:20:36.000Z</time>
      </trkpt>
      <trkpt lat="45.20425" lon="5.55554">
        <ele>1314.8</ele>
        <time>2019-06-01T14:20:38.000Z</time>
      </trkpt>
      <trkpt lat="45.20434" lon="5.55586">
        <ele>1333.2</ele>
        <time>2019-06-01T14:20:43.000Z</time>
      </trkpt>
      <trkpt lat="45.20438" lon="5.55593">
        <ele>1333</ele>
        <time>2019-06-01T14:20:44.000Z</time>
      </trkpt>
      <trkpt lat="45.20444" lon="5.55603">
        <ele>1332.4</ele>
        <time>2019-06-01T14:20:49.000Z</time>
      </trkpt>
      <trkpt lat="45.20445" lon="5.55615">
        <ele>1331.8</ele>
        <time>2019-06-01T14:20:54.000Z</time>
      </trkpt>
      <trkpt lat="45.20447" lon="5.5563">
        <ele>1331</ele>
        <time>2019-06-01T14:21:00.000Z</time>
      </trkpt>
      <trkpt lat="45.20448" lon="5.5564">
        <ele>1330.6</ele>
        <time>2019-06-01T14:21:04.000Z</time>
      </trkpt>
      <trkpt lat="45.20446" lon="5.55647">
        <ele>1330.2</ele>
        <time>2019-06-01T14:21:10.000Z</time>
      </trkpt>
      <trkpt lat="45.20446" lon="5.55669">
        <ele>1329.4</ele>
        <time>2019-06-01T14:21:14.000Z</time>
      </trkpt>
      <trkpt lat="45.20447" lon="5.55672">
        <ele>1329.2</ele>
        <time>2019-06-01T14:21:17.000Z</time>
      </trkpt>
      <trkpt lat="45.20453" lon="5.55689">
        <ele>1328.6</ele>
        <time>2019-06-01T14:21:21.000Z</time>
      </trkpt>
      <trkpt lat="45.2046" lon="5.55705">
        <ele>1328</ele>
        <time>2019-06-01T14:21:23.000Z</time>
      </trkpt>
      <trkpt lat="45.20468" lon="5.55722">
        <ele>1327</ele>
        <time>2019-06-01T14:21:26.000Z</time>
      </trkpt>
      <trkpt lat="45.20477" lon="5.55734">
        <ele>1326.4</ele>
        <time>2019-06-01T14:21:31.000Z</time>
      </trkpt>
      <trkpt lat="45.20488" lon="5.55753">
        <ele>1325</ele>
        <time>2019-06-01T14:21:35.000Z</time>
      </trkpt>
      <trkpt lat="45.20493" lon="5.55763">
        <ele>1324.2</ele>
        <time>2019-06-01T14:21:37.000Z</time>
      </trkpt>
      <trkpt lat="45.20496" lon="5.55765">
        <ele>1323.2</ele>
        <time>2019-06-01T14:21:39.000Z</time>
      </trkpt>
      <trkpt lat="45.20502" lon="5.55767">
        <ele>1321.8</ele>
        <time>2019-06-01T14:21:43.000Z</time>
      </trkpt>
      <trkpt lat="45.20506" lon="5.55769">
        <ele>1321.4</ele>
        <time>2019-06-01T14:21:47.000Z</time>
      </trkpt>
      <trkpt lat="45.20514" lon="5.5577">
        <ele>1320.8</ele>
        <time>2019-06-01T14:21:48.000Z</time>
      </trkpt>
      <trkpt lat="45.20524" lon="5.5577">
        <ele>1320</ele>
        <time>2019-06-01T14:21:50.000Z</time>
      </trkpt>
      <trkpt lat="45.20534" lon="5.55768">
        <ele>1319.6</ele>
        <time>2019-06-01T14:21:51.000Z</time>
      </trkpt>
      <trkpt lat="45.2054" lon="5.55768">
        <ele>1319.6</ele>
        <time>2019-06-01T14:21:55.000Z</time>
      </trkpt>
      <trkpt lat="45.20543" lon="5.55764">
        <ele>1319.4</ele>
        <time>2019-06-01T14:21:59.000Z</time>
      </trkpt>
      <trkpt lat="45.20555" lon="5.55765">
        <ele>1319.2</ele>
        <time>2019-06-01T14:22:05.000Z</time>
      </trkpt>
      <trkpt lat="45.20565" lon="5.55766">
        <ele>1318.8</ele>
        <time>2019-06-01T14:22:09.000Z</time>
      </trkpt>
      <trkpt lat="45.2057" lon="5.55767">
        <ele>1318.8</ele>
        <time>2019-06-01T14:22:14.000Z</time>
      </trkpt>
      <trkpt lat="45.20573" lon="5.55768">
        <ele>1318.6</ele>
        <time>2019-06-01T14:22:19.000Z</time>
      </trkpt>
      <trkpt lat="45.20577" lon="5.55771">
        <ele>1318.6</ele>
        <time>2019-06-01T14:22:25.000Z</time>
      </trkpt>
      <trkpt lat="45.20587" lon="5.55769">
        <ele>1318.4</ele>
        <time>2019-06-01T14:22:31.000Z</time>
      </trkpt>
      <trkpt lat="45.20597" lon="5.55774">
        <ele>1318.2</ele>
        <time>2019-06-01T14:22:33.000Z</time>
      </trkpt>
      <trkpt lat="45.20611" lon="5.55795">
        <ele>1317.2</ele>
        <time>2019-06-01T14:22:37.000Z</time>
      </trkpt>
      <trkpt lat="45.20617" lon="5.55808">
        <ele>1316.6</ele>
        <time>2019-06-01T14:22:43.000Z</time>
      </trkpt>
      <trkpt lat="45.20626" lon="5.55821">
        <ele>1315.8</ele>
        <time>2019-06-01T14:22:46.000Z</time>
      </trkpt>
      <trkpt lat="45.20634" lon="5.55834">
        <ele>1315.4</ele>
        <time>2019-06-01T14:22:49.000Z</time>
      </trkpt>
      <trkpt lat="45.20641" lon="5.5585">
        <ele>1315.6</ele>
        <time>2019-06-01T14:22:54.000Z</time>
      </trkpt>
      <trkpt lat="45.20645" lon="5.55864">
        <ele>1315.8</ele>
        <time>2019-06-01T14:22:55.000Z</time>
      </trkpt>
      <trkpt lat="45.20645" lon="5.55868">
        <ele>1315.6</ele>
        <time>2019-06-01T14:22:57.000Z</time>
      </trkpt>
      <trkpt lat="45.20645" lon="5.55874">
        <ele>1315.4</ele>
        <time>2019-06-01T14:23:00.000Z</time>
      </trkpt>
      <trkpt lat="45.20641" lon="5.55884">
        <ele>1314</ele>
        <time>2019-06-01T14:23:05.000Z</time>
      </trkpt>
      <trkpt lat="45.2064" lon="5.55892">
        <ele>1313.4</ele>
        <time>2019-06-01T14:23:13.000Z</time>
      </trkpt>
      <trkpt lat="45.2064" lon="5.55897">
        <ele>1312.4</ele>
        <time>2019-06-01T14:23:16.000Z</time>
      </trkpt>
      <trkpt lat="45.20635" lon="5.55906">
        <ele>1311.2</ele>
        <time>2019-06-01T14:23:21.000Z</time>
      </trkpt>
      <trkpt lat="45.20635" lon="5.55907">
        <ele>1310.8</ele>
        <time>2019-06-01T14:23:22.000Z</time>
      </trkpt>
      <trkpt lat="45.20634" lon="5.55911">
        <ele>1310.2</ele>
        <time>2019-06-01T14:23:23.000Z</time>
      </trkpt>
      <trkpt lat="45.20634" lon="5.55917">
        <ele>1309.4</ele>
        <time>2019-06-01T14:23:25.000Z</time>
      </trkpt>
      <trkpt lat="45.20638" lon="5.55922">
        <ele>1307.8</ele>
        <time>2019-06-01T14:23:26.000Z</time>
      </trkpt>
      <trkpt lat="45.20644" lon="5.55928">
        <ele>1305.2</ele>
        <time>2019-06-01T14:23:30.000Z</time>
      </trkpt>
      <trkpt lat="45.20639" lon="5.5593">
        <ele>1304.4</ele>
        <time>2019-06-01T14:23:34.000Z</time>
      </trkpt>
      <trkpt lat="45.20629" lon="5.55938">
        <ele>1303.8</ele>
        <time>2019-06-01T14:23:35.000Z</time>
      </trkpt>
      <trkpt lat="45.20627" lon="5.55938">
        <ele>1303.8</ele>
        <time>2019-06-01T14:23:36.000Z</time>
      </trkpt>
      <trkpt lat="45.20625" lon="5.5594">
        <ele>1303.6</ele>
        <time>2019-06-01T14:23:40.000Z</time>
      </trkpt>
      <trkpt lat="45.20621" lon="5.55942">
        <ele>1303.4</ele>
        <time>2019-06-01T14:23:43.000Z</time>
      </trkpt>
      <trkpt lat="45.20621" lon="5.55943">
        <ele>1303.4</ele>
        <time>2019-06-01T14:23:46.000Z</time>
      </trkpt>
      <trkpt lat="45.20617" lon="5.55946">
        <ele>1302.6</ele>
        <time>2019-06-01T14:23:50.000Z</time>
      </trkpt>
      <trkpt lat="45.20623" lon="5.5595">
        <ele>1302</ele>
        <time>2019-06-01T14:23:52.000Z</time>
      </trkpt>
      <trkpt lat="45.20625" lon="5.55951">
        <ele>1301.8</ele>
        <time>2019-06-01T14:23:57.000Z</time>
      </trkpt>
      <trkpt lat="45.20627" lon="5.55951">
        <ele>1301.6</ele>
        <time>2019-06-01T14:24:02.000Z</time>
      </trkpt>
      <trkpt lat="45.20633" lon="5.55951">
        <ele>1301</ele>
        <time>2019-06-01T14:24:03.000Z</time>
      </trkpt>
      <trkpt lat="45.20636" lon="5.55956">
        <ele>1300.4</ele>
        <time>2019-06-01T14:24:06.000Z</time>
      </trkpt>
      <trkpt lat="45.20634" lon="5.55961">
        <ele>1300</ele>
        <time>2019-06-01T14:24:07.000Z</time>
      </trkpt>
      <trkpt lat="45.2063" lon="5.55968">
        <ele>1299.2</ele>
        <time>2019-06-01T14:24:12.000Z</time>
      </trkpt>
      <trkpt lat="45.20628" lon="5.55972">
        <ele>1298.8</ele>
        <time>2019-06-01T14:24:17.000Z</time>
      </trkpt>
      <trkpt lat="45.20624" lon="5.5598">
        <ele>1298</ele>
        <time>2019-06-01T14:24:22.000Z</time>
      </trkpt>
      <trkpt lat="45.20621" lon="5.5599">
        <ele>1296.8</ele>
        <time>2019-06-01T14:24:23.000Z</time>
      </trkpt>
      <trkpt lat="45.20621" lon="5.55991">
        <ele>1296.6</ele>
        <time>2019-06-01T14:24:27.000Z</time>
      </trkpt>
      <trkpt lat="45.2062" lon="5.55996">
        <ele>1296.2</ele>
        <time>2019-06-01T14:24:30.000Z</time>
      </trkpt>
      <trkpt lat="45.2062" lon="5.55998">
        <ele>1296</ele>
        <time>2019-06-01T14:24:33.000Z</time>
      </trkpt>
      <trkpt lat="45.20618" lon="5.56006">
        <ele>1295.4</ele>
        <time>2019-06-01T14:24:39.000Z</time>
      </trkpt>
      <trkpt lat="45.20614" lon="5.56016">
        <ele>1294.6</ele>
        <time>2019-06-01T14:24:40.000Z</time>
      </trkpt>
      <trkpt lat="45.20611" lon="5.56023">
        <ele>1294.2</ele>
        <time>2019-06-01T14:24:45.000Z</time>
      </trkpt>
      <trkpt lat="45.2061" lon="5.56024">
        <ele>1294.2</ele>
        <time>2019-06-01T14:24:51.000Z</time>
      </trkpt>
      <trkpt lat="45.20607" lon="5.5603">
        <ele>1294</ele>
        <time>2019-06-01T14:24:54.000Z</time>
      </trkpt>
      <trkpt lat="45.20603" lon="5.56037">
        <ele>1294.4</ele>
        <time>2019-06-01T14:24:58.000Z</time>
      </trkpt>
      <trkpt lat="45.206" lon="5.56045">
        <ele>1295.6</ele>
        <time>2019-06-01T14:25:02.000Z</time>
      </trkpt>
      <trkpt lat="45.20596" lon="5.56055">
        <ele>1297.8</ele>
        <time>2019-06-01T14:25:03.000Z</time>
      </trkpt>
      <trkpt lat="45.20596" lon="5.56057">
        <ele>1297.8</ele>
        <time>2019-06-01T14:25:06.000Z</time>
      </trkpt>
      <trkpt lat="45.20594" lon="5.56066">
        <ele>1298.6</ele>
        <time>2019-06-01T14:25:08.000Z</time>
      </trkpt>
      <trkpt lat="45.20595" lon="5.56068">
        <ele>1298.4</ele>
        <time>2019-06-01T14:25:11.000Z</time>
      </trkpt>
      <trkpt lat="45.20596" lon="5.56069">
        <ele>1298.2</ele>
        <time>2019-06-01T14:25:12.000Z</time>
      </trkpt>
      <trkpt lat="45.20599" lon="5.56073">
        <ele>1297.6</ele>
        <time>2019-06-01T14:25:14.000Z</time>
      </trkpt>
      <trkpt lat="45.20604" lon="5.56075">
        <ele>1297</ele>
        <time>2019-06-01T14:25:15.000Z</time>
      </trkpt>
      <trkpt lat="45.20605" lon="5.56076">
        <ele>1296.8</ele>
        <time>2019-06-01T14:25:18.000Z</time>
      </trkpt>
      <trkpt lat="45.20606" lon="5.56079">
        <ele>1296.2</ele>
        <time>2019-06-01T14:25:21.000Z</time>
      </trkpt>
      <trkpt lat="45.20609" lon="5.56082">
        <ele>1295.8</ele>
        <time>2019-06-01T14:25:25.000Z</time>
      </trkpt>
      <trkpt lat="45.20611" lon="5.56087">
        <ele>1295</ele>
        <time>2019-06-01T14:25:27.000Z</time>
      </trkpt>
      <trkpt lat="45.20613" lon="5.56087">
        <ele>1294.8</ele>
        <time>2019-06-01T14:25:31.000Z</time>
      </trkpt>
      <trkpt lat="45.20614" lon="5.56089">
        <ele>1294.2</ele>
        <time>2019-06-01T14:25:32.000Z</time>
      </trkpt>
      <trkpt lat="45.20615" lon="5.5609">
        <ele>1294</ele>
        <time>2019-06-01T14:25:41.000Z</time>
      </trkpt>
      <trkpt lat="45.20619" lon="5.56092">
        <ele>1293.4</ele>
        <time>2019-06-01T14:25:43.000Z</time>
      </trkpt>
      <trkpt lat="45.20621" lon="5.56092">
        <ele>1292.6</ele>
        <time>2019-06-01T14:25:44.000Z</time>
      </trkpt>
      <trkpt lat="45.20624" lon="5.56085">
        <ele>1292</ele>
        <time>2019-06-01T14:25:47.000Z</time>
      </trkpt>
      <trkpt lat="45.20622" lon="5.56083">
        <ele>1292</ele>
        <time>2019-06-01T14:25:49.000Z</time>
      </trkpt>
      <trkpt lat="45.20624" lon="5.56079">
        <ele>1292.4</ele>
        <time>2019-06-01T14:25:51.000Z</time>
      </trkpt>
      <trkpt lat="45.20626" lon="5.56079">
        <ele>1292.8</ele>
        <time>2019-06-01T14:25:53.000Z</time>
      </trkpt>
      <trkpt lat="45.20636" lon="5.56083">
        <ele>1292.8</ele>
        <time>2019-06-01T14:25:56.000Z</time>
      </trkpt>
      <trkpt lat="45.20636" lon="5.56082">
        <ele>1292.8</ele>
        <time>2019-06-01T14:26:03.000Z</time>
      </trkpt>
      <trkpt lat="45.20638" lon="5.56083">
        <ele>1292.8</ele>
        <time>2019-06-01T14:26:15.000Z</time>
      </trkpt>
      <trkpt lat="45.20643" lon="5.56088">
        <ele>1292.6</ele>
        <time>2019-06-01T14:26:17.000Z</time>
      </trkpt>
      <trkpt lat="45.20646" lon="5.56089">
        <ele>1292.4</ele>
        <time>2019-06-01T14:26:20.000Z</time>
      </trkpt>
      <trkpt lat="45.20649" lon="5.56089">
        <ele>1292.2</ele>
        <time>2019-06-01T14:26:26.000Z</time>
      </trkpt>
      <trkpt lat="45.20652" lon="5.56087">
        <ele>1292.2</ele>
        <time>2019-06-01T14:26:28.000Z</time>
      </trkpt>
      <trkpt lat="45.20656" lon="5.56087">
        <ele>1291.8</ele>
        <time>2019-06-01T14:26:31.000Z</time>
      </trkpt>
      <trkpt lat="45.20664" lon="5.56091">
        <ele>1291.4</ele>
        <time>2019-06-01T14:26:32.000Z</time>
      </trkpt>
      <trkpt lat="45.20674" lon="5.56097">
        <ele>1290.4</ele>
        <time>2019-06-01T14:26:38.000Z</time>
      </trkpt>
      <trkpt lat="45.20676" lon="5.56097">
        <ele>1290.2</ele>
        <time>2019-06-01T14:26:40.000Z</time>
      </trkpt>
      <trkpt lat="45.20678" lon="5.56095">
        <ele>1290</ele>
        <time>2019-06-01T14:26:42.000Z</time>
      </trkpt>
      <trkpt lat="45.20681" lon="5.56093">
        <ele>1289.8</ele>
        <time>2019-06-01T14:26:48.000Z</time>
      </trkpt>
      <trkpt lat="45.20684" lon="5.56096">
        <ele>1290</ele>
        <time>2019-06-01T14:27:00.000Z</time>
      </trkpt>
      <trkpt lat="45.20684" lon="5.56093">
        <ele>1290.4</ele>
        <time>2019-06-01T14:29:07.000Z</time>
      </trkpt>
      <trkpt lat="45.20684" lon="5.56091">
        <ele>1290.6</ele>
        <time>2019-06-01T14:29:08.000Z</time>
      </trkpt>
      <trkpt lat="45.20696" lon="5.56097">
        <ele>1292</ele>
        <time>2019-06-01T14:29:11.000Z</time>
      </trkpt>
      <trkpt lat="45.20702" lon="5.56098">
        <ele>1292.6</ele>
        <time>2019-06-01T14:29:15.000Z</time>
      </trkpt>
      <trkpt lat="45.20706" lon="5.56101">
        <ele>1293.4</ele>
        <time>2019-06-01T14:29:19.000Z</time>
      </trkpt>
      <trkpt lat="45.20713" lon="5.56108">
        <ele>1294.6</ele>
        <time>2019-06-01T14:29:20.000Z</time>
      </trkpt>
      <trkpt lat="45.20717" lon="5.56108">
        <ele>1301</ele>
        <time>2019-06-01T14:29:24.000Z</time>
      </trkpt>
      <trkpt lat="45.20727" lon="5.56119">
        <ele>1324.4</ele>
        <time>2019-06-01T14:29:30.000Z</time>
      </trkpt>
      <trkpt lat="45.20729" lon="5.5612">
        <ele>1324.4</ele>
        <time>2019-06-01T14:29:35.000Z</time>
      </trkpt>
      <trkpt lat="45.20734" lon="5.5612">
        <ele>1324.4</ele>
        <time>2019-06-01T14:29:36.000Z</time>
      </trkpt>
      <trkpt lat="45.20739" lon="5.5612">
        <ele>1324.4</ele>
        <time>2019-06-01T14:29:40.000Z</time>
      </trkpt>
      <trkpt lat="45.20745" lon="5.56124">
        <ele>1324.4</ele>
        <time>2019-06-01T14:29:45.000Z</time>
      </trkpt>
      <trkpt lat="45.20747" lon="5.56124">
        <ele>1324.4</ele>
        <time>2019-06-01T14:29:51.000Z</time>
      </trkpt>
      <trkpt lat="45.20753" lon="5.56124">
        <ele>1325.4</ele>
        <time>2019-06-01T14:29:55.000Z</time>
      </trkpt>
      <trkpt lat="45.20759" lon="5.56127">
        <ele>1325.2</ele>
        <time>2019-06-01T14:29:56.000Z</time>
      </trkpt>
      <trkpt lat="45.20765" lon="5.56132">
        <ele>1326</ele>
        <time>2019-06-01T14:30:01.000Z</time>
      </trkpt>
      <trkpt lat="45.20768" lon="5.56132">
        <ele>1326.4</ele>
        <time>2019-06-01T14:30:02.000Z</time>
      </trkpt>
      <trkpt lat="45.20774" lon="5.56138">
        <ele>1326.8</ele>
        <time>2019-06-01T14:30:06.000Z</time>
      </trkpt>
      <trkpt lat="45.20778" lon="5.56144">
        <ele>1328.2</ele>
        <time>2019-06-01T14:30:14.000Z</time>
      </trkpt>
      <trkpt lat="45.20789" lon="5.5615">
        <ele>1329.6</ele>
        <time>2019-06-01T14:30:21.000Z</time>
      </trkpt>
      <trkpt lat="45.20793" lon="5.56154">
        <ele>1330.6</ele>
        <time>2019-06-01T14:30:22.000Z</time>
      </trkpt>
      <trkpt lat="45.20793" lon="5.56155">
        <ele>1330.8</ele>
        <time>2019-06-01T14:30:26.000Z</time>
      </trkpt>
      <trkpt lat="45.20796" lon="5.56161">
        <ele>1331.4</ele>
        <time>2019-06-01T14:30:31.000Z</time>
      </trkpt>
      <trkpt lat="45.20796" lon="5.56162">
        <ele>1331.6</ele>
        <time>2019-06-01T14:30:36.000Z</time>
      </trkpt>
      <trkpt lat="45.20799" lon="5.56164">
        <ele>1332.6</ele>
        <time>2019-06-01T14:30:51.000Z</time>
      </trkpt>
      <trkpt lat="45.20796" lon="5.56164">
        <ele>1334.4</ele>
        <time>2019-06-01T14:30:56.000Z</time>
      </trkpt>
      <trkpt lat="45.20796" lon="5.56165">
        <ele>1336</ele>
        <time>2019-06-01T14:31:01.000Z</time>
      </trkpt>
      <trkpt lat="45.20797" lon="5.56165">
        <ele>1336.2</ele>
        <time>2019-06-01T14:31:05.000Z</time>
      </trkpt>
      <trkpt lat="45.20804" lon="5.56171">
        <ele>1336.6</ele>
        <time>2019-06-01T14:31:07.000Z</time>
      </trkpt>
      <trkpt lat="45.20811" lon="5.56175">
        <ele>1337.4</ele>
        <time>2019-06-01T14:31:08.000Z</time>
      </trkpt>
      <trkpt lat="45.20816" lon="5.56177">
        <ele>1337.2</ele>
        <time>2019-06-01T14:31:11.000Z</time>
      </trkpt>
      <trkpt lat="45.20823" lon="5.56179">
        <ele>1337.4</ele>
        <time>2019-06-01T14:31:19.000Z</time>
      </trkpt>
      <trkpt lat="45.20826" lon="5.56177">
        <ele>1337.8</ele>
        <time>2019-06-01T14:31:25.000Z</time>
      </trkpt>
      <trkpt lat="45.20827" lon="5.56174">
        <ele>1337.6</ele>
        <time>2019-06-01T14:31:31.000Z</time>
      </trkpt>
      <trkpt lat="45.2083" lon="5.56177">
        <ele>1337.6</ele>
        <time>2019-06-01T14:31:36.000Z</time>
      </trkpt>
      <trkpt lat="45.20833" lon="5.56177">
        <ele>1337.4</ele>
        <time>2019-06-01T14:31:42.000Z</time>
      </trkpt>
      <trkpt lat="45.20835" lon="5.56179">
        <ele>1337.4</ele>
        <time>2019-06-01T14:31:44.000Z</time>
      </trkpt>
      <trkpt lat="45.2084" lon="5.56182">
        <ele>1337.2</ele>
        <time>2019-06-01T14:31:47.000Z</time>
      </trkpt>
      <trkpt lat="45.20842" lon="5.56183">
        <ele>1336.8</ele>
        <time>2019-06-01T14:31:52.000Z</time>
      </trkpt>
      <trkpt lat="45.20854" lon="5.56196">
        <ele>1336.2</ele>
        <time>2019-06-01T14:31:53.000Z</time>
      </trkpt>
      <trkpt lat="45.20861" lon="5.562">
        <ele>1336</ele>
        <time>2019-06-01T14:31:57.000Z</time>
      </trkpt>
      <trkpt lat="45.20866" lon="5.56207">
        <ele>1336</ele>
        <time>2019-06-01T14:32:00.000Z</time>
      </trkpt>
      <trkpt lat="45.20874" lon="5.56211">
        <ele>1336.4</ele>
        <time>2019-06-01T14:32:03.000Z</time>
      </trkpt>
      <trkpt lat="45.20877" lon="5.56212">
        <ele>1336.6</ele>
        <time>2019-06-01T14:32:07.000Z</time>
      </trkpt>
      <trkpt lat="45.20879" lon="5.5621">
        <ele>1337</ele>
        <time>2019-06-01T14:32:08.000Z</time>
      </trkpt>
      <trkpt lat="45.20888" lon="5.56213">
        <ele>1338.8</ele>
        <time>2019-06-01T14:32:12.000Z</time>
      </trkpt>
      <trkpt lat="45.20889" lon="5.56212">
        <ele>1338.6</ele>
        <time>2019-06-01T14:32:14.000Z</time>
      </trkpt>
      <trkpt lat="45.20892" lon="5.56206">
        <ele>1339.6</ele>
        <time>2019-06-01T14:32:18.000Z</time>
      </trkpt>
      <trkpt lat="45.20896" lon="5.56205">
        <ele>1340.4</ele>
        <time>2019-06-01T14:32:20.000Z</time>
      </trkpt>
      <trkpt lat="45.20901" lon="5.56208">
        <ele>1340.8</ele>
        <time>2019-06-01T14:32:22.000Z</time>
      </trkpt>
      <trkpt lat="45.20905" lon="5.56205">
        <ele>1341.8</ele>
        <time>2019-06-01T14:32:29.000Z</time>
      </trkpt>
      <trkpt lat="45.20908" lon="5.56207">
        <ele>1342.8</ele>
        <time>2019-06-01T14:32:35.000Z</time>
      </trkpt>
      <trkpt lat="45.20911" lon="5.56212">
        <ele>1344.6</ele>
        <time>2019-06-01T14:32:41.000Z</time>
      </trkpt>
      <trkpt lat="45.20915" lon="5.56215">
        <ele>1345.4</ele>
        <time>2019-06-01T14:32:47.000Z</time>
      </trkpt>
      <trkpt lat="45.20923" lon="5.56221">
        <ele>1346.6</ele>
        <time>2019-06-01T14:32:54.000Z</time>
      </trkpt>
      <trkpt lat="45.20927" lon="5.56223">
        <ele>1347.2</ele>
        <time>2019-06-01T14:33:05.000Z</time>
      </trkpt>
      <trkpt lat="45.2093" lon="5.56224">
        <ele>1347.8</ele>
        <time>2019-06-01T14:33:09.000Z</time>
      </trkpt>
      <trkpt lat="45.20939" lon="5.56229">
        <ele>1350.2</ele>
        <time>2019-06-01T14:33:12.000Z</time>
      </trkpt>
      <trkpt lat="45.20946" lon="5.56232">
        <ele>1352.2</ele>
        <time>2019-06-01T14:33:14.000Z</time>
      </trkpt>
      <trkpt lat="45.20951" lon="5.56234">
        <ele>1353.8</ele>
        <time>2019-06-01T14:33:17.000Z</time>
      </trkpt>
      <trkpt lat="45.20958" lon="5.56234">
        <ele>1354.6</ele>
        <time>2019-06-01T14:33:20.000Z</time>
      </trkpt>
      <trkpt lat="45.20965" lon="5.56234">
        <ele>1354.4</ele>
        <time>2019-06-01T14:33:21.000Z</time>
      </trkpt>
      <trkpt lat="45.20971" lon="5.56232">
        <ele>1355</ele>
        <time>2019-06-01T14:33:25.000Z</time>
      </trkpt>
      <trkpt lat="45.20976" lon="5.56232">
        <ele>1354.6</ele>
        <time>2019-06-01T14:33:27.000Z</time>
      </trkpt>
      <trkpt lat="45.20979" lon="5.56231">
        <ele>1354.8</ele>
        <time>2019-06-01T14:33:32.000Z</time>
      </trkpt>
      <trkpt lat="45.20984" lon="5.56232">
        <ele>1354.8</ele>
        <time>2019-06-01T14:33:33.000Z</time>
      </trkpt>
      <trkpt lat="45.20989" lon="5.56234">
        <ele>1354.6</ele>
        <time>2019-06-01T14:33:34.000Z</time>
      </trkpt>
      <trkpt lat="45.20993" lon="5.56234">
        <ele>1354.4</ele>
        <time>2019-06-01T14:33:36.000Z</time>
      </trkpt>
      <trkpt lat="45.20994" lon="5.56235">
        <ele>1354.4</ele>
        <time>2019-06-01T14:33:39.000Z</time>
      </trkpt>
      <trkpt lat="45.20999" lon="5.56237">
        <ele>1354.2</ele>
        <time>2019-06-01T14:33:40.000Z</time>
      </trkpt>
      <trkpt lat="45.21002" lon="5.56235">
        <ele>1354</ele>
        <time>2019-06-01T14:33:44.000Z</time>
      </trkpt>
      <trkpt lat="45.21009" lon="5.56234">
        <ele>1354</ele>
        <time>2019-06-01T14:33:45.000Z</time>
      </trkpt>
      <trkpt lat="45.2101" lon="5.56233">
        <ele>1354</ele>
        <time>2019-06-01T14:33:50.000Z</time>
      </trkpt>
      <trkpt lat="45.21012" lon="5.56232">
        <ele>1354</ele>
        <time>2019-06-01T14:33:53.000Z</time>
      </trkpt>
      <trkpt lat="45.21016" lon="5.5623">
        <ele>1353.8</ele>
        <time>2019-06-01T14:33:56.000Z</time>
      </trkpt>
      <trkpt lat="45.21019" lon="5.56232">
        <ele>1353.8</ele>
        <time>2019-06-01T14:33:57.000Z</time>
      </trkpt>
      <trkpt lat="45.21022" lon="5.56232">
        <ele>1353.6</ele>
        <time>2019-06-01T14:34:00.000Z</time>
      </trkpt>
      <trkpt lat="45.21029" lon="5.56234">
        <ele>1353.2</ele>
        <time>2019-06-01T14:34:05.000Z</time>
      </trkpt>
      <trkpt lat="45.21031" lon="5.56234">
        <ele>1353</ele>
        <time>2019-06-01T14:34:06.000Z</time>
      </trkpt>
      <trkpt lat="45.21041" lon="5.56229">
        <ele>1352.6</ele>
        <time>2019-06-01T14:34:10.000Z</time>
      </trkpt>
      <trkpt lat="45.21047" lon="5.56232">
        <ele>1352.2</ele>
        <time>2019-06-01T14:38:06.000Z</time>
      </trkpt>
      <trkpt lat="45.21057" lon="5.56232">
        <ele>1351.8</ele>
        <time>2019-06-01T14:38:10.000Z</time>
      </trkpt>
      <trkpt lat="45.2106" lon="5.56231">
        <ele>1351.6</ele>
        <time>2019-06-01T14:38:14.000Z</time>
      </trkpt>
      <trkpt lat="45.21069" lon="5.5623">
        <ele>1351.2</ele>
        <time>2019-06-01T14:38:19.000Z</time>
      </trkpt>
      <trkpt lat="45.21082" lon="5.56231">
        <ele>1350.4</ele>
        <time>2019-06-01T14:38:25.000Z</time>
      </trkpt>
      <trkpt lat="45.21084" lon="5.56231">
        <ele>1350.2</ele>
        <time>2019-06-01T14:38:28.000Z</time>
      </trkpt>
      <trkpt lat="45.21088" lon="5.56229">
        <ele>1349.8</ele>
        <time>2019-06-01T14:38:30.000Z</time>
      </trkpt>
      <trkpt lat="45.21098" lon="5.56231">
        <ele>1333.6</ele>
        <time>2019-06-01T14:38:35.000Z</time>
      </trkpt>
      <trkpt lat="45.21107" lon="5.56225">
        <ele>1333.4</ele>
        <time>2019-06-01T14:38:40.000Z</time>
      </trkpt>
      <trkpt lat="45.21116" lon="5.56222">
        <ele>1333.4</ele>
        <time>2019-06-01T14:38:45.000Z</time>
      </trkpt>
      <trkpt lat="45.21127" lon="5.56224">
        <ele>1333.2</ele>
        <time>2019-06-01T14:38:47.000Z</time>
      </trkpt>
      <trkpt lat="45.21142" lon="5.56227">
        <ele>1333.2</ele>
        <time>2019-06-01T14:38:49.000Z</time>
      </trkpt>
      <trkpt lat="45.2115" lon="5.56226">
        <ele>1333.6</ele>
        <time>2019-06-01T14:38:51.000Z</time>
      </trkpt>
      <trkpt lat="45.21158" lon="5.56229">
        <ele>1333.8</ele>
        <time>2019-06-01T14:38:54.000Z</time>
      </trkpt>
      <trkpt lat="45.21173" lon="5.5624">
        <ele>1334</ele>
        <time>2019-06-01T14:38:55.000Z</time>
      </trkpt>
      <trkpt lat="45.21188" lon="5.56248">
        <ele>1334.2</ele>
        <time>2019-06-01T14:38:58.000Z</time>
      </trkpt>
      <trkpt lat="45.21199" lon="5.56257">
        <ele>1335</ele>
        <time>2019-06-01T14:38:59.000Z</time>
      </trkpt>
      <trkpt lat="45.21204" lon="5.56259">
        <ele>1335.2</ele>
        <time>2019-06-01T14:39:04.000Z</time>
      </trkpt>
      <trkpt lat="45.21209" lon="5.56259">
        <ele>1335.4</ele>
        <time>2019-06-01T14:39:09.000Z</time>
      </trkpt>
      <trkpt lat="45.21212" lon="5.56261">
        <ele>1335.8</ele>
        <time>2019-06-01T14:39:14.000Z</time>
      </trkpt>
      <trkpt lat="45.21213" lon="5.56263">
        <ele>1336.6</ele>
        <time>2019-06-01T14:39:19.000Z</time>
      </trkpt>
      <trkpt lat="45.21212" lon="5.56266">
        <ele>1336.6</ele>
        <time>2019-06-01T14:39:24.000Z</time>
      </trkpt>
      <trkpt lat="45.21209" lon="5.56272">
        <ele>1335.8</ele>
        <time>2019-06-01T14:39:29.000Z</time>
      </trkpt>
      <trkpt lat="45.21208" lon="5.56274">
        <ele>1335.8</ele>
        <time>2019-06-01T14:39:33.000Z</time>
      </trkpt>
      <trkpt lat="45.21206" lon="5.56285">
        <ele>1335.4</ele>
        <time>2019-06-01T14:39:38.000Z</time>
      </trkpt>
      <trkpt lat="45.21207" lon="5.56302">
        <ele>1334.4</ele>
        <time>2019-06-01T14:39:50.000Z</time>
      </trkpt>
      <trkpt lat="45.21217" lon="5.56316">
        <ele>1333.4</ele>
        <time>2019-06-01T14:39:55.000Z</time>
      </trkpt>
      <trkpt lat="45.21228" lon="5.56328">
        <ele>1332.6</ele>
        <time>2019-06-01T14:39:59.000Z</time>
      </trkpt>
      <trkpt lat="45.21237" lon="5.56341">
        <ele>1331.6</ele>
        <time>2019-06-01T14:40:02.000Z</time>
      </trkpt>
      <trkpt lat="45.21246" lon="5.56351">
        <ele>1331</ele>
        <time>2019-06-01T14:40:04.000Z</time>
      </trkpt>
      <trkpt lat="45.21254" lon="5.56354">
        <ele>1330.4</ele>
        <time>2019-06-01T14:40:09.000Z</time>
      </trkpt>
      <trkpt lat="45.21255" lon="5.56351">
        <ele>1329.8</ele>
        <time>2019-06-01T14:40:12.000Z</time>
      </trkpt>
      <trkpt lat="45.21249" lon="5.56358">
        <ele>1328.8</ele>
        <time>2019-06-01T14:40:14.000Z</time>
      </trkpt>
      <trkpt lat="45.21242" lon="5.56365">
        <ele>1328.2</ele>
        <time>2019-06-01T14:40:16.000Z</time>
      </trkpt>
      <trkpt lat="45.21238" lon="5.56372">
        <ele>1328</ele>
        <time>2019-06-01T14:40:19.000Z</time>
      </trkpt>
      <trkpt lat="45.21236" lon="5.56375">
        <ele>1327.6</ele>
        <time>2019-06-01T14:40:21.000Z</time>
      </trkpt>
      <trkpt lat="45.21234" lon="5.56378">
        <ele>1327.4</ele>
        <time>2019-06-01T14:40:27.000Z</time>
      </trkpt>
      <trkpt lat="45.2123" lon="5.56386">
        <ele>1326.6</ele>
        <time>2019-06-01T14:40:34.000Z</time>
      </trkpt>
      <trkpt lat="45.21228" lon="5.56392">
        <ele>1326</ele>
        <time>2019-06-01T14:40:39.000Z</time>
      </trkpt>
      <trkpt lat="45.21227" lon="5.56397">
        <ele>1325.8</ele>
        <time>2019-06-01T14:40:40.000Z</time>
      </trkpt>
      <trkpt lat="45.21226" lon="5.56401">
        <ele>1325.4</ele>
        <time>2019-06-01T14:40:45.000Z</time>
      </trkpt>
      <trkpt lat="45.21224" lon="5.56408">
        <ele>1324.8</ele>
        <time>2019-06-01T14:40:50.000Z</time>
      </trkpt>
      <trkpt lat="45.21223" lon="5.56413">
        <ele>1324.4</ele>
        <time>2019-06-01T14:40:56.000Z</time>
      </trkpt>
      <trkpt lat="45.2122" lon="5.56427">
        <ele>1323.2</ele>
        <time>2019-06-01T14:41:01.000Z</time>
      </trkpt>
      <trkpt lat="45.21217" lon="5.56442">
        <ele>1321.6</ele>
        <time>2019-06-01T14:41:05.000Z</time>
      </trkpt>
      <trkpt lat="45.21217" lon="5.56454">
        <ele>1320.6</ele>
        <time>2019-06-01T14:41:07.000Z</time>
      </trkpt>
      <trkpt lat="45.21218" lon="5.56458">
        <ele>1320.4</ele>
        <time>2019-06-01T14:41:10.000Z</time>
      </trkpt>
      <trkpt lat="45.21223" lon="5.56477">
        <ele>1319.4</ele>
        <time>2019-06-01T14:41:14.000Z</time>
      </trkpt>
      <trkpt lat="45.21228" lon="5.56492">
        <ele>1318.8</ele>
        <time>2019-06-01T14:41:15.000Z</time>
      </trkpt>
      <trkpt lat="45.21237" lon="5.56512">
        <ele>1317.6</ele>
        <time>2019-06-01T14:41:21.000Z</time>
      </trkpt>
      <trkpt lat="45.21248" lon="5.56523">
        <ele>1317</ele>
        <time>2019-06-01T14:41:32.000Z</time>
      </trkpt>
      <trkpt lat="45.21256" lon="5.5653">
        <ele>1316.8</ele>
        <time>2019-06-01T14:41:36.000Z</time>
      </trkpt>
      <trkpt lat="45.21259" lon="5.56535">
        <ele>1316.6</ele>
        <time>2019-06-01T14:41:41.000Z</time>
      </trkpt>
      <trkpt lat="45.21265" lon="5.56541">
        <ele>1316.6</ele>
        <time>2019-06-01T14:41:47.000Z</time>
      </trkpt>
      <trkpt lat="45.21269" lon="5.5655">
        <ele>1317</ele>
        <time>2019-06-01T14:41:49.000Z</time>
      </trkpt>
      <trkpt lat="45.2127" lon="5.56552">
        <ele>1317.6</ele>
        <time>2019-06-01T14:41:53.000Z</time>
      </trkpt>
      <trkpt lat="45.21276" lon="5.56559">
        <ele>1320.2</ele>
        <time>2019-06-01T14:41:56.000Z</time>
      </trkpt>
      <trkpt lat="45.21283" lon="5.5656">
        <ele>1324.4</ele>
        <time>2019-06-01T14:41:57.000Z</time>
      </trkpt>
      <trkpt lat="45.21288" lon="5.56563">
        <ele>1326</ele>
        <time>2019-06-01T14:41:58.000Z</time>
      </trkpt>
      <trkpt lat="45.21293" lon="5.56567">
        <ele>1327.2</ele>
        <time>2019-06-01T14:42:04.000Z</time>
      </trkpt>
      <trkpt lat="45.213" lon="5.56569">
        <ele>1327.6</ele>
        <time>2019-06-01T14:42:10.000Z</time>
      </trkpt>
      <trkpt lat="45.21302" lon="5.56568">
        <ele>1327.6</ele>
        <time>2019-06-01T14:42:11.000Z</time>
      </trkpt>
      <trkpt lat="45.21309" lon="5.56572">
        <ele>1328.4</ele>
        <time>2019-06-01T14:42:17.000Z</time>
      </trkpt>
      <trkpt lat="45.21314" lon="5.56573">
        <ele>1328.2</ele>
        <time>2019-06-01T14:42:21.000Z</time>
      </trkpt>
      <trkpt lat="45.21315" lon="5.56573">
        <ele>1328</ele>
        <time>2019-06-01T14:42:27.000Z</time>
      </trkpt>
      <trkpt lat="45.21316" lon="5.56574">
        <ele>1328</ele>
        <time>2019-06-01T14:42:34.000Z</time>
      </trkpt>
      <trkpt lat="45.21316" lon="5.56569">
        <ele>1327.6</ele>
        <time>2019-06-01T14:42:38.000Z</time>
      </trkpt>
      <trkpt lat="45.21326" lon="5.56573">
        <ele>1327.6</ele>
        <time>2019-06-01T14:42:39.000Z</time>
      </trkpt>
      <trkpt lat="45.21328" lon="5.56574">
        <ele>1327.8</ele>
        <time>2019-06-01T14:42:46.000Z</time>
      </trkpt>
      <trkpt lat="45.21341" lon="5.56581">
        <ele>1328.6</ele>
        <time>2019-06-01T14:42:47.000Z</time>
      </trkpt>
      <trkpt lat="45.21348" lon="5.56588">
        <ele>1329</ele>
        <time>2019-06-01T14:42:51.000Z</time>
      </trkpt>
      <trkpt lat="45.21358" lon="5.566">
        <ele>1330.2</ele>
        <time>2019-06-01T14:43:28.000Z</time>
      </trkpt>
      <trkpt lat="45.21364" lon="5.56607">
        <ele>1332.2</ele>
        <time>2019-06-01T14:43:34.000Z</time>
      </trkpt>
      <trkpt lat="45.21369" lon="5.56613">
        <ele>1333.6</ele>
        <time>2019-06-01T14:43:35.000Z</time>
      </trkpt>
      <trkpt lat="45.21371" lon="5.56614">
        <ele>1333.8</ele>
        <time>2019-06-01T14:43:38.000Z</time>
      </trkpt>
      <trkpt lat="45.21379" lon="5.56621">
        <ele>1335.6</ele>
        <time>2019-06-01T14:43:44.000Z</time>
      </trkpt>
      <trkpt lat="45.2138" lon="5.56622">
        <ele>1336</ele>
        <time>2019-06-01T14:43:49.000Z</time>
      </trkpt>
      <trkpt lat="45.21383" lon="5.56625">
        <ele>1337.4</ele>
        <time>2019-06-01T14:43:55.000Z</time>
      </trkpt>
      <trkpt lat="45.21386" lon="5.56636">
        <ele>1336.2</ele>
        <time>2019-06-01T14:43:58.000Z</time>
      </trkpt>
      <trkpt lat="45.21386" lon="5.56649">
        <ele>1335.2</ele>
        <time>2019-06-01T14:43:59.000Z</time>
      </trkpt>
      <trkpt lat="45.21385" lon="5.5665">
        <ele>1335.2</ele>
        <time>2019-06-01T14:44:05.000Z</time>
      </trkpt>
      <trkpt lat="45.21385" lon="5.56656">
        <ele>1334.8</ele>
        <time>2019-06-01T14:44:10.000Z</time>
      </trkpt>
      <trkpt lat="45.21382" lon="5.56667">
        <ele>1333.8</ele>
        <time>2019-06-01T14:44:16.000Z</time>
      </trkpt>
      <trkpt lat="45.21378" lon="5.56675">
        <ele>1333</ele>
        <time>2019-06-01T14:44:17.000Z</time>
      </trkpt>
      <trkpt lat="45.21372" lon="5.56684">
        <ele>1332</ele>
        <time>2019-06-01T14:44:21.000Z</time>
      </trkpt>
      <trkpt lat="45.21369" lon="5.56687">
        <ele>1331.6</ele>
        <time>2019-06-01T14:44:22.000Z</time>
      </trkpt>
      <trkpt lat="45.21367" lon="5.56688">
        <ele>1331.4</ele>
        <time>2019-06-01T14:44:28.000Z</time>
      </trkpt>
      <trkpt lat="45.21361" lon="5.56697">
        <ele>1330.6</ele>
        <time>2019-06-01T14:44:32.000Z</time>
      </trkpt>
      <trkpt lat="45.21361" lon="5.56705">
        <ele>1330</ele>
        <time>2019-06-01T14:44:34.000Z</time>
      </trkpt>
      <trkpt lat="45.21364" lon="5.56716">
        <ele>1329.2</ele>
        <time>2019-06-01T14:44:39.000Z</time>
      </trkpt>
      <trkpt lat="45.21364" lon="5.56717">
        <ele>1329</ele>
        <time>2019-06-01T14:44:44.000Z</time>
      </trkpt>
      <trkpt lat="45.21369" lon="5.56719">
        <ele>1328.4</ele>
        <time>2019-06-01T14:44:45.000Z</time>
      </trkpt>
      <trkpt lat="45.2137" lon="5.5672">
        <ele>1328.2</ele>
        <time>2019-06-01T14:44:49.000Z</time>
      </trkpt>
      <trkpt lat="45.21374" lon="5.56724">
        <ele>1327.6</ele>
        <time>2019-06-01T14:44:56.000Z</time>
      </trkpt>
      <trkpt lat="45.21371" lon="5.56729">
        <ele>1327.2</ele>
        <time>2019-06-01T14:45:01.000Z</time>
      </trkpt>
      <trkpt lat="45.2137" lon="5.56732">
        <ele>1326.8</ele>
        <time>2019-06-01T14:45:07.000Z</time>
      </trkpt>
      <trkpt lat="45.21367" lon="5.56741">
        <ele>1326.4</ele>
        <time>2019-06-01T14:45:12.000Z</time>
      </trkpt>
      <trkpt lat="45.21365" lon="5.5675">
        <ele>1325.6</ele>
        <time>2019-06-01T14:45:13.000Z</time>
      </trkpt>
      <trkpt lat="45.21365" lon="5.56752">
        <ele>1325.6</ele>
        <time>2019-06-01T14:45:14.000Z</time>
      </trkpt>
      <trkpt lat="45.21367" lon="5.5676">
        <ele>1325.2</ele>
        <time>2019-06-01T14:45:18.000Z</time>
      </trkpt>
      <trkpt lat="45.21376" lon="5.56773">
        <ele>1324.8</ele>
        <time>2019-06-01T14:45:19.000Z</time>
      </trkpt>
      <trkpt lat="45.21379" lon="5.56784">
        <ele>1324.8</ele>
        <time>2019-06-01T14:45:23.000Z</time>
      </trkpt>
      <trkpt lat="45.21385" lon="5.56794">
        <ele>1324.8</ele>
        <time>2019-06-01T14:45:29.000Z</time>
      </trkpt>
      <trkpt lat="45.21389" lon="5.568">
        <ele>1325.2</ele>
        <time>2019-06-01T14:45:31.000Z</time>
      </trkpt>
      <trkpt lat="45.2139" lon="5.56802">
        <ele>1325.2</ele>
        <time>2019-06-01T14:45:37.000Z</time>
      </trkpt>
      <trkpt lat="45.2139" lon="5.56804">
        <ele>1325.2</ele>
        <time>2019-06-01T14:45:41.000Z</time>
      </trkpt>
      <trkpt lat="45.21393" lon="5.56808">
        <ele>1325.2</ele>
        <time>2019-06-01T14:45:43.000Z</time>
      </trkpt>
      <trkpt lat="45.21394" lon="5.56809">
        <ele>1325.2</ele>
        <time>2019-06-01T14:45:46.000Z</time>
      </trkpt>
      <trkpt lat="45.21396" lon="5.56809">
        <ele>1326</ele>
        <time>2019-06-01T14:45:48.000Z</time>
      </trkpt>
      <trkpt lat="45.21396" lon="5.56814">
        <ele>1326.8</ele>
        <time>2019-06-01T14:45:53.000Z</time>
      </trkpt>
      <trkpt lat="45.21395" lon="5.56816">
        <ele>1327.2</ele>
        <time>2019-06-01T14:45:58.000Z</time>
      </trkpt>
      <trkpt lat="45.21394" lon="5.56817">
        <ele>1327.4</ele>
        <time>2019-06-01T14:46:03.000Z</time>
      </trkpt>
      <trkpt lat="45.21398" lon="5.56821">
        <ele>1328.2</ele>
        <time>2019-06-01T14:46:04.000Z</time>
      </trkpt>
      <trkpt lat="45.214" lon="5.56824">
        <ele>1328</ele>
        <time>2019-06-01T14:46:08.000Z</time>
      </trkpt>
      <trkpt lat="45.21406" lon="5.56827">
        <ele>1327.8</ele>
        <time>2019-06-01T14:46:09.000Z</time>
      </trkpt>
      <trkpt lat="45.2141" lon="5.56826">
        <ele>1327.8</ele>
        <time>2019-06-01T14:46:12.000Z</time>
      </trkpt>
      <trkpt lat="45.2142" lon="5.56825">
        <ele>1327.4</ele>
        <time>2019-06-01T14:46:13.000Z</time>
      </trkpt>
      <trkpt lat="45.21431" lon="5.5683">
        <ele>1327</ele>
        <time>2019-06-01T14:49:55.000Z</time>
      </trkpt>
      <trkpt lat="45.21437" lon="5.56825">
        <ele>1326.4</ele>
        <time>2019-06-01T14:50:00.000Z</time>
      </trkpt>
      <trkpt lat="45.21438" lon="5.56822">
        <ele>1326.2</ele>
        <time>2019-06-01T14:50:04.000Z</time>
      </trkpt>
      <trkpt lat="45.21443" lon="5.56814">
        <ele>1325.6</ele>
        <time>2019-06-01T14:50:11.000Z</time>
      </trkpt>
      <trkpt lat="45.21445" lon="5.56812">
        <ele>1325.6</ele>
        <time>2019-06-01T14:50:24.000Z</time>
      </trkpt>
      <trkpt lat="45.2145" lon="5.56804">
        <ele>1324.8</ele>
        <time>2019-06-01T14:50:32.000Z</time>
      </trkpt>
      <trkpt lat="45.21452" lon="5.56802">
        <ele>1324.8</ele>
        <time>2019-06-01T14:50:44.000Z</time>
      </trkpt>
      <trkpt lat="45.21463" lon="5.56797">
        <ele>1312.5</ele>
        <time>2019-06-01T14:50:47.000Z</time>
      </trkpt>
      <trkpt lat="45.21472" lon="5.56792">
        <ele>1312.1</ele>
        <time>2019-06-01T14:50:51.000Z</time>
      </trkpt>
      <trkpt lat="45.21478" lon="5.56786">
        <ele>1312</ele>
        <time>2019-06-01T14:50:57.000Z</time>
      </trkpt>
      <trkpt lat="45.21483" lon="5.56776">
        <ele>1311.9</ele>
        <time>2019-06-01T14:50:58.000Z</time>
      </trkpt>
      <trkpt lat="45.2149" lon="5.56763">
        <ele>1316.8</ele>
        <time>2019-06-01T14:51:01.000Z</time>
      </trkpt>
      <trkpt lat="45.21495" lon="5.56761">
        <ele>1317</ele>
        <time>2019-06-01T14:51:02.000Z</time>
      </trkpt>
      <trkpt lat="45.21497" lon="5.56755">
        <ele>1317.4</ele>
        <time>2019-06-01T14:51:06.000Z</time>
      </trkpt>
      <trkpt lat="45.215" lon="5.56754">
        <ele>1321.8</ele>
        <time>2019-06-01T14:51:10.000Z</time>
      </trkpt>
      <trkpt lat="45.21504" lon="5.56755">
        <ele>1326.8</ele>
        <time>2019-06-01T14:51:11.000Z</time>
      </trkpt>
      <trkpt lat="45.21511" lon="5.5675">
        <ele>1328</ele>
        <time>2019-06-01T14:51:23.000Z</time>
      </trkpt>
      <trkpt lat="45.21517" lon="5.56753">
        <ele>1328.8</ele>
        <time>2019-06-01T14:51:27.000Z</time>
      </trkpt>
      <trkpt lat="45.21519" lon="5.56752">
        <ele>1328.6</ele>
        <time>2019-06-01T14:51:30.000Z</time>
      </trkpt>
      <trkpt lat="45.21521" lon="5.56748">
        <ele>1327.8</ele>
        <time>2019-06-01T14:51:34.000Z</time>
      </trkpt>
      <trkpt lat="45.21526" lon="5.56746">
        <ele>1327.2</ele>
        <time>2019-06-01T14:51:35.000Z</time>
      </trkpt>
      <trkpt lat="45.21526" lon="5.56748">
        <ele>1327</ele>
        <time>2019-06-01T14:51:38.000Z</time>
      </trkpt>
      <trkpt lat="45.21529" lon="5.56751">
        <ele>1326.4</ele>
        <time>2019-06-01T14:51:41.000Z</time>
      </trkpt>
      <trkpt lat="45.21529" lon="5.5675">
        <ele>1326.2</ele>
        <time>2019-06-01T14:51:43.000Z</time>
      </trkpt>
      <trkpt lat="45.21531" lon="5.56754">
        <ele>1325.4</ele>
        <time>2019-06-01T14:51:45.000Z</time>
      </trkpt>
      <trkpt lat="45.21532" lon="5.56757">
        <ele>1325.2</ele>
        <time>2019-06-01T14:51:46.000Z</time>
      </trkpt>
      <trkpt lat="45.21533" lon="5.56756">
        <ele>1325</ele>
        <time>2019-06-01T14:51:49.000Z</time>
      </trkpt>
      <trkpt lat="45.2154" lon="5.56758">
        <ele>1322.4</ele>
        <time>2019-06-01T14:51:50.000Z</time>
      </trkpt>
      <trkpt lat="45.21545" lon="5.56754">
        <ele>1321.2</ele>
        <time>2019-06-01T14:51:54.000Z</time>
      </trkpt>
      <trkpt lat="45.21548" lon="5.56751">
        <ele>1320.2</ele>
        <time>2019-06-01T14:51:58.000Z</time>
      </trkpt>
      <trkpt lat="45.21553" lon="5.56745">
        <ele>1318.4</ele>
        <time>2019-06-01T14:52:04.000Z</time>
      </trkpt>
      <trkpt lat="45.21554" lon="5.56746">
        <ele>1318</ele>
        <time>2019-06-01T14:52:05.000Z</time>
      </trkpt>
      <trkpt lat="45.21558" lon="5.5675">
        <ele>1317.6</ele>
        <time>2019-06-01T14:52:08.000Z</time>
      </trkpt>
      <trkpt lat="45.21562" lon="5.56751">
        <ele>1317.2</ele>
        <time>2019-06-01T14:52:10.000Z</time>
      </trkpt>
      <trkpt lat="45.21563" lon="5.56751">
        <ele>1316.8</ele>
        <time>2019-06-01T14:52:14.000Z</time>
      </trkpt>
      <trkpt lat="45.21565" lon="5.56754">
        <ele>1316.4</ele>
        <time>2019-06-01T14:52:15.000Z</time>
      </trkpt>
      <trkpt lat="45.21566" lon="5.56754">
        <ele>1316.4</ele>
        <time>2019-06-01T14:52:21.000Z</time>
      </trkpt>
      <trkpt lat="45.2157" lon="5.56754">
        <ele>1315.4</ele>
        <time>2019-06-01T14:52:25.000Z</time>
      </trkpt>
      <trkpt lat="45.2157" lon="5.56754">
        <ele>1315.2</ele>
        <time>2019-06-01T14:52:31.000Z</time>
      </trkpt>
      <trkpt lat="45.21572" lon="5.56761">
        <ele>1314.8</ele>
        <time>2019-06-01T14:52:38.000Z</time>
      </trkpt>
      <trkpt lat="45.21575" lon="5.56764">
        <ele>1314.8</ele>
        <time>2019-06-01T14:52:44.000Z</time>
      </trkpt>
      <trkpt lat="45.21576" lon="5.56765">
        <ele>1315</ele>
        <time>2019-06-01T14:52:48.000Z</time>
      </trkpt>
      <trkpt lat="45.21578" lon="5.56767">
        <ele>1314.8</ele>
        <time>2019-06-01T14:52:50.000Z</time>
      </trkpt>
      <trkpt lat="45.21581" lon="5.5677">
        <ele>1315.4</ele>
        <time>2019-06-01T14:52:52.000Z</time>
      </trkpt>
      <trkpt lat="45.21582" lon="5.56773">
        <ele>1317.2</ele>
        <time>2019-06-01T14:52:55.000Z</time>
      </trkpt>
      <trkpt lat="45.21585" lon="5.56778">
        <ele>1317.4</ele>
        <time>2019-06-01T14:52:59.000Z</time>
      </trkpt>
      <trkpt lat="45.21585" lon="5.56779">
        <ele>1317.6</ele>
        <time>2019-06-01T14:53:01.000Z</time>
      </trkpt>
      <trkpt lat="45.21583" lon="5.56785">
        <ele>1318.8</ele>
        <time>2019-06-01T14:53:05.000Z</time>
      </trkpt>
      <trkpt lat="45.21583" lon="5.56789">
        <ele>1319</ele>
        <time>2019-06-01T14:53:11.000Z</time>
      </trkpt>
      <trkpt lat="45.21585" lon="5.56795">
        <ele>1319</ele>
        <time>2019-06-01T14:53:12.000Z</time>
      </trkpt>
      <trkpt lat="45.21589" lon="5.56805">
        <ele>1318.6</ele>
        <time>2019-06-01T14:53:17.000Z</time>
      </trkpt>
      <trkpt lat="45.21594" lon="5.56813">
        <ele>1318.2</ele>
        <time>2019-06-01T14:53:24.000Z</time>
      </trkpt>
      <trkpt lat="45.21596" lon="5.56816">
        <ele>1317.8</ele>
        <time>2019-06-01T14:53:28.000Z</time>
      </trkpt>
      <trkpt lat="45.21598" lon="5.56818">
        <ele>1317.8</ele>
        <time>2019-06-01T14:53:33.000Z</time>
      </trkpt>
      <trkpt lat="45.21599" lon="5.5682">
        <ele>1317.6</ele>
        <time>2019-06-01T14:53:35.000Z</time>
      </trkpt>
      <trkpt lat="45.21599" lon="5.56823">
        <ele>1317</ele>
        <time>2019-06-01T14:53:39.000Z</time>
      </trkpt>
      <trkpt lat="45.21602" lon="5.56827">
        <ele>1316.4</ele>
        <time>2019-06-01T14:53:40.000Z</time>
      </trkpt>
      <trkpt lat="45.21602" lon="5.56829">
        <ele>1316</ele>
        <time>2019-06-01T14:53:45.000Z</time>
      </trkpt>
      <trkpt lat="45.21605" lon="5.5683">
        <ele>1315.4</ele>
        <time>2019-06-01T14:53:49.000Z</time>
      </trkpt>
      <trkpt lat="45.2161" lon="5.5683">
        <ele>1314.8</ele>
        <time>2019-06-01T14:53:50.000Z</time>
      </trkpt>
      <trkpt lat="45.21611" lon="5.5683">
        <ele>1314.8</ele>
        <time>2019-06-01T14:53:53.000Z</time>
      </trkpt>
      <trkpt lat="45.21616" lon="5.5683">
        <ele>1314.2</ele>
        <time>2019-06-01T14:53:55.000Z</time>
      </trkpt>
      <trkpt lat="45.21625" lon="5.56834">
        <ele>1314</ele>
        <time>2019-06-01T14:54:02.000Z</time>
      </trkpt>
      <trkpt lat="45.21628" lon="5.56835">
        <ele>1313.8</ele>
        <time>2019-06-01T14:54:03.000Z</time>
      </trkpt>
      <trkpt lat="45.21633" lon="5.56836">
        <ele>1313.6</ele>
        <time>2019-06-01T14:54:07.000Z</time>
      </trkpt>
      <trkpt lat="45.21635" lon="5.56838">
        <ele>1313.8</ele>
        <time>2019-06-01T14:54:08.000Z</time>
      </trkpt>
      <trkpt lat="45.21639" lon="5.56838">
        <ele>1314</ele>
        <time>2019-06-01T14:54:16.000Z</time>
      </trkpt>
      <trkpt lat="45.2164" lon="5.56839">
        <ele>1314</ele>
        <time>2019-06-01T14:54:18.000Z</time>
      </trkpt>
      <trkpt lat="45.21645" lon="5.56839">
        <ele>1313.8</ele>
        <time>2019-06-01T14:54:20.000Z</time>
      </trkpt>
      <trkpt lat="45.2165" lon="5.5684">
        <ele>1313.8</ele>
        <time>2019-06-01T14:54:21.000Z</time>
      </trkpt>
      <trkpt lat="45.21651" lon="5.56841">
        <ele>1313.8</ele>
        <time>2019-06-01T14:54:23.000Z</time>
      </trkpt>
      <trkpt lat="45.21655" lon="5.56838">
        <ele>1314</ele>
        <time>2019-06-01T14:54:29.000Z</time>
      </trkpt>
      <trkpt lat="45.21656" lon="5.56839">
        <ele>1314.2</ele>
        <time>2019-06-01T14:54:50.000Z</time>
      </trkpt>
      <trkpt lat="45.21661" lon="5.5684">
        <ele>1314.4</ele>
        <time>2019-06-01T14:54:52.000Z</time>
      </trkpt>
      <trkpt lat="45.21662" lon="5.56841">
        <ele>1314.6</ele>
        <time>2019-06-01T14:54:53.000Z</time>
      </trkpt>
      <trkpt lat="45.21665" lon="5.5684">
        <ele>1314.8</ele>
        <time>2019-06-01T14:55:08.000Z</time>
      </trkpt>
      <trkpt lat="45.21666" lon="5.56842">
        <ele>1314.8</ele>
        <time>2019-06-01T14:55:12.000Z</time>
      </trkpt>
      <trkpt lat="45.21668" lon="5.56846">
        <ele>1315.2</ele>
        <time>2019-06-01T14:55:18.000Z</time>
      </trkpt>
      <trkpt lat="45.21669" lon="5.5685">
        <ele>1315.2</ele>
        <time>2019-06-01T14:55:22.000Z</time>
      </trkpt>
      <trkpt lat="45.2167" lon="5.56855">
        <ele>1316</ele>
        <time>2019-06-01T14:55:29.000Z</time>
      </trkpt>
      <trkpt lat="45.21671" lon="5.56855">
        <ele>1316</ele>
        <time>2019-06-01T14:55:31.000Z</time>
      </trkpt>
      <trkpt lat="45.21673" lon="5.56856">
        <ele>1316.4</ele>
        <time>2019-06-01T14:55:34.000Z</time>
      </trkpt>
      <trkpt lat="45.21675" lon="5.56854">
        <ele>1317.8</ele>
        <time>2019-06-01T14:55:37.000Z</time>
      </trkpt>
      <trkpt lat="45.21679" lon="5.56854">
        <ele>1312.8</ele>
        <time>2019-06-01T14:55:41.000Z</time>
      </trkpt>
      <trkpt lat="45.21677" lon="5.5685">
        <ele>1312.4</ele>
        <time>2019-06-01T14:55:45.000Z</time>
      </trkpt>
      <trkpt lat="45.21678" lon="5.56851">
        <ele>1312.2</ele>
        <time>2019-06-01T14:55:46.000Z</time>
      </trkpt>
      <trkpt lat="45.21684" lon="5.5685">
        <ele>1310.2</ele>
        <time>2019-06-01T14:55:50.000Z</time>
      </trkpt>
      <trkpt lat="45.21686" lon="5.56848">
        <ele>1312.2</ele>
        <time>2019-06-01T14:55:51.000Z</time>
      </trkpt>
      <trkpt lat="45.2169" lon="5.56845">
        <ele>1315</ele>
        <time>2019-06-01T14:55:57.000Z</time>
      </trkpt>
      <trkpt lat="45.21692" lon="5.56843">
        <ele>1317.6</ele>
        <time>2019-06-01T14:55:59.000Z</time>
      </trkpt>
      <trkpt lat="45.21703" lon="5.56853">
        <ele>1319.8</ele>
        <time>2019-06-01T14:56:03.000Z</time>
      </trkpt>
      <trkpt lat="45.21705" lon="5.56855">
        <ele>1320.6</ele>
        <time>2019-06-01T14:56:07.000Z</time>
      </trkpt>
      <trkpt lat="45.2171" lon="5.56855">
        <ele>1320.8</ele>
        <time>2019-06-01T14:56:08.000Z</time>
      </trkpt>
      <trkpt lat="45.21713" lon="5.56856">
        <ele>1321.4</ele>
        <time>2019-06-01T14:56:11.000Z</time>
      </trkpt>
      <trkpt lat="45.21717" lon="5.56858">
        <ele>1322.8</ele>
        <time>2019-06-01T14:56:15.000Z</time>
      </trkpt>
      <trkpt lat="45.21723" lon="5.56862">
        <ele>1323.8</ele>
        <time>2019-06-01T14:56:26.000Z</time>
      </trkpt>
      <trkpt lat="45.21725" lon="5.56863">
        <ele>1324.6</ele>
        <time>2019-06-01T14:56:31.000Z</time>
      </trkpt>
      <trkpt lat="45.21731" lon="5.56865">
        <ele>1325.6</ele>
        <time>2019-06-01T14:56:37.000Z</time>
      </trkpt>
      <trkpt lat="45.21733" lon="5.56866">
        <ele>1325.6</ele>
        <time>2019-06-01T14:56:45.000Z</time>
      </trkpt>
      <trkpt lat="45.21739" lon="5.5687">
        <ele>1327.4</ele>
        <time>2019-06-01T14:56:48.000Z</time>
      </trkpt>
      <trkpt lat="45.21741" lon="5.5687">
        <ele>1327.2</ele>
        <time>2019-06-01T14:56:53.000Z</time>
      </trkpt>
      <trkpt lat="45.21743" lon="5.56873">
        <ele>1327.6</ele>
        <time>2019-06-01T14:57:00.000Z</time>
      </trkpt>
      <trkpt lat="45.21747" lon="5.56877">
        <ele>1328.8</ele>
        <time>2019-06-01T14:57:01.000Z</time>
      </trkpt>
      <trkpt lat="45.21748" lon="5.56879">
        <ele>1329.4</ele>
        <time>2019-06-01T14:57:07.000Z</time>
      </trkpt>
      <trkpt lat="45.21751" lon="5.56879">
        <ele>1331</ele>
        <time>2019-06-01T14:57:11.000Z</time>
      </trkpt>
      <trkpt lat="45.21755" lon="5.56882">
        <ele>1331.6</ele>
        <time>2019-06-01T14:57:12.000Z</time>
      </trkpt>
      <trkpt lat="45.21765" lon="5.56887">
        <ele>1331.2</ele>
        <time>2019-06-01T14:57:19.000Z</time>
      </trkpt>
      <trkpt lat="45.21769" lon="5.56893">
        <ele>1330.8</ele>
        <time>2019-06-01T14:57:20.000Z</time>
      </trkpt>
      <trkpt lat="45.21772" lon="5.56898">
        <ele>1330.6</ele>
        <time>2019-06-01T14:57:25.000Z</time>
      </trkpt>
      <trkpt lat="45.21771" lon="5.56891">
        <ele>1332.2</ele>
        <time>2019-06-01T14:57:26.000Z</time>
      </trkpt>
      <trkpt lat="45.21776" lon="5.56891">
        <ele>1332.6</ele>
        <time>2019-06-01T14:57:31.000Z</time>
      </trkpt>
      <trkpt lat="45.21781" lon="5.56896">
        <ele>1333.6</ele>
        <time>2019-06-01T14:57:33.000Z</time>
      </trkpt>
      <trkpt lat="45.2179" lon="5.56906">
        <ele>1334.6</ele>
        <time>2019-06-01T14:57:36.000Z</time>
      </trkpt>
      <trkpt lat="45.21791" lon="5.56906">
        <ele>1334.8</ele>
        <time>2019-06-01T14:57:37.000Z</time>
      </trkpt>
      <trkpt lat="45.21798" lon="5.56906">
        <ele>1334.4</ele>
        <time>2019-06-01T14:57:40.000Z</time>
      </trkpt>
      <trkpt lat="45.21803" lon="5.56909">
        <ele>1335</ele>
        <time>2019-06-01T14:57:41.000Z</time>
      </trkpt>
      <trkpt lat="45.21804" lon="5.5691">
        <ele>1334.8</ele>
        <time>2019-06-01T14:57:42.000Z</time>
      </trkpt>
      <trkpt lat="45.21807" lon="5.56911">
        <ele>1335.8</ele>
        <time>2019-06-01T14:57:46.000Z</time>
      </trkpt>
      <trkpt lat="45.21808" lon="5.56911">
        <ele>1335.8</ele>
        <time>2019-06-01T14:57:47.000Z</time>
      </trkpt>
      <trkpt lat="45.21812" lon="5.56907">
        <ele>1336.2</ele>
        <time>2019-06-01T14:57:52.000Z</time>
      </trkpt>
      <trkpt lat="45.21813" lon="5.56907">
        <ele>1336</ele>
        <time>2019-06-01T14:57:53.000Z</time>
      </trkpt>
      <trkpt lat="45.21816" lon="5.56906">
        <ele>1336.2</ele>
        <time>2019-06-01T14:57:57.000Z</time>
      </trkpt>
      <trkpt lat="45.21819" lon="5.56906">
        <ele>1336.2</ele>
        <time>2019-06-01T14:57:58.000Z</time>
      </trkpt>
      <trkpt lat="45.21823" lon="5.56905">
        <ele>1336</ele>
        <time>2019-06-01T14:58:03.000Z</time>
      </trkpt>
      <trkpt lat="45.21825" lon="5.56908">
        <ele>1336</ele>
        <time>2019-06-01T14:58:06.000Z</time>
      </trkpt>
      <trkpt lat="45.2183" lon="5.56911">
        <ele>1336.2</ele>
        <time>2019-06-01T14:58:10.000Z</time>
      </trkpt>
      <trkpt lat="45.21831" lon="5.56912">
        <ele>1336</ele>
        <time>2019-06-01T14:58:11.000Z</time>
      </trkpt>
      <trkpt lat="45.21832" lon="5.56914">
        <ele>1336</ele>
        <time>2019-06-01T14:58:12.000Z</time>
      </trkpt>
      <trkpt lat="45.21838" lon="5.56917">
        <ele>1336</ele>
        <time>2019-06-01T14:58:14.000Z</time>
      </trkpt>
      <trkpt lat="45.2184" lon="5.56917">
        <ele>1336</ele>
        <time>2019-06-01T14:58:19.000Z</time>
      </trkpt>
      <trkpt lat="45.21847" lon="5.56915">
        <ele>1337.2</ele>
        <time>2019-06-01T14:58:25.000Z</time>
      </trkpt>
      <trkpt lat="45.21848" lon="5.56914">
        <ele>1337.6</ele>
        <time>2019-06-01T14:58:26.000Z</time>
      </trkpt>
      <trkpt lat="45.21852" lon="5.56911">
        <ele>1337.6</ele>
        <time>2019-06-01T14:58:34.000Z</time>
      </trkpt>
      <trkpt lat="45.21854" lon="5.56912">
        <ele>1337.6</ele>
        <time>2019-06-01T14:58:40.000Z</time>
      </trkpt>
      <trkpt lat="45.21863" lon="5.56917">
        <ele>1336.8</ele>
        <time>2019-06-01T14:58:41.000Z</time>
      </trkpt>
      <trkpt lat="45.21868" lon="5.56918">
        <ele>1336.4</ele>
        <time>2019-06-01T14:58:44.000Z</time>
      </trkpt>
      <trkpt lat="45.21871" lon="5.56918">
        <ele>1336.4</ele>
        <time>2019-06-01T14:58:45.000Z</time>
      </trkpt>
      <trkpt lat="45.21871" lon="5.56917">
        <ele>1336.4</ele>
        <time>2019-06-01T14:58:51.000Z</time>
      </trkpt>
      <trkpt lat="45.21872" lon="5.56916">
        <ele>1336.4</ele>
        <time>2019-06-01T14:58:57.000Z</time>
      </trkpt>
      <trkpt lat="45.21873" lon="5.56915">
        <ele>1337</ele>
        <time>2019-06-01T14:58:59.000Z</time>
      </trkpt>
      <trkpt lat="45.21875" lon="5.56909">
        <ele>1337.6</ele>
        <time>2019-06-01T14:59:02.000Z</time>
      </trkpt>
      <trkpt lat="45.21883" lon="5.56903">
        <ele>1338.4</ele>
        <time>2019-06-01T14:59:07.000Z</time>
      </trkpt>
      <trkpt lat="45.21884" lon="5.56901">
        <ele>1338.6</ele>
        <time>2019-06-01T14:59:11.000Z</time>
      </trkpt>
      <trkpt lat="45.21893" lon="5.56894">
        <ele>1341.6</ele>
        <time>2019-06-01T14:59:16.000Z</time>
      </trkpt>
      <trkpt lat="45.21901" lon="5.56891">
        <ele>1343.4</ele>
        <time>2019-06-01T14:59:22.000Z</time>
      </trkpt>
      <trkpt lat="45.21902" lon="5.56891">
        <ele>1343.6</ele>
        <time>2019-06-01T14:59:26.000Z</time>
      </trkpt>
      <trkpt lat="45.21906" lon="5.56887">
        <ele>1344.8</ele>
        <time>2019-06-01T14:59:31.000Z</time>
      </trkpt>
      <trkpt lat="45.21906" lon="5.56887">
        <ele>1344.6</ele>
        <time>2019-06-01T14:59:36.000Z</time>
      </trkpt>
      <trkpt lat="45.21914" lon="5.56881">
        <ele>1345.6</ele>
        <time>2019-06-01T14:59:40.000Z</time>
      </trkpt>
      <trkpt lat="45.21923" lon="5.56878">
        <ele>1347.2</ele>
        <time>2019-06-01T14:59:45.000Z</time>
      </trkpt>
      <trkpt lat="45.21927" lon="5.5688">
        <ele>1347.4</ele>
        <time>2019-06-01T14:59:50.000Z</time>
      </trkpt>
      <trkpt lat="45.21933" lon="5.5688">
        <ele>1348.4</ele>
        <time>2019-06-01T14:59:56.000Z</time>
      </trkpt>
      <trkpt lat="45.21942" lon="5.56869">
        <ele>1349.6</ele>
        <time>2019-06-01T15:00:01.000Z</time>
      </trkpt>
      <trkpt lat="45.21953" lon="5.56866">
        <ele>1351.2</ele>
        <time>2019-06-01T15:00:07.000Z</time>
      </trkpt>
      <trkpt lat="45.21965" lon="5.56865">
        <ele>1352.2</ele>
        <time>2019-06-01T15:00:08.000Z</time>
      </trkpt>
      <trkpt lat="45.2198" lon="5.56865">
        <ele>1353</ele>
        <time>2019-06-01T15:00:14.000Z</time>
      </trkpt>
      <trkpt lat="45.21988" lon="5.56862">
        <ele>1353.2</ele>
        <time>2019-06-01T15:00:21.000Z</time>
      </trkpt>
      <trkpt lat="45.21997" lon="5.56846">
        <ele>1353</ele>
        <time>2019-06-01T15:00:27.000Z</time>
      </trkpt>
      <trkpt lat="45.22007" lon="5.56828">
        <ele>1352.2</ele>
        <time>2019-06-01T15:00:31.000Z</time>
      </trkpt>
      <trkpt lat="45.22015" lon="5.56814">
        <ele>1351</ele>
        <time>2019-06-01T15:00:36.000Z</time>
      </trkpt>
      <trkpt lat="45.22022" lon="5.56795">
        <ele>1349.2</ele>
        <time>2019-06-01T15:00:42.000Z</time>
      </trkpt>
      <trkpt lat="45.22029" lon="5.56776">
        <ele>1347</ele>
        <time>2019-06-01T15:00:47.000Z</time>
      </trkpt>
      <trkpt lat="45.22034" lon="5.56753">
        <ele>1344.4</ele>
        <time>2019-06-01T15:00:52.000Z</time>
      </trkpt>
      <trkpt lat="45.2204" lon="5.56734">
        <ele>1341.6</ele>
        <time>2019-06-01T15:00:57.000Z</time>
      </trkpt>
      <trkpt lat="45.22048" lon="5.5671">
        <ele>1337.8</ele>
        <time>2019-06-01T15:01:02.000Z</time>
      </trkpt>
      <trkpt lat="45.22048" lon="5.56704">
        <ele>1337.4</ele>
        <time>2019-06-01T15:01:06.000Z</time>
      </trkpt>
      <trkpt lat="45.22061" lon="5.56684">
        <ele>1333.6</ele>
        <time>2019-06-01T15:01:10.000Z</time>
      </trkpt>
      <trkpt lat="45.22072" lon="5.56659">
        <ele>1329.6</ele>
        <time>2019-06-01T15:01:15.000Z</time>
      </trkpt>
      <trkpt lat="45.22083" lon="5.5664">
        <ele>1325.8</ele>
        <time>2019-06-01T15:01:18.000Z</time>
      </trkpt>
      <trkpt lat="45.22089" lon="5.56626">
        <ele>1323.4</ele>
        <time>2019-06-01T15:01:24.000Z</time>
      </trkpt>
      <trkpt lat="45.22091" lon="5.56608">
        <ele>1320.4</ele>
        <time>2019-06-01T15:01:29.000Z</time>
      </trkpt>
      <trkpt lat="45.22087" lon="5.56586">
        <ele>1317</ele>
        <time>2019-06-01T15:01:33.000Z</time>
      </trkpt>
      <trkpt lat="45.22082" lon="5.56568">
        <ele>1314.4</ele>
        <time>2019-06-01T15:01:38.000Z</time>
      </trkpt>
      <trkpt lat="45.22076" lon="5.56549">
        <ele>1312.4</ele>
        <time>2019-06-01T15:01:42.000Z</time>
      </trkpt>
      <trkpt lat="45.2207" lon="5.56531">
        <ele>1311</ele>
        <time>2019-06-01T15:01:46.000Z</time>
      </trkpt>
      <trkpt lat="45.22064" lon="5.56516">
        <ele>1310</ele>
        <time>2019-06-01T15:01:51.000Z</time>
      </trkpt>
      <trkpt lat="45.22058" lon="5.56505">
        <ele>1309.6</ele>
        <time>2019-06-01T15:01:57.000Z</time>
      </trkpt>
      <trkpt lat="45.22052" lon="5.56494">
        <ele>1309.4</ele>
        <time>2019-06-01T15:02:02.000Z</time>
      </trkpt>
      <trkpt lat="45.22046" lon="5.5648">
        <ele>1309.4</ele>
        <time>2019-06-01T15:02:07.000Z</time>
      </trkpt>
      <trkpt lat="45.22041" lon="5.56472">
        <ele>1309.6</ele>
        <time>2019-06-01T15:02:12.000Z</time>
      </trkpt>
      <trkpt lat="45.22033" lon="5.56456">
        <ele>1311.2</ele>
        <time>2019-06-01T15:02:17.000Z</time>
      </trkpt>
      <trkpt lat="45.22024" lon="5.56445">
        <ele>1313.6</ele>
        <time>2019-06-01T15:02:23.000Z</time>
      </trkpt>
      <trkpt lat="45.22015" lon="5.56434">
        <ele>1314.6</ele>
        <time>2019-06-01T15:02:28.000Z</time>
      </trkpt>
      <trkpt lat="45.22005" lon="5.56418">
        <ele>1316.6</ele>
        <time>2019-06-01T15:02:33.000Z</time>
      </trkpt>
      <trkpt lat="45.22" lon="5.56406">
        <ele>1318.2</ele>
        <time>2019-06-01T15:02:34.000Z</time>
      </trkpt>
      <trkpt lat="45.21993" lon="5.56394">
        <ele>1319.2</ele>
        <time>2019-06-01T15:02:36.000Z</time>
      </trkpt>
      <trkpt lat="45.21987" lon="5.56377">
        <ele>1320</ele>
        <time>2019-06-01T15:02:40.000Z</time>
      </trkpt>
      <trkpt lat="45.21979" lon="5.56357">
        <ele>1321.2</ele>
        <time>2019-06-01T15:02:41.000Z</time>
      </trkpt>
      <trkpt lat="45.21972" lon="5.5634">
        <ele>1322.2</ele>
        <time>2019-06-01T15:02:46.000Z</time>
      </trkpt>
      <trkpt lat="45.21965" lon="5.56324">
        <ele>1322.6</ele>
        <time>2019-06-01T15:02:49.000Z</time>
      </trkpt>
      <trkpt lat="45.21956" lon="5.56306">
        <ele>1322.8</ele>
        <time>2019-06-01T15:02:52.000Z</time>
      </trkpt>
      <trkpt lat="45.21949" lon="5.56292">
        <ele>1322.4</ele>
        <time>2019-06-01T15:02:57.000Z</time>
      </trkpt>
      <trkpt lat="45.21938" lon="5.56276">
        <ele>1321.6</ele>
        <time>2019-06-01T15:03:03.000Z</time>
      </trkpt>
      <trkpt lat="45.21929" lon="5.56257">
        <ele>1321</ele>
        <time>2019-06-01T15:03:05.000Z</time>
      </trkpt>
      <trkpt lat="45.2192" lon="5.56244">
        <ele>1320.4</ele>
        <time>2019-06-01T15:03:08.000Z</time>
      </trkpt>
      <trkpt lat="45.2192" lon="5.56246">
        <ele>1320.2</ele>
        <time>2019-06-01T15:03:13.000Z</time>
      </trkpt>
      <trkpt lat="45.21918" lon="5.56249">
        <ele>1319.8</ele>
        <time>2019-06-01T15:03:18.000Z</time>
      </trkpt>
      <trkpt lat="45.21913" lon="5.56249">
        <ele>1319.2</ele>
        <time>2019-06-01T15:03:24.000Z</time>
      </trkpt>
      <trkpt lat="45.21912" lon="5.56249">
        <ele>1319</ele>
        <time>2019-06-01T15:03:26.000Z</time>
      </trkpt>
      <trkpt lat="45.21908" lon="5.5625">
        <ele>1318</ele>
        <time>2019-06-01T15:03:29.000Z</time>
      </trkpt>
      <trkpt lat="45.21906" lon="5.56248">
        <ele>1317.4</ele>
        <time>2019-06-01T15:03:36.000Z</time>
      </trkpt>
      <trkpt lat="45.21908" lon="5.56243">
        <ele>1316.8</ele>
        <time>2019-06-01T15:03:41.000Z</time>
      </trkpt>
      <trkpt lat="45.2191" lon="5.56233">
        <ele>1315.8</ele>
        <time>2019-06-01T15:03:47.000Z</time>
      </trkpt>
      <trkpt lat="45.21905" lon="5.56229">
        <ele>1314.8</ele>
        <time>2019-06-01T15:03:48.000Z</time>
      </trkpt>
      <trkpt lat="45.21903" lon="5.56229">
        <ele>1314.6</ele>
        <time>2019-06-01T15:03:55.000Z</time>
      </trkpt>
      <trkpt lat="45.219" lon="5.56229">
        <ele>1314.2</ele>
        <time>2019-06-01T15:03:56.000Z</time>
      </trkpt>
      <trkpt lat="45.219" lon="5.56223">
        <ele>1313.2</ele>
        <time>2019-06-01T15:04:00.000Z</time>
      </trkpt>
      <trkpt lat="45.21903" lon="5.56207">
        <ele>1311.2</ele>
        <time>2019-06-01T15:04:03.000Z</time>
      </trkpt>
      <trkpt lat="45.21903" lon="5.56194">
        <ele>1308.6</ele>
        <time>2019-06-01T15:04:05.000Z</time>
      </trkpt>
      <trkpt lat="45.21901" lon="5.56191">
        <ele>1307.8</ele>
        <time>2019-06-01T15:04:06.000Z</time>
      </trkpt>
      <trkpt lat="45.21898" lon="5.56186">
        <ele>1307</ele>
        <time>2019-06-01T15:04:10.000Z</time>
      </trkpt>
      <trkpt lat="45.21891" lon="5.56178">
        <ele>1304.8</ele>
        <time>2019-06-01T15:04:36.000Z</time>
      </trkpt>
      <trkpt lat="45.21885" lon="5.5617">
        <ele>1303.6</ele>
        <time>2019-06-01T15:04:44.000Z</time>
      </trkpt>
      <trkpt lat="45.21881" lon="5.56159">
        <ele>1301.6</ele>
        <time>2019-06-01T15:04:50.000Z</time>
      </trkpt>
      <trkpt lat="45.21881" lon="5.56158">
        <ele>1301.4</ele>
        <time>2019-06-01T15:04:56.000Z</time>
      </trkpt>
      <trkpt lat="45.21874" lon="5.56144">
        <ele>1299.2</ele>
        <time>2019-06-01T15:05:00.000Z</time>
      </trkpt>
      <trkpt lat="45.21873" lon="5.56143">
        <ele>1299</ele>
        <time>2019-06-01T15:05:02.000Z</time>
      </trkpt>
      <trkpt lat="45.21869" lon="5.56138">
        <ele>1298</ele>
        <time>2019-06-01T15:05:10.000Z</time>
      </trkpt>
      <trkpt lat="45.21866" lon="5.56133">
        <ele>1297.2</ele>
        <time>2019-06-01T15:05:17.000Z</time>
      </trkpt>
      <trkpt lat="45.21865" lon="5.56129">
        <ele>1296.6</ele>
        <time>2019-06-01T15:05:23.000Z</time>
      </trkpt>
      <trkpt lat="45.21864" lon="5.56127">
        <ele>1296.4</ele>
        <time>2019-06-01T15:05:31.000Z</time>
      </trkpt>
      <trkpt lat="45.21863" lon="5.56126">
        <ele>1295.8</ele>
        <time>2010-01-01T06:20:05Z</time>
      </trkpt>
      <trkpt lat="45.21853" lon="5.56119">
        <ele>1295.8</ele>
        <time>2010-01-01T06:20:16Z</time>
      </trkpt>
      <trkpt lat="45.21846" lon="5.56112">
        <ele>1297</ele>
        <time>2010-01-01T06:20:22Z</time>
      </trkpt>
      <trkpt lat="45.21841" lon="5.56098">
        <ele>1296.8</ele>
        <time>2010-01-01T06:20:25Z</time>
      </trkpt>
      <trkpt lat="45.21837" lon="5.56087">
        <ele>1296.6</ele>
        <time>2010-01-01T06:20:26Z</time>
      </trkpt>
      <trkpt lat="45.21835" lon="5.56078">
        <ele>1296.4</ele>
        <time>2010-01-01T06:20:28Z</time>
      </trkpt>
      <trkpt lat="45.21834" lon="5.56074">
        <ele>1296.2</ele>
        <time>2010-01-01T06:20:28Z</time>
      </trkpt>
      <trkpt lat="45.21831" lon="5.56057">
        <ele>1295</ele>
        <time>2010-01-01T06:20:30Z</time>
      </trkpt>
      <trkpt lat="45.2183" lon="5.56041">
        <ele>1293</ele>
        <time>2010-01-01T06:20:41Z</time>
      </trkpt>
      <trkpt lat="45.21827" lon="5.56031">
        <ele>1290.8</ele>
        <time>2010-01-01T06:20:48Z</time>
      </trkpt>
      <trkpt lat="45.21827" lon="5.56022">
        <ele>1287.6</ele>
        <time>2010-01-01T06:20:52Z</time>
      </trkpt>
      <trkpt lat="45.21833" lon="5.56019">
        <ele>1296</ele>
        <time>2010-01-01T06:20:53Z</time>
      </trkpt>
      <trkpt lat="45.21835" lon="5.56019">
        <ele>1296</ele>
        <time>2010-01-01T06:21:01Z</time>
      </trkpt>
      <trkpt lat="45.21836" lon="5.56018">
        <ele>1296</ele>
        <time>2010-01-01T06:21:09Z</time>
      </trkpt>
      <trkpt lat="45.21848" lon="5.56011">
        <ele>1299</ele>
        <time>2010-01-01T06:21:12Z</time>
      </trkpt>
      <trkpt lat="45.21849" lon="5.56009">
        <ele>1299</ele>
        <time>2010-01-01T06:21:14Z</time>
      </trkpt>
      <trkpt lat="45.21849" lon="5.56008">
        <ele>1299</ele>
        <time>2010-01-01T06:21:16Z</time>
      </trkpt>
      <trkpt lat="45.21848" lon="5.55981">
        <ele>1301</ele>
        <time>2010-01-01T06:21:18Z</time>
      </trkpt>
      <trkpt lat="45.21841" lon="5.55968">
        <ele>1301</ele>
        <time>2010-01-01T06:21:22Z</time>
      </trkpt>
      <trkpt lat="45.21832" lon="5.55953">
        <ele>1301</ele>
        <time>2010-01-01T06:21:23Z</time>
      </trkpt>
      <trkpt lat="45.21821" lon="5.55938">
        <ele>1301</ele>
        <time>2010-01-01T06:21:23Z</time>
      </trkpt>
      <trkpt lat="45.218" lon="5.55902">
        <ele>1303</ele>
        <time>2010-01-01T06:21:24Z</time>
      </trkpt>
      <trkpt lat="45.21784" lon="5.55863">
        <ele>1307</ele>
        <time>2010-01-01T06:21:24Z</time>
      </trkpt>
      <trkpt lat="45.2178" lon="5.55816">
        <ele>1310</ele>
        <time>2010-01-01T06:21:25Z</time>
      </trkpt>
      <trkpt lat="45.21776" lon="5.55774">
        <ele>1312</ele>
        <time>2010-01-01T06:21:27Z</time>
      </trkpt>
      <trkpt lat="45.21779" lon="5.55732">
        <ele>1318</ele>
        <time>2010-01-01T06:21:30Z</time>
      </trkpt>
      <trkpt lat="45.21785" lon="5.55701">
        <ele>1323</ele>
        <time>2010-01-01T06:21:34Z</time>
      </trkpt>
      <trkpt lat="45.21796" lon="5.55676">
        <ele>1325</ele>
        <time>2010-01-01T06:21:34Z</time>
      </trkpt>
      <trkpt lat="45.21797" lon="5.55675">
        <ele>1325</ele>
        <time>2010-01-01T06:21:38Z</time>
      </trkpt>
      <trkpt lat="45.21798" lon="5.55673">
        <ele>1326</ele>
        <time>2010-01-01T06:21:39Z</time>
      </trkpt>
      <trkpt lat="45.21811" lon="5.55643">
        <ele>1328</ele>
        <time>2010-01-01T06:21:44Z</time>
      </trkpt>
      <trkpt lat="45.21817" lon="5.55603">
        <ele>1332</ele>
        <time>2010-01-01T06:21:44Z</time>
      </trkpt>
      <trkpt lat="45.21813" lon="5.55597">
        <ele>1332</ele>
        <time>2010-01-01T06:21:45Z</time>
      </trkpt>
      <trkpt lat="45.21796" lon="5.55568">
        <ele>1335</ele>
        <time>2010-01-01T06:21:51Z</time>
      </trkpt>
      <trkpt lat="45.21788" lon="5.5555">
        <ele>1337</ele>
        <time>2010-01-01T06:21:51Z</time>
      </trkpt>
      <trkpt lat="45.21786" lon="5.55548">
        <ele>1337</ele>
        <time>2010-01-01T06:21:54Z</time>
      </trkpt>
      <trkpt lat="45.21785" lon="5.55547">
        <ele>1338</ele>
        <time>2010-01-01T06:21:57Z</time>
      </trkpt>
      <trkpt lat="45.21784" lon="5.5554">
        <ele>1339</ele>
        <time>2010-01-01T06:21:59Z</time>
      </trkpt>
      <trkpt lat="45.21783" lon="5.55538">
        <ele>1339</ele>
        <time>2010-01-01T06:22:05Z</time>
      </trkpt>
      <trkpt lat="45.21782" lon="5.55537">
        <ele>1339</ele>
        <time>2010-01-01T06:22:05Z</time>
      </trkpt>
      <trkpt lat="45.21772" lon="5.55525">
        <ele>1340</ele>
        <time>2010-01-01T06:22:10Z</time>
      </trkpt>
      <trkpt lat="45.21771" lon="5.55523">
        <ele>1341</ele>
        <time>2010-01-01T06:22:13Z</time>
      </trkpt>
      <trkpt lat="45.21763" lon="5.55518">
        <ele>1341</ele>
        <time>2010-01-01T06:22:14Z</time>
      </trkpt>
      <trkpt lat="45.21761" lon="5.55517">
        <ele>1341</ele>
        <time>2010-01-01T06:22:17Z</time>
      </trkpt>
      <trkpt lat="45.2175" lon="5.55515">
        <ele>1340</ele>
        <time>2010-01-01T06:22:18Z</time>
      </trkpt>
      <trkpt lat="45.2175" lon="5.55513">
        <ele>1341</ele>
        <time>2010-01-01T06:22:20Z</time>
      </trkpt>
      <trkpt lat="45.2175" lon="5.55512">
        <ele>1341</ele>
        <time>2010-01-01T06:22:23Z</time>
      </trkpt>
      <trkpt lat="45.2175" lon="5.55511">
        <ele>1341</ele>
        <time>2010-01-01T06:22:25Z</time>
      </trkpt>
      <trkpt lat="45.2174" lon="5.5551">
        <ele>1340</ele>
        <time>2010-01-01T06:22:29Z</time>
      </trkpt>
      <trkpt lat="45.21715" lon="5.5549">
        <ele>1340</ele>
        <time>2010-01-01T06:22:35Z</time>
      </trkpt>
      <trkpt lat="45.21715" lon="5.55455">
        <ele>1350</ele>
        <time>2010-01-01T06:22:36Z</time>
      </trkpt>
      <trkpt lat="45.21721" lon="5.55445">
        <ele>1352</ele>
        <time>2010-01-01T06:22:41Z</time>
      </trkpt>
      <trkpt lat="45.21723" lon="5.55444">
        <ele>1353</ele>
        <time>2010-01-01T06:22:42Z</time>
      </trkpt>
      <trkpt lat="45.21725" lon="5.55444">
        <ele>1353</ele>
        <time>2010-01-01T06:22:45Z</time>
      </trkpt>
      <trkpt lat="45.21727" lon="5.55443">
        <ele>1353</ele>
        <time>2010-01-01T06:22:46Z</time>
      </trkpt>
      <trkpt lat="45.21728" lon="5.55443">
        <ele>1353</ele>
        <time>2010-01-01T06:22:47Z</time>
      </trkpt>
      <trkpt lat="45.2173" lon="5.55442">
        <ele>1353</ele>
        <time>2010-01-01T06:22:48Z</time>
      </trkpt>
      <trkpt lat="45.21751" lon="5.55448">
        <ele>1352</ele>
        <time>2010-01-01T06:22:51Z</time>
      </trkpt>
      <trkpt lat="45.21777" lon="5.5545">
        <ele>1355</ele>
        <time>2010-01-01T06:22:52Z</time>
      </trkpt>
      <trkpt lat="45.21794" lon="5.55446">
        <ele>1357</ele>
        <time>2010-01-01T06:22:57Z</time>
      </trkpt>
      <trkpt lat="45.21803" lon="5.55439">
        <ele>1360</ele>
        <time>2010-01-01T06:22:57Z</time>
      </trkpt>
      <trkpt lat="45.21804" lon="5.5543">
        <ele>1362</ele>
        <time>2010-01-01T06:22:58Z</time>
      </trkpt>
      <trkpt lat="45.21795" lon="5.55415">
        <ele>1365</ele>
        <time>2010-01-01T06:23:04Z</time>
      </trkpt>
      <trkpt lat="45.21773" lon="5.5541">
        <ele>1363</ele>
        <time>2010-01-01T06:23:06Z</time>
      </trkpt>
      <trkpt lat="45.21769" lon="5.55403">
        <ele>1364</ele>
        <time>2010-01-01T06:23:06Z</time>
      </trkpt>
      <trkpt lat="45.21767" lon="5.55397">
        <ele>1365</ele>
        <time>2010-01-01T06:23:06Z</time>
      </trkpt>
      <trkpt lat="45.21767" lon="5.55382">
        <ele>1369</ele>
        <time>2010-01-01T06:23:09Z</time>
      </trkpt>
      <trkpt lat="45.21775" lon="5.55375">
        <ele>1371</ele>
        <time>2010-01-01T06:23:10Z</time>
      </trkpt>
      <trkpt lat="45.21777" lon="5.55375">
        <ele>1371</ele>
        <time>2010-01-01T06:23:11Z</time>
      </trkpt>
      <trkpt lat="45.2178" lon="5.55375">
        <ele>1372</ele>
        <time>2010-01-01T06:23:13Z</time>
      </trkpt>
      <trkpt lat="45.21796" lon="5.5537">
        <ele>1374</ele>
        <time>2010-01-01T06:23:17Z</time>
      </trkpt>
      <trkpt lat="45.21811" lon="5.55353">
        <ele>1379</ele>
        <time>2010-01-01T06:23:25Z</time>
      </trkpt>
      <trkpt lat="45.21844" lon="5.55349">
        <ele>1385</ele>
        <time>2010-01-01T06:23:42Z</time>
      </trkpt>
      <trkpt lat="45.21876" lon="5.55344">
        <ele>1392</ele>
        <time>2010-01-01T06:23:43Z</time>
      </trkpt>
      <trkpt lat="45.2191" lon="5.55345">
        <ele>1394</ele>
        <time>2010-01-01T06:23:52Z</time>
      </trkpt>
      <trkpt lat="45.21948" lon="5.55349">
        <ele>1391</ele>
        <time>2010-01-01T06:24:02Z</time>
      </trkpt>
      <trkpt lat="45.21991" lon="5.55341">
        <ele>1393</ele>
        <time>2010-01-01T06:24:11Z</time>
      </trkpt>
      <trkpt lat="45.22016" lon="5.55334">
        <ele>1397</ele>
        <time>2010-01-01T06:24:17Z</time>
      </trkpt>
      <trkpt lat="45.22026" lon="5.55331">
        <ele>1399</ele>
        <time>2010-01-01T06:24:19Z</time>
      </trkpt>
      <trkpt lat="45.22042" lon="5.55331">
        <ele>1401</ele>
        <time>2010-01-01T06:24:21Z</time>
      </trkpt>
      <trkpt lat="45.22057" lon="5.55332">
        <ele>1401</ele>
        <time>2010-01-01T06:24:21Z</time>
      </trkpt>
      <trkpt lat="45.22073" lon="5.55328">
        <ele>1401</ele>
        <time>2010-01-01T06:24:37Z</time>
      </trkpt>
      <trkpt lat="45.22078" lon="5.55324">
        <ele>1402</ele>
        <time>2010-01-01T06:24:49Z</time>
      </trkpt>
      <trkpt lat="45.22079" lon="5.55322">
        <ele>1403</ele>
        <time>2010-01-01T06:24:49Z</time>
      </trkpt>
      <trkpt lat="45.22089" lon="5.55312">
        <ele>1405</ele>
        <time>2010-01-01T06:24:51Z</time>
      </trkpt>
      <trkpt lat="45.22117" lon="5.55302">
        <ele>1409</ele>
        <time>2010-01-01T06:24:58Z</time>
      </trkpt>
      <trkpt lat="45.22131" lon="5.55308">
        <ele>1406</ele>
        <time>2010-01-01T06:25:02Z</time>
      </trkpt>
      <trkpt lat="45.22137" lon="5.55315">
        <ele>1404</ele>
        <time>2010-01-01T06:25:02Z</time>
      </trkpt>
      <trkpt lat="45.22138" lon="5.55316">
        <ele>1403</ele>
        <time>2010-01-01T06:25:17Z</time>
      </trkpt>
      <trkpt lat="45.22143" lon="5.55317">
        <ele>1402</ele>
        <time>2010-01-01T06:25:30Z</time>
      </trkpt>
      <trkpt lat="45.22144" lon="5.55316">
        <ele>1403</ele>
        <time>2010-01-01T06:25:43Z</time>
      </trkpt>
      <trkpt lat="45.22147" lon="5.55316">
        <ele>1402</ele>
        <time>2010-01-01T06:25:49Z</time>
      </trkpt>
      <trkpt lat="45.22175" lon="5.55309">
        <ele>1403</ele>
        <time>2010-01-01T06:25:50Z</time>
      </trkpt>
      <trkpt lat="45.22193" lon="5.55304">
        <ele>1404</ele>
        <time>2010-01-01T06:25:51Z</time>
      </trkpt>
      <trkpt lat="45.22202" lon="5.55298">
        <ele>1407</ele>
        <time>2010-01-01T06:25:52Z</time>
      </trkpt>
      <trkpt lat="45.22203" lon="5.55297">
        <ele>1408</ele>
        <time>2010-01-01T06:25:56Z</time>
      </trkpt>
      <trkpt lat="45.22223" lon="5.55295">
        <ele>1408</ele>
        <time>2010-01-01T06:26:01Z</time>
      </trkpt>
      <trkpt lat="45.22242" lon="5.55287">
        <ele>1412</ele>
        <time>2010-01-01T06:26:07Z</time>
      </trkpt>
      <trkpt lat="45.2225" lon="5.55282">
        <ele>1415</ele>
        <time>2010-01-01T06:26:15Z</time>
      </trkpt>
      <trkpt lat="45.22254" lon="5.5528">
        <ele>1416</ele>
        <time>2010-01-01T06:26:23Z</time>
      </trkpt>
      <trkpt lat="45.2226" lon="5.55277">
        <ele>1418</ele>
        <time>2010-01-01T06:26:25Z</time>
      </trkpt>
      <trkpt lat="45.22264" lon="5.55273">
        <ele>1420</ele>
        <time>2010-01-01T06:26:33Z</time>
      </trkpt>
      <trkpt lat="45.22273" lon="5.55266">
        <ele>1423</ele>
        <time>2010-01-01T06:26:39Z</time>
      </trkpt>
      <trkpt lat="45.22274" lon="5.55266">
        <ele>1423</ele>
        <time>2010-01-01T06:26:45Z</time>
      </trkpt>
      <trkpt lat="45.22275" lon="5.55266">
        <ele>1423</ele>
        <time>2010-01-01T06:26:52Z</time>
      </trkpt>
      <trkpt lat="45.22276" lon="5.55265">
        <ele>1424</ele>
        <time>2010-01-01T06:26:57Z</time>
      </trkpt>
      <trkpt lat="45.22277" lon="5.55264">
        <ele>1424</ele>
        <time>2010-01-01T06:27:04Z</time>
      </trkpt>
      <trkpt lat="45.22279" lon="5.55264">
        <ele>1424</ele>
        <time>2010-01-01T06:27:11Z</time>
      </trkpt>
      <trkpt lat="45.22285" lon="5.55263">
        <ele>1425</ele>
        <time>2010-01-01T06:27:15Z</time>
      </trkpt>
      <trkpt lat="45.22292" lon="5.55265">
        <ele>1425</ele>
        <time>2010-01-01T06:27:18Z</time>
      </trkpt>
      <trkpt lat="45.22301" lon="5.55266">
        <ele>1425</ele>
        <time>2010-01-01T06:27:20Z</time>
      </trkpt>
      <trkpt lat="45.22302" lon="5.55265">
        <ele>1425</ele>
        <time>2010-01-01T06:27:23Z</time>
      </trkpt>
      <trkpt lat="45.22307" lon="5.55255">
        <ele>1429</ele>
        <time>2010-01-01T06:27:25Z</time>
      </trkpt>
      <trkpt lat="45.22308" lon="5.55251">
        <ele>1431</ele>
        <time>2010-01-01T06:27:29Z</time>
      </trkpt>
      <trkpt lat="45.22315" lon="5.55238">
        <ele>1438</ele>
        <time>2010-01-01T06:27:31Z</time>
      </trkpt>
      <trkpt lat="45.22316" lon="5.55238">
        <ele>1438</ele>
        <time>2010-01-01T06:27:34Z</time>
      </trkpt>
      <trkpt lat="45.22317" lon="5.55237">
        <ele>1439</ele>
        <time>2010-01-01T06:27:36Z</time>
      </trkpt>
      <trkpt lat="45.22324" lon="5.55218">
        <ele>1449</ele>
        <time>2010-01-01T06:27:39Z</time>
      </trkpt>
      <trkpt lat="45.22324" lon="5.55216">
        <ele>1450</ele>
        <time>2010-01-01T06:27:42Z</time>
      </trkpt>
      <trkpt lat="45.22325" lon="5.55205">
        <ele>1455</ele>
        <time>2010-01-01T06:27:59Z</time>
      </trkpt>
      <trkpt lat="45.22327" lon="5.55196">
        <ele>1460</ele>
        <time>2010-01-01T06:28:07Z</time>
      </trkpt>
      <trkpt lat="45.22333" lon="5.55194">
        <ele>1461</ele>
        <time>2010-01-01T06:28:12Z</time>
      </trkpt>
      <trkpt lat="45.22344" lon="5.55184">
        <ele>1464</ele>
        <time>2010-01-01T06:28:20Z</time>
      </trkpt>
      <trkpt lat="45.22344" lon="5.55183">
        <ele>1464</ele>
        <time>2010-01-01T06:28:27Z</time>
      </trkpt>
      <trkpt lat="45.2235" lon="5.55169">
        <ele>1469</ele>
        <time>2010-01-01T06:28:28Z</time>
      </trkpt>
      <trkpt lat="45.22358" lon="5.55167">
        <ele>1469</ele>
        <time>2010-01-01T06:28:31Z</time>
      </trkpt>
      <trkpt lat="45.22361" lon="5.55164">
        <ele>1469</ele>
        <time>2010-01-01T06:28:32Z</time>
      </trkpt>
      <trkpt lat="45.22366" lon="5.55158">
        <ele>1470</ele>
        <time>2010-01-01T06:28:33Z</time>
      </trkpt>
      <trkpt lat="45.22368" lon="5.55156">
        <ele>1470</ele>
        <time>2010-01-01T06:28:35Z</time>
      </trkpt>
      <trkpt lat="45.22373" lon="5.55154">
        <ele>1469</ele>
        <time>2010-01-01T06:28:39Z</time>
      </trkpt>
      <trkpt lat="45.2238" lon="5.55149">
        <ele>1469</ele>
        <time>2010-01-01T06:28:43Z</time>
      </trkpt>
      <trkpt lat="45.22385" lon="5.55147">
        <ele>1468</ele>
        <time>2010-01-01T06:28:44Z</time>
      </trkpt>
      <trkpt lat="45.22394" lon="5.55145">
        <ele>1467</ele>
        <time>2010-01-01T06:28:48Z</time>
      </trkpt>
      <trkpt lat="45.22406" lon="5.55131">
        <ele>1471</ele>
        <time>2010-01-01T06:28:50Z</time>
      </trkpt>
      <trkpt lat="45.22408" lon="5.55128">
        <ele>1471</ele>
        <time>2010-01-01T06:28:56Z</time>
      </trkpt>
      <trkpt lat="45.22419" lon="5.55119">
        <ele>1474</ele>
        <time>2010-01-01T06:29:00Z</time>
      </trkpt>
      <trkpt lat="45.2242" lon="5.55118">
        <ele>1474</ele>
        <time>2010-01-01T06:29:02Z</time>
      </trkpt>
      <trkpt lat="45.22424" lon="5.55108">
        <ele>1478</ele>
        <time>2010-01-01T06:29:06Z</time>
      </trkpt>
      <trkpt lat="45.22424" lon="5.55103">
        <ele>1479</ele>
        <time>2010-01-01T06:29:07Z</time>
      </trkpt>
      <trkpt lat="45.22424" lon="5.55102">
        <ele>1480</ele>
        <time>2010-01-01T06:29:11Z</time>
      </trkpt>
      <trkpt lat="45.22425" lon="5.55099">
        <ele>1481</ele>
        <time>2010-01-01T06:29:11Z</time>
      </trkpt>
      <trkpt lat="45.22428" lon="5.55088">
        <ele>1484</ele>
        <time>2010-01-01T06:29:17Z</time>
      </trkpt>
      <trkpt lat="45.22427" lon="5.55083">
        <ele>1486</ele>
        <time>2010-01-01T06:29:19Z</time>
      </trkpt>
      <trkpt lat="45.22427" lon="5.55068">
        <ele>1489</ele>
        <time>2010-01-01T06:29:19Z</time>
      </trkpt>
      <trkpt lat="45.22426" lon="5.55067">
        <ele>1489</ele>
        <time>2010-01-01T06:29:20Z</time>
      </trkpt>
      <trkpt lat="45.22425" lon="5.55064">
        <ele>1490</ele>
        <time>2010-01-01T06:29:21Z</time>
      </trkpt>
      <trkpt lat="45.22417" lon="5.55048">
        <ele>1494</ele>
        <time>2010-01-01T06:29:22Z</time>
      </trkpt>
      <trkpt lat="45.22415" lon="5.55042">
        <ele>1494</ele>
        <time>2010-01-01T06:29:23Z</time>
      </trkpt>
      <trkpt lat="45.22415" lon="5.5504">
        <ele>1495</ele>
        <time>2010-01-01T06:29:30Z</time>
      </trkpt>
      <trkpt lat="45.22415" lon="5.55039">
        <ele>1495</ele>
        <time>2010-01-01T06:29:35Z</time>
      </trkpt>
      <trkpt lat="45.22419" lon="5.5503">
        <ele>1496</ele>
        <time>2010-01-01T06:29:36Z</time>
      </trkpt>
      <trkpt lat="45.22419" lon="5.55027">
        <ele>1497</ele>
        <time>2010-01-01T06:29:38Z</time>
      </trkpt>
      <trkpt lat="45.22421" lon="5.55025">
        <ele>1497</ele>
        <time>2010-01-01T06:29:43Z</time>
      </trkpt>
      <trkpt lat="45.22423" lon="5.55018">
        <ele>1497</ele>
        <time>2010-01-01T06:30:03Z</time>
      </trkpt>
      <trkpt lat="45.22427" lon="5.55005">
        <ele>1498</ele>
        <time>2010-01-01T06:30:06Z</time>
      </trkpt>
      <trkpt lat="45.22429" lon="5.54978">
        <ele>1500</ele>
        <time>2010-01-01T06:30:06Z</time>
      </trkpt>
      <trkpt lat="45.22448" lon="5.54925">
        <ele>1504</ele>
        <time>2010-01-01T06:30:11Z</time>
      </trkpt>
      <trkpt lat="45.22451" lon="5.54922">
        <ele>1504</ele>
        <time>2010-01-01T06:30:15Z</time>
      </trkpt>
      <trkpt lat="45.22471" lon="5.54906">
        <ele>1503</ele>
        <time>2010-01-01T06:30:24Z</time>
      </trkpt>
      <trkpt lat="45.22494" lon="5.54901">
        <ele>1504</ele>
        <time>2010-01-01T06:30:28Z</time>
      </trkpt>
      <trkpt lat="45.22514" lon="5.54916">
        <ele>1504</ele>
        <time>2010-01-01T06:30:29Z</time>
      </trkpt>
      <trkpt lat="45.22529" lon="5.54919">
        <ele>1504</ele>
        <time>2010-01-01T06:30:34Z</time>
      </trkpt>
      <trkpt lat="45.22535" lon="5.54921">
        <ele>1504</ele>
        <time>2010-01-01T06:30:35Z</time>
      </trkpt>
      <trkpt lat="45.22538" lon="5.54922">
        <ele>1504</ele>
        <time>2010-01-01T06:30:36Z</time>
      </trkpt>
      <trkpt lat="45.2254" lon="5.54923">
        <ele>1504</ele>
        <time>2010-01-01T06:30:38Z</time>
      </trkpt>
      <trkpt lat="45.22579" lon="5.54917">
        <ele>1504</ele>
        <time>2010-01-01T06:30:39Z</time>
      </trkpt>
      <trkpt lat="45.22607" lon="5.54907">
        <ele>1506</ele>
        <time>2010-01-01T06:30:39Z</time>
      </trkpt>
      <trkpt lat="45.22609" lon="5.54907">
        <ele>1506</ele>
        <time>2010-01-01T06:30:41Z</time>
      </trkpt>
      <trkpt lat="45.22613" lon="5.54906">
        <ele>1506</ele>
        <time>2010-01-01T06:30:42Z</time>
      </trkpt>
      <trkpt lat="45.2263" lon="5.54902">
        <ele>1507</ele>
        <time>2010-01-01T06:30:44Z</time>
      </trkpt>
      <trkpt lat="45.22639" lon="5.54901">
        <ele>1508</ele>
        <time>2010-01-01T06:30:45Z</time>
      </trkpt>
      <trkpt lat="45.22641" lon="5.549">
        <ele>1508</ele>
        <time>2010-01-01T06:30:51Z</time>
      </trkpt>
      <trkpt lat="45.22676" lon="5.54892">
        <ele>1506</ele>
        <time>2010-01-01T06:30:57Z</time>
      </trkpt>
      <trkpt lat="45.22708" lon="5.54886">
        <ele>1507</ele>
        <time>2010-01-01T06:30:58Z</time>
      </trkpt>
      <trkpt lat="45.22739" lon="5.54873">
        <ele>1510</ele>
        <time>2010-01-01T06:30:58Z</time>
      </trkpt>
      <trkpt lat="45.22755" lon="5.54865">
        <ele>1513</ele>
        <time>2010-01-01T06:31:01Z</time>
      </trkpt>
      <trkpt lat="45.22757" lon="5.54864">
        <ele>1513</ele>
        <time>2010-01-01T06:31:03Z</time>
      </trkpt>
      <trkpt lat="45.22759" lon="5.54862">
        <ele>1513</ele>
        <time>2010-01-01T06:31:04Z</time>
      </trkpt>
      <trkpt lat="45.22762" lon="5.5486">
        <ele>1514</ele>
        <time>2010-01-01T06:31:08Z</time>
      </trkpt>
      <trkpt lat="45.22766" lon="5.54871">
        <ele>1513</ele>
        <time>2010-01-01T06:31:13Z</time>
      </trkpt>
      <trkpt lat="45.22774" lon="5.54887">
        <ele>1513</ele>
        <time>2010-01-01T06:31:15Z</time>
      </trkpt>
      <trkpt lat="45.22783" lon="5.54902">
        <ele>1514</ele>
        <time>2010-01-01T06:31:18Z</time>
      </trkpt>
      <trkpt lat="45.22794" lon="5.54926">
        <ele>1514</ele>
        <time>2010-01-01T06:31:20Z</time>
      </trkpt>
      <trkpt lat="45.22803" lon="5.54951">
        <ele>1514</ele>
        <time>2010-01-01T06:31:28Z</time>
      </trkpt>
      <trkpt lat="45.22806" lon="5.54958">
        <ele>1514</ele>
        <time>2010-01-01T06:31:29Z</time>
      </trkpt>
      <trkpt lat="45.2282" lon="5.54978">
        <ele>1512</ele>
        <time>2010-01-01T06:31:33Z</time>
      </trkpt>
      <trkpt lat="45.22832" lon="5.54988">
        <ele>1510</ele>
        <time>2010-01-01T06:31:37Z</time>
      </trkpt>
      <trkpt lat="45.22844" lon="5.55001">
        <ele>1506</ele>
        <time>2010-01-01T06:31:39Z</time>
      </trkpt>
      <trkpt lat="45.22859" lon="5.55012">
        <ele>1503</ele>
        <time>2010-01-01T06:31:40Z</time>
      </trkpt>
      <trkpt lat="45.22871" lon="5.55015">
        <ele>1501</ele>
        <time>2010-01-01T06:31:56Z</time>
      </trkpt>
      <trkpt lat="45.2289" lon="5.55017">
        <ele>1498</ele>
        <time>2010-01-01T06:32:06Z</time>
      </trkpt>
      <trkpt lat="45.22908" lon="5.55019">
        <ele>1496</ele>
        <time>2010-01-01T06:32:20Z</time>
      </trkpt>
      <trkpt lat="45.22916" lon="5.55016">
        <ele>1497</ele>
        <time>2010-01-01T06:32:22Z</time>
      </trkpt>
      <trkpt lat="45.22923" lon="5.55015">
        <ele>1497</ele>
        <time>2010-01-01T06:32:27Z</time>
      </trkpt>
      <trkpt lat="45.22928" lon="5.55014">
        <ele>1497</ele>
        <time>2010-01-01T06:32:28Z</time>
      </trkpt>
      <trkpt lat="45.22935" lon="5.5501">
        <ele>1498</ele>
        <time>2010-01-01T06:32:28Z</time>
      </trkpt>
      <trkpt lat="45.22941" lon="5.55004">
        <ele>1499</ele>
        <time>2010-01-01T06:32:29Z</time>
      </trkpt>
      <trkpt lat="45.22948" lon="5.55">
        <ele>1500</ele>
        <time>2010-01-01T06:32:29Z</time>
      </trkpt>
      <trkpt lat="45.22955" lon="5.54999">
        <ele>1500</ele>
        <time>2010-01-01T06:32:32Z</time>
      </trkpt>
      <trkpt lat="45.22961" lon="5.55003">
        <ele>1499</ele>
        <time>2010-01-01T06:32:35Z</time>
      </trkpt>
      <trkpt lat="45.22966" lon="5.55008">
        <ele>1497</ele>
        <time>2010-01-01T06:32:40Z</time>
      </trkpt>
      <trkpt lat="45.22972" lon="5.55012">
        <ele>1496</ele>
        <time>2010-01-01T06:32:41Z</time>
      </trkpt>
      <trkpt lat="45.2298" lon="5.55011">
        <ele>1495</ele>
        <time>2010-01-01T06:32:52Z</time>
      </trkpt>
      <trkpt lat="45.23016" lon="5.54982">
        <ele>1497</ele>
        <time>2010-01-01T06:33:03Z</time>
      </trkpt>
      <trkpt lat="45.23033" lon="5.54998">
        <ele>1491</ele>
        <time>2010-01-01T06:33:16Z</time>
      </trkpt>
      <trkpt lat="45.23045" lon="5.55003">
        <ele>1489</ele>
        <time>2010-01-01T06:33:23Z</time>
      </trkpt>
      <trkpt lat="45.23063" lon="5.55012">
        <ele>1488</ele>
        <time>2010-01-01T06:33:23Z</time>
      </trkpt>
      <trkpt lat="45.23079" lon="5.55025">
        <ele>1487</ele>
        <time>2010-01-01T06:33:24Z</time>
      </trkpt>
      <trkpt lat="45.23082" lon="5.55024">
        <ele>1487</ele>
        <time>2010-01-01T06:33:24Z</time>
      </trkpt>
      <trkpt lat="45.23084" lon="5.55035">
        <ele>1485</ele>
        <time>2010-01-01T06:33:40Z</time>
      </trkpt>
      <trkpt lat="45.23085" lon="5.55037">
        <ele>1484</ele>
        <time>2010-01-01T06:33:44Z</time>
      </trkpt>
      <trkpt lat="45.23087" lon="5.55037">
        <ele>1484</ele>
        <time>2010-01-01T06:33:48Z</time>
      </trkpt>
      <trkpt lat="45.23092" lon="5.55036">
        <ele>1484</ele>
        <time>2010-01-01T06:34:03Z</time>
      </trkpt>
      <trkpt lat="45.23101" lon="5.55039">
        <ele>1483</ele>
        <time>2010-01-01T06:34:05Z</time>
      </trkpt>
      <trkpt lat="45.23111" lon="5.55044">
        <ele>1482</ele>
        <time>2010-01-01T06:34:17Z</time>
      </trkpt>
      <trkpt lat="45.23113" lon="5.55045">
        <ele>1482</ele>
        <time>2010-01-01T06:34:20Z</time>
      </trkpt>
      <trkpt lat="45.23121" lon="5.55054">
        <ele>1479</ele>
        <time>2010-01-01T06:34:26Z</time>
      </trkpt>
      <trkpt lat="45.23125" lon="5.55059">
        <ele>1477</ele>
        <time>2010-01-01T06:34:29Z</time>
      </trkpt>
      <trkpt lat="45.2314" lon="5.55067">
        <ele>1472</ele>
        <time>2010-01-01T06:34:31Z</time>
      </trkpt>
      <trkpt lat="45.23149" lon="5.55073">
        <ele>1469</ele>
        <time>2010-01-01T06:34:38Z</time>
      </trkpt>
      <trkpt lat="45.23154" lon="5.55074">
        <ele>1468</ele>
        <time>2010-01-01T06:34:40Z</time>
      </trkpt>
      <trkpt lat="45.23164" lon="5.55076">
        <ele>1467</ele>
        <time>2010-01-01T06:34:59Z</time>
      </trkpt>
      <trkpt lat="45.23166" lon="5.55076">
        <ele>1467</ele>
        <time>2010-01-01T06:35:01Z</time>
      </trkpt>
      <trkpt lat="45.23175" lon="5.55075">
        <ele>1466</ele>
        <time>2010-01-01T06:35:08Z</time>
      </trkpt>
      <trkpt lat="45.23176" lon="5.55075">
        <ele>1466</ele>
        <time>2010-01-01T06:35:18Z</time>
      </trkpt>
      <trkpt lat="45.2319" lon="5.55081">
        <ele>1463</ele>
        <time>2010-01-01T06:35:27Z</time>
      </trkpt>
      <trkpt lat="45.23194" lon="5.55084">
        <ele>1461</ele>
        <time>2010-01-01T06:35:29Z</time>
      </trkpt>
      <trkpt lat="45.23195" lon="5.55085">
        <ele>1461</ele>
        <time>2010-01-01T06:35:37Z</time>
      </trkpt>
      <trkpt lat="45.23196" lon="5.55086">
        <ele>1461</ele>
        <time>2010-01-01T06:35:52Z</time>
      </trkpt>
      <trkpt lat="45.23199" lon="5.55089">
        <ele>1460</ele>
        <time>2010-01-01T06:35:56Z</time>
      </trkpt>
      <trkpt lat="45.232" lon="5.55092">
        <ele>1459</ele>
        <time>2010-01-01T06:36:00Z</time>
      </trkpt>
      <trkpt lat="45.23201" lon="5.55094">
        <ele>1458</ele>
        <time>2010-01-01T06:36:03Z</time>
      </trkpt>
      <trkpt lat="45.23215" lon="5.55111">
        <ele>1454</ele>
        <time>2010-01-01T06:36:09Z</time>
      </trkpt>
      <trkpt lat="45.23224" lon="5.55123">
        <ele>1450</ele>
        <time>2010-01-01T06:36:13Z</time>
      </trkpt>
      <trkpt lat="45.23225" lon="5.55125">
        <ele>1449</ele>
        <time>2010-01-01T06:36:16Z</time>
      </trkpt>
      <trkpt lat="45.23229" lon="5.55127">
        <ele>1449</ele>
        <time>2010-01-01T06:36:20Z</time>
      </trkpt>
      <trkpt lat="45.2324" lon="5.5514">
        <ele>1445</ele>
        <time>2010-01-01T06:36:22Z</time>
      </trkpt>
      <trkpt lat="45.23285" lon="5.55171">
        <ele>1439</ele>
        <time>2010-01-01T06:36:23Z</time>
      </trkpt>
      <trkpt lat="45.23289" lon="5.55176">
        <ele>1438</ele>
        <time>2010-01-01T06:36:27Z</time>
      </trkpt>
      <trkpt lat="45.2329" lon="5.55176">
        <ele>1438</ele>
        <time>2010-01-01T06:36:31Z</time>
      </trkpt>
      <trkpt lat="45.23303" lon="5.55172">
        <ele>1439</ele>
        <time>2010-01-01T06:36:34Z</time>
      </trkpt>
      <trkpt lat="45.23312" lon="5.55169">
        <ele>1439</ele>
        <time>2010-01-01T06:36:39Z</time>
      </trkpt>
      <trkpt lat="45.23333" lon="5.55157">
        <ele>1442</ele>
        <time>2010-01-01T06:36:41Z</time>
      </trkpt>
      <trkpt lat="45.23341" lon="5.55152">
        <ele>1445</ele>
        <time>2010-01-01T06:36:44Z</time>
      </trkpt>
      <trkpt lat="45.23344" lon="5.55152">
        <ele>1446</ele>
        <time>2010-01-01T06:36:47Z</time>
      </trkpt>
      <trkpt lat="45.23358" lon="5.5515">
        <ele>1448</ele>
        <time>2010-01-01T06:36:51Z</time>
      </trkpt>
      <trkpt lat="45.2336" lon="5.55151">
        <ele>1448</ele>
        <time>2010-01-01T06:36:53Z</time>
      </trkpt>
      <trkpt lat="45.23361" lon="5.55151">
        <ele>1448</ele>
        <time>2010-01-01T06:36:57Z</time>
      </trkpt>
      <trkpt lat="45.23367" lon="5.55152">
        <ele>1448</ele>
        <time>2010-01-01T06:37:00Z</time>
      </trkpt>
      <trkpt lat="45.23368" lon="5.55152">
        <ele>1448</ele>
        <time>2010-01-01T06:37:03Z</time>
      </trkpt>
      <trkpt lat="45.23368" lon="5.55153">
        <ele>1447</ele>
        <time>2010-01-01T06:37:07Z</time>
      </trkpt>
      <trkpt lat="45.23371" lon="5.55159">
        <ele>1445</ele>
        <time>2010-01-01T06:37:12Z</time>
      </trkpt>
      <trkpt lat="45.23372" lon="5.55161">
        <ele>1444</ele>
        <time>2010-01-01T06:37:16Z</time>
      </trkpt>
      <trkpt lat="45.23378" lon="5.55161">
        <ele>1444</ele>
        <time>2010-01-01T06:37:19Z</time>
      </trkpt>
      <trkpt lat="45.23381" lon="5.55161">
        <ele>1444</ele>
        <time>2010-01-01T06:37:20Z</time>
      </trkpt>
      <trkpt lat="45.23394" lon="5.55154">
        <ele>1446</ele>
        <time>2010-01-01T06:37:24Z</time>
      </trkpt>
      <trkpt lat="45.2341" lon="5.55154">
        <ele>1447</ele>
        <time>2010-01-01T06:37:26Z</time>
      </trkpt>
      <trkpt lat="45.23412" lon="5.55154">
        <ele>1447</ele>
        <time>2010-01-01T06:37:28Z</time>
      </trkpt>
      <trkpt lat="45.23412" lon="5.55152">
        <ele>1447</ele>
        <time>2010-01-01T06:37:29Z</time>
      </trkpt>
      <trkpt lat="45.23417" lon="5.55151">
        <ele>1448</ele>
        <time>2010-01-01T06:37:34Z</time>
      </trkpt>
      <trkpt lat="45.23423" lon="5.55148">
        <ele>1450</ele>
        <time>2010-01-01T06:37:35Z</time>
      </trkpt>
      <trkpt lat="45.23426" lon="5.55146">
        <ele>1451</ele>
        <time>2010-01-01T06:37:38Z</time>
      </trkpt>
      <trkpt lat="45.23434" lon="5.55146">
        <ele>1453</ele>
        <time>2010-01-01T06:37:40Z</time>
      </trkpt>
      <trkpt lat="45.23447" lon="5.55147">
        <ele>1455</ele>
        <time>2010-01-01T06:37:41Z</time>
      </trkpt>
      <trkpt lat="45.23452" lon="5.55149">
        <ele>1456</ele>
        <time>2010-01-01T06:37:42Z</time>
      </trkpt>
      <trkpt lat="45.2346" lon="5.55152">
        <ele>1458</ele>
        <time>2010-01-01T06:37:46Z</time>
      </trkpt>
      <trkpt lat="45.23464" lon="5.55152">
        <ele>1459</ele>
        <time>2010-01-01T06:37:51Z</time>
      </trkpt>
      <trkpt lat="45.23483" lon="5.55159">
        <ele>1461</ele>
        <time>2010-01-01T06:37:53Z</time>
      </trkpt>
      <trkpt lat="45.23486" lon="5.55158">
        <ele>1461</ele>
        <time>2010-01-01T06:37:56Z</time>
      </trkpt>
      <trkpt lat="45.23497" lon="5.55159">
        <ele>1462</ele>
        <time>2010-01-01T06:38:02Z</time>
      </trkpt>
      <trkpt lat="45.23506" lon="5.55164">
        <ele>1463</ele>
        <time>2010-01-01T06:38:03Z</time>
      </trkpt>
      <trkpt lat="45.23509" lon="5.55167">
        <ele>1462</ele>
        <time>2010-01-01T06:38:05Z</time>
      </trkpt>
      <trkpt lat="45.23512" lon="5.55169">
        <ele>1462</ele>
        <time>2010-01-01T06:38:08Z</time>
      </trkpt>
      <trkpt lat="45.23547" lon="5.55199">
        <ele>1461</ele>
        <time>2010-01-01T06:38:20Z</time>
      </trkpt>
      <trkpt lat="45.23563" lon="5.55226">
        <ele>1458</ele>
        <time>2010-01-01T06:38:28Z</time>
      </trkpt>
      <trkpt lat="45.2358" lon="5.55269">
        <ele>1458</ele>
        <time>2010-01-01T06:38:30Z</time>
      </trkpt>
      <trkpt lat="45.23582" lon="5.55273">
        <ele>1458</ele>
        <time>2010-01-01T06:38:31Z</time>
      </trkpt>
      <trkpt lat="45.2359" lon="5.55287">
        <ele>1458</ele>
        <time>2010-01-01T06:38:37Z</time>
      </trkpt>
      <trkpt lat="45.23588" lon="5.5529">
        <ele>1458</ele>
        <time>2010-01-01T06:38:38Z</time>
      </trkpt>
      <trkpt lat="45.23589" lon="5.55291">
        <ele>1458</ele>
        <time>2010-01-01T06:38:44Z</time>
      </trkpt>
      <trkpt lat="45.23589" lon="5.55292">
        <ele>1458</ele>
        <time>2010-01-01T06:38:47Z</time>
      </trkpt>
      <trkpt lat="45.2359" lon="5.55291">
        <ele>1458</ele>
        <time>2010-01-01T06:38:49Z</time>
      </trkpt>
      <trkpt lat="45.23596" lon="5.55289">
        <ele>1459</ele>
        <time>2010-01-01T06:38:50Z</time>
      </trkpt>
      <trkpt lat="45.23605" lon="5.55289">
        <ele>1459</ele>
        <time>2010-01-01T06:38:52Z</time>
      </trkpt>
      <trkpt lat="45.23616" lon="5.55282">
        <ele>1460</ele>
        <time>2010-01-01T06:38:53Z</time>
      </trkpt>
      <trkpt lat="45.23618" lon="5.55279">
        <ele>1461</ele>
        <time>2010-01-01T06:38:55Z</time>
      </trkpt>
      <trkpt lat="45.23636" lon="5.55248">
        <ele>1466</ele>
        <time>2010-01-01T06:38:57Z</time>
      </trkpt>
      <trkpt lat="45.23658" lon="5.55227">
        <ele>1469</ele>
        <time>2010-01-01T06:38:59Z</time>
      </trkpt>
      <trkpt lat="45.23691" lon="5.55219">
        <ele>1467</ele>
        <time>2010-01-01T06:39:04Z</time>
      </trkpt>
      <trkpt lat="45.23698" lon="5.55239">
        <ele>1461</ele>
        <time>2010-01-01T06:39:08Z</time>
      </trkpt>
      <trkpt lat="45.23698" lon="5.5524">
        <ele>1460</ele>
        <time>2010-01-01T06:39:10Z</time>
      </trkpt>
      <trkpt lat="45.23698" lon="5.55242">
        <ele>1460</ele>
        <time>2010-01-01T06:39:13Z</time>
      </trkpt>
      <trkpt lat="45.23698" lon="5.55243">
        <ele>1460</ele>
        <time>2010-01-01T06:39:14Z</time>
      </trkpt>
      <trkpt lat="45.23707" lon="5.55298">
        <ele>1459</ele>
        <time>2010-01-01T06:39:19Z</time>
      </trkpt>
      <trkpt lat="45.23703" lon="5.55313">
        <ele>1461</ele>
        <time>2010-01-01T06:39:24Z</time>
      </trkpt>
      <trkpt lat="45.23709" lon="5.55321">
        <ele>1460</ele>
        <time>2010-01-01T06:39:27Z</time>
      </trkpt>
      <trkpt lat="45.2374" lon="5.55351">
        <ele>1457</ele>
        <time>2010-01-01T06:39:28Z</time>
      </trkpt>
      <trkpt lat="45.23743" lon="5.55357">
        <ele>1458</ele>
        <time>2010-01-01T06:39:29Z</time>
      </trkpt>
      <trkpt lat="45.2375" lon="5.554">
        <ele>1463</ele>
        <time>2010-01-01T06:39:33Z</time>
      </trkpt>
      <trkpt lat="45.23751" lon="5.5541">
        <ele>1463</ele>
        <time>2010-01-01T06:39:35Z</time>
      </trkpt>
      <trkpt lat="45.23757" lon="5.55428">
        <ele>1464</ele>
        <time>2010-01-01T06:39:40Z</time>
      </trkpt>
      <trkpt lat="45.23761" lon="5.55437">
        <ele>1463</ele>
        <time>2010-01-01T06:39:42Z</time>
      </trkpt>
      <trkpt lat="45.23766" lon="5.55442">
        <ele>1461</ele>
        <time>2010-01-01T06:39:43Z</time>
      </trkpt>
      <trkpt lat="45.23783" lon="5.55447">
        <ele>1449</ele>
        <time>2010-01-01T06:39:48Z</time>
      </trkpt>
      <trkpt lat="45.23786" lon="5.55453">
        <ele>1449</ele>
        <time>2010-01-01T06:39:48Z</time>
      </trkpt>
      <trkpt lat="45.23805" lon="5.55516">
        <ele>1481</ele>
        <time>2010-01-01T06:39:49Z</time>
      </trkpt>
      <trkpt lat="45.23807" lon="5.55522">
        <ele>1479</ele>
        <time>2010-01-01T06:39:51Z</time>
      </trkpt>
      <trkpt lat="45.23815" lon="5.55544">
        <ele>1477</ele>
        <time>2010-01-01T06:39:54Z</time>
      </trkpt>
      <trkpt lat="45.23817" lon="5.55577">
        <ele>1479</ele>
        <time>2010-01-01T06:39:55Z</time>
      </trkpt>
      <trkpt lat="45.23815" lon="5.5561">
        <ele>1487</ele>
        <time>2010-01-01T06:39:58Z</time>
      </trkpt>
      <trkpt lat="45.23813" lon="5.55618">
        <ele>1488</ele>
        <time>2010-01-01T06:40:03Z</time>
      </trkpt>
      <trkpt lat="45.23802" lon="5.55641">
        <ele>1489</ele>
        <time>2010-01-01T06:40:05Z</time>
      </trkpt>
      <trkpt lat="45.23802" lon="5.55693">
        <ele>1492</ele>
        <time>2010-01-01T06:40:06Z</time>
      </trkpt>
      <trkpt lat="45.23806" lon="5.55705">
        <ele>1494</ele>
        <time>2010-01-01T06:40:08Z</time>
      </trkpt>
      <trkpt lat="45.23814" lon="5.55718">
        <ele>1494</ele>
        <time>2010-01-01T06:40:10Z</time>
      </trkpt>
      <trkpt lat="45.23816" lon="5.55725">
        <ele>1493</ele>
        <time>2010-01-01T06:40:11Z</time>
      </trkpt>
      <trkpt lat="45.23816" lon="5.55748">
        <ele>1491</ele>
        <time>2010-01-01T06:40:14Z</time>
      </trkpt>
      <trkpt lat="45.23817" lon="5.55762">
        <ele>1490</ele>
        <time>2010-01-01T06:40:17Z</time>
      </trkpt>
      <trkpt lat="45.2382" lon="5.5577">
        <ele>1489</ele>
        <time>2010-01-01T06:40:20Z</time>
      </trkpt>
      <trkpt lat="45.23826" lon="5.55782">
        <ele>1487</ele>
        <time>2010-01-01T06:40:26Z</time>
      </trkpt>
      <trkpt lat="45.23829" lon="5.55789">
        <ele>1485</ele>
        <time>2010-01-01T06:40:36Z</time>
      </trkpt>
      <trkpt lat="45.23829" lon="5.55793">
        <ele>1484</ele>
        <time>2010-01-01T06:40:42Z</time>
      </trkpt>
      <trkpt lat="45.23828" lon="5.55805">
        <ele>1482</ele>
        <time>2010-01-01T06:40:49Z</time>
      </trkpt>
      <trkpt lat="45.23825" lon="5.55819">
        <ele>1481</ele>
        <time>2010-01-01T06:40:50Z</time>
      </trkpt>
      <trkpt lat="45.23821" lon="5.55831">
        <ele>1480</ele>
        <time>2010-01-01T06:40:53Z</time>
      </trkpt>
      <trkpt lat="45.23819" lon="5.55846">
        <ele>1480</ele>
        <time>2010-01-01T06:40:54Z</time>
      </trkpt>
      <trkpt lat="45.2382" lon="5.55854">
        <ele>1480</ele>
        <time>2010-01-01T06:41:02Z</time>
      </trkpt>
      <trkpt lat="45.23823" lon="5.55864">
        <ele>1479</ele>
        <time>2010-01-01T06:41:04Z</time>
      </trkpt>
      <trkpt lat="45.2383" lon="5.55871">
        <ele>1478</ele>
        <time>2010-01-01T06:41:08Z</time>
      </trkpt>
      <trkpt lat="45.23832" lon="5.55882">
        <ele>1477</ele>
        <time>2010-01-01T06:41:15Z</time>
      </trkpt>
      <trkpt lat="45.23832" lon="5.55891">
        <ele>1477</ele>
        <time>2010-01-01T06:41:17Z</time>
      </trkpt>
      <trkpt lat="45.23827" lon="5.55903">
        <ele>1478</ele>
        <time>2010-01-01T06:41:22Z</time>
      </trkpt>
      <trkpt lat="45.23822" lon="5.5591">
        <ele>1479</ele>
        <time>2010-01-01T06:41:26Z</time>
      </trkpt>
      <trkpt lat="45.23819" lon="5.55919">
        <ele>1479</ele>
        <time>2010-01-01T06:41:31Z</time>
      </trkpt>
      <trkpt lat="45.23817" lon="5.55934">
        <ele>1479</ele>
        <time>2010-01-01T06:41:34Z</time>
      </trkpt>
      <trkpt lat="45.23817" lon="5.5595">
        <ele>1478</ele>
        <time>2010-01-01T06:41:37Z</time>
      </trkpt>
      <trkpt lat="45.23821" lon="5.55963">
        <ele>1478</ele>
        <time>2010-01-01T06:41:42Z</time>
      </trkpt>
      <trkpt lat="45.23824" lon="5.55975">
        <ele>1478</ele>
        <time>2010-01-01T06:41:44Z</time>
      </trkpt>
      <trkpt lat="45.23826" lon="5.55978">
        <ele>1478</ele>
        <time>2010-01-01T06:41:47Z</time>
      </trkpt>
      <trkpt lat="45.23829" lon="5.55992">
        <ele>1479</ele>
        <time>2010-01-01T06:41:51Z</time>
      </trkpt>
      <trkpt lat="45.23831" lon="5.55995">
        <ele>1479</ele>
        <time>2010-01-01T06:41:53Z</time>
      </trkpt>
      <trkpt lat="45.23836" lon="5.56001">
        <ele>1479</ele>
        <time>2010-01-01T06:41:55Z</time>
      </trkpt>
      <trkpt lat="45.23837" lon="5.56005">
        <ele>1479</ele>
        <time>2010-01-01T06:41:59Z</time>
      </trkpt>
      <trkpt lat="45.23838" lon="5.5602">
        <ele>1480</ele>
        <time>2010-01-01T06:42:02Z</time>
      </trkpt>
      <trkpt lat="45.23839" lon="5.56026">
        <ele>1480</ele>
        <time>2010-01-01T06:42:06Z</time>
      </trkpt>
      <trkpt lat="45.23843" lon="5.56031">
        <ele>1480</ele>
        <time>2010-01-01T06:42:09Z</time>
      </trkpt>
      <trkpt lat="45.23847" lon="5.56035">
        <ele>1479</ele>
        <time>2010-01-01T06:42:16Z</time>
      </trkpt>
      <trkpt lat="45.23849" lon="5.56039">
        <ele>1479</ele>
        <time>2010-01-01T06:42:17Z</time>
      </trkpt>
      <trkpt lat="45.23849" lon="5.56043">
        <ele>1479</ele>
        <time>2010-01-01T06:42:19Z</time>
      </trkpt>
      <trkpt lat="45.23847" lon="5.56055">
        <ele>1480</ele>
        <time>2010-01-01T06:42:21Z</time>
      </trkpt>
      <trkpt lat="45.23841" lon="5.56074">
        <ele>1483</ele>
        <time>2010-01-01T06:42:23Z</time>
      </trkpt>
      <trkpt lat="45.2384" lon="5.56079">
        <ele>1484</ele>
        <time>2010-01-01T06:42:30Z</time>
      </trkpt>
      <trkpt lat="45.23841" lon="5.56089">
        <ele>1485</ele>
        <time>2010-01-01T06:42:37Z</time>
      </trkpt>
      <trkpt lat="45.23849" lon="5.56109">
        <ele>1488</ele>
        <time>2010-01-01T06:42:40Z</time>
      </trkpt>
      <trkpt lat="45.2385" lon="5.56113">
        <ele>1489</ele>
        <time>2010-01-01T06:42:41Z</time>
      </trkpt>
      <trkpt lat="45.23851" lon="5.56118">
        <ele>1489</ele>
        <time>2010-01-01T06:42:42Z</time>
      </trkpt>
      <trkpt lat="45.23849" lon="5.5613">
        <ele>1491</ele>
        <time>2010-01-01T06:42:43Z</time>
      </trkpt>
      <trkpt lat="45.23847" lon="5.56173">
        <ele>1493</ele>
        <time>2010-01-01T06:42:46Z</time>
      </trkpt>
      <trkpt lat="45.23843" lon="5.56199">
        <ele>1496</ele>
        <time>2010-01-01T06:42:48Z</time>
      </trkpt>
      <trkpt lat="45.23844" lon="5.56205">
        <ele>1496</ele>
        <time>2010-01-01T06:42:51Z</time>
      </trkpt>
      <trkpt lat="45.23845" lon="5.56211">
        <ele>1497</ele>
        <time>2010-01-01T06:42:53Z</time>
      </trkpt>
      <trkpt lat="45.23843" lon="5.5623">
        <ele>1500</ele>
        <time>2010-01-01T06:42:53Z</time>
      </trkpt>
      <trkpt lat="45.23843" lon="5.56235">
        <ele>1500</ele>
        <time>2010-01-01T06:42:55Z</time>
      </trkpt>
      <trkpt lat="45.23847" lon="5.56253">
        <ele>1501</ele>
        <time>2010-01-01T06:42:59Z</time>
      </trkpt>
      <trkpt lat="45.23847" lon="5.56264">
        <ele>1503</ele>
        <time>2010-01-01T06:43:01Z</time>
      </trkpt>
      <trkpt lat="45.23844" lon="5.5627">
        <ele>1504</ele>
        <time>2010-01-01T06:43:04Z</time>
      </trkpt>
      <trkpt lat="45.23842" lon="5.56274">
        <ele>1504</ele>
        <time>2010-01-01T06:43:07Z</time>
      </trkpt>
      <trkpt lat="45.2384" lon="5.56278">
        <ele>1505</ele>
        <time>2010-01-01T06:43:11Z</time>
      </trkpt>
      <trkpt lat="45.23838" lon="5.56284">
        <ele>1505</ele>
        <time>2010-01-01T06:43:14Z</time>
      </trkpt>
      <trkpt lat="45.23837" lon="5.56289">
        <ele>1506</ele>
        <time>2010-01-01T06:43:23Z</time>
      </trkpt>
      <trkpt lat="45.23837" lon="5.56295">
        <ele>1507</ele>
        <time>2010-01-01T06:43:27Z</time>
      </trkpt>
      <trkpt lat="45.23835" lon="5.56303">
        <ele>1507</ele>
        <time>2010-01-01T06:43:31Z</time>
      </trkpt>
      <trkpt lat="45.23831" lon="5.56319">
        <ele>1507</ele>
        <time>2010-01-01T06:43:34Z</time>
      </trkpt>
      <trkpt lat="45.23828" lon="5.56335">
        <ele>1507</ele>
        <time>2010-01-01T06:43:39Z</time>
      </trkpt>
      <trkpt lat="45.23827" lon="5.56342">
        <ele>1508</ele>
        <time>2010-01-01T06:43:40Z</time>
      </trkpt>
      <trkpt lat="45.23831" lon="5.56347">
        <ele>1509</ele>
        <time>2010-01-01T06:43:41Z</time>
      </trkpt>
      <trkpt lat="45.23832" lon="5.56352">
        <ele>1509</ele>
        <time>2010-01-01T06:43:42Z</time>
      </trkpt>
      <trkpt lat="45.23836" lon="5.56368">
        <ele>1511</ele>
        <time>2010-01-01T06:43:44Z</time>
      </trkpt>
      <trkpt lat="45.23837" lon="5.56388">
        <ele>1513</ele>
        <time>2010-01-01T06:43:49Z</time>
      </trkpt>
      <trkpt lat="45.23839" lon="5.56395">
        <ele>1513</ele>
        <time>2010-01-01T06:43:51Z</time>
      </trkpt>
      <trkpt lat="45.2384" lon="5.56399">
        <ele>1513</ele>
        <time>2010-01-01T06:43:59Z</time>
      </trkpt>
      <trkpt lat="45.23839" lon="5.56404">
        <ele>1513</ele>
        <time>2010-01-01T06:44:05Z</time>
      </trkpt>
      <trkpt lat="45.23836" lon="5.56417">
        <ele>1513</ele>
        <time>2010-01-01T06:44:07Z</time>
      </trkpt>
      <trkpt lat="45.23835" lon="5.56424">
        <ele>1513</ele>
        <time>2010-01-01T06:44:16Z</time>
      </trkpt>
      <trkpt lat="45.2383" lon="5.56439">
        <ele>1512</ele>
        <time>2010-01-01T06:44:19Z</time>
      </trkpt>
      <trkpt lat="45.23828" lon="5.56447">
        <ele>1511</ele>
        <time>2010-01-01T06:44:22Z</time>
      </trkpt>
      <trkpt lat="45.23827" lon="5.5645">
        <ele>1511</ele>
        <time>2010-01-01T06:44:24Z</time>
      </trkpt>
      <trkpt lat="45.23818" lon="5.56459">
        <ele>1510</ele>
        <time>2010-01-01T06:44:27Z</time>
      </trkpt>
      <trkpt lat="45.23817" lon="5.56461">
        <ele>1510</ele>
        <time>2010-01-01T06:44:29Z</time>
      </trkpt>
      <trkpt lat="45.23816" lon="5.56465">
        <ele>1509</ele>
        <time>2010-01-01T06:44:32Z</time>
      </trkpt>
      <trkpt lat="45.23816" lon="5.5647">
        <ele>1509</ele>
        <time>2010-01-01T06:44:35Z</time>
      </trkpt>
      <trkpt lat="45.23819" lon="5.56481">
        <ele>1510</ele>
        <time>2010-01-01T06:44:39Z</time>
      </trkpt>
      <trkpt lat="45.23819" lon="5.56485">
        <ele>1510</ele>
        <time>2010-01-01T06:44:42Z</time>
      </trkpt>
      <trkpt lat="45.23817" lon="5.56496">
        <ele>1511</ele>
        <time>2010-01-01T06:44:44Z</time>
      </trkpt>
      <trkpt lat="45.23815" lon="5.56511">
        <ele>1513</ele>
        <time>2010-01-01T06:44:47Z</time>
      </trkpt>
      <trkpt lat="45.23814" lon="5.56519">
        <ele>1515</ele>
        <time>2010-01-01T06:44:51Z</time>
      </trkpt>
      <trkpt lat="45.23812" lon="5.56523">
        <ele>1516</ele>
        <time>2010-01-01T06:44:55Z</time>
      </trkpt>
      <trkpt lat="45.2381" lon="5.56527">
        <ele>1517</ele>
        <time>2010-01-01T06:45:00Z</time>
      </trkpt>
      <trkpt lat="45.23805" lon="5.56532">
        <ele>1518</ele>
        <time>2010-01-01T06:45:03Z</time>
      </trkpt>
      <trkpt lat="45.23806" lon="5.56534">
        <ele>1518</ele>
        <time>2010-01-01T06:45:09Z</time>
      </trkpt>
      <trkpt lat="45.23812" lon="5.56542">
        <ele>1518</ele>
        <time>2010-01-01T06:45:14Z</time>
      </trkpt>
      <trkpt lat="45.23816" lon="5.56551">
        <ele>1519</ele>
        <time>2010-01-01T06:45:19Z</time>
      </trkpt>
      <trkpt lat="45.23815" lon="5.56561">
        <ele>1521</ele>
        <time>2010-01-01T06:45:26Z</time>
      </trkpt>
      <trkpt lat="45.23812" lon="5.56581">
        <ele>1524</ele>
        <time>2010-01-01T06:45:33Z</time>
      </trkpt>
      <trkpt lat="45.2381" lon="5.56617">
        <ele>1530</ele>
        <time>2010-01-01T06:45:37Z</time>
      </trkpt>
      <trkpt lat="45.23806" lon="5.56639">
        <ele>1537</ele>
        <time>2010-01-01T06:45:51Z</time>
      </trkpt>
      <trkpt lat="45.23807" lon="5.56661">
        <ele>1543</ele>
        <time>2010-01-01T06:45:54Z</time>
      </trkpt>
      <trkpt lat="45.23807" lon="5.56667">
        <ele>1545</ele>
        <time>2010-01-01T06:45:57Z</time>
      </trkpt>
      <trkpt lat="45.23808" lon="5.56675">
        <ele>1548</ele>
        <time>2010-01-01T06:45:59Z</time>
      </trkpt>
      <trkpt lat="45.23809" lon="5.5668">
        <ele>1549</ele>
        <time>2010-01-01T06:46:03Z</time>
      </trkpt>
      <trkpt lat="45.23815" lon="5.56706">
        <ele>1553</ele>
        <time>2010-01-01T06:46:07Z</time>
      </trkpt>
      <trkpt lat="45.23816" lon="5.56712">
        <ele>1554</ele>
        <time>2010-01-01T06:46:16Z</time>
      </trkpt>
      <trkpt lat="45.23816" lon="5.56728">
        <ele>1556</ele>
        <time>2010-01-01T06:46:24Z</time>
      </trkpt>
      <trkpt lat="45.23815" lon="5.56752">
        <ele>1561</ele>
        <time>2010-01-01T06:46:26Z</time>
      </trkpt>
      <trkpt lat="45.23816" lon="5.56761">
        <ele>1562</ele>
        <time>2010-01-01T06:46:26Z</time>
      </trkpt>
      <trkpt lat="45.23821" lon="5.56776">
        <ele>1564</ele>
        <time>2010-01-01T06:46:28Z</time>
      </trkpt>
      <trkpt lat="45.23823" lon="5.56789">
        <ele>1565</ele>
        <time>2010-01-01T06:46:29Z</time>
      </trkpt>
      <trkpt lat="45.23822" lon="5.56808">
        <ele>1568</ele>
        <time>2010-01-01T06:46:34Z</time>
      </trkpt>
      <trkpt lat="45.23823" lon="5.56816">
        <ele>1569</ele>
        <time>2010-01-01T06:46:39Z</time>
      </trkpt>
      <trkpt lat="45.23827" lon="5.56828">
        <ele>1570</ele>
        <time>2010-01-01T06:46:42Z</time>
      </trkpt>
      <trkpt lat="45.23827" lon="5.56844">
        <ele>1571</ele>
        <time>2010-01-01T06:46:46Z</time>
      </trkpt>
      <trkpt lat="45.23829" lon="5.5685">
        <ele>1572</ele>
        <time>2010-01-01T06:46:50Z</time>
      </trkpt>
      <trkpt lat="45.23833" lon="5.56862">
        <ele>1573</ele>
        <time>2010-01-01T06:46:53Z</time>
      </trkpt>
      <trkpt lat="45.23835" lon="5.56876">
        <ele>1575</ele>
        <time>2010-01-01T06:47:01Z</time>
      </trkpt>
      <trkpt lat="45.23835" lon="5.56881">
        <ele>1577</ele>
        <time>2010-01-01T06:47:09Z</time>
      </trkpt>
      <trkpt lat="45.23834" lon="5.56889">
        <ele>1579</ele>
        <time>2010-01-01T06:47:11Z</time>
      </trkpt>
      <trkpt lat="45.23839" lon="5.56899">
        <ele>1579</ele>
        <time>2010-01-01T06:47:14Z</time>
      </trkpt>
      <trkpt lat="45.23841" lon="5.56912">
        <ele>1581</ele>
        <time>2010-01-01T06:47:19Z</time>
      </trkpt>
      <trkpt lat="45.23845" lon="5.56925">
        <ele>1583</ele>
        <time>2010-01-01T06:47:21Z</time>
      </trkpt>
      <trkpt lat="45.23845" lon="5.56934">
        <ele>1587</ele>
        <time>2010-01-01T06:47:22Z</time>
      </trkpt>
      <trkpt lat="45.23854" lon="5.56955">
        <ele>1593</ele>
        <time>2010-01-01T06:47:24Z</time>
      </trkpt>
      <trkpt lat="45.23855" lon="5.5696">
        <ele>1595</ele>
        <time>2010-01-01T06:47:28Z</time>
      </trkpt>
      <trkpt lat="45.23855" lon="5.56965">
        <ele>1596</ele>
        <time>2010-01-01T06:47:31Z</time>
      </trkpt>
      <trkpt lat="45.23855" lon="5.56975">
        <ele>1598</ele>
        <time>2010-01-01T06:47:33Z</time>
      </trkpt>
      <trkpt lat="45.23854" lon="5.56979">
        <ele>1597</ele>
        <time>2010-01-01T06:47:34Z</time>
      </trkpt>
      <trkpt lat="45.23846" lon="5.57004">
        <ele>1596</ele>
        <time>2010-01-01T06:47:37Z</time>
      </trkpt>
      <trkpt lat="45.2384" lon="5.57026">
        <ele>1593</ele>
        <time>2010-01-01T06:47:43Z</time>
      </trkpt>
      <trkpt lat="45.23836" lon="5.57035">
        <ele>1592</ele>
        <time>2010-01-01T06:47:44Z</time>
      </trkpt>
      <trkpt lat="45.23835" lon="5.57038">
        <ele>1592</ele>
        <time>2010-01-01T06:47:50Z</time>
      </trkpt>
      <trkpt lat="45.23833" lon="5.5704">
        <ele>1592</ele>
        <time>2010-01-01T06:47:53Z</time>
      </trkpt>
      <trkpt lat="45.23831" lon="5.57044">
        <ele>1592</ele>
        <time>2010-01-01T06:47:56Z</time>
      </trkpt>
      <trkpt lat="45.23831" lon="5.57055">
        <ele>1592</ele>
        <time>2010-01-01T06:47:57Z</time>
      </trkpt>
      <trkpt lat="45.23831" lon="5.57062">
        <ele>1593</ele>
        <time>2010-01-01T06:48:01Z</time>
      </trkpt>
      <trkpt lat="45.23828" lon="5.57069">
        <ele>1593</ele>
        <time>2010-01-01T06:48:02Z</time>
      </trkpt>
      <trkpt lat="45.23827" lon="5.57076">
        <ele>1594</ele>
        <time>2010-01-01T06:48:08Z</time>
      </trkpt>
      <trkpt lat="45.23827" lon="5.57078">
        <ele>1594</ele>
        <time>2010-01-01T06:48:13Z</time>
      </trkpt>
      <trkpt lat="45.23827" lon="5.57085">
        <ele>1595</ele>
        <time>2010-01-01T06:48:14Z</time>
      </trkpt>
      <trkpt lat="45.23829" lon="5.57099">
        <ele>1597</ele>
        <time>2010-01-01T06:48:18Z</time>
      </trkpt>
      <trkpt lat="45.2383" lon="5.57104">
        <ele>1598</ele>
        <time>2010-01-01T06:48:20Z</time>
      </trkpt>
      <trkpt lat="45.2383" lon="5.57117">
        <ele>1600</ele>
        <time>2010-01-01T06:48:23Z</time>
      </trkpt>
      <trkpt lat="45.23833" lon="5.57124">
        <ele>1601</ele>
        <time>2010-01-01T06:48:25Z</time>
      </trkpt>
      <trkpt lat="45.23841" lon="5.57134">
        <ele>1604</ele>
        <time>2010-01-01T06:48:32Z</time>
      </trkpt>
      <trkpt lat="45.23846" lon="5.57144">
        <ele>1607</ele>
        <time>2010-01-01T06:48:42Z</time>
      </trkpt>
      <trkpt lat="45.23864" lon="5.57157">
        <ele>1613</ele>
        <time>2010-01-01T06:48:46Z</time>
      </trkpt>
      <trkpt lat="45.23872" lon="5.57168">
        <ele>1615</ele>
        <time>2010-01-01T06:48:52Z</time>
      </trkpt>
      <trkpt lat="45.23879" lon="5.57179">
        <ele>1617</ele>
        <time>2010-01-01T06:48:56Z</time>
      </trkpt>
      <trkpt lat="45.23886" lon="5.57181">
        <ele>1618</ele>
        <time>2010-01-01T06:48:57Z</time>
      </trkpt>
      <trkpt lat="45.23898" lon="5.57181">
        <ele>1616</ele>
        <time>2010-01-01T06:48:58Z</time>
      </trkpt>
      <trkpt lat="45.23901" lon="5.57182">
        <ele>1616</ele>
        <time>2010-01-01T06:49:00Z</time>
      </trkpt>
      <trkpt lat="45.23904" lon="5.57184">
        <ele>1615</ele>
        <time>2010-01-01T06:49:01Z</time>
      </trkpt>
      <trkpt lat="45.23906" lon="5.57186">
        <ele>1615</ele>
        <time>2010-01-01T06:49:03Z</time>
      </trkpt>
      <trkpt lat="45.23908" lon="5.57191">
        <ele>1616</ele>
        <time>2010-01-01T06:49:04Z</time>
      </trkpt>
      <trkpt lat="45.23908" lon="5.57207">
        <ele>1620</ele>
        <time>2010-01-01T06:49:06Z</time>
      </trkpt>
      <trkpt lat="45.23911" lon="5.57215">
        <ele>1622</ele>
        <time>2010-01-01T06:49:08Z</time>
      </trkpt>
      <trkpt lat="45.23923" lon="5.57236">
        <ele>1624</ele>
        <time>2010-01-01T06:49:09Z</time>
      </trkpt>
      <trkpt lat="45.23935" lon="5.57253">
        <ele>1626</ele>
        <time>2010-01-01T06:49:11Z</time>
      </trkpt>
      <trkpt lat="45.23937" lon="5.57258">
        <ele>1627</ele>
        <time>2010-01-01T06:49:15Z</time>
      </trkpt>
      <trkpt lat="45.23955" lon="5.57278">
        <ele>1619</ele>
        <time>2010-01-01T06:49:16Z</time>
      </trkpt>
      <trkpt lat="45.23958" lon="5.57285">
        <ele>1620</ele>
        <time>2010-01-01T06:49:19Z</time>
      </trkpt>
      <trkpt lat="45.2396" lon="5.57295">
        <ele>1622</ele>
        <time>2010-01-01T06:49:20Z</time>
      </trkpt>
      <trkpt lat="45.23957" lon="5.57304">
        <ele>1628</ele>
        <time>2010-01-01T06:49:21Z</time>
      </trkpt>
      <trkpt lat="45.23956" lon="5.57313">
        <ele>1629</ele>
        <time>2010-01-01T06:49:24Z</time>
      </trkpt>
      <trkpt lat="45.23956" lon="5.5732">
        <ele>1629</ele>
        <time>2010-01-01T06:49:29Z</time>
      </trkpt>
      <trkpt lat="45.23957" lon="5.57331">
        <ele>1629</ele>
        <time>2010-01-01T06:49:32Z</time>
      </trkpt>
      <trkpt lat="45.23958" lon="5.57341">
        <ele>1628</ele>
        <time>2010-01-01T06:49:34Z</time>
      </trkpt>
      <trkpt lat="45.23962" lon="5.57354">
        <ele>1625</ele>
        <time>2010-01-01T06:49:36Z</time>
      </trkpt>
      <trkpt lat="45.23967" lon="5.57362">
        <ele>1623</ele>
        <time>2010-01-01T06:49:38Z</time>
      </trkpt>
      <trkpt lat="45.2397" lon="5.57369">
        <ele>1621</ele>
        <time>2010-01-01T06:49:40Z</time>
      </trkpt>
      <trkpt lat="45.23975" lon="5.57376">
        <ele>1619</ele>
        <time>2010-01-01T06:49:56Z</time>
      </trkpt>
      <trkpt lat="45.23983" lon="5.57384">
        <ele>1618</ele>
        <time>2010-01-01T06:50:06Z</time>
      </trkpt>
      <trkpt lat="45.23991" lon="5.57394">
        <ele>1617</ele>
        <time>2010-01-01T06:50:10Z</time>
      </trkpt>
      <trkpt lat="45.23998" lon="5.57408">
        <ele>1617</ele>
        <time>2010-01-01T06:50:21Z</time>
      </trkpt>
      <trkpt lat="45.24003" lon="5.57418">
        <ele>1614</ele>
        <time>2010-01-01T06:50:28Z</time>
      </trkpt>
      <trkpt lat="45.2401" lon="5.57434">
        <ele>1602</ele>
        <time>2010-01-01T06:50:30Z</time>
      </trkpt>
      <trkpt lat="45.24015" lon="5.5745">
        <ele>1591</ele>
        <time>2010-01-01T06:50:35Z</time>
      </trkpt>
      <trkpt lat="45.24014" lon="5.57469">
        <ele>1589</ele>
        <time>2010-01-01T06:50:38Z</time>
      </trkpt>
      <trkpt lat="45.24015" lon="5.57493">
        <ele>1590</ele>
        <time>2010-01-01T06:50:42Z</time>
      </trkpt>
      <trkpt lat="45.24021" lon="5.57516">
        <ele>1584</ele>
        <time>2010-01-01T06:50:47Z</time>
      </trkpt>
      <trkpt lat="45.24027" lon="5.57529">
        <ele>1577</ele>
        <time>2010-01-01T06:50:53Z</time>
      </trkpt>
      <trkpt lat="45.24046" lon="5.5757">
        <ele>1563</ele>
        <time>2010-01-01T06:50:55Z</time>
      </trkpt>
      <trkpt lat="45.24051" lon="5.57577">
        <ele>1561</ele>
        <time>2010-01-01T06:51:00Z</time>
      </trkpt>
      <trkpt lat="45.24055" lon="5.57585">
        <ele>1559</ele>
        <time>2010-01-01T06:51:06Z</time>
      </trkpt>
      <trkpt lat="45.24048" lon="5.57587">
        <ele>1559</ele>
        <time>2010-01-01T06:51:09Z</time>
      </trkpt>
      <trkpt lat="45.2404" lon="5.57585">
        <ele>1561</ele>
        <time>2010-01-01T06:51:16Z</time>
      </trkpt>
      <trkpt lat="45.2403" lon="5.57585">
        <ele>1562</ele>
        <time>2010-01-01T06:51:20Z</time>
      </trkpt>
      <trkpt lat="45.24006" lon="5.57591">
        <ele>1560</ele>
        <time>2010-01-01T06:51:22Z</time>
      </trkpt>
      <trkpt lat="45.23988" lon="5.57592">
        <ele>1560</ele>
        <time>2010-01-01T06:51:29Z</time>
      </trkpt>
      <trkpt lat="45.23983" lon="5.57594">
        <ele>1560</ele>
        <time>2010-01-01T06:51:35Z</time>
      </trkpt>
      <trkpt lat="45.23982" lon="5.57596">
        <ele>1560</ele>
        <time>2010-01-01T06:51:38Z</time>
      </trkpt>
      <trkpt lat="45.23983" lon="5.57602">
        <ele>1557</ele>
        <time>2010-01-01T06:51:43Z</time>
      </trkpt>
      <trkpt lat="45.23985" lon="5.57604">
        <ele>1556</ele>
        <time>2010-01-01T06:51:50Z</time>
      </trkpt>
      <trkpt lat="45.23998" lon="5.57609">
        <ele>1553</ele>
        <time>2010-01-01T06:51:52Z</time>
      </trkpt>
      <trkpt lat="45.24008" lon="5.57613">
        <ele>1552</ele>
        <time>2010-01-01T06:52:01Z</time>
      </trkpt>
      <trkpt lat="45.24016" lon="5.57618">
        <ele>1551</ele>
        <time>2010-01-01T06:52:10Z</time>
      </trkpt>
      <trkpt lat="45.24025" lon="5.57622">
        <ele>1551</ele>
        <time>2010-01-01T06:52:17Z</time>
      </trkpt>
      <trkpt lat="45.24033" lon="5.57629">
        <ele>1549</ele>
        <time>2010-01-01T06:52:19Z</time>
      </trkpt>
      <trkpt lat="45.2404" lon="5.57636">
        <ele>1549</ele>
        <time>2010-01-01T06:52:22Z</time>
      </trkpt>
      <trkpt lat="45.24054" lon="5.57655">
        <ele>1546</ele>
        <time>2010-01-01T06:52:25Z</time>
      </trkpt>
      <trkpt lat="45.24073" lon="5.57666">
        <ele>1543</ele>
        <time>2010-01-01T06:52:26Z</time>
      </trkpt>
      <trkpt lat="45.24078" lon="5.5767">
        <ele>1542</ele>
        <time>2010-01-01T06:52:29Z</time>
      </trkpt>
      <trkpt lat="45.24082" lon="5.57675">
        <ele>1541</ele>
        <time>2010-01-01T06:52:31Z</time>
      </trkpt>
      <trkpt lat="45.24089" lon="5.57691">
        <ele>1537</ele>
        <time>2010-01-01T06:52:32Z</time>
      </trkpt>
      <trkpt lat="45.24085" lon="5.57697">
        <ele>1537</ele>
        <time>2010-01-01T06:52:33Z</time>
      </trkpt>
      <trkpt lat="45.24082" lon="5.57699">
        <ele>1537</ele>
        <time>2010-01-01T06:52:35Z</time>
      </trkpt>
      <trkpt lat="45.24077" lon="5.577">
        <ele>1537</ele>
        <time>2010-01-01T06:52:38Z</time>
      </trkpt>
      <trkpt lat="45.24069" lon="5.57699">
        <ele>1538</ele>
        <time>2010-01-01T06:52:41Z</time>
      </trkpt>
      <trkpt lat="45.24077" lon="5.577">
        <ele>1537</ele>
        <time>2010-01-01T06:52:42Z</time>
      </trkpt>
      <trkpt lat="45.24082" lon="5.57699">
        <ele>1537</ele>
        <time>2010-01-01T06:52:45Z</time>
      </trkpt>
      <trkpt lat="45.24085" lon="5.57697">
        <ele>1537</ele>
        <time>2010-01-01T06:52:52Z</time>
      </trkpt>
      <trkpt lat="45.24089" lon="5.57691">
        <ele>1537</ele>
        <time>2010-01-01T06:52:54Z</time>
      </trkpt>
      <trkpt lat="45.24102" lon="5.57702">
        <ele>1534</ele>
        <time>2010-01-01T06:52:56Z</time>
      </trkpt>
      <trkpt lat="45.24106" lon="5.57703">
        <ele>1533</ele>
        <time>2010-01-01T06:52:58Z</time>
      </trkpt>
      <trkpt lat="45.2412" lon="5.57702">
        <ele>1531</ele>
        <time>2010-01-01T06:52:59Z</time>
      </trkpt>
      <trkpt lat="45.24128" lon="5.57702">
        <ele>1529</ele>
        <time>2010-01-01T06:53:02Z</time>
      </trkpt>
      <trkpt lat="45.24134" lon="5.57703">
        <ele>1528</ele>
        <time>2010-01-01T06:53:07Z</time>
      </trkpt>
      <trkpt lat="45.24138" lon="5.57706">
        <ele>1528</ele>
        <time>2010-01-01T06:53:08Z</time>
      </trkpt>
      <trkpt lat="45.24145" lon="5.57712">
        <ele>1531</ele>
        <time>2010-01-01T06:53:11Z</time>
      </trkpt>
      <trkpt lat="45.24149" lon="5.57714">
        <ele>1532</ele>
        <time>2010-01-01T06:53:18Z</time>
      </trkpt>
      <trkpt lat="45.24163" lon="5.57713">
        <ele>1536</ele>
        <time>2010-01-01T06:53:24Z</time>
      </trkpt>
      <trkpt lat="45.24175" lon="5.57715">
        <ele>1538</ele>
        <time>2010-01-01T06:53:28Z</time>
      </trkpt>
      <trkpt lat="45.24179" lon="5.57715">
        <ele>1539</ele>
        <time>2010-01-01T06:53:31Z</time>
      </trkpt>
      <trkpt lat="45.24188" lon="5.5772">
        <ele>1541</ele>
        <time>2010-01-01T06:53:38Z</time>
      </trkpt>
      <trkpt lat="45.24192" lon="5.57721">
        <ele>1543</ele>
        <time>2010-01-01T06:53:44Z</time>
      </trkpt>
      <trkpt lat="45.242" lon="5.5772">
        <ele>1541</ele>
        <time>2010-01-01T06:53:49Z</time>
      </trkpt>
      <trkpt lat="45.24205" lon="5.57716">
        <ele>1539</ele>
        <time>2010-01-01T06:53:52Z</time>
      </trkpt>
      <trkpt lat="45.24222" lon="5.57712">
        <ele>1530</ele>
        <time>2010-01-01T06:53:54Z</time>
      </trkpt>
      <trkpt lat="45.24247" lon="5.57716">
        <ele>1449</ele>
        <time>2010-01-01T06:53:55Z</time>
      </trkpt>
      <trkpt lat="45.24255" lon="5.57717">
        <ele>1431</ele>
        <time>2010-01-01T06:54:00Z</time>
      </trkpt>
      <trkpt lat="45.24271" lon="5.57714">
        <ele>1405</ele>
        <time>2010-01-01T06:54:01Z</time>
      </trkpt>
      <trkpt lat="45.2428" lon="5.5771">
        <ele>1396</ele>
        <time>2010-01-01T06:54:02Z</time>
      </trkpt>
      <trkpt lat="45.24282" lon="5.5771">
        <ele>1396</ele>
        <time>2010-01-01T06:54:07Z</time>
      </trkpt>
      <trkpt lat="45.24284" lon="5.57712">
        <ele>1394</ele>
        <time>2010-01-01T06:54:12Z</time>
      </trkpt>
      <trkpt lat="45.24288" lon="5.5772">
        <ele>1389</ele>
        <time>2010-01-01T06:54:17Z</time>
      </trkpt>
      <trkpt lat="45.2429" lon="5.57722">
        <ele>1388</ele>
        <time>2010-01-01T06:54:25Z</time>
      </trkpt>
      <trkpt lat="45.24292" lon="5.57726">
        <ele>1385</ele>
        <time>2010-01-01T06:54:29Z</time>
      </trkpt>
      <trkpt lat="45.24293" lon="5.57732">
        <ele>1381</ele>
        <time>2010-01-01T06:54:32Z</time>
      </trkpt>
      <trkpt lat="45.24296" lon="5.57737">
        <ele>1377</ele>
        <time>2010-01-01T06:54:34Z</time>
      </trkpt>
      <trkpt lat="45.24297" lon="5.57742">
        <ele>1373</ele>
        <time>2010-01-01T06:54:39Z</time>
      </trkpt>
      <trkpt lat="45.24298" lon="5.57747">
        <ele>1370</ele>
        <time>2010-01-01T06:54:44Z</time>
      </trkpt>
      <trkpt lat="45.24298" lon="5.57752">
        <ele>1370</ele>
        <time>2010-01-01T06:54:50Z</time>
      </trkpt>
      <trkpt lat="45.24304" lon="5.57764">
        <ele>1379</ele>
        <time>2010-01-01T06:55:08Z</time>
      </trkpt>
      <trkpt lat="45.24306" lon="5.57769">
        <ele>1382</ele>
        <time>2010-01-01T06:55:13Z</time>
      </trkpt>
      <trkpt lat="45.24306" lon="5.5778">
        <ele>1395</ele>
        <time>2010-01-01T06:55:23Z</time>
      </trkpt>
      <trkpt lat="45.24306" lon="5.57783">
        <ele>1405</ele>
        <time>2010-01-01T06:55:34Z</time>
      </trkpt>
      <trkpt lat="45.24306" lon="5.57786">
        <ele>1415</ele>
        <time>2010-01-01T06:55:37Z</time>
      </trkpt>
      <trkpt lat="45.24309" lon="5.57795">
        <ele>1441</ele>
        <time>2010-01-01T06:55:43Z</time>
      </trkpt>
      <trkpt lat="45.2431" lon="5.57814">
        <ele>1495</ele>
        <time>2010-01-01T06:55:45Z</time>
      </trkpt>
      <trkpt lat="45.24312" lon="5.57823">
        <ele>1516</ele>
        <time>2010-01-01T06:55:51Z</time>
      </trkpt>
      <trkpt lat="45.24314" lon="5.57829">
        <ele>1529</ele>
        <time>2010-01-01T06:55:57Z</time>
      </trkpt>
      <trkpt lat="45.24318" lon="5.5783">
        <ele>1529</ele>
        <time>2010-01-01T06:56:04Z</time>
      </trkpt>
      <trkpt lat="45.24321" lon="5.57838">
        <ele>1538</ele>
        <time>2010-01-01T06:56:08Z</time>
      </trkpt>
      <trkpt lat="45.24323" lon="5.57845">
        <ele>1540</ele>
        <time>2010-01-01T06:56:23Z</time>
      </trkpt>
      <trkpt lat="45.24341" lon="5.57896">
        <ele>1546</ele>
        <time>2010-01-01T06:56:32Z</time>
      </trkpt>
      <trkpt lat="45.24347" lon="5.57929">
        <ele>1557</ele>
        <time>2010-01-01T06:56:44Z</time>
      </trkpt>
      <trkpt lat="45.24349" lon="5.57943">
        <ele>1560</ele>
        <time>2010-01-01T06:56:58Z</time>
      </trkpt>
      <trkpt lat="45.24351" lon="5.57981">
        <ele>1570</ele>
        <time>2010-01-01T06:57:07Z</time>
      </trkpt>
      <trkpt lat="45.24347" lon="5.58007">
        <ele>1575</ele>
        <time>2010-01-01T06:57:15Z</time>
      </trkpt>
      <trkpt lat="45.24344" lon="5.58014">
        <ele>1576</ele>
        <time>2010-01-01T06:57:23Z</time>
      </trkpt>
      <trkpt lat="45.24336" lon="5.58026">
        <ele>1576</ele>
        <time>2010-01-01T06:57:30Z</time>
      </trkpt>
      <trkpt lat="45.24329" lon="5.58032">
        <ele>1575</ele>
        <time>2010-01-01T06:57:41Z</time>
      </trkpt>
      <trkpt lat="45.24323" lon="5.58041">
        <ele>1574</ele>
        <time>2010-01-01T06:57:52Z</time>
      </trkpt>
      <trkpt lat="45.24319" lon="5.58058">
        <ele>1574</ele>
        <time>2010-01-01T06:57:57Z</time>
      </trkpt>
      <trkpt lat="45.2432" lon="5.58078">
        <ele>1576</ele>
        <time>2010-01-01T06:58:00Z</time>
      </trkpt>
      <trkpt lat="45.24323" lon="5.58086">
        <ele>1577</ele>
        <time>2010-01-01T06:58:04Z</time>
      </trkpt>
      <trkpt lat="45.24333" lon="5.58097">
        <ele>1580</ele>
        <time>2010-01-01T06:58:09Z</time>
      </trkpt>
      <trkpt lat="45.24342" lon="5.58115">
        <ele>1579</ele>
        <time>2010-01-01T06:58:19Z</time>
      </trkpt>
      <trkpt lat="45.24344" lon="5.58123">
        <ele>1579</ele>
        <time>2010-01-01T06:58:30Z</time>
      </trkpt>
      <trkpt lat="45.24346" lon="5.58148">
        <ele>1583</ele>
        <time>2010-01-01T06:58:36Z</time>
      </trkpt>
      <trkpt lat="45.24345" lon="5.58162">
        <ele>1589</ele>
        <time>2010-01-01T06:58:39Z</time>
      </trkpt>
      <trkpt lat="45.24345" lon="5.58171">
        <ele>1591</ele>
        <time>2010-01-01T06:58:44Z</time>
      </trkpt>
      <trkpt lat="45.2434" lon="5.58195">
        <ele>1593</ele>
        <time>2010-01-01T06:58:50Z</time>
      </trkpt>
      <trkpt lat="45.24332" lon="5.58212">
        <ele>1593</ele>
        <time>2010-01-01T06:59:02Z</time>
      </trkpt>
      <trkpt lat="45.24329" lon="5.58219">
        <ele>1592</ele>
        <time>2010-01-01T06:59:13Z</time>
      </trkpt>
      <trkpt lat="45.24323" lon="5.58237">
        <ele>1592</ele>
        <time>2010-01-01T06:59:14Z</time>
      </trkpt>
      <trkpt lat="45.24315" lon="5.58257">
        <ele>1592</ele>
        <time>2010-01-01T06:59:20Z</time>
      </trkpt>
      <trkpt lat="45.24314" lon="5.58266">
        <ele>1592</ele>
        <time>2010-01-01T06:59:24Z</time>
      </trkpt>
      <trkpt lat="45.24322" lon="5.58296">
        <ele>1589</ele>
        <time>2010-01-01T06:59:28Z</time>
      </trkpt>
      <trkpt lat="45.24336" lon="5.58319">
        <ele>1589</ele>
        <time>2010-01-01T06:59:35Z</time>
      </trkpt>
      <trkpt lat="45.24346" lon="5.58342">
        <ele>1591</ele>
        <time>2010-01-01T06:59:36Z</time>
      </trkpt>
      <trkpt lat="45.24347" lon="5.58347">
        <ele>1592</ele>
        <time>2010-01-01T06:59:43Z</time>
      </trkpt>
      <trkpt lat="45.24352" lon="5.58357">
        <ele>1594</ele>
        <time>2010-01-01T06:59:45Z</time>
      </trkpt>
      <trkpt lat="45.24357" lon="5.58361">
        <ele>1595</ele>
        <time>2010-01-01T06:59:46Z</time>
      </trkpt>
      <trkpt lat="45.2436" lon="5.58366">
        <ele>1597</ele>
        <time>2010-01-01T06:59:47Z</time>
      </trkpt>
      <trkpt lat="45.24363" lon="5.58373">
        <ele>1599</ele>
        <time>2010-01-01T07:00:18Z</time>
      </trkpt>
      <trkpt lat="45.24364" lon="5.58381">
        <ele>1601</ele>
        <time>2010-01-01T07:00:27Z</time>
      </trkpt>
      <trkpt lat="45.24365" lon="5.58384">
        <ele>1602</ele>
        <time>2010-01-01T07:00:32Z</time>
      </trkpt>
      <trkpt lat="45.24368" lon="5.58384">
        <ele>1602</ele>
        <time>2010-01-01T07:00:35Z</time>
      </trkpt>
      <trkpt lat="45.24371" lon="5.58387">
        <ele>1602</ele>
        <time>2010-01-01T07:00:40Z</time>
      </trkpt>
      <trkpt lat="45.24373" lon="5.584">
        <ele>1605</ele>
        <time>2010-01-01T07:00:46Z</time>
      </trkpt>
      <trkpt lat="45.24377" lon="5.58405">
        <ele>1605</ele>
        <time>2010-01-01T07:00:53Z</time>
      </trkpt>
      <trkpt lat="45.24379" lon="5.5841">
        <ele>1606</ele>
        <time>2010-01-01T07:00:58Z</time>
      </trkpt>
      <trkpt lat="45.24381" lon="5.58419">
        <ele>1606</ele>
        <time>2010-01-01T07:01:00Z</time>
      </trkpt>
      <trkpt lat="45.24391" lon="5.58441">
        <ele>1581</ele>
        <time>2010-01-01T07:01:04Z</time>
      </trkpt>
      <trkpt lat="45.24386" lon="5.58442">
        <ele>1587</ele>
        <time>2010-01-01T07:01:05Z</time>
      </trkpt>
      <trkpt lat="45.24382" lon="5.58443">
        <ele>1590</ele>
        <time>2010-01-01T07:01:13Z</time>
      </trkpt>
      <trkpt lat="45.24378" lon="5.58446">
        <ele>1593</ele>
        <time>2010-01-01T07:01:20Z</time>
      </trkpt>
      <trkpt lat="45.24376" lon="5.58449">
        <ele>1594</ele>
        <time>2010-01-01T07:01:20Z</time>
      </trkpt>
      <trkpt lat="45.24371" lon="5.58459">
        <ele>1593</ele>
        <time>2010-01-01T07:01:22Z</time>
      </trkpt>
      <trkpt lat="45.24364" lon="5.5847">
        <ele>1591</ele>
        <time>2010-01-01T07:01:25Z</time>
      </trkpt>
      <trkpt lat="45.24361" lon="5.58475">
        <ele>1591</ele>
        <time>2010-01-01T07:01:27Z</time>
      </trkpt>
      <trkpt lat="45.24356" lon="5.58483">
        <ele>1591</ele>
        <time>2010-01-01T07:01:29Z</time>
      </trkpt>
      <trkpt lat="45.24341" lon="5.58493">
        <ele>1593</ele>
        <time>2010-01-01T07:01:33Z</time>
      </trkpt>
      <trkpt lat="45.24326" lon="5.585">
        <ele>1593</ele>
        <time>2010-01-01T07:01:36Z</time>
      </trkpt>
      <trkpt lat="45.24318" lon="5.58505">
        <ele>1594</ele>
        <time>2010-01-01T07:01:39Z</time>
      </trkpt>
      <trkpt lat="45.24313" lon="5.58514">
        <ele>1595</ele>
        <time>2010-01-01T07:01:42Z</time>
      </trkpt>
      <trkpt lat="45.24302" lon="5.58534">
        <ele>1593</ele>
        <time>2010-01-01T07:01:44Z</time>
      </trkpt>
      <trkpt lat="45.24293" lon="5.58548">
        <ele>1583</ele>
        <time>2010-01-01T07:01:45Z</time>
      </trkpt>
      <trkpt lat="45.24283" lon="5.58561">
        <ele>1581</ele>
        <time>2010-01-01T07:01:47Z</time>
      </trkpt>
      <trkpt lat="45.24275" lon="5.58566">
        <ele>1582</ele>
        <time>2010-01-01T07:01:49Z</time>
      </trkpt>
      <trkpt lat="45.2427" lon="5.58567">
        <ele>1580</ele>
        <time>2010-01-01T07:01:52Z</time>
      </trkpt>
      <trkpt lat="45.24268" lon="5.58569">
        <ele>1579</ele>
        <time>2010-01-01T07:01:56Z</time>
      </trkpt>
      <trkpt lat="45.24259" lon="5.5858">
        <ele>1575</ele>
        <time>2010-01-01T07:01:58Z</time>
      </trkpt>
      <trkpt lat="45.24257" lon="5.58582">
        <ele>1574</ele>
        <time>2010-01-01T07:02:03Z</time>
      </trkpt>
      <trkpt lat="45.24254" lon="5.58583">
        <ele>1573</ele>
        <time>2010-01-01T07:02:05Z</time>
      </trkpt>
      <trkpt lat="45.24245" lon="5.58595">
        <ele>1569</ele>
        <time>2010-01-01T07:02:06Z</time>
      </trkpt>
      <trkpt lat="45.24233" lon="5.58601">
        <ele>1565</ele>
        <time>2010-01-01T07:02:12Z</time>
      </trkpt>
      <trkpt lat="45.24224" lon="5.58609">
        <ele>1563</ele>
        <time>2010-01-01T07:02:15Z</time>
      </trkpt>
      <trkpt lat="45.24205" lon="5.58616">
        <ele>1559</ele>
        <time>2010-01-01T07:02:18Z</time>
      </trkpt>
      <trkpt lat="45.24196" lon="5.58622">
        <ele>1558</ele>
        <time>2010-01-01T07:02:20Z</time>
      </trkpt>
      <trkpt lat="45.24188" lon="5.58625">
        <ele>1557</ele>
        <time>2010-01-01T07:02:24Z</time>
      </trkpt>
      <trkpt lat="45.24183" lon="5.58631">
        <ele>1556</ele>
        <time>2010-01-01T07:02:27Z</time>
      </trkpt>
      <trkpt lat="45.24174" lon="5.5864">
        <ele>1556</ele>
        <time>2010-01-01T07:02:30Z</time>
      </trkpt>
      <trkpt lat="45.24163" lon="5.58647">
        <ele>1555</ele>
        <time>2010-01-01T07:02:32Z</time>
      </trkpt>
      <trkpt lat="45.24149" lon="5.58654">
        <ele>1553</ele>
        <time>2010-01-01T07:02:33Z</time>
      </trkpt>
      <trkpt lat="45.24106" lon="5.58678">
        <ele>1546</ele>
        <time>2010-01-01T07:02:34Z</time>
      </trkpt>
      <trkpt lat="45.24093" lon="5.58681">
        <ele>1546</ele>
        <time>2010-01-01T07:02:35Z</time>
      </trkpt>
      <trkpt lat="45.24071" lon="5.58689">
        <ele>1549</ele>
        <time>2010-01-01T07:02:37Z</time>
      </trkpt>
      <trkpt lat="45.24044" lon="5.58697">
        <ele>1549</ele>
        <time>2010-01-01T07:02:42Z</time>
      </trkpt>
      <trkpt lat="45.24035" lon="5.58702">
        <ele>1546</ele>
        <time>2010-01-01T07:02:46Z</time>
      </trkpt>
      <trkpt lat="45.24022" lon="5.58706">
        <ele>1545</ele>
        <time>2010-01-01T07:02:48Z</time>
      </trkpt>
      <trkpt lat="45.24017" lon="5.58708">
        <ele>1544</ele>
        <time>2010-01-01T07:02:49Z</time>
      </trkpt>
      <trkpt lat="45.24003" lon="5.58711">
        <ele>1545</ele>
        <time>2010-01-01T07:02:50Z</time>
      </trkpt>
      <trkpt lat="45.23988" lon="5.58718">
        <ele>1544</ele>
        <time>2010-01-01T07:02:51Z</time>
      </trkpt>
      <trkpt lat="45.23974" lon="5.58736">
        <ele>1543</ele>
        <time>2010-01-01T07:02:53Z</time>
      </trkpt>
      <trkpt lat="45.23968" lon="5.58746">
        <ele>1543</ele>
        <time>2010-01-01T07:02:55Z</time>
      </trkpt>
      <trkpt lat="45.23936" lon="5.58774">
        <ele>1541</ele>
        <time>2010-01-01T07:02:57Z</time>
      </trkpt>
      <trkpt lat="45.23915" lon="5.58788">
        <ele>1542</ele>
        <time>2010-01-01T07:02:58Z</time>
      </trkpt>
      <trkpt lat="45.23888" lon="5.58802">
        <ele>1542</ele>
        <time>2010-01-01T07:02:59Z</time>
      </trkpt>
      <trkpt lat="45.23866" lon="5.58839">
        <ele>1529</ele>
        <time>2010-01-01T07:03:01Z</time>
      </trkpt>
      <trkpt lat="45.23852" lon="5.58864">
        <ele>1530</ele>
        <time>2010-01-01T07:03:04Z</time>
      </trkpt>
      <trkpt lat="45.23839" lon="5.58886">
        <ele>1539</ele>
        <time>2010-01-01T07:03:06Z</time>
      </trkpt>
      <trkpt lat="45.23824" lon="5.58906">
        <ele>1531</ele>
        <time>2010-01-01T07:03:08Z</time>
      </trkpt>
      <trkpt lat="45.23811" lon="5.58921">
        <ele>1521</ele>
        <time>2010-01-01T07:03:10Z</time>
      </trkpt>
      <trkpt lat="45.23788" lon="5.58943">
        <ele>1529</ele>
        <time>2010-01-01T07:03:12Z</time>
      </trkpt>
      <trkpt lat="45.23762" lon="5.58959">
        <ele>1536</ele>
        <time>2010-01-01T07:03:14Z</time>
      </trkpt>
      <trkpt lat="45.2375" lon="5.58964">
        <ele>1544</ele>
        <time>2010-01-01T07:03:16Z</time>
      </trkpt>
      <trkpt lat="45.23744" lon="5.58971">
        <ele>1544</ele>
        <time>2010-01-01T07:03:20Z</time>
      </trkpt>
      <trkpt lat="45.23737" lon="5.58978">
        <ele>1544</ele>
        <time>2010-01-01T07:03:21Z</time>
      </trkpt>
      <trkpt lat="45.23726" lon="5.58987">
        <ele>1544</ele>
        <time>2010-01-01T07:03:23Z</time>
      </trkpt>
      <trkpt lat="45.23714" lon="5.59019">
        <ele>1545</ele>
        <time>2010-01-01T07:03:24Z</time>
      </trkpt>
      <trkpt lat="45.23704" lon="5.59054">
        <ele>1546</ele>
        <time>2010-01-01T07:03:27Z</time>
      </trkpt>
      <trkpt lat="45.23695" lon="5.59071">
        <ele>1548</ele>
        <time>2010-01-01T07:03:31Z</time>
      </trkpt>
      <trkpt lat="45.2369" lon="5.59081">
        <ele>1549</ele>
        <time>2010-01-01T07:03:38Z</time>
      </trkpt>
      <trkpt lat="45.23681" lon="5.59092">
        <ele>1550</ele>
        <time>2010-01-01T07:03:41Z</time>
      </trkpt>
      <trkpt lat="45.23671" lon="5.59107">
        <ele>1552</ele>
        <time>2010-01-01T07:03:45Z</time>
      </trkpt>
      <trkpt lat="45.23659" lon="5.59148">
        <ele>1554</ele>
        <time>2010-01-01T07:03:48Z</time>
      </trkpt>
      <trkpt lat="45.23646" lon="5.5918">
        <ele>1559</ele>
        <time>2010-01-01T07:03:50Z</time>
      </trkpt>
      <trkpt lat="45.23644" lon="5.59185">
        <ele>1560</ele>
        <time>2010-01-01T07:03:51Z</time>
      </trkpt>
      <trkpt lat="45.23637" lon="5.59203">
        <ele>1563</ele>
        <time>2010-01-01T07:03:52Z</time>
      </trkpt>
      <trkpt lat="45.23631" lon="5.59215">
        <ele>1565</ele>
        <time>2010-01-01T07:03:55Z</time>
      </trkpt>
      <trkpt lat="45.23624" lon="5.59223">
        <ele>1566</ele>
        <time>2010-01-01T07:03:56Z</time>
      </trkpt>
      <trkpt lat="45.23615" lon="5.59246">
        <ele>1561</ele>
        <time>2010-01-01T07:03:58Z</time>
      </trkpt>
      <trkpt lat="45.23613" lon="5.59249">
        <ele>1566</ele>
        <time>2010-01-01T07:04:01Z</time>
      </trkpt>
      <trkpt lat="45.23597" lon="5.5926">
        <ele>1574</ele>
        <time>2010-01-01T07:04:03Z</time>
      </trkpt>
      <trkpt lat="45.23594" lon="5.59263">
        <ele>1574</ele>
        <time>2010-01-01T07:04:05Z</time>
      </trkpt>
      <trkpt lat="45.23592" lon="5.59267">
        <ele>1575</ele>
        <time>2010-01-01T07:04:06Z</time>
      </trkpt>
      <trkpt lat="45.23591" lon="5.59271">
        <ele>1576</ele>
        <time>2010-01-01T07:04:09Z</time>
      </trkpt>
      <trkpt lat="45.2356" lon="5.5937">
        <ele>1585</ele>
        <time>2010-01-01T07:04:11Z</time>
      </trkpt>
      <trkpt lat="45.23547" lon="5.59396">
        <ele>1587</ele>
        <time>2010-01-01T07:04:12Z</time>
      </trkpt>
      <trkpt lat="45.23538" lon="5.5941">
        <ele>1587</ele>
        <time>2010-01-01T07:04:18Z</time>
      </trkpt>
      <trkpt lat="45.23533" lon="5.59418">
        <ele>1588</ele>
        <time>2010-01-01T07:04:22Z</time>
      </trkpt>
      <trkpt lat="45.23539" lon="5.59431">
        <ele>1589</ele>
        <time>2010-01-01T07:04:24Z</time>
      </trkpt>
      <trkpt lat="45.23546" lon="5.59451">
        <ele>1592</ele>
        <time>2010-01-01T07:04:25Z</time>
      </trkpt>
      <trkpt lat="45.23555" lon="5.59472">
        <ele>1594</ele>
        <time>2010-01-01T07:04:28Z</time>
      </trkpt>
      <trkpt lat="45.23558" lon="5.5949">
        <ele>1596</ele>
        <time>2010-01-01T07:04:32Z</time>
      </trkpt>
      <trkpt lat="45.23554" lon="5.59493">
        <ele>1597</ele>
        <time>2010-01-01T07:04:33Z</time>
      </trkpt>
      <trkpt lat="45.23545" lon="5.59492">
        <ele>1599</ele>
        <time>2010-01-01T07:04:35Z</time>
      </trkpt>
      <trkpt lat="45.23541" lon="5.59494">
        <ele>1600</ele>
        <time>2010-01-01T07:04:37Z</time>
      </trkpt>
      <trkpt lat="45.23523" lon="5.595">
        <ele>1604</ele>
        <time>2010-01-01T07:04:38Z</time>
      </trkpt>
      <trkpt lat="45.23506" lon="5.59497">
        <ele>1607</ele>
        <time>2010-01-01T07:04:41Z</time>
      </trkpt>
      <trkpt lat="45.23504" lon="5.59497">
        <ele>1607</ele>
        <time>2010-01-01T07:04:44Z</time>
      </trkpt>
      <trkpt lat="45.23504" lon="5.59503">
        <ele>1608</ele>
        <time>2010-01-01T07:04:47Z</time>
      </trkpt>
      <trkpt lat="45.23507" lon="5.59511">
        <ele>1609</ele>
        <time>2010-01-01T07:04:49Z</time>
      </trkpt>
      <trkpt lat="45.23512" lon="5.59515">
        <ele>1609</ele>
        <time>2010-01-01T07:04:52Z</time>
      </trkpt>
      <trkpt lat="45.23515" lon="5.59522">
        <ele>1610</ele>
        <time>2010-01-01T07:04:54Z</time>
      </trkpt>
      <trkpt lat="45.23521" lon="5.59531">
        <ele>1611</ele>
        <time>2010-01-01T07:04:56Z</time>
      </trkpt>
      <trkpt lat="45.23527" lon="5.59537">
        <ele>1611</ele>
        <time>2010-01-01T07:04:59Z</time>
      </trkpt>
      <trkpt lat="45.23533" lon="5.59545">
        <ele>1610</ele>
        <time>2010-01-01T07:05:02Z</time>
      </trkpt>
      <trkpt lat="45.23537" lon="5.59553">
        <ele>1610</ele>
        <time>2010-01-01T07:05:05Z</time>
      </trkpt>
      <trkpt lat="45.23536" lon="5.59561">
        <ele>1612</ele>
        <time>2010-01-01T07:05:07Z</time>
      </trkpt>
      <trkpt lat="45.23538" lon="5.59564">
        <ele>1611</ele>
        <time>2010-01-01T07:05:11Z</time>
      </trkpt>
      <trkpt lat="45.23537" lon="5.59569">
        <ele>1613</ele>
        <time>2010-01-01T07:05:13Z</time>
      </trkpt>
      <trkpt lat="45.23537" lon="5.59578">
        <ele>1614</ele>
        <time>2010-01-01T07:05:18Z</time>
      </trkpt>
      <trkpt lat="45.23542" lon="5.59586">
        <ele>1614</ele>
        <time>2010-01-01T07:05:22Z</time>
      </trkpt>
      <trkpt lat="45.23542" lon="5.59599">
        <ele>1618</ele>
        <time>2010-01-01T07:05:24Z</time>
      </trkpt>
      <trkpt lat="45.23541" lon="5.59606">
        <ele>1620</ele>
        <time>2010-01-01T07:05:27Z</time>
      </trkpt>
      <trkpt lat="45.23543" lon="5.59623">
        <ele>1624</ele>
        <time>2010-01-01T07:05:29Z</time>
      </trkpt>
      <trkpt lat="45.23544" lon="5.59632">
        <ele>1626</ele>
        <time>2010-01-01T07:05:30Z</time>
      </trkpt>
      <trkpt lat="45.23543" lon="5.59634">
        <ele>1626</ele>
        <time>2010-01-01T07:05:32Z</time>
      </trkpt>
      <trkpt lat="45.23543" lon="5.59654">
        <ele>1630</ele>
        <time>2010-01-01T07:05:35Z</time>
      </trkpt>
      <trkpt lat="45.23535" lon="5.59659">
        <ele>1632</ele>
        <time>2010-01-01T07:05:37Z</time>
      </trkpt>
      <trkpt lat="45.2353" lon="5.59664">
        <ele>1633</ele>
        <time>2010-01-01T07:05:42Z</time>
      </trkpt>
      <trkpt lat="45.23525" lon="5.59671">
        <ele>1634</ele>
        <time>2010-01-01T07:05:45Z</time>
      </trkpt>
      <trkpt lat="45.23529" lon="5.59683">
        <ele>1634</ele>
        <time>2010-01-01T07:05:47Z</time>
      </trkpt>
      <trkpt lat="45.23534" lon="5.59692">
        <ele>1630</ele>
        <time>2010-01-01T07:05:50Z</time>
      </trkpt>
      <trkpt lat="45.23536" lon="5.597">
        <ele>1619</ele>
        <time>2010-01-01T07:05:52Z</time>
      </trkpt>
      <trkpt lat="45.23539" lon="5.59708">
        <ele>1596</ele>
        <time>2010-01-01T07:05:54Z</time>
      </trkpt>
      <trkpt lat="45.23538" lon="5.59711">
        <ele>1595</ele>
        <time>2010-01-01T07:05:56Z</time>
      </trkpt>
      <trkpt lat="45.23536" lon="5.59714">
        <ele>1599</ele>
        <time>2010-01-01T07:05:58Z</time>
      </trkpt>
      <trkpt lat="45.23536" lon="5.59715">
        <ele>1597</ele>
        <time>2010-01-01T07:06:03Z</time>
      </trkpt>
      <trkpt lat="45.23534" lon="5.59724">
        <ele>1591</ele>
        <time>2010-01-01T07:06:06Z</time>
      </trkpt>
      <trkpt lat="45.2353" lon="5.59739">
        <ele>1557</ele>
        <time>2010-01-01T07:06:08Z</time>
      </trkpt>
      <trkpt lat="45.23525" lon="5.59751">
        <ele>1532</ele>
        <time>2010-01-01T07:06:09Z</time>
      </trkpt>
      <trkpt lat="45.23525" lon="5.59759">
        <ele>1493</ele>
        <time>2010-01-01T07:06:11Z</time>
      </trkpt>
      <trkpt lat="45.23523" lon="5.59762">
        <ele>1490</ele>
        <time>2010-01-01T07:06:13Z</time>
      </trkpt>
      <trkpt lat="45.23522" lon="5.59764">
        <ele>1486</ele>
        <time>2010-01-01T07:06:17Z</time>
      </trkpt>
      <trkpt lat="45.23522" lon="5.59769">
        <ele>1464</ele>
        <time>2010-01-01T07:06:21Z</time>
      </trkpt>
      <trkpt lat="45.2352" lon="5.59774">
        <ele>1460</ele>
        <time>2010-01-01T07:06:24Z</time>
      </trkpt>
      <trkpt lat="45.23515" lon="5.5978">
        <ele>1479</ele>
        <time>2010-01-01T07:06:28Z</time>
      </trkpt>
      <trkpt lat="45.23515" lon="5.59785">
        <ele>1463</ele>
        <time>2010-01-01T07:06:33Z</time>
      </trkpt>
      <trkpt lat="45.23515" lon="5.59789">
        <ele>1450</ele>
        <time>2010-01-01T07:06:41Z</time>
      </trkpt>
      <trkpt lat="45.23514" lon="5.59791">
        <ele>1448</ele>
        <time>2010-01-01T07:06:42Z</time>
      </trkpt>
      <trkpt lat="45.2351" lon="5.59795">
        <ele>1455</ele>
        <time>2010-01-01T07:06:44Z</time>
      </trkpt>
      <trkpt lat="45.23502" lon="5.59799">
        <ele>1474</ele>
        <time>2010-01-01T07:06:46Z</time>
      </trkpt>
      <trkpt lat="45.23497" lon="5.59803">
        <ele>1476</ele>
        <time>2010-01-01T07:06:49Z</time>
      </trkpt>
      <trkpt lat="45.23495" lon="5.59808">
        <ele>1466</ele>
        <time>2010-01-01T07:06:53Z</time>
      </trkpt>
      <trkpt lat="45.2349" lon="5.59813">
        <ele>1479</ele>
        <time>2010-01-01T07:07:03Z</time>
      </trkpt>
      <trkpt lat="45.23487" lon="5.59818">
        <ele>1479</ele>
        <time>2010-01-01T07:07:07Z</time>
      </trkpt>
      <trkpt lat="45.23484" lon="5.59824">
        <ele>1472</ele>
        <time>2010-01-01T07:07:10Z</time>
      </trkpt>
      <trkpt lat="45.2348" lon="5.59824">
        <ele>1495</ele>
        <time>2010-01-01T07:07:13Z</time>
      </trkpt>
      <trkpt lat="45.23471" lon="5.59823">
        <ele>1542</ele>
        <time>2010-01-01T07:07:16Z</time>
      </trkpt>
      <trkpt lat="45.23469" lon="5.59825">
        <ele>1535</ele>
        <time>2010-01-01T07:07:20Z</time>
      </trkpt>
      <trkpt lat="45.23469" lon="5.59832">
        <ele>1504</ele>
        <time>2010-01-01T07:07:29Z</time>
      </trkpt>
      <trkpt lat="45.23466" lon="5.59834">
        <ele>1501</ele>
        <time>2010-01-01T07:07:31Z</time>
      </trkpt>
      <trkpt lat="45.23459" lon="5.59836">
        <ele>1508</ele>
        <time>2010-01-01T07:07:33Z</time>
      </trkpt>
      <trkpt lat="45.23449" lon="5.59839">
        <ele>1519</ele>
        <time>2010-01-01T07:07:34Z</time>
      </trkpt>
      <trkpt lat="45.2343" lon="5.59842">
        <ele>1557</ele>
        <time>2010-01-01T07:07:35Z</time>
      </trkpt>
      <trkpt lat="45.23424" lon="5.59843">
        <ele>1569</ele>
        <time>2010-01-01T07:07:38Z</time>
      </trkpt>
      <trkpt lat="45.23413" lon="5.59844">
        <ele>1591</ele>
        <time>2010-01-01T07:07:41Z</time>
      </trkpt>
      <trkpt lat="45.23406" lon="5.59844">
        <ele>1601</ele>
        <time>2010-01-01T07:07:44Z</time>
      </trkpt>
      <trkpt lat="45.23403" lon="5.5984">
        <ele>1611</ele>
        <time>2010-01-01T07:07:47Z</time>
      </trkpt>
      <trkpt lat="45.23402" lon="5.59836">
        <ele>1618</ele>
        <time>2010-01-01T07:07:48Z</time>
      </trkpt>
      <trkpt lat="45.234" lon="5.59833">
        <ele>1623</ele>
        <time>2010-01-01T07:07:51Z</time>
      </trkpt>
      <trkpt lat="45.23393" lon="5.59832">
        <ele>1625</ele>
        <time>2010-01-01T07:07:52Z</time>
      </trkpt>
      <trkpt lat="45.23392" lon="5.59829">
        <ele>1625</ele>
        <time>2010-01-01T07:07:59Z</time>
      </trkpt>
      <trkpt lat="45.23387" lon="5.59829">
        <ele>1626</ele>
        <time>2010-01-01T07:08:08Z</time>
      </trkpt>
      <trkpt lat="45.2338" lon="5.59824">
        <ele>1626</ele>
        <time>2010-01-01T07:08:17Z</time>
      </trkpt>
      <trkpt lat="45.23377" lon="5.59818">
        <ele>1627</ele>
        <time>2010-01-01T07:08:25Z</time>
      </trkpt>
      <trkpt lat="45.23377" lon="5.59811">
        <ele>1628</ele>
        <time>2010-01-01T07:08:35Z</time>
      </trkpt>
      <trkpt lat="45.23376" lon="5.59808">
        <ele>1628</ele>
        <time>2010-01-01T07:08:50Z</time>
      </trkpt>
      <trkpt lat="45.23372" lon="5.59801">
        <ele>1629</ele>
        <time>2010-01-01T07:08:56Z</time>
      </trkpt>
      <trkpt lat="45.23369" lon="5.59795">
        <ele>1629</ele>
        <time>2010-01-01T07:09:01Z</time>
      </trkpt>
      <trkpt lat="45.23365" lon="5.59793">
        <ele>1629</ele>
        <time>2010-01-01T07:09:06Z</time>
      </trkpt>
      <trkpt lat="45.23357" lon="5.59778">
        <ele>1629</ele>
        <time>2010-01-01T07:09:10Z</time>
      </trkpt>
      <trkpt lat="45.23352" lon="5.59765">
        <ele>1628</ele>
        <time>2010-01-01T07:09:15Z</time>
      </trkpt>
      <trkpt lat="45.2335" lon="5.59756">
        <ele>1629</ele>
        <time>2010-01-01T07:09:20Z</time>
      </trkpt>
      <trkpt lat="45.23349" lon="5.59755">
        <ele>1628</ele>
        <time>2010-01-01T07:09:24Z</time>
      </trkpt>
      <trkpt lat="45.23343" lon="5.59749">
        <ele>1628</ele>
        <time>2010-01-01T07:09:25Z</time>
      </trkpt>
      <trkpt lat="45.23338" lon="5.59737">
        <ele>1628</ele>
        <time>2010-01-01T07:09:29Z</time>
      </trkpt>
      <trkpt lat="45.23336" lon="5.59732">
        <ele>1627</ele>
        <time>2010-01-01T07:09:33Z</time>
      </trkpt>
      <trkpt lat="45.23333" lon="5.5973">
        <ele>1627</ele>
        <time>2010-01-01T07:09:36Z</time>
      </trkpt>
      <trkpt lat="45.23329" lon="5.59726">
        <ele>1627</ele>
        <time>2010-01-01T07:09:42Z</time>
      </trkpt>
      <trkpt lat="45.23328" lon="5.59723">
        <ele>1627</ele>
        <time>2010-01-01T07:09:47Z</time>
      </trkpt>
      <trkpt lat="45.23325" lon="5.59711">
        <ele>1627</ele>
        <time>2010-01-01T07:09:51Z</time>
      </trkpt>
      <trkpt lat="45.23321" lon="5.59704">
        <ele>1626</ele>
        <time>2010-01-01T07:09:56Z</time>
      </trkpt>
      <trkpt lat="45.23318" lon="5.59694">
        <ele>1626</ele>
        <time>2010-01-01T07:10:01Z</time>
      </trkpt>
      <trkpt lat="45.23317" lon="5.59685">
        <ele>1626</ele>
        <time>2010-01-01T07:10:09Z</time>
      </trkpt>
      <trkpt lat="45.23314" lon="5.59677">
        <ele>1626</ele>
        <time>2010-01-01T07:10:19Z</time>
      </trkpt>
      <trkpt lat="45.23311" lon="5.59671">
        <ele>1626</ele>
        <time>2010-01-01T07:10:29Z</time>
      </trkpt>
      <trkpt lat="45.23309" lon="5.59663">
        <ele>1626</ele>
        <time>2010-01-01T07:10:35Z</time>
      </trkpt>
      <trkpt lat="45.23305" lon="5.59654">
        <ele>1625</ele>
        <time>2010-01-01T07:10:42Z</time>
      </trkpt>
      <trkpt lat="45.233" lon="5.5965">
        <ele>1625</ele>
        <time>2010-01-01T07:10:52Z</time>
      </trkpt>
      <trkpt lat="45.23293" lon="5.59648">
        <ele>1624</ele>
        <time>2010-01-01T07:11:07Z</time>
      </trkpt>
      <trkpt lat="45.23287" lon="5.59644">
        <ele>1624</ele>
        <time>2010-01-01T07:11:14Z</time>
      </trkpt>
      <trkpt lat="45.2328" lon="5.59637">
        <ele>1624</ele>
        <time>2010-01-01T07:11:17Z</time>
      </trkpt>
      <trkpt lat="45.23275" lon="5.5963">
        <ele>1623</ele>
        <time>2010-01-01T07:11:19Z</time>
      </trkpt>
      <trkpt lat="45.23266" lon="5.59621">
        <ele>1622</ele>
        <time>2010-01-01T07:11:29Z</time>
      </trkpt>
      <trkpt lat="45.23256" lon="5.59615">
        <ele>1620</ele>
        <time>2010-01-01T07:11:39Z</time>
      </trkpt>
      <trkpt lat="45.23252" lon="5.59611">
        <ele>1620</ele>
        <time>2010-01-01T07:11:44Z</time>
      </trkpt>
      <trkpt lat="45.23247" lon="5.59605">
        <ele>1619</ele>
        <time>2010-01-01T07:11:52Z</time>
      </trkpt>
      <trkpt lat="45.23245" lon="5.59599">
        <ele>1619</ele>
        <time>2010-01-01T07:12:01Z</time>
      </trkpt>
      <trkpt lat="45.23242" lon="5.59595">
        <ele>1619</ele>
        <time>2010-01-01T07:12:06Z</time>
      </trkpt>
      <trkpt lat="45.23238" lon="5.59592">
        <ele>1619</ele>
        <time>2010-01-01T07:12:11Z</time>
      </trkpt>
      <trkpt lat="45.23233" lon="5.59585">
        <ele>1618</ele>
        <time>2010-01-01T07:12:18Z</time>
      </trkpt>
      <trkpt lat="45.23228" lon="5.59581">
        <ele>1618</ele>
        <time>2010-01-01T07:12:28Z</time>
      </trkpt>
      <trkpt lat="45.2322" lon="5.59569">
        <ele>1618</ele>
        <time>2010-01-01T07:12:34Z</time>
      </trkpt>
      <trkpt lat="45.23215" lon="5.59561">
        <ele>1619</ele>
        <time>2010-01-01T07:12:45Z</time>
      </trkpt>
      <trkpt lat="45.23211" lon="5.59555">
        <ele>1619</ele>
        <time>2010-01-01T07:13:03Z</time>
      </trkpt>
      <trkpt lat="45.23206" lon="5.59551">
        <ele>1619</ele>
        <time>2010-01-01T07:13:12Z</time>
      </trkpt>
      <trkpt lat="45.23201" lon="5.59548">
        <ele>1619</ele>
        <time>2010-01-01T07:13:23Z</time>
      </trkpt>
      <trkpt lat="45.23197" lon="5.59544">
        <ele>1619</ele>
        <time>2010-01-01T07:13:32Z</time>
      </trkpt>
      <trkpt lat="45.23192" lon="5.59543">
        <ele>1619</ele>
        <time>2010-01-01T07:13:36Z</time>
      </trkpt>
      <trkpt lat="45.23188" lon="5.59539">
        <ele>1619</ele>
        <time>2010-01-01T07:13:45Z</time>
      </trkpt>
      <trkpt lat="45.23176" lon="5.59535">
        <ele>1620</ele>
        <time>2010-01-01T07:13:49Z</time>
      </trkpt>
      <trkpt lat="45.23169" lon="5.59529">
        <ele>1620</ele>
        <time>2010-01-01T07:13:53Z</time>
      </trkpt>
      <trkpt lat="45.23164" lon="5.59526">
        <ele>1619</ele>
        <time>2010-01-01T07:14:09Z</time>
      </trkpt>
      <trkpt lat="45.23162" lon="5.59525">
        <ele>1619</ele>
        <time>2010-01-01T07:14:15Z</time>
      </trkpt>
      <trkpt lat="45.23157" lon="5.59521">
        <ele>1619</ele>
        <time>2010-01-01T07:14:18Z</time>
      </trkpt>
      <trkpt lat="45.23154" lon="5.59515">
        <ele>1619</ele>
        <time>2010-01-01T07:14:21Z</time>
      </trkpt>
      <trkpt lat="45.23149" lon="5.59504">
        <ele>1618</ele>
        <time>2010-01-01T07:14:38Z</time>
      </trkpt>
      <trkpt lat="45.23145" lon="5.59492">
        <ele>1618</ele>
        <time>2010-01-01T07:14:41Z</time>
      </trkpt>
      <trkpt lat="45.2314" lon="5.59481">
        <ele>1618</ele>
        <time>2010-01-01T07:14:44Z</time>
      </trkpt>
      <trkpt lat="45.23135" lon="5.59469">
        <ele>1617</ele>
        <time>2010-01-01T07:14:45Z</time>
      </trkpt>
      <trkpt lat="45.23129" lon="5.59456">
        <ele>1615</ele>
        <time>2010-01-01T07:14:54Z</time>
      </trkpt>
      <trkpt lat="45.23118" lon="5.59433">
        <ele>1612</ele>
        <time>2010-01-01T07:14:57Z</time>
      </trkpt>
      <trkpt lat="45.23115" lon="5.59429">
        <ele>1612</ele>
        <time>2010-01-01T07:15:00Z</time>
      </trkpt>
      <trkpt lat="45.23111" lon="5.59426">
        <ele>1611</ele>
        <time>2010-01-01T07:15:04Z</time>
      </trkpt>
      <trkpt lat="45.23107" lon="5.59423">
        <ele>1611</ele>
        <time>2010-01-01T07:15:07Z</time>
      </trkpt>
      <trkpt lat="45.23098" lon="5.59421">
        <ele>1610</ele>
        <time>2010-01-01T07:15:18Z</time>
      </trkpt>
      <trkpt lat="45.23091" lon="5.59416">
        <ele>1610</ele>
        <time>2010-01-01T07:15:28Z</time>
      </trkpt>
      <trkpt lat="45.23065" lon="5.59408">
        <ele>1610</ele>
        <time>2010-01-01T07:15:42Z</time>
      </trkpt>
      <trkpt lat="45.23056" lon="5.59407">
        <ele>1610</ele>
        <time>2010-01-01T07:15:49Z</time>
      </trkpt>
      <trkpt lat="45.23048" lon="5.59406">
        <ele>1610</ele>
        <time>2010-01-01T07:15:52Z</time>
      </trkpt>
      <trkpt lat="45.2304" lon="5.59403">
        <ele>1611</ele>
        <time>2010-01-01T07:15:54Z</time>
      </trkpt>
      <trkpt lat="45.23033" lon="5.59399">
        <ele>1611</ele>
        <time>2010-01-01T07:15:59Z</time>
      </trkpt>
      <trkpt lat="45.23026" lon="5.59393">
        <ele>1612</ele>
        <time>2010-01-01T07:16:08Z</time>
      </trkpt>
      <trkpt lat="45.23006" lon="5.59378">
        <ele>1613</ele>
        <time>2010-01-01T07:16:13Z</time>
      </trkpt>
      <trkpt lat="45.23002" lon="5.59371">
        <ele>1613</ele>
        <time>2010-01-01T07:16:21Z</time>
      </trkpt>
      <trkpt lat="45.23" lon="5.59367">
        <ele>1613</ele>
        <time>2010-01-01T07:16:29Z</time>
      </trkpt>
      <trkpt lat="45.22998" lon="5.59364">
        <ele>1613</ele>
        <time>2010-01-01T07:16:37Z</time>
      </trkpt>
      <trkpt lat="45.22995" lon="5.59362">
        <ele>1613</ele>
        <time>2010-01-01T07:16:39Z</time>
      </trkpt>
      <trkpt lat="45.22989" lon="5.5936">
        <ele>1612</ele>
        <time>2010-01-01T07:16:41Z</time>
      </trkpt>
      <trkpt lat="45.2298" lon="5.59363">
        <ele>1613</ele>
        <time>2010-01-01T07:16:44Z</time>
      </trkpt>
      <trkpt lat="45.22973" lon="5.59364">
        <ele>1613</ele>
        <time>2010-01-01T07:16:47Z</time>
      </trkpt>
      <trkpt lat="45.22966" lon="5.59363">
        <ele>1613</ele>
        <time>2010-01-01T07:16:49Z</time>
      </trkpt>
      <trkpt lat="45.22963" lon="5.59361">
        <ele>1613</ele>
        <time>2010-01-01T07:16:58Z</time>
      </trkpt>
      <trkpt lat="45.22959" lon="5.59355">
        <ele>1613</ele>
        <time>2010-01-01T07:17:03Z</time>
      </trkpt>
      <trkpt lat="45.22956" lon="5.59353">
        <ele>1613</ele>
        <time>2010-01-01T07:17:13Z</time>
      </trkpt>
      <trkpt lat="45.22939" lon="5.59354">
        <ele>1614</ele>
        <time>2010-01-01T07:17:16Z</time>
      </trkpt>
      <trkpt lat="45.22917" lon="5.59367">
        <ele>1613</ele>
        <time>2010-01-01T07:17:18Z</time>
      </trkpt>
      <trkpt lat="45.22898" lon="5.59379">
        <ele>1613</ele>
        <time>2010-01-01T07:17:21Z</time>
      </trkpt>
      <trkpt lat="45.22877" lon="5.59385">
        <ele>1614</ele>
        <time>2010-01-01T07:17:25Z</time>
      </trkpt>
      <trkpt lat="45.22853" lon="5.59384">
        <ele>1615</ele>
        <time>2010-01-01T07:17:27Z</time>
      </trkpt>
      <trkpt lat="45.22816" lon="5.59376">
        <ele>1615</ele>
        <time>2010-01-01T07:17:29Z</time>
      </trkpt>
      <trkpt lat="45.228" lon="5.59372">
        <ele>1614</ele>
        <time>2010-01-01T07:17:31Z</time>
      </trkpt>
      <trkpt lat="45.22788" lon="5.59372">
        <ele>1613</ele>
        <time>2010-01-01T07:17:33Z</time>
      </trkpt>
      <trkpt lat="45.22777" lon="5.59375">
        <ele>1613</ele>
        <time>2010-01-01T07:17:36Z</time>
      </trkpt>
      <trkpt lat="45.22767" lon="5.59383">
        <ele>1613</ele>
        <time>2010-01-01T07:17:38Z</time>
      </trkpt>
      <trkpt lat="45.22756" lon="5.59393">
        <ele>1612</ele>
        <time>2010-01-01T07:17:40Z</time>
      </trkpt>
      <trkpt lat="45.22745" lon="5.59395">
        <ele>1612</ele>
        <time>2010-01-01T07:17:44Z</time>
      </trkpt>
      <trkpt lat="45.22736" lon="5.59399">
        <ele>1611</ele>
        <time>2010-01-01T07:17:46Z</time>
      </trkpt>
      <trkpt lat="45.22733" lon="5.594">
        <ele>1611</ele>
        <time>2010-01-01T07:17:49Z</time>
      </trkpt>
      <trkpt lat="45.22724" lon="5.59403">
        <ele>1611</ele>
        <time>2010-01-01T07:17:53Z</time>
      </trkpt>
      <trkpt lat="45.22714" lon="5.59402">
        <ele>1611</ele>
        <time>2010-01-01T07:17:55Z</time>
      </trkpt>
      <trkpt lat="45.22705" lon="5.59397">
        <ele>1611</ele>
        <time>2010-01-01T07:17:58Z</time>
      </trkpt>
      <trkpt lat="45.22693" lon="5.59386">
        <ele>1612</ele>
        <time>2010-01-01T07:17:58Z</time>
      </trkpt>
      <trkpt lat="45.22682" lon="5.59383">
        <ele>1612</ele>
        <time>2010-01-01T07:18:05Z</time>
      </trkpt>
      <trkpt lat="45.22672" lon="5.59385">
        <ele>1612</ele>
        <time>2010-01-01T07:18:14Z</time>
      </trkpt>
      <trkpt lat="45.2266" lon="5.59391">
        <ele>1613</ele>
        <time>2010-01-01T07:18:26Z</time>
      </trkpt>
      <trkpt lat="45.22648" lon="5.59392">
        <ele>1613</ele>
        <time>2010-01-01T07:18:29Z</time>
      </trkpt>
      <trkpt lat="45.22627" lon="5.59391">
        <ele>1613</ele>
        <time>2010-01-01T07:18:37Z</time>
      </trkpt>
      <trkpt lat="45.22603" lon="5.59388">
        <ele>1613</ele>
        <time>2010-01-01T07:18:40Z</time>
      </trkpt>
      <trkpt lat="45.22578" lon="5.59388">
        <ele>1613</ele>
        <time>2010-01-01T07:18:43Z</time>
      </trkpt>
      <trkpt lat="45.22562" lon="5.59392">
        <ele>1613</ele>
        <time>2010-01-01T07:18:43Z</time>
      </trkpt>
      <trkpt lat="45.22545" lon="5.59394">
        <ele>1615</ele>
        <time>2010-01-01T07:18:49Z</time>
      </trkpt>
      <trkpt lat="45.22521" lon="5.59386">
        <ele>1617</ele>
        <time>2010-01-01T07:18:52Z</time>
      </trkpt>
      <trkpt lat="45.22484" lon="5.59382">
        <ele>1615</ele>
        <time>2010-01-01T07:19:04Z</time>
      </trkpt>
      <trkpt lat="45.22466" lon="5.59377">
        <ele>1616</ele>
        <time>2010-01-01T07:19:06Z</time>
      </trkpt>
      <trkpt lat="45.22459" lon="5.59381">
        <ele>1616</ele>
        <time>2010-01-01T07:19:07Z</time>
      </trkpt>
      <trkpt lat="45.22453" lon="5.59382">
        <ele>1616</ele>
        <time>2010-01-01T07:19:09Z</time>
      </trkpt>
      <trkpt lat="45.22429" lon="5.59378">
        <ele>1618</ele>
        <time>2010-01-01T07:19:13Z</time>
      </trkpt>
      <trkpt lat="45.22405" lon="5.59368">
        <ele>1620</ele>
        <time>2010-01-01T07:19:14Z</time>
      </trkpt>
      <trkpt lat="45.22393" lon="5.59366">
        <ele>1620</ele>
        <time>2010-01-01T07:19:17Z</time>
      </trkpt>
      <trkpt lat="45.22373" lon="5.59371">
        <ele>1620</ele>
        <time>2010-01-01T07:19:26Z</time>
      </trkpt>
      <trkpt lat="45.22351" lon="5.59376">
        <ele>1619</ele>
        <time>2010-01-01T07:19:28Z</time>
      </trkpt>
      <trkpt lat="45.22339" lon="5.59371">
        <ele>1619</ele>
        <time>2010-01-01T07:19:35Z</time>
      </trkpt>
      <trkpt lat="45.22326" lon="5.59366">
        <ele>1619</ele>
        <time>2010-01-01T07:19:44Z</time>
      </trkpt>
      <trkpt lat="45.2231" lon="5.59362">
        <ele>1620</ele>
        <time>2010-01-01T07:19:48Z</time>
      </trkpt>
      <trkpt lat="45.22288" lon="5.59347">
        <ele>1620</ele>
        <time>2010-01-01T07:19:52Z</time>
      </trkpt>
      <trkpt lat="45.22274" lon="5.59339">
        <ele>1620</ele>
        <time>2010-01-01T07:19:56Z</time>
      </trkpt>
      <trkpt lat="45.22254" lon="5.59311">
        <ele>1620</ele>
        <time>2010-01-01T07:20:01Z</time>
      </trkpt>
      <trkpt lat="45.2222" lon="5.59268">
        <ele>1613</ele>
        <time>2010-01-01T07:20:20Z</time>
      </trkpt>
      <trkpt lat="45.22203" lon="5.59249">
        <ele>1609</ele>
        <time>2010-01-01T07:20:23Z</time>
      </trkpt>
      <trkpt lat="45.22179" lon="5.59227">
        <ele>1604</ele>
        <time>2010-01-01T07:20:30Z</time>
      </trkpt>
      <trkpt lat="45.22158" lon="5.59238">
        <ele>1606</ele>
        <time>2010-01-01T07:20:34Z</time>
      </trkpt>
      <trkpt lat="45.2215" lon="5.5924">
        <ele>1607</ele>
        <time>2010-01-01T07:20:37Z</time>
      </trkpt>
      <trkpt lat="45.22126" lon="5.59247">
        <ele>1609</ele>
        <time>2010-01-01T07:20:40Z</time>
      </trkpt>
      <trkpt lat="45.22117" lon="5.59248">
        <ele>1611</ele>
        <time>2010-01-01T07:20:45Z</time>
      </trkpt>
      <trkpt lat="45.22108" lon="5.59248">
        <ele>1611</ele>
        <time>2010-01-01T07:20:46Z</time>
      </trkpt>
      <trkpt lat="45.22066" lon="5.59241">
        <ele>1611</ele>
        <time>2010-01-01T07:20:51Z</time>
      </trkpt>
      <trkpt lat="45.22052" lon="5.5924">
        <ele>1610</ele>
        <time>2010-01-01T07:20:59Z</time>
      </trkpt>
      <trkpt lat="45.22045" lon="5.59241">
        <ele>1609</ele>
        <time>2010-01-01T07:21:05Z</time>
      </trkpt>
      <trkpt lat="45.22037" lon="5.59242">
        <ele>1609</ele>
        <time>2010-01-01T07:21:13Z</time>
      </trkpt>
      <trkpt lat="45.21996" lon="5.59258">
        <ele>1607</ele>
        <time>2010-01-01T07:21:18Z</time>
      </trkpt>
      <trkpt lat="45.21989" lon="5.5926">
        <ele>1606</ele>
        <time>2010-01-01T07:21:25Z</time>
      </trkpt>
      <trkpt lat="45.21982" lon="5.5926">
        <ele>1605</ele>
        <time>2010-01-01T07:21:36Z</time>
      </trkpt>
      <trkpt lat="45.2198" lon="5.5926">
        <ele>1605</ele>
        <time>2010-01-01T07:21:44Z</time>
      </trkpt>
      <trkpt lat="45.21956" lon="5.59256">
        <ele>1602</ele>
        <time>2010-01-01T07:21:52Z</time>
      </trkpt>
      <trkpt lat="45.21948" lon="5.59255">
        <ele>1601</ele>
        <time>2010-01-01T07:21:59Z</time>
      </trkpt>
      <trkpt lat="45.21942" lon="5.59257">
        <ele>1601</ele>
        <time>2010-01-01T07:22:02Z</time>
      </trkpt>
      <trkpt lat="45.21932" lon="5.59263">
        <ele>1601</ele>
        <time>2010-01-01T07:22:06Z</time>
      </trkpt>
      <trkpt lat="45.21925" lon="5.59265">
        <ele>1600</ele>
        <time>2010-01-01T07:22:09Z</time>
      </trkpt>
      <trkpt lat="45.21898" lon="5.59266">
        <ele>1599</ele>
        <time>2010-01-01T07:22:11Z</time>
      </trkpt>
      <trkpt lat="45.21872" lon="5.59265">
        <ele>1600</ele>
        <time>2010-01-01T07:22:12Z</time>
      </trkpt>
      <trkpt lat="45.21838" lon="5.59265">
        <ele>1601</ele>
        <time>2010-01-01T07:22:14Z</time>
      </trkpt>
      <trkpt lat="45.21821" lon="5.59271">
        <ele>1600</ele>
        <time>2010-01-01T07:22:15Z</time>
      </trkpt>
      <trkpt lat="45.21815" lon="5.59274">
        <ele>1600</ele>
        <time>2010-01-01T07:22:18Z</time>
      </trkpt>
      <trkpt lat="45.2181" lon="5.59277">
        <ele>1599</ele>
        <time>2010-01-01T07:22:20Z</time>
      </trkpt>
      <trkpt lat="45.21803" lon="5.59294">
        <ele>1599</ele>
        <time>2010-01-01T07:22:25Z</time>
      </trkpt>
      <trkpt lat="45.21793" lon="5.59323">
        <ele>1598</ele>
        <time>2010-01-01T07:22:26Z</time>
      </trkpt>
      <trkpt lat="45.21787" lon="5.59336">
        <ele>1597</ele>
        <time>2010-01-01T07:22:28Z</time>
      </trkpt>
      <trkpt lat="45.21775" lon="5.59359">
        <ele>1594</ele>
        <time>2010-01-01T07:22:33Z</time>
      </trkpt>
      <trkpt lat="45.21761" lon="5.59381">
        <ele>1592</ele>
        <time>2010-01-01T07:22:36Z</time>
      </trkpt>
      <trkpt lat="45.21749" lon="5.59404">
        <ele>1589</ele>
        <time>2010-01-01T07:22:38Z</time>
      </trkpt>
      <trkpt lat="45.21745" lon="5.59408">
        <ele>1589</ele>
        <time>2010-01-01T07:22:40Z</time>
      </trkpt>
      <trkpt lat="45.21741" lon="5.59411">
        <ele>1589</ele>
        <time>2010-01-01T07:22:48Z</time>
      </trkpt>
      <trkpt lat="45.21733" lon="5.59414">
        <ele>1588</ele>
        <time>2010-01-01T07:22:55Z</time>
      </trkpt>
      <trkpt lat="45.21734" lon="5.59423">
        <ele>1588</ele>
        <time>2010-01-01T07:22:58Z</time>
      </trkpt>
      <trkpt lat="45.21733" lon="5.59414">
        <ele>1588</ele>
        <time>2010-01-01T07:23:01Z</time>
      </trkpt>
      <trkpt lat="45.21713" lon="5.59424">
        <ele>1587</ele>
        <time>2010-01-01T07:23:06Z</time>
      </trkpt>
      <trkpt lat="45.21701" lon="5.59418">
        <ele>1587</ele>
        <time>2010-01-01T07:23:08Z</time>
      </trkpt>
      <trkpt lat="45.21679" lon="5.59404">
        <ele>1593</ele>
        <time>2010-01-01T07:23:11Z</time>
      </trkpt>
      <trkpt lat="45.2167" lon="5.594">
        <ele>1596</ele>
        <time>2010-01-01T07:23:13Z</time>
      </trkpt>
      <trkpt lat="45.21667" lon="5.59395">
        <ele>1597</ele>
        <time>2010-01-01T07:23:15Z</time>
      </trkpt>
      <trkpt lat="45.21664" lon="5.59388">
        <ele>1599</ele>
        <time>2010-01-01T07:23:20Z</time>
      </trkpt>
      <trkpt lat="45.21662" lon="5.59372">
        <ele>1600</ele>
        <time>2010-01-01T07:23:26Z</time>
      </trkpt>
      <trkpt lat="45.21662" lon="5.59365">
        <ele>1600</ele>
        <time>2010-01-01T07:23:27Z</time>
      </trkpt>
      <trkpt lat="45.21662" lon="5.59357">
        <ele>1600</ele>
        <time>2010-01-01T07:23:32Z</time>
      </trkpt>
      <trkpt lat="45.21662" lon="5.5935">
        <ele>1601</ele>
        <time>2010-01-01T07:23:36Z</time>
      </trkpt>
      <trkpt lat="45.21662" lon="5.59344">
        <ele>1601</ele>
        <time>2010-01-01T07:23:40Z</time>
      </trkpt>
      <trkpt lat="45.21659" lon="5.59333">
        <ele>1604</ele>
        <time>2010-01-01T07:23:42Z</time>
      </trkpt>
      <trkpt lat="45.21659" lon="5.59329">
        <ele>1604</ele>
        <time>2010-01-01T07:23:46Z</time>
      </trkpt>
      <trkpt lat="45.21659" lon="5.59321">
        <ele>1604</ele>
        <time>2010-01-01T07:23:50Z</time>
      </trkpt>
      <trkpt lat="45.21661" lon="5.59306">
        <ele>1603</ele>
        <time>2010-01-01T07:23:58Z</time>
      </trkpt>
      <trkpt lat="45.21661" lon="5.59299">
        <ele>1603</ele>
        <time>2010-01-01T07:24:02Z</time>
      </trkpt>
      <trkpt lat="45.21659" lon="5.59288">
        <ele>1604</ele>
        <time>2010-01-01T07:24:04Z</time>
      </trkpt>
      <trkpt lat="45.21654" lon="5.59279">
        <ele>1606</ele>
        <time>2010-01-01T07:24:09Z</time>
      </trkpt>
      <trkpt lat="45.21648" lon="5.59273">
        <ele>1608</ele>
        <time>2010-01-01T07:24:22Z</time>
      </trkpt>
      <trkpt lat="45.21645" lon="5.59267">
        <ele>1609</ele>
        <time>2010-01-01T07:24:24Z</time>
      </trkpt>
      <trkpt lat="45.21644" lon="5.59266">
        <ele>1609</ele>
        <time>2010-01-01T07:24:33Z</time>
      </trkpt>
      <trkpt lat="45.21634" lon="5.59244">
        <ele>1610</ele>
        <time>2010-01-01T07:24:35Z</time>
      </trkpt>
      <trkpt lat="45.2162" lon="5.5922">
        <ele>1612</ele>
        <time>2010-01-01T07:24:40Z</time>
      </trkpt>
      <trkpt lat="45.21598" lon="5.59191">
        <ele>1613</ele>
        <time>2010-01-01T07:24:42Z</time>
      </trkpt>
      <trkpt lat="45.21592" lon="5.59185">
        <ele>1613</ele>
        <time>2010-01-01T07:24:45Z</time>
      </trkpt>
      <trkpt lat="45.21577" lon="5.59167">
        <ele>1613</ele>
        <time>2010-01-01T07:24:48Z</time>
      </trkpt>
      <trkpt lat="45.21571" lon="5.59161">
        <ele>1613</ele>
        <time>2010-01-01T07:24:55Z</time>
      </trkpt>
      <trkpt lat="45.21565" lon="5.59158">
        <ele>1614</ele>
        <time>2010-01-01T07:25:05Z</time>
      </trkpt>
      <trkpt lat="45.21563" lon="5.59158">
        <ele>1614</ele>
        <time>2010-01-01T07:25:11Z</time>
      </trkpt>
      <trkpt lat="45.21548" lon="5.5916">
        <ele>1615</ele>
        <time>2010-01-01T07:25:22Z</time>
      </trkpt>
      <trkpt lat="45.21542" lon="5.59159">
        <ele>1616</ele>
        <time>2010-01-01T07:25:28Z</time>
      </trkpt>
      <trkpt lat="45.21513" lon="5.5915">
        <ele>1620</ele>
        <time>2010-01-01T07:25:33Z</time>
      </trkpt>
      <trkpt lat="45.21508" lon="5.59151">
        <ele>1621</ele>
        <time>2010-01-01T07:25:37Z</time>
      </trkpt>
      <trkpt lat="45.21504" lon="5.59152">
        <ele>1622</ele>
        <time>2010-01-01T07:25:40Z</time>
      </trkpt>
      <trkpt lat="45.215" lon="5.59155">
        <ele>1622</ele>
        <time>2010-01-01T07:25:42Z</time>
      </trkpt>
      <trkpt lat="45.21494" lon="5.59164">
        <ele>1622</ele>
        <time>2010-01-01T07:25:49Z</time>
      </trkpt>
      <trkpt lat="45.21491" lon="5.59165">
        <ele>1623</ele>
        <time>2010-01-01T07:25:52Z</time>
      </trkpt>
      <trkpt lat="45.21484" lon="5.59161">
        <ele>1624</ele>
        <time>2010-01-01T07:25:54Z</time>
      </trkpt>
      <trkpt lat="45.21465" lon="5.59143">
        <ele>1626</ele>
        <time>2010-01-01T07:25:57Z</time>
      </trkpt>
      <trkpt lat="45.21462" lon="5.59138">
        <ele>1626</ele>
        <time>2010-01-01T07:25:59Z</time>
      </trkpt>
      <trkpt lat="45.21448" lon="5.5912">
        <ele>1627</ele>
        <time>2010-01-01T07:26:01Z</time>
      </trkpt>
      <trkpt lat="45.21435" lon="5.59097">
        <ele>1627</ele>
        <time>2010-01-01T07:26:06Z</time>
      </trkpt>
      <trkpt lat="45.21426" lon="5.59088">
        <ele>1627</ele>
        <time>2010-01-01T07:26:10Z</time>
      </trkpt>
      <trkpt lat="45.21419" lon="5.59081">
        <ele>1627</ele>
        <time>2010-01-01T07:26:20Z</time>
      </trkpt>
      <trkpt lat="45.21409" lon="5.59074">
        <ele>1626</ele>
        <time>2010-01-01T07:26:28Z</time>
      </trkpt>
      <trkpt lat="45.21396" lon="5.59069">
        <ele>1627</ele>
        <time>2010-01-01T07:26:31Z</time>
      </trkpt>
      <trkpt lat="45.21356" lon="5.59033">
        <ele>1628</ele>
        <time>2010-01-01T07:26:34Z</time>
      </trkpt>
      <trkpt lat="45.2135" lon="5.59026">
        <ele>1628</ele>
        <time>2010-01-01T07:26:37Z</time>
      </trkpt>
      <trkpt lat="45.21337" lon="5.59013">
        <ele>1630</ele>
        <time>2010-01-01T07:26:41Z</time>
      </trkpt>
      <trkpt lat="45.21329" lon="5.59004">
        <ele>1632</ele>
        <time>2010-01-01T07:26:46Z</time>
      </trkpt>
      <trkpt lat="45.21321" lon="5.58999">
        <ele>1633</ele>
        <time>2010-01-01T07:26:46Z</time>
      </trkpt>
      <trkpt lat="45.21316" lon="5.58995">
        <ele>1634</ele>
        <time>2010-01-01T07:26:47Z</time>
      </trkpt>
      <trkpt lat="45.21304" lon="5.59001">
        <ele>1635</ele>
        <time>2010-01-01T07:27:01Z</time>
      </trkpt>
      <trkpt lat="45.213" lon="5.59002">
        <ele>1635</ele>
        <time>2010-01-01T07:27:14Z</time>
      </trkpt>
      <trkpt lat="45.21289" lon="5.59008">
        <ele>1635</ele>
        <time>2010-01-01T07:27:16Z</time>
      </trkpt>
      <trkpt lat="45.2127" lon="5.59018">
        <ele>1636</ele>
        <time>2010-01-01T07:27:17Z</time>
      </trkpt>
      <trkpt lat="45.21256" lon="5.59021">
        <ele>1637</ele>
        <time>2010-01-01T07:27:23Z</time>
      </trkpt>
      <trkpt lat="45.21237" lon="5.59028">
        <ele>1637</ele>
        <time>2010-01-01T07:27:28Z</time>
      </trkpt>
      <trkpt lat="45.21223" lon="5.5903">
        <ele>1638</ele>
        <time>2010-01-01T07:27:33Z</time>
      </trkpt>
      <trkpt lat="45.21207" lon="5.5903">
        <ele>1640</ele>
        <time>2010-01-01T07:27:37Z</time>
      </trkpt>
      <trkpt lat="45.21179" lon="5.59026">
        <ele>1640</ele>
        <time>2010-01-01T07:27:39Z</time>
      </trkpt>
      <trkpt lat="45.2116" lon="5.5902">
        <ele>1638</ele>
        <time>2010-01-01T07:27:42Z</time>
      </trkpt>
      <trkpt lat="45.21141" lon="5.59011">
        <ele>1636</ele>
        <time>2010-01-01T07:27:44Z</time>
      </trkpt>
      <trkpt lat="45.21126" lon="5.58997">
        <ele>1635</ele>
        <time>2010-01-01T07:27:47Z</time>
      </trkpt>
      <trkpt lat="45.21121" lon="5.58988">
        <ele>1634</ele>
        <time>2010-01-01T07:27:50Z</time>
      </trkpt>
      <trkpt lat="45.21118" lon="5.58974">
        <ele>1634</ele>
        <time>2010-01-01T07:28:08Z</time>
      </trkpt>
      <trkpt lat="45.21117" lon="5.58964">
        <ele>1634</ele>
        <time>2010-01-01T07:28:17Z</time>
      </trkpt>
      <trkpt lat="45.21116" lon="5.58958">
        <ele>1634</ele>
        <time>2010-01-01T07:28:29Z</time>
      </trkpt>
      <trkpt lat="45.21115" lon="5.58954">
        <ele>1635</ele>
        <time>2010-01-01T07:28:35Z</time>
      </trkpt>
      <trkpt lat="45.21112" lon="5.58952">
        <ele>1634</ele>
        <time>2010-01-01T07:28:49Z</time>
      </trkpt>
      <trkpt lat="45.21108" lon="5.58952">
        <ele>1633</ele>
        <time>2010-01-01T07:29:03Z</time>
      </trkpt>
      <trkpt lat="45.21102" lon="5.58955">
        <ele>1632</ele>
        <time>2010-01-01T07:29:06Z</time>
      </trkpt>
      <trkpt lat="45.21097" lon="5.5896">
        <ele>1631</ele>
        <time>2010-01-01T07:29:09Z</time>
      </trkpt>
      <trkpt lat="45.21087" lon="5.58971">
        <ele>1627</ele>
        <time>2010-01-01T07:29:15Z</time>
      </trkpt>
      <trkpt lat="45.21087" lon="5.58972">
        <ele>1627</ele>
        <time>2010-01-01T07:29:17Z</time>
      </trkpt>
      <trkpt lat="45.21083" lon="5.58979">
        <ele>1627</ele>
        <time>2010-01-01T07:29:23Z</time>
      </trkpt>
      <trkpt lat="45.21079" lon="5.58994">
        <ele>1628</ele>
        <time>2010-01-01T07:29:27Z</time>
      </trkpt>
      <trkpt lat="45.21075" lon="5.59005">
        <ele>1629</ele>
        <time>2010-01-01T07:29:33Z</time>
      </trkpt>
      <trkpt lat="45.21072" lon="5.59012">
        <ele>1629</ele>
        <time>2010-01-01T07:29:38Z</time>
      </trkpt>
      <trkpt lat="45.21069" lon="5.59018">
        <ele>1629</ele>
        <time>2010-01-01T07:29:45Z</time>
      </trkpt>
      <trkpt lat="45.21056" lon="5.59039">
        <ele>1629</ele>
        <time>2010-01-01T07:29:56Z</time>
      </trkpt>
      <trkpt lat="45.21044" lon="5.59055">
        <ele>1629</ele>
        <time>2010-01-01T07:29:59Z</time>
      </trkpt>
      <trkpt lat="45.21038" lon="5.5906">
        <ele>1628</ele>
        <time>2010-01-01T07:30:01Z</time>
      </trkpt>
      <trkpt lat="45.21031" lon="5.59062">
        <ele>1628</ele>
        <time>2010-01-01T07:30:08Z</time>
      </trkpt>
      <trkpt lat="45.21018" lon="5.59066">
        <ele>1627</ele>
        <time>2010-01-01T07:30:15Z</time>
      </trkpt>
      <trkpt lat="45.21013" lon="5.59071">
        <ele>1627</ele>
        <time>2010-01-01T07:30:27Z</time>
      </trkpt>
      <trkpt lat="45.21009" lon="5.59077">
        <ele>1627</ele>
        <time>2010-01-01T07:30:33Z</time>
      </trkpt>
      <trkpt lat="45.21007" lon="5.59083">
        <ele>1628</ele>
        <time>2010-01-01T07:30:39Z</time>
      </trkpt>
      <trkpt lat="45.21005" lon="5.5909">
        <ele>1628</ele>
        <time>2010-01-01T07:30:50Z</time>
      </trkpt>
      <trkpt lat="45.21003" lon="5.59108">
        <ele>1628</ele>
        <time>2010-01-01T07:30:58Z</time>
      </trkpt>
      <trkpt lat="45.21" lon="5.59129">
        <ele>1628</ele>
        <time>2010-01-01T07:31:08Z</time>
      </trkpt>
      <trkpt lat="45.21" lon="5.59133">
        <ele>1628</ele>
        <time>2010-01-01T07:31:13Z</time>
      </trkpt>
      <trkpt lat="45.20999" lon="5.59151">
        <ele>1627</ele>
        <time>2010-01-01T07:31:18Z</time>
      </trkpt>
      <trkpt lat="45.20997" lon="5.59166">
        <ele>1625</ele>
        <time>2010-01-01T07:31:30Z</time>
      </trkpt>
      <trkpt lat="45.20993" lon="5.59176">
        <ele>1624</ele>
        <time>2010-01-01T07:31:36Z</time>
      </trkpt>
      <trkpt lat="45.20987" lon="5.59181">
        <ele>1624</ele>
        <time>2010-01-01T07:31:40Z</time>
      </trkpt>
      <trkpt lat="45.20979" lon="5.59182">
        <ele>1623</ele>
        <time>2010-01-01T07:31:46Z</time>
      </trkpt>
      <trkpt lat="45.2097" lon="5.59177">
        <ele>1623</ele>
        <time>2010-01-01T07:31:48Z</time>
      </trkpt>
      <trkpt lat="45.20948" lon="5.59183">
        <ele>1622</ele>
        <time>2010-01-01T07:31:52Z</time>
      </trkpt>
      <trkpt lat="45.2094" lon="5.5918">
        <ele>1622</ele>
        <time>2010-01-01T07:31:53Z</time>
      </trkpt>
      <trkpt lat="45.20935" lon="5.59175">
        <ele>1623</ele>
        <time>2010-01-01T07:31:54Z</time>
      </trkpt>
      <trkpt lat="45.20927" lon="5.59165">
        <ele>1624</ele>
        <time>2010-01-01T07:31:59Z</time>
      </trkpt>
      <trkpt lat="45.20904" lon="5.59132">
        <ele>1625</ele>
        <time>2010-01-01T07:32:03Z</time>
      </trkpt>
      <trkpt lat="45.20899" lon="5.59128">
        <ele>1625</ele>
        <time>2010-01-01T07:32:06Z</time>
      </trkpt>
      <trkpt lat="45.20878" lon="5.59119">
        <ele>1624</ele>
        <time>2010-01-01T07:32:08Z</time>
      </trkpt>
      <trkpt lat="45.20871" lon="5.59118">
        <ele>1623</ele>
        <time>2010-01-01T07:32:10Z</time>
      </trkpt>
      <trkpt lat="45.20861" lon="5.5911">
        <ele>1623</ele>
        <time>2010-01-01T07:32:16Z</time>
      </trkpt>
      <trkpt lat="45.20856" lon="5.59109">
        <ele>1623</ele>
        <time>2010-01-01T07:32:17Z</time>
      </trkpt>
      <trkpt lat="45.2085" lon="5.5911">
        <ele>1623</ele>
        <time>2010-01-01T07:32:26Z</time>
      </trkpt>
      <trkpt lat="45.20842" lon="5.59109">
        <ele>1623</ele>
        <time>2010-01-01T07:32:31Z</time>
      </trkpt>
      <trkpt lat="45.20823" lon="5.59111">
        <ele>1623</ele>
        <time>2010-01-01T07:32:39Z</time>
      </trkpt>
      <trkpt lat="45.208" lon="5.59123">
        <ele>1625</ele>
        <time>2010-01-01T07:32:44Z</time>
      </trkpt>
      <trkpt lat="45.20787" lon="5.59132">
        <ele>1625</ele>
        <time>2010-01-01T07:32:49Z</time>
      </trkpt>
      <trkpt lat="45.20762" lon="5.59146">
        <ele>1625</ele>
        <time>2010-01-01T07:32:51Z</time>
      </trkpt>
      <trkpt lat="45.20748" lon="5.59154">
        <ele>1624</ele>
        <time>2010-01-01T07:32:58Z</time>
      </trkpt>
      <trkpt lat="45.20737" lon="5.59161">
        <ele>1623</ele>
        <time>2010-01-01T07:32:59Z</time>
      </trkpt>
      <trkpt lat="45.20728" lon="5.5917">
        <ele>1622</ele>
        <time>2010-01-01T07:33:09Z</time>
      </trkpt>
      <trkpt lat="45.20723" lon="5.59176">
        <ele>1621</ele>
        <time>2010-01-01T07:33:16Z</time>
      </trkpt>
      <trkpt lat="45.2072" lon="5.59183">
        <ele>1621</ele>
        <time>2010-01-01T07:33:18Z</time>
      </trkpt>
      <trkpt lat="45.20712" lon="5.59205">
        <ele>1620</ele>
        <time>2010-01-01T07:33:25Z</time>
      </trkpt>
      <trkpt lat="45.20708" lon="5.59213">
        <ele>1620</ele>
        <time>2010-01-01T07:33:28Z</time>
      </trkpt>
      <trkpt lat="45.20703" lon="5.59218">
        <ele>1620</ele>
        <time>2010-01-01T07:33:32Z</time>
      </trkpt>
      <trkpt lat="45.20696" lon="5.59221">
        <ele>1620</ele>
        <time>2010-01-01T07:33:41Z</time>
      </trkpt>
      <trkpt lat="45.20692" lon="5.59222">
        <ele>1620</ele>
        <time>2010-01-01T07:33:46Z</time>
      </trkpt>
      <trkpt lat="45.20685" lon="5.59222">
        <ele>1621</ele>
        <time>2010-01-01T07:33:55Z</time>
      </trkpt>
      <trkpt lat="45.20675" lon="5.5922">
        <ele>1622</ele>
        <time>2010-01-01T07:34:01Z</time>
      </trkpt>
      <trkpt lat="45.20663" lon="5.59217">
        <ele>1623</ele>
        <time>2010-01-01T07:34:07Z</time>
      </trkpt>
      <trkpt lat="45.20639" lon="5.59215">
        <ele>1626</ele>
        <time>2010-01-01T07:34:13Z</time>
      </trkpt>
      <trkpt lat="45.20619" lon="5.59216">
        <ele>1627</ele>
        <time>2010-01-01T07:34:15Z</time>
      </trkpt>
      <trkpt lat="45.20611" lon="5.59219">
        <ele>1628</ele>
        <time>2010-01-01T07:34:32Z</time>
      </trkpt>
      <trkpt lat="45.20604" lon="5.59222">
        <ele>1628</ele>
        <time>2010-01-01T07:34:37Z</time>
      </trkpt>
      <trkpt lat="45.20597" lon="5.59226">
        <ele>1628</ele>
        <time>2010-01-01T07:34:39Z</time>
      </trkpt>
      <trkpt lat="45.2059" lon="5.59232">
        <ele>1628</ele>
        <time>2010-01-01T07:34:43Z</time>
      </trkpt>
      <trkpt lat="45.20578" lon="5.59242">
        <ele>1627</ele>
        <time>2010-01-01T07:34:49Z</time>
      </trkpt>
      <trkpt lat="45.20578" lon="5.59241">
        <ele>1627</ele>
        <time>2010-01-01T07:34:56Z</time>
      </trkpt>
      <trkpt lat="45.20578" lon="5.59242">
        <ele>1627</ele>
        <time>2010-01-01T07:34:59Z</time>
      </trkpt>
      <trkpt lat="45.20545" lon="5.59263">
        <ele>1626</ele>
        <time>2010-01-01T07:35:01Z</time>
      </trkpt>
      <trkpt lat="45.20516" lon="5.5928">
        <ele>1627</ele>
        <time>2010-01-01T07:35:08Z</time>
      </trkpt>
      <trkpt lat="45.20511" lon="5.59285">
        <ele>1627</ele>
        <time>2010-01-01T07:35:13Z</time>
      </trkpt>
      <trkpt lat="45.20509" lon="5.59288">
        <ele>1627</ele>
        <time>2010-01-01T07:35:18Z</time>
      </trkpt>
      <trkpt lat="45.20497" lon="5.59296">
        <ele>1628</ele>
        <time>2010-01-01T07:35:23Z</time>
      </trkpt>
      <trkpt lat="45.20486" lon="5.59304">
        <ele>1628</ele>
        <time>2010-01-01T07:35:27Z</time>
      </trkpt>
      <trkpt lat="45.20472" lon="5.5931">
        <ele>1628</ele>
        <time>2010-01-01T07:35:36Z</time>
      </trkpt>
      <trkpt lat="45.20463" lon="5.59311">
        <ele>1628</ele>
        <time>2010-01-01T07:35:40Z</time>
      </trkpt>
      <trkpt lat="45.20458" lon="5.5931">
        <ele>1628</ele>
        <time>2010-01-01T07:35:46Z</time>
      </trkpt>
      <trkpt lat="45.20451" lon="5.59307">
        <ele>1628</ele>
        <time>2010-01-01T07:35:53Z</time>
      </trkpt>
      <trkpt lat="45.20446" lon="5.59307">
        <ele>1628</ele>
        <time>2010-01-01T07:35:59Z</time>
      </trkpt>
      <trkpt lat="45.20439" lon="5.59308">
        <ele>1628</ele>
        <time>2010-01-01T07:36:03Z</time>
      </trkpt>
      <trkpt lat="45.20432" lon="5.59309">
        <ele>1628</ele>
        <time>2010-01-01T07:36:07Z</time>
      </trkpt>
      <trkpt lat="45.20385" lon="5.59306">
        <ele>1627</ele>
        <time>2010-01-01T07:36:09Z</time>
      </trkpt>
      <trkpt lat="45.20364" lon="5.59296">
        <ele>1628</ele>
        <time>2010-01-01T07:36:21Z</time>
      </trkpt>
      <trkpt lat="45.20336" lon="5.59286">
        <ele>1629</ele>
        <time>2010-01-01T07:36:37Z</time>
      </trkpt>
      <trkpt lat="45.20322" lon="5.59284">
        <ele>1629</ele>
        <time>2010-01-01T07:36:43Z</time>
      </trkpt>
      <trkpt lat="45.20287" lon="5.59275">
        <ele>1631</ele>
        <time>2010-01-01T07:36:50Z</time>
      </trkpt>
      <trkpt lat="45.20251" lon="5.59265">
        <ele>1634</ele>
        <time>2010-01-01T07:36:51Z</time>
      </trkpt>
      <trkpt lat="45.20244" lon="5.59261">
        <ele>1635</ele>
        <time>2010-01-01T07:36:53Z</time>
      </trkpt>
      <trkpt lat="45.20238" lon="5.59257">
        <ele>1636</ele>
        <time>2010-01-01T07:36:55Z</time>
      </trkpt>
      <trkpt lat="45.20225" lon="5.59251">
        <ele>1637</ele>
        <time>2010-01-01T07:37:02Z</time>
      </trkpt>
      <trkpt lat="45.20218" lon="5.59249">
        <ele>1638</ele>
        <time>2010-01-01T07:37:07Z</time>
      </trkpt>
      <trkpt lat="45.20205" lon="5.59247">
        <ele>1638</ele>
        <time>2010-01-01T07:37:10Z</time>
      </trkpt>
      <trkpt lat="45.20195" lon="5.5924">
        <ele>1639</ele>
        <time>2010-01-01T07:37:14Z</time>
      </trkpt>
      <trkpt lat="45.20181" lon="5.59238">
        <ele>1638</ele>
        <time>2010-01-01T07:37:15Z</time>
      </trkpt>
      <trkpt lat="45.20168" lon="5.59236">
        <ele>1637</ele>
        <time>2010-01-01T07:37:21Z</time>
      </trkpt>
      <trkpt lat="45.20151" lon="5.59231">
        <ele>1634</ele>
        <time>2010-01-01T07:37:25Z</time>
      </trkpt>
      <trkpt lat="45.20124" lon="5.59227">
        <ele>1631</ele>
        <time>2010-01-01T07:37:26Z</time>
      </trkpt>
      <trkpt lat="45.20117" lon="5.59223">
        <ele>1631</ele>
        <time>2010-01-01T07:37:30Z</time>
      </trkpt>
      <trkpt lat="45.20111" lon="5.59222">
        <ele>1631</ele>
        <time>2010-01-01T07:37:38Z</time>
      </trkpt>
      <trkpt lat="45.20095" lon="5.59223">
        <ele>1631</ele>
        <time>2010-01-01T07:37:43Z</time>
      </trkpt>
      <trkpt lat="45.20078" lon="5.59222">
        <ele>1632</ele>
        <time>2010-01-01T07:37:46Z</time>
      </trkpt>
      <trkpt lat="45.20048" lon="5.59211">
        <ele>1633</ele>
        <time>2010-01-01T07:37:50Z</time>
      </trkpt>
      <trkpt lat="45.20034" lon="5.59208">
        <ele>1631</ele>
        <time>2010-01-01T07:37:57Z</time>
      </trkpt>
      <trkpt lat="45.20019" lon="5.59202">
        <ele>1630</ele>
        <time>2010-01-01T07:38:07Z</time>
      </trkpt>
      <trkpt lat="45.19992" lon="5.59195">
        <ele>1630</ele>
        <time>2010-01-01T07:38:15Z</time>
      </trkpt>
      <trkpt lat="45.19971" lon="5.59193">
        <ele>1632</ele>
        <time>2010-01-01T07:38:18Z</time>
      </trkpt>
      <trkpt lat="45.19946" lon="5.59193">
        <ele>1632</ele>
        <time>2010-01-01T07:38:24Z</time>
      </trkpt>
      <trkpt lat="45.19933" lon="5.59192">
        <ele>1632</ele>
        <time>2010-01-01T07:38:30Z</time>
      </trkpt>
      <trkpt lat="45.19921" lon="5.5919">
        <ele>1632</ele>
        <time>2010-01-01T07:38:31Z</time>
      </trkpt>
      <trkpt lat="45.19893" lon="5.59183">
        <ele>1630</ele>
        <time>2010-01-01T07:38:32Z</time>
      </trkpt>
      <trkpt lat="45.19877" lon="5.59183">
        <ele>1631</ele>
        <time>2010-01-01T07:38:35Z</time>
      </trkpt>
      <trkpt lat="45.19867" lon="5.59185">
        <ele>1632</ele>
        <time>2010-01-01T07:38:38Z</time>
      </trkpt>
      <trkpt lat="45.19853" lon="5.59191">
        <ele>1634</ele>
        <time>2010-01-01T07:38:41Z</time>
      </trkpt>
      <trkpt lat="45.19847" lon="5.59193">
        <ele>1634</ele>
        <time>2010-01-01T07:38:52Z</time>
      </trkpt>
      <trkpt lat="45.19837" lon="5.59195">
        <ele>1636</ele>
        <time>2010-01-01T07:38:55Z</time>
      </trkpt>
      <trkpt lat="45.19836" lon="5.59194">
        <ele>1636</ele>
        <time>2010-01-01T07:38:57Z</time>
      </trkpt>
      <trkpt lat="45.19833" lon="5.59191">
        <ele>1636</ele>
        <time>2010-01-01T07:39:09Z</time>
      </trkpt>
      <trkpt lat="45.19822" lon="5.59187">
        <ele>1636</ele>
        <time>2010-01-01T07:39:15Z</time>
      </trkpt>
      <trkpt lat="45.19811" lon="5.59184">
        <ele>1635</ele>
        <time>2010-01-01T07:39:22Z</time>
      </trkpt>
      <trkpt lat="45.19804" lon="5.59183">
        <ele>1635</ele>
        <time>2010-01-01T07:39:25Z</time>
      </trkpt>
      <trkpt lat="45.198" lon="5.59183">
        <ele>1635</ele>
        <time>2010-01-01T07:39:26Z</time>
      </trkpt>
      <trkpt lat="45.19794" lon="5.59184">
        <ele>1635</ele>
        <time>2010-01-01T07:39:31Z</time>
      </trkpt>
      <trkpt lat="45.19783" lon="5.59196">
        <ele>1635</ele>
        <time>2010-01-01T07:39:39Z</time>
      </trkpt>
      <trkpt lat="45.1978" lon="5.59194">
        <ele>1635</ele>
        <time>2010-01-01T07:39:56Z</time>
      </trkpt>
      <trkpt lat="45.19758" lon="5.59194">
        <ele>1638</ele>
        <time>2010-01-01T07:39:57Z</time>
      </trkpt>
      <trkpt lat="45.19746" lon="5.59192">
        <ele>1639</ele>
        <time>2010-01-01T07:39:59Z</time>
      </trkpt>
      <trkpt lat="45.19726" lon="5.59187">
        <ele>1641</ele>
        <time>2010-01-01T07:40:03Z</time>
      </trkpt>
      <trkpt lat="45.19714" lon="5.59181">
        <ele>1644</ele>
        <time>2010-01-01T07:40:06Z</time>
      </trkpt>
      <trkpt lat="45.19701" lon="5.59178">
        <ele>1649</ele>
        <time>2010-01-01T07:40:06Z</time>
      </trkpt>
      <trkpt lat="45.19697" lon="5.59177">
        <ele>1650</ele>
        <time>2010-01-01T07:40:11Z</time>
      </trkpt>
      <trkpt lat="45.19679" lon="5.59172">
        <ele>1653</ele>
        <time>2010-01-01T07:40:14Z</time>
      </trkpt>
      <trkpt lat="45.19677" lon="5.59172">
        <ele>1653</ele>
        <time>2010-01-01T07:40:19Z</time>
      </trkpt>
      <trkpt lat="45.19653" lon="5.59168">
        <ele>1654</ele>
        <time>2010-01-01T07:40:24Z</time>
      </trkpt>
      <trkpt lat="45.19634" lon="5.59167">
        <ele>1654</ele>
        <time>2010-01-01T07:40:37Z</time>
      </trkpt>
      <trkpt lat="45.19629" lon="5.59167">
        <ele>1655</ele>
        <time>2010-01-01T07:40:42Z</time>
      </trkpt>
      <trkpt lat="45.19613" lon="5.59169">
        <ele>1658</ele>
        <time>2010-01-01T07:40:44Z</time>
      </trkpt>
      <trkpt lat="45.19604" lon="5.5917">
        <ele>1659</ele>
        <time>2010-01-01T07:40:47Z</time>
      </trkpt>
      <trkpt lat="45.19596" lon="5.59172">
        <ele>1659</ele>
        <time>2010-01-01T07:40:49Z</time>
      </trkpt>
      <trkpt lat="45.19573" lon="5.59184">
        <ele>1659</ele>
        <time>2010-01-01T07:40:52Z</time>
      </trkpt>
      <trkpt lat="45.19563" lon="5.59187">
        <ele>1659</ele>
        <time>2010-01-01T07:40:57Z</time>
      </trkpt>
      <trkpt lat="45.1954" lon="5.59189">
        <ele>1659</ele>
        <time>2010-01-01T07:40:58Z</time>
      </trkpt>
      <trkpt lat="45.19525" lon="5.59193">
        <ele>1660</ele>
        <time>2010-01-01T07:41:01Z</time>
      </trkpt>
      <trkpt lat="45.19511" lon="5.59196">
        <ele>1661</ele>
        <time>2010-01-01T07:41:02Z</time>
      </trkpt>
      <trkpt lat="45.19495" lon="5.59195">
        <ele>1661</ele>
        <time>2010-01-01T07:41:03Z</time>
      </trkpt>
      <trkpt lat="45.1949" lon="5.59198">
        <ele>1661</ele>
        <time>2010-01-01T07:41:05Z</time>
      </trkpt>
      <trkpt lat="45.19454" lon="5.59226">
        <ele>1661</ele>
        <time>2010-01-01T07:41:11Z</time>
      </trkpt>
      <trkpt lat="45.19442" lon="5.59234">
        <ele>1660</ele>
        <time>2010-01-01T07:41:16Z</time>
      </trkpt>
      <trkpt lat="45.19438" lon="5.59239">
        <ele>1660</ele>
        <time>2010-01-01T07:41:24Z</time>
      </trkpt>
      <trkpt lat="45.19429" lon="5.59243">
        <ele>1659</ele>
        <time>2010-01-01T07:41:27Z</time>
      </trkpt>
      <trkpt lat="45.19414" lon="5.59244">
        <ele>1657</ele>
        <time>2010-01-01T07:41:34Z</time>
      </trkpt>
      <trkpt lat="45.19396" lon="5.59247">
        <ele>1653</ele>
        <time>2010-01-01T07:41:37Z</time>
      </trkpt>
      <trkpt lat="45.1939" lon="5.5925">
        <ele>1652</ele>
        <time>2010-01-01T07:41:39Z</time>
      </trkpt>
      <trkpt lat="45.19384" lon="5.59251">
        <ele>1651</ele>
        <time>2010-01-01T07:41:39Z</time>
      </trkpt>
      <trkpt lat="45.19367" lon="5.59246">
        <ele>1650</ele>
        <time>2010-01-01T07:41:41Z</time>
      </trkpt>
      <trkpt lat="45.19355" lon="5.59244">
        <ele>1649</ele>
        <time>2010-01-01T07:41:44Z</time>
      </trkpt>
      <trkpt lat="45.19342" lon="5.59242">
        <ele>1648</ele>
        <time>2010-01-01T07:41:47Z</time>
      </trkpt>
      <trkpt lat="45.19329" lon="5.5924">
        <ele>1647</ele>
        <time>2010-01-01T07:41:50Z</time>
      </trkpt>
      <trkpt lat="45.19321" lon="5.59239">
        <ele>1647</ele>
        <time>2010-01-01T07:41:54Z</time>
      </trkpt>
      <trkpt lat="45.19298" lon="5.59228">
        <ele>1647</ele>
        <time>2010-01-01T07:41:57Z</time>
      </trkpt>
      <trkpt lat="45.19289" lon="5.59226">
        <ele>1647</ele>
        <time>2010-01-01T07:41:59Z</time>
      </trkpt>
      <trkpt lat="45.19274" lon="5.59225">
        <ele>1648</ele>
        <time>2010-01-01T07:42:01Z</time>
      </trkpt>
      <trkpt lat="45.19256" lon="5.59218">
        <ele>1648</ele>
        <time>2010-01-01T07:42:02Z</time>
      </trkpt>
      <trkpt lat="45.19242" lon="5.59215">
        <ele>1647</ele>
        <time>2010-01-01T07:42:12Z</time>
      </trkpt>
      <trkpt lat="45.19232" lon="5.59214">
        <ele>1647</ele>
        <time>2010-01-01T07:42:18Z</time>
      </trkpt>
      <trkpt lat="45.19222" lon="5.5921">
        <ele>1647</ele>
        <time>2010-01-01T07:42:21Z</time>
      </trkpt>
      <trkpt lat="45.19217" lon="5.5921">
        <ele>1647</ele>
        <time>2010-01-01T07:42:26Z</time>
      </trkpt>
      <trkpt lat="45.19188" lon="5.59199">
        <ele>1651</ele>
        <time>2010-01-01T07:42:28Z</time>
      </trkpt>
      <trkpt lat="45.1915" lon="5.5919">
        <ele>1660</ele>
        <time>2010-01-01T07:42:30Z</time>
      </trkpt>
      <trkpt lat="45.19135" lon="5.59185">
        <ele>1664</ele>
        <time>2010-01-01T07:42:32Z</time>
      </trkpt>
      <trkpt lat="45.19117" lon="5.59177">
        <ele>1667</ele>
        <time>2010-01-01T07:42:35Z</time>
      </trkpt>
      <trkpt lat="45.19116" lon="5.59176">
        <ele>1668</ele>
        <time>2010-01-01T07:42:38Z</time>
      </trkpt>
      <trkpt lat="45.19111" lon="5.5917">
        <ele>1669</ele>
        <time>2010-01-01T07:42:43Z</time>
      </trkpt>
      <trkpt lat="45.19108" lon="5.59168">
        <ele>1670</ele>
        <time>2010-01-01T07:42:53Z</time>
      </trkpt>
      <trkpt lat="45.19089" lon="5.59167">
        <ele>1673</ele>
        <time>2010-01-01T07:42:55Z</time>
      </trkpt>
      <trkpt lat="45.19079" lon="5.59163">
        <ele>1673</ele>
        <time>2010-01-01T07:42:59Z</time>
      </trkpt>
      <trkpt lat="45.19071" lon="5.59157">
        <ele>1674</ele>
        <time>2010-01-01T07:43:01Z</time>
      </trkpt>
      <trkpt lat="45.19063" lon="5.59153">
        <ele>1674</ele>
        <time>2010-01-01T07:43:01Z</time>
      </trkpt>
      <trkpt lat="45.19059" lon="5.59152">
        <ele>1674</ele>
        <time>2010-01-01T07:43:04Z</time>
      </trkpt>
      <trkpt lat="45.19045" lon="5.59151">
        <ele>1675</ele>
        <time>2010-01-01T07:43:05Z</time>
      </trkpt>
      <trkpt lat="45.19036" lon="5.59148">
        <ele>1677</ele>
        <time>2010-01-01T07:43:11Z</time>
      </trkpt>
      <trkpt lat="45.19033" lon="5.59144">
        <ele>1678</ele>
        <time>2010-01-01T07:43:13Z</time>
      </trkpt>
      <trkpt lat="45.19024" lon="5.5914">
        <ele>1681</ele>
        <time>2010-01-01T07:43:17Z</time>
      </trkpt>
      <trkpt lat="45.19005" lon="5.59137">
        <ele>1684</ele>
        <time>2010-01-01T07:43:20Z</time>
      </trkpt>
      <trkpt lat="45.18991" lon="5.59139">
        <ele>1685</ele>
        <time>2010-01-01T07:43:30Z</time>
      </trkpt>
      <trkpt lat="45.18983" lon="5.5914">
        <ele>1685</ele>
        <time>2010-01-01T07:43:42Z</time>
      </trkpt>
      <trkpt lat="45.18974" lon="5.59138">
        <ele>1686</ele>
        <time>2010-01-01T07:43:45Z</time>
      </trkpt>
      <trkpt lat="45.18958" lon="5.59137">
        <ele>1685</ele>
        <time>2010-01-01T07:43:48Z</time>
      </trkpt>
      <trkpt lat="45.18931" lon="5.59137">
        <ele>1687</ele>
        <time>2010-01-01T07:43:53Z</time>
      </trkpt>
      <trkpt lat="45.18911" lon="5.59142">
        <ele>1689</ele>
        <time>2010-01-01T07:43:56Z</time>
      </trkpt>
      <trkpt lat="45.18906" lon="5.59144">
        <ele>1690</ele>
        <time>2010-01-01T07:43:58Z</time>
      </trkpt>
      <trkpt lat="45.18891" lon="5.59144">
        <ele>1693</ele>
        <time>2010-01-01T07:44:08Z</time>
      </trkpt>
      <trkpt lat="45.18874" lon="5.59146">
        <ele>1694</ele>
        <time>2010-01-01T07:44:16Z</time>
      </trkpt>
      <trkpt lat="45.18872" lon="5.59145">
        <ele>1694</ele>
        <time>2010-01-01T07:44:23Z</time>
      </trkpt>
      <trkpt lat="45.1887" lon="5.59144">
        <ele>1695</ele>
        <time>2010-01-01T07:44:28Z</time>
      </trkpt>
      <trkpt lat="45.18863" lon="5.59137">
        <ele>1697</ele>
        <time>2010-01-01T07:44:31Z</time>
      </trkpt>
      <trkpt lat="45.18857" lon="5.59136">
        <ele>1697</ele>
        <time>2010-01-01T07:44:37Z</time>
      </trkpt>
      <trkpt lat="45.18849" lon="5.5914">
        <ele>1695</ele>
        <time>2010-01-01T07:44:40Z</time>
      </trkpt>
      <trkpt lat="45.18822" lon="5.59149">
        <ele>1689</ele>
        <time>2010-01-01T07:44:43Z</time>
      </trkpt>
      <trkpt lat="45.18817" lon="5.59152">
        <ele>1689</ele>
        <time>2010-01-01T07:44:46Z</time>
      </trkpt>
      <trkpt lat="45.18813" lon="5.59156">
        <ele>1688</ele>
        <time>2010-01-01T07:44:53Z</time>
      </trkpt>
      <trkpt lat="45.1879" lon="5.59184">
        <ele>1690</ele>
        <time>2010-01-01T07:44:56Z</time>
      </trkpt>
      <trkpt lat="45.18775" lon="5.59192">
        <ele>1695</ele>
        <time>2010-01-01T07:44:59Z</time>
      </trkpt>
      <trkpt lat="45.18759" lon="5.59195">
        <ele>1700</ele>
        <time>2010-01-01T07:45:11Z</time>
      </trkpt>
      <trkpt lat="45.18751" lon="5.59198">
        <ele>1701</ele>
        <time>2010-01-01T07:45:14Z</time>
      </trkpt>
      <trkpt lat="45.18748" lon="5.59201">
        <ele>1701</ele>
        <time>2010-01-01T07:45:27Z</time>
      </trkpt>
      <trkpt lat="45.18739" lon="5.59212">
        <ele>1701</ele>
        <time>2010-01-01T07:45:32Z</time>
      </trkpt>
      <trkpt lat="45.18722" lon="5.59226">
        <ele>1701</ele>
        <time>2010-01-01T07:45:41Z</time>
      </trkpt>
      <trkpt lat="45.18688" lon="5.59264">
        <ele>1692</ele>
        <time>2010-01-01T07:45:44Z</time>
      </trkpt>
      <trkpt lat="45.18686" lon="5.59264">
        <ele>1692</ele>
        <time>2010-01-01T07:45:46Z</time>
      </trkpt>
      <trkpt lat="45.18682" lon="5.59263">
        <ele>1693</ele>
        <time>2010-01-01T07:45:52Z</time>
      </trkpt>
      <trkpt lat="45.18672" lon="5.59257">
        <ele>1696</ele>
        <time>2010-01-01T07:45:53Z</time>
      </trkpt>
      <trkpt lat="45.18665" lon="5.59255">
        <ele>1697</ele>
        <time>2010-01-01T07:45:54Z</time>
      </trkpt>
      <trkpt lat="45.18664" lon="5.59254">
        <ele>1698</ele>
        <time>2010-01-01T07:46:04Z</time>
      </trkpt>
      <trkpt lat="45.18653" lon="5.59247">
        <ele>1699</ele>
        <time>2010-01-01T07:46:07Z</time>
      </trkpt>
      <trkpt lat="45.18646" lon="5.59241">
        <ele>1700</ele>
        <time>2010-01-01T07:46:10Z</time>
      </trkpt>
      <trkpt lat="45.18638" lon="5.59232">
        <ele>1702</ele>
        <time>2010-01-01T07:46:12Z</time>
      </trkpt>
      <trkpt lat="45.18627" lon="5.59218">
        <ele>1705</ele>
        <time>2010-01-01T07:46:14Z</time>
      </trkpt>
      <trkpt lat="45.18607" lon="5.59184">
        <ele>1710</ele>
        <time>2010-01-01T07:46:16Z</time>
      </trkpt>
      <trkpt lat="45.18598" lon="5.59173">
        <ele>1710</ele>
        <time>2010-01-01T07:46:18Z</time>
      </trkpt>
      <trkpt lat="45.18593" lon="5.5917">
        <ele>1710</ele>
        <time>2010-01-01T07:46:20Z</time>
      </trkpt>
      <trkpt lat="45.18585" lon="5.59168">
        <ele>1708</ele>
        <time>2010-01-01T07:46:22Z</time>
      </trkpt>
      <trkpt lat="45.18581" lon="5.59166">
        <ele>1708</ele>
        <time>2010-01-01T07:46:25Z</time>
      </trkpt>
      <trkpt lat="45.18575" lon="5.59159">
        <ele>1706</ele>
        <time>2010-01-01T07:46:28Z</time>
      </trkpt>
      <trkpt lat="45.18568" lon="5.59146">
        <ele>1705</ele>
        <time>2010-01-01T07:46:30Z</time>
      </trkpt>
      <trkpt lat="45.18567" lon="5.59141">
        <ele>1706</ele>
        <time>2010-01-01T07:46:33Z</time>
      </trkpt>
      <trkpt lat="45.1857" lon="5.59132">
        <ele>1709</ele>
        <time>2010-01-01T07:46:35Z</time>
      </trkpt>
      <trkpt lat="45.1857" lon="5.59128">
        <ele>1709</ele>
        <time>2010-01-01T07:46:37Z</time>
      </trkpt>
      <trkpt lat="45.18568" lon="5.59124">
        <ele>1710</ele>
        <time>2010-01-01T07:46:39Z</time>
      </trkpt>
      <trkpt lat="45.18564" lon="5.5912">
        <ele>1709</ele>
        <time>2010-01-01T07:46:40Z</time>
      </trkpt>
      <trkpt lat="45.1855" lon="5.59111">
        <ele>1707</ele>
        <time>2010-01-01T07:46:42Z</time>
      </trkpt>
      <trkpt lat="45.18541" lon="5.59101">
        <ele>1705</ele>
        <time>2010-01-01T07:46:43Z</time>
      </trkpt>
      <trkpt lat="45.18527" lon="5.59079">
        <ele>1703</ele>
        <time>2010-01-01T07:46:45Z</time>
      </trkpt>
      <trkpt lat="45.18522" lon="5.59072">
        <ele>1702</ele>
        <time>2010-01-01T07:46:48Z</time>
      </trkpt>
      <trkpt lat="45.1851" lon="5.59057">
        <ele>1699</ele>
        <time>2010-01-01T07:46:50Z</time>
      </trkpt>
      <trkpt lat="45.18504" lon="5.59047">
        <ele>1698</ele>
        <time>2010-01-01T07:46:53Z</time>
      </trkpt>
      <trkpt lat="45.18502" lon="5.59044">
        <ele>1698</ele>
        <time>2010-01-01T07:46:56Z</time>
      </trkpt>
      <trkpt lat="45.185" lon="5.59043">
        <ele>1697</ele>
        <time>2010-01-01T07:46:58Z</time>
      </trkpt>
      <trkpt lat="45.18495" lon="5.59042">
        <ele>1696</ele>
        <time>2010-01-01T07:47:01Z</time>
      </trkpt>
      <trkpt lat="45.1849" lon="5.59038">
        <ele>1695</ele>
        <time>2010-01-01T07:47:04Z</time>
      </trkpt>
      <trkpt lat="45.18484" lon="5.5903">
        <ele>1695</ele>
        <time>2010-01-01T07:47:07Z</time>
      </trkpt>
      <trkpt lat="45.18481" lon="5.59019">
        <ele>1697</ele>
        <time>2010-01-01T07:47:10Z</time>
      </trkpt>
      <trkpt lat="45.18479" lon="5.59007">
        <ele>1699</ele>
        <time>2010-01-01T07:47:13Z</time>
      </trkpt>
      <trkpt lat="45.18476" lon="5.58996">
        <ele>1701</ele>
        <time>2010-01-01T07:47:16Z</time>
      </trkpt>
      <trkpt lat="45.18474" lon="5.58991">
        <ele>1701</ele>
        <time>2010-01-01T07:47:18Z</time>
      </trkpt>
      <trkpt lat="45.18471" lon="5.58985">
        <ele>1701</ele>
        <time>2010-01-01T07:47:20Z</time>
      </trkpt>
      <trkpt lat="45.18469" lon="5.58983">
        <ele>1700</ele>
        <time>2010-01-01T07:47:22Z</time>
      </trkpt>
      <trkpt lat="45.18449" lon="5.58961">
        <ele>1695</ele>
        <time>2010-01-01T07:47:24Z</time>
      </trkpt>
      <trkpt lat="45.18435" lon="5.58949">
        <ele>1690</ele>
        <time>2010-01-01T07:47:27Z</time>
      </trkpt>
      <trkpt lat="45.18431" lon="5.58941">
        <ele>1689</ele>
        <time>2010-01-01T07:47:29Z</time>
      </trkpt>
      <trkpt lat="45.18422" lon="5.58929">
        <ele>1687</ele>
        <time>2010-01-01T07:47:31Z</time>
      </trkpt>
      <trkpt lat="45.1842" lon="5.58924">
        <ele>1688</ele>
        <time>2010-01-01T07:47:33Z</time>
      </trkpt>
      <trkpt lat="45.18416" lon="5.58918">
        <ele>1688</ele>
        <time>2010-01-01T07:47:36Z</time>
      </trkpt>
      <trkpt lat="45.18412" lon="5.58915">
        <ele>1687</ele>
        <time>2010-01-01T07:47:38Z</time>
      </trkpt>
      <trkpt lat="45.18405" lon="5.58913">
        <ele>1684</ele>
        <time>2010-01-01T07:47:41Z</time>
      </trkpt>
      <trkpt lat="45.18399" lon="5.58908">
        <ele>1682</ele>
        <time>2010-01-01T07:47:43Z</time>
      </trkpt>
      <trkpt lat="45.18387" lon="5.58897">
        <ele>1680</ele>
        <time>2010-01-01T07:47:45Z</time>
      </trkpt>
      <trkpt lat="45.18371" lon="5.58873">
        <ele>1680</ele>
        <time>2010-01-01T07:47:48Z</time>
      </trkpt>
      <trkpt lat="45.18368" lon="5.58866">
        <ele>1680</ele>
        <time>2010-01-01T07:47:50Z</time>
      </trkpt>
      <trkpt lat="45.18363" lon="5.58854">
        <ele>1681</ele>
        <time>2010-01-01T07:47:52Z</time>
      </trkpt>
      <trkpt lat="45.18359" lon="5.58849">
        <ele>1681</ele>
        <time>2010-01-01T07:48:08Z</time>
      </trkpt>
      <trkpt lat="45.18358" lon="5.58848">
        <ele>1680</ele>
        <time>2010-01-01T07:48:10Z</time>
      </trkpt>
      <trkpt lat="45.18353" lon="5.58845">
        <ele>1680</ele>
        <time>2010-01-01T07:48:12Z</time>
      </trkpt>
      <trkpt lat="45.1835" lon="5.58842">
        <ele>1680</ele>
        <time>2010-01-01T07:48:14Z</time>
      </trkpt>
      <trkpt lat="45.18339" lon="5.58826">
        <ele>1679</ele>
        <time>2010-01-01T07:48:16Z</time>
      </trkpt>
      <trkpt lat="45.18335" lon="5.58822">
        <ele>1679</ele>
        <time>2010-01-01T07:48:18Z</time>
      </trkpt>
      <trkpt lat="45.18328" lon="5.58814">
        <ele>1678</ele>
        <time>2010-01-01T07:48:21Z</time>
      </trkpt>
      <trkpt lat="45.18321" lon="5.58809">
        <ele>1678</ele>
        <time>2010-01-01T07:48:25Z</time>
      </trkpt>
      <trkpt lat="45.18297" lon="5.58805">
        <ele>1673</ele>
        <time>2010-01-01T07:48:27Z</time>
      </trkpt>
      <trkpt lat="45.18267" lon="5.58791">
        <ele>1666</ele>
        <time>2010-01-01T07:48:29Z</time>
      </trkpt>
      <trkpt lat="45.18261" lon="5.58787">
        <ele>1665</ele>
        <time>2010-01-01T07:48:29Z</time>
      </trkpt>
      <trkpt lat="45.18256" lon="5.5878">
        <ele>1666</ele>
        <time>2010-01-01T07:48:32Z</time>
      </trkpt>
      <trkpt lat="45.18248" lon="5.58765">
        <ele>1666</ele>
        <time>2010-01-01T07:48:35Z</time>
      </trkpt>
      <trkpt lat="45.18243" lon="5.58759">
        <ele>1666</ele>
        <time>2010-01-01T07:48:36Z</time>
      </trkpt>
      <trkpt lat="45.18237" lon="5.58755">
        <ele>1666</ele>
        <time>2010-01-01T07:48:59Z</time>
      </trkpt>
      <trkpt lat="45.18215" lon="5.58748">
        <ele>1664</ele>
        <time>2010-01-01T07:49:01Z</time>
      </trkpt>
      <trkpt lat="45.18196" lon="5.58734">
        <ele>1665</ele>
        <time>2010-01-01T07:49:04Z</time>
      </trkpt>
      <trkpt lat="45.18182" lon="5.58723">
        <ele>1665</ele>
        <time>2010-01-01T07:49:07Z</time>
      </trkpt>
      <trkpt lat="45.18168" lon="5.58718">
        <ele>1663</ele>
        <time>2010-01-01T07:49:09Z</time>
      </trkpt>
      <trkpt lat="45.18162" lon="5.58714">
        <ele>1662</ele>
        <time>2010-01-01T07:49:11Z</time>
      </trkpt>
      <trkpt lat="45.1815" lon="5.58701">
        <ele>1661</ele>
        <time>2010-01-01T07:49:14Z</time>
      </trkpt>
      <trkpt lat="45.18144" lon="5.58696">
        <ele>1661</ele>
        <time>2010-01-01T07:49:17Z</time>
      </trkpt>
      <trkpt lat="45.18137" lon="5.58692">
        <ele>1662</ele>
        <time>2010-01-01T07:49:19Z</time>
      </trkpt>
      <trkpt lat="45.1813" lon="5.5869">
        <ele>1663</ele>
        <time>2010-01-01T07:49:21Z</time>
      </trkpt>
      <trkpt lat="45.18112" lon="5.58686">
        <ele>1665</ele>
        <time>2010-01-01T07:49:23Z</time>
      </trkpt>
      <trkpt lat="45.18104" lon="5.58683">
        <ele>1666</ele>
        <time>2010-01-01T07:49:26Z</time>
      </trkpt>
      <trkpt lat="45.18097" lon="5.58679">
        <ele>1667</ele>
        <time>2010-01-01T07:49:28Z</time>
      </trkpt>
      <trkpt lat="45.18074" lon="5.58655">
        <ele>1668</ele>
        <time>2010-01-01T07:49:30Z</time>
      </trkpt>
      <trkpt lat="45.18067" lon="5.5865">
        <ele>1667</ele>
        <time>2010-01-01T07:49:33Z</time>
      </trkpt>
      <trkpt lat="45.18036" lon="5.58631">
        <ele>1661</ele>
        <time>2010-01-01T07:49:35Z</time>
      </trkpt>
      <trkpt lat="45.18026" lon="5.58623">
        <ele>1660</ele>
        <time>2010-01-01T07:49:36Z</time>
      </trkpt>
      <trkpt lat="45.18005" lon="5.58613">
        <ele>1655</ele>
        <time>2010-01-01T07:49:38Z</time>
      </trkpt>
      <trkpt lat="45.17998" lon="5.5861">
        <ele>1654</ele>
        <time>2010-01-01T07:49:41Z</time>
      </trkpt>
      <trkpt lat="45.17993" lon="5.58608">
        <ele>1654</ele>
        <time>2010-01-01T07:49:44Z</time>
      </trkpt>
      <trkpt lat="45.17977" lon="5.58604">
        <ele>1652</ele>
        <time>2010-01-01T07:49:46Z</time>
      </trkpt>
      <trkpt lat="45.17976" lon="5.58601">
        <ele>1652</ele>
        <time>2010-01-01T07:49:48Z</time>
      </trkpt>
      <trkpt lat="45.17977" lon="5.58604">
        <ele>1652</ele>
        <time>2010-01-01T07:49:49Z</time>
      </trkpt>
      <trkpt lat="45.17954" lon="5.5859">
        <ele>1654</ele>
        <time>2010-01-01T07:49:51Z</time>
      </trkpt>
      <trkpt lat="45.17947" lon="5.58588">
        <ele>1655</ele>
        <time>2010-01-01T07:49:53Z</time>
      </trkpt>
      <trkpt lat="45.17941" lon="5.58584">
        <ele>1656</ele>
        <time>2010-01-01T07:49:54Z</time>
      </trkpt>
      <trkpt lat="45.17936" lon="5.58581">
        <ele>1658</ele>
        <time>2010-01-01T07:49:57Z</time>
      </trkpt>
      <trkpt lat="45.1793" lon="5.58581">
        <ele>1659</ele>
        <time>2010-01-01T07:49:59Z</time>
      </trkpt>
      <trkpt lat="45.17925" lon="5.58581">
        <ele>1661</ele>
        <time>2010-01-01T07:50:02Z</time>
      </trkpt>
      <trkpt lat="45.17922" lon="5.5858">
        <ele>1661</ele>
        <time>2010-01-01T07:50:04Z</time>
      </trkpt>
      <trkpt lat="45.17916" lon="5.58579">
        <ele>1663</ele>
        <time>2010-01-01T07:50:07Z</time>
      </trkpt>
      <trkpt lat="45.1791" lon="5.5858">
        <ele>1663</ele>
        <time>2010-01-01T07:50:10Z</time>
      </trkpt>
      <trkpt lat="45.17904" lon="5.5858">
        <ele>1664</ele>
        <time>2010-01-01T07:50:11Z</time>
      </trkpt>
      <trkpt lat="45.17896" lon="5.5858">
        <ele>1664</ele>
        <time>2010-01-01T07:50:14Z</time>
      </trkpt>
      <trkpt lat="45.1789" lon="5.58579">
        <ele>1665</ele>
        <time>2010-01-01T07:50:16Z</time>
      </trkpt>
      <trkpt lat="45.17885" lon="5.58576">
        <ele>1665</ele>
        <time>2010-01-01T07:50:19Z</time>
      </trkpt>
      <trkpt lat="45.17881" lon="5.58571">
        <ele>1666</ele>
        <time>2010-01-01T07:50:21Z</time>
      </trkpt>
      <trkpt lat="45.17876" lon="5.5857">
        <ele>1666</ele>
        <time>2010-01-01T07:50:23Z</time>
      </trkpt>
      <trkpt lat="45.17871" lon="5.58571">
        <ele>1666</ele>
        <time>2010-01-01T07:50:25Z</time>
      </trkpt>
      <trkpt lat="45.17867" lon="5.58573">
        <ele>1666</ele>
        <time>2010-01-01T07:50:28Z</time>
      </trkpt>
      <trkpt lat="45.17864" lon="5.58575">
        <ele>1666</ele>
        <time>2010-01-01T07:50:30Z</time>
      </trkpt>
      <trkpt lat="45.17862" lon="5.58579">
        <ele>1665</ele>
        <time>2010-01-01T07:50:32Z</time>
      </trkpt>
      <trkpt lat="45.1786" lon="5.58585">
        <ele>1664</ele>
        <time>2010-01-01T07:50:34Z</time>
      </trkpt>
      <trkpt lat="45.17856" lon="5.58593">
        <ele>1664</ele>
        <time>2010-01-01T07:50:36Z</time>
      </trkpt>
      <trkpt lat="45.17851" lon="5.58599">
        <ele>1665</ele>
        <time>2010-01-01T07:50:38Z</time>
      </trkpt>
      <trkpt lat="45.17846" lon="5.58605">
        <ele>1665</ele>
        <time>2010-01-01T07:50:41Z</time>
      </trkpt>
      <trkpt lat="45.1784" lon="5.58609">
        <ele>1667</ele>
        <time>2010-01-01T07:50:43Z</time>
      </trkpt>
      <trkpt lat="45.17834" lon="5.58612">
        <ele>1668</ele>
        <time>2010-01-01T07:50:44Z</time>
      </trkpt>
      <trkpt lat="45.17827" lon="5.58614">
        <ele>1669</ele>
        <time>2010-01-01T07:50:47Z</time>
      </trkpt>
      <trkpt lat="45.1782" lon="5.58616">
        <ele>1670</ele>
        <time>2010-01-01T07:50:51Z</time>
      </trkpt>
      <trkpt lat="45.17814" lon="5.5862">
        <ele>1671</ele>
        <time>2010-01-01T07:50:54Z</time>
      </trkpt>
      <trkpt lat="45.17807" lon="5.58624">
        <ele>1672</ele>
        <time>2010-01-01T07:50:57Z</time>
      </trkpt>
      <trkpt lat="45.178" lon="5.58628">
        <ele>1672</ele>
        <time>2010-01-01T07:50:59Z</time>
      </trkpt>
      <trkpt lat="45.17793" lon="5.5863">
        <ele>1671</ele>
        <time>2010-01-01T07:51:01Z</time>
      </trkpt>
      <trkpt lat="45.17787" lon="5.58633">
        <ele>1671</ele>
        <time>2010-01-01T07:51:03Z</time>
      </trkpt>
      <trkpt lat="45.17783" lon="5.58637">
        <ele>1670</ele>
        <time>2010-01-01T07:51:05Z</time>
      </trkpt>
      <trkpt lat="45.17779" lon="5.58641">
        <ele>1669</ele>
        <time>2010-01-01T07:51:07Z</time>
      </trkpt>
      <trkpt lat="45.17773" lon="5.58643">
        <ele>1669</ele>
        <time>2010-01-01T07:51:09Z</time>
      </trkpt>
      <trkpt lat="45.17768" lon="5.58641">
        <ele>1669</ele>
        <time>2010-01-01T07:51:11Z</time>
      </trkpt>
      <trkpt lat="45.17763" lon="5.58639">
        <ele>1670</ele>
        <time>2010-01-01T07:51:13Z</time>
      </trkpt>
      <trkpt lat="45.17757" lon="5.58638">
        <ele>1670</ele>
        <time>2010-01-01T07:51:15Z</time>
      </trkpt>
      <trkpt lat="45.17751" lon="5.5864">
        <ele>1670</ele>
        <time>2010-01-01T07:51:16Z</time>
      </trkpt>
      <trkpt lat="45.17746" lon="5.58641">
        <ele>1670</ele>
        <time>2010-01-01T07:51:18Z</time>
      </trkpt>
      <trkpt lat="45.1774" lon="5.58641">
        <ele>1671</ele>
        <time>2010-01-01T07:51:20Z</time>
      </trkpt>
      <trkpt lat="45.17733" lon="5.58643">
        <ele>1671</ele>
        <time>2010-01-01T07:51:22Z</time>
      </trkpt>
      <trkpt lat="45.17727" lon="5.58645">
        <ele>1670</ele>
        <time>2010-01-01T07:51:24Z</time>
      </trkpt>
      <trkpt lat="45.17722" lon="5.58646">
        <ele>1670</ele>
        <time>2010-01-01T07:51:26Z</time>
      </trkpt>
      <trkpt lat="45.17716" lon="5.58645">
        <ele>1673</ele>
        <time>2010-01-01T07:51:29Z</time>
      </trkpt>
      <trkpt lat="45.17711" lon="5.58647">
        <ele>1673</ele>
        <time>2010-01-01T07:51:31Z</time>
      </trkpt>
      <trkpt lat="45.17705" lon="5.5865">
        <ele>1674</ele>
        <time>2010-01-01T07:51:34Z</time>
      </trkpt>
      <trkpt lat="45.17667" lon="5.58648">
        <ele>1681</ele>
        <time>2010-01-01T07:51:36Z</time>
      </trkpt>
      <trkpt lat="45.17662" lon="5.58645">
        <ele>1682</ele>
        <time>2010-01-01T07:51:39Z</time>
      </trkpt>
      <trkpt lat="45.17656" lon="5.58641">
        <ele>1683</ele>
        <time>2010-01-01T07:51:41Z</time>
      </trkpt>
      <trkpt lat="45.17652" lon="5.58639">
        <ele>1683</ele>
        <time>2010-01-01T07:51:44Z</time>
      </trkpt>
      <trkpt lat="45.17647" lon="5.58636">
        <ele>1683</ele>
        <time>2010-01-01T07:51:47Z</time>
      </trkpt>
      <trkpt lat="45.17642" lon="5.58633">
        <ele>1683</ele>
        <time>2010-01-01T07:51:50Z</time>
      </trkpt>
      <trkpt lat="45.17635" lon="5.58631">
        <ele>1682</ele>
        <time>2010-01-01T07:51:51Z</time>
      </trkpt>
      <trkpt lat="45.17627" lon="5.58627">
        <ele>1682</ele>
        <time>2010-01-01T07:51:54Z</time>
      </trkpt>
      <trkpt lat="45.17622" lon="5.58624">
        <ele>1682</ele>
        <time>2010-01-01T07:51:55Z</time>
      </trkpt>
      <trkpt lat="45.17617" lon="5.58621">
        <ele>1683</ele>
        <time>2010-01-01T07:51:56Z</time>
      </trkpt>
      <trkpt lat="45.17616" lon="5.5862">
        <ele>1683</ele>
        <time>2010-01-01T07:51:57Z</time>
      </trkpt>
      <trkpt lat="45.1761" lon="5.58617">
        <ele>1683</ele>
        <time>2010-01-01T07:51:59Z</time>
      </trkpt>
      <trkpt lat="45.17604" lon="5.58613">
        <ele>1684</ele>
        <time>2010-01-01T07:52:01Z</time>
      </trkpt>
      <trkpt lat="45.176" lon="5.58612">
        <ele>1684</ele>
        <time>2010-01-01T07:52:03Z</time>
      </trkpt>
      <trkpt lat="45.17547" lon="5.58579">
        <ele>1684</ele>
        <time>2010-01-01T07:52:04Z</time>
      </trkpt>
      <trkpt lat="45.17543" lon="5.58577">
        <ele>1683</ele>
        <time>2010-01-01T07:52:07Z</time>
      </trkpt>
      <trkpt lat="45.17535" lon="5.58575">
        <ele>1682</ele>
        <time>2010-01-01T07:52:08Z</time>
      </trkpt>
      <trkpt lat="45.1753" lon="5.5857">
        <ele>1682</ele>
        <time>2010-01-01T07:52:10Z</time>
      </trkpt>
      <trkpt lat="45.17526" lon="5.58565">
        <ele>1682</ele>
        <time>2010-01-01T07:52:13Z</time>
      </trkpt>
      <trkpt lat="45.17522" lon="5.58559">
        <ele>1682</ele>
        <time>2010-01-01T07:52:15Z</time>
      </trkpt>
      <trkpt lat="45.17517" lon="5.58553">
        <ele>1683</ele>
        <time>2010-01-01T07:52:18Z</time>
      </trkpt>
      <trkpt lat="45.17511" lon="5.5855">
        <ele>1682</ele>
        <time>2010-01-01T07:52:21Z</time>
      </trkpt>
      <trkpt lat="45.17506" lon="5.58548">
        <ele>1682</ele>
        <time>2010-01-01T07:52:27Z</time>
      </trkpt>
      <trkpt lat="45.17501" lon="5.58547">
        <ele>1682</ele>
        <time>2010-01-01T07:52:30Z</time>
      </trkpt>
      <trkpt lat="45.17494" lon="5.58548">
        <ele>1681</ele>
        <time>2010-01-01T07:52:32Z</time>
      </trkpt>
      <trkpt lat="45.17487" lon="5.58549">
        <ele>1679</ele>
        <time>2010-01-01T07:52:34Z</time>
      </trkpt>
      <trkpt lat="45.17482" lon="5.58551">
        <ele>1678</ele>
        <time>2010-01-01T07:52:36Z</time>
      </trkpt>
      <trkpt lat="45.17477" lon="5.58552">
        <ele>1677</ele>
        <time>2010-01-01T07:52:38Z</time>
      </trkpt>
      <trkpt lat="45.17471" lon="5.58551">
        <ele>1676</ele>
        <time>2010-01-01T07:52:40Z</time>
      </trkpt>
      <trkpt lat="45.17466" lon="5.58548">
        <ele>1676</ele>
        <time>2010-01-01T07:52:41Z</time>
      </trkpt>
      <trkpt lat="45.17463" lon="5.58547">
        <ele>1676</ele>
        <time>2010-01-01T07:52:43Z</time>
      </trkpt>
      <trkpt lat="45.17458" lon="5.58545">
        <ele>1676</ele>
        <time>2010-01-01T07:52:48Z</time>
      </trkpt>
      <trkpt lat="45.17451" lon="5.58543">
        <ele>1676</ele>
        <time>2010-01-01T07:52:51Z</time>
      </trkpt>
      <trkpt lat="45.17445" lon="5.58541">
        <ele>1676</ele>
        <time>2010-01-01T07:52:57Z</time>
      </trkpt>
      <trkpt lat="45.1744" lon="5.58538">
        <ele>1676</ele>
        <time>2010-01-01T07:53:00Z</time>
      </trkpt>
      <trkpt lat="45.17436" lon="5.58535">
        <ele>1676</ele>
        <time>2010-01-01T07:53:03Z</time>
      </trkpt>
      <trkpt lat="45.17433" lon="5.58533">
        <ele>1676</ele>
        <time>2010-01-01T07:53:05Z</time>
      </trkpt>
      <trkpt lat="45.17429" lon="5.58531">
        <ele>1675</ele>
        <time>2010-01-01T07:53:07Z</time>
      </trkpt>
      <trkpt lat="45.17425" lon="5.58527">
        <ele>1676</ele>
        <time>2010-01-01T07:53:09Z</time>
      </trkpt>
      <trkpt lat="45.17422" lon="5.58522">
        <ele>1676</ele>
        <time>2010-01-01T07:53:10Z</time>
      </trkpt>
      <trkpt lat="45.17416" lon="5.58517">
        <ele>1675</ele>
        <time>2010-01-01T07:53:11Z</time>
      </trkpt>
      <trkpt lat="45.17411" lon="5.58513">
        <ele>1674</ele>
        <time>2010-01-01T07:53:13Z</time>
      </trkpt>
      <trkpt lat="45.17406" lon="5.58506">
        <ele>1673</ele>
        <time>2010-01-01T07:53:15Z</time>
      </trkpt>
      <trkpt lat="45.17402" lon="5.58503">
        <ele>1672</ele>
        <time>2010-01-01T07:53:21Z</time>
      </trkpt>
      <trkpt lat="45.17396" lon="5.58499">
        <ele>1671</ele>
        <time>2010-01-01T07:53:27Z</time>
      </trkpt>
      <trkpt lat="45.1739" lon="5.58494">
        <ele>1670</ele>
        <time>2010-01-01T07:53:33Z</time>
      </trkpt>
      <trkpt lat="45.17386" lon="5.5849">
        <ele>1668</ele>
        <time>2010-01-01T07:53:40Z</time>
      </trkpt>
      <trkpt lat="45.17381" lon="5.58484">
        <ele>1667</ele>
        <time>2010-01-01T07:53:47Z</time>
      </trkpt>
      <trkpt lat="45.17376" lon="5.5848">
        <ele>1666</ele>
        <time>2010-01-01T07:53:54Z</time>
      </trkpt>
      <trkpt lat="45.1737" lon="5.58474">
        <ele>1664</ele>
        <time>2010-01-01T07:54:03Z</time>
      </trkpt>
      <trkpt lat="45.17366" lon="5.5847">
        <ele>1664</ele>
        <time>2010-01-01T07:54:07Z</time>
      </trkpt>
      <trkpt lat="45.17361" lon="5.58468">
        <ele>1663</ele>
        <time>2010-01-01T07:54:12Z</time>
      </trkpt>
      <trkpt lat="45.17356" lon="5.58467">
        <ele>1661</ele>
        <time>2010-01-01T07:54:16Z</time>
      </trkpt>
      <trkpt lat="45.1735" lon="5.58466">
        <ele>1658</ele>
        <time>2010-01-01T07:54:19Z</time>
      </trkpt>
      <trkpt lat="45.17345" lon="5.58466">
        <ele>1656</ele>
        <time>2010-01-01T07:54:21Z</time>
      </trkpt>
      <trkpt lat="45.1734" lon="5.58464">
        <ele>1654</ele>
        <time>2010-01-01T07:54:26Z</time>
      </trkpt>
      <trkpt lat="45.17336" lon="5.58462">
        <ele>1653</ele>
        <time>2010-01-01T07:54:30Z</time>
      </trkpt>
      <trkpt lat="45.17331" lon="5.58458">
        <ele>1653</ele>
        <time>2010-01-01T07:54:37Z</time>
      </trkpt>
      <trkpt lat="45.17326" lon="5.58454">
        <ele>1653</ele>
        <time>2010-01-01T07:54:40Z</time>
      </trkpt>
      <trkpt lat="45.17321" lon="5.5845">
        <ele>1653</ele>
        <time>2010-01-01T07:54:43Z</time>
      </trkpt>
      <trkpt lat="45.17317" lon="5.58444">
        <ele>1654</ele>
        <time>2010-01-01T07:54:46Z</time>
      </trkpt>
      <trkpt lat="45.17315" lon="5.58439">
        <ele>1654</ele>
        <time>2010-01-01T07:54:49Z</time>
      </trkpt>
      <trkpt lat="45.17311" lon="5.58434">
        <ele>1654</ele>
        <time>2010-01-01T07:54:52Z</time>
      </trkpt>
      <trkpt lat="45.17305" lon="5.58422">
        <ele>1654</ele>
        <time>2010-01-01T07:54:55Z</time>
      </trkpt>
      <trkpt lat="45.17301" lon="5.58412">
        <ele>1655</ele>
        <time>2010-01-01T07:54:58Z</time>
      </trkpt>
      <trkpt lat="45.17298" lon="5.58402">
        <ele>1656</ele>
        <time>2010-01-01T07:55:00Z</time>
      </trkpt>
      <trkpt lat="45.17295" lon="5.58395">
        <ele>1657</ele>
        <time>2010-01-01T07:55:02Z</time>
      </trkpt>
      <trkpt lat="45.17292" lon="5.58392">
        <ele>1657</ele>
        <time>2010-01-01T07:55:05Z</time>
      </trkpt>
      <trkpt lat="45.17287" lon="5.58391">
        <ele>1656</ele>
        <time>2010-01-01T07:55:09Z</time>
      </trkpt>
      <trkpt lat="45.17282" lon="5.58392">
        <ele>1655</ele>
        <time>2010-01-01T07:55:13Z</time>
      </trkpt>
      <trkpt lat="45.17277" lon="5.58394">
        <ele>1654</ele>
        <time>2010-01-01T07:55:18Z</time>
      </trkpt>
      <trkpt lat="45.17272" lon="5.58395">
        <ele>1652</ele>
        <time>2010-01-01T07:55:21Z</time>
      </trkpt>
      <trkpt lat="45.17267" lon="5.58396">
        <ele>1650</ele>
        <time>2010-01-01T07:55:22Z</time>
      </trkpt>
      <trkpt lat="45.17263" lon="5.58397">
        <ele>1649</ele>
        <time>2010-01-01T07:55:27Z</time>
      </trkpt>
      <trkpt lat="45.17258" lon="5.58398">
        <ele>1648</ele>
        <time>2010-01-01T07:55:32Z</time>
      </trkpt>
      <trkpt lat="45.17254" lon="5.58396">
        <ele>1647</ele>
        <time>2010-01-01T07:55:43Z</time>
      </trkpt>
      <trkpt lat="45.1725" lon="5.58393">
        <ele>1646</ele>
        <time>2010-01-01T07:55:47Z</time>
      </trkpt>
      <trkpt lat="45.17246" lon="5.5839">
        <ele>1646</ele>
        <time>2010-01-01T07:55:51Z</time>
      </trkpt>
      <trkpt lat="45.17242" lon="5.58388">
        <ele>1645</ele>
        <time>2010-01-01T07:55:56Z</time>
      </trkpt>
      <trkpt lat="45.17236" lon="5.58386">
        <ele>1645</ele>
        <time>2010-01-01T07:55:59Z</time>
      </trkpt>
      <trkpt lat="45.17231" lon="5.58385">
        <ele>1644</ele>
        <time>2010-01-01T07:56:03Z</time>
      </trkpt>
      <trkpt lat="45.17223" lon="5.58384">
        <ele>1643</ele>
        <time>2010-01-01T07:56:11Z</time>
      </trkpt>
      <trkpt lat="45.17218" lon="5.58385">
        <ele>1642</ele>
        <time>2010-01-01T07:56:13Z</time>
      </trkpt>
      <trkpt lat="45.17212" lon="5.58386">
        <ele>1641</ele>
        <time>2010-01-01T07:56:16Z</time>
      </trkpt>
      <trkpt lat="45.17206" lon="5.58388">
        <ele>1640</ele>
        <time>2010-01-01T07:56:18Z</time>
      </trkpt>
      <trkpt lat="45.17199" lon="5.58391">
        <ele>1639</ele>
        <time>2010-01-01T07:56:22Z</time>
      </trkpt>
      <trkpt lat="45.17194" lon="5.58394">
        <ele>1637</ele>
        <time>2010-01-01T07:56:24Z</time>
      </trkpt>
      <trkpt lat="45.17187" lon="5.58395">
        <ele>1635</ele>
        <time>2010-01-01T07:56:27Z</time>
      </trkpt>
      <trkpt lat="45.1718" lon="5.58395">
        <ele>1632</ele>
        <time>2010-01-01T07:56:30Z</time>
      </trkpt>
      <trkpt lat="45.17173" lon="5.58395">
        <ele>1629</ele>
        <time>2010-01-01T07:56:38Z</time>
      </trkpt>
      <trkpt lat="45.17169" lon="5.58395">
        <ele>1628</ele>
        <time>2010-01-01T07:56:43Z</time>
      </trkpt>
      <trkpt lat="45.17163" lon="5.58394">
        <ele>1627</ele>
        <time>2010-01-01T07:56:48Z</time>
      </trkpt>
      <trkpt lat="45.17161" lon="5.58393">
        <ele>1627</ele>
        <time>2010-01-01T07:56:55Z</time>
      </trkpt>
      <trkpt lat="45.17159" lon="5.58391">
        <ele>1626</ele>
        <time>2010-01-01T07:57:05Z</time>
      </trkpt>
      <trkpt lat="45.17155" lon="5.58388">
        <ele>1626</ele>
        <time>2010-01-01T07:57:13Z</time>
      </trkpt>
      <trkpt lat="45.17151" lon="5.58384">
        <ele>1626</ele>
        <time>2010-01-01T07:57:16Z</time>
      </trkpt>
      <trkpt lat="45.17148" lon="5.58383">
        <ele>1626</ele>
        <time>2010-01-01T07:57:19Z</time>
      </trkpt>
      <trkpt lat="45.17143" lon="5.58381">
        <ele>1626</ele>
        <time>2010-01-01T07:57:22Z</time>
      </trkpt>
      <trkpt lat="45.17139" lon="5.58379">
        <ele>1626</ele>
        <time>2010-01-01T07:57:24Z</time>
      </trkpt>
      <trkpt lat="45.17133" lon="5.58379">
        <ele>1626</ele>
        <time>2010-01-01T07:57:26Z</time>
      </trkpt>
      <trkpt lat="45.17129" lon="5.58378">
        <ele>1626</ele>
        <time>2010-01-01T07:57:28Z</time>
      </trkpt>
      <trkpt lat="45.17125" lon="5.58376">
        <ele>1627</ele>
        <time>2010-01-01T07:57:30Z</time>
      </trkpt>
      <trkpt lat="45.17119" lon="5.58373">
        <ele>1628</ele>
        <time>2010-01-01T07:57:31Z</time>
      </trkpt>
      <trkpt lat="45.17113" lon="5.5837">
        <ele>1629</ele>
        <time>2010-01-01T07:57:32Z</time>
      </trkpt>
      <trkpt lat="45.17107" lon="5.58369">
        <ele>1631</ele>
        <time>2010-01-01T07:57:34Z</time>
      </trkpt>
      <trkpt lat="45.17099" lon="5.58368">
        <ele>1634</ele>
        <time>2010-01-01T07:57:37Z</time>
      </trkpt>
      <trkpt lat="45.17084" lon="5.58362">
        <ele>1640</ele>
        <time>2010-01-01T07:57:39Z</time>
      </trkpt>
      <trkpt lat="45.17078" lon="5.5836">
        <ele>1641</ele>
        <time>2010-01-01T07:57:42Z</time>
      </trkpt>
      <trkpt lat="45.17073" lon="5.58359">
        <ele>1641</ele>
        <time>2010-01-01T07:57:45Z</time>
      </trkpt>
      <trkpt lat="45.17068" lon="5.58358">
        <ele>1642</ele>
        <time>2010-01-01T07:57:48Z</time>
      </trkpt>
      <trkpt lat="45.17063" lon="5.58355">
        <ele>1642</ele>
        <time>2010-01-01T07:57:51Z</time>
      </trkpt>
      <trkpt lat="45.17058" lon="5.58353">
        <ele>1642</ele>
        <time>2010-01-01T07:57:53Z</time>
      </trkpt>
      <trkpt lat="45.17054" lon="5.58352">
        <ele>1643</ele>
        <time>2010-01-01T07:57:57Z</time>
      </trkpt>
      <trkpt lat="45.1705" lon="5.58351">
        <ele>1643</ele>
        <time>2010-01-01T07:57:59Z</time>
      </trkpt>
      <trkpt lat="45.17046" lon="5.5835">
        <ele>1644</ele>
        <time>2010-01-01T07:58:01Z</time>
      </trkpt>
      <trkpt lat="45.17033" lon="5.5835">
        <ele>1647</ele>
        <time>2010-01-01T07:58:15Z</time>
      </trkpt>
      <trkpt lat="45.17026" lon="5.58351">
        <ele>1649</ele>
        <time>2010-01-01T07:58:36Z</time>
      </trkpt>
      <trkpt lat="45.17011" lon="5.58354">
        <ele>1653</ele>
        <time>2010-01-01T07:59:07Z</time>
      </trkpt>
      <trkpt lat="45.17003" lon="5.58357">
        <ele>1655</ele>
        <time>2010-01-01T07:59:36Z</time>
      </trkpt>
      <trkpt lat="45.16997" lon="5.5836">
        <ele>1657</ele>
        <time>2010-01-01T08:00:09Z</time>
      </trkpt>
      <trkpt lat="45.16992" lon="5.58364">
        <ele>1657</ele>
        <time>2010-01-01T08:00:31Z</time>
      </trkpt>
      <trkpt lat="45.16987" lon="5.58367">
        <ele>1657</ele>
        <time>2010-01-01T08:00:46Z</time>
      </trkpt>
      <trkpt lat="45.16984" lon="5.58371">
        <ele>1657</ele>
        <time>2010-01-01T08:00:52Z</time>
      </trkpt>
      <trkpt lat="45.16982" lon="5.58373">
        <ele>1657</ele>
        <time>2010-01-01T08:01:01Z</time>
      </trkpt>
      <trkpt lat="45.16979" lon="5.58375">
        <ele>1657</ele>
        <time>2010-01-01T08:01:20Z</time>
      </trkpt>
      <trkpt lat="45.16974" lon="5.58377">
        <ele>1658</ele>
        <time>2010-01-01T08:01:48Z</time>
      </trkpt>
      <trkpt lat="45.16969" lon="5.58377">
        <ele>1658</ele>
        <time>2010-01-01T08:02:15Z</time>
      </trkpt>
      <trkpt lat="45.16956" lon="5.58373">
        <ele>1659</ele>
        <time>2010-01-01T08:02:35Z</time>
      </trkpt>
      <trkpt lat="45.1694" lon="5.58368">
        <ele>1659</ele>
        <time>2010-01-01T08:02:44Z</time>
      </trkpt>
      <trkpt lat="45.16925" lon="5.58364">
        <ele>1658</ele>
        <time>2010-01-01T08:02:49Z</time>
      </trkpt>
      <trkpt lat="45.16909" lon="5.58359">
        <ele>1656</ele>
        <time>2010-01-01T08:02:55Z</time>
      </trkpt>
      <trkpt lat="45.16892" lon="5.58355">
        <ele>1655</ele>
        <time>2010-01-01T08:03:07Z</time>
      </trkpt>
      <trkpt lat="45.16873" lon="5.58349">
        <ele>1653</ele>
        <time>2010-01-01T08:03:21Z</time>
      </trkpt>
      <trkpt lat="45.16853" lon="5.58342">
        <ele>1651</ele>
        <time>2010-01-01T08:03:32Z</time>
      </trkpt>
      <trkpt lat="45.16843" lon="5.58339">
        <ele>1650</ele>
        <time>2010-01-01T08:03:47Z</time>
      </trkpt>
      <trkpt lat="45.16831" lon="5.58335">
        <ele>1650</ele>
        <time>2010-01-01T08:03:51Z</time>
      </trkpt>
      <trkpt lat="45.16821" lon="5.58335">
        <ele>1650</ele>
        <time>2010-01-01T08:03:56Z</time>
      </trkpt>
      <trkpt lat="45.16814" lon="5.58337">
        <ele>1650</ele>
        <time>2010-01-01T08:04:02Z</time>
      </trkpt>
      <trkpt lat="45.16807" lon="5.58337">
        <ele>1651</ele>
        <time>2010-01-01T08:04:10Z</time>
      </trkpt>
      <trkpt lat="45.16795" lon="5.58336">
        <ele>1649</ele>
        <time>2010-01-01T08:04:19Z</time>
      </trkpt>
      <trkpt lat="45.16786" lon="5.58331">
        <ele>1649</ele>
        <time>2010-01-01T08:04:26Z</time>
      </trkpt>
      <trkpt lat="45.1677" lon="5.58324">
        <ele>1646</ele>
        <time>2010-01-01T08:04:28Z</time>
      </trkpt>
      <trkpt lat="45.16763" lon="5.5832">
        <ele>1646</ele>
        <time>2010-01-01T08:04:34Z</time>
      </trkpt>
      <trkpt lat="45.16756" lon="5.58317">
        <ele>1645</ele>
        <time>2010-01-01T08:04:40Z</time>
      </trkpt>
      <trkpt lat="45.16748" lon="5.58317">
        <ele>1644</ele>
        <time>2010-01-01T08:04:43Z</time>
      </trkpt>
      <trkpt lat="45.16741" lon="5.58316">
        <ele>1645</ele>
        <time>2010-01-01T08:04:45Z</time>
      </trkpt>
      <trkpt lat="45.16734" lon="5.58316">
        <ele>1645</ele>
        <time>2010-01-01T08:04:48Z</time>
      </trkpt>
      <trkpt lat="45.16726" lon="5.58315">
        <ele>1645</ele>
        <time>2010-01-01T08:04:50Z</time>
      </trkpt>
      <trkpt lat="45.16719" lon="5.58314">
        <ele>1646</ele>
        <time>2010-01-01T08:04:52Z</time>
      </trkpt>
      <trkpt lat="45.16713" lon="5.58313">
        <ele>1647</ele>
        <time>2010-01-01T08:04:56Z</time>
      </trkpt>
      <trkpt lat="45.16707" lon="5.58311">
        <ele>1648</ele>
        <time>2010-01-01T08:04:57Z</time>
      </trkpt>
      <trkpt lat="45.167" lon="5.5831">
        <ele>1649</ele>
        <time>2010-01-01T08:04:59Z</time>
      </trkpt>
      <trkpt lat="45.1669" lon="5.58307">
        <ele>1650</ele>
        <time>2010-01-01T08:05:01Z</time>
      </trkpt>
      <trkpt lat="45.16682" lon="5.58305">
        <ele>1651</ele>
        <time>2010-01-01T08:05:03Z</time>
      </trkpt>
      <trkpt lat="45.16669" lon="5.58303">
        <ele>1652</ele>
        <time>2010-01-01T08:05:05Z</time>
      </trkpt>
      <trkpt lat="45.16661" lon="5.583">
        <ele>1652</ele>
        <time>2010-01-01T08:05:08Z</time>
      </trkpt>
      <trkpt lat="45.1666" lon="5.58299">
        <ele>1652</ele>
        <time>2010-01-01T08:05:11Z</time>
      </trkpt>
      <trkpt lat="45.16648" lon="5.58296">
        <ele>1651</ele>
        <time>2010-01-01T08:05:13Z</time>
      </trkpt>
      <trkpt lat="45.16635" lon="5.58292">
        <ele>1649</ele>
        <time>2010-01-01T08:05:17Z</time>
      </trkpt>
      <trkpt lat="45.16608" lon="5.58284">
        <ele>1649</ele>
        <time>2010-01-01T08:05:52Z</time>
      </trkpt>
      <trkpt lat="45.16598" lon="5.58281">
        <ele>1650</ele>
        <time>2010-01-01T08:05:54Z</time>
      </trkpt>
      <trkpt lat="45.16589" lon="5.58279">
        <ele>1651</ele>
        <time>2010-01-01T08:05:55Z</time>
      </trkpt>
      <trkpt lat="45.16575" lon="5.58275">
        <ele>1651</ele>
        <time>2010-01-01T08:05:57Z</time>
      </trkpt>
      <trkpt lat="45.16569" lon="5.58272">
        <ele>1652</ele>
        <time>2010-01-01T08:05:59Z</time>
      </trkpt>
      <trkpt lat="45.1656" lon="5.58269">
        <ele>1652</ele>
        <time>2010-01-01T08:06:00Z</time>
      </trkpt>
      <trkpt lat="45.16541" lon="5.58261">
        <ele>1652</ele>
        <time>2010-01-01T08:06:02Z</time>
      </trkpt>
      <trkpt lat="45.16535" lon="5.58259">
        <ele>1653</ele>
        <time>2010-01-01T08:06:04Z</time>
      </trkpt>
      <trkpt lat="45.16528" lon="5.58258">
        <ele>1652</ele>
        <time>2010-01-01T08:06:06Z</time>
      </trkpt>
      <trkpt lat="45.16522" lon="5.58256">
        <ele>1652</ele>
        <time>2010-01-01T08:06:07Z</time>
      </trkpt>
      <trkpt lat="45.16514" lon="5.58254">
        <ele>1651</ele>
        <time>2010-01-01T08:06:09Z</time>
      </trkpt>
      <trkpt lat="45.16507" lon="5.58251">
        <ele>1651</ele>
        <time>2010-01-01T08:06:11Z</time>
      </trkpt>
      <trkpt lat="45.16501" lon="5.58248">
        <ele>1651</ele>
        <time>2010-01-01T08:06:13Z</time>
      </trkpt>
      <trkpt lat="45.16494" lon="5.58245">
        <ele>1650</ele>
        <time>2010-01-01T08:06:16Z</time>
      </trkpt>
      <trkpt lat="45.16474" lon="5.58235">
        <ele>1649</ele>
        <time>2010-01-01T08:06:17Z</time>
      </trkpt>
      <trkpt lat="45.16463" lon="5.58227">
        <ele>1650</ele>
        <time>2010-01-01T08:06:19Z</time>
      </trkpt>
      <trkpt lat="45.16454" lon="5.58219">
        <ele>1651</ele>
        <time>2010-01-01T08:06:21Z</time>
      </trkpt>
      <trkpt lat="45.16438" lon="5.58204">
        <ele>1651</ele>
        <time>2010-01-01T08:06:23Z</time>
      </trkpt>
      <trkpt lat="45.1642" lon="5.58181">
        <ele>1651</ele>
        <time>2010-01-01T08:06:25Z</time>
      </trkpt>
      <trkpt lat="45.16404" lon="5.58162">
        <ele>1651</ele>
        <time>2010-01-01T08:06:27Z</time>
      </trkpt>
      <trkpt lat="45.16399" lon="5.58154">
        <ele>1651</ele>
        <time>2010-01-01T08:06:29Z</time>
      </trkpt>
      <trkpt lat="45.16395" lon="5.58147">
        <ele>1652</ele>
        <time>2010-01-01T08:06:31Z</time>
      </trkpt>
      <trkpt lat="45.1639" lon="5.5814">
        <ele>1652</ele>
        <time>2010-01-01T08:06:34Z</time>
      </trkpt>
      <trkpt lat="45.16386" lon="5.58134">
        <ele>1652</ele>
        <time>2010-01-01T08:06:36Z</time>
      </trkpt>
      <trkpt lat="45.16383" lon="5.58127">
        <ele>1653</ele>
        <time>2010-01-01T08:06:38Z</time>
      </trkpt>
      <trkpt lat="45.16381" lon="5.58121">
        <ele>1653</ele>
        <time>2010-01-01T08:06:40Z</time>
      </trkpt>
      <trkpt lat="45.16379" lon="5.58114">
        <ele>1654</ele>
        <time>2010-01-01T08:06:42Z</time>
      </trkpt>
      <trkpt lat="45.16378" lon="5.58112">
        <ele>1654</ele>
        <time>2010-01-01T08:06:44Z</time>
      </trkpt>
      <trkpt lat="45.16376" lon="5.58109">
        <ele>1654</ele>
        <time>2010-01-01T08:06:46Z</time>
      </trkpt>
      <trkpt lat="45.16372" lon="5.58104">
        <ele>1655</ele>
        <time>2010-01-01T08:06:47Z</time>
      </trkpt>
      <trkpt lat="45.16366" lon="5.58099">
        <ele>1656</ele>
        <time>2010-01-01T08:06:49Z</time>
      </trkpt>
      <trkpt lat="45.16362" lon="5.58094">
        <ele>1657</ele>
        <time>2010-01-01T08:06:51Z</time>
      </trkpt>
      <trkpt lat="45.16356" lon="5.58091">
        <ele>1658</ele>
        <time>2010-01-01T08:06:53Z</time>
      </trkpt>
      <trkpt lat="45.16349" lon="5.58088">
        <ele>1659</ele>
        <time>2010-01-01T08:06:55Z</time>
      </trkpt>
      <trkpt lat="45.16341" lon="5.58085">
        <ele>1660</ele>
        <time>2010-01-01T08:06:57Z</time>
      </trkpt>
      <trkpt lat="45.16335" lon="5.58083">
        <ele>1661</ele>
        <time>2010-01-01T08:06:58Z</time>
      </trkpt>
      <trkpt lat="45.16328" lon="5.5808">
        <ele>1662</ele>
        <time>2010-01-01T08:07:00Z</time>
      </trkpt>
      <trkpt lat="45.16321" lon="5.58075">
        <ele>1663</ele>
        <time>2010-01-01T08:07:02Z</time>
      </trkpt>
      <trkpt lat="45.16315" lon="5.5807">
        <ele>1664</ele>
        <time>2010-01-01T08:07:04Z</time>
      </trkpt>
      <trkpt lat="45.16311" lon="5.58068">
        <ele>1665</ele>
        <time>2010-01-01T08:07:06Z</time>
      </trkpt>
      <trkpt lat="45.16276" lon="5.58057">
        <ele>1667</ele>
        <time>2010-01-01T08:07:08Z</time>
      </trkpt>
      <trkpt lat="45.16224" lon="5.58048">
        <ele>1661</ele>
        <time>2010-01-01T08:07:10Z</time>
      </trkpt>
      <trkpt lat="45.16148" lon="5.58034">
        <ele>1667</ele>
        <time>2010-01-01T08:07:13Z</time>
      </trkpt>
      <trkpt lat="45.16076" lon="5.58018">
        <ele>1660</ele>
        <time>2010-01-01T08:07:15Z</time>
      </trkpt>
      <trkpt lat="45.15996" lon="5.57995">
        <ele>1655</ele>
        <time>2010-01-01T08:07:17Z</time>
      </trkpt>
      <trkpt lat="45.15943" lon="5.5798">
        <ele>1654</ele>
        <time>2010-01-01T08:07:20Z</time>
      </trkpt>
      <trkpt lat="45.15913" lon="5.57945">
        <ele>1653</ele>
        <time>2010-01-01T08:07:21Z</time>
      </trkpt>
      <trkpt lat="45.15901" lon="5.57934">
        <ele>1654</ele>
        <time>2010-01-01T08:07:22Z</time>
      </trkpt>
      <trkpt lat="45.15883" lon="5.57917">
        <ele>1655</ele>
        <time>2010-01-01T08:07:23Z</time>
      </trkpt>
      <trkpt lat="45.15837" lon="5.57897">
        <ele>1653</ele>
        <time>2010-01-01T08:07:24Z</time>
      </trkpt>
      <trkpt lat="45.15766" lon="5.57883">
        <ele>1645</ele>
        <time>2010-01-01T08:07:26Z</time>
      </trkpt>
      <trkpt lat="45.157" lon="5.57867">
        <ele>1642</ele>
        <time>2010-01-01T08:07:27Z</time>
      </trkpt>
      <trkpt lat="45.15652" lon="5.57846">
        <ele>1640</ele>
        <time>2010-01-01T08:07:29Z</time>
      </trkpt>
      <trkpt lat="45.15632" lon="5.57833">
        <ele>1637</ele>
        <time>2010-01-01T08:07:30Z</time>
      </trkpt>
      <trkpt lat="45.1562" lon="5.5783">
        <ele>1635</ele>
        <time>2010-01-01T08:07:32Z</time>
      </trkpt>
      <trkpt lat="45.15606" lon="5.57827">
        <ele>1634</ele>
        <time>2010-01-01T08:07:34Z</time>
      </trkpt>
      <trkpt lat="45.15576" lon="5.57829">
        <ele>1632</ele>
        <time>2010-01-01T08:07:35Z</time>
      </trkpt>
      <trkpt lat="45.15541" lon="5.57828">
        <ele>1631</ele>
        <time>2010-01-01T08:07:38Z</time>
      </trkpt>
      <trkpt lat="45.15518" lon="5.57803">
        <ele>1632</ele>
        <time>2010-01-01T08:07:40Z</time>
      </trkpt>
      <trkpt lat="45.15485" lon="5.57779">
        <ele>1634</ele>
        <time>2010-01-01T08:07:42Z</time>
      </trkpt>
      <trkpt lat="45.15476" lon="5.57775">
        <ele>1633</ele>
        <time>2010-01-01T08:07:45Z</time>
      </trkpt>
      <trkpt lat="45.15463" lon="5.57774">
        <ele>1634</ele>
        <time>2010-01-01T08:07:48Z</time>
      </trkpt>
      <trkpt lat="45.15448" lon="5.57775">
        <ele>1635</ele>
        <time>2010-01-01T08:07:50Z</time>
      </trkpt>
      <trkpt lat="45.15428" lon="5.57779">
        <ele>1635</ele>
        <time>2010-01-01T08:07:52Z</time>
      </trkpt>
      <trkpt lat="45.15407" lon="5.57785">
        <ele>1634</ele>
        <time>2010-01-01T08:07:54Z</time>
      </trkpt>
      <trkpt lat="45.15389" lon="5.57786">
        <ele>1632</ele>
        <time>2010-01-01T08:07:55Z</time>
      </trkpt>
      <trkpt lat="45.15385" lon="5.57787">
        <ele>1632</ele>
        <time>2010-01-01T08:07:57Z</time>
      </trkpt>
      <trkpt lat="45.1537" lon="5.57786">
        <ele>1631</ele>
        <time>2010-01-01T08:07:58Z</time>
      </trkpt>
      <trkpt lat="45.15354" lon="5.5778">
        <ele>1629</ele>
        <time>2010-01-01T08:08:00Z</time>
      </trkpt>
      <trkpt lat="45.15348" lon="5.57778">
        <ele>1628</ele>
        <time>2010-01-01T08:08:02Z</time>
      </trkpt>
      <trkpt lat="45.15343" lon="5.57774">
        <ele>1627</ele>
        <time>2010-01-01T08:08:04Z</time>
      </trkpt>
      <trkpt lat="45.15337" lon="5.57772">
        <ele>1626</ele>
        <time>2010-01-01T08:08:06Z</time>
      </trkpt>
      <trkpt lat="45.15331" lon="5.57769">
        <ele>1625</ele>
        <time>2010-01-01T08:08:07Z</time>
      </trkpt>
      <trkpt lat="45.15326" lon="5.57767">
        <ele>1624</ele>
        <time>2010-01-01T08:08:08Z</time>
      </trkpt>
      <trkpt lat="45.15317" lon="5.57763">
        <ele>1623</ele>
        <time>2010-01-01T08:08:10Z</time>
      </trkpt>
      <trkpt lat="45.15314" lon="5.57763">
        <ele>1623</ele>
        <time>2010-01-01T08:08:12Z</time>
      </trkpt>
      <trkpt lat="45.15309" lon="5.57761">
        <ele>1622</ele>
        <time>2010-01-01T08:08:13Z</time>
      </trkpt>
      <trkpt lat="45.15304" lon="5.57759">
        <ele>1621</ele>
        <time>2010-01-01T08:08:15Z</time>
      </trkpt>
      <trkpt lat="45.153" lon="5.57757">
        <ele>1621</ele>
        <time>2010-01-01T08:08:16Z</time>
      </trkpt>
      <trkpt lat="45.15295" lon="5.57756">
        <ele>1621</ele>
        <time>2010-01-01T08:08:18Z</time>
      </trkpt>
      <trkpt lat="45.15288" lon="5.57756">
        <ele>1620</ele>
        <time>2010-01-01T08:08:19Z</time>
      </trkpt>
      <trkpt lat="45.15281" lon="5.57755">
        <ele>1620</ele>
        <time>2010-01-01T08:08:21Z</time>
      </trkpt>
      <trkpt lat="45.15274" lon="5.57754">
        <ele>1619</ele>
        <time>2010-01-01T08:08:22Z</time>
      </trkpt>
      <trkpt lat="45.15266" lon="5.57752">
        <ele>1618</ele>
        <time>2010-01-01T08:08:23Z</time>
      </trkpt>
      <trkpt lat="45.15181" lon="5.57713">
        <ele>1606</ele>
        <time>2010-01-01T08:08:25Z</time>
      </trkpt>
      <trkpt lat="45.15178" lon="5.57711">
        <ele>1605</ele>
        <time>2010-01-01T08:08:28Z</time>
      </trkpt>
      <trkpt lat="45.15175" lon="5.57709">
        <ele>1605</ele>
        <time>2010-01-01T08:08:30Z</time>
      </trkpt>
      <trkpt lat="45.15171" lon="5.57707">
        <ele>1605</ele>
        <time>2010-01-01T08:08:33Z</time>
      </trkpt>
      <trkpt lat="45.15167" lon="5.57704">
        <ele>1604</ele>
        <time>2010-01-01T08:08:36Z</time>
      </trkpt>
      <trkpt lat="45.15164" lon="5.57701">
        <ele>1603</ele>
        <time>2010-01-01T08:08:42Z</time>
      </trkpt>
      <trkpt lat="45.1516" lon="5.57698">
        <ele>1602</ele>
        <time>2010-01-01T08:08:49Z</time>
      </trkpt>
      <trkpt lat="45.15155" lon="5.57696">
        <ele>1600</ele>
        <time>2010-01-01T08:08:50Z</time>
      </trkpt>
      <trkpt lat="45.15151" lon="5.57695">
        <ele>1599</ele>
        <time>2010-01-01T08:08:50Z</time>
      </trkpt>
      <trkpt lat="45.15147" lon="5.57692">
        <ele>1598</ele>
        <time>2010-01-01T08:08:56Z</time>
      </trkpt>
      <trkpt lat="45.15143" lon="5.5769">
        <ele>1597</ele>
        <time>2010-01-01T08:08:57Z</time>
      </trkpt>
      <trkpt lat="45.15139" lon="5.57687">
        <ele>1596</ele>
        <time>2010-01-01T08:08:59Z</time>
      </trkpt>
      <trkpt lat="45.15133" lon="5.57685">
        <ele>1594</ele>
        <time>2010-01-01T08:09:02Z</time>
      </trkpt>
      <trkpt lat="45.15128" lon="5.57682">
        <ele>1593</ele>
        <time>2010-01-01T08:09:04Z</time>
      </trkpt>
      <trkpt lat="45.15124" lon="5.5768">
        <ele>1592</ele>
        <time>2010-01-01T08:09:07Z</time>
      </trkpt>
      <trkpt lat="45.1512" lon="5.57678">
        <ele>1591</ele>
        <time>2010-01-01T08:09:09Z</time>
      </trkpt>
      <trkpt lat="45.15115" lon="5.57677">
        <ele>1589</ele>
        <time>2010-01-01T08:09:11Z</time>
      </trkpt>
      <trkpt lat="45.15111" lon="5.57676">
        <ele>1589</ele>
        <time>2010-01-01T08:09:13Z</time>
      </trkpt>
      <trkpt lat="45.15106" lon="5.57675">
        <ele>1588</ele>
        <time>2010-01-01T08:09:14Z</time>
      </trkpt>
      <trkpt lat="45.151" lon="5.57675">
        <ele>1588</ele>
        <time>2010-01-01T08:09:16Z</time>
      </trkpt>
      <trkpt lat="45.15095" lon="5.57675">
        <ele>1587</ele>
        <time>2010-01-01T08:09:18Z</time>
      </trkpt>
      <trkpt lat="45.15089" lon="5.57675">
        <ele>1586</ele>
        <time>2010-01-01T08:09:20Z</time>
      </trkpt>
      <trkpt lat="45.15083" lon="5.57676">
        <ele>1586</ele>
        <time>2010-01-01T08:09:22Z</time>
      </trkpt>
      <trkpt lat="45.15078" lon="5.57677">
        <ele>1585</ele>
        <time>2010-01-01T08:09:24Z</time>
      </trkpt>
      <trkpt lat="45.15073" lon="5.57678">
        <ele>1585</ele>
        <time>2010-01-01T08:09:26Z</time>
      </trkpt>
      <trkpt lat="45.15068" lon="5.57679">
        <ele>1584</ele>
        <time>2010-01-01T08:09:28Z</time>
      </trkpt>
      <trkpt lat="45.15063" lon="5.57681">
        <ele>1584</ele>
        <time>2010-01-01T08:09:30Z</time>
      </trkpt>
      <trkpt lat="45.15058" lon="5.57682">
        <ele>1583</ele>
        <time>2010-01-01T08:09:32Z</time>
      </trkpt>
      <trkpt lat="45.15054" lon="5.57684">
        <ele>1583</ele>
        <time>2010-01-01T08:09:35Z</time>
      </trkpt>
      <trkpt lat="45.1505" lon="5.57686">
        <ele>1582</ele>
        <time>2010-01-01T08:09:37Z</time>
      </trkpt>
      <trkpt lat="45.15045" lon="5.57687">
        <ele>1581</ele>
        <time>2010-01-01T08:09:38Z</time>
      </trkpt>
      <trkpt lat="45.15041" lon="5.57687">
        <ele>1581</ele>
        <time>2010-01-01T08:09:40Z</time>
      </trkpt>
      <trkpt lat="45.15036" lon="5.57687">
        <ele>1580</ele>
        <time>2010-01-01T08:09:42Z</time>
      </trkpt>
      <trkpt lat="45.15031" lon="5.57686">
        <ele>1580</ele>
        <time>2010-01-01T08:09:44Z</time>
      </trkpt>
      <trkpt lat="45.15026" lon="5.57685">
        <ele>1580</ele>
        <time>2010-01-01T08:10:17Z</time>
      </trkpt>
      <trkpt lat="45.15023" lon="5.57684">
        <ele>1580</ele>
        <time>2010-01-01T08:10:43Z</time>
      </trkpt>
      <trkpt lat="45.15019" lon="5.57685">
        <ele>1580</ele>
        <time>2010-01-01T08:11:07Z</time>
      </trkpt>
      <trkpt lat="45.15014" lon="5.57686">
        <ele>1580</ele>
        <time>2010-01-01T08:11:44Z</time>
      </trkpt>
      <trkpt lat="45.1501" lon="5.57687">
        <ele>1580</ele>
        <time>2010-01-01T08:11:47Z</time>
      </trkpt>
      <trkpt lat="45.15005" lon="5.57688">
        <ele>1580</ele>
        <time>2010-01-01T08:12:08Z</time>
      </trkpt>
      <trkpt lat="45.15" lon="5.57688">
        <ele>1580</ele>
        <time>2010-01-01T08:12:18Z</time>
      </trkpt>
      <trkpt lat="45.14994" lon="5.57688">
        <ele>1580</ele>
        <time>2010-01-01T08:12:20Z</time>
      </trkpt>
      <trkpt lat="45.14986" lon="5.57687">
        <ele>1580</ele>
        <time>2010-01-01T08:12:22Z</time>
      </trkpt>
      <trkpt lat="45.14981" lon="5.57687">
        <ele>1579</ele>
        <time>2010-01-01T08:12:25Z</time>
      </trkpt>
      <trkpt lat="45.14976" lon="5.57687">
        <ele>1579</ele>
        <time>2010-01-01T08:12:28Z</time>
      </trkpt>
      <trkpt lat="45.1497" lon="5.57687">
        <ele>1579</ele>
        <time>2010-01-01T08:12:32Z</time>
      </trkpt>
      <trkpt lat="45.14966" lon="5.57687">
        <ele>1578</ele>
        <time>2010-01-01T08:12:34Z</time>
      </trkpt>
      <trkpt lat="45.14964" lon="5.57686">
        <ele>1578</ele>
        <time>2010-01-01T08:12:38Z</time>
      </trkpt>
      <trkpt lat="45.14961" lon="5.57684">
        <ele>1578</ele>
        <time>2010-01-01T08:12:40Z</time>
      </trkpt>
      <trkpt lat="45.1496" lon="5.57681">
        <ele>1578</ele>
        <time>2010-01-01T08:13:26Z</time>
      </trkpt>
      <trkpt lat="45.14957" lon="5.57677">
        <ele>1578</ele>
        <time>2010-01-01T08:13:28Z</time>
      </trkpt>
      <trkpt lat="45.14955" lon="5.57674">
        <ele>1578</ele>
        <time>2010-01-01T08:13:29Z</time>
      </trkpt>
      <trkpt lat="45.14952" lon="5.5767">
        <ele>1578</ele>
        <time>2010-01-01T08:13:30Z</time>
      </trkpt>
      <trkpt lat="45.1495" lon="5.57668">
        <ele>1578</ele>
        <time>2010-01-01T08:13:32Z</time>
      </trkpt>
      <trkpt lat="45.14946" lon="5.57665">
        <ele>1578</ele>
        <time>2010-01-01T08:13:33Z</time>
      </trkpt>
      <trkpt lat="45.14941" lon="5.57663">
        <ele>1578</ele>
        <time>2010-01-01T08:13:35Z</time>
      </trkpt>
      <trkpt lat="45.14937" lon="5.57661">
        <ele>1578</ele>
        <time>2010-01-01T08:13:37Z</time>
      </trkpt>
      <trkpt lat="45.14931" lon="5.5766">
        <ele>1578</ele>
        <time>2010-01-01T08:13:39Z</time>
      </trkpt>
      <trkpt lat="45.14926" lon="5.57658">
        <ele>1578</ele>
        <time>2010-01-01T08:13:40Z</time>
      </trkpt>
      <trkpt lat="45.1492" lon="5.57657">
        <ele>1578</ele>
        <time>2010-01-01T08:13:43Z</time>
      </trkpt>
      <trkpt lat="45.14913" lon="5.57655">
        <ele>1578</ele>
        <time>2010-01-01T08:13:45Z</time>
      </trkpt>
      <trkpt lat="45.14907" lon="5.57654">
        <ele>1578</ele>
        <time>2010-01-01T08:13:47Z</time>
      </trkpt>
      <trkpt lat="45.14901" lon="5.57652">
        <ele>1578</ele>
        <time>2010-01-01T08:13:49Z</time>
      </trkpt>
      <trkpt lat="45.14895" lon="5.57651">
        <ele>1578</ele>
        <time>2010-01-01T08:13:50Z</time>
      </trkpt>
      <trkpt lat="45.14892" lon="5.5765">
        <ele>1578</ele>
        <time>2010-01-01T08:13:52Z</time>
      </trkpt>
      <trkpt lat="45.14889" lon="5.57648">
        <ele>1579</ele>
        <time>2010-01-01T08:13:54Z</time>
      </trkpt>
      <trkpt lat="45.14885" lon="5.57647">
        <ele>1578</ele>
        <time>2010-01-01T08:13:56Z</time>
      </trkpt>
      <trkpt lat="45.14881" lon="5.57645">
        <ele>1578</ele>
        <time>2010-01-01T08:13:58Z</time>
      </trkpt>
      <trkpt lat="45.14877" lon="5.57643">
        <ele>1577</ele>
        <time>2010-01-01T08:13:59Z</time>
      </trkpt>
      <trkpt lat="45.14873" lon="5.5764">
        <ele>1577</ele>
        <time>2010-01-01T08:14:02Z</time>
      </trkpt>
      <trkpt lat="45.14869" lon="5.57637">
        <ele>1576</ele>
        <time>2010-01-01T08:14:03Z</time>
      </trkpt>
      <trkpt lat="45.14865" lon="5.57634">
        <ele>1576</ele>
        <time>2010-01-01T08:14:05Z</time>
      </trkpt>
      <trkpt lat="45.14861" lon="5.57632">
        <ele>1575</ele>
        <time>2010-01-01T08:14:07Z</time>
      </trkpt>
      <trkpt lat="45.14859" lon="5.57629">
        <ele>1575</ele>
        <time>2010-01-01T08:14:09Z</time>
      </trkpt>
      <trkpt lat="45.14857" lon="5.57624">
        <ele>1575</ele>
        <time>2010-01-01T08:14:11Z</time>
      </trkpt>
      <trkpt lat="45.14854" lon="5.5762">
        <ele>1574</ele>
        <time>2010-01-01T08:14:12Z</time>
      </trkpt>
      <trkpt lat="45.14853" lon="5.57617">
        <ele>1574</ele>
        <time>2010-01-01T08:14:14Z</time>
      </trkpt>
      <trkpt lat="45.1485" lon="5.57611">
        <ele>1574</ele>
        <time>2010-01-01T08:14:16Z</time>
      </trkpt>
      <trkpt lat="45.14848" lon="5.57606">
        <ele>1573</ele>
        <time>2010-01-01T08:14:18Z</time>
      </trkpt>
      <trkpt lat="45.14846" lon="5.57601">
        <ele>1572</ele>
        <time>2010-01-01T08:14:20Z</time>
      </trkpt>
      <trkpt lat="45.14843" lon="5.57599">
        <ele>1571</ele>
        <time>2010-01-01T08:14:21Z</time>
      </trkpt>
      <trkpt lat="45.14841" lon="5.57595">
        <ele>1570</ele>
        <time>2010-01-01T08:14:23Z</time>
      </trkpt>
      <trkpt lat="45.14837" lon="5.57594">
        <ele>1569</ele>
        <time>2010-01-01T08:14:24Z</time>
      </trkpt>
      <trkpt lat="45.14834" lon="5.57593">
        <ele>1569</ele>
        <time>2010-01-01T08:14:25Z</time>
      </trkpt>
      <trkpt lat="45.1483" lon="5.57592">
        <ele>1568</ele>
        <time>2010-01-01T08:14:27Z</time>
      </trkpt>
      <trkpt lat="45.14824" lon="5.57592">
        <ele>1567</ele>
        <time>2010-01-01T08:14:28Z</time>
      </trkpt>
      <trkpt lat="45.14818" lon="5.57592">
        <ele>1566</ele>
        <time>2010-01-01T08:14:29Z</time>
      </trkpt>
      <trkpt lat="45.14811" lon="5.57591">
        <ele>1564</ele>
        <time>2010-01-01T08:14:30Z</time>
      </trkpt>
      <trkpt lat="45.14803" lon="5.57588">
        <ele>1564</ele>
        <time>2010-01-01T08:14:31Z</time>
      </trkpt>
      <trkpt lat="45.14789" lon="5.57585">
        <ele>1564</ele>
        <time>2010-01-01T08:14:33Z</time>
      </trkpt>
      <trkpt lat="45.14772" lon="5.57579">
        <ele>1563</ele>
        <time>2010-01-01T08:14:34Z</time>
      </trkpt>
      <trkpt lat="45.1477" lon="5.57578">
        <ele>1563</ele>
        <time>2010-01-01T08:14:35Z</time>
      </trkpt>
      <trkpt lat="45.1477" lon="5.57579">
        <ele>1563</ele>
        <time>2010-01-01T08:14:36Z</time>
      </trkpt>
      <trkpt lat="45.14756" lon="5.57574">
        <ele>1561</ele>
        <time>2010-01-01T08:14:38Z</time>
      </trkpt>
      <trkpt lat="45.14752" lon="5.57574">
        <ele>1561</ele>
        <time>2010-01-01T08:14:39Z</time>
      </trkpt>
      <trkpt lat="45.14747" lon="5.57573">
        <ele>1560</ele>
        <time>2010-01-01T08:14:40Z</time>
      </trkpt>
      <trkpt lat="45.1474" lon="5.57572">
        <ele>1560</ele>
        <time>2010-01-01T08:14:42Z</time>
      </trkpt>
      <trkpt lat="45.14735" lon="5.57572">
        <ele>1559</ele>
        <time>2010-01-01T08:14:43Z</time>
      </trkpt>
      <trkpt lat="45.14728" lon="5.57571">
        <ele>1559</ele>
        <time>2010-01-01T08:14:45Z</time>
      </trkpt>
      <trkpt lat="45.14722" lon="5.57571">
        <ele>1558</ele>
        <time>2010-01-01T08:14:46Z</time>
      </trkpt>
      <trkpt lat="45.14717" lon="5.57571">
        <ele>1558</ele>
        <time>2010-01-01T08:14:47Z</time>
      </trkpt>
      <trkpt lat="45.14714" lon="5.57572">
        <ele>1558</ele>
        <time>2010-01-01T08:14:49Z</time>
      </trkpt>
      <trkpt lat="45.1471" lon="5.57573">
        <ele>1559</ele>
        <time>2010-01-01T08:14:50Z</time>
      </trkpt>
      <trkpt lat="45.14705" lon="5.57575">
        <ele>1559</ele>
        <time>2010-01-01T08:14:51Z</time>
      </trkpt>
      <trkpt lat="45.147" lon="5.57575">
        <ele>1559</ele>
        <time>2010-01-01T08:14:53Z</time>
      </trkpt>
      <trkpt lat="45.14695" lon="5.57574">
        <ele>1559</ele>
        <time>2010-01-01T08:14:55Z</time>
      </trkpt>
      <trkpt lat="45.1469" lon="5.57574">
        <ele>1560</ele>
        <time>2010-01-01T08:14:56Z</time>
      </trkpt>
      <trkpt lat="45.14686" lon="5.57573">
        <ele>1560</ele>
        <time>2010-01-01T08:14:58Z</time>
      </trkpt>
      <trkpt lat="45.14682" lon="5.57572">
        <ele>1560</ele>
        <time>2010-01-01T08:15:00Z</time>
      </trkpt>
      <trkpt lat="45.14677" lon="5.57571">
        <ele>1560</ele>
        <time>2010-01-01T08:15:02Z</time>
      </trkpt>
      <trkpt lat="45.14672" lon="5.57568">
        <ele>1560</ele>
        <time>2010-01-01T08:15:05Z</time>
      </trkpt>
      <trkpt lat="45.14667" lon="5.57565">
        <ele>1560</ele>
        <time>2010-01-01T08:15:07Z</time>
      </trkpt>
      <trkpt lat="45.1466" lon="5.57563">
        <ele>1559</ele>
        <time>2010-01-01T08:15:23Z</time>
      </trkpt>
      <trkpt lat="45.14655" lon="5.57563">
        <ele>1559</ele>
        <time>2010-01-01T08:15:38Z</time>
      </trkpt>
      <trkpt lat="45.14651" lon="5.57563">
        <ele>1558</ele>
        <time>2010-01-01T08:15:46Z</time>
      </trkpt>
      <trkpt lat="45.14646" lon="5.57563">
        <ele>1558</ele>
        <time>2010-01-01T08:15:54Z</time>
      </trkpt>
      <trkpt lat="45.14642" lon="5.57563">
        <ele>1557</ele>
        <time>2010-01-01T08:16:15Z</time>
      </trkpt>
      <trkpt lat="45.14638" lon="5.57564">
        <ele>1557</ele>
        <time>2010-01-01T08:16:21Z</time>
      </trkpt>
      <trkpt lat="45.14556" lon="5.57538">
        <ele>1549</ele>
        <time>2010-01-01T08:16:28Z</time>
      </trkpt>
      <trkpt lat="45.14492" lon="5.57522">
        <ele>1542</ele>
        <time>2010-01-01T08:16:53Z</time>
      </trkpt>
      <trkpt lat="45.14433" lon="5.57523">
        <ele>1532</ele>
        <time>2010-01-01T08:17:02Z</time>
      </trkpt>
      <trkpt lat="45.14342" lon="5.57549">
        <ele>1521</ele>
        <time>2010-01-01T08:17:03Z</time>
      </trkpt>
      <trkpt lat="45.14334" lon="5.5755">
        <ele>1519</ele>
        <time>2010-01-01T08:17:06Z</time>
      </trkpt>
      <trkpt lat="45.14283" lon="5.57554">
        <ele>1516</ele>
        <time>2010-01-01T08:17:08Z</time>
      </trkpt>
      <trkpt lat="45.14257" lon="5.57544">
        <ele>1511</ele>
        <time>2010-01-01T08:17:10Z</time>
      </trkpt>
      <trkpt lat="45.14253" lon="5.57542">
        <ele>1510</ele>
        <time>2010-01-01T08:17:13Z</time>
      </trkpt>
      <trkpt lat="45.14248" lon="5.57539">
        <ele>1509</ele>
        <time>2010-01-01T08:17:15Z</time>
      </trkpt>
      <trkpt lat="45.14242" lon="5.57534">
        <ele>1508</ele>
        <time>2010-01-01T08:17:18Z</time>
      </trkpt>
      <trkpt lat="45.14235" lon="5.57529">
        <ele>1508</ele>
        <time>2010-01-01T08:17:21Z</time>
      </trkpt>
      <trkpt lat="45.14228" lon="5.57523">
        <ele>1507</ele>
        <time>2010-01-01T08:17:24Z</time>
      </trkpt>
      <trkpt lat="45.14222" lon="5.57517">
        <ele>1506</ele>
        <time>2010-01-01T08:17:27Z</time>
      </trkpt>
      <trkpt lat="45.14216" lon="5.5751">
        <ele>1506</ele>
        <time>2010-01-01T08:17:29Z</time>
      </trkpt>
      <trkpt lat="45.14212" lon="5.57505">
        <ele>1506</ele>
        <time>2010-01-01T08:17:32Z</time>
      </trkpt>
      <trkpt lat="45.14099" lon="5.57475">
        <ele>1496</ele>
        <time>2010-01-01T08:17:35Z</time>
      </trkpt>
      <trkpt lat="45.14094" lon="5.57473">
        <ele>1496</ele>
        <time>2010-01-01T08:17:38Z</time>
      </trkpt>
      <trkpt lat="45.14091" lon="5.57471">
        <ele>1496</ele>
        <time>2010-01-01T08:17:41Z</time>
      </trkpt>
      <trkpt lat="45.14088" lon="5.57469">
        <ele>1496</ele>
        <time>2010-01-01T08:17:43Z</time>
      </trkpt>
      <trkpt lat="45.14084" lon="5.57467">
        <ele>1495</ele>
        <time>2010-01-01T08:17:47Z</time>
      </trkpt>
      <trkpt lat="45.14081" lon="5.57465">
        <ele>1495</ele>
        <time>2010-01-01T08:17:49Z</time>
      </trkpt>
      <trkpt lat="45.14077" lon="5.57463">
        <ele>1495</ele>
        <time>2010-01-01T08:17:53Z</time>
      </trkpt>
      <trkpt lat="45.14074" lon="5.5746">
        <ele>1495</ele>
        <time>2010-01-01T08:17:55Z</time>
      </trkpt>
      <trkpt lat="45.14069" lon="5.57458">
        <ele>1494</ele>
        <time>2010-01-01T08:17:58Z</time>
      </trkpt>
      <trkpt lat="45.14065" lon="5.57456">
        <ele>1494</ele>
        <time>2010-01-01T08:18:00Z</time>
      </trkpt>
      <trkpt lat="45.14059" lon="5.57453">
        <ele>1494</ele>
        <time>2010-01-01T08:18:03Z</time>
      </trkpt>
      <trkpt lat="45.14055" lon="5.5745">
        <ele>1494</ele>
        <time>2010-01-01T08:18:05Z</time>
      </trkpt>
      <trkpt lat="45.1405" lon="5.57447">
        <ele>1494</ele>
        <time>2010-01-01T08:18:08Z</time>
      </trkpt>
      <trkpt lat="45.14046" lon="5.57445">
        <ele>1493</ele>
        <time>2010-01-01T08:18:27Z</time>
      </trkpt>
      <trkpt lat="45.14042" lon="5.57444">
        <ele>1493</ele>
        <time>2010-01-01T08:18:53Z</time>
      </trkpt>
      <trkpt lat="45.14038" lon="5.57443">
        <ele>1493</ele>
        <time>2010-01-01T08:19:21Z</time>
      </trkpt>
      <trkpt lat="45.14033" lon="5.57442">
        <ele>1492</ele>
        <time>2010-01-01T08:19:54Z</time>
      </trkpt>
      <trkpt lat="45.14029" lon="5.57441">
        <ele>1491</ele>
        <time>2010-01-01T08:20:03Z</time>
      </trkpt>
      <trkpt lat="45.14024" lon="5.57439">
        <ele>1491</ele>
        <time>2010-01-01T08:20:05Z</time>
      </trkpt>
      <trkpt lat="45.1402" lon="5.57437">
        <ele>1490</ele>
        <time>2010-01-01T08:20:07Z</time>
      </trkpt>
      <trkpt lat="45.14014" lon="5.57435">
        <ele>1489</ele>
        <time>2010-01-01T08:20:09Z</time>
      </trkpt>
      <trkpt lat="45.1401" lon="5.57434">
        <ele>1489</ele>
        <time>2010-01-01T08:20:11Z</time>
      </trkpt>
      <trkpt lat="45.14006" lon="5.57433">
        <ele>1488</ele>
        <time>2010-01-01T08:20:14Z</time>
      </trkpt>
      <trkpt lat="45.14001" lon="5.57432">
        <ele>1488</ele>
        <time>2010-01-01T08:20:16Z</time>
      </trkpt>
      <trkpt lat="45.13996" lon="5.57432">
        <ele>1487</ele>
        <time>2010-01-01T08:20:19Z</time>
      </trkpt>
      <trkpt lat="45.13992" lon="5.5743">
        <ele>1486</ele>
        <time>2010-01-01T08:20:22Z</time>
      </trkpt>
      <trkpt lat="45.13988" lon="5.57429">
        <ele>1485</ele>
        <time>2010-01-01T08:20:24Z</time>
      </trkpt>
      <trkpt lat="45.13983" lon="5.57428">
        <ele>1485</ele>
        <time>2010-01-01T08:20:27Z</time>
      </trkpt>
      <trkpt lat="45.13979" lon="5.57427">
        <ele>1484</ele>
        <time>2010-01-01T08:20:30Z</time>
      </trkpt>
      <trkpt lat="45.13974" lon="5.57426">
        <ele>1483</ele>
        <time>2010-01-01T08:20:32Z</time>
      </trkpt>
      <trkpt lat="45.1397" lon="5.57425">
        <ele>1482</ele>
        <time>2010-01-01T08:20:35Z</time>
      </trkpt>
      <trkpt lat="45.13966" lon="5.57426">
        <ele>1481</ele>
        <time>2010-01-01T08:20:38Z</time>
      </trkpt>
      <trkpt lat="45.13963" lon="5.57427">
        <ele>1481</ele>
        <time>2010-01-01T08:20:42Z</time>
      </trkpt>
      <trkpt lat="45.13959" lon="5.57428">
        <ele>1480</ele>
        <time>2010-01-01T08:20:44Z</time>
      </trkpt>
      <trkpt lat="45.13956" lon="5.57429">
        <ele>1479</ele>
        <time>2010-01-01T08:20:46Z</time>
      </trkpt>
      <trkpt lat="45.13953" lon="5.57431">
        <ele>1478</ele>
        <time>2010-01-01T08:20:49Z</time>
      </trkpt>
      <trkpt lat="45.13951" lon="5.57431">
        <ele>1478</ele>
        <time>2010-01-01T08:20:52Z</time>
      </trkpt>
      <trkpt lat="45.13948" lon="5.57431">
        <ele>1477</ele>
        <time>2010-01-01T08:20:55Z</time>
      </trkpt>
      <trkpt lat="45.13945" lon="5.57431">
        <ele>1477</ele>
        <time>2010-01-01T08:20:55Z</time>
      </trkpt>
      <trkpt lat="45.13942" lon="5.5743">
        <ele>1476</ele>
        <time>2010-01-01T08:20:58Z</time>
      </trkpt>
      <trkpt lat="45.13938" lon="5.57429">
        <ele>1474</ele>
        <time>2010-01-01T08:21:01Z</time>
      </trkpt>
      <trkpt lat="45.13935" lon="5.57428">
        <ele>1474</ele>
        <time>2010-01-01T08:21:04Z</time>
      </trkpt>
      <trkpt lat="45.13932" lon="5.57429">
        <ele>1473</ele>
        <time>2010-01-01T08:21:06Z</time>
      </trkpt>
      <trkpt lat="45.13929" lon="5.57429">
        <ele>1472</ele>
        <time>2010-01-01T08:21:08Z</time>
      </trkpt>
      <trkpt lat="45.13925" lon="5.57429">
        <ele>1470</ele>
        <time>2010-01-01T08:21:10Z</time>
      </trkpt>
      <trkpt lat="45.13922" lon="5.57429">
        <ele>1469</ele>
        <time>2010-01-01T08:21:12Z</time>
      </trkpt>
      <trkpt lat="45.13919" lon="5.57429">
        <ele>1468</ele>
        <time>2010-01-01T08:21:14Z</time>
      </trkpt>
      <trkpt lat="45.13915" lon="5.57428">
        <ele>1467</ele>
        <time>2010-01-01T08:21:16Z</time>
      </trkpt>
      <trkpt lat="45.13912" lon="5.57427">
        <ele>1466</ele>
        <time>2010-01-01T08:21:18Z</time>
      </trkpt>
      <trkpt lat="45.13909" lon="5.57425">
        <ele>1466</ele>
        <time>2010-01-01T08:21:21Z</time>
      </trkpt>
      <trkpt lat="45.13906" lon="5.57424">
        <ele>1465</ele>
        <time>2010-01-01T08:21:23Z</time>
      </trkpt>
      <trkpt lat="45.13903" lon="5.57423">
        <ele>1464</ele>
        <time>2010-01-01T08:21:24Z</time>
      </trkpt>
      <trkpt lat="45.13899" lon="5.57421">
        <ele>1463</ele>
        <time>2010-01-01T08:21:26Z</time>
      </trkpt>
      <trkpt lat="45.13897" lon="5.57421">
        <ele>1462</ele>
        <time>2010-01-01T08:21:28Z</time>
      </trkpt>
      <trkpt lat="45.13893" lon="5.57419">
        <ele>1461</ele>
        <time>2010-01-01T08:21:30Z</time>
      </trkpt>
      <trkpt lat="45.13889" lon="5.57417">
        <ele>1460</ele>
        <time>2010-01-01T08:21:32Z</time>
      </trkpt>
      <trkpt lat="45.13885" lon="5.57417">
        <ele>1460</ele>
        <time>2010-01-01T08:21:34Z</time>
      </trkpt>
      <trkpt lat="45.13882" lon="5.57417">
        <ele>1459</ele>
        <time>2010-01-01T08:21:35Z</time>
      </trkpt>
      <trkpt lat="45.13878" lon="5.57415">
        <ele>1459</ele>
        <time>2010-01-01T08:22:02Z</time>
      </trkpt>
      <trkpt lat="45.13873" lon="5.57411">
        <ele>1459</ele>
        <time>2010-01-01T08:22:39Z</time>
      </trkpt>
      <trkpt lat="45.13867" lon="5.57407">
        <ele>1458</ele>
        <time>2010-01-01T08:22:57Z</time>
      </trkpt>
      <trkpt lat="45.13862" lon="5.57404">
        <ele>1458</ele>
        <time>2010-01-01T08:23:10Z</time>
      </trkpt>
      <trkpt lat="45.13856" lon="5.57402">
        <ele>1457</ele>
        <time>2010-01-01T08:23:22Z</time>
      </trkpt>
      <trkpt lat="45.13817" lon="5.57411">
        <ele>1450</ele>
        <time>2010-01-01T08:23:23Z</time>
      </trkpt>
      <trkpt lat="45.1378" lon="5.57405">
        <ele>1440</ele>
        <time>2010-01-01T08:23:33Z</time>
      </trkpt>
      <trkpt lat="45.13765" lon="5.57387">
        <ele>1441</ele>
        <time>2010-01-01T08:23:41Z</time>
      </trkpt>
      <trkpt lat="45.13744" lon="5.57385">
        <ele>1438</ele>
        <time>2010-01-01T08:23:51Z</time>
      </trkpt>
      <trkpt lat="45.13691" lon="5.5739">
        <ele>1433</ele>
        <time>2010-01-01T08:24:12Z</time>
      </trkpt>
      <trkpt lat="45.13678" lon="5.57384">
        <ele>1432</ele>
        <time>2010-01-01T08:24:25Z</time>
      </trkpt>
      <trkpt lat="45.1366" lon="5.57376">
        <ele>1430</ele>
        <time>2010-01-01T08:24:39Z</time>
      </trkpt>
      <trkpt lat="45.13604" lon="5.57337">
        <ele>1427</ele>
        <time>2010-01-01T08:25:01Z</time>
      </trkpt>
      <trkpt lat="45.13583" lon="5.57334">
        <ele>1425</ele>
        <time>2010-01-01T08:25:25Z</time>
      </trkpt>
      <trkpt lat="45.1358" lon="5.57333">
        <ele>1425</ele>
        <time>2010-01-01T08:25:31Z</time>
      </trkpt>
      <trkpt lat="45.13573" lon="5.57332">
        <ele>1425</ele>
        <time>2010-01-01T08:25:32Z</time>
      </trkpt>
      <trkpt lat="45.13568" lon="5.5733">
        <ele>1424</ele>
        <time>2010-01-01T08:25:45Z</time>
      </trkpt>
      <trkpt lat="45.13562" lon="5.5733">
        <ele>1424</ele>
        <time>2010-01-01T08:26:00Z</time>
      </trkpt>
      <trkpt lat="45.13556" lon="5.57327">
        <ele>1424</ele>
        <time>2010-01-01T08:26:09Z</time>
      </trkpt>
      <trkpt lat="45.13551" lon="5.57324">
        <ele>1423</ele>
        <time>2010-01-01T08:26:30Z</time>
      </trkpt>
      <trkpt lat="45.13545" lon="5.57322">
        <ele>1422</ele>
        <time>2010-01-01T08:27:24Z</time>
      </trkpt>
      <trkpt lat="45.13537" lon="5.57318">
        <ele>1422</ele>
        <time>2010-01-01T08:27:26Z</time>
      </trkpt>
      <trkpt lat="45.1353" lon="5.57313">
        <ele>1422</ele>
        <time>2010-01-01T08:27:29Z</time>
      </trkpt>
      <trkpt lat="45.13524" lon="5.5731">
        <ele>1422</ele>
        <time>2010-01-01T08:27:32Z</time>
      </trkpt>
      <trkpt lat="45.13517" lon="5.57308">
        <ele>1421</ele>
        <time>2010-01-01T08:27:35Z</time>
      </trkpt>
      <trkpt lat="45.1351" lon="5.57306">
        <ele>1421</ele>
        <time>2010-01-01T08:27:39Z</time>
      </trkpt>
      <trkpt lat="45.13503" lon="5.57304">
        <ele>1421</ele>
        <time>2010-01-01T08:27:41Z</time>
      </trkpt>
      <trkpt lat="45.13497" lon="5.57302">
        <ele>1420</ele>
        <time>2010-01-01T08:27:42Z</time>
      </trkpt>
      <trkpt lat="45.1349" lon="5.57298">
        <ele>1418</ele>
        <time>2010-01-01T08:27:52Z</time>
      </trkpt>
      <trkpt lat="45.13484" lon="5.57295">
        <ele>1416</ele>
        <time>2010-01-01T08:28:03Z</time>
      </trkpt>
      <trkpt lat="45.13475" lon="5.57293">
        <ele>1415</ele>
        <time>2010-01-01T08:28:18Z</time>
      </trkpt>
      <trkpt lat="45.13469" lon="5.5729">
        <ele>1414</ele>
        <time>2010-01-01T08:28:41Z</time>
      </trkpt>
      <trkpt lat="45.13461" lon="5.57287">
        <ele>1413</ele>
        <time>2010-01-01T08:29:09Z</time>
      </trkpt>
      <trkpt lat="45.13455" lon="5.57285">
        <ele>1412</ele>
        <time>2010-01-01T08:29:54Z</time>
      </trkpt>
      <trkpt lat="45.13448" lon="5.57282">
        <ele>1411</ele>
        <time>2010-01-01T08:29:57Z</time>
      </trkpt>
      <trkpt lat="45.13443" lon="5.57279">
        <ele>1411</ele>
        <time>2010-01-01T08:30:01Z</time>
      </trkpt>
      <trkpt lat="45.13437" lon="5.57277">
        <ele>1411</ele>
        <time>2010-01-01T08:30:03Z</time>
      </trkpt>
      <trkpt lat="45.13431" lon="5.57274">
        <ele>1411</ele>
        <time>2010-01-01T08:30:06Z</time>
      </trkpt>
      <trkpt lat="45.13425" lon="5.57269">
        <ele>1411</ele>
        <time>2010-01-01T08:30:06Z</time>
      </trkpt>
      <trkpt lat="45.13382" lon="5.57245">
        <ele>1411</ele>
        <time>2010-01-01T08:30:08Z</time>
      </trkpt>
      <trkpt lat="45.13332" lon="5.57183">
        <ele>1406</ele>
        <time>2010-01-01T08:30:10Z</time>
      </trkpt>
      <trkpt lat="45.13272" lon="5.57135">
        <ele>1401</ele>
        <time>2010-01-01T08:30:13Z</time>
      </trkpt>
      <trkpt lat="45.13194" lon="5.57091">
        <ele>1394</ele>
        <time>2010-01-01T08:30:19Z</time>
      </trkpt>
      <trkpt lat="45.13176" lon="5.57077">
        <ele>1391</ele>
        <time>2010-01-01T08:30:23Z</time>
      </trkpt>
      <trkpt lat="45.1317" lon="5.57077">
        <ele>1391</ele>
        <time>2010-01-01T08:30:27Z</time>
      </trkpt>
      <trkpt lat="45.13166" lon="5.57078">
        <ele>1391</ele>
        <time>2010-01-01T08:30:29Z</time>
      </trkpt>
      <trkpt lat="45.1316" lon="5.57077">
        <ele>1390</ele>
        <time>2010-01-01T08:30:37Z</time>
      </trkpt>
      <trkpt lat="45.13154" lon="5.57076">
        <ele>1390</ele>
        <time>2010-01-01T08:30:50Z</time>
      </trkpt>
      <trkpt lat="45.13149" lon="5.57073">
        <ele>1389</ele>
        <time>2010-01-01T08:31:02Z</time>
      </trkpt>
      <trkpt lat="45.13143" lon="5.57069">
        <ele>1388</ele>
        <time>2010-01-01T08:31:05Z</time>
      </trkpt>
      <trkpt lat="45.13137" lon="5.57065">
        <ele>1387</ele>
        <time>2010-01-01T08:31:12Z</time>
      </trkpt>
      <trkpt lat="45.1313" lon="5.57061">
        <ele>1385</ele>
        <time>2010-01-01T08:31:16Z</time>
      </trkpt>
      <trkpt lat="45.13125" lon="5.57057">
        <ele>1384</ele>
        <time>2010-01-01T08:31:24Z</time>
      </trkpt>
      <trkpt lat="45.13118" lon="5.57054">
        <ele>1382</ele>
        <time>2010-01-01T08:31:32Z</time>
      </trkpt>
      <trkpt lat="45.13112" lon="5.5705">
        <ele>1381</ele>
        <time>2010-01-01T08:31:37Z</time>
      </trkpt>
      <trkpt lat="45.13106" lon="5.57047">
        <ele>1380</ele>
        <time>2010-01-01T08:31:38Z</time>
      </trkpt>
      <trkpt lat="45.13099" lon="5.57046">
        <ele>1379</ele>
        <time>2010-01-01T08:31:44Z</time>
      </trkpt>
      <trkpt lat="45.13092" lon="5.57045">
        <ele>1379</ele>
        <time>2010-01-01T08:31:51Z</time>
      </trkpt>
      <trkpt lat="45.13083" lon="5.57044">
        <ele>1378</ele>
        <time>2010-01-01T08:31:56Z</time>
      </trkpt>
      <trkpt lat="45.13077" lon="5.57044">
        <ele>1378</ele>
        <time>2010-01-01T08:32:01Z</time>
      </trkpt>
      <trkpt lat="45.13072" lon="5.57042">
        <ele>1378</ele>
        <time>2010-01-01T08:32:07Z</time>
      </trkpt>
      <trkpt lat="45.13065" lon="5.5704">
        <ele>1377</ele>
        <time>2010-01-01T08:32:15Z</time>
      </trkpt>
      <trkpt lat="45.13058" lon="5.57037">
        <ele>1377</ele>
        <time>2010-01-01T08:32:18Z</time>
      </trkpt>
      <trkpt lat="45.13051" lon="5.57033">
        <ele>1376</ele>
        <time>2010-01-01T08:32:31Z</time>
      </trkpt>
      <trkpt lat="45.1305" lon="5.57032">
        <ele>1375</ele>
        <time>2010-01-01T08:32:46Z</time>
      </trkpt>
      <trkpt lat="45.13044" lon="5.57028">
        <ele>1375</ele>
        <time>2010-01-01T08:32:57Z</time>
      </trkpt>
      <trkpt lat="45.13037" lon="5.57025">
        <ele>1374</ele>
        <time>2010-01-01T08:33:00Z</time>
      </trkpt>
      <trkpt lat="45.13031" lon="5.57022">
        <ele>1373</ele>
        <time>2010-01-01T08:33:03Z</time>
      </trkpt>
      <trkpt lat="45.13025" lon="5.57019">
        <ele>1371</ele>
        <time>2010-01-01T08:33:05Z</time>
      </trkpt>
      <trkpt lat="45.13021" lon="5.57015">
        <ele>1369</ele>
        <time>2010-01-01T08:33:09Z</time>
      </trkpt>
      <trkpt lat="45.13017" lon="5.57012">
        <ele>1368</ele>
        <time>2010-01-01T08:33:13Z</time>
      </trkpt>
      <trkpt lat="45.13013" lon="5.57009">
        <ele>1366</ele>
        <time>2010-01-01T08:33:16Z</time>
      </trkpt>
      <trkpt lat="45.13008" lon="5.57007">
        <ele>1365</ele>
        <time>2010-01-01T08:33:19Z</time>
      </trkpt>
      <trkpt lat="45.13004" lon="5.57004">
        <ele>1363</ele>
        <time>2010-01-01T08:33:21Z</time>
      </trkpt>
      <trkpt lat="45.12999" lon="5.57">
        <ele>1361</ele>
        <time>2010-01-01T08:33:23Z</time>
      </trkpt>
      <trkpt lat="45.12993" lon="5.56996">
        <ele>1360</ele>
        <time>2010-01-01T08:33:26Z</time>
      </trkpt>
      <trkpt lat="45.12989" lon="5.56991">
        <ele>1359</ele>
        <time>2010-01-01T08:33:30Z</time>
      </trkpt>
      <trkpt lat="45.12985" lon="5.5699">
        <ele>1358</ele>
        <time>2010-01-01T08:33:34Z</time>
      </trkpt>
      <trkpt lat="45.12981" lon="5.5699">
        <ele>1358</ele>
        <time>2010-01-01T08:33:39Z</time>
      </trkpt>
      <trkpt lat="45.12977" lon="5.56989">
        <ele>1357</ele>
        <time>2010-01-01T08:33:44Z</time>
      </trkpt>
      <trkpt lat="45.12972" lon="5.56988">
        <ele>1357</ele>
        <time>2010-01-01T08:33:47Z</time>
      </trkpt>
      <trkpt lat="45.12967" lon="5.56984">
        <ele>1356</ele>
        <time>2010-01-01T08:33:51Z</time>
      </trkpt>
      <trkpt lat="45.12963" lon="5.5698">
        <ele>1355</ele>
        <time>2010-01-01T08:33:53Z</time>
      </trkpt>
      <trkpt lat="45.12961" lon="5.56977">
        <ele>1355</ele>
        <time>2010-01-01T08:33:56Z</time>
      </trkpt>
      <trkpt lat="45.12895" lon="5.56954">
        <ele>1345</ele>
        <time>2010-01-01T08:33:59Z</time>
      </trkpt>
      <trkpt lat="45.12805" lon="5.56922">
        <ele>1330</ele>
        <time>2010-01-01T08:34:02Z</time>
      </trkpt>
      <trkpt lat="45.12762" lon="5.56923">
        <ele>1323</ele>
        <time>2010-01-01T08:34:05Z</time>
      </trkpt>
      <trkpt lat="45.12728" lon="5.56933">
        <ele>1316</ele>
        <time>2010-01-01T08:34:07Z</time>
      </trkpt>
      <trkpt lat="45.12701" lon="5.56944">
        <ele>1312</ele>
        <time>2010-01-01T08:34:10Z</time>
      </trkpt>
      <trkpt lat="45.12698" lon="5.56945">
        <ele>1311</ele>
        <time>2010-01-01T08:34:12Z</time>
      </trkpt>
      <trkpt lat="45.12672" lon="5.56944">
        <ele>1308</ele>
        <time>2010-01-01T08:34:14Z</time>
      </trkpt>
      <trkpt lat="45.12654" lon="5.56937">
        <ele>1304</ele>
        <time>2010-01-01T08:34:17Z</time>
      </trkpt>
      <trkpt lat="45.1263" lon="5.56925">
        <ele>1299</ele>
        <time>2010-01-01T08:34:19Z</time>
      </trkpt>
      <trkpt lat="45.12582" lon="5.56895">
        <ele>1292</ele>
        <time>2010-01-01T08:34:21Z</time>
      </trkpt>
      <trkpt lat="45.12553" lon="5.56875">
        <ele>1284</ele>
        <time>2010-01-01T08:34:24Z</time>
      </trkpt>
      <trkpt lat="45.12519" lon="5.56863">
        <ele>1278</ele>
        <time>2010-01-01T08:34:27Z</time>
      </trkpt>
      <trkpt lat="45.12465" lon="5.56858">
        <ele>1267</ele>
        <time>2010-01-01T08:34:30Z</time>
      </trkpt>
      <trkpt lat="45.12405" lon="5.56841">
        <ele>1259</ele>
        <time>2010-01-01T08:34:32Z</time>
      </trkpt>
      <trkpt lat="45.1239" lon="5.56835">
        <ele>1256</ele>
        <time>2010-01-01T08:34:35Z</time>
      </trkpt>
      <trkpt lat="45.12388" lon="5.56834">
        <ele>1256</ele>
        <time>2010-01-01T08:34:38Z</time>
      </trkpt>
      <trkpt lat="45.12362" lon="5.56808">
        <ele>1249</ele>
        <time>2010-01-01T08:34:40Z</time>
      </trkpt>
      <trkpt lat="45.12335" lon="5.56773">
        <ele>1241</ele>
        <time>2010-01-01T08:34:43Z</time>
      </trkpt>
      <trkpt lat="45.12313" lon="5.56766">
        <ele>1237</ele>
        <time>2010-01-01T08:34:46Z</time>
      </trkpt>
      <trkpt lat="45.1226" lon="5.56775">
        <ele>1227</ele>
        <time>2010-01-01T08:34:49Z</time>
      </trkpt>
      <trkpt lat="45.12126" lon="5.568">
        <ele>1194</ele>
        <time>2010-01-01T08:34:51Z</time>
      </trkpt>
      <trkpt lat="45.12121" lon="5.56804">
        <ele>1193</ele>
        <time>2010-01-01T08:34:54Z</time>
      </trkpt>
      <trkpt lat="45.12116" lon="5.56808">
        <ele>1192</ele>
        <time>2010-01-01T08:34:57Z</time>
      </trkpt>
      <trkpt lat="45.12108" lon="5.56812">
        <ele>1190</ele>
        <time>2010-01-01T08:35:00Z</time>
      </trkpt>
      <trkpt lat="45.121" lon="5.56816">
        <ele>1188</ele>
        <time>2010-01-01T08:35:01Z</time>
      </trkpt>
      <trkpt lat="45.12092" lon="5.56821">
        <ele>1186</ele>
        <time>2010-01-01T08:35:04Z</time>
      </trkpt>
      <trkpt lat="45.12088" lon="5.56823">
        <ele>1185</ele>
        <time>2010-01-01T08:35:06Z</time>
      </trkpt>
      <trkpt lat="45.12092" lon="5.56821">
        <ele>1186</ele>
        <time>2010-01-01T08:35:09Z</time>
      </trkpt>
      <trkpt lat="45.12094" lon="5.56856">
        <ele>1187</ele>
        <time>2010-01-01T08:35:12Z</time>
      </trkpt>
      <trkpt lat="45.12104" lon="5.56893">
        <ele>1180</ele>
        <time>2010-01-01T08:35:15Z</time>
      </trkpt>
      <trkpt lat="45.12126" lon="5.56934">
        <ele>1163</ele>
        <time>2010-01-01T08:35:17Z</time>
      </trkpt>
      <trkpt lat="45.12174" lon="5.56976">
        <ele>1160</ele>
        <time>2010-01-01T08:35:19Z</time>
      </trkpt>
      <trkpt lat="45.12235" lon="5.57025">
        <ele>1137</ele>
        <time>2010-01-01T08:35:22Z</time>
      </trkpt>
      <trkpt lat="45.1233" lon="5.57114">
        <ele>1122</ele>
        <time>2010-01-01T08:35:24Z</time>
      </trkpt>
      <trkpt lat="45.12337" lon="5.5712">
        <ele>1120</ele>
        <time>2010-01-01T08:35:26Z</time>
      </trkpt>
      <trkpt lat="45.12344" lon="5.57125">
        <ele>1118</ele>
        <time>2010-01-01T08:35:28Z</time>
      </trkpt>
      <trkpt lat="45.12349" lon="5.57129">
        <ele>1117</ele>
        <time>2010-01-01T08:35:30Z</time>
      </trkpt>
      <trkpt lat="45.12355" lon="5.57133">
        <ele>1116</ele>
        <time>2010-01-01T08:35:33Z</time>
      </trkpt>
      <trkpt lat="45.12356" lon="5.57134">
        <ele>1116</ele>
        <time>2010-01-01T08:35:35Z</time>
      </trkpt>
      <trkpt lat="45.1236" lon="5.57136">
        <ele>1115</ele>
        <time>2010-01-01T08:35:37Z</time>
      </trkpt>
      <trkpt lat="45.12364" lon="5.5714">
        <ele>1114</ele>
        <time>2010-01-01T08:35:40Z</time>
      </trkpt>
      <trkpt lat="45.12372" lon="5.57146">
        <ele>1113</ele>
        <time>2010-01-01T08:35:42Z</time>
      </trkpt>
      <trkpt lat="45.12385" lon="5.57154">
        <ele>1115</ele>
        <time>2010-01-01T08:35:45Z</time>
      </trkpt>
      <trkpt lat="45.12395" lon="5.5716">
        <ele>1115</ele>
        <time>2010-01-01T08:35:48Z</time>
      </trkpt>
      <trkpt lat="45.12402" lon="5.57165">
        <ele>1115</ele>
        <time>2010-01-01T08:35:50Z</time>
      </trkpt>
      <trkpt lat="45.12408" lon="5.57168">
        <ele>1115</ele>
        <time>2010-01-01T08:35:52Z</time>
      </trkpt>
      <trkpt lat="45.12387" lon="5.57168">
        <ele>1108</ele>
        <time>2010-01-01T08:35:55Z</time>
      </trkpt>
      <trkpt lat="45.12355" lon="5.57165">
        <ele>1093</ele>
        <time>2010-01-01T08:36:34Z</time>
      </trkpt>
      <trkpt lat="45.12326" lon="5.57165">
        <ele>1088</ele>
        <time>2010-01-01T08:36:59Z</time>
      </trkpt>
      <trkpt lat="45.12333" lon="5.57168">
        <ele>1087</ele>
        <time>2010-01-01T08:37:06Z</time>
      </trkpt>
      <trkpt lat="45.12348" lon="5.5718">
        <ele>1086</ele>
        <time>2010-01-01T08:37:10Z</time>
      </trkpt>
      <trkpt lat="45.12357" lon="5.57189">
        <ele>1085</ele>
        <time>2010-01-01T08:37:27Z</time>
      </trkpt>
      <trkpt lat="45.12373" lon="5.57204">
        <ele>1087</ele>
        <time>2010-01-01T08:37:43Z</time>
      </trkpt>
      <trkpt lat="45.12389" lon="5.57221">
        <ele>1089</ele>
        <time>2010-01-01T08:37:49Z</time>
      </trkpt>
      <trkpt lat="45.124" lon="5.57233">
        <ele>1087</ele>
        <time>2010-01-01T08:37:53Z</time>
      </trkpt>
      <trkpt lat="45.12401" lon="5.57233">
        <ele>1087</ele>
        <time>2010-01-01T08:37:55Z</time>
      </trkpt>
      <trkpt lat="45.12415" lon="5.57244">
        <ele>1085</ele>
        <time>2010-01-01T08:37:58Z</time>
      </trkpt>
      <trkpt lat="45.12429" lon="5.57256">
        <ele>1083</ele>
        <time>2010-01-01T08:38:01Z</time>
      </trkpt>
      <trkpt lat="45.12441" lon="5.57265">
        <ele>1083</ele>
        <time>2010-01-01T08:38:03Z</time>
      </trkpt>
      <trkpt lat="45.12449" lon="5.57276">
        <ele>1081</ele>
        <time>2010-01-01T08:38:03Z</time>
      </trkpt>
      <trkpt lat="45.12461" lon="5.57293">
        <ele>1076</ele>
        <time>2010-01-01T08:38:05Z</time>
      </trkpt>
      <trkpt lat="45.12474" lon="5.57311">
        <ele>1070</ele>
        <time>2010-01-01T08:38:07Z</time>
      </trkpt>
      <trkpt lat="45.12481" lon="5.5732">
        <ele>1068</ele>
        <time>2010-01-01T08:38:09Z</time>
      </trkpt>
      <trkpt lat="45.12506" lon="5.57349">
        <ele>1063</ele>
        <time>2010-01-01T08:38:11Z</time>
      </trkpt>
      <trkpt lat="45.12534" lon="5.57383">
        <ele>1057</ele>
        <time>2010-01-01T08:38:13Z</time>
      </trkpt>
      <trkpt lat="45.12556" lon="5.57407">
        <ele>1059</ele>
        <time>2010-01-01T08:38:15Z</time>
      </trkpt>
      <trkpt lat="45.12562" lon="5.57414">
        <ele>1059</ele>
        <time>2010-01-01T08:38:17Z</time>
      </trkpt>
      <trkpt lat="45.12566" lon="5.57422">
        <ele>1057</ele>
        <time>2010-01-01T08:38:20Z</time>
      </trkpt>
      <trkpt lat="45.12566" lon="5.57428">
        <ele>1056</ele>
        <time>2010-01-01T08:38:22Z</time>
      </trkpt>
      <trkpt lat="45.12558" lon="5.5742">
        <ele>1056</ele>
        <time>2010-01-01T08:38:24Z</time>
      </trkpt>
      <trkpt lat="45.12566" lon="5.57428">
        <ele>1056</ele>
        <time>2010-01-01T08:38:27Z</time>
      </trkpt>
      <trkpt lat="45.12574" lon="5.57435">
        <ele>1056</ele>
        <time>2010-01-01T08:38:30Z</time>
      </trkpt>
      <trkpt lat="45.12575" lon="5.57443">
        <ele>1055</ele>
        <time>2010-01-01T08:38:32Z</time>
      </trkpt>
      <trkpt lat="45.12578" lon="5.57449">
        <ele>1054</ele>
        <time>2010-01-01T08:38:33Z</time>
      </trkpt>
      <trkpt lat="45.12581" lon="5.57455">
        <ele>1053</ele>
        <time>2010-01-01T08:38:34Z</time>
      </trkpt>
      <trkpt lat="45.12586" lon="5.57462">
        <ele>1053</ele>
        <time>2010-01-01T08:38:35Z</time>
      </trkpt>
      <trkpt lat="45.12593" lon="5.57472">
        <ele>1052</ele>
        <time>2010-01-01T08:38:36Z</time>
      </trkpt>
      <trkpt lat="45.12602" lon="5.57483">
        <ele>1049</ele>
        <time>2010-01-01T08:38:39Z</time>
      </trkpt>
      <trkpt lat="45.12611" lon="5.57493">
        <ele>1047</ele>
        <time>2010-01-01T08:38:42Z</time>
      </trkpt>
      <trkpt lat="45.12619" lon="5.57504">
        <ele>1045</ele>
        <time>2010-01-01T08:38:45Z</time>
      </trkpt>
      <trkpt lat="45.12625" lon="5.57512">
        <ele>1044</ele>
        <time>2010-01-01T08:38:49Z</time>
      </trkpt>
      <trkpt lat="45.12631" lon="5.57522">
        <ele>1042</ele>
        <time>2010-01-01T08:38:55Z</time>
      </trkpt>
      <trkpt lat="45.12635" lon="5.57529">
        <ele>1041</ele>
        <time>2010-01-01T08:38:56Z</time>
      </trkpt>
      <trkpt lat="45.1264" lon="5.57537">
        <ele>1041</ele>
        <time>2010-01-01T08:39:00Z</time>
      </trkpt>
      <trkpt lat="45.12645" lon="5.57544">
        <ele>1042</ele>
        <time>2010-01-01T08:39:02Z</time>
      </trkpt>
      <trkpt lat="45.12649" lon="5.57552">
        <ele>1042</ele>
        <time>2010-01-01T08:39:05Z</time>
      </trkpt>
      <trkpt lat="45.12653" lon="5.57561">
        <ele>1041</ele>
        <time>2010-01-01T08:39:08Z</time>
      </trkpt>
      <trkpt lat="45.12657" lon="5.57568">
        <ele>1041</ele>
        <time>2010-01-01T08:39:11Z</time>
      </trkpt>
      <trkpt lat="45.12661" lon="5.57576">
        <ele>1040</ele>
        <time>2010-01-01T08:39:13Z</time>
      </trkpt>
      <trkpt lat="45.12665" lon="5.57582">
        <ele>1040</ele>
        <time>2010-01-01T08:39:15Z</time>
      </trkpt>
      <trkpt lat="45.12669" lon="5.57587">
        <ele>1039</ele>
        <time>2010-01-01T08:39:18Z</time>
      </trkpt>
      <trkpt lat="45.12673" lon="5.57592">
        <ele>1037</ele>
        <time>2010-01-01T08:39:21Z</time>
      </trkpt>
      <trkpt lat="45.12677" lon="5.57596">
        <ele>1036</ele>
        <time>2010-01-01T08:39:26Z</time>
      </trkpt>
      <trkpt lat="45.12682" lon="5.57601">
        <ele>1034</ele>
        <time>2010-01-01T08:39:32Z</time>
      </trkpt>
      <trkpt lat="45.12689" lon="5.57606">
        <ele>1032</ele>
        <time>2010-01-01T08:39:40Z</time>
      </trkpt>
      <trkpt lat="45.12695" lon="5.57611">
        <ele>1029</ele>
        <time>2010-01-01T08:39:42Z</time>
      </trkpt>
      <trkpt lat="45.12701" lon="5.57616">
        <ele>1026</ele>
        <time>2010-01-01T08:39:50Z</time>
      </trkpt>
      <trkpt lat="45.12707" lon="5.57621">
        <ele>1023</ele>
        <time>2010-01-01T08:40:00Z</time>
      </trkpt>
      <trkpt lat="45.12712" lon="5.57627">
        <ele>1021</ele>
        <time>2010-01-01T08:40:06Z</time>
      </trkpt>
      <trkpt lat="45.12718" lon="5.57633">
        <ele>1018</ele>
        <time>2010-01-01T08:40:08Z</time>
      </trkpt>
      <trkpt lat="45.12722" lon="5.57638">
        <ele>1017</ele>
        <time>2010-01-01T08:40:17Z</time>
      </trkpt>
      <trkpt lat="45.12727" lon="5.57644">
        <ele>1018</ele>
        <time>2010-01-01T08:40:21Z</time>
      </trkpt>
      <trkpt lat="45.12732" lon="5.57651">
        <ele>1020</ele>
        <time>2010-01-01T08:40:28Z</time>
      </trkpt>
      <trkpt lat="45.12737" lon="5.57659">
        <ele>1020</ele>
        <time>2010-01-01T08:40:38Z</time>
      </trkpt>
      <trkpt lat="45.12742" lon="5.57666">
        <ele>1019</ele>
        <time>2010-01-01T08:40:47Z</time>
      </trkpt>
      <trkpt lat="45.12746" lon="5.57675">
        <ele>1019</ele>
        <time>2010-01-01T08:40:53Z</time>
      </trkpt>
      <trkpt lat="45.1275" lon="5.57682">
        <ele>1019</ele>
        <time>2010-01-01T08:41:00Z</time>
      </trkpt>
      <trkpt lat="45.12753" lon="5.5769">
        <ele>1019</ele>
        <time>2010-01-01T08:41:16Z</time>
      </trkpt>
      <trkpt lat="45.12755" lon="5.57696">
        <ele>1019</ele>
        <time>2010-01-01T08:41:25Z</time>
      </trkpt>
      <trkpt lat="45.12757" lon="5.57704">
        <ele>1019</ele>
        <time>2010-01-01T08:41:31Z</time>
      </trkpt>
      <trkpt lat="45.12759" lon="5.57713">
        <ele>1019</ele>
        <time>2010-01-01T08:41:40Z</time>
      </trkpt>
      <trkpt lat="45.12761" lon="5.57723">
        <ele>1019</ele>
        <time>2010-01-01T08:41:47Z</time>
      </trkpt>
      <trkpt lat="45.12764" lon="5.57732">
        <ele>1019</ele>
        <time>2010-01-01T08:41:52Z</time>
      </trkpt>
      <trkpt lat="45.12766" lon="5.57742">
        <ele>1019</ele>
        <time>2010-01-01T08:42:03Z</time>
      </trkpt>
      <trkpt lat="45.12767" lon="5.5775">
        <ele>1019</ele>
        <time>2010-01-01T08:42:09Z</time>
      </trkpt>
      <trkpt lat="45.12768" lon="5.57757">
        <ele>1018</ele>
        <time>2010-01-01T08:42:10Z</time>
      </trkpt>
      <trkpt lat="45.12769" lon="5.57765">
        <ele>1017</ele>
        <time>2010-01-01T08:42:14Z</time>
      </trkpt>
      <trkpt lat="45.12769" lon="5.57773">
        <ele>1016</ele>
        <time>2010-01-01T08:42:19Z</time>
      </trkpt>
      <trkpt lat="45.1277" lon="5.57781">
        <ele>1015</ele>
        <time>2010-01-01T08:42:22Z</time>
      </trkpt>
      <trkpt lat="45.1277" lon="5.57787">
        <ele>1014</ele>
        <time>2010-01-01T08:42:23Z</time>
      </trkpt>
      <trkpt lat="45.12769" lon="5.57795">
        <ele>1012</ele>
        <time>2010-01-01T08:42:25Z</time>
      </trkpt>
      <trkpt lat="45.12769" lon="5.57804">
        <ele>1011</ele>
        <time>2010-01-01T08:42:27Z</time>
      </trkpt>
      <trkpt lat="45.12768" lon="5.57812">
        <ele>1010</ele>
        <time>2010-01-01T08:42:28Z</time>
      </trkpt>
      <trkpt lat="45.12767" lon="5.57819">
        <ele>1009</ele>
        <time>2010-01-01T08:42:30Z</time>
      </trkpt>
      <trkpt lat="45.12765" lon="5.57828">
        <ele>1008</ele>
        <time>2010-01-01T08:42:30Z</time>
      </trkpt>
      <trkpt lat="45.12764" lon="5.57837">
        <ele>1008</ele>
        <time>2010-01-01T08:42:32Z</time>
      </trkpt>
      <trkpt lat="45.12763" lon="5.57846">
        <ele>1007</ele>
      </trkpt>
      <trkpt lat="45.12762" lon="5.57855">
        <ele>1006</ele>
      </trkpt>
      <trkpt lat="45.12761" lon="5.57865">
        <ele>1005</ele>
      </trkpt>
      <trkpt lat="45.1276" lon="5.57871">
        <ele>1004</ele>
      </trkpt>
      <trkpt lat="45.12766" lon="5.57876">
        <ele>1004</ele>
      </trkpt>
      <trkpt lat="45.12851" lon="5.57942">
        <ele>1004</ele>
      </trkpt>
      <trkpt lat="45.12907" lon="5.57986">
        <ele>1007</ele>
      </trkpt>
      <trkpt lat="45.12921" lon="5.57997">
        <ele>1008</ele>
      </trkpt>
      <trkpt lat="45.12931" lon="5.58005">
        <ele>1008</ele>
      </trkpt>
      <trkpt lat="45.12968" lon="5.58033">
        <ele>1007</ele>
      </trkpt>
      <trkpt lat="45.13002" lon="5.5806">
        <ele>1007</ele>
      </trkpt>
      <trkpt lat="45.13016" lon="5.58071">
        <ele>1007</ele>
      </trkpt>
      <trkpt lat="45.13024" lon="5.58076">
        <ele>1007</ele>
      </trkpt>
      <trkpt lat="45.1303" lon="5.58078">
        <ele>1007</ele>
      </trkpt>
      <trkpt lat="45.13037" lon="5.5808">
        <ele>1006</ele>
      </trkpt>
      <trkpt lat="45.13045" lon="5.58083">
        <ele>1006</ele>
      </trkpt>
      <trkpt lat="45.13049" lon="5.58086">
        <ele>1006</ele>
      </trkpt>
      <trkpt lat="45.13049" lon="5.58087">
        <ele>1006</ele>
      </trkpt>
      <trkpt lat="45.13052" lon="5.58091">
        <ele>1006</ele>
      </trkpt>
      <trkpt lat="45.13054" lon="5.58097">
        <ele>1006</ele>
      </trkpt>
      <trkpt lat="45.13055" lon="5.58105">
        <ele>1006</ele>
      </trkpt>
      <trkpt lat="45.13056" lon="5.58112">
        <ele>1005</ele>
      </trkpt>
      <trkpt lat="45.13056" lon="5.5812">
        <ele>1005</ele>
      </trkpt>
      <trkpt lat="45.13056" lon="5.58127">
        <ele>1005</ele>
      </trkpt>
      <trkpt lat="45.13056" lon="5.58134">
        <ele>1005</ele>
      </trkpt>
      <trkpt lat="45.13059" lon="5.5814">
        <ele>1004</ele>
      </trkpt>
      <trkpt lat="45.13064" lon="5.58145">
        <ele>1004</ele>
      </trkpt>
      <trkpt lat="45.13069" lon="5.58148">
        <ele>1004</ele>
      </trkpt>
      <trkpt lat="45.13077" lon="5.5815">
        <ele>1004</ele>
      </trkpt>
      <trkpt lat="45.13076" lon="5.5816">
        <ele>1004</ele>
      </trkpt>
      <trkpt lat="45.13076" lon="5.58165">
        <ele>1004</ele>
      </trkpt>
      <trkpt lat="45.13077" lon="5.58169">
        <ele>1004</ele>
      </trkpt>
      <trkpt lat="45.13078" lon="5.58173">
        <ele>1004</ele>
      </trkpt>
      <trkpt lat="45.13079" lon="5.58176">
        <ele>1004</ele>
      </trkpt>
      <trkpt lat="45.13081" lon="5.58179">
        <ele>1004</ele>
      </trkpt>
      <trkpt lat="45.13077" lon="5.58187">
        <ele>1004</ele>
      </trkpt>
      <trkpt lat="45.13072" lon="5.58196">
        <ele>1004</ele>
      </trkpt>
      <trkpt lat="45.13066" lon="5.58203">
        <ele>1005</ele>
      </trkpt>
      <trkpt lat="45.13057" lon="5.58209">
        <ele>1006</ele>
      </trkpt>
      <trkpt lat="45.13044" lon="5.58214">
        <ele>1007</ele>
      </trkpt>
      <trkpt lat="45.1304" lon="5.58216">
        <ele>1007</ele>
      </trkpt>
      <trkpt lat="45.13032" lon="5.58221">
        <ele>1007</ele>
      </trkpt>
      <trkpt lat="45.13027" lon="5.58226">
        <ele>1007</ele>
      </trkpt>
      <trkpt lat="45.13021" lon="5.58232">
        <ele>1007</ele>
      </trkpt>
      <trkpt lat="45.13016" lon="5.58239">
        <ele>1007</ele>
      </trkpt>
      <trkpt lat="45.13012" lon="5.58246">
        <ele>1008</ele>
      </trkpt>
      <trkpt lat="45.13008" lon="5.58252">
        <ele>1008</ele>
      </trkpt>
      <trkpt lat="45.13005" lon="5.5826">
        <ele>1007</ele>
      </trkpt>
      <trkpt lat="45.13003" lon="5.58268">
        <ele>1006</ele>
      </trkpt>
      <trkpt lat="45.12999" lon="5.58279">
        <ele>1006</ele>
      </trkpt>
      <trkpt lat="45.12994" lon="5.58294">
        <ele>1006</ele>
      </trkpt>
      <trkpt lat="45.12988" lon="5.58315">
        <ele>1007</ele>
      </trkpt>
      <trkpt lat="45.1298" lon="5.58341">
        <ele>1008</ele>
      </trkpt>
      <trkpt lat="45.12979" lon="5.58346">
        <ele>1009</ele>
      </trkpt>
      <trkpt lat="45.12971" lon="5.58374">
        <ele>1010</ele>
      </trkpt>
      <trkpt lat="45.12962" lon="5.58404">
        <ele>1009</ele>
      </trkpt>
      <trkpt lat="45.12955" lon="5.58426">
        <ele>1009</ele>
      </trkpt>
      <trkpt lat="45.12954" lon="5.5843">
        <ele>1008</ele>
      </trkpt>
      <trkpt lat="45.12944" lon="5.58461">
        <ele>1008</ele>
      </trkpt>
      <trkpt lat="45.1294" lon="5.58474">
        <ele>1008</ele>
      </trkpt>
      <trkpt lat="45.12934" lon="5.58495">
        <ele>1010</ele>
      </trkpt>
      <trkpt lat="45.12924" lon="5.58527">
        <ele>1012</ele>
      </trkpt>
      <trkpt lat="45.12915" lon="5.58558">
        <ele>1012</ele>
      </trkpt>
      <trkpt lat="45.12909" lon="5.58576">
        <ele>1012</ele>
      </trkpt>
      <trkpt lat="45.12902" lon="5.58601">
        <ele>1012</ele>
      </trkpt>
      <trkpt lat="45.12887" lon="5.58651">
        <ele>1015</ele>
      </trkpt>
      <trkpt lat="45.12878" lon="5.58682">
        <ele>1016</ele>
      </trkpt>
      <trkpt lat="45.12872" lon="5.58703">
        <ele>1016</ele>
      </trkpt>
      <trkpt lat="45.12863" lon="5.5873">
        <ele>1015</ele>
      </trkpt>
      <trkpt lat="45.12856" lon="5.58753">
        <ele>1015</ele>
      </trkpt>
      <trkpt lat="45.12851" lon="5.58771">
        <ele>1015</ele>
      </trkpt>
      <trkpt lat="45.12841" lon="5.58804">
        <ele>1016</ele>
      </trkpt>
      <trkpt lat="45.12835" lon="5.58826">
        <ele>1016</ele>
      </trkpt>
      <trkpt lat="45.12834" lon="5.58829">
        <ele>1016</ele>
      </trkpt>
      <trkpt lat="45.1283" lon="5.58843">
        <ele>1017</ele>
      </trkpt>
      <trkpt lat="45.12825" lon="5.58859">
        <ele>1018</ele>
      </trkpt>
      <trkpt lat="45.12822" lon="5.58869">
        <ele>1018</ele>
      </trkpt>
      <trkpt lat="45.12821" lon="5.58872">
        <ele>1018</ele>
      </trkpt>
      <trkpt lat="45.1282" lon="5.58877">
        <ele>1018</ele>
      </trkpt>
      <trkpt lat="45.12818" lon="5.58884">
        <ele>1018</ele>
      </trkpt>
      <trkpt lat="45.12818" lon="5.58889">
        <ele>1018</ele>
      </trkpt>
      <trkpt lat="45.12817" lon="5.58895">
        <ele>1018</ele>
      </trkpt>
      <trkpt lat="45.12783" lon="5.59121">
        <ele>1020</ele>
      </trkpt>
    </trkseg>
  </trk>
</gpx>